<?xml version="1.0" encoding="UTF-8" standalone="no" ?>
<gpx xmlns="http://www.topografix.com/GPX/1/1" xmlns:xsi="http://www.w3.org/2001/XMLSchema-instance" xsi:schemaLocation="http://www.topografix.com/GPX/1/1 http://www.topografix.com/GPX/1/1/gpx.xsd" version="1.1" creator="VisuGPX - https://www.visugpx.com">
  <metadata>
    <name>ColDesPortesAin</name>
  </metadata>
  <trk>
    <name><![CDATA[ColDesPortesAin_1]]></name>
    <trkseg>
      <trkpt lat="45.85866" lon="5.4866">
        <ele>1023</ele>
        <time>2020-05-28T06:01:54.000Z</time>
      </trkpt>
      <trkpt lat="45.85866" lon="5.48657">
        <ele>1023</ele>
        <time>2020-05-28T06:01:56.000Z</time>
      </trkpt>
      <trkpt lat="45.85868" lon="5.48655">
        <ele>1023</ele>
        <time>2020-05-28T06:01:58.000Z</time>
      </trkpt>
      <trkpt lat="45.85869" lon="5.48653">
        <ele>1023</ele>
        <time>2020-05-28T06:02:00.000Z</time>
      </trkpt>
      <trkpt lat="45.85871" lon="5.48651">
        <ele>1023</ele>
        <time>2020-05-28T06:02:02.000Z</time>
      </trkpt>
      <trkpt lat="45.85873" lon="5.4865">
        <ele>1023</ele>
        <time>2020-05-28T06:02:09.000Z</time>
      </trkpt>
      <trkpt lat="45.8588" lon="5.48658">
        <ele>1023</ele>
        <time>2020-05-28T06:02:17.000Z</time>
      </trkpt>
      <trkpt lat="45.85883" lon="5.4866">
        <ele>1023</ele>
        <time>2020-05-28T06:02:19.000Z</time>
      </trkpt>
      <trkpt lat="45.85885" lon="5.48661">
        <ele>1023</ele>
        <time>2020-05-28T06:02:21.000Z</time>
      </trkpt>
      <trkpt lat="45.85887" lon="5.48661">
        <ele>1023</ele>
        <time>2020-05-28T06:02:23.000Z</time>
      </trkpt>
      <trkpt lat="45.85889" lon="5.48663">
        <ele>1023</ele>
        <time>2020-05-28T06:02:25.000Z</time>
      </trkpt>
      <trkpt lat="45.85891" lon="5.48664">
        <ele>1023</ele>
        <time>2020-05-28T06:02:27.000Z</time>
      </trkpt>
      <trkpt lat="45.85894" lon="5.48666">
        <ele>1023</ele>
        <time>2020-05-28T06:02:30.000Z</time>
      </trkpt>
      <trkpt lat="45.85896" lon="5.4867">
        <ele>1023</ele>
        <time>2020-05-28T06:02:32.000Z</time>
      </trkpt>
      <trkpt lat="45.85896" lon="5.48674">
        <ele>1023</ele>
        <time>2020-05-28T06:02:33.000Z</time>
      </trkpt>
      <trkpt lat="45.85897" lon="5.48677">
        <ele>1023</ele>
        <time>2020-05-28T06:02:34.000Z</time>
      </trkpt>
      <trkpt lat="45.85898" lon="5.48681">
        <ele>1023</ele>
        <time>2020-05-28T06:02:35.000Z</time>
      </trkpt>
      <trkpt lat="45.85898" lon="5.48683">
        <ele>1023</ele>
        <time>2020-05-28T06:02:36.000Z</time>
      </trkpt>
      <trkpt lat="45.85899" lon="5.48686">
        <ele>1023</ele>
        <time>2020-05-28T06:02:37.000Z</time>
      </trkpt>
      <trkpt lat="45.859" lon="5.4869">
        <ele>1023</ele>
        <time>2020-05-28T06:02:39.000Z</time>
      </trkpt>
      <trkpt lat="45.859" lon="5.48695">
        <ele>1023</ele>
        <time>2020-05-28T06:02:41.000Z</time>
      </trkpt>
      <trkpt lat="45.859" lon="5.48698">
        <ele>1023</ele>
        <time>2020-05-28T06:02:43.000Z</time>
      </trkpt>
      <trkpt lat="45.859" lon="5.48702">
        <ele>1023</ele>
        <time>2020-05-28T06:02:45.000Z</time>
      </trkpt>
      <trkpt lat="45.85901" lon="5.48706">
        <ele>1023</ele>
        <time>2020-05-28T06:02:47.000Z</time>
      </trkpt>
      <trkpt lat="45.85902" lon="5.4871">
        <ele>1023</ele>
        <time>2020-05-28T06:02:49.000Z</time>
      </trkpt>
      <trkpt lat="45.85904" lon="5.48713">
        <ele>1023</ele>
        <time>2020-05-28T06:02:51.000Z</time>
      </trkpt>
      <trkpt lat="45.85905" lon="5.48716">
        <ele>1023</ele>
        <time>2020-05-28T06:02:53.000Z</time>
      </trkpt>
      <trkpt lat="45.85906" lon="5.48718">
        <ele>1023</ele>
        <time>2020-05-28T06:02:55.000Z</time>
      </trkpt>
      <trkpt lat="45.85908" lon="5.48719">
        <ele>1020.85800448</ele>
        <time>2020-05-28T06:03:00.000Z</time>
      </trkpt>
      <trkpt lat="45.85911" lon="5.48719">
        <ele>1018.75800448</ele>
        <time>2020-05-28T06:03:03.000Z</time>
      </trkpt>
      <trkpt lat="45.85915" lon="5.48716">
        <ele>1017.35800448</ele>
        <time>2020-05-28T06:03:05.000Z</time>
      </trkpt>
      <trkpt lat="45.85917" lon="5.48715">
        <ele>1016</ele>
        <time>2020-05-28T06:03:07.000Z</time>
      </trkpt>
      <trkpt lat="45.85919" lon="5.48714">
        <ele>1016</ele>
        <time>2020-05-28T06:03:09.000Z</time>
      </trkpt>
      <trkpt lat="45.85922" lon="5.48714">
        <ele>1016</ele>
        <time>2020-05-28T06:03:11.000Z</time>
      </trkpt>
      <trkpt lat="45.85924" lon="5.48713">
        <ele>1016</ele>
        <time>2020-05-28T06:03:13.000Z</time>
      </trkpt>
      <trkpt lat="45.85926" lon="5.48712">
        <ele>1016</ele>
        <time>2020-05-28T06:03:15.000Z</time>
      </trkpt>
      <trkpt lat="45.85928" lon="5.48712">
        <ele>1016</ele>
        <time>2020-05-28T06:03:17.000Z</time>
      </trkpt>
      <trkpt lat="45.85938" lon="5.48718">
        <ele>1016</ele>
        <time>2020-05-28T06:03:25.000Z</time>
      </trkpt>
      <trkpt lat="45.8594" lon="5.48721">
        <ele>1016</ele>
        <time>2020-05-28T06:03:27.000Z</time>
      </trkpt>
      <trkpt lat="45.85941" lon="5.48725">
        <ele>1016</ele>
        <time>2020-05-28T06:03:29.000Z</time>
      </trkpt>
      <trkpt lat="45.85943" lon="5.48729">
        <ele>1016</ele>
        <time>2020-05-28T06:03:31.000Z</time>
      </trkpt>
      <trkpt lat="45.85945" lon="5.48732">
        <ele>1016</ele>
        <time>2020-05-28T06:03:32.000Z</time>
      </trkpt>
      <trkpt lat="45.85946" lon="5.48736">
        <ele>1016</ele>
        <time>2020-05-28T06:03:34.000Z</time>
      </trkpt>
      <trkpt lat="45.85947" lon="5.4874">
        <ele>1016</ele>
        <time>2020-05-28T06:03:36.000Z</time>
      </trkpt>
      <trkpt lat="45.85947" lon="5.48745">
        <ele>1016.100603557</ele>
        <time>2020-05-28T06:03:38.000Z</time>
      </trkpt>
      <trkpt lat="45.85945" lon="5.48747">
        <ele>1016.2012071139</ele>
        <time>2020-05-28T06:03:39.000Z</time>
      </trkpt>
      <trkpt lat="45.85944" lon="5.4875">
        <ele>1016.4024142278</ele>
        <time>2020-05-28T06:03:41.000Z</time>
      </trkpt>
      <trkpt lat="45.85943" lon="5.48753">
        <ele>1016.6036213417</ele>
        <time>2020-05-28T06:03:43.000Z</time>
      </trkpt>
      <trkpt lat="45.85941" lon="5.48757">
        <ele>1016.8048284556</ele>
        <time>2020-05-28T06:03:45.000Z</time>
      </trkpt>
      <trkpt lat="45.8594" lon="5.48761">
        <ele>1017</ele>
        <time>2020-05-28T06:03:47.000Z</time>
      </trkpt>
      <trkpt lat="45.85938" lon="5.48764">
        <ele>1017</ele>
        <time>2020-05-28T06:03:49.000Z</time>
      </trkpt>
      <trkpt lat="45.85936" lon="5.48767">
        <ele>1017</ele>
        <time>2020-05-28T06:03:51.000Z</time>
      </trkpt>
      <trkpt lat="45.85934" lon="5.48769">
        <ele>1017</ele>
        <time>2020-05-28T06:03:53.000Z</time>
      </trkpt>
      <trkpt lat="45.85933" lon="5.48772">
        <ele>1017</ele>
        <time>2020-05-28T06:03:55.000Z</time>
      </trkpt>
      <trkpt lat="45.85931" lon="5.48775">
        <ele>1017.0039920185</ele>
        <time>2020-05-28T06:03:57.000Z</time>
      </trkpt>
      <trkpt lat="45.8593" lon="5.48777">
        <ele>1017.2035929444</ele>
        <time>2020-05-28T06:03:59.000Z</time>
      </trkpt>
      <trkpt lat="45.85928" lon="5.4878">
        <ele>1017.4031938703</ele>
        <time>2020-05-28T06:04:01.000Z</time>
      </trkpt>
      <trkpt lat="45.85927" lon="5.48783">
        <ele>1017.6027947962</ele>
        <time>2020-05-28T06:04:03.000Z</time>
      </trkpt>
      <trkpt lat="45.85925" lon="5.48786">
        <ele>1017.8023957221</ele>
        <time>2020-05-28T06:04:05.000Z</time>
      </trkpt>
      <trkpt lat="45.85924" lon="5.48788">
        <ele>1018</ele>
        <time>2020-05-28T06:04:07.000Z</time>
      </trkpt>
      <trkpt lat="45.85922" lon="5.48791">
        <ele>1018</ele>
        <time>2020-05-28T06:04:09.000Z</time>
      </trkpt>
      <trkpt lat="45.85921" lon="5.48794">
        <ele>1018</ele>
        <time>2020-05-28T06:04:11.000Z</time>
      </trkpt>
      <trkpt lat="45.8592" lon="5.48797">
        <ele>1018</ele>
        <time>2020-05-28T06:04:13.000Z</time>
      </trkpt>
      <trkpt lat="45.85919" lon="5.488">
        <ele>1018</ele>
        <time>2020-05-28T06:04:15.000Z</time>
      </trkpt>
      <trkpt lat="45.85917" lon="5.48802">
        <ele>1018.00599936</ele>
        <time>2020-05-28T06:04:17.000Z</time>
      </trkpt>
      <trkpt lat="45.85916" lon="5.48805">
        <ele>1018.20599936</ele>
        <time>2020-05-28T06:04:19.000Z</time>
      </trkpt>
      <trkpt lat="45.85915" lon="5.48807">
        <ele>1018.40599936</ele>
        <time>2020-05-28T06:04:21.000Z</time>
      </trkpt>
      <trkpt lat="45.85913" lon="5.4881">
        <ele>1018.60599936</ele>
        <time>2020-05-28T06:04:23.000Z</time>
      </trkpt>
      <trkpt lat="45.85912" lon="5.48813">
        <ele>1018.80599936</ele>
        <time>2020-05-28T06:04:25.000Z</time>
      </trkpt>
      <trkpt lat="45.85911" lon="5.48816">
        <ele>1019</ele>
        <time>2020-05-28T06:04:27.000Z</time>
      </trkpt>
      <trkpt lat="45.8591" lon="5.48819">
        <ele>1019</ele>
        <time>2020-05-28T06:04:29.000Z</time>
      </trkpt>
      <trkpt lat="45.85909" lon="5.48821">
        <ele>1019</ele>
        <time>2020-05-28T06:04:31.000Z</time>
      </trkpt>
      <trkpt lat="45.85908" lon="5.48824">
        <ele>1019</ele>
        <time>2020-05-28T06:04:33.000Z</time>
      </trkpt>
      <trkpt lat="45.85907" lon="5.48827">
        <ele>1019</ele>
        <time>2020-05-28T06:04:35.000Z</time>
      </trkpt>
      <trkpt lat="45.85906" lon="5.4883">
        <ele>1019.00599936</ele>
        <time>2020-05-28T06:04:37.000Z</time>
      </trkpt>
      <trkpt lat="45.85905" lon="5.48833">
        <ele>1019.20599936</ele>
        <time>2020-05-28T06:04:39.000Z</time>
      </trkpt>
      <trkpt lat="45.85904" lon="5.48836">
        <ele>1019.40599936</ele>
        <time>2020-05-28T06:04:41.000Z</time>
      </trkpt>
      <trkpt lat="45.85903" lon="5.48839">
        <ele>1019.60599936</ele>
        <time>2020-05-28T06:04:43.000Z</time>
      </trkpt>
      <trkpt lat="45.85902" lon="5.48842">
        <ele>1019.80599936</ele>
        <time>2020-05-28T06:04:45.000Z</time>
      </trkpt>
      <trkpt lat="45.85901" lon="5.48845">
        <ele>1020.01199872</ele>
        <time>2020-05-28T06:04:47.000Z</time>
      </trkpt>
      <trkpt lat="45.859" lon="5.48847">
        <ele>1020.41199872</ele>
        <time>2020-05-28T06:04:49.000Z</time>
      </trkpt>
      <trkpt lat="45.85899" lon="5.4885">
        <ele>1020.81199872</ele>
        <time>2020-05-28T06:04:51.000Z</time>
      </trkpt>
      <trkpt lat="45.85898" lon="5.48853">
        <ele>1021.21199872</ele>
        <time>2020-05-28T06:04:53.000Z</time>
      </trkpt>
      <trkpt lat="45.85897" lon="5.48856">
        <ele>1021.61199872</ele>
        <time>2020-05-28T06:04:55.000Z</time>
      </trkpt>
      <trkpt lat="45.85897" lon="5.48859">
        <ele>1022.00599936</ele>
        <time>2020-05-28T06:04:57.000Z</time>
      </trkpt>
      <trkpt lat="45.85896" lon="5.48862">
        <ele>1022.20599936</ele>
        <time>2020-05-28T06:04:59.000Z</time>
      </trkpt>
      <trkpt lat="45.85895" lon="5.48864">
        <ele>1022.40599936</ele>
        <time>2020-05-28T06:05:01.000Z</time>
      </trkpt>
      <trkpt lat="45.85894" lon="5.48867">
        <ele>1022.70599936</ele>
        <time>2020-05-28T06:05:04.000Z</time>
      </trkpt>
      <trkpt lat="45.85893" lon="5.4887">
        <ele>1022.90599936</ele>
        <time>2020-05-28T06:05:06.000Z</time>
      </trkpt>
      <trkpt lat="45.85893" lon="5.48873">
        <ele>1023.1056824142</ele>
        <time>2020-05-28T06:05:08.000Z</time>
      </trkpt>
      <trkpt lat="45.85893" lon="5.48876">
        <ele>1023.3050843997</ele>
        <time>2020-05-28T06:05:10.000Z</time>
      </trkpt>
      <trkpt lat="45.85893" lon="5.4888">
        <ele>1023.6041873779</ele>
        <time>2020-05-28T06:05:13.000Z</time>
      </trkpt>
      <trkpt lat="45.85893" lon="5.48883">
        <ele>1023.9032903561</ele>
        <time>2020-05-28T06:05:16.000Z</time>
      </trkpt>
      <trkpt lat="45.85892" lon="5.48887">
        <ele>1024.2036109574</ele>
        <time>2020-05-28T06:05:19.000Z</time>
      </trkpt>
      <trkpt lat="45.85891" lon="5.4889">
        <ele>1024.4042125697</ele>
        <time>2020-05-28T06:05:21.000Z</time>
      </trkpt>
      <trkpt lat="45.85891" lon="5.48893">
        <ele>1024.6048141819</ele>
        <time>2020-05-28T06:05:23.000Z</time>
      </trkpt>
      <trkpt lat="45.85891" lon="5.48896">
        <ele>1024.9057166003</ele>
        <time>2020-05-28T06:05:26.000Z</time>
      </trkpt>
      <trkpt lat="45.8589" lon="5.48899">
        <ele>1025.4111766299</ele>
        <time>2020-05-28T06:05:29.000Z</time>
      </trkpt>
      <trkpt lat="45.8589" lon="5.48902">
        <ele>1026.2095803335</ele>
        <time>2020-05-28T06:05:33.000Z</time>
      </trkpt>
      <trkpt lat="45.85889" lon="5.48905">
        <ele>1026.8083831111</ele>
        <time>2020-05-28T06:05:36.000Z</time>
      </trkpt>
      <trkpt lat="45.85888" lon="5.48908">
        <ele>1027.2044086866</ele>
        <time>2020-05-28T06:05:39.000Z</time>
      </trkpt>
      <trkpt lat="45.85888" lon="5.48912">
        <ele>1027.5050096962</ele>
        <time>2020-05-28T06:05:42.000Z</time>
      </trkpt>
      <trkpt lat="45.85887" lon="5.48915">
        <ele>1027.8056107058</ele>
        <time>2020-05-28T06:05:45.000Z</time>
      </trkpt>
      <trkpt lat="45.85886" lon="5.48917">
        <ele>1028.0119867371</ele>
        <time>2020-05-28T06:05:47.000Z</time>
      </trkpt>
      <trkpt lat="45.85885" lon="5.4892">
        <ele>1028.4115872644</ele>
        <time>2020-05-28T06:05:49.000Z</time>
      </trkpt>
      <trkpt lat="45.85884" lon="5.48923">
        <ele>1029.0109880555</ele>
        <time>2020-05-28T06:05:52.000Z</time>
      </trkpt>
      <trkpt lat="45.85883" lon="5.48926">
        <ele>1029.6103888465</ele>
        <time>2020-05-28T06:05:55.000Z</time>
      </trkpt>
      <trkpt lat="45.85882" lon="5.48929">
        <ele>1030.2083326984</ele>
        <time>2020-05-28T06:05:58.000Z</time>
      </trkpt>
      <trkpt lat="45.85881" lon="5.48933">
        <ele>1030.8035707936</ele>
        <time>2020-05-28T06:06:01.000Z</time>
      </trkpt>
      <trkpt lat="45.85879" lon="5.48935">
        <ele>1031.3988088889</ele>
        <time>2020-05-28T06:06:04.000Z</time>
      </trkpt>
      <trkpt lat="45.85878" lon="5.48938">
        <ele>1031.9940469841</ele>
        <time>2020-05-28T06:06:07.000Z</time>
      </trkpt>
      <trkpt lat="45.85877" lon="5.48942">
        <ele>1032.2996968558</ele>
        <time>2020-05-28T06:06:10.000Z</time>
      </trkpt>
      <trkpt lat="45.85876" lon="5.48945">
        <ele>1032.6024212787</ele>
        <time>2020-05-28T06:06:13.000Z</time>
      </trkpt>
      <trkpt lat="45.85875" lon="5.48949">
        <ele>1032.9051457017</ele>
        <time>2020-05-28T06:06:16.000Z</time>
      </trkpt>
      <trkpt lat="45.85875" lon="5.48951">
        <ele>1033.21199872</ele>
        <time>2020-05-28T06:06:18.000Z</time>
      </trkpt>
      <trkpt lat="45.85874" lon="5.48954">
        <ele>1033.61199872</ele>
        <time>2020-05-28T06:06:20.000Z</time>
      </trkpt>
      <trkpt lat="45.85873" lon="5.48958">
        <ele>1034.21199872</ele>
        <time>2020-05-28T06:06:23.000Z</time>
      </trkpt>
      <trkpt lat="45.85873" lon="5.48961">
        <ele>1034.81199872</ele>
        <time>2020-05-28T06:06:26.000Z</time>
      </trkpt>
      <trkpt lat="45.85874" lon="5.48964">
        <ele>1035.41199872</ele>
        <time>2020-05-28T06:06:29.000Z</time>
      </trkpt>
      <trkpt lat="45.85874" lon="5.48968">
        <ele>1036.01199872</ele>
        <time>2020-05-28T06:06:32.000Z</time>
      </trkpt>
      <trkpt lat="45.85874" lon="5.48971">
        <ele>1036.61199872</ele>
        <time>2020-05-28T06:06:35.000Z</time>
      </trkpt>
      <trkpt lat="45.85874" lon="5.48974">
        <ele>1037.2117870008</ele>
        <time>2020-05-28T06:06:38.000Z</time>
      </trkpt>
      <trkpt lat="45.85874" lon="5.48976">
        <ele>1037.8111877918</ele>
        <time>2020-05-28T06:06:41.000Z</time>
      </trkpt>
      <trkpt lat="45.85875" lon="5.48979">
        <ele>1038.4105885828</ele>
        <time>2020-05-28T06:06:44.000Z</time>
      </trkpt>
      <trkpt lat="45.85876" lon="5.48982">
        <ele>1039.0098807905</ele>
        <time>2020-05-28T06:06:47.000Z</time>
      </trkpt>
      <trkpt lat="45.85878" lon="5.48984">
        <ele>1039.602766166</ele>
        <time>2020-05-28T06:06:50.000Z</time>
      </trkpt>
      <trkpt lat="45.85879" lon="5.48987">
        <ele>1040.1956515415</ele>
        <time>2020-05-28T06:06:53.000Z</time>
      </trkpt>
      <trkpt lat="45.85881" lon="5.48989">
        <ele>1040.5909084585</ele>
        <time>2020-05-28T06:06:55.000Z</time>
      </trkpt>
      <trkpt lat="45.85882" lon="5.48991">
        <ele>1040.9861653755</ele>
        <time>2020-05-28T06:06:57.000Z</time>
      </trkpt>
      <trkpt lat="45.85883" lon="5.48994">
        <ele>1041.2968587487</ele>
        <time>2020-05-28T06:07:00.000Z</time>
      </trkpt>
      <trkpt lat="45.85884" lon="5.48997">
        <ele>1041.600810018</ele>
        <time>2020-05-28T06:07:03.000Z</time>
      </trkpt>
      <trkpt lat="45.85885" lon="5.49">
        <ele>1041.9047612872</ele>
        <time>2020-05-28T06:07:06.000Z</time>
      </trkpt>
      <trkpt lat="45.85886" lon="5.49002">
        <ele>1042.1055771864</ele>
        <time>2020-05-28T06:07:08.000Z</time>
      </trkpt>
      <trkpt lat="45.85887" lon="5.49005">
        <ele>1042.4043823482</ele>
        <time>2020-05-28T06:07:11.000Z</time>
      </trkpt>
      <trkpt lat="45.85887" lon="5.49008">
        <ele>1042.6035857894</ele>
        <time>2020-05-28T06:07:13.000Z</time>
      </trkpt>
      <trkpt lat="45.85888" lon="5.49011">
        <ele>1042.8027892306</ele>
        <time>2020-05-28T06:07:15.000Z</time>
      </trkpt>
      <trkpt lat="45.85889" lon="5.49013">
        <ele>1043.0020086721</ele>
        <time>2020-05-28T06:07:17.000Z</time>
      </trkpt>
      <trkpt lat="45.8589" lon="5.49015">
        <ele>1043.3032131043</ele>
        <time>2020-05-28T06:07:20.000Z</time>
      </trkpt>
      <trkpt lat="45.8589" lon="5.49018">
        <ele>1043.6044175365</ele>
        <time>2020-05-28T06:07:23.000Z</time>
      </trkpt>
      <trkpt lat="45.85889" lon="5.49021">
        <ele>1043.9056219687</ele>
        <time>2020-05-28T06:07:26.000Z</time>
      </trkpt>
      <trkpt lat="45.85889" lon="5.49024">
        <ele>1044.20599936</ele>
        <time>2020-05-28T06:07:29.000Z</time>
      </trkpt>
      <trkpt lat="45.8589" lon="5.49027">
        <ele>1044.50599936</ele>
        <time>2020-05-28T06:07:32.000Z</time>
      </trkpt>
      <trkpt lat="45.85891" lon="5.4903">
        <ele>1044.70599936</ele>
        <time>2020-05-28T06:07:34.000Z</time>
      </trkpt>
      <trkpt lat="45.85891" lon="5.49033">
        <ele>1044.99400064</ele>
        <time>2020-05-28T06:07:37.000Z</time>
      </trkpt>
      <trkpt lat="45.85892" lon="5.49036">
        <ele>1044.79400064</ele>
        <time>2020-05-28T06:07:39.000Z</time>
      </trkpt>
      <trkpt lat="45.85892" lon="5.49039">
        <ele>1044.59400064</ele>
        <time>2020-05-28T06:07:41.000Z</time>
      </trkpt>
      <trkpt lat="45.85892" lon="5.49042">
        <ele>1044.39400064</ele>
        <time>2020-05-28T06:07:43.000Z</time>
      </trkpt>
      <trkpt lat="45.85892" lon="5.49045">
        <ele>1044.19400064</ele>
        <time>2020-05-28T06:07:45.000Z</time>
      </trkpt>
      <trkpt lat="45.85894" lon="5.49047">
        <ele>1043.9940776289</ele>
        <time>2020-05-28T06:07:47.000Z</time>
      </trkpt>
      <trkpt lat="45.85895" lon="5.4905">
        <ele>1043.7966442003</ele>
        <time>2020-05-28T06:07:49.000Z</time>
      </trkpt>
      <trkpt lat="45.85896" lon="5.49052">
        <ele>1043.5004940574</ele>
        <time>2020-05-28T06:07:52.000Z</time>
      </trkpt>
      <trkpt lat="45.85898" lon="5.49053">
        <ele>1043.1056272002</ele>
        <time>2020-05-28T06:07:56.000Z</time>
      </trkpt>
      <trkpt lat="45.859" lon="5.49053">
        <ele>1043</ele>
        <time>2020-05-28T06:07:59.000Z</time>
      </trkpt>
      <trkpt lat="45.85901" lon="5.49056">
        <ele>1043</ele>
        <time>2020-05-28T06:08:02.000Z</time>
      </trkpt>
      <trkpt lat="45.85902" lon="5.49059">
        <ele>1043</ele>
        <time>2020-05-28T06:08:04.000Z</time>
      </trkpt>
      <trkpt lat="45.85903" lon="5.49061">
        <ele>1043</ele>
        <time>2020-05-28T06:08:06.000Z</time>
      </trkpt>
      <trkpt lat="45.85904" lon="5.49064">
        <ele>1042.89400064</ele>
        <time>2020-05-28T06:08:08.000Z</time>
      </trkpt>
      <trkpt lat="45.85905" lon="5.49066">
        <ele>1042.69400064</ele>
        <time>2020-05-28T06:08:10.000Z</time>
      </trkpt>
      <trkpt lat="45.85905" lon="5.49069">
        <ele>1042.49400064</ele>
        <time>2020-05-28T06:08:12.000Z</time>
      </trkpt>
      <trkpt lat="45.85904" lon="5.49072">
        <ele>1042.29400064</ele>
        <time>2020-05-28T06:08:14.000Z</time>
      </trkpt>
      <trkpt lat="45.85905" lon="5.49077">
        <ele>1042.09400064</ele>
        <time>2020-05-28T06:08:16.000Z</time>
      </trkpt>
      <trkpt lat="45.85906" lon="5.4908">
        <ele>1041.7890559328</ele>
        <time>2020-05-28T06:08:18.000Z</time>
      </trkpt>
      <trkpt lat="45.85906" lon="5.49083">
        <ele>1041.3910458559</ele>
        <time>2020-05-28T06:08:20.000Z</time>
      </trkpt>
      <trkpt lat="45.85905" lon="5.49085">
        <ele>1040.9930357789</ele>
        <time>2020-05-28T06:08:22.000Z</time>
      </trkpt>
      <trkpt lat="45.85904" lon="5.49088">
        <ele>1040.5950257019</ele>
        <time>2020-05-28T06:08:24.000Z</time>
      </trkpt>
      <trkpt lat="45.85904" lon="5.49092">
        <ele>1039.9989993184</ele>
        <time>2020-05-28T06:08:27.000Z</time>
      </trkpt>
      <trkpt lat="45.85904" lon="5.49095">
        <ele>1039.7987989258</ele>
        <time>2020-05-28T06:08:29.000Z</time>
      </trkpt>
      <trkpt lat="45.85905" lon="5.491">
        <ele>1039.4984983369</ele>
        <time>2020-05-28T06:08:32.000Z</time>
      </trkpt>
      <trkpt lat="45.85905" lon="5.49105">
        <ele>1039.198197748</ele>
        <time>2020-05-28T06:08:35.000Z</time>
      </trkpt>
      <trkpt lat="45.85906" lon="5.49109">
        <ele>1038.9979913279</ele>
        <time>2020-05-28T06:08:37.000Z</time>
      </trkpt>
      <trkpt lat="45.85906" lon="5.49112">
        <ele>1038.7971883731</ele>
        <time>2020-05-28T06:08:39.000Z</time>
      </trkpt>
      <trkpt lat="45.85906" lon="5.49116">
        <ele>1038.5963854183</ele>
        <time>2020-05-28T06:08:41.000Z</time>
      </trkpt>
      <trkpt lat="45.85906" lon="5.4912">
        <ele>1038.3955824635</ele>
        <time>2020-05-28T06:08:43.000Z</time>
      </trkpt>
      <trkpt lat="45.85906" lon="5.49122">
        <ele>1038.1947795087</ele>
        <time>2020-05-28T06:08:45.000Z</time>
      </trkpt>
      <trkpt lat="45.85906" lon="5.49126">
        <ele>1037.89400064</ele>
        <time>2020-05-28T06:08:48.000Z</time>
      </trkpt>
      <trkpt lat="45.85906" lon="5.49129">
        <ele>1037.69400064</ele>
        <time>2020-05-28T06:08:50.000Z</time>
      </trkpt>
      <trkpt lat="45.85906" lon="5.49133">
        <ele>1037.49400064</ele>
        <time>2020-05-28T06:08:52.000Z</time>
      </trkpt>
      <trkpt lat="45.85905" lon="5.49136">
        <ele>1037.29400064</ele>
        <time>2020-05-28T06:08:54.000Z</time>
      </trkpt>
      <trkpt lat="45.85904" lon="5.49139">
        <ele>1037.09400064</ele>
        <time>2020-05-28T06:08:56.000Z</time>
      </trkpt>
      <trkpt lat="45.85903" lon="5.49142">
        <ele>1036.8945279664</ele>
        <time>2020-05-28T06:08:58.000Z</time>
      </trkpt>
      <trkpt lat="45.85901" lon="5.49146">
        <ele>1036.5960204087</ele>
        <time>2020-05-28T06:09:01.000Z</time>
      </trkpt>
      <trkpt lat="45.85902" lon="5.49149">
        <ele>1036.4965178894</ele>
        <time>2020-05-28T06:09:02.000Z</time>
      </trkpt>
      <trkpt lat="45.85901" lon="5.49152">
        <ele>1036.2975128509</ele>
        <time>2020-05-28T06:09:04.000Z</time>
      </trkpt>
      <trkpt lat="45.85901" lon="5.49155">
        <ele>1036.0985078125</ele>
        <time>2020-05-28T06:09:06.000Z</time>
      </trkpt>
      <trkpt lat="45.85902" lon="5.49159">
        <ele>1035.7998011155</ele>
        <time>2020-05-28T06:09:09.000Z</time>
      </trkpt>
      <trkpt lat="45.85902" lon="5.49163">
        <ele>1035.6005979283</ele>
        <time>2020-05-28T06:09:11.000Z</time>
      </trkpt>
      <trkpt lat="45.85902" lon="5.49167">
        <ele>1035.3017931474</ele>
        <time>2020-05-28T06:09:14.000Z</time>
      </trkpt>
      <trkpt lat="45.85902" lon="5.4917">
        <ele>1035.1025899602</ele>
        <time>2020-05-28T06:09:16.000Z</time>
      </trkpt>
      <trkpt lat="45.85902" lon="5.49173">
        <ele>1034.9021194262</ele>
        <time>2020-05-28T06:09:18.000Z</time>
      </trkpt>
      <trkpt lat="45.85901" lon="5.49176">
        <ele>1034.7003031442</ele>
        <time>2020-05-28T06:09:20.000Z</time>
      </trkpt>
      <trkpt lat="45.859" lon="5.49179">
        <ele>1034.4984868622</ele>
        <time>2020-05-28T06:09:22.000Z</time>
      </trkpt>
      <trkpt lat="45.859" lon="5.49182">
        <ele>1034.2966705803</ele>
        <time>2020-05-28T06:09:24.000Z</time>
      </trkpt>
      <trkpt lat="45.85899" lon="5.49185">
        <ele>1034.0948542983</ele>
        <time>2020-05-28T06:09:26.000Z</time>
      </trkpt>
      <trkpt lat="45.85899" lon="5.49189">
        <ele>1034</ele>
        <time>2020-05-28T06:09:28.000Z</time>
      </trkpt>
      <trkpt lat="45.85899" lon="5.49192">
        <ele>1034</ele>
        <time>2020-05-28T06:09:30.000Z</time>
      </trkpt>
      <trkpt lat="45.85898" lon="5.49195">
        <ele>1034</ele>
        <time>2020-05-28T06:09:32.000Z</time>
      </trkpt>
      <trkpt lat="45.85897" lon="5.49199">
        <ele>1034</ele>
        <time>2020-05-28T06:09:34.000Z</time>
      </trkpt>
      <trkpt lat="45.85896" lon="5.49202">
        <ele>1034</ele>
        <time>2020-05-28T06:09:36.000Z</time>
      </trkpt>
      <trkpt lat="45.85895" lon="5.49205">
        <ele>1033.8966898487</ele>
        <time>2020-05-28T06:09:38.000Z</time>
      </trkpt>
      <trkpt lat="45.85894" lon="5.49208">
        <ele>1033.6960882365</ele>
        <time>2020-05-28T06:09:40.000Z</time>
      </trkpt>
      <trkpt lat="45.85892" lon="5.49211">
        <ele>1033.3951858181</ele>
        <time>2020-05-28T06:09:43.000Z</time>
      </trkpt>
      <trkpt lat="45.85891" lon="5.49214">
        <ele>1033.1945842058</ele>
        <time>2020-05-28T06:09:45.000Z</time>
      </trkpt>
      <trkpt lat="45.85887" lon="5.49222">
        <ele>1032.6949156003</ele>
        <time>2020-05-28T06:09:50.000Z</time>
      </trkpt>
      <trkpt lat="45.85885" lon="5.49225">
        <ele>1032.4955136149</ele>
        <time>2020-05-28T06:09:52.000Z</time>
      </trkpt>
      <trkpt lat="45.85882" lon="5.49227">
        <ele>1032.2961116294</ele>
        <time>2020-05-28T06:09:54.000Z</time>
      </trkpt>
      <trkpt lat="45.85879" lon="5.49229">
        <ele>1032.1964106366</ele>
        <time>2020-05-28T06:09:55.000Z</time>
      </trkpt>
      <trkpt lat="45.85877" lon="5.49231">
        <ele>1032.0967096439</ele>
        <time>2020-05-28T06:09:56.000Z</time>
      </trkpt>
      <trkpt lat="45.85876" lon="5.49234">
        <ele>1031.7933796975</ele>
        <time>2020-05-28T06:09:58.000Z</time>
      </trkpt>
      <trkpt lat="45.85877" lon="5.49236">
        <ele>1030.7903716361</ele>
        <time>2020-05-28T06:10:03.000Z</time>
      </trkpt>
      <trkpt lat="45.85879" lon="5.49238">
        <ele>1028.78800128</ele>
        <time>2020-05-28T06:10:13.000Z</time>
      </trkpt>
      <trkpt lat="45.85889" lon="5.49238">
        <ele>1027.0214001823</ele>
        <time>2020-05-28T06:10:27.000Z</time>
      </trkpt>
      <trkpt lat="45.85893" lon="5.49239">
        <ele>1024.6213996755</ele>
        <time>2020-05-28T06:10:33.000Z</time>
      </trkpt>
      <trkpt lat="45.85895" lon="5.49238">
        <ele>1023.7983554919</ele>
        <time>2020-05-28T06:10:35.000Z</time>
      </trkpt>
      <trkpt lat="45.85897" lon="5.49237">
        <ele>1022.38200192</ele>
        <time>2020-05-28T06:10:39.000Z</time>
      </trkpt>
      <trkpt lat="45.859" lon="5.49237">
        <ele>1021.78200192</ele>
        <time>2020-05-28T06:10:41.000Z</time>
      </trkpt>
      <trkpt lat="45.85909" lon="5.49242">
        <ele>1019.49400064</ele>
        <time>2020-05-28T06:10:52.000Z</time>
      </trkpt>
      <trkpt lat="45.85913" lon="5.49254">
        <ele>1018.09400064</ele>
        <time>2020-05-28T06:11:06.000Z</time>
      </trkpt>
      <trkpt lat="45.8592" lon="5.49261">
        <ele>1016.78800128</ele>
        <time>2020-05-28T06:11:23.000Z</time>
      </trkpt>
      <trkpt lat="45.8593" lon="5.49266">
        <ele>1012.37600256</ele>
        <time>2020-05-28T06:11:36.000Z</time>
      </trkpt>
      <trkpt lat="45.85939" lon="5.49271">
        <ele>1011.8078862937</ele>
        <time>2020-05-28T06:11:48.000Z</time>
      </trkpt>
      <trkpt lat="45.85947" lon="5.49277">
        <ele>1010.3923163836</ele>
        <time>2020-05-28T06:11:55.000Z</time>
      </trkpt>
      <trkpt lat="45.85949" lon="5.4928">
        <ele>1009.78800128</ele>
        <time>2020-05-28T06:11:58.000Z</time>
      </trkpt>
      <trkpt lat="45.8595" lon="5.49283">
        <ele>1008.78800128</ele>
        <time>2020-05-28T06:12:03.000Z</time>
      </trkpt>
      <trkpt lat="45.85952" lon="5.49284">
        <ele>1007.98800128</ele>
        <time>2020-05-28T06:12:07.000Z</time>
      </trkpt>
      <trkpt lat="45.85954" lon="5.49286">
        <ele>1007.58800128</ele>
        <time>2020-05-28T06:12:09.000Z</time>
      </trkpt>
      <trkpt lat="45.85954" lon="5.49289">
        <ele>1006.98800128</ele>
        <time>2020-05-28T06:12:12.000Z</time>
      </trkpt>
      <trkpt lat="45.85955" lon="5.49292">
        <ele>1006.58800128</ele>
        <time>2020-05-28T06:12:14.000Z</time>
      </trkpt>
      <trkpt lat="45.85956" lon="5.49294">
        <ele>1006.18800128</ele>
        <time>2020-05-28T06:12:16.000Z</time>
      </trkpt>
      <trkpt lat="45.85954" lon="5.49297">
        <ele>1005.69400064</ele>
        <time>2020-05-28T06:12:20.000Z</time>
      </trkpt>
      <trkpt lat="45.85955" lon="5.49299">
        <ele>1005.29400064</ele>
        <time>2020-05-28T06:12:24.000Z</time>
      </trkpt>
      <trkpt lat="45.85955" lon="5.49303">
        <ele>1005</ele>
        <time>2020-05-28T06:12:31.000Z</time>
      </trkpt>
      <trkpt lat="45.85953" lon="5.49305">
        <ele>1005</ele>
        <time>2020-05-28T06:12:34.000Z</time>
      </trkpt>
      <trkpt lat="45.85951" lon="5.49307">
        <ele>1005</ele>
        <time>2020-05-28T06:12:36.000Z</time>
      </trkpt>
      <trkpt lat="45.85948" lon="5.49309">
        <ele>1005</ele>
        <time>2020-05-28T06:12:38.000Z</time>
      </trkpt>
      <trkpt lat="45.85946" lon="5.49311">
        <ele>1005</ele>
        <time>2020-05-28T06:12:40.000Z</time>
      </trkpt>
      <trkpt lat="45.85944" lon="5.49314">
        <ele>1005</ele>
        <time>2020-05-28T06:12:42.000Z</time>
      </trkpt>
      <trkpt lat="45.85941" lon="5.49316">
        <ele>1005</ele>
        <time>2020-05-28T06:12:44.000Z</time>
      </trkpt>
      <trkpt lat="45.85938" lon="5.49317">
        <ele>1005</ele>
        <time>2020-05-28T06:12:46.000Z</time>
      </trkpt>
      <trkpt lat="45.85936" lon="5.49319">
        <ele>1005</ele>
        <time>2020-05-28T06:12:49.000Z</time>
      </trkpt>
      <trkpt lat="45.85932" lon="5.49321">
        <ele>1005</ele>
        <time>2020-05-28T06:12:52.000Z</time>
      </trkpt>
      <trkpt lat="45.85929" lon="5.49323">
        <ele>1005</ele>
        <time>2020-05-28T06:12:55.000Z</time>
      </trkpt>
      <trkpt lat="45.85925" lon="5.49326">
        <ele>1005</ele>
        <time>2020-05-28T06:12:58.000Z</time>
      </trkpt>
      <trkpt lat="45.85922" lon="5.49329">
        <ele>1005</ele>
        <time>2020-05-28T06:13:00.000Z</time>
      </trkpt>
      <trkpt lat="45.8592" lon="5.49332">
        <ele>1005</ele>
        <time>2020-05-28T06:13:02.000Z</time>
      </trkpt>
      <trkpt lat="45.85918" lon="5.49335">
        <ele>1005</ele>
        <time>2020-05-28T06:13:05.000Z</time>
      </trkpt>
      <trkpt lat="45.85917" lon="5.49338">
        <ele>1004.8953609146</ele>
        <time>2020-05-28T06:13:08.000Z</time>
      </trkpt>
      <trkpt lat="45.85917" lon="5.49342">
        <ele>1004.697927486</ele>
        <time>2020-05-28T06:13:10.000Z</time>
      </trkpt>
      <trkpt lat="45.85917" lon="5.49346">
        <ele>1004.5004940574</ele>
        <time>2020-05-28T06:13:12.000Z</time>
      </trkpt>
      <trkpt lat="45.8591" lon="5.49356">
        <ele>1004.0069104859</ele>
        <time>2020-05-28T06:13:17.000Z</time>
      </trkpt>
      <trkpt lat="45.85908" lon="5.49359">
        <ele>1003.9057754308</ele>
        <time>2020-05-28T06:13:18.000Z</time>
      </trkpt>
      <trkpt lat="45.85906" lon="5.49361">
        <ele>1003.804458341</ele>
        <time>2020-05-28T06:13:19.000Z</time>
      </trkpt>
      <trkpt lat="45.85903" lon="5.49363">
        <ele>1003.7031412513</ele>
        <time>2020-05-28T06:13:20.000Z</time>
      </trkpt>
      <trkpt lat="45.85901" lon="5.49364">
        <ele>1003.6018241615</ele>
        <time>2020-05-28T06:13:21.000Z</time>
      </trkpt>
      <trkpt lat="45.859" lon="5.49364">
        <ele>1003.5005070718</ele>
        <time>2020-05-28T06:13:22.000Z</time>
      </trkpt>
      <trkpt lat="45.85897" lon="5.49363">
        <ele>1003.2978728923</ele>
        <time>2020-05-28T06:13:24.000Z</time>
      </trkpt>
      <trkpt lat="45.85894" lon="5.49364">
        <ele>1003.0952387128</ele>
        <time>2020-05-28T06:13:26.000Z</time>
      </trkpt>
      <trkpt lat="45.85892" lon="5.49365">
        <ele>1003</ele>
        <time>2020-05-28T06:13:28.000Z</time>
      </trkpt>
      <trkpt lat="45.85891" lon="5.49367">
        <ele>1003</ele>
        <time>2020-05-28T06:13:30.000Z</time>
      </trkpt>
      <trkpt lat="45.8589" lon="5.4937">
        <ele>1003</ele>
        <time>2020-05-28T06:13:33.000Z</time>
      </trkpt>
      <trkpt lat="45.85889" lon="5.49373">
        <ele>1003</ele>
        <time>2020-05-28T06:13:36.000Z</time>
      </trkpt>
      <trkpt lat="45.85889" lon="5.49376">
        <ele>1002.9235543802</ele>
        <time>2020-05-28T06:13:38.000Z</time>
      </trkpt>
      <trkpt lat="45.85888" lon="5.49379">
        <ele>1002.6136370248</ele>
        <time>2020-05-28T06:13:41.000Z</time>
      </trkpt>
      <trkpt lat="45.85888" lon="5.49382">
        <ele>1002.4070254545</ele>
        <time>2020-05-28T06:13:43.000Z</time>
      </trkpt>
      <trkpt lat="45.85887" lon="5.49385">
        <ele>1002.2004138843</ele>
        <time>2020-05-28T06:13:45.000Z</time>
      </trkpt>
      <trkpt lat="45.85887" lon="5.49388">
        <ele>1001.99400064</ele>
        <time>2020-05-28T06:13:47.000Z</time>
      </trkpt>
      <trkpt lat="45.85886" lon="5.49391">
        <ele>1001.79400064</ele>
        <time>2020-05-28T06:13:49.000Z</time>
      </trkpt>
      <trkpt lat="45.85885" lon="5.49393">
        <ele>1001.59400064</ele>
        <time>2020-05-28T06:13:51.000Z</time>
      </trkpt>
      <trkpt lat="45.85884" lon="5.49396">
        <ele>1001.39400064</ele>
        <time>2020-05-28T06:13:53.000Z</time>
      </trkpt>
      <trkpt lat="45.85884" lon="5.49399">
        <ele>1001.19400064</ele>
        <time>2020-05-28T06:13:55.000Z</time>
      </trkpt>
      <trkpt lat="45.85883" lon="5.49402">
        <ele>1000.98800128</ele>
        <time>2020-05-28T06:13:57.000Z</time>
      </trkpt>
      <trkpt lat="45.85882" lon="5.49405">
        <ele>1000.38800128</ele>
        <time>2020-05-28T06:14:00.000Z</time>
      </trkpt>
      <trkpt lat="45.85882" lon="5.49408">
        <ele>999.98800128</ele>
        <time>2020-05-28T06:14:02.000Z</time>
      </trkpt>
      <trkpt lat="45.85881" lon="5.4941">
        <ele>999.58800128</ele>
        <time>2020-05-28T06:14:04.000Z</time>
      </trkpt>
      <trkpt lat="45.85879" lon="5.49414">
        <ele>999</ele>
        <time>2020-05-28T06:14:07.000Z</time>
      </trkpt>
      <trkpt lat="45.85878" lon="5.49418">
        <ele>999</ele>
        <time>2020-05-28T06:14:10.000Z</time>
      </trkpt>
      <trkpt lat="45.85877" lon="5.4942">
        <ele>999</ele>
        <time>2020-05-28T06:14:12.000Z</time>
      </trkpt>
      <trkpt lat="45.85876" lon="5.49423">
        <ele>999</ele>
        <time>2020-05-28T06:14:14.000Z</time>
      </trkpt>
      <trkpt lat="45.85875" lon="5.49426">
        <ele>998.98800128</ele>
        <time>2020-05-28T06:14:17.000Z</time>
      </trkpt>
      <trkpt lat="45.85873" lon="5.49429">
        <ele>998.58800128</ele>
        <time>2020-05-28T06:14:19.000Z</time>
      </trkpt>
      <trkpt lat="45.85872" lon="5.49432">
        <ele>998.18800128</ele>
        <time>2020-05-28T06:14:21.000Z</time>
      </trkpt>
      <trkpt lat="45.85871" lon="5.49435">
        <ele>997.78800128</ele>
        <time>2020-05-28T06:14:23.000Z</time>
      </trkpt>
      <trkpt lat="45.8587" lon="5.49437">
        <ele>997.38800128</ele>
        <time>2020-05-28T06:14:25.000Z</time>
      </trkpt>
      <trkpt lat="45.85869" lon="5.4944">
        <ele>996.99408346767</ele>
        <time>2020-05-28T06:14:27.000Z</time>
      </trkpt>
      <trkpt lat="45.85867" lon="5.49441">
        <ele>996.7968446844</ele>
        <time>2020-05-28T06:14:29.000Z</time>
      </trkpt>
      <trkpt lat="45.85866" lon="5.49444">
        <ele>996.5009865095</ele>
        <time>2020-05-28T06:14:32.000Z</time>
      </trkpt>
      <trkpt lat="45.85864" lon="5.49447">
        <ele>996.30374772623</ele>
        <time>2020-05-28T06:14:34.000Z</time>
      </trkpt>
      <trkpt lat="45.85861" lon="5.49449">
        <ele>996.10650894296</ele>
        <time>2020-05-28T06:14:36.000Z</time>
      </trkpt>
      <trkpt lat="45.8586" lon="5.49451">
        <ele>996</ele>
        <time>2020-05-28T06:14:38.000Z</time>
      </trkpt>
      <trkpt lat="45.85858" lon="5.49453">
        <ele>996</ele>
        <time>2020-05-28T06:14:40.000Z</time>
      </trkpt>
      <trkpt lat="45.85856" lon="5.49455">
        <ele>996</ele>
        <time>2020-05-28T06:14:42.000Z</time>
      </trkpt>
      <trkpt lat="45.85854" lon="5.49456">
        <ele>996</ele>
        <time>2020-05-28T06:14:44.000Z</time>
      </trkpt>
      <trkpt lat="45.85852" lon="5.49458">
        <ele>996</ele>
        <time>2020-05-28T06:14:46.000Z</time>
      </trkpt>
      <trkpt lat="45.8585" lon="5.49459">
        <ele>996</ele>
        <time>2020-05-28T06:14:48.000Z</time>
      </trkpt>
      <trkpt lat="45.85848" lon="5.49461">
        <ele>996</ele>
        <time>2020-05-28T06:14:50.000Z</time>
      </trkpt>
      <trkpt lat="45.85846" lon="5.49462">
        <ele>996</ele>
        <time>2020-05-28T06:14:52.000Z</time>
      </trkpt>
      <trkpt lat="45.85843" lon="5.49463">
        <ele>996</ele>
        <time>2020-05-28T06:14:54.000Z</time>
      </trkpt>
      <trkpt lat="45.85841" lon="5.49464">
        <ele>996</ele>
        <time>2020-05-28T06:14:56.000Z</time>
      </trkpt>
      <trkpt lat="45.85839" lon="5.49465">
        <ele>995.89400064</ele>
        <time>2020-05-28T06:14:58.000Z</time>
      </trkpt>
      <trkpt lat="45.85838" lon="5.49467">
        <ele>995.69400064</ele>
        <time>2020-05-28T06:15:00.000Z</time>
      </trkpt>
      <trkpt lat="45.85836" lon="5.49468">
        <ele>995.49400064</ele>
        <time>2020-05-28T06:15:02.000Z</time>
      </trkpt>
      <trkpt lat="45.85834" lon="5.49469">
        <ele>995.29400064</ele>
        <time>2020-05-28T06:15:04.000Z</time>
      </trkpt>
      <trkpt lat="45.85832" lon="5.49471">
        <ele>995.09400064</ele>
        <time>2020-05-28T06:15:06.000Z</time>
      </trkpt>
      <trkpt lat="45.8583" lon="5.49473">
        <ele>995</ele>
        <time>2020-05-28T06:15:08.000Z</time>
      </trkpt>
      <trkpt lat="45.85827" lon="5.49475">
        <ele>995</ele>
        <time>2020-05-28T06:15:10.000Z</time>
      </trkpt>
      <trkpt lat="45.85825" lon="5.49475">
        <ele>995</ele>
        <time>2020-05-28T06:15:11.000Z</time>
      </trkpt>
      <trkpt lat="45.85822" lon="5.49476">
        <ele>995</ele>
        <time>2020-05-28T06:15:13.000Z</time>
      </trkpt>
      <trkpt lat="45.8582" lon="5.49477">
        <ele>995</ele>
        <time>2020-05-28T06:15:15.000Z</time>
      </trkpt>
      <trkpt lat="45.85818" lon="5.49479">
        <ele>995</ele>
        <time>2020-05-28T06:15:18.000Z</time>
      </trkpt>
      <trkpt lat="45.85816" lon="5.49479">
        <ele>995</ele>
        <time>2020-05-28T06:15:21.000Z</time>
      </trkpt>
      <trkpt lat="45.85814" lon="5.4948">
        <ele>995</ele>
        <time>2020-05-28T06:15:23.000Z</time>
      </trkpt>
      <trkpt lat="45.85812" lon="5.49482">
        <ele>995</ele>
        <time>2020-05-28T06:15:25.000Z</time>
      </trkpt>
      <trkpt lat="45.8581" lon="5.49485">
        <ele>994.89400064</ele>
        <time>2020-05-28T06:15:28.000Z</time>
      </trkpt>
      <trkpt lat="45.85809" lon="5.49486">
        <ele>994.79400064</ele>
        <time>2020-05-28T06:15:29.000Z</time>
      </trkpt>
      <trkpt lat="45.85807" lon="5.49488">
        <ele>994.59400064</ele>
        <time>2020-05-28T06:15:31.000Z</time>
      </trkpt>
      <trkpt lat="45.85804" lon="5.49489">
        <ele>994.39400064</ele>
        <time>2020-05-28T06:15:33.000Z</time>
      </trkpt>
      <trkpt lat="45.85803" lon="5.49491">
        <ele>994.19400064</ele>
        <time>2020-05-28T06:15:35.000Z</time>
      </trkpt>
      <trkpt lat="45.85801" lon="5.49493">
        <ele>994</ele>
        <time>2020-05-28T06:15:37.000Z</time>
      </trkpt>
      <trkpt lat="45.85799" lon="5.49494">
        <ele>994</ele>
        <time>2020-05-28T06:15:39.000Z</time>
      </trkpt>
      <trkpt lat="45.85797" lon="5.49496">
        <ele>994</ele>
        <time>2020-05-28T06:15:41.000Z</time>
      </trkpt>
      <trkpt lat="45.85795" lon="5.49497">
        <ele>994</ele>
        <time>2020-05-28T06:15:43.000Z</time>
      </trkpt>
      <trkpt lat="45.85792" lon="5.49499">
        <ele>994</ele>
        <time>2020-05-28T06:15:45.000Z</time>
      </trkpt>
      <trkpt lat="45.85789" lon="5.49501">
        <ele>994.00599936</ele>
        <time>2020-05-28T06:15:47.000Z</time>
      </trkpt>
      <trkpt lat="45.85787" lon="5.49503">
        <ele>994.20599936</ele>
        <time>2020-05-28T06:15:49.000Z</time>
      </trkpt>
      <trkpt lat="45.85785" lon="5.49505">
        <ele>994.40599936</ele>
        <time>2020-05-28T06:15:51.000Z</time>
      </trkpt>
      <trkpt lat="45.85783" lon="5.49506">
        <ele>994.60599936</ele>
        <time>2020-05-28T06:15:53.000Z</time>
      </trkpt>
      <trkpt lat="45.85781" lon="5.49508">
        <ele>994.80599936</ele>
        <time>2020-05-28T06:15:55.000Z</time>
      </trkpt>
      <trkpt lat="45.8578" lon="5.4951">
        <ele>995</ele>
        <time>2020-05-28T06:15:57.000Z</time>
      </trkpt>
      <trkpt lat="45.85777" lon="5.49511">
        <ele>995</ele>
        <time>2020-05-28T06:15:59.000Z</time>
      </trkpt>
      <trkpt lat="45.85776" lon="5.49513">
        <ele>995</ele>
        <time>2020-05-28T06:16:01.000Z</time>
      </trkpt>
      <trkpt lat="45.85773" lon="5.49513">
        <ele>995</ele>
        <time>2020-05-28T06:16:04.000Z</time>
      </trkpt>
      <trkpt lat="45.85772" lon="5.49516">
        <ele>994.99400064</ele>
        <time>2020-05-28T06:16:07.000Z</time>
      </trkpt>
      <trkpt lat="45.8577" lon="5.49518">
        <ele>994.79400064</ele>
        <time>2020-05-28T06:16:09.000Z</time>
      </trkpt>
      <trkpt lat="45.85768" lon="5.4952">
        <ele>994.59400064</ele>
        <time>2020-05-28T06:16:11.000Z</time>
      </trkpt>
      <trkpt lat="45.85766" lon="5.49523">
        <ele>994.39400064</ele>
        <time>2020-05-28T06:16:13.000Z</time>
      </trkpt>
      <trkpt lat="45.85764" lon="5.49525">
        <ele>994.19400064</ele>
        <time>2020-05-28T06:16:15.000Z</time>
      </trkpt>
      <trkpt lat="45.85762" lon="5.49527">
        <ele>993.99401857852</ele>
        <time>2020-05-28T06:16:17.000Z</time>
      </trkpt>
      <trkpt lat="45.8576" lon="5.49529">
        <ele>993.79461659305</ele>
        <time>2020-05-28T06:16:19.000Z</time>
      </trkpt>
      <trkpt lat="45.85758" lon="5.49531">
        <ele>993.59521460758</ele>
        <time>2020-05-28T06:16:21.000Z</time>
      </trkpt>
      <trkpt lat="45.85757" lon="5.49533">
        <ele>993.39581262211</ele>
        <time>2020-05-28T06:16:23.000Z</time>
      </trkpt>
      <trkpt lat="45.85754" lon="5.49536">
        <ele>993.19641063664</ele>
        <time>2020-05-28T06:16:25.000Z</time>
      </trkpt>
      <trkpt lat="45.85752" lon="5.49538">
        <ele>992.9940351529</ele>
        <time>2020-05-28T06:16:27.000Z</time>
      </trkpt>
      <trkpt lat="45.8575" lon="5.4954">
        <ele>992.59642109174</ele>
        <time>2020-05-28T06:16:29.000Z</time>
      </trkpt>
      <trkpt lat="45.85748" lon="5.49542">
        <ele>992.19880703058</ele>
        <time>2020-05-28T06:16:31.000Z</time>
      </trkpt>
      <trkpt lat="45.85746" lon="5.49544">
        <ele>991.80119296942</ele>
        <time>2020-05-28T06:16:33.000Z</time>
      </trkpt>
      <trkpt lat="45.85744" lon="5.49546">
        <ele>991.40357890826</ele>
        <time>2020-05-28T06:16:35.000Z</time>
      </trkpt>
      <trkpt lat="45.85743" lon="5.49547">
        <ele>991.0059648471</ele>
        <time>2020-05-28T06:16:37.000Z</time>
      </trkpt>
      <trkpt lat="45.85741" lon="5.49549">
        <ele>990.80201018083</ele>
        <time>2020-05-28T06:16:39.000Z</time>
      </trkpt>
      <trkpt lat="45.85738" lon="5.49551">
        <ele>990.60100496177</ele>
        <time>2020-05-28T06:16:41.000Z</time>
      </trkpt>
      <trkpt lat="45.85736" lon="5.49552">
        <ele>990.39999974271</ele>
        <time>2020-05-28T06:16:43.000Z</time>
      </trkpt>
      <trkpt lat="45.85733" lon="5.49555">
        <ele>990.19899452365</ele>
        <time>2020-05-28T06:16:45.000Z</time>
      </trkpt>
      <trkpt lat="45.85732" lon="5.49556">
        <ele>990</ele>
        <time>2020-05-28T06:16:47.000Z</time>
      </trkpt>
      <trkpt lat="45.85731" lon="5.49559">
        <ele>990</ele>
        <time>2020-05-28T06:16:49.000Z</time>
      </trkpt>
      <trkpt lat="45.85729" lon="5.49561">
        <ele>990</ele>
        <time>2020-05-28T06:16:52.000Z</time>
      </trkpt>
      <trkpt lat="45.85727" lon="5.49562">
        <ele>990</ele>
        <time>2020-05-28T06:16:54.000Z</time>
      </trkpt>
      <trkpt lat="45.85726" lon="5.49564">
        <ele>990</ele>
        <time>2020-05-28T06:16:56.000Z</time>
      </trkpt>
      <trkpt lat="45.85723" lon="5.49566">
        <ele>990</ele>
        <time>2020-05-28T06:16:58.000Z</time>
      </trkpt>
      <trkpt lat="45.85722" lon="5.49569">
        <ele>990</ele>
        <time>2020-05-28T06:17:01.000Z</time>
      </trkpt>
      <trkpt lat="45.85719" lon="5.49571">
        <ele>990</ele>
        <time>2020-05-28T06:17:04.000Z</time>
      </trkpt>
      <trkpt lat="45.85717" lon="5.49573">
        <ele>990</ele>
        <time>2020-05-28T06:17:07.000Z</time>
      </trkpt>
      <trkpt lat="45.85716" lon="5.49576">
        <ele>990</ele>
        <time>2020-05-28T06:17:09.000Z</time>
      </trkpt>
      <trkpt lat="45.85714" lon="5.49578">
        <ele>990</ele>
        <time>2020-05-28T06:17:11.000Z</time>
      </trkpt>
      <trkpt lat="45.85713" lon="5.4958">
        <ele>990</ele>
        <time>2020-05-28T06:17:13.000Z</time>
      </trkpt>
      <trkpt lat="45.85711" lon="5.49583">
        <ele>990</ele>
        <time>2020-05-28T06:17:15.000Z</time>
      </trkpt>
      <trkpt lat="45.85709" lon="5.49586">
        <ele>989.99400064</ele>
        <time>2020-05-28T06:17:17.000Z</time>
      </trkpt>
      <trkpt lat="45.85708" lon="5.49588">
        <ele>989.79400064</ele>
        <time>2020-05-28T06:17:19.000Z</time>
      </trkpt>
      <trkpt lat="45.85706" lon="5.4959">
        <ele>989.59400064</ele>
        <time>2020-05-28T06:17:21.000Z</time>
      </trkpt>
      <trkpt lat="45.85704" lon="5.49592">
        <ele>989.39400064</ele>
        <time>2020-05-28T06:17:23.000Z</time>
      </trkpt>
      <trkpt lat="45.85702" lon="5.49594">
        <ele>989.09400064</ele>
        <time>2020-05-28T06:17:26.000Z</time>
      </trkpt>
      <trkpt lat="45.857" lon="5.49596">
        <ele>989</ele>
        <time>2020-05-28T06:17:29.000Z</time>
      </trkpt>
      <trkpt lat="45.85698" lon="5.49598">
        <ele>989</ele>
        <time>2020-05-28T06:17:32.000Z</time>
      </trkpt>
      <trkpt lat="45.85696" lon="5.496">
        <ele>989</ele>
        <time>2020-05-28T06:17:34.000Z</time>
      </trkpt>
      <trkpt lat="45.85695" lon="5.49602">
        <ele>989</ele>
        <time>2020-05-28T06:17:36.000Z</time>
      </trkpt>
      <trkpt lat="45.85693" lon="5.49604">
        <ele>988.78989218312</ele>
        <time>2020-05-28T06:17:38.000Z</time>
      </trkpt>
      <trkpt lat="45.85691" lon="5.49606">
        <ele>988.39345994639</ele>
        <time>2020-05-28T06:17:40.000Z</time>
      </trkpt>
      <trkpt lat="45.85689" lon="5.49608">
        <ele>987.99702770966</ele>
        <time>2020-05-28T06:17:42.000Z</time>
      </trkpt>
      <trkpt lat="45.85686" lon="5.49611">
        <ele>987.60059547293</ele>
        <time>2020-05-28T06:17:44.000Z</time>
      </trkpt>
      <trkpt lat="45.85684" lon="5.49613">
        <ele>987.00594711784</ele>
        <time>2020-05-28T06:17:47.000Z</time>
      </trkpt>
      <trkpt lat="45.85681" lon="5.49616">
        <ele>987</ele>
        <time>2020-05-28T06:17:50.000Z</time>
      </trkpt>
      <trkpt lat="45.85679" lon="5.49618">
        <ele>987</ele>
        <time>2020-05-28T06:17:52.000Z</time>
      </trkpt>
      <trkpt lat="45.85677" lon="5.4962">
        <ele>987</ele>
        <time>2020-05-28T06:17:53.000Z</time>
      </trkpt>
      <trkpt lat="45.85675" lon="5.49622">
        <ele>987</ele>
        <time>2020-05-28T06:17:55.000Z</time>
      </trkpt>
      <trkpt lat="45.85673" lon="5.49625">
        <ele>986.99400064</ele>
        <time>2020-05-28T06:17:57.000Z</time>
      </trkpt>
      <trkpt lat="45.8567" lon="5.49629">
        <ele>986.79400064</ele>
        <time>2020-05-28T06:17:59.000Z</time>
      </trkpt>
      <trkpt lat="45.85668" lon="5.49631">
        <ele>986.69400064</ele>
        <time>2020-05-28T06:18:00.000Z</time>
      </trkpt>
      <trkpt lat="45.85666" lon="5.49634">
        <ele>986.49400064</ele>
        <time>2020-05-28T06:18:02.000Z</time>
      </trkpt>
      <trkpt lat="45.85664" lon="5.49636">
        <ele>986.29400064</ele>
        <time>2020-05-28T06:18:04.000Z</time>
      </trkpt>
      <trkpt lat="45.85662" lon="5.49638">
        <ele>986.09400064</ele>
        <time>2020-05-28T06:18:06.000Z</time>
      </trkpt>
      <trkpt lat="45.85661" lon="5.4964">
        <ele>986</ele>
        <time>2020-05-28T06:18:08.000Z</time>
      </trkpt>
      <trkpt lat="45.85659" lon="5.49641">
        <ele>986</ele>
        <time>2020-05-28T06:18:10.000Z</time>
      </trkpt>
      <trkpt lat="45.85657" lon="5.49644">
        <ele>986</ele>
        <time>2020-05-28T06:18:12.000Z</time>
      </trkpt>
      <trkpt lat="45.85654" lon="5.49647">
        <ele>986</ele>
        <time>2020-05-28T06:18:14.000Z</time>
      </trkpt>
      <trkpt lat="45.85653" lon="5.49649">
        <ele>986</ele>
        <time>2020-05-28T06:18:16.000Z</time>
      </trkpt>
      <trkpt lat="45.85651" lon="5.49652">
        <ele>985.68200192</ele>
        <time>2020-05-28T06:18:18.000Z</time>
      </trkpt>
      <trkpt lat="45.8565" lon="5.49654">
        <ele>985.08200192</ele>
        <time>2020-05-28T06:18:20.000Z</time>
      </trkpt>
      <trkpt lat="45.85649" lon="5.49656">
        <ele>984.78200192</ele>
        <time>2020-05-28T06:18:21.000Z</time>
      </trkpt>
      <trkpt lat="45.85646" lon="5.49659">
        <ele>984.18200192</ele>
        <time>2020-05-28T06:18:23.000Z</time>
      </trkpt>
      <trkpt lat="45.85644" lon="5.49661">
        <ele>983.28200192</ele>
        <time>2020-05-28T06:18:26.000Z</time>
      </trkpt>
      <trkpt lat="45.85643" lon="5.49664">
        <ele>983</ele>
        <time>2020-05-28T06:18:28.000Z</time>
      </trkpt>
      <trkpt lat="45.85642" lon="5.49666">
        <ele>983</ele>
        <time>2020-05-28T06:18:30.000Z</time>
      </trkpt>
      <trkpt lat="45.85641" lon="5.49668">
        <ele>983</ele>
        <time>2020-05-28T06:18:32.000Z</time>
      </trkpt>
      <trkpt lat="45.8564" lon="5.49671">
        <ele>983</ele>
        <time>2020-05-28T06:18:34.000Z</time>
      </trkpt>
      <trkpt lat="45.85641" lon="5.49674">
        <ele>982.99398130971</ele>
        <time>2020-05-28T06:18:37.000Z</time>
      </trkpt>
      <trkpt lat="45.8564" lon="5.49677">
        <ele>982.59277808519</ele>
        <time>2020-05-28T06:18:39.000Z</time>
      </trkpt>
      <trkpt lat="45.85638" lon="5.49679">
        <ele>982.19157486067</ele>
        <time>2020-05-28T06:18:41.000Z</time>
      </trkpt>
      <trkpt lat="45.85636" lon="5.49681">
        <ele>981.79037163615</ele>
        <time>2020-05-28T06:18:43.000Z</time>
      </trkpt>
      <trkpt lat="45.85634" lon="5.49684">
        <ele>981.38916841163</ele>
        <time>2020-05-28T06:18:45.000Z</time>
      </trkpt>
      <trkpt lat="45.85632" lon="5.49686">
        <ele>980.99424245328</ele>
        <time>2020-05-28T06:18:47.000Z</time>
      </trkpt>
      <trkpt lat="45.8563" lon="5.49688">
        <ele>980.80230375573</ele>
        <time>2020-05-28T06:18:49.000Z</time>
      </trkpt>
      <trkpt lat="45.85628" lon="5.4969">
        <ele>980.61036505819</ele>
        <time>2020-05-28T06:18:51.000Z</time>
      </trkpt>
      <trkpt lat="45.85626" lon="5.49692">
        <ele>980.41842636065</ele>
        <time>2020-05-28T06:18:53.000Z</time>
      </trkpt>
      <trkpt lat="45.85624" lon="5.49694">
        <ele>980.2264876631</ele>
        <time>2020-05-28T06:18:55.000Z</time>
      </trkpt>
      <trkpt lat="45.85622" lon="5.49695">
        <ele>980.03454896556</ele>
        <time>2020-05-28T06:18:57.000Z</time>
      </trkpt>
      <trkpt lat="45.85621" lon="5.49697">
        <ele>979.79958259736</ele>
        <time>2020-05-28T06:18:58.000Z</time>
      </trkpt>
      <trkpt lat="45.85618" lon="5.49699">
        <ele>979.17327821409</ele>
        <time>2020-05-28T06:19:00.000Z</time>
      </trkpt>
      <trkpt lat="45.85617" lon="5.49701">
        <ele>978.2338216392</ele>
        <time>2020-05-28T06:19:03.000Z</time>
      </trkpt>
      <trkpt lat="45.85615" lon="5.49703">
        <ele>977.60751725594</ele>
        <time>2020-05-28T06:19:05.000Z</time>
      </trkpt>
      <trkpt lat="45.85613" lon="5.49705">
        <ele>976.99400064</ele>
        <time>2020-05-28T06:19:07.000Z</time>
      </trkpt>
      <trkpt lat="45.85612" lon="5.49708">
        <ele>976.79400064</ele>
        <time>2020-05-28T06:19:09.000Z</time>
      </trkpt>
      <trkpt lat="45.8561" lon="5.4971">
        <ele>976.59400064</ele>
        <time>2020-05-28T06:19:11.000Z</time>
      </trkpt>
      <trkpt lat="45.85608" lon="5.49712">
        <ele>976.39400064</ele>
        <time>2020-05-28T06:19:13.000Z</time>
      </trkpt>
      <trkpt lat="45.85607" lon="5.49713">
        <ele>976.19400064</ele>
        <time>2020-05-28T06:19:15.000Z</time>
      </trkpt>
      <trkpt lat="45.85605" lon="5.49716">
        <ele>976</ele>
        <time>2020-05-28T06:19:18.000Z</time>
      </trkpt>
      <trkpt lat="45.85603" lon="5.49718">
        <ele>976</ele>
        <time>2020-05-28T06:19:20.000Z</time>
      </trkpt>
      <trkpt lat="45.856" lon="5.49719">
        <ele>976</ele>
        <time>2020-05-28T06:19:22.000Z</time>
      </trkpt>
      <trkpt lat="45.85598" lon="5.49721">
        <ele>976</ele>
        <time>2020-05-28T06:19:24.000Z</time>
      </trkpt>
      <trkpt lat="45.85597" lon="5.49724">
        <ele>976</ele>
        <time>2020-05-28T06:19:26.000Z</time>
      </trkpt>
      <trkpt lat="45.85594" lon="5.4973">
        <ele>976</ele>
        <time>2020-05-28T06:19:30.000Z</time>
      </trkpt>
      <trkpt lat="45.85592" lon="5.49733">
        <ele>976</ele>
        <time>2020-05-28T06:19:32.000Z</time>
      </trkpt>
      <trkpt lat="45.85591" lon="5.49735">
        <ele>976</ele>
        <time>2020-05-28T06:19:34.000Z</time>
      </trkpt>
      <trkpt lat="45.8559" lon="5.49738">
        <ele>976</ele>
        <time>2020-05-28T06:19:36.000Z</time>
      </trkpt>
      <trkpt lat="45.8559" lon="5.49742">
        <ele>976</ele>
        <time>2020-05-28T06:19:38.000Z</time>
      </trkpt>
      <trkpt lat="45.85589" lon="5.49746">
        <ele>976</ele>
        <time>2020-05-28T06:19:40.000Z</time>
      </trkpt>
      <trkpt lat="45.85587" lon="5.4975">
        <ele>976</ele>
        <time>2020-05-28T06:19:42.000Z</time>
      </trkpt>
      <trkpt lat="45.85587" lon="5.49752">
        <ele>976</ele>
        <time>2020-05-28T06:19:43.000Z</time>
      </trkpt>
      <trkpt lat="45.85587" lon="5.49756">
        <ele>976</ele>
        <time>2020-05-28T06:19:45.000Z</time>
      </trkpt>
      <trkpt lat="45.85587" lon="5.4976">
        <ele>975.99422026619</ele>
        <time>2020-05-28T06:19:47.000Z</time>
      </trkpt>
      <trkpt lat="45.85587" lon="5.49763">
        <ele>975.80154192003</ele>
        <time>2020-05-28T06:19:49.000Z</time>
      </trkpt>
      <trkpt lat="45.85586" lon="5.49766">
        <ele>975.60886357387</ele>
        <time>2020-05-28T06:19:51.000Z</time>
      </trkpt>
      <trkpt lat="45.85586" lon="5.4977">
        <ele>975.41618522771</ele>
        <time>2020-05-28T06:19:53.000Z</time>
      </trkpt>
      <trkpt lat="45.85585" lon="5.49773">
        <ele>975.22350688155</ele>
        <time>2020-05-28T06:19:55.000Z</time>
      </trkpt>
      <trkpt lat="45.85585" lon="5.49776">
        <ele>975.03082853539</ele>
        <time>2020-05-28T06:19:57.000Z</time>
      </trkpt>
      <trkpt lat="45.85585" lon="5.49779">
        <ele>974.72141390675</ele>
        <time>2020-05-28T06:20:00.000Z</time>
      </trkpt>
      <trkpt lat="45.85584" lon="5.49782">
        <ele>974</ele>
        <time>2020-05-28T06:20:22.000Z</time>
      </trkpt>
      <trkpt lat="45.85583" lon="5.49785">
        <ele>974</ele>
        <time>2020-05-28T06:20:27.000Z</time>
      </trkpt>
      <trkpt lat="45.85582" lon="5.49787">
        <ele>974</ele>
        <time>2020-05-28T06:20:29.000Z</time>
      </trkpt>
      <trkpt lat="45.85582" lon="5.4979">
        <ele>974</ele>
        <time>2020-05-28T06:20:31.000Z</time>
      </trkpt>
      <trkpt lat="45.85582" lon="5.49793">
        <ele>974</ele>
        <time>2020-05-28T06:20:33.000Z</time>
      </trkpt>
      <trkpt lat="45.85582" lon="5.49797">
        <ele>974</ele>
        <time>2020-05-28T06:20:36.000Z</time>
      </trkpt>
      <trkpt lat="45.85582" lon="5.498">
        <ele>973.58800128</ele>
        <time>2020-05-28T06:20:39.000Z</time>
      </trkpt>
      <trkpt lat="45.85582" lon="5.49803">
        <ele>973.18800128</ele>
        <time>2020-05-28T06:20:41.000Z</time>
      </trkpt>
      <trkpt lat="45.85581" lon="5.49806">
        <ele>972.78800128</ele>
        <time>2020-05-28T06:20:43.000Z</time>
      </trkpt>
      <trkpt lat="45.85581" lon="5.49809">
        <ele>972.38800128</ele>
        <time>2020-05-28T06:20:45.000Z</time>
      </trkpt>
      <trkpt lat="45.85581" lon="5.49813">
        <ele>971.99400064</ele>
        <time>2020-05-28T06:20:47.000Z</time>
      </trkpt>
      <trkpt lat="45.85581" lon="5.49816">
        <ele>971.79400064</ele>
        <time>2020-05-28T06:20:49.000Z</time>
      </trkpt>
      <trkpt lat="45.85582" lon="5.4982">
        <ele>971.49400064</ele>
        <time>2020-05-28T06:20:52.000Z</time>
      </trkpt>
      <trkpt lat="45.85582" lon="5.49823">
        <ele>971.29400064</ele>
        <time>2020-05-28T06:20:54.000Z</time>
      </trkpt>
      <trkpt lat="45.85583" lon="5.49825">
        <ele>971.09400064</ele>
        <time>2020-05-28T06:20:56.000Z</time>
      </trkpt>
      <trkpt lat="45.85582" lon="5.49828">
        <ele>971</ele>
        <time>2020-05-28T06:20:59.000Z</time>
      </trkpt>
      <trkpt lat="45.85581" lon="5.49832">
        <ele>970.09400064</ele>
        <time>2020-05-28T06:21:16.000Z</time>
      </trkpt>
      <trkpt lat="45.8558" lon="5.49835">
        <ele>969.89400064</ele>
        <time>2020-05-28T06:21:18.000Z</time>
      </trkpt>
      <trkpt lat="45.8558" lon="5.49839">
        <ele>969.69400064</ele>
        <time>2020-05-28T06:21:20.000Z</time>
      </trkpt>
      <trkpt lat="45.8558" lon="5.49842">
        <ele>969.49400064</ele>
        <time>2020-05-28T06:21:22.000Z</time>
      </trkpt>
      <trkpt lat="45.85579" lon="5.49845">
        <ele>969.19400064</ele>
        <time>2020-05-28T06:21:25.000Z</time>
      </trkpt>
      <trkpt lat="45.85578" lon="5.49847">
        <ele>968.99400064</ele>
        <time>2020-05-28T06:21:27.000Z</time>
      </trkpt>
      <trkpt lat="45.85576" lon="5.4985">
        <ele>968.79400064</ele>
        <time>2020-05-28T06:21:29.000Z</time>
      </trkpt>
      <trkpt lat="45.85573" lon="5.49858">
        <ele>968.19400064</ele>
        <time>2020-05-28T06:21:35.000Z</time>
      </trkpt>
      <trkpt lat="45.85573" lon="5.49861">
        <ele>968.09400064</ele>
        <time>2020-05-28T06:21:36.000Z</time>
      </trkpt>
      <trkpt lat="45.85574" lon="5.49865">
        <ele>967.89536091463</ele>
        <time>2020-05-28T06:21:38.000Z</time>
      </trkpt>
      <trkpt lat="45.85574" lon="5.49868">
        <ele>967.69792748602</ele>
        <time>2020-05-28T06:21:40.000Z</time>
      </trkpt>
      <trkpt lat="45.85574" lon="5.49871">
        <ele>967.50049405741</ele>
        <time>2020-05-28T06:21:42.000Z</time>
      </trkpt>
      <trkpt lat="45.85574" lon="5.49874">
        <ele>967.30306062881</ele>
        <time>2020-05-28T06:21:44.000Z</time>
      </trkpt>
      <trkpt lat="45.85575" lon="5.49878">
        <ele>967.1056272002</ele>
        <time>2020-05-28T06:21:46.000Z</time>
      </trkpt>
      <trkpt lat="45.85575" lon="5.49881">
        <ele>966.71732629226</ele>
        <time>2020-05-28T06:21:48.000Z</time>
      </trkpt>
      <trkpt lat="45.85576" lon="5.49884">
        <ele>966.10942375378</ele>
        <time>2020-05-28T06:21:50.000Z</time>
      </trkpt>
      <trkpt lat="45.85577" lon="5.49887">
        <ele>965.50152121531</ele>
        <time>2020-05-28T06:21:52.000Z</time>
      </trkpt>
      <trkpt lat="45.85577" lon="5.4989">
        <ele>964.89361867684</ele>
        <time>2020-05-28T06:21:54.000Z</time>
      </trkpt>
      <trkpt lat="45.85578" lon="5.49894">
        <ele>964.28571613837</ele>
        <time>2020-05-28T06:21:56.000Z</time>
      </trkpt>
      <trkpt lat="45.85578" lon="5.49896">
        <ele>963.78800128</ele>
        <time>2020-05-28T06:21:58.000Z</time>
      </trkpt>
      <trkpt lat="45.8558" lon="5.49899">
        <ele>963.18800128</ele>
        <time>2020-05-28T06:22:01.000Z</time>
      </trkpt>
      <trkpt lat="45.85581" lon="5.49901">
        <ele>962.78800128</ele>
        <time>2020-05-28T06:22:03.000Z</time>
      </trkpt>
      <trkpt lat="45.85581" lon="5.49904">
        <ele>962.38800128</ele>
        <time>2020-05-28T06:22:05.000Z</time>
      </trkpt>
      <trkpt lat="45.85581" lon="5.49907">
        <ele>961.98800128</ele>
        <time>2020-05-28T06:22:07.000Z</time>
      </trkpt>
      <trkpt lat="45.85581" lon="5.49912">
        <ele>961.58800128</ele>
        <time>2020-05-28T06:22:09.000Z</time>
      </trkpt>
      <trkpt lat="45.85582" lon="5.49915">
        <ele>961.18800128</ele>
        <time>2020-05-28T06:22:11.000Z</time>
      </trkpt>
      <trkpt lat="45.85584" lon="5.49919">
        <ele>960.78800128</ele>
        <time>2020-05-28T06:22:13.000Z</time>
      </trkpt>
      <trkpt lat="45.85585" lon="5.49921">
        <ele>960.38800128</ele>
        <time>2020-05-28T06:22:15.000Z</time>
      </trkpt>
      <trkpt lat="45.85586" lon="5.49924">
        <ele>959.98800128</ele>
        <time>2020-05-28T06:22:17.000Z</time>
      </trkpt>
      <trkpt lat="45.85587" lon="5.49927">
        <ele>959.58800128</ele>
        <time>2020-05-28T06:22:19.000Z</time>
      </trkpt>
      <trkpt lat="45.85587" lon="5.4993">
        <ele>959.18800128</ele>
        <time>2020-05-28T06:22:21.000Z</time>
      </trkpt>
      <trkpt lat="45.85588" lon="5.49934">
        <ele>958.78800128</ele>
        <time>2020-05-28T06:22:23.000Z</time>
      </trkpt>
      <trkpt lat="45.85588" lon="5.49938">
        <ele>958.38800128</ele>
        <time>2020-05-28T06:22:25.000Z</time>
      </trkpt>
      <trkpt lat="45.85589" lon="5.49942">
        <ele>958</ele>
        <time>2020-05-28T06:22:27.000Z</time>
      </trkpt>
      <trkpt lat="45.85589" lon="5.49946">
        <ele>958</ele>
        <time>2020-05-28T06:22:29.000Z</time>
      </trkpt>
      <trkpt lat="45.85588" lon="5.4995">
        <ele>958</ele>
        <time>2020-05-28T06:22:31.000Z</time>
      </trkpt>
      <trkpt lat="45.85588" lon="5.49954">
        <ele>958</ele>
        <time>2020-05-28T06:22:33.000Z</time>
      </trkpt>
      <trkpt lat="45.85588" lon="5.49958">
        <ele>958</ele>
        <time>2020-05-28T06:22:35.000Z</time>
      </trkpt>
      <trkpt lat="45.85587" lon="5.49962">
        <ele>957.97600256</ele>
        <time>2020-05-28T06:22:37.000Z</time>
      </trkpt>
      <trkpt lat="45.85587" lon="5.49966">
        <ele>957.17600256</ele>
        <time>2020-05-28T06:22:39.000Z</time>
      </trkpt>
      <trkpt lat="45.85586" lon="5.49969">
        <ele>956.37600256</ele>
        <time>2020-05-28T06:22:41.000Z</time>
      </trkpt>
      <trkpt lat="45.85586" lon="5.49973">
        <ele>955.57600256</ele>
        <time>2020-05-28T06:22:43.000Z</time>
      </trkpt>
      <trkpt lat="45.85586" lon="5.49976">
        <ele>954.77600256</ele>
        <time>2020-05-28T06:22:45.000Z</time>
      </trkpt>
      <trkpt lat="45.85586" lon="5.49979">
        <ele>953.98223288679</ele>
        <time>2020-05-28T06:22:47.000Z</time>
      </trkpt>
      <trkpt lat="45.85586" lon="5.49982">
        <ele>953.38993260097</ele>
        <time>2020-05-28T06:22:49.000Z</time>
      </trkpt>
      <trkpt lat="45.85585" lon="5.49986">
        <ele>952.50148217224</ele>
        <time>2020-05-28T06:22:52.000Z</time>
      </trkpt>
      <trkpt lat="45.85584" lon="5.49989">
        <ele>951.6130317435</ele>
        <time>2020-05-28T06:22:55.000Z</time>
      </trkpt>
      <trkpt lat="45.85584" lon="5.49992">
        <ele>950.90846488189</ele>
        <time>2020-05-28T06:22:58.000Z</time>
      </trkpt>
      <trkpt lat="45.85583" lon="5.49995">
        <ele>950.71161448819</ele>
        <time>2020-05-28T06:23:00.000Z</time>
      </trkpt>
      <trkpt lat="45.85581" lon="5.49998">
        <ele>950.51476409449</ele>
        <time>2020-05-28T06:23:02.000Z</time>
      </trkpt>
      <trkpt lat="45.85579" lon="5.50002">
        <ele>950.31791370079</ele>
        <time>2020-05-28T06:23:04.000Z</time>
      </trkpt>
      <trkpt lat="45.85578" lon="5.50004">
        <ele>950.21948850394</ele>
        <time>2020-05-28T06:23:05.000Z</time>
      </trkpt>
      <trkpt lat="45.85575" lon="5.50007">
        <ele>950.12106330709</ele>
        <time>2020-05-28T06:23:06.000Z</time>
      </trkpt>
      <trkpt lat="45.85573" lon="5.5001">
        <ele>949.92070066465</ele>
        <time>2020-05-28T06:23:08.000Z</time>
      </trkpt>
      <trkpt lat="45.85572" lon="5.50014">
        <ele>949.71472750905</ele>
        <time>2020-05-28T06:23:10.000Z</time>
      </trkpt>
      <trkpt lat="45.85571" lon="5.50017">
        <ele>949.50875435345</ele>
        <time>2020-05-28T06:23:12.000Z</time>
      </trkpt>
      <trkpt lat="45.8557" lon="5.50021">
        <ele>949.19979462005</ele>
        <time>2020-05-28T06:23:15.000Z</time>
      </trkpt>
      <trkpt lat="45.8557" lon="5.50024">
        <ele>948.89515384703</ele>
        <time>2020-05-28T06:23:18.000Z</time>
      </trkpt>
      <trkpt lat="45.85569" lon="5.50027">
        <ele>948.69732972249</ele>
        <time>2020-05-28T06:23:20.000Z</time>
      </trkpt>
      <trkpt lat="45.85569" lon="5.50031">
        <ele>948.49950559795</ele>
        <time>2020-05-28T06:23:22.000Z</time>
      </trkpt>
      <trkpt lat="45.85569" lon="5.50033">
        <ele>948.20276941114</ele>
        <time>2020-05-28T06:23:25.000Z</time>
      </trkpt>
      <trkpt lat="45.85569" lon="5.50037">
        <ele>947.51971573415</ele>
        <time>2020-05-28T06:23:28.000Z</time>
      </trkpt>
      <trkpt lat="45.8557" lon="5.50039">
        <ele>946.50859436982</ele>
        <time>2020-05-28T06:23:30.000Z</time>
      </trkpt>
      <trkpt lat="45.85571" lon="5.50042">
        <ele>944.99191232332</ele>
        <time>2020-05-28T06:23:33.000Z</time>
      </trkpt>
      <trkpt lat="45.85572" lon="5.50045">
        <ele>942.98825956212</ele>
        <time>2020-05-28T06:23:37.000Z</time>
      </trkpt>
      <trkpt lat="45.85573" lon="5.50047">
        <ele>942.20548020695</ele>
        <time>2020-05-28T06:23:41.000Z</time>
      </trkpt>
      <trkpt lat="45.85573" lon="5.5005">
        <ele>941.61839569058</ele>
        <time>2020-05-28T06:23:44.000Z</time>
      </trkpt>
      <trkpt lat="45.85575" lon="5.50053">
        <ele>940.82822097131</ele>
        <time>2020-05-28T06:23:48.000Z</time>
      </trkpt>
      <trkpt lat="45.85576" lon="5.50056">
        <ele>940.41922328394</ele>
        <time>2020-05-28T06:23:50.000Z</time>
      </trkpt>
      <trkpt lat="45.85576" lon="5.50059">
        <ele>940.01022559658</ele>
        <time>2020-05-28T06:23:52.000Z</time>
      </trkpt>
      <trkpt lat="45.85576" lon="5.50062">
        <ele>939.60122790922</ele>
        <time>2020-05-28T06:23:54.000Z</time>
      </trkpt>
      <trkpt lat="45.85577" lon="5.50067">
        <ele>939.19223022185</ele>
        <time>2020-05-28T06:23:56.000Z</time>
      </trkpt>
      <trkpt lat="45.85574" lon="5.50084">
        <ele>938.59400064</ele>
        <time>2020-05-28T06:24:01.000Z</time>
      </trkpt>
      <trkpt lat="45.85566" lon="5.50098">
        <ele>938.29400064</ele>
        <time>2020-05-28T06:24:04.000Z</time>
      </trkpt>
      <trkpt lat="45.85559" lon="5.50105">
        <ele>938</ele>
        <time>2020-05-28T06:24:09.000Z</time>
      </trkpt>
      <trkpt lat="45.85555" lon="5.50108">
        <ele>938</ele>
        <time>2020-05-28T06:24:12.000Z</time>
      </trkpt>
      <trkpt lat="45.85554" lon="5.5011">
        <ele>938</ele>
        <time>2020-05-28T06:24:15.000Z</time>
      </trkpt>
      <trkpt lat="45.85552" lon="5.50112">
        <ele>937.17846637221</ele>
        <time>2020-05-28T06:24:19.000Z</time>
      </trkpt>
      <trkpt lat="45.85552" lon="5.50115">
        <ele>934.78564254658</ele>
        <time>2020-05-28T06:24:25.000Z</time>
      </trkpt>
      <trkpt lat="45.85552" lon="5.50118">
        <ele>933.59578743034</ele>
        <time>2020-05-28T06:24:31.000Z</time>
      </trkpt>
      <trkpt lat="45.85552" lon="5.5012">
        <ele>933.39518581808</ele>
        <time>2020-05-28T06:24:33.000Z</time>
      </trkpt>
      <trkpt lat="45.85552" lon="5.50124">
        <ele>933.09428339969</ele>
        <time>2020-05-28T06:24:36.000Z</time>
      </trkpt>
      <trkpt lat="45.85553" lon="5.50127">
        <ele>932.59328840064</ele>
        <time>2020-05-28T06:24:39.000Z</time>
      </trkpt>
      <trkpt lat="45.85553" lon="5.5013">
        <ele>932.19842154343</ele>
        <time>2020-05-28T06:24:41.000Z</time>
      </trkpt>
      <trkpt lat="45.85554" lon="5.50134">
        <ele>931.60612125761</ele>
        <time>2020-05-28T06:24:44.000Z</time>
      </trkpt>
      <trkpt lat="45.85555" lon="5.50137">
        <ele>931.2112544004</ele>
        <time>2020-05-28T06:24:46.000Z</time>
      </trkpt>
      <trkpt lat="45.85557" lon="5.5014">
        <ele>930.41337502302</ele>
        <time>2020-05-28T06:24:49.000Z</time>
      </trkpt>
      <trkpt lat="45.85558" lon="5.50143">
        <ele>929.80547248455</ele>
        <time>2020-05-28T06:24:51.000Z</time>
      </trkpt>
      <trkpt lat="45.85559" lon="5.50145">
        <ele>929.19756994608</ele>
        <time>2020-05-28T06:24:53.000Z</time>
      </trkpt>
      <trkpt lat="45.8556" lon="5.50149">
        <ele>928.58966740761</ele>
        <time>2020-05-28T06:24:55.000Z</time>
      </trkpt>
      <trkpt lat="45.85561" lon="5.50152">
        <ele>927.98200192</ele>
        <time>2020-05-28T06:24:57.000Z</time>
      </trkpt>
      <trkpt lat="45.85562" lon="5.50155">
        <ele>927.08200192</ele>
        <time>2020-05-28T06:25:00.000Z</time>
      </trkpt>
      <trkpt lat="45.85564" lon="5.50158">
        <ele>926.18200192</ele>
        <time>2020-05-28T06:25:03.000Z</time>
      </trkpt>
      <trkpt lat="45.85564" lon="5.50161">
        <ele>925.28200192</ele>
        <time>2020-05-28T06:25:06.000Z</time>
      </trkpt>
      <trkpt lat="45.85564" lon="5.50164">
        <ele>924.589642186</ele>
        <time>2020-05-28T06:25:09.000Z</time>
      </trkpt>
      <trkpt lat="45.85565" lon="5.50168">
        <ele>923.99203186235</ele>
        <time>2020-05-28T06:25:12.000Z</time>
      </trkpt>
      <trkpt lat="45.85566" lon="5.50171">
        <ele>923.59362497992</ele>
        <time>2020-05-28T06:25:14.000Z</time>
      </trkpt>
      <trkpt lat="45.85566" lon="5.50177">
        <ele>922.99799132788</ele>
        <time>2020-05-28T06:25:17.000Z</time>
      </trkpt>
      <trkpt lat="45.85566" lon="5.50191">
        <ele>922.4959839409</ele>
        <time>2020-05-28T06:25:22.000Z</time>
      </trkpt>
      <trkpt lat="45.85566" lon="5.50194">
        <ele>922.39558246351</ele>
        <time>2020-05-28T06:25:23.000Z</time>
      </trkpt>
      <trkpt lat="45.85566" lon="5.50197">
        <ele>922.29518098611</ele>
        <time>2020-05-28T06:25:24.000Z</time>
      </trkpt>
      <trkpt lat="45.85566" lon="5.50199">
        <ele>922.19477950872</ele>
        <time>2020-05-28T06:25:25.000Z</time>
      </trkpt>
      <trkpt lat="45.85565" lon="5.50203">
        <ele>921.98201989435</ele>
        <time>2020-05-28T06:25:27.000Z</time>
      </trkpt>
      <trkpt lat="45.85566" lon="5.50206">
        <ele>921.38261910333</ele>
        <time>2020-05-28T06:25:29.000Z</time>
      </trkpt>
      <trkpt lat="45.85566" lon="5.50209">
        <ele>920.78321831232</ele>
        <time>2020-05-28T06:25:31.000Z</time>
      </trkpt>
      <trkpt lat="45.85565" lon="5.50211">
        <ele>920.1838175213</ele>
        <time>2020-05-28T06:25:33.000Z</time>
      </trkpt>
      <trkpt lat="45.85566" lon="5.50214">
        <ele>919.58441673028</ele>
        <time>2020-05-28T06:25:35.000Z</time>
      </trkpt>
      <trkpt lat="45.85567" lon="5.50217">
        <ele>918.97998126767</ele>
        <time>2020-05-28T06:25:37.000Z</time>
      </trkpt>
      <trkpt lat="45.85568" lon="5.5022">
        <ele>918.17918072339</ele>
        <time>2020-05-28T06:25:39.000Z</time>
      </trkpt>
      <trkpt lat="45.8557" lon="5.50224">
        <ele>917.3783801791</ele>
        <time>2020-05-28T06:25:41.000Z</time>
      </trkpt>
      <trkpt lat="45.8557" lon="5.50227">
        <ele>916.57757963481</ele>
        <time>2020-05-28T06:25:43.000Z</time>
      </trkpt>
      <trkpt lat="45.8557" lon="5.50231">
        <ele>915.77677909052</ele>
        <time>2020-05-28T06:25:45.000Z</time>
      </trkpt>
      <trkpt lat="45.8557" lon="5.50234">
        <ele>914.99400064</ele>
        <time>2020-05-28T06:25:47.000Z</time>
      </trkpt>
      <trkpt lat="45.8557" lon="5.50238">
        <ele>914.79400064</ele>
        <time>2020-05-28T06:25:49.000Z</time>
      </trkpt>
      <trkpt lat="45.85571" lon="5.50241">
        <ele>914.59400064</ele>
        <time>2020-05-28T06:25:51.000Z</time>
      </trkpt>
      <trkpt lat="45.85572" lon="5.50246">
        <ele>914.29400064</ele>
        <time>2020-05-28T06:25:54.000Z</time>
      </trkpt>
      <trkpt lat="45.85571" lon="5.50249">
        <ele>914.09400064</ele>
        <time>2020-05-28T06:25:56.000Z</time>
      </trkpt>
      <trkpt lat="45.8557" lon="5.50252">
        <ele>913.68200192</ele>
        <time>2020-05-28T06:25:58.000Z</time>
      </trkpt>
      <trkpt lat="45.85568" lon="5.50257">
        <ele>913.08200192</ele>
        <time>2020-05-28T06:26:00.000Z</time>
      </trkpt>
      <trkpt lat="45.85567" lon="5.5026">
        <ele>912.48200192</ele>
        <time>2020-05-28T06:26:02.000Z</time>
      </trkpt>
      <trkpt lat="45.85566" lon="5.50263">
        <ele>911.28200192</ele>
        <time>2020-05-28T06:26:06.000Z</time>
      </trkpt>
      <trkpt lat="45.85565" lon="5.50265">
        <ele>910.8973868414</ele>
        <time>2020-05-28T06:26:08.000Z</time>
      </trkpt>
      <trkpt lat="45.85564" lon="5.50268">
        <ele>910.70377593921</ele>
        <time>2020-05-28T06:26:10.000Z</time>
      </trkpt>
      <trkpt lat="45.85563" lon="5.50271">
        <ele>910.51016503703</ele>
        <time>2020-05-28T06:26:12.000Z</time>
      </trkpt>
      <trkpt lat="45.85562" lon="5.50274">
        <ele>910.31655413485</ele>
        <time>2020-05-28T06:26:14.000Z</time>
      </trkpt>
      <trkpt lat="45.85561" lon="5.50279">
        <ele>910.12294323266</ele>
        <time>2020-05-28T06:26:16.000Z</time>
      </trkpt>
      <trkpt lat="45.85561" lon="5.50282">
        <ele>909.84901829195</ele>
        <time>2020-05-28T06:26:18.000Z</time>
      </trkpt>
      <trkpt lat="45.8556" lon="5.50285">
        <ele>909.43536796348</ele>
        <time>2020-05-28T06:26:20.000Z</time>
      </trkpt>
      <trkpt lat="45.8556" lon="5.50294">
        <ele>908.4012421423</ele>
        <time>2020-05-28T06:26:25.000Z</time>
      </trkpt>
      <trkpt lat="45.85561" lon="5.50298">
        <ele>907.98800128</ele>
        <time>2020-05-28T06:26:27.000Z</time>
      </trkpt>
      <trkpt lat="45.85563" lon="5.50301">
        <ele>907.58800128</ele>
        <time>2020-05-28T06:26:29.000Z</time>
      </trkpt>
      <trkpt lat="45.85565" lon="5.50304">
        <ele>907.18800128</ele>
        <time>2020-05-28T06:26:31.000Z</time>
      </trkpt>
      <trkpt lat="45.85567" lon="5.50306">
        <ele>906.78800128</ele>
        <time>2020-05-28T06:26:33.000Z</time>
      </trkpt>
      <trkpt lat="45.85569" lon="5.50309">
        <ele>906.38800128</ele>
        <time>2020-05-28T06:26:35.000Z</time>
      </trkpt>
      <trkpt lat="45.85574" lon="5.50319">
        <ele>904.98800128</ele>
        <time>2020-05-28T06:26:42.000Z</time>
      </trkpt>
      <trkpt lat="45.85575" lon="5.50322">
        <ele>904.58800128</ele>
        <time>2020-05-28T06:26:44.000Z</time>
      </trkpt>
      <trkpt lat="45.85575" lon="5.50326">
        <ele>904.18800128</ele>
        <time>2020-05-28T06:26:46.000Z</time>
      </trkpt>
      <trkpt lat="45.85577" lon="5.50327">
        <ele>904</ele>
        <time>2020-05-28T06:26:48.000Z</time>
      </trkpt>
      <trkpt lat="45.85578" lon="5.5033">
        <ele>904</ele>
        <time>2020-05-28T06:26:50.000Z</time>
      </trkpt>
      <trkpt lat="45.85579" lon="5.50333">
        <ele>904</ele>
        <time>2020-05-28T06:26:52.000Z</time>
      </trkpt>
      <trkpt lat="45.85579" lon="5.50336">
        <ele>904</ele>
        <time>2020-05-28T06:26:54.000Z</time>
      </trkpt>
      <trkpt lat="45.85579" lon="5.50339">
        <ele>904</ele>
        <time>2020-05-28T06:26:56.000Z</time>
      </trkpt>
      <trkpt lat="45.8558" lon="5.50342">
        <ele>903.6463401626</ele>
        <time>2020-05-28T06:26:58.000Z</time>
      </trkpt>
      <trkpt lat="45.85581" lon="5.50345">
        <ele>902.83333203252</ele>
        <time>2020-05-28T06:27:00.000Z</time>
      </trkpt>
      <trkpt lat="45.85581" lon="5.50349">
        <ele>902.02032390244</ele>
        <time>2020-05-28T06:27:02.000Z</time>
      </trkpt>
      <trkpt lat="45.85582" lon="5.50352">
        <ele>901.20731577236</ele>
        <time>2020-05-28T06:27:04.000Z</time>
      </trkpt>
      <trkpt lat="45.85583" lon="5.50355">
        <ele>900.39430764228</ele>
        <time>2020-05-28T06:27:06.000Z</time>
      </trkpt>
      <trkpt lat="45.85584" lon="5.50358">
        <ele>899.89668984872</ele>
        <time>2020-05-28T06:27:08.000Z</time>
      </trkpt>
      <trkpt lat="45.85585" lon="5.50361">
        <ele>899.69608823647</ele>
        <time>2020-05-28T06:27:10.000Z</time>
      </trkpt>
      <trkpt lat="45.85585" lon="5.50365">
        <ele>899.49548662421</ele>
        <time>2020-05-28T06:27:12.000Z</time>
      </trkpt>
      <trkpt lat="45.85585" lon="5.50369">
        <ele>899.29488501195</ele>
        <time>2020-05-28T06:27:14.000Z</time>
      </trkpt>
      <trkpt lat="45.85585" lon="5.50373">
        <ele>899.09428339969</ele>
        <time>2020-05-28T06:27:16.000Z</time>
      </trkpt>
      <trkpt lat="45.85586" lon="5.50376">
        <ele>898.89400064</ele>
        <time>2020-05-28T06:27:18.000Z</time>
      </trkpt>
      <trkpt lat="45.85587" lon="5.50379">
        <ele>898.69400064</ele>
        <time>2020-05-28T06:27:20.000Z</time>
      </trkpt>
      <trkpt lat="45.85589" lon="5.50381">
        <ele>898.49400064</ele>
        <time>2020-05-28T06:27:22.000Z</time>
      </trkpt>
      <trkpt lat="45.8559" lon="5.50384">
        <ele>898.29400064</ele>
        <time>2020-05-28T06:27:24.000Z</time>
      </trkpt>
      <trkpt lat="45.85592" lon="5.50387">
        <ele>898.09400064</ele>
        <time>2020-05-28T06:27:26.000Z</time>
      </trkpt>
      <trkpt lat="45.85594" lon="5.50389">
        <ele>897.89400064</ele>
        <time>2020-05-28T06:27:28.000Z</time>
      </trkpt>
      <trkpt lat="45.85595" lon="5.50392">
        <ele>897.69400064</ele>
        <time>2020-05-28T06:27:30.000Z</time>
      </trkpt>
      <trkpt lat="45.85595" lon="5.50396">
        <ele>897.49400064</ele>
        <time>2020-05-28T06:27:32.000Z</time>
      </trkpt>
      <trkpt lat="45.85596" lon="5.504">
        <ele>897.29400064</ele>
        <time>2020-05-28T06:27:34.000Z</time>
      </trkpt>
      <trkpt lat="45.85597" lon="5.50403">
        <ele>897.09400064</ele>
        <time>2020-05-28T06:27:36.000Z</time>
      </trkpt>
      <trkpt lat="45.85597" lon="5.50407">
        <ele>896.89400064</ele>
        <time>2020-05-28T06:27:38.000Z</time>
      </trkpt>
      <trkpt lat="45.85598" lon="5.50411">
        <ele>896.69400064</ele>
        <time>2020-05-28T06:27:40.000Z</time>
      </trkpt>
      <trkpt lat="45.85599" lon="5.50414">
        <ele>896.49400064</ele>
        <time>2020-05-28T06:27:42.000Z</time>
      </trkpt>
      <trkpt lat="45.85598" lon="5.50418">
        <ele>896.29400064</ele>
        <time>2020-05-28T06:27:44.000Z</time>
      </trkpt>
      <trkpt lat="45.85598" lon="5.50422">
        <ele>896.09400064</ele>
        <time>2020-05-28T06:27:46.000Z</time>
      </trkpt>
      <trkpt lat="45.85599" lon="5.50425">
        <ele>895.89400064</ele>
        <time>2020-05-28T06:27:48.000Z</time>
      </trkpt>
      <trkpt lat="45.856" lon="5.50429">
        <ele>895.69400064</ele>
        <time>2020-05-28T06:27:50.000Z</time>
      </trkpt>
      <trkpt lat="45.85602" lon="5.50432">
        <ele>895.49400064</ele>
        <time>2020-05-28T06:27:52.000Z</time>
      </trkpt>
      <trkpt lat="45.85602" lon="5.50435">
        <ele>895.29400064</ele>
        <time>2020-05-28T06:27:54.000Z</time>
      </trkpt>
      <trkpt lat="45.85603" lon="5.50439">
        <ele>895.09400064</ele>
        <time>2020-05-28T06:27:56.000Z</time>
      </trkpt>
      <trkpt lat="45.85604" lon="5.50442">
        <ele>894.89400064</ele>
        <time>2020-05-28T06:27:58.000Z</time>
      </trkpt>
      <trkpt lat="45.85604" lon="5.50446">
        <ele>894.69400064</ele>
        <time>2020-05-28T06:28:00.000Z</time>
      </trkpt>
      <trkpt lat="45.85603" lon="5.5045">
        <ele>894.49400064</ele>
        <time>2020-05-28T06:28:02.000Z</time>
      </trkpt>
      <trkpt lat="45.85603" lon="5.50453">
        <ele>894.29400064</ele>
        <time>2020-05-28T06:28:04.000Z</time>
      </trkpt>
      <trkpt lat="45.85604" lon="5.50456">
        <ele>894.09400064</ele>
        <time>2020-05-28T06:28:06.000Z</time>
      </trkpt>
      <trkpt lat="45.85604" lon="5.50459">
        <ele>894</ele>
        <time>2020-05-28T06:28:08.000Z</time>
      </trkpt>
      <trkpt lat="45.85604" lon="5.50462">
        <ele>894</ele>
        <time>2020-05-28T06:28:10.000Z</time>
      </trkpt>
      <trkpt lat="45.85604" lon="5.50465">
        <ele>894</ele>
        <time>2020-05-28T06:28:12.000Z</time>
      </trkpt>
      <trkpt lat="45.85605" lon="5.50468">
        <ele>894</ele>
        <time>2020-05-28T06:28:14.000Z</time>
      </trkpt>
      <trkpt lat="45.85606" lon="5.50471">
        <ele>894</ele>
        <time>2020-05-28T06:28:16.000Z</time>
      </trkpt>
      <trkpt lat="45.85607" lon="5.50473">
        <ele>894.10599936</ele>
        <time>2020-05-28T06:28:18.000Z</time>
      </trkpt>
      <trkpt lat="45.85607" lon="5.50476">
        <ele>894.30599936</ele>
        <time>2020-05-28T06:28:20.000Z</time>
      </trkpt>
      <trkpt lat="45.85609" lon="5.50479">
        <ele>894.60599936</ele>
        <time>2020-05-28T06:28:23.000Z</time>
      </trkpt>
      <trkpt lat="45.85611" lon="5.50481">
        <ele>895.00599936</ele>
        <time>2020-05-28T06:28:27.000Z</time>
      </trkpt>
      <trkpt lat="45.85612" lon="5.50483">
        <ele>895.30599936</ele>
        <time>2020-05-28T06:28:30.000Z</time>
      </trkpt>
      <trkpt lat="45.85614" lon="5.50486">
        <ele>895.60599936</ele>
        <time>2020-05-28T06:28:33.000Z</time>
      </trkpt>
      <trkpt lat="45.85616" lon="5.50487">
        <ele>896</ele>
        <time>2020-05-28T06:28:37.000Z</time>
      </trkpt>
      <trkpt lat="45.85617" lon="5.50485">
        <ele>896.30599936</ele>
        <time>2020-05-28T06:28:50.000Z</time>
      </trkpt>
      <trkpt lat="45.85619" lon="5.50487">
        <ele>896.80599936</ele>
        <time>2020-05-28T06:28:55.000Z</time>
      </trkpt>
      <trkpt lat="45.85621" lon="5.50488">
        <ele>897</ele>
        <time>2020-05-28T06:28:58.000Z</time>
      </trkpt>
      <trkpt lat="45.85623" lon="5.50488">
        <ele>897</ele>
        <time>2020-05-28T06:29:01.000Z</time>
      </trkpt>
      <trkpt lat="45.85625" lon="5.50489">
        <ele>897</ele>
        <time>2020-05-28T06:29:04.000Z</time>
      </trkpt>
      <trkpt lat="45.85627" lon="5.5049">
        <ele>897</ele>
        <time>2020-05-28T06:29:07.000Z</time>
      </trkpt>
      <trkpt lat="45.85629" lon="5.50491">
        <ele>897</ele>
        <time>2020-05-28T06:29:09.000Z</time>
      </trkpt>
      <trkpt lat="45.85631" lon="5.50492">
        <ele>897</ele>
        <time>2020-05-28T06:29:11.000Z</time>
      </trkpt>
      <trkpt lat="45.85633" lon="5.50493">
        <ele>897</ele>
        <time>2020-05-28T06:29:13.000Z</time>
      </trkpt>
      <trkpt lat="45.85636" lon="5.50493">
        <ele>897</ele>
        <time>2020-05-28T06:29:15.000Z</time>
      </trkpt>
      <trkpt lat="45.85638" lon="5.50493">
        <ele>897</ele>
        <time>2020-05-28T06:29:17.000Z</time>
      </trkpt>
      <trkpt lat="45.85641" lon="5.50493">
        <ele>897</ele>
        <time>2020-05-28T06:29:19.000Z</time>
      </trkpt>
      <trkpt lat="45.85644" lon="5.50494">
        <ele>897</ele>
        <time>2020-05-28T06:29:21.000Z</time>
      </trkpt>
      <trkpt lat="45.85646" lon="5.50494">
        <ele>897</ele>
        <time>2020-05-28T06:29:23.000Z</time>
      </trkpt>
      <trkpt lat="45.85648" lon="5.50494">
        <ele>897</ele>
        <time>2020-05-28T06:29:25.000Z</time>
      </trkpt>
      <trkpt lat="45.8565" lon="5.50495">
        <ele>897</ele>
        <time>2020-05-28T06:29:27.000Z</time>
      </trkpt>
      <trkpt lat="45.85653" lon="5.50497">
        <ele>897.34237972952</ele>
        <time>2020-05-28T06:29:29.000Z</time>
      </trkpt>
      <trkpt lat="45.85655" lon="5.505">
        <ele>897.75991598503</ele>
        <time>2020-05-28T06:29:31.000Z</time>
      </trkpt>
      <trkpt lat="45.85657" lon="5.50502">
        <ele>898.17745224053</ele>
        <time>2020-05-28T06:29:33.000Z</time>
      </trkpt>
      <trkpt lat="45.85659" lon="5.50505">
        <ele>898.59498849604</ele>
        <time>2020-05-28T06:29:35.000Z</time>
      </trkpt>
      <trkpt lat="45.85661" lon="5.50507">
        <ele>899.00599936</ele>
        <time>2020-05-28T06:29:37.000Z</time>
      </trkpt>
      <trkpt lat="45.85663" lon="5.50509">
        <ele>899.20599936</ele>
        <time>2020-05-28T06:29:39.000Z</time>
      </trkpt>
      <trkpt lat="45.85665" lon="5.50512">
        <ele>899.40599936</ele>
        <time>2020-05-28T06:29:41.000Z</time>
      </trkpt>
      <trkpt lat="45.85667" lon="5.50514">
        <ele>899.60599936</ele>
        <time>2020-05-28T06:29:43.000Z</time>
      </trkpt>
      <trkpt lat="45.8567" lon="5.50516">
        <ele>899.80599936</ele>
        <time>2020-05-28T06:29:45.000Z</time>
      </trkpt>
      <trkpt lat="45.85672" lon="5.5052">
        <ele>900</ele>
        <time>2020-05-28T06:29:47.000Z</time>
      </trkpt>
      <trkpt lat="45.85674" lon="5.50523">
        <ele>900</ele>
        <time>2020-05-28T06:29:49.000Z</time>
      </trkpt>
      <trkpt lat="45.85675" lon="5.50526">
        <ele>900</ele>
        <time>2020-05-28T06:29:51.000Z</time>
      </trkpt>
      <trkpt lat="45.85677" lon="5.50529">
        <ele>900</ele>
        <time>2020-05-28T06:29:53.000Z</time>
      </trkpt>
      <trkpt lat="45.85678" lon="5.50532">
        <ele>900</ele>
        <time>2020-05-28T06:29:55.000Z</time>
      </trkpt>
      <trkpt lat="45.8568" lon="5.50535">
        <ele>899.99400064</ele>
        <time>2020-05-28T06:29:57.000Z</time>
      </trkpt>
      <trkpt lat="45.85681" lon="5.50538">
        <ele>899.79400064</ele>
        <time>2020-05-28T06:29:59.000Z</time>
      </trkpt>
      <trkpt lat="45.85681" lon="5.50542">
        <ele>899.59400064</ele>
        <time>2020-05-28T06:30:01.000Z</time>
      </trkpt>
      <trkpt lat="45.85682" lon="5.50546">
        <ele>899.39400064</ele>
        <time>2020-05-28T06:30:03.000Z</time>
      </trkpt>
      <trkpt lat="45.85683" lon="5.5055">
        <ele>899.19400064</ele>
        <time>2020-05-28T06:30:05.000Z</time>
      </trkpt>
      <trkpt lat="45.85683" lon="5.50553">
        <ele>899</ele>
        <time>2020-05-28T06:30:07.000Z</time>
      </trkpt>
      <trkpt lat="45.85684" lon="5.50557">
        <ele>899</ele>
        <time>2020-05-28T06:30:09.000Z</time>
      </trkpt>
      <trkpt lat="45.85684" lon="5.50561">
        <ele>899</ele>
        <time>2020-05-28T06:30:11.000Z</time>
      </trkpt>
      <trkpt lat="45.85684" lon="5.50565">
        <ele>899</ele>
        <time>2020-05-28T06:30:13.000Z</time>
      </trkpt>
      <trkpt lat="45.85685" lon="5.50568">
        <ele>899</ele>
        <time>2020-05-28T06:30:15.000Z</time>
      </trkpt>
      <trkpt lat="45.85686" lon="5.50572">
        <ele>899</ele>
        <time>2020-05-28T06:30:17.000Z</time>
      </trkpt>
      <trkpt lat="45.85686" lon="5.50577">
        <ele>899</ele>
        <time>2020-05-28T06:30:20.000Z</time>
      </trkpt>
      <trkpt lat="45.85686" lon="5.50581">
        <ele>899</ele>
        <time>2020-05-28T06:30:22.000Z</time>
      </trkpt>
      <trkpt lat="45.85686" lon="5.50585">
        <ele>899</ele>
        <time>2020-05-28T06:30:25.000Z</time>
      </trkpt>
      <trkpt lat="45.85686" lon="5.50589">
        <ele>898.98832807885</ele>
        <time>2020-05-28T06:30:27.000Z</time>
      </trkpt>
      <trkpt lat="45.85686" lon="5.50591">
        <ele>898.79377530742</ele>
        <time>2020-05-28T06:30:28.000Z</time>
      </trkpt>
      <trkpt lat="45.85685" lon="5.50596">
        <ele>898.40466976457</ele>
        <time>2020-05-28T06:30:30.000Z</time>
      </trkpt>
      <trkpt lat="45.85684" lon="5.50599">
        <ele>898.01556422171</ele>
        <time>2020-05-28T06:30:32.000Z</time>
      </trkpt>
      <trkpt lat="45.85684" lon="5.50603">
        <ele>897.62645867886</ele>
        <time>2020-05-28T06:30:34.000Z</time>
      </trkpt>
      <trkpt lat="45.85684" lon="5.50607">
        <ele>897.237353136</ele>
        <time>2020-05-28T06:30:36.000Z</time>
      </trkpt>
      <trkpt lat="45.85683" lon="5.50611">
        <ele>896.91975253366</ele>
        <time>2020-05-28T06:30:38.000Z</time>
      </trkpt>
      <trkpt lat="45.85683" lon="5.50614">
        <ele>896.71399148775</ele>
        <time>2020-05-28T06:30:40.000Z</time>
      </trkpt>
      <trkpt lat="45.85683" lon="5.50618">
        <ele>896.50823044184</ele>
        <time>2020-05-28T06:30:42.000Z</time>
      </trkpt>
      <trkpt lat="45.85682" lon="5.50621">
        <ele>896.30246939592</ele>
        <time>2020-05-28T06:30:44.000Z</time>
      </trkpt>
      <trkpt lat="45.85682" lon="5.50625">
        <ele>896.09670835001</ele>
        <time>2020-05-28T06:30:46.000Z</time>
      </trkpt>
      <trkpt lat="45.8568" lon="5.50628">
        <ele>895.89452796642</ele>
        <time>2020-05-28T06:30:48.000Z</time>
      </trkpt>
      <trkpt lat="45.85679" lon="5.50632">
        <ele>895.69552292793</ele>
        <time>2020-05-28T06:30:50.000Z</time>
      </trkpt>
      <trkpt lat="45.85676" lon="5.50635">
        <ele>895.49651788944</ele>
        <time>2020-05-28T06:30:52.000Z</time>
      </trkpt>
      <trkpt lat="45.85674" lon="5.50638">
        <ele>895.29751285095</ele>
        <time>2020-05-28T06:30:54.000Z</time>
      </trkpt>
      <trkpt lat="45.85672" lon="5.50641">
        <ele>895.09850781246</ele>
        <time>2020-05-28T06:30:56.000Z</time>
      </trkpt>
      <trkpt lat="45.8567" lon="5.50644">
        <ele>894.89849281656</ele>
        <time>2020-05-28T06:30:58.000Z</time>
      </trkpt>
      <trkpt lat="45.85668" lon="5.50647">
        <ele>894.69748785608</ele>
        <time>2020-05-28T06:31:00.000Z</time>
      </trkpt>
      <trkpt lat="45.85666" lon="5.50649">
        <ele>894.4964828956</ele>
        <time>2020-05-28T06:31:02.000Z</time>
      </trkpt>
      <trkpt lat="45.85664" lon="5.50652">
        <ele>894.29547793512</ele>
        <time>2020-05-28T06:31:04.000Z</time>
      </trkpt>
      <trkpt lat="45.85662" lon="5.50655">
        <ele>894.09447297464</ele>
        <time>2020-05-28T06:31:06.000Z</time>
      </trkpt>
      <trkpt lat="45.8566" lon="5.50657">
        <ele>894</ele>
        <time>2020-05-28T06:31:08.000Z</time>
      </trkpt>
      <trkpt lat="45.85658" lon="5.5066">
        <ele>894</ele>
        <time>2020-05-28T06:31:10.000Z</time>
      </trkpt>
      <trkpt lat="45.85656" lon="5.50662">
        <ele>894</ele>
        <time>2020-05-28T06:31:12.000Z</time>
      </trkpt>
      <trkpt lat="45.85654" lon="5.50664">
        <ele>894</ele>
        <time>2020-05-28T06:31:14.000Z</time>
      </trkpt>
      <trkpt lat="45.85652" lon="5.50667">
        <ele>894</ele>
        <time>2020-05-28T06:31:16.000Z</time>
      </trkpt>
      <trkpt lat="45.8565" lon="5.50669">
        <ele>893.89400064</ele>
        <time>2020-05-28T06:31:18.000Z</time>
      </trkpt>
      <trkpt lat="45.85649" lon="5.50672">
        <ele>893.69400064</ele>
        <time>2020-05-28T06:31:20.000Z</time>
      </trkpt>
      <trkpt lat="45.85646" lon="5.50675">
        <ele>893.49400064</ele>
        <time>2020-05-28T06:31:22.000Z</time>
      </trkpt>
      <trkpt lat="45.85644" lon="5.50678">
        <ele>893.29400064</ele>
        <time>2020-05-28T06:31:24.000Z</time>
      </trkpt>
      <trkpt lat="45.85642" lon="5.5068">
        <ele>893.09400064</ele>
        <time>2020-05-28T06:31:26.000Z</time>
      </trkpt>
      <trkpt lat="45.85641" lon="5.50683">
        <ele>892.89400064</ele>
        <time>2020-05-28T06:31:28.000Z</time>
      </trkpt>
      <trkpt lat="45.85639" lon="5.50685">
        <ele>892.69400064</ele>
        <time>2020-05-28T06:31:30.000Z</time>
      </trkpt>
      <trkpt lat="45.85637" lon="5.50688">
        <ele>892.49400064</ele>
        <time>2020-05-28T06:31:32.000Z</time>
      </trkpt>
      <trkpt lat="45.85636" lon="5.5069">
        <ele>892.29400064</ele>
        <time>2020-05-28T06:31:34.000Z</time>
      </trkpt>
      <trkpt lat="45.85634" lon="5.50693">
        <ele>892.09400064</ele>
        <time>2020-05-28T06:31:36.000Z</time>
      </trkpt>
      <trkpt lat="45.85633" lon="5.50696">
        <ele>891.89431758579</ele>
        <time>2020-05-28T06:31:38.000Z</time>
      </trkpt>
      <trkpt lat="45.85631" lon="5.50698">
        <ele>891.69491560032</ele>
        <time>2020-05-28T06:31:40.000Z</time>
      </trkpt>
      <trkpt lat="45.8563" lon="5.50701">
        <ele>891.49551361485</ele>
        <time>2020-05-28T06:31:42.000Z</time>
      </trkpt>
      <trkpt lat="45.85628" lon="5.50704">
        <ele>891.29611162938</ele>
        <time>2020-05-28T06:31:44.000Z</time>
      </trkpt>
      <trkpt lat="45.85626" lon="5.50707">
        <ele>891.09670964391</ele>
        <time>2020-05-28T06:31:46.000Z</time>
      </trkpt>
      <trkpt lat="45.85625" lon="5.5071">
        <ele>890.79337969745</ele>
        <time>2020-05-28T06:31:48.000Z</time>
      </trkpt>
      <trkpt lat="45.85624" lon="5.50713">
        <ele>890.39217647293</ele>
        <time>2020-05-28T06:31:50.000Z</time>
      </trkpt>
      <trkpt lat="45.85623" lon="5.50716">
        <ele>889.99097324841</ele>
        <time>2020-05-28T06:31:52.000Z</time>
      </trkpt>
      <trkpt lat="45.85621" lon="5.5072">
        <ele>889.58977002389</ele>
        <time>2020-05-28T06:31:54.000Z</time>
      </trkpt>
      <trkpt lat="45.8562" lon="5.50724">
        <ele>889.18856679937</ele>
        <time>2020-05-28T06:31:56.000Z</time>
      </trkpt>
      <trkpt lat="45.85619" lon="5.50727">
        <ele>888.89442281361</ele>
        <time>2020-05-28T06:31:58.000Z</time>
      </trkpt>
      <trkpt lat="45.85618" lon="5.5073">
        <ele>888.69521937239</ele>
        <time>2020-05-28T06:32:00.000Z</time>
      </trkpt>
      <trkpt lat="45.85617" lon="5.50733">
        <ele>888.49601593118</ele>
        <time>2020-05-28T06:32:02.000Z</time>
      </trkpt>
      <trkpt lat="45.85615" lon="5.50736">
        <ele>888.29681248996</ele>
        <time>2020-05-28T06:32:04.000Z</time>
      </trkpt>
      <trkpt lat="45.85614" lon="5.50738">
        <ele>888.09760904874</ele>
        <time>2020-05-28T06:32:06.000Z</time>
      </trkpt>
      <trkpt lat="45.85613" lon="5.50741">
        <ele>887.89758985049</ele>
        <time>2020-05-28T06:32:08.000Z</time>
      </trkpt>
      <trkpt lat="45.85611" lon="5.50744">
        <ele>887.6967868957</ele>
        <time>2020-05-28T06:32:10.000Z</time>
      </trkpt>
      <trkpt lat="45.8561" lon="5.50747">
        <ele>887.4959839409</ele>
        <time>2020-05-28T06:32:12.000Z</time>
      </trkpt>
      <trkpt lat="45.85609" lon="5.50749">
        <ele>887.29518098611</ele>
        <time>2020-05-28T06:32:14.000Z</time>
      </trkpt>
      <trkpt lat="45.85607" lon="5.50752">
        <ele>887.09437803132</ele>
        <time>2020-05-28T06:32:16.000Z</time>
      </trkpt>
      <trkpt lat="45.85606" lon="5.50755">
        <ele>887</ele>
        <time>2020-05-28T06:32:18.000Z</time>
      </trkpt>
      <trkpt lat="45.85604" lon="5.50757">
        <ele>887</ele>
        <time>2020-05-28T06:32:20.000Z</time>
      </trkpt>
      <trkpt lat="45.85603" lon="5.5076">
        <ele>887</ele>
        <time>2020-05-28T06:32:22.000Z</time>
      </trkpt>
      <trkpt lat="45.85601" lon="5.50763">
        <ele>887</ele>
        <time>2020-05-28T06:32:24.000Z</time>
      </trkpt>
      <trkpt lat="45.856" lon="5.50766">
        <ele>887</ele>
        <time>2020-05-28T06:32:26.000Z</time>
      </trkpt>
      <trkpt lat="45.85598" lon="5.50769">
        <ele>886.8969879563</ele>
        <time>2020-05-28T06:32:28.000Z</time>
      </trkpt>
      <trkpt lat="45.85597" lon="5.50771">
        <ele>886.70262443619</ele>
        <time>2020-05-28T06:32:30.000Z</time>
      </trkpt>
      <trkpt lat="45.85595" lon="5.50774">
        <ele>886.50826091608</ele>
        <time>2020-05-28T06:32:32.000Z</time>
      </trkpt>
      <trkpt lat="45.85594" lon="5.50777">
        <ele>886.31389739596</ele>
        <time>2020-05-28T06:32:34.000Z</time>
      </trkpt>
      <trkpt lat="45.85592" lon="5.5078">
        <ele>886.11953387585</ele>
        <time>2020-05-28T06:32:36.000Z</time>
      </trkpt>
      <trkpt lat="45.8559" lon="5.50784">
        <ele>885.92070066465</ele>
        <time>2020-05-28T06:32:38.000Z</time>
      </trkpt>
      <trkpt lat="45.85588" lon="5.50788">
        <ele>885.71472750905</ele>
        <time>2020-05-28T06:32:40.000Z</time>
      </trkpt>
      <trkpt lat="45.85586" lon="5.50791">
        <ele>885.50875435345</ele>
        <time>2020-05-28T06:32:42.000Z</time>
      </trkpt>
      <trkpt lat="45.85584" lon="5.50793">
        <ele>885.30278119785</ele>
        <time>2020-05-28T06:32:44.000Z</time>
      </trkpt>
      <trkpt lat="45.85582" lon="5.50796">
        <ele>885.09680804225</ele>
        <time>2020-05-28T06:32:46.000Z</time>
      </trkpt>
      <trkpt lat="45.85581" lon="5.50798">
        <ele>884.89505007211</ele>
        <time>2020-05-28T06:32:48.000Z</time>
      </trkpt>
      <trkpt lat="45.85579" lon="5.50802">
        <ele>884.69703014465</ele>
        <time>2020-05-28T06:32:50.000Z</time>
      </trkpt>
      <trkpt lat="45.85577" lon="5.50805">
        <ele>884.49901021719</ele>
        <time>2020-05-28T06:32:52.000Z</time>
      </trkpt>
      <trkpt lat="45.85575" lon="5.50808">
        <ele>884.30099028974</ele>
        <time>2020-05-28T06:32:54.000Z</time>
      </trkpt>
      <trkpt lat="45.85574" lon="5.5081">
        <ele>884.10297036228</ele>
        <time>2020-05-28T06:32:56.000Z</time>
      </trkpt>
      <trkpt lat="45.85572" lon="5.50813">
        <ele>883.90303036572</ele>
        <time>2020-05-28T06:32:58.000Z</time>
      </trkpt>
      <trkpt lat="45.8557" lon="5.50816">
        <ele>883.7010102943</ele>
        <time>2020-05-28T06:33:00.000Z</time>
      </trkpt>
      <trkpt lat="45.85568" lon="5.50819">
        <ele>883.49899022288</ele>
        <time>2020-05-28T06:33:02.000Z</time>
      </trkpt>
      <trkpt lat="45.85566" lon="5.50822">
        <ele>883.29697015145</ele>
        <time>2020-05-28T06:33:04.000Z</time>
      </trkpt>
      <trkpt lat="45.85565" lon="5.50824">
        <ele>883.09495008003</ele>
        <time>2020-05-28T06:33:06.000Z</time>
      </trkpt>
      <trkpt lat="45.85563" lon="5.50827">
        <ele>883</ele>
        <time>2020-05-28T06:33:08.000Z</time>
      </trkpt>
      <trkpt lat="45.85561" lon="5.5083">
        <ele>883</ele>
        <time>2020-05-28T06:33:10.000Z</time>
      </trkpt>
      <trkpt lat="45.8556" lon="5.50832">
        <ele>883</ele>
        <time>2020-05-28T06:33:12.000Z</time>
      </trkpt>
      <trkpt lat="45.85558" lon="5.50834">
        <ele>883</ele>
        <time>2020-05-28T06:33:14.000Z</time>
      </trkpt>
      <trkpt lat="45.85557" lon="5.50836">
        <ele>883</ele>
        <time>2020-05-28T06:33:16.000Z</time>
      </trkpt>
      <trkpt lat="45.85554" lon="5.50839">
        <ele>882.91047815732</ele>
        <time>2020-05-28T06:33:18.000Z</time>
      </trkpt>
      <trkpt lat="45.85553" lon="5.5084">
        <ele>882.70701942396</ele>
        <time>2020-05-28T06:33:20.000Z</time>
      </trkpt>
      <trkpt lat="45.85551" lon="5.50842">
        <ele>882.5035606906</ele>
        <time>2020-05-28T06:33:22.000Z</time>
      </trkpt>
      <trkpt lat="45.85548" lon="5.50844">
        <ele>882.30010195724</ele>
        <time>2020-05-28T06:33:24.000Z</time>
      </trkpt>
      <trkpt lat="45.85546" lon="5.50846">
        <ele>882.09664322388</ele>
        <time>2020-05-28T06:33:26.000Z</time>
      </trkpt>
      <trkpt lat="45.85543" lon="5.50847">
        <ele>882.10479016673</ele>
        <time>2020-05-28T06:33:28.000Z</time>
      </trkpt>
      <trkpt lat="45.85541" lon="5.50847">
        <ele>882.30439109262</ele>
        <time>2020-05-28T06:33:30.000Z</time>
      </trkpt>
      <trkpt lat="45.85539" lon="5.50848">
        <ele>882.60379248146</ele>
        <time>2020-05-28T06:33:33.000Z</time>
      </trkpt>
      <trkpt lat="45.85537" lon="5.50849">
        <ele>882.80339340736</ele>
        <time>2020-05-28T06:33:35.000Z</time>
      </trkpt>
      <trkpt lat="45.85535" lon="5.50849">
        <ele>883</ele>
        <time>2020-05-28T06:33:37.000Z</time>
      </trkpt>
      <trkpt lat="45.85533" lon="5.5085">
        <ele>883</ele>
        <time>2020-05-28T06:33:39.000Z</time>
      </trkpt>
      <trkpt lat="45.85531" lon="5.50852">
        <ele>883</ele>
        <time>2020-05-28T06:33:41.000Z</time>
      </trkpt>
      <trkpt lat="45.85529" lon="5.50853">
        <ele>883</ele>
        <time>2020-05-28T06:33:43.000Z</time>
      </trkpt>
      <trkpt lat="45.85526" lon="5.50854">
        <ele>883</ele>
        <time>2020-05-28T06:33:46.000Z</time>
      </trkpt>
      <trkpt lat="45.85524" lon="5.50856">
        <ele>883.21199872</ele>
        <time>2020-05-28T06:33:48.000Z</time>
      </trkpt>
      <trkpt lat="45.85521" lon="5.50857">
        <ele>883.61199872</ele>
        <time>2020-05-28T06:33:50.000Z</time>
      </trkpt>
      <trkpt lat="45.85519" lon="5.50859">
        <ele>884.01199872</ele>
        <time>2020-05-28T06:33:52.000Z</time>
      </trkpt>
      <trkpt lat="45.85517" lon="5.50861">
        <ele>884.41199872</ele>
        <time>2020-05-28T06:33:54.000Z</time>
      </trkpt>
      <trkpt lat="45.85515" lon="5.50861">
        <ele>884.81199872</ele>
        <time>2020-05-28T06:33:56.000Z</time>
      </trkpt>
      <trkpt lat="45.85512" lon="5.50862">
        <ele>885</ele>
        <time>2020-05-28T06:33:59.000Z</time>
      </trkpt>
      <trkpt lat="45.85511" lon="5.50863">
        <ele>885</ele>
        <time>2020-05-28T06:34:01.000Z</time>
      </trkpt>
      <trkpt lat="45.85509" lon="5.50864">
        <ele>885</ele>
        <time>2020-05-28T06:34:03.000Z</time>
      </trkpt>
      <trkpt lat="45.85507" lon="5.50865">
        <ele>885</ele>
        <time>2020-05-28T06:34:05.000Z</time>
      </trkpt>
      <trkpt lat="45.85505" lon="5.50866">
        <ele>885</ele>
        <time>2020-05-28T06:34:07.000Z</time>
      </trkpt>
      <trkpt lat="45.85503" lon="5.50867">
        <ele>885</ele>
        <time>2020-05-28T06:34:09.000Z</time>
      </trkpt>
      <trkpt lat="45.85501" lon="5.50868">
        <ele>885</ele>
        <time>2020-05-28T06:34:11.000Z</time>
      </trkpt>
      <trkpt lat="45.85499" lon="5.5087">
        <ele>885</ele>
        <time>2020-05-28T06:34:13.000Z</time>
      </trkpt>
      <trkpt lat="45.85496" lon="5.5087">
        <ele>885</ele>
        <time>2020-05-28T06:34:15.000Z</time>
      </trkpt>
      <trkpt lat="45.85495" lon="5.5087">
        <ele>885.00594584926</ele>
        <time>2020-05-28T06:34:17.000Z</time>
      </trkpt>
      <trkpt lat="45.85493" lon="5.50871">
        <ele>885.20416196762</ele>
        <time>2020-05-28T06:34:19.000Z</time>
      </trkpt>
      <trkpt lat="45.85491" lon="5.50871">
        <ele>885.40237808599</ele>
        <time>2020-05-28T06:34:21.000Z</time>
      </trkpt>
      <trkpt lat="45.85488" lon="5.5087">
        <ele>885.69970226353</ele>
        <time>2020-05-28T06:34:24.000Z</time>
      </trkpt>
      <trkpt lat="45.85486" lon="5.5087">
        <ele>885.8979183819</ele>
        <time>2020-05-28T06:34:26.000Z</time>
      </trkpt>
      <trkpt lat="45.85484" lon="5.5087">
        <ele>886.19878871482</ele>
        <time>2020-05-28T06:34:29.000Z</time>
      </trkpt>
      <trkpt lat="45.85482" lon="5.5087">
        <ele>886.40060499678</ele>
        <time>2020-05-28T06:34:31.000Z</time>
      </trkpt>
      <trkpt lat="45.8548" lon="5.50871">
        <ele>886.60242127873</ele>
        <time>2020-05-28T06:34:33.000Z</time>
      </trkpt>
      <trkpt lat="45.85478" lon="5.50871">
        <ele>886.80423756069</ele>
        <time>2020-05-28T06:34:35.000Z</time>
      </trkpt>
      <trkpt lat="45.85475" lon="5.50871">
        <ele>887.00597546579</ele>
        <time>2020-05-28T06:34:37.000Z</time>
      </trkpt>
      <trkpt lat="45.85473" lon="5.50871">
        <ele>887.205178907</ele>
        <time>2020-05-28T06:34:39.000Z</time>
      </trkpt>
      <trkpt lat="45.85471" lon="5.50871">
        <ele>887.40438234822</ele>
        <time>2020-05-28T06:34:41.000Z</time>
      </trkpt>
      <trkpt lat="45.85469" lon="5.50871">
        <ele>887.60358578943</ele>
        <time>2020-05-28T06:34:43.000Z</time>
      </trkpt>
      <trkpt lat="45.85467" lon="5.50871">
        <ele>887.80278923065</ele>
        <time>2020-05-28T06:34:45.000Z</time>
      </trkpt>
      <trkpt lat="45.85465" lon="5.5087">
        <ele>888.00200867212</ele>
        <time>2020-05-28T06:34:47.000Z</time>
      </trkpt>
      <trkpt lat="45.85462" lon="5.50871">
        <ele>888.20281162691</ele>
        <time>2020-05-28T06:34:49.000Z</time>
      </trkpt>
      <trkpt lat="45.85461" lon="5.5087">
        <ele>888.4036145817</ele>
        <time>2020-05-28T06:34:51.000Z</time>
      </trkpt>
      <trkpt lat="45.85459" lon="5.5087">
        <ele>888.60441753649</ele>
        <time>2020-05-28T06:34:53.000Z</time>
      </trkpt>
      <trkpt lat="45.85457" lon="5.5087">
        <ele>888.80522049128</ele>
        <time>2020-05-28T06:34:55.000Z</time>
      </trkpt>
      <trkpt lat="45.85455" lon="5.5087">
        <ele>889.00599936</ele>
        <time>2020-05-28T06:34:57.000Z</time>
      </trkpt>
      <trkpt lat="45.85453" lon="5.50869">
        <ele>889.20599936</ele>
        <time>2020-05-28T06:34:59.000Z</time>
      </trkpt>
      <trkpt lat="45.85451" lon="5.50869">
        <ele>889.40599936</ele>
        <time>2020-05-28T06:35:01.000Z</time>
      </trkpt>
      <trkpt lat="45.85449" lon="5.50868">
        <ele>889.60599936</ele>
        <time>2020-05-28T06:35:03.000Z</time>
      </trkpt>
      <trkpt lat="45.85447" lon="5.50868">
        <ele>889.80599936</ele>
        <time>2020-05-28T06:35:05.000Z</time>
      </trkpt>
      <trkpt lat="45.85445" lon="5.50868">
        <ele>890.01198793278</ele>
        <time>2020-05-28T06:35:07.000Z</time>
      </trkpt>
      <trkpt lat="45.85442" lon="5.50868">
        <ele>890.41162832037</ele>
        <time>2020-05-28T06:35:09.000Z</time>
      </trkpt>
      <trkpt lat="45.8544" lon="5.50869">
        <ele>890.81126870797</ele>
        <time>2020-05-28T06:35:11.000Z</time>
      </trkpt>
      <trkpt lat="45.85438" lon="5.5087">
        <ele>891.21090909556</ele>
        <time>2020-05-28T06:35:13.000Z</time>
      </trkpt>
      <trkpt lat="45.85436" lon="5.5087">
        <ele>891.61054948315</ele>
        <time>2020-05-28T06:35:15.000Z</time>
      </trkpt>
      <trkpt lat="45.85433" lon="5.5087">
        <ele>892.00510411288</ele>
        <time>2020-05-28T06:35:17.000Z</time>
      </trkpt>
      <trkpt lat="45.85431" lon="5.5087">
        <ele>892.20528424297</ele>
        <time>2020-05-28T06:35:19.000Z</time>
      </trkpt>
      <trkpt lat="45.85429" lon="5.5087">
        <ele>892.40546437306</ele>
        <time>2020-05-28T06:35:21.000Z</time>
      </trkpt>
      <trkpt lat="45.85426" lon="5.50871">
        <ele>892.60564450315</ele>
        <time>2020-05-28T06:35:23.000Z</time>
      </trkpt>
      <trkpt lat="45.85425" lon="5.50871">
        <ele>892.80582463324</ele>
        <time>2020-05-28T06:35:25.000Z</time>
      </trkpt>
      <trkpt lat="45.85422" lon="5.50872">
        <ele>893.00592822884</ele>
        <time>2020-05-28T06:35:27.000Z</time>
      </trkpt>
      <trkpt lat="45.8542" lon="5.50872">
        <ele>893.20355693731</ele>
        <time>2020-05-28T06:35:29.000Z</time>
      </trkpt>
      <trkpt lat="45.85418" lon="5.50873">
        <ele>893.40118564577</ele>
        <time>2020-05-28T06:35:31.000Z</time>
      </trkpt>
      <trkpt lat="45.85416" lon="5.50873">
        <ele>893.59881435423</ele>
        <time>2020-05-28T06:35:33.000Z</time>
      </trkpt>
      <trkpt lat="45.85413" lon="5.50874">
        <ele>893.79644306269</ele>
        <time>2020-05-28T06:35:35.000Z</time>
      </trkpt>
      <trkpt lat="45.85411" lon="5.50873">
        <ele>894</ele>
        <time>2020-05-28T06:35:38.000Z</time>
      </trkpt>
      <trkpt lat="45.85409" lon="5.50874">
        <ele>894</ele>
        <time>2020-05-28T06:35:40.000Z</time>
      </trkpt>
      <trkpt lat="45.85407" lon="5.50874">
        <ele>894</ele>
        <time>2020-05-28T06:35:42.000Z</time>
      </trkpt>
      <trkpt lat="45.85404" lon="5.50875">
        <ele>894</ele>
        <time>2020-05-28T06:35:44.000Z</time>
      </trkpt>
      <trkpt lat="45.85402" lon="5.50876">
        <ele>894</ele>
        <time>2020-05-28T06:35:46.000Z</time>
      </trkpt>
      <trkpt lat="45.854" lon="5.50877">
        <ele>894.18228591315</ele>
        <time>2020-05-28T06:35:49.000Z</time>
      </trkpt>
      <trkpt lat="45.85398" lon="5.50878">
        <ele>894.49124564655</ele>
        <time>2020-05-28T06:35:52.000Z</time>
      </trkpt>
      <trkpt lat="45.85391" lon="5.50878">
        <ele>895</ele>
        <time>2020-05-28T06:35:59.000Z</time>
      </trkpt>
      <trkpt lat="45.85381" lon="5.50879">
        <ele>895</ele>
        <time>2020-05-28T06:36:10.000Z</time>
      </trkpt>
      <trkpt lat="45.85378" lon="5.50881">
        <ele>895</ele>
        <time>2020-05-28T06:36:12.000Z</time>
      </trkpt>
      <trkpt lat="45.85376" lon="5.50882">
        <ele>895</ele>
        <time>2020-05-28T06:36:14.000Z</time>
      </trkpt>
      <trkpt lat="45.85373" lon="5.50882">
        <ele>895</ele>
        <time>2020-05-28T06:36:16.000Z</time>
      </trkpt>
      <trkpt lat="45.85371" lon="5.50884">
        <ele>895.200388732</ele>
        <time>2020-05-28T06:36:19.000Z</time>
      </trkpt>
      <trkpt lat="45.85369" lon="5.50885">
        <ele>895.39494150343</ele>
        <time>2020-05-28T06:36:21.000Z</time>
      </trkpt>
      <trkpt lat="45.85366" lon="5.50886">
        <ele>895.68677066057</ele>
        <time>2020-05-28T06:36:24.000Z</time>
      </trkpt>
      <trkpt lat="45.85364" lon="5.50887">
        <ele>895.881323432</ele>
        <time>2020-05-28T06:36:26.000Z</time>
      </trkpt>
      <trkpt lat="45.85361" lon="5.50889">
        <ele>896</ele>
        <time>2020-05-28T06:36:28.000Z</time>
      </trkpt>
      <trkpt lat="45.85359" lon="5.50889">
        <ele>896</ele>
        <time>2020-05-28T06:36:30.000Z</time>
      </trkpt>
      <trkpt lat="45.85356" lon="5.5089">
        <ele>896</ele>
        <time>2020-05-28T06:36:32.000Z</time>
      </trkpt>
      <trkpt lat="45.85354" lon="5.50891">
        <ele>896</ele>
        <time>2020-05-28T06:36:34.000Z</time>
      </trkpt>
      <trkpt lat="45.85352" lon="5.50892">
        <ele>896</ele>
        <time>2020-05-28T06:36:36.000Z</time>
      </trkpt>
      <trkpt lat="45.8535" lon="5.50893">
        <ele>896.09788057384</ele>
        <time>2020-05-28T06:36:38.000Z</time>
      </trkpt>
      <trkpt lat="45.85347" lon="5.50894">
        <ele>896.2996968558</ele>
        <time>2020-05-28T06:36:40.000Z</time>
      </trkpt>
      <trkpt lat="45.85344" lon="5.50895">
        <ele>896.50151313776</ele>
        <time>2020-05-28T06:36:42.000Z</time>
      </trkpt>
      <trkpt lat="45.85342" lon="5.50896">
        <ele>896.70332941971</ele>
        <time>2020-05-28T06:36:44.000Z</time>
      </trkpt>
      <trkpt lat="45.85339" lon="5.50897">
        <ele>896.90514570167</ele>
        <time>2020-05-28T06:36:46.000Z</time>
      </trkpt>
      <trkpt lat="45.85336" lon="5.50898">
        <ele>897</ele>
        <time>2020-05-28T06:36:48.000Z</time>
      </trkpt>
      <trkpt lat="45.85334" lon="5.50899">
        <ele>897</ele>
        <time>2020-05-28T06:36:50.000Z</time>
      </trkpt>
      <trkpt lat="45.85331" lon="5.50901">
        <ele>897</ele>
        <time>2020-05-28T06:36:53.000Z</time>
      </trkpt>
      <trkpt lat="45.85321" lon="5.50902">
        <ele>897.50049440205</ele>
        <time>2020-05-28T06:37:02.000Z</time>
      </trkpt>
      <trkpt lat="45.85312" lon="5.50904">
        <ele>898.09605685317</ele>
        <time>2020-05-28T06:37:08.000Z</time>
      </trkpt>
      <trkpt lat="45.85303" lon="5.50907">
        <ele>898.60161753534</ele>
        <time>2020-05-28T06:37:13.000Z</time>
      </trkpt>
      <trkpt lat="45.85299" lon="5.50909">
        <ele>898.90495394464</ele>
        <time>2020-05-28T06:37:16.000Z</time>
      </trkpt>
      <trkpt lat="45.85296" lon="5.5091">
        <ele>899.41199872</ele>
        <time>2020-05-28T06:37:19.000Z</time>
      </trkpt>
      <trkpt lat="45.85294" lon="5.50911">
        <ele>899.81199872</ele>
        <time>2020-05-28T06:37:21.000Z</time>
      </trkpt>
      <trkpt lat="45.85288" lon="5.50912">
        <ele>901.00599936</ele>
        <time>2020-05-28T06:37:27.000Z</time>
      </trkpt>
      <trkpt lat="45.85285" lon="5.50912">
        <ele>901.30599936</ele>
        <time>2020-05-28T06:37:30.000Z</time>
      </trkpt>
      <trkpt lat="45.85283" lon="5.50912">
        <ele>901.50599936</ele>
        <time>2020-05-28T06:37:32.000Z</time>
      </trkpt>
      <trkpt lat="45.85281" lon="5.50914">
        <ele>901.70599936</ele>
        <time>2020-05-28T06:37:34.000Z</time>
      </trkpt>
      <trkpt lat="45.85278" lon="5.50914">
        <ele>902</ele>
        <time>2020-05-28T06:37:38.000Z</time>
      </trkpt>
      <trkpt lat="45.85275" lon="5.50915">
        <ele>902</ele>
        <time>2020-05-28T06:37:41.000Z</time>
      </trkpt>
      <trkpt lat="45.85266" lon="5.50918">
        <ele>902.41199872</ele>
        <time>2020-05-28T06:37:49.000Z</time>
      </trkpt>
      <trkpt lat="45.85264" lon="5.50919">
        <ele>902.81199872</ele>
        <time>2020-05-28T06:37:51.000Z</time>
      </trkpt>
      <trkpt lat="45.85261" lon="5.50919">
        <ele>903.41199872</ele>
        <time>2020-05-28T06:37:54.000Z</time>
      </trkpt>
      <trkpt lat="45.85259" lon="5.5092">
        <ele>903.81199872</ele>
        <time>2020-05-28T06:37:56.000Z</time>
      </trkpt>
      <trkpt lat="45.8525" lon="5.50925">
        <ele>904</ele>
        <time>2020-05-28T06:38:06.000Z</time>
      </trkpt>
      <trkpt lat="45.85241" lon="5.50931">
        <ele>904.90239095126</ele>
        <time>2020-05-28T06:38:16.000Z</time>
      </trkpt>
      <trkpt lat="45.85233" lon="5.50936">
        <ele>906.07841113053</ele>
        <time>2020-05-28T06:38:28.000Z</time>
      </trkpt>
      <trkpt lat="45.85231" lon="5.50938">
        <ele>906.28207725105</ele>
        <time>2020-05-28T06:38:30.000Z</time>
      </trkpt>
      <trkpt lat="45.85229" lon="5.5094">
        <ele>906.48574337156</ele>
        <time>2020-05-28T06:38:32.000Z</time>
      </trkpt>
      <trkpt lat="45.85227" lon="5.50941">
        <ele>906.68940949208</ele>
        <time>2020-05-28T06:38:34.000Z</time>
      </trkpt>
      <trkpt lat="45.85219" lon="5.50951">
        <ele>906.69400064</ele>
        <time>2020-05-28T06:39:00.000Z</time>
      </trkpt>
      <trkpt lat="45.85212" lon="5.5096">
        <ele>906</ele>
        <time>2020-05-28T06:39:10.000Z</time>
      </trkpt>
      <trkpt lat="45.85204" lon="5.50966">
        <ele>906.30599936</ele>
        <time>2020-05-28T06:39:20.000Z</time>
      </trkpt>
      <trkpt lat="45.85197" lon="5.50976">
        <ele>907</ele>
        <time>2020-05-28T06:39:30.000Z</time>
      </trkpt>
      <trkpt lat="45.8519" lon="5.50987">
        <ele>907</ele>
        <time>2020-05-28T06:39:40.000Z</time>
      </trkpt>
      <trkpt lat="45.85184" lon="5.50997">
        <ele>907</ele>
        <time>2020-05-28T06:39:49.000Z</time>
      </trkpt>
      <trkpt lat="45.8518" lon="5.51001">
        <ele>907</ele>
        <time>2020-05-28T06:39:52.000Z</time>
      </trkpt>
      <trkpt lat="45.85178" lon="5.51003">
        <ele>907</ele>
        <time>2020-05-28T06:39:54.000Z</time>
      </trkpt>
      <trkpt lat="45.85175" lon="5.51005">
        <ele>907</ele>
        <time>2020-05-28T06:39:56.000Z</time>
      </trkpt>
      <trkpt lat="45.85172" lon="5.51008">
        <ele>906.89579164999</ele>
        <time>2020-05-28T06:39:58.000Z</time>
      </trkpt>
      <trkpt lat="45.8517" lon="5.5101">
        <ele>906.6953909769</ele>
        <time>2020-05-28T06:40:00.000Z</time>
      </trkpt>
      <trkpt lat="45.85168" lon="5.51012">
        <ele>906.49499030381</ele>
        <time>2020-05-28T06:40:02.000Z</time>
      </trkpt>
      <trkpt lat="45.85166" lon="5.51015">
        <ele>906.29458963072</ele>
        <time>2020-05-28T06:40:04.000Z</time>
      </trkpt>
      <trkpt lat="45.85163" lon="5.51017">
        <ele>906.09418895763</ele>
        <time>2020-05-28T06:40:06.000Z</time>
      </trkpt>
      <trkpt lat="45.85161" lon="5.5102">
        <ele>906</ele>
        <time>2020-05-28T06:40:08.000Z</time>
      </trkpt>
      <trkpt lat="45.85159" lon="5.51023">
        <ele>906</ele>
        <time>2020-05-28T06:40:10.000Z</time>
      </trkpt>
      <trkpt lat="45.85158" lon="5.51026">
        <ele>906</ele>
        <time>2020-05-28T06:40:12.000Z</time>
      </trkpt>
      <trkpt lat="45.85156" lon="5.51029">
        <ele>906</ele>
        <time>2020-05-28T06:40:14.000Z</time>
      </trkpt>
      <trkpt lat="45.85155" lon="5.51032">
        <ele>906</ele>
        <time>2020-05-28T06:40:16.000Z</time>
      </trkpt>
      <trkpt lat="45.85153" lon="5.51035">
        <ele>906.21199872</ele>
        <time>2020-05-28T06:40:18.000Z</time>
      </trkpt>
      <trkpt lat="45.85152" lon="5.51038">
        <ele>906.61199872</ele>
        <time>2020-05-28T06:40:20.000Z</time>
      </trkpt>
      <trkpt lat="45.85151" lon="5.51042">
        <ele>907.01199872</ele>
        <time>2020-05-28T06:40:22.000Z</time>
      </trkpt>
      <trkpt lat="45.8515" lon="5.51045">
        <ele>907.41199872</ele>
        <time>2020-05-28T06:40:24.000Z</time>
      </trkpt>
      <trkpt lat="45.85149" lon="5.51048">
        <ele>907.81199872</ele>
        <time>2020-05-28T06:40:26.000Z</time>
      </trkpt>
      <trkpt lat="45.85148" lon="5.51051">
        <ele>908</ele>
        <time>2020-05-28T06:40:28.000Z</time>
      </trkpt>
      <trkpt lat="45.85147" lon="5.51054">
        <ele>908</ele>
        <time>2020-05-28T06:40:30.000Z</time>
      </trkpt>
      <trkpt lat="45.85146" lon="5.51057">
        <ele>908</ele>
        <time>2020-05-28T06:40:32.000Z</time>
      </trkpt>
      <trkpt lat="45.85144" lon="5.51059">
        <ele>908</ele>
        <time>2020-05-28T06:40:34.000Z</time>
      </trkpt>
      <trkpt lat="45.85142" lon="5.51062">
        <ele>908</ele>
        <time>2020-05-28T06:40:36.000Z</time>
      </trkpt>
      <trkpt lat="45.8514" lon="5.51064">
        <ele>908.09422456925</ele>
        <time>2020-05-28T06:40:38.000Z</time>
      </trkpt>
      <trkpt lat="45.85138" lon="5.51067">
        <ele>908.29685874874</ele>
        <time>2020-05-28T06:40:40.000Z</time>
      </trkpt>
      <trkpt lat="45.85136" lon="5.51069">
        <ele>908.49949292823</ele>
        <time>2020-05-28T06:40:42.000Z</time>
      </trkpt>
      <trkpt lat="45.85135" lon="5.51072">
        <ele>908.70212710772</ele>
        <time>2020-05-28T06:40:44.000Z</time>
      </trkpt>
      <trkpt lat="45.85134" lon="5.51075">
        <ele>908.90476128721</ele>
        <time>2020-05-28T06:40:46.000Z</time>
      </trkpt>
      <trkpt lat="45.85132" lon="5.51077">
        <ele>909.10526262269</ele>
        <time>2020-05-28T06:40:48.000Z</time>
      </trkpt>
      <trkpt lat="45.8513" lon="5.51079">
        <ele>909.30387254391</ele>
        <time>2020-05-28T06:40:50.000Z</time>
      </trkpt>
      <trkpt lat="45.85128" lon="5.51082">
        <ele>909.50248246513</ele>
        <time>2020-05-28T06:40:52.000Z</time>
      </trkpt>
      <trkpt lat="45.85126" lon="5.51084">
        <ele>909.70109238634</ele>
        <time>2020-05-28T06:40:54.000Z</time>
      </trkpt>
      <trkpt lat="45.85124" lon="5.51086">
        <ele>909.89970230756</ele>
        <time>2020-05-28T06:40:56.000Z</time>
      </trkpt>
      <trkpt lat="45.85124" lon="5.51088">
        <ele>910</ele>
        <time>2020-05-28T06:40:58.000Z</time>
      </trkpt>
      <trkpt lat="45.85122" lon="5.51091">
        <ele>910</ele>
        <time>2020-05-28T06:41:00.000Z</time>
      </trkpt>
      <trkpt lat="45.8512" lon="5.51094">
        <ele>910</ele>
        <time>2020-05-28T06:41:02.000Z</time>
      </trkpt>
      <trkpt lat="45.85118" lon="5.51096">
        <ele>910</ele>
        <time>2020-05-28T06:41:04.000Z</time>
      </trkpt>
      <trkpt lat="45.85116" lon="5.51099">
        <ele>910</ele>
        <time>2020-05-28T06:41:06.000Z</time>
      </trkpt>
      <trkpt lat="45.85114" lon="5.51101">
        <ele>910.10474258307</ele>
        <time>2020-05-28T06:41:08.000Z</time>
      </trkpt>
      <trkpt lat="45.85113" lon="5.51104">
        <ele>910.30237129154</ele>
        <time>2020-05-28T06:41:10.000Z</time>
      </trkpt>
      <trkpt lat="45.8511" lon="5.51106">
        <ele>910.5</ele>
        <time>2020-05-28T06:41:12.000Z</time>
      </trkpt>
      <trkpt lat="45.85109" lon="5.51109">
        <ele>910.69762870846</ele>
        <time>2020-05-28T06:41:14.000Z</time>
      </trkpt>
      <trkpt lat="45.85108" lon="5.51111">
        <ele>910.89525741693</ele>
        <time>2020-05-28T06:41:16.000Z</time>
      </trkpt>
      <trkpt lat="45.85107" lon="5.51114">
        <ele>911.09514222492</ele>
        <time>2020-05-28T06:41:18.000Z</time>
      </trkpt>
      <trkpt lat="45.85106" lon="5.51117">
        <ele>911.29757111246</ele>
        <time>2020-05-28T06:41:20.000Z</time>
      </trkpt>
      <trkpt lat="45.85105" lon="5.5112">
        <ele>911.5</ele>
        <time>2020-05-28T06:41:22.000Z</time>
      </trkpt>
      <trkpt lat="45.85103" lon="5.51122">
        <ele>911.70242888754</ele>
        <time>2020-05-28T06:41:24.000Z</time>
      </trkpt>
      <trkpt lat="45.85102" lon="5.51124">
        <ele>911.90485777508</ele>
        <time>2020-05-28T06:41:26.000Z</time>
      </trkpt>
      <trkpt lat="45.851" lon="5.51127">
        <ele>912.10474258307</ele>
        <time>2020-05-28T06:41:28.000Z</time>
      </trkpt>
      <trkpt lat="45.85099" lon="5.5113">
        <ele>912.30237129154</ele>
        <time>2020-05-28T06:41:30.000Z</time>
      </trkpt>
      <trkpt lat="45.85097" lon="5.51133">
        <ele>912.5</ele>
        <time>2020-05-28T06:41:32.000Z</time>
      </trkpt>
      <trkpt lat="45.85097" lon="5.51136">
        <ele>912.69762870846</ele>
        <time>2020-05-28T06:41:34.000Z</time>
      </trkpt>
      <trkpt lat="45.85096" lon="5.5114">
        <ele>912.89525741693</ele>
        <time>2020-05-28T06:41:36.000Z</time>
      </trkpt>
      <trkpt lat="45.85094" lon="5.51143">
        <ele>913.09514222492</ele>
        <time>2020-05-28T06:41:38.000Z</time>
      </trkpt>
      <trkpt lat="45.85093" lon="5.51146">
        <ele>913.29757111246</ele>
        <time>2020-05-28T06:41:40.000Z</time>
      </trkpt>
      <trkpt lat="45.85092" lon="5.51149">
        <ele>913.5</ele>
        <time>2020-05-28T06:41:42.000Z</time>
      </trkpt>
      <trkpt lat="45.85091" lon="5.51151">
        <ele>913.70242888754</ele>
        <time>2020-05-28T06:41:44.000Z</time>
      </trkpt>
      <trkpt lat="45.8509" lon="5.51154">
        <ele>913.90485777508</ele>
        <time>2020-05-28T06:41:46.000Z</time>
      </trkpt>
      <trkpt lat="45.85089" lon="5.51157">
        <ele>914</ele>
        <time>2020-05-28T06:41:49.000Z</time>
      </trkpt>
      <trkpt lat="45.85086" lon="5.5116">
        <ele>914</ele>
        <time>2020-05-28T06:41:51.000Z</time>
      </trkpt>
      <trkpt lat="45.85085" lon="5.51163">
        <ele>914</ele>
        <time>2020-05-28T06:41:53.000Z</time>
      </trkpt>
      <trkpt lat="45.85083" lon="5.51166">
        <ele>914</ele>
        <time>2020-05-28T06:41:55.000Z</time>
      </trkpt>
      <trkpt lat="45.85082" lon="5.51169">
        <ele>914.00583596057</ele>
        <time>2020-05-28T06:41:57.000Z</time>
      </trkpt>
      <trkpt lat="45.8508" lon="5.51172">
        <ele>914.200388732</ele>
        <time>2020-05-28T06:41:59.000Z</time>
      </trkpt>
      <trkpt lat="45.8508" lon="5.51175">
        <ele>914.39494150343</ele>
        <time>2020-05-28T06:42:01.000Z</time>
      </trkpt>
      <trkpt lat="45.85078" lon="5.51178">
        <ele>914.58949427486</ele>
        <time>2020-05-28T06:42:03.000Z</time>
      </trkpt>
      <trkpt lat="45.85076" lon="5.51182">
        <ele>914.78404704628</ele>
        <time>2020-05-28T06:42:05.000Z</time>
      </trkpt>
      <trkpt lat="45.85075" lon="5.51185">
        <ele>914.97859981771</ele>
        <time>2020-05-28T06:42:07.000Z</time>
      </trkpt>
      <trkpt lat="45.85073" lon="5.51186">
        <ele>915</ele>
        <time>2020-05-28T06:42:09.000Z</time>
      </trkpt>
      <trkpt lat="45.85072" lon="5.51189">
        <ele>915</ele>
        <time>2020-05-28T06:42:17.000Z</time>
      </trkpt>
      <trkpt lat="45.85069" lon="5.51203">
        <ele>915.01199872</ele>
        <time>2020-05-28T06:42:27.000Z</time>
      </trkpt>
      <trkpt lat="45.85066" lon="5.51216">
        <ele>917.00599936</ele>
        <time>2020-05-28T06:42:37.000Z</time>
      </trkpt>
      <trkpt lat="45.85059" lon="5.51225">
        <ele>917.80599936</ele>
        <time>2020-05-28T06:42:45.000Z</time>
      </trkpt>
      <trkpt lat="45.85052" lon="5.51234">
        <ele>918.40599936</ele>
        <time>2020-05-28T06:42:51.000Z</time>
      </trkpt>
      <trkpt lat="45.85049" lon="5.51235">
        <ele>918.60599936</ele>
        <time>2020-05-28T06:42:53.000Z</time>
      </trkpt>
      <trkpt lat="45.85047" lon="5.51237">
        <ele>918.80599936</ele>
        <time>2020-05-28T06:42:55.000Z</time>
      </trkpt>
      <trkpt lat="45.85044" lon="5.51239">
        <ele>919</ele>
        <time>2020-05-28T06:42:57.000Z</time>
      </trkpt>
      <trkpt lat="45.85042" lon="5.5124">
        <ele>919</ele>
        <time>2020-05-28T06:42:59.000Z</time>
      </trkpt>
      <trkpt lat="45.85041" lon="5.51242">
        <ele>919</ele>
        <time>2020-05-28T06:43:01.000Z</time>
      </trkpt>
      <trkpt lat="45.85039" lon="5.51243">
        <ele>919</ele>
        <time>2020-05-28T06:43:03.000Z</time>
      </trkpt>
      <trkpt lat="45.85037" lon="5.51244">
        <ele>919</ele>
        <time>2020-05-28T06:43:05.000Z</time>
      </trkpt>
      <trkpt lat="45.85034" lon="5.51245">
        <ele>919</ele>
        <time>2020-05-28T06:43:07.000Z</time>
      </trkpt>
      <trkpt lat="45.85031" lon="5.51247">
        <ele>919.19878871482</ele>
        <time>2020-05-28T06:43:09.000Z</time>
      </trkpt>
      <trkpt lat="45.85029" lon="5.51247">
        <ele>919.40060499678</ele>
        <time>2020-05-28T06:43:11.000Z</time>
      </trkpt>
      <trkpt lat="45.85026" lon="5.51249">
        <ele>919.60242127873</ele>
        <time>2020-05-28T06:43:13.000Z</time>
      </trkpt>
      <trkpt lat="45.85024" lon="5.51249">
        <ele>919.80423756069</ele>
        <time>2020-05-28T06:43:15.000Z</time>
      </trkpt>
      <trkpt lat="45.85022" lon="5.5125">
        <ele>920.0059340907</ele>
        <time>2020-05-28T06:43:17.000Z</time>
      </trkpt>
      <trkpt lat="45.85019" lon="5.5125">
        <ele>920.20375821524</ele>
        <time>2020-05-28T06:43:19.000Z</time>
      </trkpt>
      <trkpt lat="45.85017" lon="5.51251">
        <ele>920.40158233978</ele>
        <time>2020-05-28T06:43:21.000Z</time>
      </trkpt>
      <trkpt lat="45.85015" lon="5.51252">
        <ele>920.59940646432</ele>
        <time>2020-05-28T06:43:23.000Z</time>
      </trkpt>
      <trkpt lat="45.85012" lon="5.51253">
        <ele>920.79723058886</ele>
        <time>2020-05-28T06:43:25.000Z</time>
      </trkpt>
      <trkpt lat="45.8501" lon="5.51254">
        <ele>920.99505471341</ele>
        <time>2020-05-28T06:43:27.000Z</time>
      </trkpt>
      <trkpt lat="45.85008" lon="5.51254">
        <ele>921.1971689896</ele>
        <time>2020-05-28T06:43:29.000Z</time>
      </trkpt>
      <trkpt lat="45.85005" lon="5.51255">
        <ele>921.39939326247</ele>
        <time>2020-05-28T06:43:31.000Z</time>
      </trkpt>
      <trkpt lat="45.85003" lon="5.51256">
        <ele>921.60161753534</ele>
        <time>2020-05-28T06:43:33.000Z</time>
      </trkpt>
      <trkpt lat="45.85001" lon="5.51256">
        <ele>921.8038418082</ele>
        <time>2020-05-28T06:43:35.000Z</time>
      </trkpt>
      <trkpt lat="45.84999" lon="5.51256">
        <ele>922</ele>
        <time>2020-05-28T06:43:37.000Z</time>
      </trkpt>
      <trkpt lat="45.84997" lon="5.51256">
        <ele>922</ele>
        <time>2020-05-28T06:43:39.000Z</time>
      </trkpt>
      <trkpt lat="45.84994" lon="5.51256">
        <ele>922</ele>
        <time>2020-05-28T06:43:41.000Z</time>
      </trkpt>
      <trkpt lat="45.84992" lon="5.51256">
        <ele>922</ele>
        <time>2020-05-28T06:43:43.000Z</time>
      </trkpt>
      <trkpt lat="45.84989" lon="5.51256">
        <ele>922</ele>
        <time>2020-05-28T06:43:45.000Z</time>
      </trkpt>
      <trkpt lat="45.84987" lon="5.51256">
        <ele>922.00300934515</ele>
        <time>2020-05-28T06:43:47.000Z</time>
      </trkpt>
      <trkpt lat="45.84985" lon="5.51254">
        <ele>922.20361095741</ele>
        <time>2020-05-28T06:43:49.000Z</time>
      </trkpt>
      <trkpt lat="45.84983" lon="5.51254">
        <ele>922.40421256966</ele>
        <time>2020-05-28T06:43:51.000Z</time>
      </trkpt>
      <trkpt lat="45.84981" lon="5.51253">
        <ele>922.60481418192</ele>
        <time>2020-05-28T06:43:53.000Z</time>
      </trkpt>
      <trkpt lat="45.84979" lon="5.51252">
        <ele>922.80541579418</ele>
        <time>2020-05-28T06:43:55.000Z</time>
      </trkpt>
      <trkpt lat="45.84978" lon="5.51254">
        <ele>923</ele>
        <time>2020-05-28T06:43:58.000Z</time>
      </trkpt>
      <trkpt lat="45.84977" lon="5.51257">
        <ele>924</ele>
        <time>2020-05-28T06:44:22.000Z</time>
      </trkpt>
      <trkpt lat="45.84978" lon="5.5126">
        <ele>924</ele>
        <time>2020-05-28T06:44:25.000Z</time>
      </trkpt>
      <trkpt lat="45.84979" lon="5.51263">
        <ele>923.89400064</ele>
        <time>2020-05-28T06:44:28.000Z</time>
      </trkpt>
      <trkpt lat="45.84981" lon="5.51264">
        <ele>923.59400064</ele>
        <time>2020-05-28T06:44:31.000Z</time>
      </trkpt>
      <trkpt lat="45.84983" lon="5.51267">
        <ele>923.29400064</ele>
        <time>2020-05-28T06:44:34.000Z</time>
      </trkpt>
      <trkpt lat="45.84984" lon="5.51269">
        <ele>923.09400064</ele>
        <time>2020-05-28T06:44:36.000Z</time>
      </trkpt>
      <trkpt lat="45.84985" lon="5.51272">
        <ele>923</ele>
        <time>2020-05-28T06:44:38.000Z</time>
      </trkpt>
      <trkpt lat="45.84986" lon="5.51274">
        <ele>923</ele>
        <time>2020-05-28T06:44:40.000Z</time>
      </trkpt>
      <trkpt lat="45.84987" lon="5.51277">
        <ele>923</ele>
        <time>2020-05-28T06:44:42.000Z</time>
      </trkpt>
      <trkpt lat="45.84989" lon="5.51279">
        <ele>923</ele>
        <time>2020-05-28T06:44:44.000Z</time>
      </trkpt>
      <trkpt lat="45.84989" lon="5.51282">
        <ele>923</ele>
        <time>2020-05-28T06:44:46.000Z</time>
      </trkpt>
      <trkpt lat="45.8499" lon="5.51285">
        <ele>923.40711387461</ele>
        <time>2020-05-28T06:44:49.000Z</time>
      </trkpt>
      <trkpt lat="45.8499" lon="5.51287">
        <ele>924</ele>
        <time>2020-05-28T06:44:52.000Z</time>
      </trkpt>
      <trkpt lat="45.84991" lon="5.5129">
        <ele>924.59288612539</ele>
        <time>2020-05-28T06:44:55.000Z</time>
      </trkpt>
      <trkpt lat="45.84992" lon="5.51293">
        <ele>925.19028444983</ele>
        <time>2020-05-28T06:44:58.000Z</time>
      </trkpt>
      <trkpt lat="45.84992" lon="5.51296">
        <ele>925.79757111246</ele>
        <time>2020-05-28T06:45:01.000Z</time>
      </trkpt>
      <trkpt lat="45.84993" lon="5.51299">
        <ele>926.60728666263</ele>
        <time>2020-05-28T06:45:05.000Z</time>
      </trkpt>
      <trkpt lat="45.84994" lon="5.51302">
        <ele>927.19961178295</ele>
        <time>2020-05-28T06:45:09.000Z</time>
      </trkpt>
      <trkpt lat="45.84995" lon="5.51305">
        <ele>927.49030945736</ele>
        <time>2020-05-28T06:45:12.000Z</time>
      </trkpt>
      <trkpt lat="45.84996" lon="5.51308">
        <ele>927.78100713178</ele>
        <time>2020-05-28T06:45:15.000Z</time>
      </trkpt>
      <trkpt lat="45.84997" lon="5.51311">
        <ele>928.07644561983</ele>
        <time>2020-05-28T06:45:18.000Z</time>
      </trkpt>
      <trkpt lat="45.84997" lon="5.51314">
        <ele>928.38636297521</ele>
        <time>2020-05-28T06:45:21.000Z</time>
      </trkpt>
      <trkpt lat="45.84998" lon="5.51317">
        <ele>928.69628033058</ele>
        <time>2020-05-28T06:45:24.000Z</time>
      </trkpt>
      <trkpt lat="45.84999" lon="5.51319">
        <ele>929.21199872</ele>
        <time>2020-05-28T06:45:28.000Z</time>
      </trkpt>
      <trkpt lat="45.85" lon="5.51323">
        <ele>929.81199872</ele>
        <time>2020-05-28T06:45:31.000Z</time>
      </trkpt>
      <trkpt lat="45.85001" lon="5.51326">
        <ele>930.41199872</ele>
        <time>2020-05-28T06:45:34.000Z</time>
      </trkpt>
      <trkpt lat="45.85002" lon="5.51328">
        <ele>931.00599936</ele>
        <time>2020-05-28T06:45:37.000Z</time>
      </trkpt>
      <trkpt lat="45.85003" lon="5.51331">
        <ele>931.30599936</ele>
        <time>2020-05-28T06:45:40.000Z</time>
      </trkpt>
      <trkpt lat="45.85004" lon="5.51334">
        <ele>931.60599936</ele>
        <time>2020-05-28T06:45:43.000Z</time>
      </trkpt>
      <trkpt lat="45.85005" lon="5.51337">
        <ele>931.90599936</ele>
        <time>2020-05-28T06:45:46.000Z</time>
      </trkpt>
      <trkpt lat="45.85006" lon="5.5134">
        <ele>932.40471412477</ele>
        <time>2020-05-28T06:45:49.000Z</time>
      </trkpt>
      <trkpt lat="45.85006" lon="5.51343">
        <ele>932.99410545798</ele>
        <time>2020-05-28T06:45:52.000Z</time>
      </trkpt>
      <trkpt lat="45.85007" lon="5.51346">
        <ele>933.5834967912</ele>
        <time>2020-05-28T06:45:55.000Z</time>
      </trkpt>
      <trkpt lat="45.85008" lon="5.51349">
        <ele>934.17904368536</ele>
        <time>2020-05-28T06:45:58.000Z</time>
      </trkpt>
      <trkpt lat="45.85008" lon="5.51353">
        <ele>934.78941988544</ele>
        <time>2020-05-28T06:46:01.000Z</time>
      </trkpt>
      <trkpt lat="45.85009" lon="5.51356">
        <ele>935.39979608552</ele>
        <time>2020-05-28T06:46:04.000Z</time>
      </trkpt>
      <trkpt lat="45.85009" lon="5.51359">
        <ele>936.01000936616</ele>
        <time>2020-05-28T06:46:07.000Z</time>
      </trkpt>
      <trkpt lat="45.8501" lon="5.51362">
        <ele>936.61060977438</ele>
        <time>2020-05-28T06:46:10.000Z</time>
      </trkpt>
      <trkpt lat="45.85011" lon="5.51366">
        <ele>937.21121018259</ele>
        <time>2020-05-28T06:46:13.000Z</time>
      </trkpt>
      <trkpt lat="45.85011" lon="5.51369">
        <ele>937.81181059081</ele>
        <time>2020-05-28T06:46:16.000Z</time>
      </trkpt>
      <trkpt lat="45.85012" lon="5.51372">
        <ele>938</ele>
        <time>2020-05-28T06:46:19.000Z</time>
      </trkpt>
      <trkpt lat="45.85012" lon="5.51375">
        <ele>938</ele>
        <time>2020-05-28T06:46:21.000Z</time>
      </trkpt>
      <trkpt lat="45.85013" lon="5.51378">
        <ele>938</ele>
        <time>2020-05-28T06:46:23.000Z</time>
      </trkpt>
      <trkpt lat="45.85014" lon="5.51381">
        <ele>938</ele>
        <time>2020-05-28T06:46:26.000Z</time>
      </trkpt>
      <trkpt lat="45.85015" lon="5.51384">
        <ele>938.41199872</ele>
        <time>2020-05-28T06:46:29.000Z</time>
      </trkpt>
      <trkpt lat="45.85015" lon="5.51388">
        <ele>939.01199872</ele>
        <time>2020-05-28T06:46:32.000Z</time>
      </trkpt>
      <trkpt lat="45.85016" lon="5.51391">
        <ele>939.41199872</ele>
        <time>2020-05-28T06:46:34.000Z</time>
      </trkpt>
      <trkpt lat="45.85016" lon="5.51395">
        <ele>940</ele>
        <time>2020-05-28T06:46:37.000Z</time>
      </trkpt>
      <trkpt lat="45.85017" lon="5.51397">
        <ele>940</ele>
        <time>2020-05-28T06:46:39.000Z</time>
      </trkpt>
      <trkpt lat="45.85017" lon="5.51401">
        <ele>940</ele>
        <time>2020-05-28T06:46:42.000Z</time>
      </trkpt>
      <trkpt lat="45.85018" lon="5.51403">
        <ele>940</ele>
        <time>2020-05-28T06:46:44.000Z</time>
      </trkpt>
      <trkpt lat="45.85019" lon="5.51407">
        <ele>940.00599936</ele>
        <time>2020-05-28T06:46:47.000Z</time>
      </trkpt>
      <trkpt lat="45.8502" lon="5.5141">
        <ele>940.30599936</ele>
        <time>2020-05-28T06:46:50.000Z</time>
      </trkpt>
      <trkpt lat="45.8502" lon="5.51414">
        <ele>940.60599936</ele>
        <time>2020-05-28T06:46:53.000Z</time>
      </trkpt>
      <trkpt lat="45.85021" lon="5.51417">
        <ele>940.90599936</ele>
        <time>2020-05-28T06:46:56.000Z</time>
      </trkpt>
      <trkpt lat="45.85022" lon="5.51421">
        <ele>941.61799808</ele>
        <time>2020-05-28T06:46:59.000Z</time>
      </trkpt>
      <trkpt lat="45.85022" lon="5.51423">
        <ele>942.21799808</ele>
        <time>2020-05-28T06:47:01.000Z</time>
      </trkpt>
      <trkpt lat="45.85023" lon="5.51426">
        <ele>942.81799808</ele>
        <time>2020-05-28T06:47:03.000Z</time>
      </trkpt>
      <trkpt lat="45.85023" lon="5.51429">
        <ele>943.41799808</ele>
        <time>2020-05-28T06:47:05.000Z</time>
      </trkpt>
      <trkpt lat="45.85024" lon="5.51432">
        <ele>944.00599936</ele>
        <time>2020-05-28T06:47:07.000Z</time>
      </trkpt>
      <trkpt lat="45.85025" lon="5.51434">
        <ele>944.20599936</ele>
        <time>2020-05-28T06:47:09.000Z</time>
      </trkpt>
      <trkpt lat="45.85026" lon="5.51437">
        <ele>944.50599936</ele>
        <time>2020-05-28T06:47:12.000Z</time>
      </trkpt>
      <trkpt lat="45.85027" lon="5.51439">
        <ele>944.90599936</ele>
        <time>2020-05-28T06:47:16.000Z</time>
      </trkpt>
      <trkpt lat="45.85028" lon="5.51442">
        <ele>945.20335579968</ele>
        <time>2020-05-28T06:47:19.000Z</time>
      </trkpt>
      <trkpt lat="45.85029" lon="5.51445">
        <ele>945.69693937119</ele>
        <time>2020-05-28T06:47:24.000Z</time>
      </trkpt>
      <trkpt lat="45.85029" lon="5.51448">
        <ele>945.99308951411</ele>
        <time>2020-05-28T06:47:27.000Z</time>
      </trkpt>
      <trkpt lat="45.85029" lon="5.51452">
        <ele>946.59371749748</ele>
        <time>2020-05-28T06:47:30.000Z</time>
      </trkpt>
      <trkpt lat="45.8503" lon="5.51454">
        <ele>947.40425421544</ele>
        <time>2020-05-28T06:47:34.000Z</time>
      </trkpt>
      <trkpt lat="45.85032" lon="5.51456">
        <ele>948.10599936</ele>
        <time>2020-05-28T06:47:38.000Z</time>
      </trkpt>
      <trkpt lat="45.85032" lon="5.5146">
        <ele>948.40599936</ele>
        <time>2020-05-28T06:47:41.000Z</time>
      </trkpt>
      <trkpt lat="45.85031" lon="5.51463">
        <ele>948.70599936</ele>
        <time>2020-05-28T06:47:44.000Z</time>
      </trkpt>
      <trkpt lat="45.85031" lon="5.51466">
        <ele>949.21199872</ele>
        <time>2020-05-28T06:47:48.000Z</time>
      </trkpt>
      <trkpt lat="45.85032" lon="5.51469">
        <ele>950.01199872</ele>
        <time>2020-05-28T06:47:52.000Z</time>
      </trkpt>
      <trkpt lat="45.85033" lon="5.51472">
        <ele>950.61199872</ele>
        <time>2020-05-28T06:47:55.000Z</time>
      </trkpt>
      <trkpt lat="45.85034" lon="5.51474">
        <ele>951.211575704</ele>
        <time>2020-05-28T06:47:58.000Z</time>
      </trkpt>
      <trkpt lat="45.85035" lon="5.51477">
        <ele>953</ele>
        <time>2020-05-28T06:48:11.000Z</time>
      </trkpt>
      <trkpt lat="45.85036" lon="5.51479">
        <ele>953</ele>
        <time>2020-05-28T06:48:15.000Z</time>
      </trkpt>
      <trkpt lat="45.85038" lon="5.51481">
        <ele>953.38823452641</ele>
        <time>2020-05-28T06:48:19.000Z</time>
      </trkpt>
      <trkpt lat="45.85039" lon="5.51483">
        <ele>953.97647055871</ele>
        <time>2020-05-28T06:48:22.000Z</time>
      </trkpt>
      <trkpt lat="45.85039" lon="5.51487">
        <ele>954.564706591</ele>
        <time>2020-05-28T06:48:25.000Z</time>
      </trkpt>
      <trkpt lat="45.8504" lon="5.51489">
        <ele>955.16049493268</ele>
        <time>2020-05-28T06:48:28.000Z</time>
      </trkpt>
      <trkpt lat="45.8504" lon="5.51492">
        <ele>955.77777807042</ele>
        <time>2020-05-28T06:48:31.000Z</time>
      </trkpt>
      <trkpt lat="45.85041" lon="5.51495">
        <ele>956.18930016224</ele>
        <time>2020-05-28T06:48:33.000Z</time>
      </trkpt>
      <trkpt lat="45.8504" lon="5.51498">
        <ele>956.80658329997</ele>
        <time>2020-05-28T06:48:36.000Z</time>
      </trkpt>
      <trkpt lat="45.85041" lon="5.515">
        <ele>957.20395989162</ele>
        <time>2020-05-28T06:48:39.000Z</time>
      </trkpt>
      <trkpt lat="45.85041" lon="5.51503">
        <ele>957.59999974653</ele>
        <time>2020-05-28T06:48:43.000Z</time>
      </trkpt>
      <trkpt lat="45.85042" lon="5.51506">
        <ele>958.09696963428</ele>
        <time>2020-05-28T06:48:48.000Z</time>
      </trkpt>
      <trkpt lat="45.85043" lon="5.51508">
        <ele>958.39999974141</ele>
        <time>2020-05-28T06:48:51.000Z</time>
      </trkpt>
      <trkpt lat="45.85044" lon="5.51511">
        <ele>958.70302984855</ele>
        <time>2020-05-28T06:48:54.000Z</time>
      </trkpt>
      <trkpt lat="45.85045" lon="5.51514">
        <ele>959.01169466616</ele>
        <time>2020-05-28T06:48:57.000Z</time>
      </trkpt>
      <trkpt lat="45.85046" lon="5.51516">
        <ele>959.79142224806</ele>
        <time>2020-05-28T06:49:01.000Z</time>
      </trkpt>
      <trkpt lat="45.85047" lon="5.51518">
        <ele>960.57114982996</ele>
        <time>2020-05-28T06:49:05.000Z</time>
      </trkpt>
      <trkpt lat="45.85047" lon="5.51521">
        <ele>961.1630989319</ele>
        <time>2020-05-28T06:49:08.000Z</time>
      </trkpt>
      <trkpt lat="45.85048" lon="5.51524">
        <ele>961.77471992651</ele>
        <time>2020-05-28T06:49:11.000Z</time>
      </trkpt>
      <trkpt lat="45.85049" lon="5.51527">
        <ele>962.38634092113</ele>
        <time>2020-05-28T06:49:14.000Z</time>
      </trkpt>
      <trkpt lat="45.85049" lon="5.51529">
        <ele>962.99796191575</ele>
        <time>2020-05-28T06:49:17.000Z</time>
      </trkpt>
      <trkpt lat="45.8505" lon="5.51532">
        <ele>964.19600128</ele>
        <time>2020-05-28T06:49:20.000Z</time>
      </trkpt>
      <trkpt lat="45.8505" lon="5.51535">
        <ele>965.39600128</ele>
        <time>2020-05-28T06:49:23.000Z</time>
      </trkpt>
      <trkpt lat="45.85051" lon="5.51537">
        <ele>966.99600128</ele>
        <time>2020-05-28T06:49:27.000Z</time>
      </trkpt>
      <trkpt lat="45.85051" lon="5.5154">
        <ele>967</ele>
        <time>2020-05-28T06:49:31.000Z</time>
      </trkpt>
      <trkpt lat="45.85051" lon="5.51543">
        <ele>967</ele>
        <time>2020-05-28T06:49:35.000Z</time>
      </trkpt>
      <trkpt lat="45.85051" lon="5.51546">
        <ele>967.10526262269</ele>
        <time>2020-05-28T06:49:38.000Z</time>
      </trkpt>
      <trkpt lat="45.85052" lon="5.51548">
        <ele>967.60178742574</ele>
        <time>2020-05-28T06:49:43.000Z</time>
      </trkpt>
      <trkpt lat="45.85053" lon="5.51551">
        <ele>967.99900726817</ele>
        <time>2020-05-28T06:49:47.000Z</time>
      </trkpt>
      <trkpt lat="45.85053" lon="5.51554">
        <ele>968.40181262262</ele>
        <time>2020-05-28T06:49:51.000Z</time>
      </trkpt>
      <trkpt lat="45.85053" lon="5.51557">
        <ele>968.80463197135</ele>
        <time>2020-05-28T06:49:55.000Z</time>
      </trkpt>
      <trkpt lat="45.85053" lon="5.51559">
        <ele>969.82399744</ele>
        <time>2020-05-28T06:49:59.000Z</time>
      </trkpt>
      <trkpt lat="45.85053" lon="5.51563">
        <ele>971.42399744</ele>
        <time>2020-05-28T06:50:03.000Z</time>
      </trkpt>
      <trkpt lat="45.85054" lon="5.51565">
        <ele>972.62399744</ele>
        <time>2020-05-28T06:50:06.000Z</time>
      </trkpt>
      <trkpt lat="45.85054" lon="5.51568">
        <ele>973</ele>
        <time>2020-05-28T06:50:09.000Z</time>
      </trkpt>
      <trkpt lat="45.85055" lon="5.51571">
        <ele>973</ele>
        <time>2020-05-28T06:50:12.000Z</time>
      </trkpt>
      <trkpt lat="45.85056" lon="5.51573">
        <ele>973</ele>
        <time>2020-05-28T06:50:16.000Z</time>
      </trkpt>
      <trkpt lat="45.85058" lon="5.51575">
        <ele>973.20538340695</ele>
        <time>2020-05-28T06:50:19.000Z</time>
      </trkpt>
      <trkpt lat="45.85058" lon="5.51578">
        <ele>973.60418737789</ele>
        <time>2020-05-28T06:50:23.000Z</time>
      </trkpt>
      <trkpt lat="45.85057" lon="5.51581">
        <ele>974.00601869029</ele>
        <time>2020-05-28T06:50:27.000Z</time>
      </trkpt>
      <trkpt lat="45.85057" lon="5.51583">
        <ele>975.20962836385</ele>
        <time>2020-05-28T06:50:33.000Z</time>
      </trkpt>
      <trkpt lat="45.85056" lon="5.51586">
        <ele>976</ele>
        <time>2020-05-28T06:50:45.000Z</time>
      </trkpt>
      <trkpt lat="45.85055" lon="5.51589">
        <ele>976</ele>
        <time>2020-05-28T06:50:48.000Z</time>
      </trkpt>
      <trkpt lat="45.85057" lon="5.51591">
        <ele>976</ele>
        <time>2020-05-28T06:50:56.000Z</time>
      </trkpt>
      <trkpt lat="45.85055" lon="5.51591">
        <ele>976</ele>
        <time>2020-05-28T06:51:45.000Z</time>
      </trkpt>
      <trkpt lat="45.85053" lon="5.51591">
        <ele>975</ele>
        <time>2020-05-28T06:51:59.000Z</time>
      </trkpt>
      <trkpt lat="45.85052" lon="5.51594">
        <ele>976</ele>
        <time>2020-05-28T06:53:04.000Z</time>
      </trkpt>
      <trkpt lat="45.85052" lon="5.51597">
        <ele>976</ele>
        <time>2020-05-28T06:53:16.000Z</time>
      </trkpt>
      <trkpt lat="45.85051" lon="5.516">
        <ele>976</ele>
        <time>2020-05-28T06:53:19.000Z</time>
      </trkpt>
      <trkpt lat="45.85049" lon="5.51603">
        <ele>976</ele>
        <time>2020-05-28T06:53:22.000Z</time>
      </trkpt>
      <trkpt lat="45.85048" lon="5.51607">
        <ele>976</ele>
        <time>2020-05-28T06:53:25.000Z</time>
      </trkpt>
      <trkpt lat="45.85047" lon="5.51609">
        <ele>976</ele>
        <time>2020-05-28T06:53:27.000Z</time>
      </trkpt>
      <trkpt lat="45.85047" lon="5.51612">
        <ele>976</ele>
        <time>2020-05-28T06:53:29.000Z</time>
      </trkpt>
      <trkpt lat="45.85046" lon="5.51615">
        <ele>976</ele>
        <time>2020-05-28T06:53:31.000Z</time>
      </trkpt>
      <trkpt lat="45.85045" lon="5.51618">
        <ele>976</ele>
        <time>2020-05-28T06:53:33.000Z</time>
      </trkpt>
      <trkpt lat="45.85045" lon="5.51622">
        <ele>976</ele>
        <time>2020-05-28T06:53:36.000Z</time>
      </trkpt>
      <trkpt lat="45.85044" lon="5.51624">
        <ele>975.79051483385</ele>
        <time>2020-05-28T06:53:38.000Z</time>
      </trkpt>
      <trkpt lat="45.85044" lon="5.51627">
        <ele>975.39525741693</ele>
        <time>2020-05-28T06:53:40.000Z</time>
      </trkpt>
      <trkpt lat="45.85043" lon="5.5163">
        <ele>975</ele>
        <time>2020-05-28T06:53:42.000Z</time>
      </trkpt>
      <trkpt lat="45.85042" lon="5.51633">
        <ele>974.60474258307</ele>
        <time>2020-05-28T06:53:44.000Z</time>
      </trkpt>
      <trkpt lat="45.85042" lon="5.51636">
        <ele>974.20948516615</ele>
        <time>2020-05-28T06:53:46.000Z</time>
      </trkpt>
      <trkpt lat="45.8504" lon="5.51638">
        <ele>973.90504991997</ele>
        <time>2020-05-28T06:53:48.000Z</time>
      </trkpt>
      <trkpt lat="45.85039" lon="5.5164">
        <ele>973.70302984855</ele>
        <time>2020-05-28T06:53:50.000Z</time>
      </trkpt>
      <trkpt lat="45.85037" lon="5.51643">
        <ele>973.50100977712</ele>
        <time>2020-05-28T06:53:52.000Z</time>
      </trkpt>
      <trkpt lat="45.85035" lon="5.51645">
        <ele>973.2989897057</ele>
        <time>2020-05-28T06:53:54.000Z</time>
      </trkpt>
      <trkpt lat="45.85033" lon="5.51647">
        <ele>973.09696963428</ele>
        <time>2020-05-28T06:53:56.000Z</time>
      </trkpt>
      <trkpt lat="45.85032" lon="5.5165">
        <ele>973</ele>
        <time>2020-05-28T06:53:58.000Z</time>
      </trkpt>
      <trkpt lat="45.85031" lon="5.51653">
        <ele>973</ele>
        <time>2020-05-28T06:54:00.000Z</time>
      </trkpt>
      <trkpt lat="45.85029" lon="5.51656">
        <ele>973</ele>
        <time>2020-05-28T06:54:02.000Z</time>
      </trkpt>
      <trkpt lat="45.85028" lon="5.51658">
        <ele>973</ele>
        <time>2020-05-28T06:54:04.000Z</time>
      </trkpt>
      <trkpt lat="45.85026" lon="5.5166">
        <ele>973</ele>
        <time>2020-05-28T06:54:06.000Z</time>
      </trkpt>
      <trkpt lat="45.85025" lon="5.51663">
        <ele>973</ele>
        <time>2020-05-28T06:54:08.000Z</time>
      </trkpt>
      <trkpt lat="45.85024" lon="5.51666">
        <ele>973</ele>
        <time>2020-05-28T06:54:10.000Z</time>
      </trkpt>
      <trkpt lat="45.85022" lon="5.51669">
        <ele>973</ele>
        <time>2020-05-28T06:54:12.000Z</time>
      </trkpt>
      <trkpt lat="45.85021" lon="5.51672">
        <ele>973</ele>
        <time>2020-05-28T06:54:14.000Z</time>
      </trkpt>
      <trkpt lat="45.85019" lon="5.51675">
        <ele>973</ele>
        <time>2020-05-28T06:54:16.000Z</time>
      </trkpt>
      <trkpt lat="45.85018" lon="5.51677">
        <ele>973.21136482842</ele>
        <time>2020-05-28T06:54:18.000Z</time>
      </trkpt>
      <trkpt lat="45.85016" lon="5.5168">
        <ele>973.61016879936</ele>
        <time>2020-05-28T06:54:20.000Z</time>
      </trkpt>
      <trkpt lat="45.85015" lon="5.51682">
        <ele>974.0089727703</ele>
        <time>2020-05-28T06:54:22.000Z</time>
      </trkpt>
      <trkpt lat="45.85013" lon="5.51684">
        <ele>974.40777674124</ele>
        <time>2020-05-28T06:54:24.000Z</time>
      </trkpt>
      <trkpt lat="45.85012" lon="5.51687">
        <ele>974.80658071218</ele>
        <time>2020-05-28T06:54:26.000Z</time>
      </trkpt>
      <trkpt lat="45.85011" lon="5.5169">
        <ele>975</ele>
        <time>2020-05-28T06:54:28.000Z</time>
      </trkpt>
      <trkpt lat="45.8501" lon="5.51693">
        <ele>975</ele>
        <time>2020-05-28T06:54:30.000Z</time>
      </trkpt>
      <trkpt lat="45.85008" lon="5.51696">
        <ele>975</ele>
        <time>2020-05-28T06:54:32.000Z</time>
      </trkpt>
      <trkpt lat="45.85007" lon="5.51698">
        <ele>975</ele>
        <time>2020-05-28T06:54:34.000Z</time>
      </trkpt>
      <trkpt lat="45.85005" lon="5.51701">
        <ele>975</ele>
        <time>2020-05-28T06:54:36.000Z</time>
      </trkpt>
      <trkpt lat="45.85004" lon="5.51704">
        <ele>975</ele>
        <time>2020-05-28T06:54:38.000Z</time>
      </trkpt>
      <trkpt lat="45.85002" lon="5.51706">
        <ele>975</ele>
        <time>2020-05-28T06:54:40.000Z</time>
      </trkpt>
      <trkpt lat="45.85001" lon="5.51709">
        <ele>975</ele>
        <time>2020-05-28T06:54:43.000Z</time>
      </trkpt>
      <trkpt lat="45.84999" lon="5.51711">
        <ele>975</ele>
        <time>2020-05-28T06:54:45.000Z</time>
      </trkpt>
      <trkpt lat="45.84997" lon="5.51714">
        <ele>975</ele>
        <time>2020-05-28T06:54:47.000Z</time>
      </trkpt>
      <trkpt lat="45.84996" lon="5.51716">
        <ele>975.172916</ele>
        <time>2020-05-28T06:54:49.000Z</time>
      </trkpt>
      <trkpt lat="45.84995" lon="5.51718">
        <ele>975.38124933333</ele>
        <time>2020-05-28T06:54:51.000Z</time>
      </trkpt>
      <trkpt lat="45.84993" lon="5.51721">
        <ele>975.69374933333</ele>
        <time>2020-05-28T06:54:54.000Z</time>
      </trkpt>
      <trkpt lat="45.84992" lon="5.51723">
        <ele>975.90208266667</ele>
        <time>2020-05-28T06:54:56.000Z</time>
      </trkpt>
      <trkpt lat="45.84991" lon="5.51725">
        <ele>976.10381919023</ele>
        <time>2020-05-28T06:54:58.000Z</time>
      </trkpt>
      <trkpt lat="45.84989" lon="5.51728">
        <ele>976.29970563752</ele>
        <time>2020-05-28T06:55:00.000Z</time>
      </trkpt>
      <trkpt lat="45.84988" lon="5.5173">
        <ele>976.49559208481</ele>
        <time>2020-05-28T06:55:02.000Z</time>
      </trkpt>
      <trkpt lat="45.84987" lon="5.51733">
        <ele>976.6914785321</ele>
        <time>2020-05-28T06:55:04.000Z</time>
      </trkpt>
      <trkpt lat="45.84985" lon="5.51736">
        <ele>976.88736497939</ele>
        <time>2020-05-28T06:55:06.000Z</time>
      </trkpt>
      <trkpt lat="45.84984" lon="5.51738">
        <ele>977.17364586765</ele>
        <time>2020-05-28T06:55:08.000Z</time>
      </trkpt>
      <trkpt lat="45.84982" lon="5.51741">
        <ele>977.58222591797</ele>
        <time>2020-05-28T06:55:10.000Z</time>
      </trkpt>
      <trkpt lat="45.8498" lon="5.51743">
        <ele>977.99080596828</ele>
        <time>2020-05-28T06:55:12.000Z</time>
      </trkpt>
      <trkpt lat="45.84979" lon="5.51746">
        <ele>978.39938601859</ele>
        <time>2020-05-28T06:55:14.000Z</time>
      </trkpt>
      <trkpt lat="45.84978" lon="5.51748">
        <ele>978.8079660689</ele>
        <time>2020-05-28T06:55:16.000Z</time>
      </trkpt>
      <trkpt lat="45.84976" lon="5.51751">
        <ele>979</ele>
        <time>2020-05-28T06:55:18.000Z</time>
      </trkpt>
      <trkpt lat="45.84975" lon="5.51754">
        <ele>979</ele>
        <time>2020-05-28T06:55:20.000Z</time>
      </trkpt>
      <trkpt lat="45.84973" lon="5.51757">
        <ele>979</ele>
        <time>2020-05-28T06:55:22.000Z</time>
      </trkpt>
      <trkpt lat="45.84971" lon="5.51758">
        <ele>979</ele>
        <time>2020-05-28T06:55:24.000Z</time>
      </trkpt>
      <trkpt lat="45.84969" lon="5.51761">
        <ele>979</ele>
        <time>2020-05-28T06:55:26.000Z</time>
      </trkpt>
      <trkpt lat="45.84967" lon="5.51763">
        <ele>979</ele>
        <time>2020-05-28T06:55:28.000Z</time>
      </trkpt>
      <trkpt lat="45.84965" lon="5.51764">
        <ele>979</ele>
        <time>2020-05-28T06:55:30.000Z</time>
      </trkpt>
      <trkpt lat="45.84964" lon="5.51766">
        <ele>979</ele>
        <time>2020-05-28T06:55:32.000Z</time>
      </trkpt>
      <trkpt lat="45.84962" lon="5.51769">
        <ele>979</ele>
        <time>2020-05-28T06:55:34.000Z</time>
      </trkpt>
      <trkpt lat="45.8496" lon="5.51771">
        <ele>979</ele>
        <time>2020-05-28T06:55:36.000Z</time>
      </trkpt>
      <trkpt lat="45.84959" lon="5.51773">
        <ele>979</ele>
        <time>2020-05-28T06:55:38.000Z</time>
      </trkpt>
      <trkpt lat="45.84957" lon="5.51775">
        <ele>979</ele>
        <time>2020-05-28T06:55:40.000Z</time>
      </trkpt>
      <trkpt lat="45.84955" lon="5.51778">
        <ele>979</ele>
        <time>2020-05-28T06:55:42.000Z</time>
      </trkpt>
      <trkpt lat="45.84953" lon="5.5178">
        <ele>979</ele>
        <time>2020-05-28T06:55:44.000Z</time>
      </trkpt>
      <trkpt lat="45.8495" lon="5.51782">
        <ele>979</ele>
        <time>2020-05-28T06:55:46.000Z</time>
      </trkpt>
      <trkpt lat="45.84948" lon="5.51784">
        <ele>979</ele>
        <time>2020-05-28T06:55:48.000Z</time>
      </trkpt>
      <trkpt lat="45.84946" lon="5.51787">
        <ele>979</ele>
        <time>2020-05-28T06:55:50.000Z</time>
      </trkpt>
      <trkpt lat="45.84945" lon="5.51789">
        <ele>979</ele>
        <time>2020-05-28T06:55:52.000Z</time>
      </trkpt>
      <trkpt lat="45.84943" lon="5.51791">
        <ele>979</ele>
        <time>2020-05-28T06:55:54.000Z</time>
      </trkpt>
      <trkpt lat="45.84941" lon="5.51794">
        <ele>979</ele>
        <time>2020-05-28T06:55:56.000Z</time>
      </trkpt>
      <trkpt lat="45.8494" lon="5.51796">
        <ele>979.10599936</ele>
        <time>2020-05-28T06:55:58.000Z</time>
      </trkpt>
      <trkpt lat="45.84938" lon="5.51799">
        <ele>979.30599936</ele>
        <time>2020-05-28T06:56:00.000Z</time>
      </trkpt>
      <trkpt lat="45.84936" lon="5.51801">
        <ele>979.50599936</ele>
        <time>2020-05-28T06:56:02.000Z</time>
      </trkpt>
      <trkpt lat="45.84934" lon="5.51803">
        <ele>979.70599936</ele>
        <time>2020-05-28T06:56:04.000Z</time>
      </trkpt>
      <trkpt lat="45.84932" lon="5.51804">
        <ele>979.90599936</ele>
        <time>2020-05-28T06:56:06.000Z</time>
      </trkpt>
      <trkpt lat="45.8493" lon="5.51806">
        <ele>980.21199872</ele>
        <time>2020-05-28T06:56:08.000Z</time>
      </trkpt>
      <trkpt lat="45.84928" lon="5.51808">
        <ele>980.61199872</ele>
        <time>2020-05-28T06:56:10.000Z</time>
      </trkpt>
      <trkpt lat="45.84926" lon="5.5181">
        <ele>981.01199872</ele>
        <time>2020-05-28T06:56:12.000Z</time>
      </trkpt>
      <trkpt lat="45.84925" lon="5.51812">
        <ele>981.41199872</ele>
        <time>2020-05-28T06:56:14.000Z</time>
      </trkpt>
      <trkpt lat="45.84923" lon="5.51815">
        <ele>981.81199872</ele>
        <time>2020-05-28T06:56:16.000Z</time>
      </trkpt>
      <trkpt lat="45.84922" lon="5.51817">
        <ele>982</ele>
        <time>2020-05-28T06:56:18.000Z</time>
      </trkpt>
      <trkpt lat="45.8492" lon="5.51818">
        <ele>982</ele>
        <time>2020-05-28T06:56:20.000Z</time>
      </trkpt>
      <trkpt lat="45.84918" lon="5.5182">
        <ele>982</ele>
        <time>2020-05-28T06:56:22.000Z</time>
      </trkpt>
      <trkpt lat="45.84916" lon="5.51822">
        <ele>982</ele>
        <time>2020-05-28T06:56:24.000Z</time>
      </trkpt>
      <trkpt lat="45.84915" lon="5.51824">
        <ele>982</ele>
        <time>2020-05-28T06:56:26.000Z</time>
      </trkpt>
      <trkpt lat="45.84913" lon="5.51825">
        <ele>982.10536722409</ele>
        <time>2020-05-28T06:56:28.000Z</time>
      </trkpt>
      <trkpt lat="45.84911" lon="5.51828">
        <ele>982.40357814939</ele>
        <time>2020-05-28T06:56:31.000Z</time>
      </trkpt>
      <trkpt lat="45.84909" lon="5.5183">
        <ele>982.60238543293</ele>
        <time>2020-05-28T06:56:33.000Z</time>
      </trkpt>
      <trkpt lat="45.84907" lon="5.51832">
        <ele>982.80119271647</ele>
        <time>2020-05-28T06:56:35.000Z</time>
      </trkpt>
      <trkpt lat="45.84906" lon="5.51834">
        <ele>983</ele>
        <time>2020-05-28T06:56:37.000Z</time>
      </trkpt>
      <trkpt lat="45.84904" lon="5.51836">
        <ele>983.40241422782</ele>
        <time>2020-05-28T06:56:39.000Z</time>
      </trkpt>
      <trkpt lat="45.84903" lon="5.51838">
        <ele>983.80482845564</ele>
        <time>2020-05-28T06:56:41.000Z</time>
      </trkpt>
      <trkpt lat="45.84901" lon="5.5184">
        <ele>984.20724268346</ele>
        <time>2020-05-28T06:56:43.000Z</time>
      </trkpt>
      <trkpt lat="45.84899" lon="5.51842">
        <ele>984.60965691129</ele>
        <time>2020-05-28T06:56:45.000Z</time>
      </trkpt>
      <trkpt lat="45.84898" lon="5.51844">
        <ele>985</ele>
        <time>2020-05-28T06:56:47.000Z</time>
      </trkpt>
      <trkpt lat="45.84896" lon="5.51846">
        <ele>985</ele>
        <time>2020-05-28T06:56:49.000Z</time>
      </trkpt>
      <trkpt lat="45.84895" lon="5.51847">
        <ele>985</ele>
        <time>2020-05-28T06:56:51.000Z</time>
      </trkpt>
      <trkpt lat="45.84893" lon="5.51849">
        <ele>985</ele>
        <time>2020-05-28T06:56:53.000Z</time>
      </trkpt>
      <trkpt lat="45.84892" lon="5.5185">
        <ele>985</ele>
        <time>2020-05-28T06:56:55.000Z</time>
      </trkpt>
      <trkpt lat="45.8489" lon="5.51852">
        <ele>985</ele>
        <time>2020-05-28T06:56:57.000Z</time>
      </trkpt>
      <trkpt lat="45.84888" lon="5.51854">
        <ele>985.29757111246</ele>
        <time>2020-05-28T06:57:00.000Z</time>
      </trkpt>
      <trkpt lat="45.84886" lon="5.51856">
        <ele>985.5</ele>
        <time>2020-05-28T06:57:02.000Z</time>
      </trkpt>
      <trkpt lat="45.84885" lon="5.51857">
        <ele>985.70242888754</ele>
        <time>2020-05-28T06:57:04.000Z</time>
      </trkpt>
      <trkpt lat="45.84883" lon="5.51859">
        <ele>985.90485777508</ele>
        <time>2020-05-28T06:57:06.000Z</time>
      </trkpt>
      <trkpt lat="45.84881" lon="5.51861">
        <ele>986.10484615297</ele>
        <time>2020-05-28T06:57:08.000Z</time>
      </trkpt>
      <trkpt lat="45.8488" lon="5.51863">
        <ele>986.30267027751</ele>
        <time>2020-05-28T06:57:10.000Z</time>
      </trkpt>
      <trkpt lat="45.84878" lon="5.51864">
        <ele>986.50049440205</ele>
        <time>2020-05-28T06:57:12.000Z</time>
      </trkpt>
      <trkpt lat="45.84876" lon="5.51867">
        <ele>986.79723058886</ele>
        <time>2020-05-28T06:57:15.000Z</time>
      </trkpt>
      <trkpt lat="45.84875" lon="5.51869">
        <ele>986.99505471341</ele>
        <time>2020-05-28T06:57:17.000Z</time>
      </trkpt>
      <trkpt lat="45.84873" lon="5.51871">
        <ele>987.39433797921</ele>
        <time>2020-05-28T06:57:19.000Z</time>
      </trkpt>
      <trkpt lat="45.84872" lon="5.51873">
        <ele>987.79878652494</ele>
        <time>2020-05-28T06:57:21.000Z</time>
      </trkpt>
      <trkpt lat="45.84871" lon="5.51875">
        <ele>988.20323507067</ele>
        <time>2020-05-28T06:57:23.000Z</time>
      </trkpt>
      <trkpt lat="45.84869" lon="5.51878">
        <ele>988.6076836164</ele>
        <time>2020-05-28T06:57:25.000Z</time>
      </trkpt>
      <trkpt lat="45.84868" lon="5.5188">
        <ele>989</ele>
        <time>2020-05-28T06:57:27.000Z</time>
      </trkpt>
      <trkpt lat="45.84866" lon="5.51882">
        <ele>989</ele>
        <time>2020-05-28T06:57:29.000Z</time>
      </trkpt>
      <trkpt lat="45.84865" lon="5.51884">
        <ele>989</ele>
        <time>2020-05-28T06:57:31.000Z</time>
      </trkpt>
      <trkpt lat="45.84863" lon="5.51886">
        <ele>989</ele>
        <time>2020-05-28T06:57:33.000Z</time>
      </trkpt>
      <trkpt lat="45.84862" lon="5.51888">
        <ele>989</ele>
        <time>2020-05-28T06:57:35.000Z</time>
      </trkpt>
      <trkpt lat="45.84861" lon="5.5189">
        <ele>989</ele>
        <time>2020-05-28T06:57:37.000Z</time>
      </trkpt>
      <trkpt lat="45.8486" lon="5.51892">
        <ele>989</ele>
        <time>2020-05-28T06:57:39.000Z</time>
      </trkpt>
      <trkpt lat="45.84858" lon="5.51894">
        <ele>989</ele>
        <time>2020-05-28T06:57:41.000Z</time>
      </trkpt>
      <trkpt lat="45.84856" lon="5.51896">
        <ele>989</ele>
        <time>2020-05-28T06:57:44.000Z</time>
      </trkpt>
      <trkpt lat="45.84854" lon="5.51898">
        <ele>989</ele>
        <time>2020-05-28T06:57:46.000Z</time>
      </trkpt>
      <trkpt lat="45.84853" lon="5.51901">
        <ele>989.1030120437</ele>
        <time>2020-05-28T06:57:48.000Z</time>
      </trkpt>
      <trkpt lat="45.84851" lon="5.51903">
        <ele>989.29737556381</ele>
        <time>2020-05-28T06:57:50.000Z</time>
      </trkpt>
      <trkpt lat="45.84849" lon="5.51904">
        <ele>989.49173908392</ele>
        <time>2020-05-28T06:57:52.000Z</time>
      </trkpt>
      <trkpt lat="45.84847" lon="5.51906">
        <ele>989.68610260404</ele>
        <time>2020-05-28T06:57:54.000Z</time>
      </trkpt>
      <trkpt lat="45.84846" lon="5.51908">
        <ele>989.88046612415</ele>
        <time>2020-05-28T06:57:56.000Z</time>
      </trkpt>
      <trkpt lat="45.84844" lon="5.51911">
        <ele>990.3645718263</ele>
        <time>2020-05-28T06:57:59.000Z</time>
      </trkpt>
      <trkpt lat="45.84842" lon="5.51912">
        <ele>990.7765181375</ele>
        <time>2020-05-28T06:58:01.000Z</time>
      </trkpt>
      <trkpt lat="45.8484" lon="5.51914">
        <ele>991.1884644487</ele>
        <time>2020-05-28T06:58:03.000Z</time>
      </trkpt>
      <trkpt lat="45.84838" lon="5.51916">
        <ele>991.60041075991</ele>
        <time>2020-05-28T06:58:05.000Z</time>
      </trkpt>
      <trkpt lat="45.84836" lon="5.51918">
        <ele>992</ele>
        <time>2020-05-28T06:58:07.000Z</time>
      </trkpt>
      <trkpt lat="45.84834" lon="5.5192">
        <ele>992</ele>
        <time>2020-05-28T06:58:09.000Z</time>
      </trkpt>
      <trkpt lat="45.84832" lon="5.51922">
        <ele>992</ele>
        <time>2020-05-28T06:58:11.000Z</time>
      </trkpt>
      <trkpt lat="45.8483" lon="5.51924">
        <ele>992</ele>
        <time>2020-05-28T06:58:13.000Z</time>
      </trkpt>
      <trkpt lat="45.84828" lon="5.51926">
        <ele>992</ele>
        <time>2020-05-28T06:58:15.000Z</time>
      </trkpt>
      <trkpt lat="45.84826" lon="5.51928">
        <ele>992</ele>
        <time>2020-05-28T06:58:17.000Z</time>
      </trkpt>
      <trkpt lat="45.84824" lon="5.5193">
        <ele>992</ele>
        <time>2020-05-28T06:58:19.000Z</time>
      </trkpt>
      <trkpt lat="45.84822" lon="5.51932">
        <ele>992</ele>
        <time>2020-05-28T06:58:21.000Z</time>
      </trkpt>
      <trkpt lat="45.84819" lon="5.51934">
        <ele>992</ele>
        <time>2020-05-28T06:58:23.000Z</time>
      </trkpt>
      <trkpt lat="45.84817" lon="5.51936">
        <ele>992</ele>
        <time>2020-05-28T06:58:25.000Z</time>
      </trkpt>
      <trkpt lat="45.84815" lon="5.51938">
        <ele>992</ele>
        <time>2020-05-28T06:58:27.000Z</time>
      </trkpt>
      <trkpt lat="45.84814" lon="5.5194">
        <ele>992.39271333737</ele>
        <time>2020-05-28T06:58:29.000Z</time>
      </trkpt>
      <trkpt lat="45.84812" lon="5.51942">
        <ele>992.79757111246</ele>
        <time>2020-05-28T06:58:31.000Z</time>
      </trkpt>
      <trkpt lat="45.8481" lon="5.51944">
        <ele>993.20242888754</ele>
        <time>2020-05-28T06:58:33.000Z</time>
      </trkpt>
      <trkpt lat="45.84809" lon="5.51946">
        <ele>993.60728666263</ele>
        <time>2020-05-28T06:58:35.000Z</time>
      </trkpt>
      <trkpt lat="45.84808" lon="5.51948">
        <ele>994</ele>
        <time>2020-05-28T06:58:37.000Z</time>
      </trkpt>
      <trkpt lat="45.84806" lon="5.5195">
        <ele>994</ele>
        <time>2020-05-28T06:58:39.000Z</time>
      </trkpt>
      <trkpt lat="45.84805" lon="5.51952">
        <ele>994</ele>
        <time>2020-05-28T06:58:41.000Z</time>
      </trkpt>
      <trkpt lat="45.84803" lon="5.51954">
        <ele>994</ele>
        <time>2020-05-28T06:58:43.000Z</time>
      </trkpt>
      <trkpt lat="45.84801" lon="5.51956">
        <ele>994</ele>
        <time>2020-05-28T06:58:45.000Z</time>
      </trkpt>
      <trkpt lat="45.84799" lon="5.51957">
        <ele>994.00992</ele>
        <time>2020-05-28T06:58:47.000Z</time>
      </trkpt>
      <trkpt lat="45.84798" lon="5.51959">
        <ele>994.40674539683</ele>
        <time>2020-05-28T06:58:49.000Z</time>
      </trkpt>
      <trkpt lat="45.84796" lon="5.51961">
        <ele>994.80357079365</ele>
        <time>2020-05-28T06:58:51.000Z</time>
      </trkpt>
      <trkpt lat="45.84795" lon="5.51963">
        <ele>995.20039619048</ele>
        <time>2020-05-28T06:58:53.000Z</time>
      </trkpt>
      <trkpt lat="45.84793" lon="5.51965">
        <ele>995.5972215873</ele>
        <time>2020-05-28T06:58:55.000Z</time>
      </trkpt>
      <trkpt lat="45.84791" lon="5.51966">
        <ele>995.99404698413</ele>
        <time>2020-05-28T06:58:57.000Z</time>
      </trkpt>
      <trkpt lat="45.8479" lon="5.51968">
        <ele>996.19878871482</ele>
        <time>2020-05-28T06:58:59.000Z</time>
      </trkpt>
      <trkpt lat="45.84788" lon="5.5197">
        <ele>996.40060499678</ele>
        <time>2020-05-28T06:59:01.000Z</time>
      </trkpt>
      <trkpt lat="45.84787" lon="5.51972">
        <ele>996.70332941971</ele>
        <time>2020-05-28T06:59:04.000Z</time>
      </trkpt>
      <trkpt lat="45.84785" lon="5.51974">
        <ele>996.90514570167</ele>
        <time>2020-05-28T06:59:06.000Z</time>
      </trkpt>
      <trkpt lat="45.84783" lon="5.51976">
        <ele>997.10599936</ele>
        <time>2020-05-28T06:59:08.000Z</time>
      </trkpt>
      <trkpt lat="45.84782" lon="5.51978">
        <ele>997.30599936</ele>
        <time>2020-05-28T06:59:10.000Z</time>
      </trkpt>
      <trkpt lat="45.8478" lon="5.5198">
        <ele>997.50599936</ele>
        <time>2020-05-28T06:59:12.000Z</time>
      </trkpt>
      <trkpt lat="45.84778" lon="5.51982">
        <ele>997.70599936</ele>
        <time>2020-05-28T06:59:14.000Z</time>
      </trkpt>
      <trkpt lat="45.84776" lon="5.51983">
        <ele>997.90599936</ele>
        <time>2020-05-28T06:59:16.000Z</time>
      </trkpt>
      <trkpt lat="45.84773" lon="5.51985">
        <ele>998.20599936</ele>
        <time>2020-05-28T06:59:19.000Z</time>
      </trkpt>
      <trkpt lat="45.84771" lon="5.51987">
        <ele>998.40599936</ele>
        <time>2020-05-28T06:59:21.000Z</time>
      </trkpt>
      <trkpt lat="45.84769" lon="5.51989">
        <ele>998.60599936</ele>
        <time>2020-05-28T06:59:23.000Z</time>
      </trkpt>
      <trkpt lat="45.84768" lon="5.51991">
        <ele>998.80599936</ele>
        <time>2020-05-28T06:59:25.000Z</time>
      </trkpt>
      <trkpt lat="45.84766" lon="5.51993">
        <ele>999.00599936</ele>
        <time>2020-05-28T06:59:27.000Z</time>
      </trkpt>
      <trkpt lat="45.84764" lon="5.51994">
        <ele>999.20599936</ele>
        <time>2020-05-28T06:59:29.000Z</time>
      </trkpt>
      <trkpt lat="45.84762" lon="5.51996">
        <ele>999.40599936</ele>
        <time>2020-05-28T06:59:31.000Z</time>
      </trkpt>
      <trkpt lat="45.8476" lon="5.51998">
        <ele>999.60599936</ele>
        <time>2020-05-28T06:59:33.000Z</time>
      </trkpt>
      <trkpt lat="45.84758" lon="5.51999">
        <ele>999.80599936</ele>
        <time>2020-05-28T06:59:35.000Z</time>
      </trkpt>
      <trkpt lat="45.84756" lon="5.52001">
        <ele>1000.2117870008</ele>
        <time>2020-05-28T06:59:38.000Z</time>
      </trkpt>
      <trkpt lat="45.84754" lon="5.52003">
        <ele>1000.6113875281</ele>
        <time>2020-05-28T06:59:40.000Z</time>
      </trkpt>
      <trkpt lat="45.84752" lon="5.52004">
        <ele>1001.0109880555</ele>
        <time>2020-05-28T06:59:42.000Z</time>
      </trkpt>
      <trkpt lat="45.8475" lon="5.52005">
        <ele>1001.4105885828</ele>
        <time>2020-05-28T06:59:44.000Z</time>
      </trkpt>
      <trkpt lat="45.84749" lon="5.52007">
        <ele>1001.8101891101</ele>
        <time>2020-05-28T06:59:46.000Z</time>
      </trkpt>
      <trkpt lat="45.84747" lon="5.52009">
        <ele>1002</ele>
        <time>2020-05-28T06:59:48.000Z</time>
      </trkpt>
      <trkpt lat="45.84745" lon="5.5201">
        <ele>1002</ele>
        <time>2020-05-28T06:59:50.000Z</time>
      </trkpt>
      <trkpt lat="45.84743" lon="5.52012">
        <ele>1002</ele>
        <time>2020-05-28T06:59:52.000Z</time>
      </trkpt>
      <trkpt lat="45.8474" lon="5.52014">
        <ele>1002</ele>
        <time>2020-05-28T06:59:54.000Z</time>
      </trkpt>
      <trkpt lat="45.84738" lon="5.52016">
        <ele>1002</ele>
        <time>2020-05-28T06:59:56.000Z</time>
      </trkpt>
      <trkpt lat="45.84736" lon="5.52018">
        <ele>1002</ele>
        <time>2020-05-28T06:59:58.000Z</time>
      </trkpt>
      <trkpt lat="45.84734" lon="5.5202">
        <ele>1002</ele>
        <time>2020-05-28T07:00:00.000Z</time>
      </trkpt>
      <trkpt lat="45.84732" lon="5.52022">
        <ele>1002</ele>
        <time>2020-05-28T07:00:02.000Z</time>
      </trkpt>
      <trkpt lat="45.8473" lon="5.52024">
        <ele>1002</ele>
        <time>2020-05-28T07:00:04.000Z</time>
      </trkpt>
      <trkpt lat="45.84727" lon="5.52026">
        <ele>1002</ele>
        <time>2020-05-28T07:00:06.000Z</time>
      </trkpt>
      <trkpt lat="45.84725" lon="5.52028">
        <ele>1002</ele>
        <time>2020-05-28T07:00:08.000Z</time>
      </trkpt>
      <trkpt lat="45.84724" lon="5.5203">
        <ele>1002</ele>
        <time>2020-05-28T07:00:10.000Z</time>
      </trkpt>
      <trkpt lat="45.84722" lon="5.52032">
        <ele>1002</ele>
        <time>2020-05-28T07:00:12.000Z</time>
      </trkpt>
      <trkpt lat="45.8472" lon="5.52035">
        <ele>1002</ele>
        <time>2020-05-28T07:00:14.000Z</time>
      </trkpt>
      <trkpt lat="45.84718" lon="5.52037">
        <ele>1002</ele>
        <time>2020-05-28T07:00:16.000Z</time>
      </trkpt>
      <trkpt lat="45.84717" lon="5.52039">
        <ele>1002</ele>
        <time>2020-05-28T07:00:18.000Z</time>
      </trkpt>
      <trkpt lat="45.84715" lon="5.52042">
        <ele>1002</ele>
        <time>2020-05-28T07:00:20.000Z</time>
      </trkpt>
      <trkpt lat="45.84713" lon="5.52044">
        <ele>1002</ele>
        <time>2020-05-28T07:00:22.000Z</time>
      </trkpt>
      <trkpt lat="45.84712" lon="5.52046">
        <ele>1002</ele>
        <time>2020-05-28T07:00:24.000Z</time>
      </trkpt>
      <trkpt lat="45.8471" lon="5.52049">
        <ele>1002</ele>
        <time>2020-05-28T07:00:26.000Z</time>
      </trkpt>
      <trkpt lat="45.84708" lon="5.52051">
        <ele>1002</ele>
        <time>2020-05-28T07:00:28.000Z</time>
      </trkpt>
      <trkpt lat="45.84706" lon="5.52053">
        <ele>1002</ele>
        <time>2020-05-28T07:00:30.000Z</time>
      </trkpt>
      <trkpt lat="45.84704" lon="5.52055">
        <ele>1002</ele>
        <time>2020-05-28T07:00:32.000Z</time>
      </trkpt>
      <trkpt lat="45.84702" lon="5.52058">
        <ele>1002</ele>
        <time>2020-05-28T07:00:34.000Z</time>
      </trkpt>
      <trkpt lat="45.847" lon="5.5206">
        <ele>1002</ele>
        <time>2020-05-28T07:00:36.000Z</time>
      </trkpt>
      <trkpt lat="45.84698" lon="5.52062">
        <ele>1002</ele>
        <time>2020-05-28T07:00:38.000Z</time>
      </trkpt>
      <trkpt lat="45.84696" lon="5.52065">
        <ele>1002</ele>
        <time>2020-05-28T07:00:40.000Z</time>
      </trkpt>
      <trkpt lat="45.84694" lon="5.52067">
        <ele>1002</ele>
        <time>2020-05-28T07:00:42.000Z</time>
      </trkpt>
      <trkpt lat="45.84692" lon="5.5207">
        <ele>1002</ele>
        <time>2020-05-28T07:00:44.000Z</time>
      </trkpt>
      <trkpt lat="45.8469" lon="5.52072">
        <ele>1002</ele>
        <time>2020-05-28T07:00:46.000Z</time>
      </trkpt>
      <trkpt lat="45.84688" lon="5.52074">
        <ele>1002.2117870008</ele>
        <time>2020-05-28T07:00:48.000Z</time>
      </trkpt>
      <trkpt lat="45.84686" lon="5.52077">
        <ele>1002.6113875281</ele>
        <time>2020-05-28T07:00:50.000Z</time>
      </trkpt>
      <trkpt lat="45.84684" lon="5.52079">
        <ele>1003.0109880555</ele>
        <time>2020-05-28T07:00:52.000Z</time>
      </trkpt>
      <trkpt lat="45.84683" lon="5.52081">
        <ele>1003.4105885828</ele>
        <time>2020-05-28T07:00:54.000Z</time>
      </trkpt>
      <trkpt lat="45.84681" lon="5.52084">
        <ele>1003.8101891101</ele>
        <time>2020-05-28T07:00:56.000Z</time>
      </trkpt>
      <trkpt lat="45.84679" lon="5.52086">
        <ele>1004</ele>
        <time>2020-05-28T07:00:58.000Z</time>
      </trkpt>
      <trkpt lat="45.84677" lon="5.52089">
        <ele>1004</ele>
        <time>2020-05-28T07:01:00.000Z</time>
      </trkpt>
      <trkpt lat="45.84675" lon="5.52091">
        <ele>1004</ele>
        <time>2020-05-28T07:01:02.000Z</time>
      </trkpt>
      <trkpt lat="45.84674" lon="5.52093">
        <ele>1004</ele>
        <time>2020-05-28T07:01:04.000Z</time>
      </trkpt>
      <trkpt lat="45.84672" lon="5.52095">
        <ele>1004</ele>
        <time>2020-05-28T07:01:06.000Z</time>
      </trkpt>
      <trkpt lat="45.8467" lon="5.52098">
        <ele>1004.0792993354</ele>
        <time>2020-05-28T07:01:08.000Z</time>
      </trkpt>
      <trkpt lat="45.84668" lon="5.521">
        <ele>1004.2852724909</ele>
        <time>2020-05-28T07:01:10.000Z</time>
      </trkpt>
      <trkpt lat="45.84666" lon="5.52102">
        <ele>1004.4912456466</ele>
        <time>2020-05-28T07:01:12.000Z</time>
      </trkpt>
      <trkpt lat="45.84664" lon="5.52104">
        <ele>1004.6972188022</ele>
        <time>2020-05-28T07:01:14.000Z</time>
      </trkpt>
      <trkpt lat="45.84662" lon="5.52106">
        <ele>1004.9031919577</ele>
        <time>2020-05-28T07:01:16.000Z</time>
      </trkpt>
      <trkpt lat="45.84661" lon="5.52108">
        <ele>1005</ele>
        <time>2020-05-28T07:01:18.000Z</time>
      </trkpt>
      <trkpt lat="45.84659" lon="5.5211">
        <ele>1005.30599936</ele>
        <time>2020-05-28T07:01:30.000Z</time>
      </trkpt>
      <trkpt lat="45.84657" lon="5.52112">
        <ele>1006</ele>
        <time>2020-05-28T07:01:56.000Z</time>
      </trkpt>
      <trkpt lat="45.84656" lon="5.52113">
        <ele>1005.79400064</ele>
        <time>2020-05-28T07:01:59.000Z</time>
      </trkpt>
      <trkpt lat="45.84654" lon="5.52115">
        <ele>1005.49400064</ele>
        <time>2020-05-28T07:02:02.000Z</time>
      </trkpt>
      <trkpt lat="45.84652" lon="5.52117">
        <ele>1005.29400064</ele>
        <time>2020-05-28T07:02:04.000Z</time>
      </trkpt>
      <trkpt lat="45.84651" lon="5.52119">
        <ele>1005.09400064</ele>
        <time>2020-05-28T07:02:06.000Z</time>
      </trkpt>
      <trkpt lat="45.84649" lon="5.52122">
        <ele>1005</ele>
        <time>2020-05-28T07:02:09.000Z</time>
      </trkpt>
      <trkpt lat="45.84647" lon="5.52124">
        <ele>1005</ele>
        <time>2020-05-28T07:02:12.000Z</time>
      </trkpt>
      <trkpt lat="45.84645" lon="5.52127">
        <ele>1005</ele>
        <time>2020-05-28T07:02:15.000Z</time>
      </trkpt>
      <trkpt lat="45.84643" lon="5.5213">
        <ele>1004.89400064</ele>
        <time>2020-05-28T07:02:18.000Z</time>
      </trkpt>
      <trkpt lat="45.84642" lon="5.52132">
        <ele>1004.69400064</ele>
        <time>2020-05-28T07:02:20.000Z</time>
      </trkpt>
      <trkpt lat="45.8464" lon="5.52134">
        <ele>1004.49400064</ele>
        <time>2020-05-28T07:02:22.000Z</time>
      </trkpt>
      <trkpt lat="45.84638" lon="5.52135">
        <ele>1004.29400064</ele>
        <time>2020-05-28T07:02:24.000Z</time>
      </trkpt>
      <trkpt lat="45.84637" lon="5.52137">
        <ele>1004.09400064</ele>
        <time>2020-05-28T07:02:26.000Z</time>
      </trkpt>
      <trkpt lat="45.84635" lon="5.5214">
        <ele>1004</ele>
        <time>2020-05-28T07:02:28.000Z</time>
      </trkpt>
      <trkpt lat="45.84634" lon="5.52141">
        <ele>1004</ele>
        <time>2020-05-28T07:02:30.000Z</time>
      </trkpt>
      <trkpt lat="45.84632" lon="5.52144">
        <ele>1004</ele>
        <time>2020-05-28T07:02:32.000Z</time>
      </trkpt>
      <trkpt lat="45.8463" lon="5.52146">
        <ele>1004</ele>
        <time>2020-05-28T07:02:34.000Z</time>
      </trkpt>
      <trkpt lat="45.84628" lon="5.52148">
        <ele>1004</ele>
        <time>2020-05-28T07:02:36.000Z</time>
      </trkpt>
      <trkpt lat="45.84627" lon="5.52151">
        <ele>1004</ele>
        <time>2020-05-28T07:02:38.000Z</time>
      </trkpt>
      <trkpt lat="45.84625" lon="5.52153">
        <ele>1004</ele>
        <time>2020-05-28T07:02:40.000Z</time>
      </trkpt>
      <trkpt lat="45.84623" lon="5.52155">
        <ele>1004</ele>
        <time>2020-05-28T07:02:42.000Z</time>
      </trkpt>
      <trkpt lat="45.84621" lon="5.52158">
        <ele>1004</ele>
        <time>2020-05-28T07:02:44.000Z</time>
      </trkpt>
      <trkpt lat="45.84619" lon="5.5216">
        <ele>1004</ele>
        <time>2020-05-28T07:02:46.000Z</time>
      </trkpt>
      <trkpt lat="45.84617" lon="5.52162">
        <ele>1003.89400064</ele>
        <time>2020-05-28T07:02:48.000Z</time>
      </trkpt>
      <trkpt lat="45.84616" lon="5.52165">
        <ele>1003.69400064</ele>
        <time>2020-05-28T07:02:50.000Z</time>
      </trkpt>
      <trkpt lat="45.84614" lon="5.52167">
        <ele>1003.49400064</ele>
        <time>2020-05-28T07:02:52.000Z</time>
      </trkpt>
      <trkpt lat="45.84612" lon="5.52169">
        <ele>1003.29400064</ele>
        <time>2020-05-28T07:02:54.000Z</time>
      </trkpt>
      <trkpt lat="45.8461" lon="5.52171">
        <ele>1003.09400064</ele>
        <time>2020-05-28T07:02:56.000Z</time>
      </trkpt>
      <trkpt lat="45.84609" lon="5.52174">
        <ele>1003</ele>
        <time>2020-05-28T07:02:58.000Z</time>
      </trkpt>
      <trkpt lat="45.84607" lon="5.52176">
        <ele>1003</ele>
        <time>2020-05-28T07:03:00.000Z</time>
      </trkpt>
      <trkpt lat="45.84605" lon="5.52179">
        <ele>1003</ele>
        <time>2020-05-28T07:03:02.000Z</time>
      </trkpt>
      <trkpt lat="45.84604" lon="5.52182">
        <ele>1003</ele>
        <time>2020-05-28T07:03:04.000Z</time>
      </trkpt>
      <trkpt lat="45.84602" lon="5.52184">
        <ele>1003</ele>
        <time>2020-05-28T07:03:06.000Z</time>
      </trkpt>
      <trkpt lat="45.846" lon="5.52187">
        <ele>1003</ele>
        <time>2020-05-28T07:03:08.000Z</time>
      </trkpt>
      <trkpt lat="45.84598" lon="5.52189">
        <ele>1003</ele>
        <time>2020-05-28T07:03:10.000Z</time>
      </trkpt>
      <trkpt lat="45.84596" lon="5.52192">
        <ele>1003</ele>
        <time>2020-05-28T07:03:12.000Z</time>
      </trkpt>
      <trkpt lat="45.84594" lon="5.52194">
        <ele>1003</ele>
        <time>2020-05-28T07:03:14.000Z</time>
      </trkpt>
      <trkpt lat="45.84592" lon="5.52196">
        <ele>1003</ele>
        <time>2020-05-28T07:03:16.000Z</time>
      </trkpt>
      <trkpt lat="45.8459" lon="5.52199">
        <ele>1003</ele>
        <time>2020-05-28T07:03:18.000Z</time>
      </trkpt>
      <trkpt lat="45.84588" lon="5.52201">
        <ele>1003</ele>
        <time>2020-05-28T07:03:20.000Z</time>
      </trkpt>
      <trkpt lat="45.84586" lon="5.52203">
        <ele>1003</ele>
        <time>2020-05-28T07:03:22.000Z</time>
      </trkpt>
      <trkpt lat="45.84584" lon="5.52206">
        <ele>1003</ele>
        <time>2020-05-28T07:03:24.000Z</time>
      </trkpt>
      <trkpt lat="45.84582" lon="5.52208">
        <ele>1003</ele>
        <time>2020-05-28T07:03:26.000Z</time>
      </trkpt>
      <trkpt lat="45.8458" lon="5.5221">
        <ele>1002.8945279664</ele>
        <time>2020-05-28T07:03:28.000Z</time>
      </trkpt>
      <trkpt lat="45.84578" lon="5.52212">
        <ele>1002.6955229279</ele>
        <time>2020-05-28T07:03:30.000Z</time>
      </trkpt>
      <trkpt lat="45.84576" lon="5.52215">
        <ele>1002.4965178894</ele>
        <time>2020-05-28T07:03:32.000Z</time>
      </trkpt>
      <trkpt lat="45.84574" lon="5.52217">
        <ele>1002.297512851</ele>
        <time>2020-05-28T07:03:34.000Z</time>
      </trkpt>
      <trkpt lat="45.84572" lon="5.5222">
        <ele>1002.0985078125</ele>
        <time>2020-05-28T07:03:36.000Z</time>
      </trkpt>
      <trkpt lat="45.8457" lon="5.52222">
        <ele>1002</ele>
        <time>2020-05-28T07:03:38.000Z</time>
      </trkpt>
      <trkpt lat="45.84567" lon="5.52224">
        <ele>1002</ele>
        <time>2020-05-28T07:03:40.000Z</time>
      </trkpt>
      <trkpt lat="45.84565" lon="5.52226">
        <ele>1002</ele>
        <time>2020-05-28T07:03:42.000Z</time>
      </trkpt>
      <trkpt lat="45.84563" lon="5.52228">
        <ele>1002</ele>
        <time>2020-05-28T07:03:44.000Z</time>
      </trkpt>
      <trkpt lat="45.84562" lon="5.5223">
        <ele>1002</ele>
        <time>2020-05-28T07:03:46.000Z</time>
      </trkpt>
      <trkpt lat="45.8456" lon="5.52232">
        <ele>1002.10599936</ele>
        <time>2020-05-28T07:03:48.000Z</time>
      </trkpt>
      <trkpt lat="45.84558" lon="5.52233">
        <ele>1002.30599936</ele>
        <time>2020-05-28T07:03:50.000Z</time>
      </trkpt>
      <trkpt lat="45.84556" lon="5.52236">
        <ele>1002.60599936</ele>
        <time>2020-05-28T07:03:53.000Z</time>
      </trkpt>
      <trkpt lat="45.84555" lon="5.52238">
        <ele>1002.80599936</ele>
        <time>2020-05-28T07:03:55.000Z</time>
      </trkpt>
      <trkpt lat="45.84553" lon="5.5224">
        <ele>1003.0059282288</ele>
        <time>2020-05-28T07:03:57.000Z</time>
      </trkpt>
      <trkpt lat="45.84551" lon="5.52242">
        <ele>1003.2035569373</ele>
        <time>2020-05-28T07:03:59.000Z</time>
      </trkpt>
      <trkpt lat="45.8455" lon="5.52243">
        <ele>1003.4011856458</ele>
        <time>2020-05-28T07:04:01.000Z</time>
      </trkpt>
      <trkpt lat="45.84548" lon="5.52245">
        <ele>1003.5988143542</ele>
        <time>2020-05-28T07:04:03.000Z</time>
      </trkpt>
      <trkpt lat="45.84547" lon="5.52247">
        <ele>1003.7964430627</ele>
        <time>2020-05-28T07:04:05.000Z</time>
      </trkpt>
      <trkpt lat="45.84545" lon="5.52249">
        <ele>1003.9940717712</ele>
        <time>2020-05-28T07:04:07.000Z</time>
      </trkpt>
      <trkpt lat="45.84543" lon="5.5225">
        <ele>1004.1909455118</ele>
        <time>2020-05-28T07:04:09.000Z</time>
      </trkpt>
      <trkpt lat="45.84541" lon="5.52252">
        <ele>1004.3877959055</ele>
        <time>2020-05-28T07:04:11.000Z</time>
      </trkpt>
      <trkpt lat="45.84539" lon="5.52254">
        <ele>1004.5846462992</ele>
        <time>2020-05-28T07:04:13.000Z</time>
      </trkpt>
      <trkpt lat="45.84537" lon="5.52256">
        <ele>1004.7814966929</ele>
        <time>2020-05-28T07:04:15.000Z</time>
      </trkpt>
      <trkpt lat="45.84535" lon="5.52257">
        <ele>1004.9783470866</ele>
        <time>2020-05-28T07:04:17.000Z</time>
      </trkpt>
      <trkpt lat="45.84533" lon="5.52259">
        <ele>1005.3662559786</ele>
        <time>2020-05-28T07:04:19.000Z</time>
      </trkpt>
      <trkpt lat="45.84531" lon="5.52261">
        <ele>1005.7777780704</ele>
        <time>2020-05-28T07:04:21.000Z</time>
      </trkpt>
      <trkpt lat="45.84529" lon="5.52263">
        <ele>1006.1893001622</ele>
        <time>2020-05-28T07:04:23.000Z</time>
      </trkpt>
      <trkpt lat="45.84527" lon="5.52265">
        <ele>1006.6008222541</ele>
        <time>2020-05-28T07:04:25.000Z</time>
      </trkpt>
      <trkpt lat="45.84525" lon="5.52267">
        <ele>1007</ele>
        <time>2020-05-28T07:04:27.000Z</time>
      </trkpt>
      <trkpt lat="45.84523" lon="5.52269">
        <ele>1007</ele>
        <time>2020-05-28T07:04:29.000Z</time>
      </trkpt>
      <trkpt lat="45.84521" lon="5.52271">
        <ele>1007</ele>
        <time>2020-05-28T07:04:31.000Z</time>
      </trkpt>
      <trkpt lat="45.84519" lon="5.52274">
        <ele>1007</ele>
        <time>2020-05-28T07:04:33.000Z</time>
      </trkpt>
      <trkpt lat="45.84517" lon="5.52277">
        <ele>1007</ele>
        <time>2020-05-28T07:04:35.000Z</time>
      </trkpt>
      <trkpt lat="45.84516" lon="5.52279">
        <ele>1006.99400064</ele>
        <time>2020-05-28T07:04:37.000Z</time>
      </trkpt>
      <trkpt lat="45.84514" lon="5.52281">
        <ele>1006.79400064</ele>
        <time>2020-05-28T07:04:39.000Z</time>
      </trkpt>
      <trkpt lat="45.84512" lon="5.52284">
        <ele>1006.59400064</ele>
        <time>2020-05-28T07:04:41.000Z</time>
      </trkpt>
      <trkpt lat="45.8451" lon="5.52286">
        <ele>1006.39400064</ele>
        <time>2020-05-28T07:04:43.000Z</time>
      </trkpt>
      <trkpt lat="45.84508" lon="5.52288">
        <ele>1006.19400064</ele>
        <time>2020-05-28T07:04:45.000Z</time>
      </trkpt>
      <trkpt lat="45.84506" lon="5.5229">
        <ele>1006</ele>
        <time>2020-05-28T07:04:47.000Z</time>
      </trkpt>
      <trkpt lat="45.84504" lon="5.52292">
        <ele>1006</ele>
        <time>2020-05-28T07:04:49.000Z</time>
      </trkpt>
      <trkpt lat="45.84502" lon="5.52294">
        <ele>1006</ele>
        <time>2020-05-28T07:04:51.000Z</time>
      </trkpt>
      <trkpt lat="45.845" lon="5.52296">
        <ele>1006</ele>
        <time>2020-05-28T07:04:53.000Z</time>
      </trkpt>
      <trkpt lat="45.84498" lon="5.52298">
        <ele>1006</ele>
        <time>2020-05-28T07:04:55.000Z</time>
      </trkpt>
      <trkpt lat="45.84496" lon="5.523">
        <ele>1006</ele>
        <time>2020-05-28T07:04:57.000Z</time>
      </trkpt>
      <trkpt lat="45.84494" lon="5.52302">
        <ele>1006</ele>
        <time>2020-05-28T07:04:59.000Z</time>
      </trkpt>
      <trkpt lat="45.84492" lon="5.52304">
        <ele>1006</ele>
        <time>2020-05-28T07:05:01.000Z</time>
      </trkpt>
      <trkpt lat="45.8449" lon="5.52306">
        <ele>1006</ele>
        <time>2020-05-28T07:05:03.000Z</time>
      </trkpt>
      <trkpt lat="45.84488" lon="5.52308">
        <ele>1006</ele>
        <time>2020-05-28T07:05:05.000Z</time>
      </trkpt>
      <trkpt lat="45.84485" lon="5.5231">
        <ele>1006</ele>
        <time>2020-05-28T07:05:07.000Z</time>
      </trkpt>
      <trkpt lat="45.84483" lon="5.52312">
        <ele>1006</ele>
        <time>2020-05-28T07:05:09.000Z</time>
      </trkpt>
      <trkpt lat="45.84481" lon="5.52313">
        <ele>1006</ele>
        <time>2020-05-28T07:05:11.000Z</time>
      </trkpt>
      <trkpt lat="45.84479" lon="5.52316">
        <ele>1006</ele>
        <time>2020-05-28T07:05:13.000Z</time>
      </trkpt>
      <trkpt lat="45.84476" lon="5.52318">
        <ele>1006</ele>
        <time>2020-05-28T07:05:15.000Z</time>
      </trkpt>
      <trkpt lat="45.84474" lon="5.5232">
        <ele>1005.9940776289</ele>
        <time>2020-05-28T07:05:17.000Z</time>
      </trkpt>
      <trkpt lat="45.84472" lon="5.52323">
        <ele>1005.7966442003</ele>
        <time>2020-05-28T07:05:19.000Z</time>
      </trkpt>
      <trkpt lat="45.8447" lon="5.52325">
        <ele>1005.5992107717</ele>
        <time>2020-05-28T07:05:21.000Z</time>
      </trkpt>
      <trkpt lat="45.84468" lon="5.52327">
        <ele>1005.4017773431</ele>
        <time>2020-05-28T07:05:23.000Z</time>
      </trkpt>
      <trkpt lat="45.84466" lon="5.52329">
        <ele>1005.2043439145</ele>
        <time>2020-05-28T07:05:25.000Z</time>
      </trkpt>
      <trkpt lat="45.84464" lon="5.52332">
        <ele>1005.0069104859</ele>
        <time>2020-05-28T07:05:27.000Z</time>
      </trkpt>
      <trkpt lat="45.84462" lon="5.52334">
        <ele>1005</ele>
        <time>2020-05-28T07:05:29.000Z</time>
      </trkpt>
      <trkpt lat="45.8446" lon="5.52336">
        <ele>1005</ele>
        <time>2020-05-28T07:05:31.000Z</time>
      </trkpt>
      <trkpt lat="45.84458" lon="5.52338">
        <ele>1005</ele>
        <time>2020-05-28T07:05:33.000Z</time>
      </trkpt>
      <trkpt lat="45.84457" lon="5.52339">
        <ele>1005</ele>
        <time>2020-05-28T07:05:35.000Z</time>
      </trkpt>
      <trkpt lat="45.84455" lon="5.52341">
        <ele>1005</ele>
        <time>2020-05-28T07:05:37.000Z</time>
      </trkpt>
      <trkpt lat="45.84453" lon="5.52344">
        <ele>1005</ele>
        <time>2020-05-28T07:05:39.000Z</time>
      </trkpt>
      <trkpt lat="45.84451" lon="5.52346">
        <ele>1005</ele>
        <time>2020-05-28T07:05:41.000Z</time>
      </trkpt>
      <trkpt lat="45.84449" lon="5.52348">
        <ele>1005</ele>
        <time>2020-05-28T07:05:43.000Z</time>
      </trkpt>
      <trkpt lat="45.84446" lon="5.5235">
        <ele>1005</ele>
        <time>2020-05-28T07:05:45.000Z</time>
      </trkpt>
      <trkpt lat="45.84444" lon="5.52352">
        <ele>1005</ele>
        <time>2020-05-28T07:05:47.000Z</time>
      </trkpt>
      <trkpt lat="45.84442" lon="5.52354">
        <ele>1005</ele>
        <time>2020-05-28T07:05:49.000Z</time>
      </trkpt>
      <trkpt lat="45.8444" lon="5.52356">
        <ele>1005</ele>
        <time>2020-05-28T07:05:51.000Z</time>
      </trkpt>
      <trkpt lat="45.84438" lon="5.52359">
        <ele>1005</ele>
        <time>2020-05-28T07:05:53.000Z</time>
      </trkpt>
      <trkpt lat="45.84435" lon="5.52362">
        <ele>1005</ele>
        <time>2020-05-28T07:05:55.000Z</time>
      </trkpt>
      <trkpt lat="45.84433" lon="5.52365">
        <ele>1004.99400064</ele>
        <time>2020-05-28T07:05:57.000Z</time>
      </trkpt>
      <trkpt lat="45.84431" lon="5.52368">
        <ele>1004.79400064</ele>
        <time>2020-05-28T07:05:59.000Z</time>
      </trkpt>
      <trkpt lat="45.84429" lon="5.52369">
        <ele>1004.59400064</ele>
        <time>2020-05-28T07:06:01.000Z</time>
      </trkpt>
      <trkpt lat="45.84427" lon="5.52371">
        <ele>1004.39400064</ele>
        <time>2020-05-28T07:06:03.000Z</time>
      </trkpt>
      <trkpt lat="45.84425" lon="5.52373">
        <ele>1004.19400064</ele>
        <time>2020-05-28T07:06:05.000Z</time>
      </trkpt>
      <trkpt lat="45.84422" lon="5.52375">
        <ele>1004</ele>
        <time>2020-05-28T07:06:07.000Z</time>
      </trkpt>
      <trkpt lat="45.8442" lon="5.52376">
        <ele>1004</ele>
        <time>2020-05-28T07:06:09.000Z</time>
      </trkpt>
      <trkpt lat="45.84418" lon="5.52377">
        <ele>1004</ele>
        <time>2020-05-28T07:06:11.000Z</time>
      </trkpt>
      <trkpt lat="45.84416" lon="5.5238">
        <ele>1004</ele>
        <time>2020-05-28T07:06:13.000Z</time>
      </trkpt>
      <trkpt lat="45.84414" lon="5.52381">
        <ele>1004</ele>
        <time>2020-05-28T07:06:15.000Z</time>
      </trkpt>
      <trkpt lat="45.84412" lon="5.52383">
        <ele>1004</ele>
        <time>2020-05-28T07:06:17.000Z</time>
      </trkpt>
      <trkpt lat="45.8441" lon="5.52386">
        <ele>1004</ele>
        <time>2020-05-28T07:06:19.000Z</time>
      </trkpt>
      <trkpt lat="45.84408" lon="5.52388">
        <ele>1004</ele>
        <time>2020-05-28T07:06:21.000Z</time>
      </trkpt>
      <trkpt lat="45.84406" lon="5.52389">
        <ele>1004</ele>
        <time>2020-05-28T07:06:23.000Z</time>
      </trkpt>
      <trkpt lat="45.84404" lon="5.5239">
        <ele>1004</ele>
        <time>2020-05-28T07:06:25.000Z</time>
      </trkpt>
      <trkpt lat="45.84402" lon="5.52392">
        <ele>1004</ele>
        <time>2020-05-28T07:06:27.000Z</time>
      </trkpt>
      <trkpt lat="45.84401" lon="5.52395">
        <ele>1004</ele>
        <time>2020-05-28T07:06:29.000Z</time>
      </trkpt>
      <trkpt lat="45.84399" lon="5.52398">
        <ele>1004</ele>
        <time>2020-05-28T07:06:31.000Z</time>
      </trkpt>
      <trkpt lat="45.84397" lon="5.524">
        <ele>1004</ele>
        <time>2020-05-28T07:06:33.000Z</time>
      </trkpt>
      <trkpt lat="45.84396" lon="5.52402">
        <ele>1004</ele>
        <time>2020-05-28T07:06:34.000Z</time>
      </trkpt>
      <trkpt lat="45.84394" lon="5.52405">
        <ele>1004</ele>
        <time>2020-05-28T07:06:35.000Z</time>
      </trkpt>
      <trkpt lat="45.84392" lon="5.52407">
        <ele>1004</ele>
        <time>2020-05-28T07:06:37.000Z</time>
      </trkpt>
      <trkpt lat="45.8439" lon="5.52409">
        <ele>1004</ele>
        <time>2020-05-28T07:06:39.000Z</time>
      </trkpt>
      <trkpt lat="45.84388" lon="5.52412">
        <ele>1004</ele>
        <time>2020-05-28T07:06:41.000Z</time>
      </trkpt>
      <trkpt lat="45.84385" lon="5.52414">
        <ele>1004</ele>
        <time>2020-05-28T07:06:43.000Z</time>
      </trkpt>
      <trkpt lat="45.84383" lon="5.52416">
        <ele>1004</ele>
        <time>2020-05-28T07:06:45.000Z</time>
      </trkpt>
      <trkpt lat="45.84381" lon="5.52418">
        <ele>1003.99400064</ele>
        <time>2020-05-28T07:06:47.000Z</time>
      </trkpt>
      <trkpt lat="45.84379" lon="5.5242">
        <ele>1003.79400064</ele>
        <time>2020-05-28T07:06:49.000Z</time>
      </trkpt>
      <trkpt lat="45.84377" lon="5.52423">
        <ele>1003.59400064</ele>
        <time>2020-05-28T07:06:51.000Z</time>
      </trkpt>
      <trkpt lat="45.84374" lon="5.52425">
        <ele>1003.39400064</ele>
        <time>2020-05-28T07:06:53.000Z</time>
      </trkpt>
      <trkpt lat="45.84373" lon="5.52428">
        <ele>1003.19400064</ele>
        <time>2020-05-28T07:06:55.000Z</time>
      </trkpt>
      <trkpt lat="45.84371" lon="5.5243">
        <ele>1002.98800128</ele>
        <time>2020-05-28T07:06:57.000Z</time>
      </trkpt>
      <trkpt lat="45.84369" lon="5.52432">
        <ele>1002.58800128</ele>
        <time>2020-05-28T07:06:59.000Z</time>
      </trkpt>
      <trkpt lat="45.84367" lon="5.52435">
        <ele>1002.18800128</ele>
        <time>2020-05-28T07:07:01.000Z</time>
      </trkpt>
      <trkpt lat="45.84364" lon="5.52437">
        <ele>1001.78800128</ele>
        <time>2020-05-28T07:07:03.000Z</time>
      </trkpt>
      <trkpt lat="45.84362" lon="5.52439">
        <ele>1001.38800128</ele>
        <time>2020-05-28T07:07:05.000Z</time>
      </trkpt>
      <trkpt lat="45.8436" lon="5.52441">
        <ele>1001</ele>
        <time>2020-05-28T07:07:07.000Z</time>
      </trkpt>
      <trkpt lat="45.84358" lon="5.52443">
        <ele>1001</ele>
        <time>2020-05-28T07:07:09.000Z</time>
      </trkpt>
      <trkpt lat="45.84356" lon="5.52446">
        <ele>1001</ele>
        <time>2020-05-28T07:07:11.000Z</time>
      </trkpt>
      <trkpt lat="45.84354" lon="5.52448">
        <ele>1001</ele>
        <time>2020-05-28T07:07:13.000Z</time>
      </trkpt>
      <trkpt lat="45.84352" lon="5.52451">
        <ele>1001</ele>
        <time>2020-05-28T07:07:15.000Z</time>
      </trkpt>
      <trkpt lat="45.8435" lon="5.52453">
        <ele>1001</ele>
        <time>2020-05-28T07:07:17.000Z</time>
      </trkpt>
      <trkpt lat="45.84348" lon="5.52456">
        <ele>1000.6197047044</ele>
        <time>2020-05-28T07:07:19.000Z</time>
      </trkpt>
      <trkpt lat="45.84346" lon="5.52458">
        <ele>1000.2256156617</ele>
        <time>2020-05-28T07:07:21.000Z</time>
      </trkpt>
      <trkpt lat="45.84344" lon="5.5246">
        <ele>999.83152661898</ele>
        <time>2020-05-28T07:07:23.000Z</time>
      </trkpt>
      <trkpt lat="45.84342" lon="5.52462">
        <ele>999.4374375763</ele>
        <time>2020-05-28T07:07:25.000Z</time>
      </trkpt>
      <trkpt lat="45.84341" lon="5.52465">
        <ele>999.04334853361</ele>
        <time>2020-05-28T07:07:27.000Z</time>
      </trkpt>
      <trkpt lat="45.84339" lon="5.52467">
        <ele>998.8168720107</ele>
        <time>2020-05-28T07:07:29.000Z</time>
      </trkpt>
      <trkpt lat="45.84338" lon="5.52469">
        <ele>998.61111096479</ele>
        <time>2020-05-28T07:07:31.000Z</time>
      </trkpt>
      <trkpt lat="45.84336" lon="5.52471">
        <ele>998.40534991888</ele>
        <time>2020-05-28T07:07:33.000Z</time>
      </trkpt>
      <trkpt lat="45.84334" lon="5.52473">
        <ele>998.19958887297</ele>
        <time>2020-05-28T07:07:35.000Z</time>
      </trkpt>
      <trkpt lat="45.84332" lon="5.52474">
        <ele>997.99400064</ele>
        <time>2020-05-28T07:07:37.000Z</time>
      </trkpt>
      <trkpt lat="45.84329" lon="5.52476">
        <ele>997.79400064</ele>
        <time>2020-05-28T07:07:39.000Z</time>
      </trkpt>
      <trkpt lat="45.84327" lon="5.52478">
        <ele>997.59400064</ele>
        <time>2020-05-28T07:07:41.000Z</time>
      </trkpt>
      <trkpt lat="45.84325" lon="5.52479">
        <ele>997.39400064</ele>
        <time>2020-05-28T07:07:43.000Z</time>
      </trkpt>
      <trkpt lat="45.84323" lon="5.52481">
        <ele>997.19400064</ele>
        <time>2020-05-28T07:07:45.000Z</time>
      </trkpt>
      <trkpt lat="45.8432" lon="5.52483">
        <ele>996.99400064</ele>
        <time>2020-05-28T07:07:47.000Z</time>
      </trkpt>
      <trkpt lat="45.84318" lon="5.52485">
        <ele>996.79400064</ele>
        <time>2020-05-28T07:07:49.000Z</time>
      </trkpt>
      <trkpt lat="45.84316" lon="5.52487">
        <ele>996.59400064</ele>
        <time>2020-05-28T07:07:51.000Z</time>
      </trkpt>
      <trkpt lat="45.84314" lon="5.52489">
        <ele>996.39400064</ele>
        <time>2020-05-28T07:07:53.000Z</time>
      </trkpt>
      <trkpt lat="45.84311" lon="5.52491">
        <ele>996.19400064</ele>
        <time>2020-05-28T07:07:55.000Z</time>
      </trkpt>
      <trkpt lat="45.84309" lon="5.52494">
        <ele>996</ele>
        <time>2020-05-28T07:07:57.000Z</time>
      </trkpt>
      <trkpt lat="45.84307" lon="5.52496">
        <ele>996</ele>
        <time>2020-05-28T07:07:59.000Z</time>
      </trkpt>
      <trkpt lat="45.84305" lon="5.52499">
        <ele>996</ele>
        <time>2020-05-28T07:08:01.000Z</time>
      </trkpt>
      <trkpt lat="45.84303" lon="5.52501">
        <ele>996</ele>
        <time>2020-05-28T07:08:03.000Z</time>
      </trkpt>
      <trkpt lat="45.84302" lon="5.52503">
        <ele>996</ele>
        <time>2020-05-28T07:08:05.000Z</time>
      </trkpt>
      <trkpt lat="45.843" lon="5.52505">
        <ele>996</ele>
        <time>2020-05-28T07:08:07.000Z</time>
      </trkpt>
      <trkpt lat="45.84298" lon="5.52507">
        <ele>996</ele>
        <time>2020-05-28T07:08:09.000Z</time>
      </trkpt>
      <trkpt lat="45.84296" lon="5.52509">
        <ele>996</ele>
        <time>2020-05-28T07:08:11.000Z</time>
      </trkpt>
      <trkpt lat="45.84294" lon="5.52511">
        <ele>996</ele>
        <time>2020-05-28T07:08:13.000Z</time>
      </trkpt>
      <trkpt lat="45.84292" lon="5.52513">
        <ele>996</ele>
        <time>2020-05-28T07:08:15.000Z</time>
      </trkpt>
      <trkpt lat="45.8429" lon="5.52515">
        <ele>996</ele>
        <time>2020-05-28T07:08:17.000Z</time>
      </trkpt>
      <trkpt lat="45.84288" lon="5.52517">
        <ele>996</ele>
        <time>2020-05-28T07:08:19.000Z</time>
      </trkpt>
      <trkpt lat="45.84285" lon="5.52519">
        <ele>996</ele>
        <time>2020-05-28T07:08:21.000Z</time>
      </trkpt>
      <trkpt lat="45.84283" lon="5.52521">
        <ele>996</ele>
        <time>2020-05-28T07:08:23.000Z</time>
      </trkpt>
      <trkpt lat="45.84281" lon="5.52523">
        <ele>996</ele>
        <time>2020-05-28T07:08:25.000Z</time>
      </trkpt>
      <trkpt lat="45.84279" lon="5.52524">
        <ele>996</ele>
        <time>2020-05-28T07:08:27.000Z</time>
      </trkpt>
      <trkpt lat="45.84277" lon="5.52526">
        <ele>995.80040387097</ele>
        <time>2020-05-28T07:08:29.000Z</time>
      </trkpt>
      <trkpt lat="45.84275" lon="5.52528">
        <ele>995.59879096774</ele>
        <time>2020-05-28T07:08:31.000Z</time>
      </trkpt>
      <trkpt lat="45.84273" lon="5.5253">
        <ele>995.39717806452</ele>
        <time>2020-05-28T07:08:33.000Z</time>
      </trkpt>
      <trkpt lat="45.84271" lon="5.52532">
        <ele>995.19556516129</ele>
        <time>2020-05-28T07:08:35.000Z</time>
      </trkpt>
      <trkpt lat="45.84269" lon="5.52534">
        <ele>994.99400064</ele>
        <time>2020-05-28T07:08:37.000Z</time>
      </trkpt>
      <trkpt lat="45.84266" lon="5.52537">
        <ele>994.79400064</ele>
        <time>2020-05-28T07:08:39.000Z</time>
      </trkpt>
      <trkpt lat="45.84264" lon="5.5254">
        <ele>994.59400064</ele>
        <time>2020-05-28T07:08:41.000Z</time>
      </trkpt>
      <trkpt lat="45.84262" lon="5.52542">
        <ele>994.39400064</ele>
        <time>2020-05-28T07:08:43.000Z</time>
      </trkpt>
      <trkpt lat="45.84259" lon="5.52545">
        <ele>994.19400064</ele>
        <time>2020-05-28T07:08:45.000Z</time>
      </trkpt>
      <trkpt lat="45.84257" lon="5.52547">
        <ele>993.99405356234</ele>
        <time>2020-05-28T07:08:47.000Z</time>
      </trkpt>
      <trkpt lat="45.84254" lon="5.5255">
        <ele>993.79581782866</ele>
        <time>2020-05-28T07:08:49.000Z</time>
      </trkpt>
      <trkpt lat="45.84252" lon="5.52552">
        <ele>993.59758209497</ele>
        <time>2020-05-28T07:08:51.000Z</time>
      </trkpt>
      <trkpt lat="45.8425" lon="5.52554">
        <ele>993.39934636128</ele>
        <time>2020-05-28T07:08:53.000Z</time>
      </trkpt>
      <trkpt lat="45.84247" lon="5.52557">
        <ele>993.20111062759</ele>
        <time>2020-05-28T07:08:55.000Z</time>
      </trkpt>
      <trkpt lat="45.84245" lon="5.52559">
        <ele>993.0028748939</ele>
        <time>2020-05-28T07:08:57.000Z</time>
      </trkpt>
      <trkpt lat="45.84243" lon="5.52561">
        <ele>992.80092952302</ele>
        <time>2020-05-28T07:08:59.000Z</time>
      </trkpt>
      <trkpt lat="45.84241" lon="5.52563">
        <ele>992.59892956181</ele>
        <time>2020-05-28T07:09:01.000Z</time>
      </trkpt>
      <trkpt lat="45.84239" lon="5.52565">
        <ele>992.39692960059</ele>
        <time>2020-05-28T07:09:03.000Z</time>
      </trkpt>
      <trkpt lat="45.84236" lon="5.52567">
        <ele>992.19492963937</ele>
        <time>2020-05-28T07:09:05.000Z</time>
      </trkpt>
      <trkpt lat="45.84234" lon="5.52569">
        <ele>992</ele>
        <time>2020-05-28T07:09:07.000Z</time>
      </trkpt>
      <trkpt lat="45.84232" lon="5.52571">
        <ele>992</ele>
        <time>2020-05-28T07:09:09.000Z</time>
      </trkpt>
      <trkpt lat="45.8423" lon="5.52573">
        <ele>992</ele>
        <time>2020-05-28T07:09:11.000Z</time>
      </trkpt>
      <trkpt lat="45.84228" lon="5.52575">
        <ele>992</ele>
        <time>2020-05-28T07:09:13.000Z</time>
      </trkpt>
      <trkpt lat="45.84226" lon="5.52577">
        <ele>992</ele>
        <time>2020-05-28T07:09:15.000Z</time>
      </trkpt>
      <trkpt lat="45.84225" lon="5.5258">
        <ele>991.98599936</ele>
        <time>2020-05-28T07:09:17.000Z</time>
      </trkpt>
      <trkpt lat="45.84223" lon="5.52582">
        <ele>991.58599936</ele>
        <time>2020-05-28T07:09:19.000Z</time>
      </trkpt>
      <trkpt lat="45.84221" lon="5.52584">
        <ele>991.18599936</ele>
        <time>2020-05-28T07:09:21.000Z</time>
      </trkpt>
      <trkpt lat="45.8422" lon="5.52586">
        <ele>990.78599936</ele>
        <time>2020-05-28T07:09:23.000Z</time>
      </trkpt>
      <trkpt lat="45.84218" lon="5.52588">
        <ele>990.38599936</ele>
        <time>2020-05-28T07:09:25.000Z</time>
      </trkpt>
      <trkpt lat="45.84217" lon="5.52591">
        <ele>989.99307584789</ele>
        <time>2020-05-28T07:09:27.000Z</time>
      </trkpt>
      <trkpt lat="45.84215" lon="5.52593">
        <ele>989.79525197381</ele>
        <time>2020-05-28T07:09:29.000Z</time>
      </trkpt>
      <trkpt lat="45.84214" lon="5.52594">
        <ele>989.59742809973</ele>
        <time>2020-05-28T07:09:31.000Z</time>
      </trkpt>
      <trkpt lat="45.84212" lon="5.52596">
        <ele>989.39960422565</ele>
        <time>2020-05-28T07:09:33.000Z</time>
      </trkpt>
      <trkpt lat="45.8421" lon="5.52598">
        <ele>989.20178035156</ele>
        <time>2020-05-28T07:09:35.000Z</time>
      </trkpt>
      <trkpt lat="45.84209" lon="5.52599">
        <ele>989.00395647748</ele>
        <time>2020-05-28T07:09:37.000Z</time>
      </trkpt>
      <trkpt lat="45.84207" lon="5.52601">
        <ele>988.6036399122</ele>
        <time>2020-05-28T07:09:39.000Z</time>
      </trkpt>
      <trkpt lat="45.84206" lon="5.52603">
        <ele>988.19919084301</ele>
        <time>2020-05-28T07:09:41.000Z</time>
      </trkpt>
      <trkpt lat="45.84204" lon="5.52604">
        <ele>987.79474177383</ele>
        <time>2020-05-28T07:09:43.000Z</time>
      </trkpt>
      <trkpt lat="45.84203" lon="5.52606">
        <ele>987.18806817005</ele>
        <time>2020-05-28T07:09:46.000Z</time>
      </trkpt>
      <trkpt lat="45.84201" lon="5.52608">
        <ele>986.58599936</ele>
        <time>2020-05-28T07:09:49.000Z</time>
      </trkpt>
      <trkpt lat="45.84199" lon="5.5261">
        <ele>985.98599936</ele>
        <time>2020-05-28T07:09:52.000Z</time>
      </trkpt>
      <trkpt lat="45.84197" lon="5.52612">
        <ele>985.38599936</ele>
        <time>2020-05-28T07:09:55.000Z</time>
      </trkpt>
      <trkpt lat="45.84196" lon="5.52614">
        <ele>984.99299968</ele>
        <time>2020-05-28T07:09:57.000Z</time>
      </trkpt>
      <trkpt lat="45.84194" lon="5.52617">
        <ele>984.69299968</ele>
        <time>2020-05-28T07:10:00.000Z</time>
      </trkpt>
      <trkpt lat="45.84192" lon="5.52619">
        <ele>984.49299968</ele>
        <time>2020-05-28T07:10:02.000Z</time>
      </trkpt>
      <trkpt lat="45.8419" lon="5.5262">
        <ele>984.29299968</ele>
        <time>2020-05-28T07:10:04.000Z</time>
      </trkpt>
      <trkpt lat="45.84188" lon="5.52622">
        <ele>984.09299968</ele>
        <time>2020-05-28T07:10:06.000Z</time>
      </trkpt>
      <trkpt lat="45.84186" lon="5.52623">
        <ele>983.8942684585</ele>
        <time>2020-05-28T07:10:08.000Z</time>
      </trkpt>
      <trkpt lat="45.84184" lon="5.52624">
        <ele>983.69664</ele>
        <time>2020-05-28T07:10:10.000Z</time>
      </trkpt>
      <trkpt lat="45.84181" lon="5.52626">
        <ele>983.4990115415</ele>
        <time>2020-05-28T07:10:12.000Z</time>
      </trkpt>
      <trkpt lat="45.84179" lon="5.52627">
        <ele>983.301383083</ele>
        <time>2020-05-28T07:10:14.000Z</time>
      </trkpt>
      <trkpt lat="45.84177" lon="5.52629">
        <ele>983.10375462451</ele>
        <time>2020-05-28T07:10:16.000Z</time>
      </trkpt>
      <trkpt lat="45.84174" lon="5.52631">
        <ele>982.90384582996</ele>
        <time>2020-05-28T07:10:18.000Z</time>
      </trkpt>
      <trkpt lat="45.84172" lon="5.52632">
        <ele>982.70141668016</ele>
        <time>2020-05-28T07:10:20.000Z</time>
      </trkpt>
      <trkpt lat="45.8417" lon="5.52634">
        <ele>982.49898753036</ele>
        <time>2020-05-28T07:10:22.000Z</time>
      </trkpt>
      <trkpt lat="45.84169" lon="5.52636">
        <ele>982.29655838057</ele>
        <time>2020-05-28T07:10:24.000Z</time>
      </trkpt>
      <trkpt lat="45.84167" lon="5.52638">
        <ele>982.09412923077</ele>
        <time>2020-05-28T07:10:26.000Z</time>
      </trkpt>
      <trkpt lat="45.84165" lon="5.5264">
        <ele>981.89721400449</ele>
        <time>2020-05-28T07:10:28.000Z</time>
      </trkpt>
      <trkpt lat="45.84163" lon="5.52642">
        <ele>981.70509122297</ele>
        <time>2020-05-28T07:10:30.000Z</time>
      </trkpt>
      <trkpt lat="45.84161" lon="5.52644">
        <ele>981.51296844145</ele>
        <time>2020-05-28T07:10:32.000Z</time>
      </trkpt>
      <trkpt lat="45.84159" lon="5.52645">
        <ele>981.32084565993</ele>
        <time>2020-05-28T07:10:34.000Z</time>
      </trkpt>
      <trkpt lat="45.84158" lon="5.52646">
        <ele>981.12872287841</ele>
        <time>2020-05-28T07:10:36.000Z</time>
      </trkpt>
      <trkpt lat="45.84156" lon="5.52647">
        <ele>981.06882109079</ele>
        <time>2020-05-28T07:10:38.000Z</time>
      </trkpt>
      <trkpt lat="45.84154" lon="5.52649">
        <ele>981.27737187307</ele>
        <time>2020-05-28T07:10:40.000Z</time>
      </trkpt>
      <trkpt lat="45.84153" lon="5.52652">
        <ele>981.48592265536</ele>
        <time>2020-05-28T07:10:42.000Z</time>
      </trkpt>
      <trkpt lat="45.84151" lon="5.52654">
        <ele>981.69447343764</ele>
        <time>2020-05-28T07:10:44.000Z</time>
      </trkpt>
      <trkpt lat="45.84149" lon="5.52656">
        <ele>981.90302421992</ele>
        <time>2020-05-28T07:10:46.000Z</time>
      </trkpt>
      <trkpt lat="45.84148" lon="5.52659">
        <ele>982</ele>
        <time>2020-05-28T07:10:48.000Z</time>
      </trkpt>
      <trkpt lat="45.84145" lon="5.52661">
        <ele>982</ele>
        <time>2020-05-28T07:10:50.000Z</time>
      </trkpt>
      <trkpt lat="45.84143" lon="5.52663">
        <ele>982</ele>
        <time>2020-05-28T07:10:52.000Z</time>
      </trkpt>
      <trkpt lat="45.84141" lon="5.52665">
        <ele>982</ele>
        <time>2020-05-28T07:10:54.000Z</time>
      </trkpt>
      <trkpt lat="45.84139" lon="5.52667">
        <ele>982</ele>
        <time>2020-05-28T07:10:56.000Z</time>
      </trkpt>
      <trkpt lat="45.84137" lon="5.52669">
        <ele>982</ele>
        <time>2020-05-28T07:10:58.000Z</time>
      </trkpt>
      <trkpt lat="45.84135" lon="5.52671">
        <ele>982</ele>
        <time>2020-05-28T07:11:00.000Z</time>
      </trkpt>
      <trkpt lat="45.84133" lon="5.52673">
        <ele>982</ele>
        <time>2020-05-28T07:11:02.000Z</time>
      </trkpt>
      <trkpt lat="45.84131" lon="5.52676">
        <ele>982</ele>
        <time>2020-05-28T07:11:04.000Z</time>
      </trkpt>
      <trkpt lat="45.8413" lon="5.52678">
        <ele>982</ele>
        <time>2020-05-28T07:11:06.000Z</time>
      </trkpt>
      <trkpt lat="45.84128" lon="5.5268">
        <ele>982.10521162143</ele>
        <time>2020-05-28T07:11:08.000Z</time>
      </trkpt>
      <trkpt lat="45.84127" lon="5.52683">
        <ele>982.30186826962</ele>
        <time>2020-05-28T07:11:10.000Z</time>
      </trkpt>
      <trkpt lat="45.84125" lon="5.52685">
        <ele>982.49852491781</ele>
        <time>2020-05-28T07:11:12.000Z</time>
      </trkpt>
      <trkpt lat="45.84123" lon="5.52687">
        <ele>982.695181566</ele>
        <time>2020-05-28T07:11:14.000Z</time>
      </trkpt>
      <trkpt lat="45.84121" lon="5.5269">
        <ele>982.89183821419</ele>
        <time>2020-05-28T07:11:16.000Z</time>
      </trkpt>
      <trkpt lat="45.84119" lon="5.52692">
        <ele>983</ele>
        <time>2020-05-28T07:11:18.000Z</time>
      </trkpt>
      <trkpt lat="45.84117" lon="5.52695">
        <ele>983</ele>
        <time>2020-05-28T07:11:20.000Z</time>
      </trkpt>
      <trkpt lat="45.84115" lon="5.52697">
        <ele>983</ele>
        <time>2020-05-28T07:11:22.000Z</time>
      </trkpt>
      <trkpt lat="45.84114" lon="5.52698">
        <ele>983</ele>
        <time>2020-05-28T07:11:24.000Z</time>
      </trkpt>
      <trkpt lat="45.84112" lon="5.527">
        <ele>983</ele>
        <time>2020-05-28T07:11:26.000Z</time>
      </trkpt>
      <trkpt lat="45.8411" lon="5.52702">
        <ele>983</ele>
        <time>2020-05-28T07:11:28.000Z</time>
      </trkpt>
      <trkpt lat="45.84108" lon="5.52704">
        <ele>983</ele>
        <time>2020-05-28T07:11:30.000Z</time>
      </trkpt>
      <trkpt lat="45.84106" lon="5.52707">
        <ele>983</ele>
        <time>2020-05-28T07:11:32.000Z</time>
      </trkpt>
      <trkpt lat="45.84104" lon="5.5271">
        <ele>983</ele>
        <time>2020-05-28T07:11:34.000Z</time>
      </trkpt>
      <trkpt lat="45.84101" lon="5.52712">
        <ele>983</ele>
        <time>2020-05-28T07:11:36.000Z</time>
      </trkpt>
      <trkpt lat="45.84099" lon="5.52714">
        <ele>983</ele>
        <time>2020-05-28T07:11:38.000Z</time>
      </trkpt>
      <trkpt lat="45.84097" lon="5.52717">
        <ele>983</ele>
        <time>2020-05-28T07:11:40.000Z</time>
      </trkpt>
      <trkpt lat="45.84095" lon="5.52719">
        <ele>983</ele>
        <time>2020-05-28T07:11:42.000Z</time>
      </trkpt>
      <trkpt lat="45.84093" lon="5.52721">
        <ele>983</ele>
        <time>2020-05-28T07:11:44.000Z</time>
      </trkpt>
      <trkpt lat="45.84091" lon="5.52724">
        <ele>983</ele>
        <time>2020-05-28T07:11:46.000Z</time>
      </trkpt>
      <trkpt lat="45.84089" lon="5.52726">
        <ele>982.90384582996</ele>
        <time>2020-05-28T07:11:48.000Z</time>
      </trkpt>
      <trkpt lat="45.84087" lon="5.52729">
        <ele>982.70141668016</ele>
        <time>2020-05-28T07:11:50.000Z</time>
      </trkpt>
      <trkpt lat="45.84086" lon="5.52732">
        <ele>982.49898753036</ele>
        <time>2020-05-28T07:11:52.000Z</time>
      </trkpt>
      <trkpt lat="45.84084" lon="5.52734">
        <ele>982.19534380567</ele>
        <time>2020-05-28T07:11:55.000Z</time>
      </trkpt>
      <trkpt lat="45.84082" lon="5.52735">
        <ele>981.98609668764</ele>
        <time>2020-05-28T07:11:57.000Z</time>
      </trkpt>
      <trkpt lat="45.8408" lon="5.52737">
        <ele>981.58887735011</ele>
        <time>2020-05-28T07:11:59.000Z</time>
      </trkpt>
      <trkpt lat="45.84079" lon="5.52739">
        <ele>981.19165801258</ele>
        <time>2020-05-28T07:12:01.000Z</time>
      </trkpt>
      <trkpt lat="45.84077" lon="5.52741">
        <ele>980.79443867505</ele>
        <time>2020-05-28T07:12:03.000Z</time>
      </trkpt>
      <trkpt lat="45.84075" lon="5.52743">
        <ele>980.39721933753</ele>
        <time>2020-05-28T07:12:05.000Z</time>
      </trkpt>
      <trkpt lat="45.84074" lon="5.52745">
        <ele>980</ele>
        <time>2020-05-28T07:12:07.000Z</time>
      </trkpt>
      <trkpt lat="45.84072" lon="5.52747">
        <ele>980</ele>
        <time>2020-05-28T07:12:09.000Z</time>
      </trkpt>
      <trkpt lat="45.8407" lon="5.5275">
        <ele>980</ele>
        <time>2020-05-28T07:12:11.000Z</time>
      </trkpt>
      <trkpt lat="45.84068" lon="5.52752">
        <ele>980</ele>
        <time>2020-05-28T07:12:13.000Z</time>
      </trkpt>
      <trkpt lat="45.84066" lon="5.52755">
        <ele>980</ele>
        <time>2020-05-28T07:12:15.000Z</time>
      </trkpt>
      <trkpt lat="45.84064" lon="5.52757">
        <ele>979.99397526104</ele>
        <time>2020-05-28T07:12:17.000Z</time>
      </trkpt>
      <trkpt lat="45.84063" lon="5.52759">
        <ele>979.59236883534</ele>
        <time>2020-05-28T07:12:19.000Z</time>
      </trkpt>
      <trkpt lat="45.84061" lon="5.52762">
        <ele>979.19076240964</ele>
        <time>2020-05-28T07:12:21.000Z</time>
      </trkpt>
      <trkpt lat="45.84059" lon="5.52764">
        <ele>978.78915598394</ele>
        <time>2020-05-28T07:12:23.000Z</time>
      </trkpt>
      <trkpt lat="45.84057" lon="5.52767">
        <ele>978.38754955823</ele>
        <time>2020-05-28T07:12:25.000Z</time>
      </trkpt>
      <trkpt lat="45.84055" lon="5.52769">
        <ele>977.99300668003</ele>
        <time>2020-05-28T07:12:27.000Z</time>
      </trkpt>
      <trkpt lat="45.84052" lon="5.52771">
        <ele>977.79320667185</ele>
        <time>2020-05-28T07:12:29.000Z</time>
      </trkpt>
      <trkpt lat="45.8405" lon="5.52773">
        <ele>977.59340666367</ele>
        <time>2020-05-28T07:12:31.000Z</time>
      </trkpt>
      <trkpt lat="45.84047" lon="5.52775">
        <ele>977.39360665548</ele>
        <time>2020-05-28T07:12:33.000Z</time>
      </trkpt>
      <trkpt lat="45.84045" lon="5.52776">
        <ele>977.1938066473</ele>
        <time>2020-05-28T07:12:35.000Z</time>
      </trkpt>
      <trkpt lat="45.84043" lon="5.52778">
        <ele>977</ele>
        <time>2020-05-28T07:12:37.000Z</time>
      </trkpt>
      <trkpt lat="45.84042" lon="5.5278">
        <ele>977</ele>
        <time>2020-05-28T07:12:39.000Z</time>
      </trkpt>
      <trkpt lat="45.8404" lon="5.52783">
        <ele>977</ele>
        <time>2020-05-28T07:12:41.000Z</time>
      </trkpt>
      <trkpt lat="45.84038" lon="5.52785">
        <ele>977</ele>
        <time>2020-05-28T07:12:43.000Z</time>
      </trkpt>
      <trkpt lat="45.84036" lon="5.52787">
        <ele>977</ele>
        <time>2020-05-28T07:12:45.000Z</time>
      </trkpt>
      <trkpt lat="45.84034" lon="5.5279">
        <ele>977</ele>
        <time>2020-05-28T07:12:47.000Z</time>
      </trkpt>
      <trkpt lat="45.84032" lon="5.52792">
        <ele>977</ele>
        <time>2020-05-28T07:12:49.000Z</time>
      </trkpt>
      <trkpt lat="45.8403" lon="5.52794">
        <ele>977</ele>
        <time>2020-05-28T07:12:51.000Z</time>
      </trkpt>
      <trkpt lat="45.84028" lon="5.52797">
        <ele>977</ele>
        <time>2020-05-28T07:12:53.000Z</time>
      </trkpt>
      <trkpt lat="45.84027" lon="5.528">
        <ele>977</ele>
        <time>2020-05-28T07:12:55.000Z</time>
      </trkpt>
      <trkpt lat="45.84025" lon="5.52802">
        <ele>977</ele>
        <time>2020-05-28T07:12:57.000Z</time>
      </trkpt>
      <trkpt lat="45.84023" lon="5.52805">
        <ele>977</ele>
        <time>2020-05-28T07:12:59.000Z</time>
      </trkpt>
      <trkpt lat="45.84021" lon="5.52807">
        <ele>977</ele>
        <time>2020-05-28T07:13:01.000Z</time>
      </trkpt>
      <trkpt lat="45.84019" lon="5.52809">
        <ele>977</ele>
        <time>2020-05-28T07:13:03.000Z</time>
      </trkpt>
      <trkpt lat="45.84017" lon="5.52812">
        <ele>977</ele>
        <time>2020-05-28T07:13:05.000Z</time>
      </trkpt>
      <trkpt lat="45.84016" lon="5.52814">
        <ele>977</ele>
        <time>2020-05-28T07:13:07.000Z</time>
      </trkpt>
      <trkpt lat="45.84014" lon="5.52816">
        <ele>977</ele>
        <time>2020-05-28T07:13:09.000Z</time>
      </trkpt>
      <trkpt lat="45.84012" lon="5.52819">
        <ele>977</ele>
        <time>2020-05-28T07:13:11.000Z</time>
      </trkpt>
      <trkpt lat="45.8401" lon="5.52822">
        <ele>977</ele>
        <time>2020-05-28T07:13:13.000Z</time>
      </trkpt>
      <trkpt lat="45.84009" lon="5.52824">
        <ele>977</ele>
        <time>2020-05-28T07:13:15.000Z</time>
      </trkpt>
      <trkpt lat="45.84007" lon="5.52827">
        <ele>977</ele>
        <time>2020-05-28T07:13:17.000Z</time>
      </trkpt>
      <trkpt lat="45.84005" lon="5.52829">
        <ele>977</ele>
        <time>2020-05-28T07:13:19.000Z</time>
      </trkpt>
      <trkpt lat="45.84002" lon="5.52831">
        <ele>977</ele>
        <time>2020-05-28T07:13:21.000Z</time>
      </trkpt>
      <trkpt lat="45.84" lon="5.52833">
        <ele>977</ele>
        <time>2020-05-28T07:13:23.000Z</time>
      </trkpt>
      <trkpt lat="45.83998" lon="5.52836">
        <ele>977</ele>
        <time>2020-05-28T07:13:25.000Z</time>
      </trkpt>
      <trkpt lat="45.83996" lon="5.52838">
        <ele>977</ele>
        <time>2020-05-28T07:13:27.000Z</time>
      </trkpt>
      <trkpt lat="45.83995" lon="5.5284">
        <ele>977</ele>
        <time>2020-05-28T07:13:29.000Z</time>
      </trkpt>
      <trkpt lat="45.83993" lon="5.52842">
        <ele>977</ele>
        <time>2020-05-28T07:13:31.000Z</time>
      </trkpt>
      <trkpt lat="45.83991" lon="5.52843">
        <ele>977</ele>
        <time>2020-05-28T07:13:33.000Z</time>
      </trkpt>
      <trkpt lat="45.83989" lon="5.52845">
        <ele>977</ele>
        <time>2020-05-28T07:13:35.000Z</time>
      </trkpt>
      <trkpt lat="45.83987" lon="5.52847">
        <ele>977</ele>
        <time>2020-05-28T07:13:37.000Z</time>
      </trkpt>
      <trkpt lat="45.83986" lon="5.52849">
        <ele>977</ele>
        <time>2020-05-28T07:13:39.000Z</time>
      </trkpt>
      <trkpt lat="45.83983" lon="5.52852">
        <ele>977</ele>
        <time>2020-05-28T07:13:41.000Z</time>
      </trkpt>
      <trkpt lat="45.83982" lon="5.52854">
        <ele>977</ele>
        <time>2020-05-28T07:13:43.000Z</time>
      </trkpt>
      <trkpt lat="45.8398" lon="5.52856">
        <ele>977</ele>
        <time>2020-05-28T07:13:45.000Z</time>
      </trkpt>
      <trkpt lat="45.83978" lon="5.52858">
        <ele>977</ele>
        <time>2020-05-28T07:13:47.000Z</time>
      </trkpt>
      <trkpt lat="45.83976" lon="5.5286">
        <ele>977</ele>
        <time>2020-05-28T07:13:49.000Z</time>
      </trkpt>
      <trkpt lat="45.83974" lon="5.52862">
        <ele>977</ele>
        <time>2020-05-28T07:13:51.000Z</time>
      </trkpt>
      <trkpt lat="45.83973" lon="5.52864">
        <ele>977</ele>
        <time>2020-05-28T07:13:53.000Z</time>
      </trkpt>
      <trkpt lat="45.83971" lon="5.52865">
        <ele>977</ele>
        <time>2020-05-28T07:13:55.000Z</time>
      </trkpt>
      <trkpt lat="45.8397" lon="5.52867">
        <ele>976.99299968</ele>
        <time>2020-05-28T07:13:57.000Z</time>
      </trkpt>
      <trkpt lat="45.83968" lon="5.5287">
        <ele>976.79299968</ele>
        <time>2020-05-28T07:13:59.000Z</time>
      </trkpt>
      <trkpt lat="45.83967" lon="5.52872">
        <ele>976.59299968</ele>
        <time>2020-05-28T07:14:01.000Z</time>
      </trkpt>
      <trkpt lat="45.83965" lon="5.52875">
        <ele>976.39299968</ele>
        <time>2020-05-28T07:14:03.000Z</time>
      </trkpt>
      <trkpt lat="45.83963" lon="5.52878">
        <ele>976.19299968</ele>
        <time>2020-05-28T07:14:05.000Z</time>
      </trkpt>
      <trkpt lat="45.83962" lon="5.52881">
        <ele>976</ele>
        <time>2020-05-28T07:14:07.000Z</time>
      </trkpt>
      <trkpt lat="45.83961" lon="5.52884">
        <ele>976</ele>
        <time>2020-05-28T07:14:09.000Z</time>
      </trkpt>
      <trkpt lat="45.83959" lon="5.52887">
        <ele>976</ele>
        <time>2020-05-28T07:14:11.000Z</time>
      </trkpt>
      <trkpt lat="45.83938" lon="5.52935">
        <ele>935.2</ele>
      </trkpt>
      <trkpt lat="45.83936" lon="5.52938">
        <ele>951.79998779297</ele>
        <time>2020-05-28T07:15:26.000Z</time>
      </trkpt>
      <trkpt lat="45.83936" lon="5.52938">
        <ele>951.79998779297</ele>
        <time>2020-05-28T07:15:26.000Z</time>
      </trkpt>
      <trkpt lat="45.83934" lon="5.52939">
        <ele>977</ele>
        <time>2020-05-28T07:15:45.000Z</time>
      </trkpt>
      <trkpt lat="45.83932" lon="5.52941">
        <ele>977</ele>
        <time>2020-05-28T07:15:47.000Z</time>
      </trkpt>
      <trkpt lat="45.8393" lon="5.52943">
        <ele>977</ele>
        <time>2020-05-28T07:15:49.000Z</time>
      </trkpt>
      <trkpt lat="45.83928" lon="5.52944">
        <ele>976.38099968</ele>
        <time>2020-05-28T07:16:01.000Z</time>
      </trkpt>
      <trkpt lat="45.83925" lon="5.52946">
        <ele>976.08099968</ele>
        <time>2020-05-28T07:16:04.000Z</time>
      </trkpt>
      <trkpt lat="45.83923" lon="5.52949">
        <ele>976</ele>
        <time>2020-05-28T07:16:07.000Z</time>
      </trkpt>
      <trkpt lat="45.83921" lon="5.5295">
        <ele>976</ele>
        <time>2020-05-28T07:16:09.000Z</time>
      </trkpt>
      <trkpt lat="45.83919" lon="5.52952">
        <ele>976</ele>
        <time>2020-05-28T07:16:11.000Z</time>
      </trkpt>
      <trkpt lat="45.83917" lon="5.52955">
        <ele>976</ele>
        <time>2020-05-28T07:16:13.000Z</time>
      </trkpt>
      <trkpt lat="45.83915" lon="5.52957">
        <ele>976</ele>
        <time>2020-05-28T07:16:15.000Z</time>
      </trkpt>
      <trkpt lat="45.83912" lon="5.52958">
        <ele>976</ele>
        <time>2020-05-28T07:16:17.000Z</time>
      </trkpt>
      <trkpt lat="45.8391" lon="5.5296">
        <ele>976</ele>
        <time>2020-05-28T07:16:19.000Z</time>
      </trkpt>
      <trkpt lat="45.83908" lon="5.52962">
        <ele>976</ele>
        <time>2020-05-28T07:16:21.000Z</time>
      </trkpt>
      <trkpt lat="45.83906" lon="5.52964">
        <ele>976</ele>
        <time>2020-05-28T07:16:23.000Z</time>
      </trkpt>
      <trkpt lat="45.83904" lon="5.52966">
        <ele>976</ele>
        <time>2020-05-28T07:16:25.000Z</time>
      </trkpt>
      <trkpt lat="45.83902" lon="5.52968">
        <ele>976</ele>
        <time>2020-05-28T07:16:27.000Z</time>
      </trkpt>
      <trkpt lat="45.83901" lon="5.5297">
        <ele>976</ele>
        <time>2020-05-28T07:16:29.000Z</time>
      </trkpt>
      <trkpt lat="45.83899" lon="5.52973">
        <ele>976</ele>
        <time>2020-05-28T07:16:31.000Z</time>
      </trkpt>
      <trkpt lat="45.83897" lon="5.52975">
        <ele>976</ele>
        <time>2020-05-28T07:16:33.000Z</time>
      </trkpt>
      <trkpt lat="45.83895" lon="5.52977">
        <ele>976</ele>
        <time>2020-05-28T07:16:35.000Z</time>
      </trkpt>
      <trkpt lat="45.83894" lon="5.5298">
        <ele>976</ele>
        <time>2020-05-28T07:16:37.000Z</time>
      </trkpt>
      <trkpt lat="45.83892" lon="5.52982">
        <ele>976</ele>
        <time>2020-05-28T07:16:39.000Z</time>
      </trkpt>
      <trkpt lat="45.8389" lon="5.52985">
        <ele>976</ele>
        <time>2020-05-28T07:16:41.000Z</time>
      </trkpt>
      <trkpt lat="45.83888" lon="5.52987">
        <ele>976</ele>
        <time>2020-05-28T07:16:43.000Z</time>
      </trkpt>
      <trkpt lat="45.83887" lon="5.5299">
        <ele>975.98395185042</ele>
        <time>2020-05-28T07:16:45.000Z</time>
      </trkpt>
      <trkpt lat="45.83885" lon="5.52992">
        <ele>975.78334998061</ele>
        <time>2020-05-28T07:16:47.000Z</time>
      </trkpt>
      <trkpt lat="45.83883" lon="5.52994">
        <ele>975.58274811081</ele>
        <time>2020-05-28T07:16:49.000Z</time>
      </trkpt>
      <trkpt lat="45.83881" lon="5.52996">
        <ele>975.38214624101</ele>
        <time>2020-05-28T07:16:51.000Z</time>
      </trkpt>
      <trkpt lat="45.83879" lon="5.52998">
        <ele>975.18154437121</ele>
        <time>2020-05-28T07:16:53.000Z</time>
      </trkpt>
      <trkpt lat="45.83876" lon="5.53">
        <ele>974.98099968</ele>
        <time>2020-05-28T07:16:55.000Z</time>
      </trkpt>
      <trkpt lat="45.83874" lon="5.53002">
        <ele>974.78099968</ele>
        <time>2020-05-28T07:16:57.000Z</time>
      </trkpt>
      <trkpt lat="45.83872" lon="5.53004">
        <ele>974.58099968</ele>
        <time>2020-05-28T07:16:59.000Z</time>
      </trkpt>
      <trkpt lat="45.8387" lon="5.53006">
        <ele>974.38099968</ele>
        <time>2020-05-28T07:17:01.000Z</time>
      </trkpt>
      <trkpt lat="45.83868" lon="5.53008">
        <ele>974.18099968</ele>
        <time>2020-05-28T07:17:03.000Z</time>
      </trkpt>
      <trkpt lat="45.83865" lon="5.5301">
        <ele>974</ele>
        <time>2020-05-28T07:17:05.000Z</time>
      </trkpt>
      <trkpt lat="45.83863" lon="5.53011">
        <ele>974</ele>
        <time>2020-05-28T07:17:07.000Z</time>
      </trkpt>
      <trkpt lat="45.83861" lon="5.53013">
        <ele>974</ele>
        <time>2020-05-28T07:17:09.000Z</time>
      </trkpt>
      <trkpt lat="45.83859" lon="5.53014">
        <ele>974</ele>
        <time>2020-05-28T07:17:11.000Z</time>
      </trkpt>
      <trkpt lat="45.83857" lon="5.53015">
        <ele>974</ele>
        <time>2020-05-28T07:17:13.000Z</time>
      </trkpt>
      <trkpt lat="45.83855" lon="5.53017">
        <ele>973.98099968</ele>
        <time>2020-05-28T07:17:15.000Z</time>
      </trkpt>
      <trkpt lat="45.83852" lon="5.53019">
        <ele>973.78099968</ele>
        <time>2020-05-28T07:17:17.000Z</time>
      </trkpt>
      <trkpt lat="45.8385" lon="5.53021">
        <ele>973.58099968</ele>
        <time>2020-05-28T07:17:19.000Z</time>
      </trkpt>
      <trkpt lat="45.83849" lon="5.53024">
        <ele>973.38099968</ele>
        <time>2020-05-28T07:17:21.000Z</time>
      </trkpt>
      <trkpt lat="45.83847" lon="5.53027">
        <ele>973.18099968</ele>
        <time>2020-05-28T07:17:23.000Z</time>
      </trkpt>
      <trkpt lat="45.83845" lon="5.53029">
        <ele>973</ele>
        <time>2020-05-28T07:17:25.000Z</time>
      </trkpt>
      <trkpt lat="45.83843" lon="5.53032">
        <ele>973</ele>
        <time>2020-05-28T07:17:27.000Z</time>
      </trkpt>
      <trkpt lat="45.83841" lon="5.53034">
        <ele>973</ele>
        <time>2020-05-28T07:17:29.000Z</time>
      </trkpt>
      <trkpt lat="45.8384" lon="5.53037">
        <ele>973</ele>
        <time>2020-05-28T07:17:31.000Z</time>
      </trkpt>
      <trkpt lat="45.83838" lon="5.53039">
        <ele>973</ele>
        <time>2020-05-28T07:17:33.000Z</time>
      </trkpt>
      <trkpt lat="45.83837" lon="5.53042">
        <ele>972.98099968</ele>
        <time>2020-05-28T07:17:35.000Z</time>
      </trkpt>
      <trkpt lat="45.83836" lon="5.53044">
        <ele>972.78099968</ele>
        <time>2020-05-28T07:17:37.000Z</time>
      </trkpt>
      <trkpt lat="45.83834" lon="5.53047">
        <ele>972.58099968</ele>
        <time>2020-05-28T07:17:39.000Z</time>
      </trkpt>
      <trkpt lat="45.83833" lon="5.53049">
        <ele>972.38099968</ele>
        <time>2020-05-28T07:17:41.000Z</time>
      </trkpt>
      <trkpt lat="45.83831" lon="5.53053">
        <ele>972.18099968</ele>
        <time>2020-05-28T07:17:43.000Z</time>
      </trkpt>
      <trkpt lat="45.8383" lon="5.53055">
        <ele>971.98099968</ele>
        <time>2020-05-28T07:17:45.000Z</time>
      </trkpt>
      <trkpt lat="45.83829" lon="5.53058">
        <ele>971.78099968</ele>
        <time>2020-05-28T07:17:47.000Z</time>
      </trkpt>
      <trkpt lat="45.83827" lon="5.5306">
        <ele>971.58099968</ele>
        <time>2020-05-28T07:17:49.000Z</time>
      </trkpt>
      <trkpt lat="45.83825" lon="5.53062">
        <ele>971.38099968</ele>
        <time>2020-05-28T07:17:51.000Z</time>
      </trkpt>
      <trkpt lat="45.83826" lon="5.53064">
        <ele>971</ele>
        <time>2020-05-28T07:18:12.000Z</time>
      </trkpt>
      <trkpt lat="45.83824" lon="5.53064">
        <ele>972</ele>
        <time>2020-05-28T07:18:30.000Z</time>
      </trkpt>
      <trkpt lat="45.83822" lon="5.53067">
        <ele>972</ele>
        <time>2020-05-28T07:18:32.000Z</time>
      </trkpt>
      <trkpt lat="45.8382" lon="5.53069">
        <ele>972</ele>
        <time>2020-05-28T07:18:34.000Z</time>
      </trkpt>
      <trkpt lat="45.83818" lon="5.53071">
        <ele>971.88206109243</ele>
        <time>2020-05-28T07:18:36.000Z</time>
      </trkpt>
      <trkpt lat="45.83816" lon="5.53074">
        <ele>971.68384497406</ele>
        <time>2020-05-28T07:18:38.000Z</time>
      </trkpt>
      <trkpt lat="45.83814" lon="5.53076">
        <ele>971.4856288557</ele>
        <time>2020-05-28T07:18:40.000Z</time>
      </trkpt>
      <trkpt lat="45.83812" lon="5.53078">
        <ele>971.28741273734</ele>
        <time>2020-05-28T07:18:42.000Z</time>
      </trkpt>
      <trkpt lat="45.8381" lon="5.5308">
        <ele>971.08919661897</ele>
        <time>2020-05-28T07:18:44.000Z</time>
      </trkpt>
      <trkpt lat="45.83808" lon="5.53083">
        <ele>970.89215637063</ele>
        <time>2020-05-28T07:18:46.000Z</time>
      </trkpt>
      <trkpt lat="45.83806" lon="5.53085">
        <ele>970.69607818531</ele>
        <time>2020-05-28T07:18:48.000Z</time>
      </trkpt>
      <trkpt lat="45.83804" lon="5.53087">
        <ele>970.5</ele>
        <time>2020-05-28T07:18:50.000Z</time>
      </trkpt>
      <trkpt lat="45.83802" lon="5.53089">
        <ele>970.30392181469</ele>
        <time>2020-05-28T07:18:52.000Z</time>
      </trkpt>
      <trkpt lat="45.838" lon="5.53091">
        <ele>970.10784362937</ele>
        <time>2020-05-28T07:18:54.000Z</time>
      </trkpt>
      <trkpt lat="45.83798" lon="5.53093">
        <ele>969.90731261691</ele>
        <time>2020-05-28T07:18:56.000Z</time>
      </trkpt>
      <trkpt lat="45.83796" lon="5.53095">
        <ele>969.70133918979</ele>
        <time>2020-05-28T07:18:58.000Z</time>
      </trkpt>
      <trkpt lat="45.83794" lon="5.53097">
        <ele>969.49536576267</ele>
        <time>2020-05-28T07:19:00.000Z</time>
      </trkpt>
      <trkpt lat="45.83792" lon="5.53098">
        <ele>969.28939233555</ele>
        <time>2020-05-28T07:19:02.000Z</time>
      </trkpt>
      <trkpt lat="45.83791" lon="5.53101">
        <ele>969.08341890843</ele>
        <time>2020-05-28T07:19:04.000Z</time>
      </trkpt>
      <trkpt lat="45.83789" lon="5.53103">
        <ele>968.88344739656</ele>
        <time>2020-05-28T07:19:06.000Z</time>
      </trkpt>
      <trkpt lat="45.83786" lon="5.53105">
        <ele>968.68756119485</ele>
        <time>2020-05-28T07:19:08.000Z</time>
      </trkpt>
      <trkpt lat="45.83784" lon="5.53107">
        <ele>968.49167499314</ele>
        <time>2020-05-28T07:19:10.000Z</time>
      </trkpt>
      <trkpt lat="45.83783" lon="5.5311">
        <ele>968.29578879142</ele>
        <time>2020-05-28T07:19:12.000Z</time>
      </trkpt>
      <trkpt lat="45.83781" lon="5.53112">
        <ele>968.09990258971</ele>
        <time>2020-05-28T07:19:14.000Z</time>
      </trkpt>
      <trkpt lat="45.83779" lon="5.53115">
        <ele>967.90020425268</ele>
        <time>2020-05-28T07:19:16.000Z</time>
      </trkpt>
      <trkpt lat="45.83778" lon="5.53117">
        <ele>967.69653813216</ele>
        <time>2020-05-28T07:19:18.000Z</time>
      </trkpt>
      <trkpt lat="45.83777" lon="5.5312">
        <ele>967.49287201165</ele>
        <time>2020-05-28T07:19:20.000Z</time>
      </trkpt>
      <trkpt lat="45.83776" lon="5.53122">
        <ele>967.28920589113</ele>
        <time>2020-05-28T07:19:22.000Z</time>
      </trkpt>
      <trkpt lat="45.83774" lon="5.53125">
        <ele>967.08553977062</ele>
        <time>2020-05-28T07:19:24.000Z</time>
      </trkpt>
      <trkpt lat="45.83772" lon="5.53127">
        <ele>966.65848882167</ele>
        <time>2020-05-28T07:19:26.000Z</time>
      </trkpt>
      <trkpt lat="45.8377" lon="5.53129">
        <ele>966.06967644524</ele>
        <time>2020-05-28T07:19:28.000Z</time>
      </trkpt>
      <trkpt lat="45.83768" lon="5.5313">
        <ele>965.48086406882</ele>
        <time>2020-05-28T07:19:30.000Z</time>
      </trkpt>
      <trkpt lat="45.83767" lon="5.53132">
        <ele>964.89205169239</ele>
        <time>2020-05-28T07:19:32.000Z</time>
      </trkpt>
      <trkpt lat="45.83765" lon="5.53135">
        <ele>964.30323931596</ele>
        <time>2020-05-28T07:19:34.000Z</time>
      </trkpt>
      <trkpt lat="45.83764" lon="5.53137">
        <ele>963.90111153449</ele>
        <time>2020-05-28T07:19:36.000Z</time>
      </trkpt>
      <trkpt lat="45.83763" lon="5.53139">
        <ele>963.69721711852</ele>
        <time>2020-05-28T07:19:38.000Z</time>
      </trkpt>
      <trkpt lat="45.83762" lon="5.53141">
        <ele>963.49332270255</ele>
        <time>2020-05-28T07:19:40.000Z</time>
      </trkpt>
      <trkpt lat="45.8376" lon="5.53144">
        <ele>963.28942828658</ele>
        <time>2020-05-28T07:19:42.000Z</time>
      </trkpt>
      <trkpt lat="45.83759" lon="5.53145">
        <ele>963.08553387061</ele>
        <time>2020-05-28T07:19:44.000Z</time>
      </trkpt>
      <trkpt lat="45.83757" lon="5.53148">
        <ele>962.65138678388</ele>
        <time>2020-05-28T07:19:46.000Z</time>
      </trkpt>
      <trkpt lat="45.83755" lon="5.5315">
        <ele>962.05084639362</ele>
        <time>2020-05-28T07:19:48.000Z</time>
      </trkpt>
      <trkpt lat="45.83753" lon="5.53151">
        <ele>961.45030600335</ele>
        <time>2020-05-28T07:19:50.000Z</time>
      </trkpt>
      <trkpt lat="45.83751" lon="5.53153">
        <ele>960.84976561309</ele>
        <time>2020-05-28T07:19:52.000Z</time>
      </trkpt>
      <trkpt lat="45.83749" lon="5.53154">
        <ele>960.24922522282</ele>
        <time>2020-05-28T07:19:54.000Z</time>
      </trkpt>
      <trkpt lat="45.83748" lon="5.53156">
        <ele>959.64829732957</ele>
        <time>2020-05-28T07:19:56.000Z</time>
      </trkpt>
      <trkpt lat="45.83746" lon="5.53157">
        <ele>959.04709453922</ele>
        <time>2020-05-28T07:19:58.000Z</time>
      </trkpt>
      <trkpt lat="45.83744" lon="5.53158">
        <ele>958.44589174887</ele>
        <time>2020-05-28T07:20:00.000Z</time>
      </trkpt>
      <trkpt lat="45.83742" lon="5.5316">
        <ele>957.84468895852</ele>
        <time>2020-05-28T07:20:02.000Z</time>
      </trkpt>
      <trkpt lat="45.83741" lon="5.53161">
        <ele>957.24348616817</ele>
        <time>2020-05-28T07:20:04.000Z</time>
      </trkpt>
      <trkpt lat="45.83739" lon="5.53163">
        <ele>956.64299904</ele>
        <time>2020-05-28T07:20:06.000Z</time>
      </trkpt>
      <trkpt lat="45.83737" lon="5.53165">
        <ele>956.04299904</ele>
        <time>2020-05-28T07:20:08.000Z</time>
      </trkpt>
      <trkpt lat="45.83735" lon="5.53167">
        <ele>955.44299904</ele>
        <time>2020-05-28T07:20:10.000Z</time>
      </trkpt>
      <trkpt lat="45.83734" lon="5.53169">
        <ele>954.84299904</ele>
        <time>2020-05-28T07:20:12.000Z</time>
      </trkpt>
      <trkpt lat="45.83732" lon="5.53171">
        <ele>954.24299904</ele>
        <time>2020-05-28T07:20:14.000Z</time>
      </trkpt>
      <trkpt lat="45.8373" lon="5.53173">
        <ele>953.64299904</ele>
        <time>2020-05-28T07:20:16.000Z</time>
      </trkpt>
      <trkpt lat="45.83728" lon="5.53176">
        <ele>953.04299904</ele>
        <time>2020-05-28T07:20:18.000Z</time>
      </trkpt>
      <trkpt lat="45.83726" lon="5.53178">
        <ele>952.44299904</ele>
        <time>2020-05-28T07:20:20.000Z</time>
      </trkpt>
      <trkpt lat="45.83725" lon="5.5318">
        <ele>951.84299904</ele>
        <time>2020-05-28T07:20:22.000Z</time>
      </trkpt>
      <trkpt lat="45.83724" lon="5.53182">
        <ele>951.24299904</ele>
        <time>2020-05-28T07:20:24.000Z</time>
      </trkpt>
      <trkpt lat="45.83722" lon="5.53184">
        <ele>950.76199936</ele>
        <time>2020-05-28T07:20:26.000Z</time>
      </trkpt>
      <trkpt lat="45.83721" lon="5.53186">
        <ele>950.36199936</ele>
        <time>2020-05-28T07:20:28.000Z</time>
      </trkpt>
      <trkpt lat="45.83719" lon="5.53187">
        <ele>949.96199936</ele>
        <time>2020-05-28T07:20:30.000Z</time>
      </trkpt>
      <trkpt lat="45.83717" lon="5.53189">
        <ele>949.56199936</ele>
        <time>2020-05-28T07:20:32.000Z</time>
      </trkpt>
      <trkpt lat="45.83715" lon="5.53192">
        <ele>948.94299904</ele>
        <time>2020-05-28T07:20:35.000Z</time>
      </trkpt>
      <trkpt lat="45.83715" lon="5.53195">
        <ele>948.34299904</ele>
        <time>2020-05-28T07:20:37.000Z</time>
      </trkpt>
      <trkpt lat="45.83714" lon="5.53198">
        <ele>947.74299904</ele>
        <time>2020-05-28T07:20:39.000Z</time>
      </trkpt>
      <trkpt lat="45.83713" lon="5.53201">
        <ele>947.14299904</ele>
        <time>2020-05-28T07:20:41.000Z</time>
      </trkpt>
      <trkpt lat="45.83711" lon="5.53204">
        <ele>946.54299904</ele>
        <time>2020-05-28T07:20:43.000Z</time>
      </trkpt>
      <trkpt lat="45.8371" lon="5.53206">
        <ele>945.96203731054</ele>
        <time>2020-05-28T07:20:45.000Z</time>
      </trkpt>
      <trkpt lat="45.83708" lon="5.53208">
        <ele>945.5624367832</ele>
        <time>2020-05-28T07:20:47.000Z</time>
      </trkpt>
      <trkpt lat="45.83706" lon="5.5321">
        <ele>945.16283625585</ele>
        <time>2020-05-28T07:20:49.000Z</time>
      </trkpt>
      <trkpt lat="45.83705" lon="5.53211">
        <ele>944.76323572851</ele>
        <time>2020-05-28T07:20:51.000Z</time>
      </trkpt>
      <trkpt lat="45.83703" lon="5.53213">
        <ele>944.36363520116</ele>
        <time>2020-05-28T07:20:53.000Z</time>
      </trkpt>
      <trkpt lat="45.83701" lon="5.53214">
        <ele>943.92792538845</ele>
        <time>2020-05-28T07:20:55.000Z</time>
      </trkpt>
      <trkpt lat="45.83698" lon="5.53217">
        <ele>943.12712484416</ele>
        <time>2020-05-28T07:20:57.000Z</time>
      </trkpt>
      <trkpt lat="45.83696" lon="5.53219">
        <ele>942.32632429988</ele>
        <time>2020-05-28T07:20:59.000Z</time>
      </trkpt>
      <trkpt lat="45.83693" lon="5.53221">
        <ele>941.52552375559</ele>
        <time>2020-05-28T07:21:01.000Z</time>
      </trkpt>
      <trkpt lat="45.8369" lon="5.53221">
        <ele>940.7247232113</ele>
        <time>2020-05-28T07:21:03.000Z</time>
      </trkpt>
      <trkpt lat="45.83688" lon="5.53222">
        <ele>939.98101865527</ele>
        <time>2020-05-28T07:21:05.000Z</time>
      </trkpt>
      <trkpt lat="45.83686" lon="5.53224">
        <ele>939.7812183916</ele>
        <time>2020-05-28T07:21:07.000Z</time>
      </trkpt>
      <trkpt lat="45.83684" lon="5.53225">
        <ele>939.58141812793</ele>
        <time>2020-05-28T07:21:09.000Z</time>
      </trkpt>
      <trkpt lat="45.83682" lon="5.53227">
        <ele>939.38161786425</ele>
        <time>2020-05-28T07:21:11.000Z</time>
      </trkpt>
      <trkpt lat="45.83679" lon="5.5323">
        <ele>939.18181760058</ele>
        <time>2020-05-28T07:21:13.000Z</time>
      </trkpt>
      <trkpt lat="45.83677" lon="5.53231">
        <ele>938.98198134711</ele>
        <time>2020-05-28T07:21:15.000Z</time>
      </trkpt>
      <trkpt lat="45.83676" lon="5.53234">
        <ele>938.78178121104</ele>
        <time>2020-05-28T07:21:17.000Z</time>
      </trkpt>
      <trkpt lat="45.83674" lon="5.53236">
        <ele>938.58158107497</ele>
        <time>2020-05-28T07:21:19.000Z</time>
      </trkpt>
      <trkpt lat="45.83671" lon="5.53238">
        <ele>938.3813809389</ele>
        <time>2020-05-28T07:21:21.000Z</time>
      </trkpt>
      <trkpt lat="45.83669" lon="5.53241">
        <ele>938.18118080282</ele>
        <time>2020-05-28T07:21:23.000Z</time>
      </trkpt>
      <trkpt lat="45.83667" lon="5.53243">
        <ele>937.96199936</ele>
        <time>2020-05-28T07:21:25.000Z</time>
      </trkpt>
      <trkpt lat="45.83665" lon="5.53245">
        <ele>937.56199936</ele>
        <time>2020-05-28T07:21:27.000Z</time>
      </trkpt>
      <trkpt lat="45.83663" lon="5.53248">
        <ele>937.16199936</ele>
        <time>2020-05-28T07:21:29.000Z</time>
      </trkpt>
      <trkpt lat="45.83661" lon="5.5325">
        <ele>936.76199936</ele>
        <time>2020-05-28T07:21:31.000Z</time>
      </trkpt>
      <trkpt lat="45.83659" lon="5.53252">
        <ele>936.36199936</ele>
        <time>2020-05-28T07:21:33.000Z</time>
      </trkpt>
      <trkpt lat="45.83657" lon="5.53254">
        <ele>935.94350745483</ele>
        <time>2020-05-28T07:21:35.000Z</time>
      </trkpt>
      <trkpt lat="45.83655" lon="5.53256">
        <ele>935.34885909974</ele>
        <time>2020-05-28T07:21:37.000Z</time>
      </trkpt>
      <trkpt lat="45.83653" lon="5.53258">
        <ele>934.75421074465</ele>
        <time>2020-05-28T07:21:39.000Z</time>
      </trkpt>
      <trkpt lat="45.8365" lon="5.53259">
        <ele>934.15956238955</ele>
        <time>2020-05-28T07:21:41.000Z</time>
      </trkpt>
      <trkpt lat="45.83648" lon="5.5326">
        <ele>933.56491403446</ele>
        <time>2020-05-28T07:21:43.000Z</time>
      </trkpt>
      <trkpt lat="45.83646" lon="5.53261">
        <ele>932.97981708018</ele>
        <time>2020-05-28T07:21:45.000Z</time>
      </trkpt>
      <trkpt lat="45.83644" lon="5.53262">
        <ele>932.57618451627</ele>
        <time>2020-05-28T07:21:47.000Z</time>
      </trkpt>
      <trkpt lat="45.83642" lon="5.53263">
        <ele>932.17255195235</ele>
        <time>2020-05-28T07:21:49.000Z</time>
      </trkpt>
      <trkpt lat="45.8364" lon="5.53265">
        <ele>931.76891938844</ele>
        <time>2020-05-28T07:21:51.000Z</time>
      </trkpt>
      <trkpt lat="45.83638" lon="5.53266">
        <ele>931.36528682453</ele>
        <time>2020-05-28T07:21:53.000Z</time>
      </trkpt>
      <trkpt lat="45.83636" lon="5.53268">
        <ele>930.98155309884</ele>
        <time>2020-05-28T07:21:55.000Z</time>
      </trkpt>
      <trkpt lat="45.83635" lon="5.5327">
        <ele>930.78737846221</ele>
        <time>2020-05-28T07:21:57.000Z</time>
      </trkpt>
      <trkpt lat="45.83633" lon="5.53272">
        <ele>930.59320382558</ele>
        <time>2020-05-28T07:21:59.000Z</time>
      </trkpt>
      <trkpt lat="45.83631" lon="5.53275">
        <ele>930.39902918895</ele>
        <time>2020-05-28T07:22:01.000Z</time>
      </trkpt>
      <trkpt lat="45.8363" lon="5.53278">
        <ele>930.20485455232</ele>
        <time>2020-05-28T07:22:03.000Z</time>
      </trkpt>
      <trkpt lat="45.83628" lon="5.5328">
        <ele>930.01067991569</ele>
        <time>2020-05-28T07:22:05.000Z</time>
      </trkpt>
      <trkpt lat="45.83625" lon="5.53283">
        <ele>930.19484515948</ele>
        <time>2020-05-28T07:22:07.000Z</time>
      </trkpt>
      <trkpt lat="45.83623" lon="5.53285">
        <ele>930.40103086254</ele>
        <time>2020-05-28T07:22:09.000Z</time>
      </trkpt>
      <trkpt lat="45.83621" lon="5.53288">
        <ele>930.60721656559</ele>
        <time>2020-05-28T07:22:11.000Z</time>
      </trkpt>
      <trkpt lat="45.83619" lon="5.53289">
        <ele>930.81340226864</ele>
        <time>2020-05-28T07:22:13.000Z</time>
      </trkpt>
      <trkpt lat="45.83616" lon="5.53291">
        <ele>931</ele>
        <time>2020-05-28T07:22:15.000Z</time>
      </trkpt>
      <trkpt lat="45.83614" lon="5.53292">
        <ele>931</ele>
        <time>2020-05-28T07:22:17.000Z</time>
      </trkpt>
      <trkpt lat="45.83612" lon="5.53294">
        <ele>931</ele>
        <time>2020-05-28T07:22:19.000Z</time>
      </trkpt>
      <trkpt lat="45.8361" lon="5.53295">
        <ele>931</ele>
        <time>2020-05-28T07:22:21.000Z</time>
      </trkpt>
      <trkpt lat="45.83608" lon="5.53297">
        <ele>931</ele>
        <time>2020-05-28T07:22:23.000Z</time>
      </trkpt>
      <trkpt lat="45.83606" lon="5.53299">
        <ele>930.98099968</ele>
        <time>2020-05-28T07:22:25.000Z</time>
      </trkpt>
      <trkpt lat="45.83605" lon="5.53301">
        <ele>930.78099968</ele>
        <time>2020-05-28T07:22:27.000Z</time>
      </trkpt>
      <trkpt lat="45.83603" lon="5.53303">
        <ele>930.58099968</ele>
        <time>2020-05-28T07:22:29.000Z</time>
      </trkpt>
      <trkpt lat="45.83601" lon="5.53305">
        <ele>930.28099968</ele>
        <time>2020-05-28T07:22:32.000Z</time>
      </trkpt>
      <trkpt lat="45.83599" lon="5.53308">
        <ele>929.98099968</ele>
        <time>2020-05-28T07:22:35.000Z</time>
      </trkpt>
      <trkpt lat="45.83598" lon="5.5331">
        <ele>929.78099968</ele>
        <time>2020-05-28T07:22:37.000Z</time>
      </trkpt>
      <trkpt lat="45.83596" lon="5.5331">
        <ele>929.58099968</ele>
        <time>2020-05-28T07:22:39.000Z</time>
      </trkpt>
      <trkpt lat="45.83594" lon="5.53312">
        <ele>929.38099968</ele>
        <time>2020-05-28T07:22:41.000Z</time>
      </trkpt>
      <trkpt lat="45.83591" lon="5.53315">
        <ele>929.18099968</ele>
        <time>2020-05-28T07:22:43.000Z</time>
      </trkpt>
      <trkpt lat="45.83589" lon="5.53317">
        <ele>928.98099968</ele>
        <time>2020-05-28T07:22:45.000Z</time>
      </trkpt>
      <trkpt lat="45.83587" lon="5.5332">
        <ele>928.78099968</ele>
        <time>2020-05-28T07:22:47.000Z</time>
      </trkpt>
      <trkpt lat="45.83584" lon="5.53322">
        <ele>928.58099968</ele>
        <time>2020-05-28T07:22:49.000Z</time>
      </trkpt>
      <trkpt lat="45.83582" lon="5.53325">
        <ele>928.38099968</ele>
        <time>2020-05-28T07:22:51.000Z</time>
      </trkpt>
      <trkpt lat="45.83579" lon="5.53327">
        <ele>928.18099968</ele>
        <time>2020-05-28T07:22:53.000Z</time>
      </trkpt>
      <trkpt lat="45.83577" lon="5.53328">
        <ele>927.98099968</ele>
        <time>2020-05-28T07:22:55.000Z</time>
      </trkpt>
      <trkpt lat="45.83575" lon="5.5333">
        <ele>927.78099968</ele>
        <time>2020-05-28T07:22:57.000Z</time>
      </trkpt>
      <trkpt lat="45.83573" lon="5.53332">
        <ele>927.48099968</ele>
        <time>2020-05-28T07:23:00.000Z</time>
      </trkpt>
      <trkpt lat="45.83572" lon="5.53333">
        <ele>927.28099968</ele>
        <time>2020-05-28T07:23:02.000Z</time>
      </trkpt>
      <trkpt lat="45.8357" lon="5.53335">
        <ele>927.08099968</ele>
        <time>2020-05-28T07:23:04.000Z</time>
      </trkpt>
      <trkpt lat="45.83568" lon="5.53336">
        <ele>927</ele>
        <time>2020-05-28T07:23:06.000Z</time>
      </trkpt>
      <trkpt lat="45.83566" lon="5.53338">
        <ele>927</ele>
        <time>2020-05-28T07:23:08.000Z</time>
      </trkpt>
      <trkpt lat="45.83564" lon="5.5334">
        <ele>927</ele>
        <time>2020-05-28T07:23:10.000Z</time>
      </trkpt>
      <trkpt lat="45.83562" lon="5.53342">
        <ele>927</ele>
        <time>2020-05-28T07:23:12.000Z</time>
      </trkpt>
      <trkpt lat="45.8356" lon="5.53344">
        <ele>927</ele>
        <time>2020-05-28T07:23:14.000Z</time>
      </trkpt>
      <trkpt lat="45.83558" lon="5.53346">
        <ele>926.76376255815</ele>
        <time>2020-05-28T07:23:16.000Z</time>
      </trkpt>
      <trkpt lat="45.83557" lon="5.53348">
        <ele>926.36336228601</ele>
        <time>2020-05-28T07:23:18.000Z</time>
      </trkpt>
      <trkpt lat="45.83555" lon="5.5335">
        <ele>925.96296201387</ele>
        <time>2020-05-28T07:23:20.000Z</time>
      </trkpt>
      <trkpt lat="45.83553" lon="5.53353">
        <ele>925.56256174172</ele>
        <time>2020-05-28T07:23:22.000Z</time>
      </trkpt>
      <trkpt lat="45.83552" lon="5.53357">
        <ele>925.16216146958</ele>
        <time>2020-05-28T07:23:24.000Z</time>
      </trkpt>
      <trkpt lat="45.83551" lon="5.5336">
        <ele>924.88099968</ele>
        <time>2020-05-28T07:23:26.000Z</time>
      </trkpt>
      <trkpt lat="45.83549" lon="5.53362">
        <ele>924.68099968</ele>
        <time>2020-05-28T07:23:28.000Z</time>
      </trkpt>
      <trkpt lat="45.83548" lon="5.53365">
        <ele>924.48099968</ele>
        <time>2020-05-28T07:23:30.000Z</time>
      </trkpt>
      <trkpt lat="45.83546" lon="5.53367">
        <ele>924.28099968</ele>
        <time>2020-05-28T07:23:32.000Z</time>
      </trkpt>
      <trkpt lat="45.83545" lon="5.53369">
        <ele>923.96199936</ele>
        <time>2020-05-28T07:23:35.000Z</time>
      </trkpt>
      <trkpt lat="45.83543" lon="5.53371">
        <ele>923.56199936</ele>
        <time>2020-05-28T07:23:37.000Z</time>
      </trkpt>
      <trkpt lat="45.83542" lon="5.53374">
        <ele>923.16199936</ele>
        <time>2020-05-28T07:23:39.000Z</time>
      </trkpt>
      <trkpt lat="45.83541" lon="5.53377">
        <ele>922.56199936</ele>
        <time>2020-05-28T07:23:42.000Z</time>
      </trkpt>
      <trkpt lat="45.8354" lon="5.5338">
        <ele>921.76870707681</ele>
        <time>2020-05-28T07:23:46.000Z</time>
      </trkpt>
      <trkpt lat="45.83539" lon="5.53383">
        <ele>921.18561724179</ele>
        <time>2020-05-28T07:23:49.000Z</time>
      </trkpt>
      <trkpt lat="45.83538" lon="5.53386">
        <ele>920.79689068512</ele>
        <time>2020-05-28T07:23:51.000Z</time>
      </trkpt>
      <trkpt lat="45.83536" lon="5.53389">
        <ele>920.40816412844</ele>
        <time>2020-05-28T07:23:53.000Z</time>
      </trkpt>
      <trkpt lat="45.83535" lon="5.53392">
        <ele>920.01943757176</ele>
        <time>2020-05-28T07:23:55.000Z</time>
      </trkpt>
      <trkpt lat="45.83534" lon="5.53395">
        <ele>919.415386009</ele>
        <time>2020-05-28T07:23:57.000Z</time>
      </trkpt>
      <trkpt lat="45.83533" lon="5.53398">
        <ele>918.49230817704</ele>
        <time>2020-05-28T07:24:00.000Z</time>
      </trkpt>
      <trkpt lat="45.83532" lon="5.53401">
        <ele>917.87692295574</ele>
        <time>2020-05-28T07:24:02.000Z</time>
      </trkpt>
      <trkpt lat="45.83531" lon="5.53403">
        <ele>917.26153773444</ele>
        <time>2020-05-28T07:24:04.000Z</time>
      </trkpt>
      <trkpt lat="45.83531" lon="5.53406">
        <ele>916.7841362249</ele>
        <time>2020-05-28T07:24:07.000Z</time>
      </trkpt>
      <trkpt lat="45.8353" lon="5.5341">
        <ele>916.48293140562</ele>
        <time>2020-05-28T07:24:10.000Z</time>
      </trkpt>
      <trkpt lat="45.8353" lon="5.53414">
        <ele>916.28212819277</ele>
        <time>2020-05-28T07:24:12.000Z</time>
      </trkpt>
      <trkpt lat="45.83531" lon="5.53417">
        <ele>916</ele>
        <time>2020-05-28T07:24:16.000Z</time>
      </trkpt>
      <trkpt lat="45.83532" lon="5.5342">
        <ele>916</ele>
        <time>2020-05-28T07:24:18.000Z</time>
      </trkpt>
      <trkpt lat="45.83531" lon="5.53424">
        <ele>916</ele>
        <time>2020-05-28T07:24:20.000Z</time>
      </trkpt>
      <trkpt lat="45.8353" lon="5.53427">
        <ele>916</ele>
        <time>2020-05-28T07:24:22.000Z</time>
      </trkpt>
      <trkpt lat="45.83529" lon="5.53431">
        <ele>916</ele>
        <time>2020-05-28T07:24:24.000Z</time>
      </trkpt>
      <trkpt lat="45.83528" lon="5.53434">
        <ele>915.90731261691</ele>
        <time>2020-05-28T07:24:26.000Z</time>
      </trkpt>
      <trkpt lat="45.83526" lon="5.53436">
        <ele>915.70133918979</ele>
        <time>2020-05-28T07:24:28.000Z</time>
      </trkpt>
      <trkpt lat="45.83524" lon="5.53437">
        <ele>915.49536576267</ele>
        <time>2020-05-28T07:24:30.000Z</time>
      </trkpt>
      <trkpt lat="45.83521" lon="5.53439">
        <ele>915.28939233555</ele>
        <time>2020-05-28T07:24:32.000Z</time>
      </trkpt>
      <trkpt lat="45.83519" lon="5.53441">
        <ele>915.08341890843</ele>
        <time>2020-05-28T07:24:34.000Z</time>
      </trkpt>
      <trkpt lat="45.83516" lon="5.53442">
        <ele>914.88099968</ele>
        <time>2020-05-28T07:24:36.000Z</time>
      </trkpt>
      <trkpt lat="45.83514" lon="5.53444">
        <ele>914.68099968</ele>
        <time>2020-05-28T07:24:38.000Z</time>
      </trkpt>
      <trkpt lat="45.83512" lon="5.53445">
        <ele>914.48099968</ele>
        <time>2020-05-28T07:24:40.000Z</time>
      </trkpt>
      <trkpt lat="45.8351" lon="5.53447">
        <ele>914.28099968</ele>
        <time>2020-05-28T07:24:42.000Z</time>
      </trkpt>
      <trkpt lat="45.83507" lon="5.53448">
        <ele>914.08099968</ele>
        <time>2020-05-28T07:24:44.000Z</time>
      </trkpt>
      <trkpt lat="45.83505" lon="5.53449">
        <ele>913.88099968</ele>
        <time>2020-05-28T07:24:46.000Z</time>
      </trkpt>
      <trkpt lat="45.83503" lon="5.53451">
        <ele>913.68099968</ele>
        <time>2020-05-28T07:24:48.000Z</time>
      </trkpt>
      <trkpt lat="45.83501" lon="5.53452">
        <ele>913.48099968</ele>
        <time>2020-05-28T07:24:50.000Z</time>
      </trkpt>
      <trkpt lat="45.83499" lon="5.53454">
        <ele>913.28099968</ele>
        <time>2020-05-28T07:24:52.000Z</time>
      </trkpt>
      <trkpt lat="45.83497" lon="5.53456">
        <ele>913.08099968</ele>
        <time>2020-05-28T07:24:54.000Z</time>
      </trkpt>
      <trkpt lat="45.83495" lon="5.53458">
        <ele>912.5378631221</ele>
        <time>2020-05-28T07:24:56.000Z</time>
      </trkpt>
      <trkpt lat="45.83493" lon="5.53461">
        <ele>911.76116457559</ele>
        <time>2020-05-28T07:24:58.000Z</time>
      </trkpt>
      <trkpt lat="45.83492" lon="5.53463">
        <ele>910.98446602907</ele>
        <time>2020-05-28T07:25:00.000Z</time>
      </trkpt>
      <trkpt lat="45.8349" lon="5.53466">
        <ele>910.20776748255</ele>
        <time>2020-05-28T07:25:02.000Z</time>
      </trkpt>
      <trkpt lat="45.83488" lon="5.53468">
        <ele>909.43106893603</ele>
        <time>2020-05-28T07:25:04.000Z</time>
      </trkpt>
      <trkpt lat="45.83487" lon="5.5347">
        <ele>908.91091125977</ele>
        <time>2020-05-28T07:25:06.000Z</time>
      </trkpt>
      <trkpt lat="45.83486" lon="5.53473">
        <ele>908.7107111237</ele>
        <time>2020-05-28T07:25:08.000Z</time>
      </trkpt>
      <trkpt lat="45.83484" lon="5.53475">
        <ele>908.51051098762</ele>
        <time>2020-05-28T07:25:10.000Z</time>
      </trkpt>
      <trkpt lat="45.83483" lon="5.53477">
        <ele>908.31031085155</ele>
        <time>2020-05-28T07:25:12.000Z</time>
      </trkpt>
      <trkpt lat="45.83481" lon="5.5348">
        <ele>908.11011071548</ele>
        <time>2020-05-28T07:25:14.000Z</time>
      </trkpt>
      <trkpt lat="45.83479" lon="5.53482">
        <ele>907.90731261691</ele>
        <time>2020-05-28T07:25:16.000Z</time>
      </trkpt>
      <trkpt lat="45.83478" lon="5.53484">
        <ele>907.70133918979</ele>
        <time>2020-05-28T07:25:18.000Z</time>
      </trkpt>
      <trkpt lat="45.83476" lon="5.53487">
        <ele>907.49536576267</ele>
        <time>2020-05-28T07:25:20.000Z</time>
      </trkpt>
      <trkpt lat="45.83474" lon="5.53489">
        <ele>907.28939233555</ele>
        <time>2020-05-28T07:25:22.000Z</time>
      </trkpt>
      <trkpt lat="45.83473" lon="5.53491">
        <ele>907.08341890843</ele>
        <time>2020-05-28T07:25:24.000Z</time>
      </trkpt>
      <trkpt lat="45.83471" lon="5.53493">
        <ele>906.88099968</ele>
        <time>2020-05-28T07:25:26.000Z</time>
      </trkpt>
      <trkpt lat="45.83469" lon="5.53495">
        <ele>906.68099968</ele>
        <time>2020-05-28T07:25:28.000Z</time>
      </trkpt>
      <trkpt lat="45.83467" lon="5.53497">
        <ele>906.48099968</ele>
        <time>2020-05-28T07:25:30.000Z</time>
      </trkpt>
      <trkpt lat="45.83465" lon="5.53499">
        <ele>906.28099968</ele>
        <time>2020-05-28T07:25:32.000Z</time>
      </trkpt>
      <trkpt lat="45.83464" lon="5.53501">
        <ele>906.08099968</ele>
        <time>2020-05-28T07:25:34.000Z</time>
      </trkpt>
      <trkpt lat="45.83462" lon="5.53503">
        <ele>905.88252694252</ele>
        <time>2020-05-28T07:25:36.000Z</time>
      </trkpt>
      <trkpt lat="45.8346" lon="5.53505">
        <ele>905.68509376339</ele>
        <time>2020-05-28T07:25:38.000Z</time>
      </trkpt>
      <trkpt lat="45.83458" lon="5.53506">
        <ele>905.38894399468</ele>
        <time>2020-05-28T07:25:41.000Z</time>
      </trkpt>
      <trkpt lat="45.83456" lon="5.53508">
        <ele>905.19151081555</ele>
        <time>2020-05-28T07:25:43.000Z</time>
      </trkpt>
      <trkpt lat="45.83454" lon="5.5351">
        <ele>904.99392161516</ele>
        <time>2020-05-28T07:25:45.000Z</time>
      </trkpt>
      <trkpt lat="45.83453" lon="5.53513">
        <ele>904.79128717288</ele>
        <time>2020-05-28T07:25:47.000Z</time>
      </trkpt>
      <trkpt lat="45.8345" lon="5.53516">
        <ele>904.5886527306</ele>
        <time>2020-05-28T07:25:49.000Z</time>
      </trkpt>
      <trkpt lat="45.83448" lon="5.53519">
        <ele>904.38601828833</ele>
        <time>2020-05-28T07:25:51.000Z</time>
      </trkpt>
      <trkpt lat="45.83447" lon="5.53522">
        <ele>904.18338384605</ele>
        <time>2020-05-28T07:25:53.000Z</time>
      </trkpt>
      <trkpt lat="45.83446" lon="5.53525">
        <ele>903.92399872</ele>
        <time>2020-05-28T07:25:55.000Z</time>
      </trkpt>
      <trkpt lat="45.83445" lon="5.53528">
        <ele>903.12399872</ele>
        <time>2020-05-28T07:25:57.000Z</time>
      </trkpt>
      <trkpt lat="45.83444" lon="5.53532">
        <ele>902.32399872</ele>
        <time>2020-05-28T07:25:59.000Z</time>
      </trkpt>
      <trkpt lat="45.83443" lon="5.53537">
        <ele>901.52399872</ele>
        <time>2020-05-28T07:26:01.000Z</time>
      </trkpt>
      <trkpt lat="45.83443" lon="5.5354">
        <ele>900.72399872</ele>
        <time>2020-05-28T07:26:03.000Z</time>
      </trkpt>
      <trkpt lat="45.83441" lon="5.53543">
        <ele>899.98109422701</ele>
        <time>2020-05-28T07:26:05.000Z</time>
      </trkpt>
      <trkpt lat="45.83439" lon="5.53546">
        <ele>899.78208944198</ele>
        <time>2020-05-28T07:26:07.000Z</time>
      </trkpt>
      <trkpt lat="45.83438" lon="5.53549">
        <ele>899.58308465695</ele>
        <time>2020-05-28T07:26:09.000Z</time>
      </trkpt>
      <trkpt lat="45.83436" lon="5.53552">
        <ele>899.38407987192</ele>
        <time>2020-05-28T07:26:11.000Z</time>
      </trkpt>
      <trkpt lat="45.83434" lon="5.53554">
        <ele>899.18507508689</ele>
        <time>2020-05-28T07:26:13.000Z</time>
      </trkpt>
      <trkpt lat="45.83433" lon="5.53557">
        <ele>898.97186055577</ele>
        <time>2020-05-28T07:26:15.000Z</time>
      </trkpt>
      <trkpt lat="45.83431" lon="5.5356">
        <ele>898.56985011764</ele>
        <time>2020-05-28T07:26:17.000Z</time>
      </trkpt>
      <trkpt lat="45.8343" lon="5.53563">
        <ele>898.16783967952</ele>
        <time>2020-05-28T07:26:19.000Z</time>
      </trkpt>
      <trkpt lat="45.83428" lon="5.53566">
        <ele>897.7658292414</ele>
        <time>2020-05-28T07:26:21.000Z</time>
      </trkpt>
      <trkpt lat="45.83427" lon="5.53568">
        <ele>897.16281358422</ele>
        <time>2020-05-28T07:26:24.000Z</time>
      </trkpt>
      <trkpt lat="45.83425" lon="5.53571">
        <ele>896.76199936</ele>
        <time>2020-05-28T07:26:26.000Z</time>
      </trkpt>
      <trkpt lat="45.83422" lon="5.53573">
        <ele>896.36199936</ele>
        <time>2020-05-28T07:26:28.000Z</time>
      </trkpt>
      <trkpt lat="45.83419" lon="5.53576">
        <ele>895.96199936</ele>
        <time>2020-05-28T07:26:30.000Z</time>
      </trkpt>
      <trkpt lat="45.83418" lon="5.53579">
        <ele>895.56199936</ele>
        <time>2020-05-28T07:26:32.000Z</time>
      </trkpt>
      <trkpt lat="45.83417" lon="5.53582">
        <ele>895.16199936</ele>
        <time>2020-05-28T07:26:34.000Z</time>
      </trkpt>
      <trkpt lat="45.83416" lon="5.53586">
        <ele>895</ele>
        <time>2020-05-28T07:26:36.000Z</time>
      </trkpt>
      <trkpt lat="45.83413" lon="5.5359">
        <ele>895</ele>
        <time>2020-05-28T07:26:38.000Z</time>
      </trkpt>
      <trkpt lat="45.83412" lon="5.53593">
        <ele>895</ele>
        <time>2020-05-28T07:26:40.000Z</time>
      </trkpt>
      <trkpt lat="45.83411" lon="5.53597">
        <ele>895</ele>
        <time>2020-05-28T07:26:42.000Z</time>
      </trkpt>
      <trkpt lat="45.8341" lon="5.536">
        <ele>895</ele>
        <time>2020-05-28T07:26:44.000Z</time>
      </trkpt>
      <trkpt lat="45.8341" lon="5.53604">
        <ele>894.64299904</ele>
        <time>2020-05-28T07:26:46.000Z</time>
      </trkpt>
      <trkpt lat="45.83409" lon="5.53608">
        <ele>894.04299904</ele>
        <time>2020-05-28T07:26:48.000Z</time>
      </trkpt>
      <trkpt lat="45.83408" lon="5.53612">
        <ele>893.44299904</ele>
        <time>2020-05-28T07:26:50.000Z</time>
      </trkpt>
      <trkpt lat="45.83408" lon="5.53615">
        <ele>892.84299904</ele>
        <time>2020-05-28T07:26:52.000Z</time>
      </trkpt>
      <trkpt lat="45.83407" lon="5.53619">
        <ele>892.24299904</ele>
        <time>2020-05-28T07:26:54.000Z</time>
      </trkpt>
      <trkpt lat="45.83406" lon="5.53621">
        <ele>891.7643559513</ele>
        <time>2020-05-28T07:26:56.000Z</time>
      </trkpt>
      <trkpt lat="45.83405" lon="5.53624">
        <ele>891.36831659829</ele>
        <time>2020-05-28T07:26:58.000Z</time>
      </trkpt>
      <trkpt lat="45.83404" lon="5.53627">
        <ele>890.97227724529</ele>
        <time>2020-05-28T07:27:00.000Z</time>
      </trkpt>
      <trkpt lat="45.83403" lon="5.5363">
        <ele>890.57623789229</ele>
        <time>2020-05-28T07:27:02.000Z</time>
      </trkpt>
      <trkpt lat="45.83402" lon="5.53633">
        <ele>890.18019853928</ele>
        <time>2020-05-28T07:27:04.000Z</time>
      </trkpt>
      <trkpt lat="45.834" lon="5.53636">
        <ele>889.78910203586</ele>
        <time>2020-05-28T07:27:07.000Z</time>
      </trkpt>
      <trkpt lat="45.83398" lon="5.53638">
        <ele>889.58728549323</ele>
        <time>2020-05-28T07:27:09.000Z</time>
      </trkpt>
      <trkpt lat="45.83396" lon="5.5364">
        <ele>889.38546895061</ele>
        <time>2020-05-28T07:27:11.000Z</time>
      </trkpt>
      <trkpt lat="45.83394" lon="5.53643">
        <ele>889.18365240798</ele>
        <time>2020-05-28T07:27:13.000Z</time>
      </trkpt>
      <trkpt lat="45.83392" lon="5.53645">
        <ele>888.48763553309</ele>
        <time>2020-05-28T07:27:20.000Z</time>
      </trkpt>
      <trkpt lat="45.83391" lon="5.53646">
        <ele>888.28981165901</ele>
        <time>2020-05-28T07:27:22.000Z</time>
      </trkpt>
      <trkpt lat="45.83389" lon="5.53649">
        <ele>888.09198778493</ele>
        <time>2020-05-28T07:27:24.000Z</time>
      </trkpt>
      <trkpt lat="45.83387" lon="5.53652">
        <ele>887.78340016194</ele>
        <time>2020-05-28T07:27:26.000Z</time>
      </trkpt>
      <trkpt lat="45.83385" lon="5.53655">
        <ele>887.37854186235</ele>
        <time>2020-05-28T07:27:28.000Z</time>
      </trkpt>
      <trkpt lat="45.83383" lon="5.53658">
        <ele>886.97368356275</ele>
        <time>2020-05-28T07:27:30.000Z</time>
      </trkpt>
      <trkpt lat="45.83381" lon="5.53661">
        <ele>886.56882526316</ele>
        <time>2020-05-28T07:27:32.000Z</time>
      </trkpt>
      <trkpt lat="45.83379" lon="5.53664">
        <ele>886.16396696356</ele>
        <time>2020-05-28T07:27:34.000Z</time>
      </trkpt>
      <trkpt lat="45.83377" lon="5.53666">
        <ele>886</ele>
        <time>2020-05-28T07:27:36.000Z</time>
      </trkpt>
      <trkpt lat="45.83375" lon="5.53669">
        <ele>886</ele>
        <time>2020-05-28T07:27:38.000Z</time>
      </trkpt>
      <trkpt lat="45.83372" lon="5.53671">
        <ele>886</ele>
        <time>2020-05-28T07:27:40.000Z</time>
      </trkpt>
      <trkpt lat="45.8337" lon="5.53674">
        <ele>886</ele>
        <time>2020-05-28T07:27:42.000Z</time>
      </trkpt>
      <trkpt lat="45.83369" lon="5.53676">
        <ele>886</ele>
        <time>2020-05-28T07:27:44.000Z</time>
      </trkpt>
      <trkpt lat="45.83367" lon="5.53678">
        <ele>885.88365091551</ele>
        <time>2020-05-28T07:27:46.000Z</time>
      </trkpt>
      <trkpt lat="45.83364" lon="5.53679">
        <ele>885.58274811081</ele>
        <time>2020-05-28T07:27:49.000Z</time>
      </trkpt>
      <trkpt lat="45.83362" lon="5.53681">
        <ele>885.28184530611</ele>
        <time>2020-05-28T07:27:52.000Z</time>
      </trkpt>
      <trkpt lat="45.8336" lon="5.53683">
        <ele>884.96199936</ele>
        <time>2020-05-28T07:27:55.000Z</time>
      </trkpt>
      <trkpt lat="45.83358" lon="5.53685">
        <ele>884.56199936</ele>
        <time>2020-05-28T07:27:57.000Z</time>
      </trkpt>
      <trkpt lat="45.83356" lon="5.53688">
        <ele>884.16199936</ele>
        <time>2020-05-28T07:27:59.000Z</time>
      </trkpt>
      <trkpt lat="45.83354" lon="5.53691">
        <ele>883.76199936</ele>
        <time>2020-05-28T07:28:01.000Z</time>
      </trkpt>
      <trkpt lat="45.83351" lon="5.53694">
        <ele>883.36199936</ele>
        <time>2020-05-28T07:28:03.000Z</time>
      </trkpt>
      <trkpt lat="45.83348" lon="5.53695">
        <ele>882.98101865527</ele>
        <time>2020-05-28T07:28:05.000Z</time>
      </trkpt>
      <trkpt lat="45.83346" lon="5.53697">
        <ele>882.7812183916</ele>
        <time>2020-05-28T07:28:07.000Z</time>
      </trkpt>
      <trkpt lat="45.83343" lon="5.53699">
        <ele>882.58141812793</ele>
        <time>2020-05-28T07:28:09.000Z</time>
      </trkpt>
      <trkpt lat="45.83341" lon="5.537">
        <ele>882.38161786425</ele>
        <time>2020-05-28T07:28:11.000Z</time>
      </trkpt>
      <trkpt lat="45.83339" lon="5.53701">
        <ele>882.18181760058</ele>
        <time>2020-05-28T07:28:13.000Z</time>
      </trkpt>
      <trkpt lat="45.83337" lon="5.53703">
        <ele>881.98248967161</ele>
        <time>2020-05-28T07:28:15.000Z</time>
      </trkpt>
      <trkpt lat="45.83335" lon="5.53705">
        <ele>881.78793738467</ele>
        <time>2020-05-28T07:28:17.000Z</time>
      </trkpt>
      <trkpt lat="45.83333" lon="5.53706">
        <ele>881.59338509773</ele>
        <time>2020-05-28T07:28:19.000Z</time>
      </trkpt>
      <trkpt lat="45.83332" lon="5.53708">
        <ele>881.39883281079</ele>
        <time>2020-05-28T07:28:21.000Z</time>
      </trkpt>
      <trkpt lat="45.83331" lon="5.5371">
        <ele>881</ele>
        <time>2020-05-28T07:28:36.000Z</time>
      </trkpt>
      <trkpt lat="45.83332" lon="5.53714">
        <ele>881</ele>
        <time>2020-05-28T07:28:41.000Z</time>
      </trkpt>
      <trkpt lat="45.83332" lon="5.53717">
        <ele>880.58099968</ele>
        <time>2020-05-28T07:28:49.000Z</time>
      </trkpt>
      <trkpt lat="45.83335" lon="5.53718">
        <ele>880.28099968</ele>
        <time>2020-05-28T07:28:52.000Z</time>
      </trkpt>
      <trkpt lat="45.83337" lon="5.53719">
        <ele>880.08099968</ele>
        <time>2020-05-28T07:28:54.000Z</time>
      </trkpt>
      <trkpt lat="45.83339" lon="5.5372">
        <ele>879.88099968</ele>
        <time>2020-05-28T07:28:56.000Z</time>
      </trkpt>
      <trkpt lat="45.83342" lon="5.53721">
        <ele>879.68099968</ele>
        <time>2020-05-28T07:28:58.000Z</time>
      </trkpt>
      <trkpt lat="45.83345" lon="5.53722">
        <ele>879.48099968</ele>
        <time>2020-05-28T07:29:00.000Z</time>
      </trkpt>
      <trkpt lat="45.83348" lon="5.53722">
        <ele>879.18099968</ele>
        <time>2020-05-28T07:29:03.000Z</time>
      </trkpt>
      <trkpt lat="45.8335" lon="5.53723">
        <ele>879</ele>
        <time>2020-05-28T07:29:05.000Z</time>
      </trkpt>
      <trkpt lat="45.83352" lon="5.53723">
        <ele>879</ele>
        <time>2020-05-28T07:29:07.000Z</time>
      </trkpt>
      <trkpt lat="45.83354" lon="5.53724">
        <ele>879</ele>
        <time>2020-05-28T07:29:09.000Z</time>
      </trkpt>
      <trkpt lat="45.83357" lon="5.53724">
        <ele>879</ele>
        <time>2020-05-28T07:29:11.000Z</time>
      </trkpt>
      <trkpt lat="45.83359" lon="5.53726">
        <ele>879</ele>
        <time>2020-05-28T07:29:13.000Z</time>
      </trkpt>
      <trkpt lat="45.83362" lon="5.53727">
        <ele>879</ele>
        <time>2020-05-28T07:29:15.000Z</time>
      </trkpt>
      <trkpt lat="45.83364" lon="5.53728">
        <ele>879</ele>
        <time>2020-05-28T07:29:17.000Z</time>
      </trkpt>
      <trkpt lat="45.83366" lon="5.5373">
        <ele>879</ele>
        <time>2020-05-28T07:29:19.000Z</time>
      </trkpt>
      <trkpt lat="45.83368" lon="5.53731">
        <ele>879</ele>
        <time>2020-05-28T07:29:21.000Z</time>
      </trkpt>
      <trkpt lat="45.83371" lon="5.53733">
        <ele>879</ele>
        <time>2020-05-28T07:29:23.000Z</time>
      </trkpt>
      <trkpt lat="45.83373" lon="5.53734">
        <ele>878.98493943775</ele>
        <time>2020-05-28T07:29:25.000Z</time>
      </trkpt>
      <trkpt lat="45.83375" lon="5.53736">
        <ele>878.7841362249</ele>
        <time>2020-05-28T07:29:27.000Z</time>
      </trkpt>
      <trkpt lat="45.83378" lon="5.53737">
        <ele>878.58333301205</ele>
        <time>2020-05-28T07:29:29.000Z</time>
      </trkpt>
      <trkpt lat="45.83381" lon="5.53739">
        <ele>878.3825297992</ele>
        <time>2020-05-28T07:29:31.000Z</time>
      </trkpt>
      <trkpt lat="45.83383" lon="5.5374">
        <ele>878.18172658635</ele>
        <time>2020-05-28T07:29:33.000Z</time>
      </trkpt>
      <trkpt lat="45.83385" lon="5.53741">
        <ele>878</ele>
        <time>2020-05-28T07:29:35.000Z</time>
      </trkpt>
      <trkpt lat="45.83387" lon="5.53742">
        <ele>878</ele>
        <time>2020-05-28T07:29:37.000Z</time>
      </trkpt>
      <trkpt lat="45.8339" lon="5.53743">
        <ele>878</ele>
        <time>2020-05-28T07:29:39.000Z</time>
      </trkpt>
      <trkpt lat="45.83391" lon="5.53745">
        <ele>878</ele>
        <time>2020-05-28T07:29:41.000Z</time>
      </trkpt>
      <trkpt lat="45.83393" lon="5.53747">
        <ele>878</ele>
        <time>2020-05-28T07:29:43.000Z</time>
      </trkpt>
      <trkpt lat="45.83396" lon="5.53749">
        <ele>877.98105651651</ele>
        <time>2020-05-28T07:29:45.000Z</time>
      </trkpt>
      <trkpt lat="45.83398" lon="5.53751">
        <ele>877.78165478551</ele>
        <time>2020-05-28T07:29:47.000Z</time>
      </trkpt>
      <trkpt lat="45.834" lon="5.53753">
        <ele>877.58225305452</ele>
        <time>2020-05-28T07:29:49.000Z</time>
      </trkpt>
      <trkpt lat="45.83402" lon="5.53755">
        <ele>877.38285132352</ele>
        <time>2020-05-28T07:29:51.000Z</time>
      </trkpt>
      <trkpt lat="45.83404" lon="5.53757">
        <ele>877.18344959252</ele>
        <time>2020-05-28T07:29:53.000Z</time>
      </trkpt>
      <trkpt lat="45.83406" lon="5.53758">
        <ele>876.98395185042</ele>
        <time>2020-05-28T07:29:55.000Z</time>
      </trkpt>
      <trkpt lat="45.83408" lon="5.5376">
        <ele>876.78334998061</ele>
        <time>2020-05-28T07:29:57.000Z</time>
      </trkpt>
      <trkpt lat="45.8341" lon="5.53763">
        <ele>876.58274811081</ele>
        <time>2020-05-28T07:29:59.000Z</time>
      </trkpt>
      <trkpt lat="45.83412" lon="5.53764">
        <ele>876.38214624101</ele>
        <time>2020-05-28T07:30:01.000Z</time>
      </trkpt>
      <trkpt lat="45.83415" lon="5.53766">
        <ele>876.18154437121</ele>
        <time>2020-05-28T07:30:03.000Z</time>
      </trkpt>
      <trkpt lat="45.83417" lon="5.53768">
        <ele>876</ele>
        <time>2020-05-28T07:30:05.000Z</time>
      </trkpt>
      <trkpt lat="45.83419" lon="5.5377">
        <ele>876</ele>
        <time>2020-05-28T07:30:07.000Z</time>
      </trkpt>
      <trkpt lat="45.83421" lon="5.53772">
        <ele>876</ele>
        <time>2020-05-28T07:30:09.000Z</time>
      </trkpt>
      <trkpt lat="45.83423" lon="5.53773">
        <ele>876</ele>
        <time>2020-05-28T07:30:11.000Z</time>
      </trkpt>
      <trkpt lat="45.83426" lon="5.53775">
        <ele>876</ele>
        <time>2020-05-28T07:30:13.000Z</time>
      </trkpt>
      <trkpt lat="45.83427" lon="5.53777">
        <ele>875.98099968</ele>
        <time>2020-05-28T07:30:15.000Z</time>
      </trkpt>
      <trkpt lat="45.83429" lon="5.53779">
        <ele>875.78099968</ele>
        <time>2020-05-28T07:30:17.000Z</time>
      </trkpt>
      <trkpt lat="45.83431" lon="5.53781">
        <ele>875.58099968</ele>
        <time>2020-05-28T07:30:19.000Z</time>
      </trkpt>
      <trkpt lat="45.83433" lon="5.53783">
        <ele>875.38099968</ele>
        <time>2020-05-28T07:30:21.000Z</time>
      </trkpt>
      <trkpt lat="45.83435" lon="5.53785">
        <ele>875.18099968</ele>
        <time>2020-05-28T07:30:23.000Z</time>
      </trkpt>
      <trkpt lat="45.83437" lon="5.53787">
        <ele>874.98099968</ele>
        <time>2020-05-28T07:30:25.000Z</time>
      </trkpt>
      <trkpt lat="45.83439" lon="5.53789">
        <ele>874.78099968</ele>
        <time>2020-05-28T07:30:27.000Z</time>
      </trkpt>
      <trkpt lat="45.83441" lon="5.53791">
        <ele>874.58099968</ele>
        <time>2020-05-28T07:30:29.000Z</time>
      </trkpt>
      <trkpt lat="45.83443" lon="5.53793">
        <ele>874.38099968</ele>
        <time>2020-05-28T07:30:31.000Z</time>
      </trkpt>
      <trkpt lat="45.83445" lon="5.53794">
        <ele>874.18099968</ele>
        <time>2020-05-28T07:30:33.000Z</time>
      </trkpt>
      <trkpt lat="45.83447" lon="5.53796">
        <ele>873.98099968</ele>
        <time>2020-05-28T07:30:35.000Z</time>
      </trkpt>
      <trkpt lat="45.83449" lon="5.53798">
        <ele>873.78099968</ele>
        <time>2020-05-28T07:30:37.000Z</time>
      </trkpt>
      <trkpt lat="45.83451" lon="5.538">
        <ele>873.58099968</ele>
        <time>2020-05-28T07:30:39.000Z</time>
      </trkpt>
      <trkpt lat="45.83453" lon="5.53802">
        <ele>873.38099968</ele>
        <time>2020-05-28T07:30:41.000Z</time>
      </trkpt>
      <trkpt lat="45.83455" lon="5.53804">
        <ele>873.18099968</ele>
        <time>2020-05-28T07:30:43.000Z</time>
      </trkpt>
      <trkpt lat="45.83458" lon="5.53805">
        <ele>872.98099968</ele>
        <time>2020-05-28T07:30:45.000Z</time>
      </trkpt>
      <trkpt lat="45.8346" lon="5.53806">
        <ele>872.78099968</ele>
        <time>2020-05-28T07:30:47.000Z</time>
      </trkpt>
      <trkpt lat="45.83463" lon="5.53808">
        <ele>872.58099968</ele>
        <time>2020-05-28T07:30:49.000Z</time>
      </trkpt>
      <trkpt lat="45.83466" lon="5.5381">
        <ele>872.38099968</ele>
        <time>2020-05-28T07:30:51.000Z</time>
      </trkpt>
      <trkpt lat="45.83468" lon="5.53812">
        <ele>872.18099968</ele>
        <time>2020-05-28T07:30:53.000Z</time>
      </trkpt>
      <trkpt lat="45.8347" lon="5.53814">
        <ele>871.98099968</ele>
        <time>2020-05-28T07:30:55.000Z</time>
      </trkpt>
      <trkpt lat="45.83471" lon="5.53816">
        <ele>871.78099968</ele>
        <time>2020-05-28T07:30:57.000Z</time>
      </trkpt>
      <trkpt lat="45.83473" lon="5.53818">
        <ele>871.58099968</ele>
        <time>2020-05-28T07:30:59.000Z</time>
      </trkpt>
      <trkpt lat="45.83475" lon="5.5382">
        <ele>871.38099968</ele>
        <time>2020-05-28T07:31:01.000Z</time>
      </trkpt>
      <trkpt lat="45.83478" lon="5.53821">
        <ele>871.18099968</ele>
        <time>2020-05-28T07:31:03.000Z</time>
      </trkpt>
      <trkpt lat="45.8348" lon="5.53823">
        <ele>871</ele>
        <time>2020-05-28T07:31:05.000Z</time>
      </trkpt>
      <trkpt lat="45.83482" lon="5.53826">
        <ele>871</ele>
        <time>2020-05-28T07:31:07.000Z</time>
      </trkpt>
      <trkpt lat="45.83484" lon="5.53828">
        <ele>871</ele>
        <time>2020-05-28T07:31:09.000Z</time>
      </trkpt>
      <trkpt lat="45.83485" lon="5.5383">
        <ele>871</ele>
        <time>2020-05-28T07:31:11.000Z</time>
      </trkpt>
      <trkpt lat="45.83487" lon="5.53831">
        <ele>871</ele>
        <time>2020-05-28T07:31:13.000Z</time>
      </trkpt>
      <trkpt lat="45.83489" lon="5.53833">
        <ele>870.98257442084</ele>
        <time>2020-05-28T07:31:15.000Z</time>
      </trkpt>
      <trkpt lat="45.83491" lon="5.53835">
        <ele>870.78896375856</ele>
        <time>2020-05-28T07:31:17.000Z</time>
      </trkpt>
      <trkpt lat="45.83493" lon="5.53837">
        <ele>870.59535309628</ele>
        <time>2020-05-28T07:31:19.000Z</time>
      </trkpt>
      <trkpt lat="45.83495" lon="5.53839">
        <ele>870.401742434</ele>
        <time>2020-05-28T07:31:21.000Z</time>
      </trkpt>
      <trkpt lat="45.83497" lon="5.53841">
        <ele>870.20813177173</ele>
        <time>2020-05-28T07:31:23.000Z</time>
      </trkpt>
      <trkpt lat="45.83499" lon="5.53843">
        <ele>870.01452110945</ele>
        <time>2020-05-28T07:31:25.000Z</time>
      </trkpt>
      <trkpt lat="45.83501" lon="5.53844">
        <ele>870</ele>
        <time>2020-05-28T07:31:27.000Z</time>
      </trkpt>
      <trkpt lat="45.83503" lon="5.53846">
        <ele>870</ele>
        <time>2020-05-28T07:31:29.000Z</time>
      </trkpt>
      <trkpt lat="45.83506" lon="5.53848">
        <ele>870</ele>
        <time>2020-05-28T07:31:31.000Z</time>
      </trkpt>
      <trkpt lat="45.83508" lon="5.53849">
        <ele>870</ele>
        <time>2020-05-28T07:31:33.000Z</time>
      </trkpt>
      <trkpt lat="45.8351" lon="5.53851">
        <ele>870</ele>
        <time>2020-05-28T07:31:35.000Z</time>
      </trkpt>
      <trkpt lat="45.83512" lon="5.53853">
        <ele>870</ele>
        <time>2020-05-28T07:31:37.000Z</time>
      </trkpt>
      <trkpt lat="45.83515" lon="5.53855">
        <ele>870</ele>
        <time>2020-05-28T07:31:39.000Z</time>
      </trkpt>
      <trkpt lat="45.83517" lon="5.53857">
        <ele>870</ele>
        <time>2020-05-28T07:31:41.000Z</time>
      </trkpt>
      <trkpt lat="45.83519" lon="5.53859">
        <ele>870</ele>
        <time>2020-05-28T07:31:43.000Z</time>
      </trkpt>
      <trkpt lat="45.83521" lon="5.53861">
        <ele>870</ele>
        <time>2020-05-28T07:31:45.000Z</time>
      </trkpt>
      <trkpt lat="45.83523" lon="5.53862">
        <ele>870</ele>
        <time>2020-05-28T07:31:47.000Z</time>
      </trkpt>
      <trkpt lat="45.83525" lon="5.53864">
        <ele>870</ele>
        <time>2020-05-28T07:31:49.000Z</time>
      </trkpt>
      <trkpt lat="45.83526" lon="5.53866">
        <ele>870</ele>
        <time>2020-05-28T07:31:51.000Z</time>
      </trkpt>
      <trkpt lat="45.83529" lon="5.53868">
        <ele>870</ele>
        <time>2020-05-28T07:31:53.000Z</time>
      </trkpt>
      <trkpt lat="45.83532" lon="5.5387">
        <ele>869.98099968</ele>
        <time>2020-05-28T07:31:55.000Z</time>
      </trkpt>
      <trkpt lat="45.83534" lon="5.53872">
        <ele>869.78099968</ele>
        <time>2020-05-28T07:31:57.000Z</time>
      </trkpt>
      <trkpt lat="45.83536" lon="5.53873">
        <ele>869.58099968</ele>
        <time>2020-05-28T07:31:59.000Z</time>
      </trkpt>
      <trkpt lat="45.83538" lon="5.53875">
        <ele>869.38099968</ele>
        <time>2020-05-28T07:32:01.000Z</time>
      </trkpt>
      <trkpt lat="45.8354" lon="5.53876">
        <ele>869.18099968</ele>
        <time>2020-05-28T07:32:03.000Z</time>
      </trkpt>
      <trkpt lat="45.83542" lon="5.53877">
        <ele>869</ele>
        <time>2020-05-28T07:32:05.000Z</time>
      </trkpt>
      <trkpt lat="45.83544" lon="5.53878">
        <ele>869</ele>
        <time>2020-05-28T07:32:07.000Z</time>
      </trkpt>
      <trkpt lat="45.83547" lon="5.53879">
        <ele>869</ele>
        <time>2020-05-28T07:32:09.000Z</time>
      </trkpt>
      <trkpt lat="45.83549" lon="5.53879">
        <ele>869</ele>
        <time>2020-05-28T07:32:11.000Z</time>
      </trkpt>
      <trkpt lat="45.83551" lon="5.53879">
        <ele>869</ele>
        <time>2020-05-28T07:32:13.000Z</time>
      </trkpt>
      <trkpt lat="45.83553" lon="5.5388">
        <ele>868.98124353209</ele>
        <time>2020-05-28T07:32:15.000Z</time>
      </trkpt>
      <trkpt lat="45.83556" lon="5.53881">
        <ele>868.68509376339</ele>
        <time>2020-05-28T07:32:18.000Z</time>
      </trkpt>
      <trkpt lat="45.83557" lon="5.53881">
        <ele>868.48766058425</ele>
        <time>2020-05-28T07:32:20.000Z</time>
      </trkpt>
      <trkpt lat="45.8356" lon="5.5388">
        <ele>868.29022740512</ele>
        <time>2020-05-28T07:32:22.000Z</time>
      </trkpt>
      <trkpt lat="45.83562" lon="5.53879">
        <ele>868.09279422598</ele>
        <time>2020-05-28T07:32:24.000Z</time>
      </trkpt>
      <trkpt lat="45.83565" lon="5.53877">
        <ele>868</ele>
        <time>2020-05-28T07:32:26.000Z</time>
      </trkpt>
      <trkpt lat="45.83568" lon="5.53876">
        <ele>868</ele>
        <time>2020-05-28T07:32:28.000Z</time>
      </trkpt>
      <trkpt lat="45.8357" lon="5.53875">
        <ele>868</ele>
        <time>2020-05-28T07:32:30.000Z</time>
      </trkpt>
      <trkpt lat="45.83573" lon="5.53874">
        <ele>868</ele>
        <time>2020-05-28T07:32:32.000Z</time>
      </trkpt>
      <trkpt lat="45.83576" lon="5.53873">
        <ele>868</ele>
        <time>2020-05-28T07:32:34.000Z</time>
      </trkpt>
      <trkpt lat="45.83578" lon="5.53872">
        <ele>868</ele>
        <time>2020-05-28T07:32:36.000Z</time>
      </trkpt>
      <trkpt lat="45.83581" lon="5.5387">
        <ele>868</ele>
        <time>2020-05-28T07:32:38.000Z</time>
      </trkpt>
      <trkpt lat="45.83583" lon="5.53869">
        <ele>868</ele>
        <time>2020-05-28T07:32:40.000Z</time>
      </trkpt>
      <trkpt lat="45.83585" lon="5.53869">
        <ele>868</ele>
        <time>2020-05-28T07:32:42.000Z</time>
      </trkpt>
      <trkpt lat="45.83587" lon="5.53868">
        <ele>868</ele>
        <time>2020-05-28T07:32:44.000Z</time>
      </trkpt>
      <trkpt lat="45.83589" lon="5.53866">
        <ele>867.88099968</ele>
        <time>2020-05-28T07:32:46.000Z</time>
      </trkpt>
      <trkpt lat="45.83592" lon="5.53865">
        <ele>867.68099968</ele>
        <time>2020-05-28T07:32:48.000Z</time>
      </trkpt>
      <trkpt lat="45.83595" lon="5.53864">
        <ele>867.48099968</ele>
        <time>2020-05-28T07:32:50.000Z</time>
      </trkpt>
      <trkpt lat="45.83598" lon="5.53863">
        <ele>867.28099968</ele>
        <time>2020-05-28T07:32:52.000Z</time>
      </trkpt>
      <trkpt lat="45.83601" lon="5.53861">
        <ele>867.08099968</ele>
        <time>2020-05-28T07:32:54.000Z</time>
      </trkpt>
      <trkpt lat="45.83604" lon="5.5386">
        <ele>866.88099968</ele>
        <time>2020-05-28T07:32:56.000Z</time>
      </trkpt>
      <trkpt lat="45.83606" lon="5.53859">
        <ele>866.68099968</ele>
        <time>2020-05-28T07:32:58.000Z</time>
      </trkpt>
      <trkpt lat="45.83608" lon="5.53858">
        <ele>866.48099968</ele>
        <time>2020-05-28T07:33:00.000Z</time>
      </trkpt>
      <trkpt lat="45.8361" lon="5.53857">
        <ele>866.28099968</ele>
        <time>2020-05-28T07:33:02.000Z</time>
      </trkpt>
      <trkpt lat="45.83613" lon="5.53856">
        <ele>866.08099968</ele>
        <time>2020-05-28T07:33:04.000Z</time>
      </trkpt>
      <trkpt lat="45.83615" lon="5.53855">
        <ele>866</ele>
        <time>2020-05-28T07:33:06.000Z</time>
      </trkpt>
      <trkpt lat="45.83617" lon="5.53853">
        <ele>866</ele>
        <time>2020-05-28T07:33:08.000Z</time>
      </trkpt>
      <trkpt lat="45.8362" lon="5.53851">
        <ele>866</ele>
        <time>2020-05-28T07:33:10.000Z</time>
      </trkpt>
      <trkpt lat="45.83622" lon="5.5385">
        <ele>866</ele>
        <time>2020-05-28T07:33:12.000Z</time>
      </trkpt>
      <trkpt lat="45.83625" lon="5.53849">
        <ele>866</ele>
        <time>2020-05-28T07:33:14.000Z</time>
      </trkpt>
      <trkpt lat="45.83628" lon="5.53848">
        <ele>866</ele>
        <time>2020-05-28T07:33:16.000Z</time>
      </trkpt>
      <trkpt lat="45.8363" lon="5.53847">
        <ele>866</ele>
        <time>2020-05-28T07:33:18.000Z</time>
      </trkpt>
      <trkpt lat="45.83632" lon="5.53846">
        <ele>866</ele>
        <time>2020-05-28T07:33:20.000Z</time>
      </trkpt>
      <trkpt lat="45.83635" lon="5.53844">
        <ele>866</ele>
        <time>2020-05-28T07:33:22.000Z</time>
      </trkpt>
      <trkpt lat="45.83638" lon="5.53843">
        <ele>866</ele>
        <time>2020-05-28T07:33:24.000Z</time>
      </trkpt>
      <trkpt lat="45.8364" lon="5.53842">
        <ele>865.88235234062</ele>
        <time>2020-05-28T07:33:26.000Z</time>
      </trkpt>
      <trkpt lat="45.83642" lon="5.5384">
        <ele>865.68295060963</ele>
        <time>2020-05-28T07:33:28.000Z</time>
      </trkpt>
      <trkpt lat="45.83644" lon="5.53839">
        <ele>865.48354887863</ele>
        <time>2020-05-28T07:33:30.000Z</time>
      </trkpt>
      <trkpt lat="45.83647" lon="5.53837">
        <ele>865.28414714763</ele>
        <time>2020-05-28T07:33:32.000Z</time>
      </trkpt>
      <trkpt lat="45.83649" lon="5.53836">
        <ele>865.08474541663</ele>
        <time>2020-05-28T07:33:34.000Z</time>
      </trkpt>
      <trkpt lat="45.83652" lon="5.53835">
        <ele>864.88453783133</ele>
        <time>2020-05-28T07:33:36.000Z</time>
      </trkpt>
      <trkpt lat="45.83654" lon="5.53833">
        <ele>864.68373461847</ele>
        <time>2020-05-28T07:33:38.000Z</time>
      </trkpt>
      <trkpt lat="45.83657" lon="5.53832">
        <ele>864.48293140562</ele>
        <time>2020-05-28T07:33:40.000Z</time>
      </trkpt>
      <trkpt lat="45.83659" lon="5.5383">
        <ele>864.28212819277</ele>
        <time>2020-05-28T07:33:42.000Z</time>
      </trkpt>
      <trkpt lat="45.83662" lon="5.53829">
        <ele>864.08132497992</ele>
        <time>2020-05-28T07:33:44.000Z</time>
      </trkpt>
      <trkpt lat="45.83664" lon="5.53827">
        <ele>864</ele>
        <time>2020-05-28T07:33:46.000Z</time>
      </trkpt>
      <trkpt lat="45.83666" lon="5.53825">
        <ele>864</ele>
        <time>2020-05-28T07:33:48.000Z</time>
      </trkpt>
      <trkpt lat="45.83668" lon="5.53823">
        <ele>864</ele>
        <time>2020-05-28T07:33:50.000Z</time>
      </trkpt>
      <trkpt lat="45.8367" lon="5.5382">
        <ele>864</ele>
        <time>2020-05-28T07:33:52.000Z</time>
      </trkpt>
      <trkpt lat="45.83672" lon="5.53819">
        <ele>864</ele>
        <time>2020-05-28T07:33:54.000Z</time>
      </trkpt>
      <trkpt lat="45.83675" lon="5.53818">
        <ele>863.52399872</ele>
        <time>2020-05-28T07:33:56.000Z</time>
      </trkpt>
      <trkpt lat="45.83677" lon="5.53817">
        <ele>862.72399872</ele>
        <time>2020-05-28T07:33:58.000Z</time>
      </trkpt>
      <trkpt lat="45.83679" lon="5.53817">
        <ele>861.52399872</ele>
        <time>2020-05-28T07:34:01.000Z</time>
      </trkpt>
      <trkpt lat="45.83681" lon="5.53817">
        <ele>860.72399872</ele>
        <time>2020-05-28T07:34:03.000Z</time>
      </trkpt>
      <trkpt lat="45.83683" lon="5.53815">
        <ele>860.01900032</ele>
        <time>2020-05-28T07:34:05.000Z</time>
      </trkpt>
      <trkpt lat="45.83685" lon="5.53813">
        <ele>860.21900032</ele>
        <time>2020-05-28T07:34:07.000Z</time>
      </trkpt>
      <trkpt lat="45.83688" lon="5.53812">
        <ele>860.41900032</ele>
        <time>2020-05-28T07:34:09.000Z</time>
      </trkpt>
      <trkpt lat="45.83689" lon="5.53809">
        <ele>860.61900032</ele>
        <time>2020-05-28T07:34:11.000Z</time>
      </trkpt>
      <trkpt lat="45.83691" lon="5.53807">
        <ele>860.81900032</ele>
        <time>2020-05-28T07:34:13.000Z</time>
      </trkpt>
      <trkpt lat="45.83693" lon="5.53806">
        <ele>861</ele>
        <time>2020-05-28T07:34:15.000Z</time>
      </trkpt>
      <trkpt lat="45.83694" lon="5.53805">
        <ele>861</ele>
        <time>2020-05-28T07:34:17.000Z</time>
      </trkpt>
      <trkpt lat="45.83696" lon="5.53803">
        <ele>861</ele>
        <time>2020-05-28T07:34:20.000Z</time>
      </trkpt>
      <trkpt lat="45.83698" lon="5.53801">
        <ele>861</ele>
        <time>2020-05-28T07:34:22.000Z</time>
      </trkpt>
      <trkpt lat="45.83695" lon="5.53802">
        <ele>860.58596806324</ele>
        <time>2020-05-28T07:34:29.000Z</time>
      </trkpt>
      <trkpt lat="45.83693" lon="5.53803">
        <ele>860.38833960474</ele>
        <time>2020-05-28T07:34:31.000Z</time>
      </trkpt>
      <trkpt lat="45.83694" lon="5.53801">
        <ele>860</ele>
        <time>2020-05-28T07:34:41.000Z</time>
      </trkpt>
      <trkpt lat="45.83696" lon="5.53799">
        <ele>860</ele>
        <time>2020-05-28T07:34:43.000Z</time>
      </trkpt>
      <trkpt lat="45.83699" lon="5.53797">
        <ele>860</ele>
        <time>2020-05-28T07:34:45.000Z</time>
      </trkpt>
      <trkpt lat="45.83701" lon="5.53795">
        <ele>860</ele>
        <time>2020-05-28T07:34:47.000Z</time>
      </trkpt>
      <trkpt lat="45.83703" lon="5.53792">
        <ele>860</ele>
        <time>2020-05-28T07:34:49.000Z</time>
      </trkpt>
      <trkpt lat="45.83706" lon="5.5379">
        <ele>860</ele>
        <time>2020-05-28T07:34:51.000Z</time>
      </trkpt>
      <trkpt lat="45.83708" lon="5.53788">
        <ele>860</ele>
        <time>2020-05-28T07:34:53.000Z</time>
      </trkpt>
      <trkpt lat="45.8371" lon="5.53786">
        <ele>859.98164220857</ele>
        <time>2020-05-28T07:34:55.000Z</time>
      </trkpt>
      <trkpt lat="45.83712" lon="5.53784">
        <ele>859.78840555334</ele>
        <time>2020-05-28T07:34:57.000Z</time>
      </trkpt>
      <trkpt lat="45.83715" lon="5.53782">
        <ele>859.59516889811</ele>
        <time>2020-05-28T07:34:59.000Z</time>
      </trkpt>
      <trkpt lat="45.83717" lon="5.53779">
        <ele>859.40193224288</ele>
        <time>2020-05-28T07:35:01.000Z</time>
      </trkpt>
      <trkpt lat="45.83719" lon="5.53777">
        <ele>859.20869558765</ele>
        <time>2020-05-28T07:35:03.000Z</time>
      </trkpt>
      <trkpt lat="45.83721" lon="5.53774">
        <ele>859.01545893242</ele>
        <time>2020-05-28T07:35:05.000Z</time>
      </trkpt>
      <trkpt lat="45.83723" lon="5.53773">
        <ele>859</ele>
        <time>2020-05-28T07:35:06.000Z</time>
      </trkpt>
      <trkpt lat="45.83725" lon="5.53771">
        <ele>859</ele>
        <time>2020-05-28T07:35:08.000Z</time>
      </trkpt>
      <trkpt lat="45.83727" lon="5.5377">
        <ele>859</ele>
        <time>2020-05-28T07:35:10.000Z</time>
      </trkpt>
      <trkpt lat="45.83729" lon="5.53768">
        <ele>859</ele>
        <time>2020-05-28T07:35:12.000Z</time>
      </trkpt>
      <trkpt lat="45.83732" lon="5.53765">
        <ele>859</ele>
        <time>2020-05-28T07:35:14.000Z</time>
      </trkpt>
      <trkpt lat="45.83734" lon="5.53763">
        <ele>858.88356140364</ele>
        <time>2020-05-28T07:35:16.000Z</time>
      </trkpt>
      <trkpt lat="45.83736" lon="5.5376">
        <ele>858.68786680995</ele>
        <time>2020-05-28T07:35:18.000Z</time>
      </trkpt>
      <trkpt lat="45.83738" lon="5.53757">
        <ele>858.49217221625</ele>
        <time>2020-05-28T07:35:20.000Z</time>
      </trkpt>
      <trkpt lat="45.8374" lon="5.53755">
        <ele>858.29647762256</ele>
        <time>2020-05-28T07:35:22.000Z</time>
      </trkpt>
      <trkpt lat="45.83741" lon="5.53753">
        <ele>858.10078302886</ele>
        <time>2020-05-28T07:35:24.000Z</time>
      </trkpt>
      <trkpt lat="45.83742" lon="5.5375">
        <ele>857.90122225742</ele>
        <time>2020-05-28T07:35:26.000Z</time>
      </trkpt>
      <trkpt lat="45.83744" lon="5.53748">
        <ele>857.6975561369</ele>
        <time>2020-05-28T07:35:28.000Z</time>
      </trkpt>
      <trkpt lat="45.83746" lon="5.53745">
        <ele>857.49389001638</ele>
        <time>2020-05-28T07:35:30.000Z</time>
      </trkpt>
      <trkpt lat="45.83747" lon="5.53743">
        <ele>857.29022389587</ele>
        <time>2020-05-28T07:35:32.000Z</time>
      </trkpt>
      <trkpt lat="45.83749" lon="5.53741">
        <ele>857.08655777535</ele>
        <time>2020-05-28T07:35:34.000Z</time>
      </trkpt>
      <trkpt lat="45.83751" lon="5.53738">
        <ele>856.88488460144</ele>
        <time>2020-05-28T07:35:36.000Z</time>
      </trkpt>
      <trkpt lat="45.83752" lon="5.53736">
        <ele>856.68468446537</ele>
        <time>2020-05-28T07:35:38.000Z</time>
      </trkpt>
      <trkpt lat="45.83753" lon="5.53733">
        <ele>856.48448432929</ele>
        <time>2020-05-28T07:35:40.000Z</time>
      </trkpt>
      <trkpt lat="45.83755" lon="5.5373">
        <ele>856.28428419322</ele>
        <time>2020-05-28T07:35:42.000Z</time>
      </trkpt>
      <trkpt lat="45.83756" lon="5.53729">
        <ele>856.08408405715</ele>
        <time>2020-05-28T07:35:44.000Z</time>
      </trkpt>
      <trkpt lat="45.83758" lon="5.53727">
        <ele>855.96199936</ele>
        <time>2020-05-28T07:35:55.000Z</time>
      </trkpt>
      <trkpt lat="45.8376" lon="5.53724">
        <ele>855.56199936</ele>
        <time>2020-05-28T07:35:57.000Z</time>
      </trkpt>
      <trkpt lat="45.83762" lon="5.53722">
        <ele>855.16199936</ele>
        <time>2020-05-28T07:35:59.000Z</time>
      </trkpt>
      <trkpt lat="45.83763" lon="5.53719">
        <ele>854.76199936</ele>
        <time>2020-05-28T07:36:01.000Z</time>
      </trkpt>
      <trkpt lat="45.83764" lon="5.53716">
        <ele>854.36199936</ele>
        <time>2020-05-28T07:36:03.000Z</time>
      </trkpt>
      <trkpt lat="45.83766" lon="5.53713">
        <ele>854</ele>
        <time>2020-05-28T07:36:05.000Z</time>
      </trkpt>
      <trkpt lat="45.83768" lon="5.53711">
        <ele>854</ele>
        <time>2020-05-28T07:36:07.000Z</time>
      </trkpt>
      <trkpt lat="45.8377" lon="5.53708">
        <ele>854</ele>
        <time>2020-05-28T07:36:09.000Z</time>
      </trkpt>
      <trkpt lat="45.83772" lon="5.53705">
        <ele>854</ele>
        <time>2020-05-28T07:36:11.000Z</time>
      </trkpt>
      <trkpt lat="45.83773" lon="5.53703">
        <ele>854</ele>
        <time>2020-05-28T07:36:13.000Z</time>
      </trkpt>
      <trkpt lat="45.83776" lon="5.537">
        <ele>853.98099968</ele>
        <time>2020-05-28T07:36:15.000Z</time>
      </trkpt>
      <trkpt lat="45.83778" lon="5.53697">
        <ele>853.78099968</ele>
        <time>2020-05-28T07:36:17.000Z</time>
      </trkpt>
      <trkpt lat="45.8378" lon="5.53695">
        <ele>853.58099968</ele>
        <time>2020-05-28T07:36:19.000Z</time>
      </trkpt>
      <trkpt lat="45.83782" lon="5.53693">
        <ele>853.38099968</ele>
        <time>2020-05-28T07:36:21.000Z</time>
      </trkpt>
      <trkpt lat="45.83784" lon="5.53691">
        <ele>853.18099968</ele>
        <time>2020-05-28T07:36:23.000Z</time>
      </trkpt>
      <trkpt lat="45.83786" lon="5.5369">
        <ele>852.98101865527</ele>
        <time>2020-05-28T07:36:25.000Z</time>
      </trkpt>
      <trkpt lat="45.83787" lon="5.53688">
        <ele>852.7812183916</ele>
        <time>2020-05-28T07:36:27.000Z</time>
      </trkpt>
      <trkpt lat="45.8379" lon="5.53685">
        <ele>852.58141812793</ele>
        <time>2020-05-28T07:36:29.000Z</time>
      </trkpt>
      <trkpt lat="45.83792" lon="5.53683">
        <ele>852.38161786425</ele>
        <time>2020-05-28T07:36:31.000Z</time>
      </trkpt>
      <trkpt lat="45.83794" lon="5.53681">
        <ele>852.18181760058</ele>
        <time>2020-05-28T07:36:33.000Z</time>
      </trkpt>
      <trkpt lat="45.83796" lon="5.5368">
        <ele>851.98198134711</ele>
        <time>2020-05-28T07:36:35.000Z</time>
      </trkpt>
      <trkpt lat="45.83798" lon="5.53678">
        <ele>851.78178121104</ele>
        <time>2020-05-28T07:36:37.000Z</time>
      </trkpt>
      <trkpt lat="45.838" lon="5.53677">
        <ele>851.58158107497</ele>
        <time>2020-05-28T07:36:39.000Z</time>
      </trkpt>
      <trkpt lat="45.83802" lon="5.53675">
        <ele>851.3813809389</ele>
        <time>2020-05-28T07:36:41.000Z</time>
      </trkpt>
      <trkpt lat="45.83804" lon="5.53673">
        <ele>851.18118080282</ele>
        <time>2020-05-28T07:36:43.000Z</time>
      </trkpt>
      <trkpt lat="45.83806" lon="5.53671">
        <ele>850.98099968</ele>
        <time>2020-05-28T07:36:45.000Z</time>
      </trkpt>
      <trkpt lat="45.83808" lon="5.53668">
        <ele>850.78099968</ele>
        <time>2020-05-28T07:36:47.000Z</time>
      </trkpt>
      <trkpt lat="45.83811" lon="5.53666">
        <ele>850.58099968</ele>
        <time>2020-05-28T07:36:49.000Z</time>
      </trkpt>
      <trkpt lat="45.83813" lon="5.53665">
        <ele>850.48099968</ele>
        <time>2020-05-28T07:36:50.000Z</time>
      </trkpt>
      <trkpt lat="45.83816" lon="5.53662">
        <ele>850.28099968</ele>
        <time>2020-05-28T07:36:52.000Z</time>
      </trkpt>
      <trkpt lat="45.83818" lon="5.5366">
        <ele>850.08099968</ele>
        <time>2020-05-28T07:36:54.000Z</time>
      </trkpt>
      <trkpt lat="45.8382" lon="5.53659">
        <ele>850</ele>
        <time>2020-05-28T07:36:56.000Z</time>
      </trkpt>
      <trkpt lat="45.83822" lon="5.53657">
        <ele>850</ele>
        <time>2020-05-28T07:36:58.000Z</time>
      </trkpt>
      <trkpt lat="45.83825" lon="5.53655">
        <ele>850</ele>
        <time>2020-05-28T07:37:00.000Z</time>
      </trkpt>
      <trkpt lat="45.83827" lon="5.53653">
        <ele>850</ele>
        <time>2020-05-28T07:37:02.000Z</time>
      </trkpt>
      <trkpt lat="45.83829" lon="5.53651">
        <ele>850</ele>
        <time>2020-05-28T07:37:04.000Z</time>
      </trkpt>
      <trkpt lat="45.83832" lon="5.5365">
        <ele>850</ele>
        <time>2020-05-28T07:37:06.000Z</time>
      </trkpt>
      <trkpt lat="45.83835" lon="5.53648">
        <ele>850</ele>
        <time>2020-05-28T07:37:08.000Z</time>
      </trkpt>
      <trkpt lat="45.83837" lon="5.53646">
        <ele>850</ele>
        <time>2020-05-28T07:37:10.000Z</time>
      </trkpt>
      <trkpt lat="45.8384" lon="5.53645">
        <ele>850</ele>
        <time>2020-05-28T07:37:12.000Z</time>
      </trkpt>
      <trkpt lat="45.83842" lon="5.53644">
        <ele>850</ele>
        <time>2020-05-28T07:37:14.000Z</time>
      </trkpt>
      <trkpt lat="45.83845" lon="5.53642">
        <ele>850</ele>
        <time>2020-05-28T07:37:16.000Z</time>
      </trkpt>
      <trkpt lat="45.83848" lon="5.53641">
        <ele>850</ele>
        <time>2020-05-28T07:37:18.000Z</time>
      </trkpt>
      <trkpt lat="45.8385" lon="5.5364">
        <ele>850</ele>
        <time>2020-05-28T07:37:20.000Z</time>
      </trkpt>
      <trkpt lat="45.83853" lon="5.53638">
        <ele>850</ele>
        <time>2020-05-28T07:37:22.000Z</time>
      </trkpt>
      <trkpt lat="45.83855" lon="5.53638">
        <ele>850</ele>
        <time>2020-05-28T07:37:24.000Z</time>
      </trkpt>
      <trkpt lat="45.83858" lon="5.53637">
        <ele>850</ele>
        <time>2020-05-28T07:37:26.000Z</time>
      </trkpt>
      <trkpt lat="45.83861" lon="5.53636">
        <ele>850</ele>
        <time>2020-05-28T07:37:28.000Z</time>
      </trkpt>
      <trkpt lat="45.83863" lon="5.53635">
        <ele>850</ele>
        <time>2020-05-28T07:37:30.000Z</time>
      </trkpt>
      <trkpt lat="45.83865" lon="5.53634">
        <ele>850</ele>
        <time>2020-05-28T07:37:32.000Z</time>
      </trkpt>
      <trkpt lat="45.83868" lon="5.53633">
        <ele>850</ele>
        <time>2020-05-28T07:37:34.000Z</time>
      </trkpt>
      <trkpt lat="45.83871" lon="5.53632">
        <ele>849.88217797565</ele>
        <time>2020-05-28T07:37:36.000Z</time>
      </trkpt>
      <trkpt lat="45.83873" lon="5.53631">
        <ele>849.68415829915</ele>
        <time>2020-05-28T07:37:38.000Z</time>
      </trkpt>
      <trkpt lat="45.83875" lon="5.53631">
        <ele>849.48613862264</ele>
        <time>2020-05-28T07:37:40.000Z</time>
      </trkpt>
      <trkpt lat="45.83878" lon="5.5363">
        <ele>849.28811894614</ele>
        <time>2020-05-28T07:37:42.000Z</time>
      </trkpt>
      <trkpt lat="45.8388" lon="5.53629">
        <ele>849.09009926964</ele>
        <time>2020-05-28T07:37:44.000Z</time>
      </trkpt>
      <trkpt lat="45.83883" lon="5.53628">
        <ele>848.89303273232</ele>
        <time>2020-05-28T07:37:46.000Z</time>
      </trkpt>
      <trkpt lat="45.83885" lon="5.53627">
        <ele>848.69676194017</ele>
        <time>2020-05-28T07:37:48.000Z</time>
      </trkpt>
      <trkpt lat="45.83887" lon="5.53625">
        <ele>848.50049114803</ele>
        <time>2020-05-28T07:37:50.000Z</time>
      </trkpt>
      <trkpt lat="45.83889" lon="5.53624">
        <ele>848.30422035589</ele>
        <time>2020-05-28T07:37:52.000Z</time>
      </trkpt>
      <trkpt lat="45.83891" lon="5.53622">
        <ele>848.10794956375</ele>
        <time>2020-05-28T07:37:54.000Z</time>
      </trkpt>
      <trkpt lat="45.83894" lon="5.53621">
        <ele>847.90731261691</ele>
        <time>2020-05-28T07:37:56.000Z</time>
      </trkpt>
      <trkpt lat="45.83897" lon="5.53619">
        <ele>847.70133918979</ele>
        <time>2020-05-28T07:37:58.000Z</time>
      </trkpt>
      <trkpt lat="45.83899" lon="5.53617">
        <ele>847.39237904911</ele>
        <time>2020-05-28T07:38:01.000Z</time>
      </trkpt>
      <trkpt lat="45.83902" lon="5.53616">
        <ele>847.18640562199</ele>
        <time>2020-05-28T07:38:03.000Z</time>
      </trkpt>
      <trkpt lat="45.83904" lon="5.53615">
        <ele>847</ele>
        <time>2020-05-28T07:38:05.000Z</time>
      </trkpt>
      <trkpt lat="45.83907" lon="5.53613">
        <ele>847</ele>
        <time>2020-05-28T07:38:07.000Z</time>
      </trkpt>
      <trkpt lat="45.83909" lon="5.53611">
        <ele>847</ele>
        <time>2020-05-28T07:38:09.000Z</time>
      </trkpt>
      <trkpt lat="45.83911" lon="5.5361">
        <ele>847</ele>
        <time>2020-05-28T07:38:12.000Z</time>
      </trkpt>
      <trkpt lat="45.83913" lon="5.53609">
        <ele>847</ele>
        <time>2020-05-28T07:38:14.000Z</time>
      </trkpt>
      <trkpt lat="45.83915" lon="5.53607">
        <ele>847</ele>
        <time>2020-05-28T07:38:16.000Z</time>
      </trkpt>
      <trkpt lat="45.83917" lon="5.53604">
        <ele>847</ele>
        <time>2020-05-28T07:38:18.000Z</time>
      </trkpt>
      <trkpt lat="45.83919" lon="5.53603">
        <ele>847</ele>
        <time>2020-05-28T07:38:20.000Z</time>
      </trkpt>
      <trkpt lat="45.83921" lon="5.536">
        <ele>847</ele>
        <time>2020-05-28T07:38:22.000Z</time>
      </trkpt>
      <trkpt lat="45.83923" lon="5.53598">
        <ele>847</ele>
        <time>2020-05-28T07:38:24.000Z</time>
      </trkpt>
      <trkpt lat="45.83925" lon="5.53597">
        <ele>847</ele>
        <time>2020-05-28T07:38:26.000Z</time>
      </trkpt>
      <trkpt lat="45.83928" lon="5.53595">
        <ele>847</ele>
        <time>2020-05-28T07:38:28.000Z</time>
      </trkpt>
      <trkpt lat="45.83929" lon="5.53593">
        <ele>847</ele>
        <time>2020-05-28T07:38:30.000Z</time>
      </trkpt>
      <trkpt lat="45.83932" lon="5.53592">
        <ele>847</ele>
        <time>2020-05-28T07:38:32.000Z</time>
      </trkpt>
      <trkpt lat="45.83934" lon="5.5359">
        <ele>847</ele>
        <time>2020-05-28T07:38:34.000Z</time>
      </trkpt>
      <trkpt lat="45.83936" lon="5.53589">
        <ele>846.89949215887</ele>
        <time>2020-05-28T07:38:36.000Z</time>
      </trkpt>
      <trkpt lat="45.83938" lon="5.53587">
        <ele>846.69644667148</ele>
        <time>2020-05-28T07:38:38.000Z</time>
      </trkpt>
      <trkpt lat="45.8394" lon="5.53585">
        <ele>846.4934011841</ele>
        <time>2020-05-28T07:38:40.000Z</time>
      </trkpt>
      <trkpt lat="45.83942" lon="5.53584">
        <ele>846.29035569671</ele>
        <time>2020-05-28T07:38:42.000Z</time>
      </trkpt>
      <trkpt lat="45.83943" lon="5.53582">
        <ele>846.08731020932</ele>
        <time>2020-05-28T07:38:44.000Z</time>
      </trkpt>
      <trkpt lat="45.83945" lon="5.53581">
        <ele>846</ele>
        <time>2020-05-28T07:38:47.000Z</time>
      </trkpt>
      <trkpt lat="45.83945" lon="5.53578">
        <ele>846</ele>
        <time>2020-05-28T07:39:04.000Z</time>
      </trkpt>
      <trkpt lat="45.83942" lon="5.53566">
        <ele>845.81900032</ele>
        <time>2020-05-28T07:39:33.000Z</time>
      </trkpt>
      <trkpt lat="45.83937" lon="5.53556">
        <ele>846.41900032</ele>
        <time>2020-05-28T07:39:39.000Z</time>
      </trkpt>
      <trkpt lat="45.83936" lon="5.53553">
        <ele>846.61900032</ele>
        <time>2020-05-28T07:39:41.000Z</time>
      </trkpt>
      <trkpt lat="45.83936" lon="5.53551">
        <ele>846.81900032</ele>
        <time>2020-05-28T07:39:43.000Z</time>
      </trkpt>
      <trkpt lat="45.83936" lon="5.53548">
        <ele>847</ele>
        <time>2020-05-28T07:39:45.000Z</time>
      </trkpt>
      <trkpt lat="45.83937" lon="5.53544">
        <ele>847</ele>
        <time>2020-05-28T07:39:47.000Z</time>
      </trkpt>
      <trkpt lat="45.83938" lon="5.53542">
        <ele>847</ele>
        <time>2020-05-28T07:39:49.000Z</time>
      </trkpt>
      <trkpt lat="45.8394" lon="5.53539">
        <ele>847</ele>
        <time>2020-05-28T07:39:52.000Z</time>
      </trkpt>
      <trkpt lat="45.83941" lon="5.53536">
        <ele>847.03800064</ele>
        <time>2020-05-28T07:39:55.000Z</time>
      </trkpt>
      <trkpt lat="45.83943" lon="5.53535">
        <ele>847.43800064</ele>
        <time>2020-05-28T07:39:57.000Z</time>
      </trkpt>
      <trkpt lat="45.83945" lon="5.53532">
        <ele>847.83800064</ele>
        <time>2020-05-28T07:39:59.000Z</time>
      </trkpt>
      <trkpt lat="45.83947" lon="5.5353">
        <ele>848.23800064</ele>
        <time>2020-05-28T07:40:01.000Z</time>
      </trkpt>
      <trkpt lat="45.83948" lon="5.53528">
        <ele>848.63800064</ele>
        <time>2020-05-28T07:40:03.000Z</time>
      </trkpt>
      <trkpt lat="45.8395" lon="5.53525">
        <ele>849</ele>
        <time>2020-05-28T07:40:05.000Z</time>
      </trkpt>
      <trkpt lat="45.83952" lon="5.53523">
        <ele>849</ele>
        <time>2020-05-28T07:40:07.000Z</time>
      </trkpt>
      <trkpt lat="45.83954" lon="5.5352">
        <ele>849</ele>
        <time>2020-05-28T07:40:09.000Z</time>
      </trkpt>
      <trkpt lat="45.83955" lon="5.53518">
        <ele>849</ele>
        <time>2020-05-28T07:40:11.000Z</time>
      </trkpt>
      <trkpt lat="45.83957" lon="5.53515">
        <ele>849</ele>
        <time>2020-05-28T07:40:13.000Z</time>
      </trkpt>
      <trkpt lat="45.83959" lon="5.53513">
        <ele>849.01900032</ele>
        <time>2020-05-28T07:40:15.000Z</time>
      </trkpt>
      <trkpt lat="45.8396" lon="5.53511">
        <ele>849.21900032</ele>
        <time>2020-05-28T07:40:17.000Z</time>
      </trkpt>
      <trkpt lat="45.83963" lon="5.53508">
        <ele>849.51900032</ele>
        <time>2020-05-28T07:40:20.000Z</time>
      </trkpt>
      <trkpt lat="45.83965" lon="5.53505">
        <ele>849.71900032</ele>
        <time>2020-05-28T07:40:22.000Z</time>
      </trkpt>
      <trkpt lat="45.83967" lon="5.53503">
        <ele>849.91900032</ele>
        <time>2020-05-28T07:40:24.000Z</time>
      </trkpt>
      <trkpt lat="45.83968" lon="5.53501">
        <ele>850</ele>
        <time>2020-05-28T07:40:26.000Z</time>
      </trkpt>
      <trkpt lat="45.8397" lon="5.535">
        <ele>850</ele>
        <time>2020-05-28T07:40:28.000Z</time>
      </trkpt>
      <trkpt lat="45.83971" lon="5.53497">
        <ele>850</ele>
        <time>2020-05-28T07:40:30.000Z</time>
      </trkpt>
      <trkpt lat="45.83973" lon="5.53496">
        <ele>850</ele>
        <time>2020-05-28T07:40:32.000Z</time>
      </trkpt>
      <trkpt lat="45.83975" lon="5.53493">
        <ele>850</ele>
        <time>2020-05-28T07:40:34.000Z</time>
      </trkpt>
      <trkpt lat="45.83977" lon="5.5349">
        <ele>850.11900032</ele>
        <time>2020-05-28T07:40:36.000Z</time>
      </trkpt>
      <trkpt lat="45.83979" lon="5.53487">
        <ele>850.31900032</ele>
        <time>2020-05-28T07:40:38.000Z</time>
      </trkpt>
      <trkpt lat="45.83982" lon="5.53485">
        <ele>850.51900032</ele>
        <time>2020-05-28T07:40:40.000Z</time>
      </trkpt>
      <trkpt lat="45.83983" lon="5.53483">
        <ele>850.71900032</ele>
        <time>2020-05-28T07:40:42.000Z</time>
      </trkpt>
      <trkpt lat="45.83984" lon="5.5348">
        <ele>850.91900032</ele>
        <time>2020-05-28T07:40:44.000Z</time>
      </trkpt>
      <trkpt lat="45.83986" lon="5.53478">
        <ele>851</ele>
        <time>2020-05-28T07:40:46.000Z</time>
      </trkpt>
      <trkpt lat="45.83987" lon="5.53475">
        <ele>851</ele>
        <time>2020-05-28T07:40:48.000Z</time>
      </trkpt>
      <trkpt lat="45.83989" lon="5.53472">
        <ele>851</ele>
        <time>2020-05-28T07:40:50.000Z</time>
      </trkpt>
      <trkpt lat="45.83991" lon="5.5347">
        <ele>851</ele>
        <time>2020-05-28T07:40:52.000Z</time>
      </trkpt>
      <trkpt lat="45.83992" lon="5.53468">
        <ele>851</ele>
        <time>2020-05-28T07:40:54.000Z</time>
      </trkpt>
      <trkpt lat="45.83994" lon="5.53466">
        <ele>851.11219532907</ele>
        <time>2020-05-28T07:40:56.000Z</time>
      </trkpt>
      <trkpt lat="45.83995" lon="5.53464">
        <ele>851.30731709754</ele>
        <time>2020-05-28T07:40:58.000Z</time>
      </trkpt>
      <trkpt lat="45.83997" lon="5.53462">
        <ele>851.50243886601</ele>
        <time>2020-05-28T07:41:00.000Z</time>
      </trkpt>
      <trkpt lat="45.83999" lon="5.5346">
        <ele>851.69756063448</ele>
        <time>2020-05-28T07:41:02.000Z</time>
      </trkpt>
      <trkpt lat="45.84001" lon="5.53458">
        <ele>851.89268240295</ele>
        <time>2020-05-28T07:41:04.000Z</time>
      </trkpt>
      <trkpt lat="45.84002" lon="5.53456">
        <ele>852</ele>
        <time>2020-05-28T07:41:06.000Z</time>
      </trkpt>
      <trkpt lat="45.84004" lon="5.53454">
        <ele>852</ele>
        <time>2020-05-28T07:41:08.000Z</time>
      </trkpt>
      <trkpt lat="45.84006" lon="5.53451">
        <ele>852</ele>
        <time>2020-05-28T07:41:10.000Z</time>
      </trkpt>
      <trkpt lat="45.84008" lon="5.53449">
        <ele>852</ele>
        <time>2020-05-28T07:41:12.000Z</time>
      </trkpt>
      <trkpt lat="45.84009" lon="5.53446">
        <ele>852</ele>
        <time>2020-05-28T07:41:14.000Z</time>
      </trkpt>
      <trkpt lat="45.84011" lon="5.53443">
        <ele>852.11194758624</ele>
        <time>2020-05-28T07:41:16.000Z</time>
      </trkpt>
      <trkpt lat="45.84012" lon="5.53441">
        <ele>852.30009428407</ele>
        <time>2020-05-28T07:41:18.000Z</time>
      </trkpt>
      <trkpt lat="45.84014" lon="5.53439">
        <ele>852.4882409819</ele>
        <time>2020-05-28T07:41:20.000Z</time>
      </trkpt>
      <trkpt lat="45.84016" lon="5.53436">
        <ele>852.67638767973</ele>
        <time>2020-05-28T07:41:22.000Z</time>
      </trkpt>
      <trkpt lat="45.84017" lon="5.53434">
        <ele>852.86453437756</ele>
        <time>2020-05-28T07:41:24.000Z</time>
      </trkpt>
      <trkpt lat="45.84019" lon="5.53431">
        <ele>853</ele>
        <time>2020-05-28T07:41:26.000Z</time>
      </trkpt>
      <trkpt lat="45.84021" lon="5.53429">
        <ele>853</ele>
        <time>2020-05-28T07:41:28.000Z</time>
      </trkpt>
      <trkpt lat="45.84023" lon="5.53427">
        <ele>853</ele>
        <time>2020-05-28T07:41:30.000Z</time>
      </trkpt>
      <trkpt lat="45.84025" lon="5.53424">
        <ele>853</ele>
        <time>2020-05-28T07:41:32.000Z</time>
      </trkpt>
      <trkpt lat="45.84026" lon="5.53422">
        <ele>853</ele>
        <time>2020-05-28T07:41:34.000Z</time>
      </trkpt>
      <trkpt lat="45.84028" lon="5.5342">
        <ele>853.11758924901</ele>
        <time>2020-05-28T07:41:36.000Z</time>
      </trkpt>
      <trkpt lat="45.84029" lon="5.53418">
        <ele>853.31521770751</ele>
        <time>2020-05-28T07:41:38.000Z</time>
      </trkpt>
      <trkpt lat="45.84031" lon="5.53415">
        <ele>853.51284616601</ele>
        <time>2020-05-28T07:41:40.000Z</time>
      </trkpt>
      <trkpt lat="45.84032" lon="5.53413">
        <ele>853.71047462451</ele>
        <time>2020-05-28T07:41:42.000Z</time>
      </trkpt>
      <trkpt lat="45.84034" lon="5.53411">
        <ele>853.908103083</ele>
        <time>2020-05-28T07:41:44.000Z</time>
      </trkpt>
      <trkpt lat="45.84035" lon="5.53408">
        <ele>854</ele>
        <time>2020-05-28T07:41:46.000Z</time>
      </trkpt>
      <trkpt lat="45.84037" lon="5.53406">
        <ele>854</ele>
        <time>2020-05-28T07:41:48.000Z</time>
      </trkpt>
      <trkpt lat="45.84039" lon="5.53403">
        <ele>854</ele>
        <time>2020-05-28T07:41:50.000Z</time>
      </trkpt>
      <trkpt lat="45.84041" lon="5.53402">
        <ele>854</ele>
        <time>2020-05-28T07:41:52.000Z</time>
      </trkpt>
      <trkpt lat="45.84042" lon="5.53399">
        <ele>854</ele>
        <time>2020-05-28T07:41:54.000Z</time>
      </trkpt>
      <trkpt lat="45.84044" lon="5.53397">
        <ele>854.23728869797</ele>
        <time>2020-05-28T07:41:56.000Z</time>
      </trkpt>
      <trkpt lat="45.84045" lon="5.53395">
        <ele>854.63609215997</ele>
        <time>2020-05-28T07:41:58.000Z</time>
      </trkpt>
      <trkpt lat="45.84047" lon="5.53393">
        <ele>855.03489562197</ele>
        <time>2020-05-28T07:42:00.000Z</time>
      </trkpt>
      <trkpt lat="45.84049" lon="5.53391">
        <ele>855.43369908396</ele>
        <time>2020-05-28T07:42:02.000Z</time>
      </trkpt>
      <trkpt lat="45.84051" lon="5.53389">
        <ele>855.83250254596</ele>
        <time>2020-05-28T07:42:04.000Z</time>
      </trkpt>
      <trkpt lat="45.84053" lon="5.53386">
        <ele>856</ele>
        <time>2020-05-28T07:42:06.000Z</time>
      </trkpt>
      <trkpt lat="45.84055" lon="5.53384">
        <ele>856</ele>
        <time>2020-05-28T07:42:08.000Z</time>
      </trkpt>
      <trkpt lat="45.84058" lon="5.53382">
        <ele>856</ele>
        <time>2020-05-28T07:42:10.000Z</time>
      </trkpt>
      <trkpt lat="45.8406" lon="5.5338">
        <ele>856</ele>
        <time>2020-05-28T07:42:12.000Z</time>
      </trkpt>
      <trkpt lat="45.84062" lon="5.53378">
        <ele>856.01900032</ele>
        <time>2020-05-28T07:42:15.000Z</time>
      </trkpt>
      <trkpt lat="45.84064" lon="5.53376">
        <ele>856.21900032</ele>
        <time>2020-05-28T07:42:17.000Z</time>
      </trkpt>
      <trkpt lat="45.84065" lon="5.53373">
        <ele>856.41900032</ele>
        <time>2020-05-28T07:42:19.000Z</time>
      </trkpt>
      <trkpt lat="45.84067" lon="5.53371">
        <ele>856.61900032</ele>
        <time>2020-05-28T07:42:21.000Z</time>
      </trkpt>
      <trkpt lat="45.84069" lon="5.53369">
        <ele>856.81900032</ele>
        <time>2020-05-28T07:42:23.000Z</time>
      </trkpt>
      <trkpt lat="45.84071" lon="5.53367">
        <ele>857</ele>
        <time>2020-05-28T07:42:25.000Z</time>
      </trkpt>
      <trkpt lat="45.84072" lon="5.53364">
        <ele>857</ele>
        <time>2020-05-28T07:42:28.000Z</time>
      </trkpt>
      <trkpt lat="45.84074" lon="5.53361">
        <ele>857</ele>
        <time>2020-05-28T07:42:43.000Z</time>
      </trkpt>
      <trkpt lat="45.84076" lon="5.5336">
        <ele>856.98099968</ele>
        <time>2020-05-28T07:42:45.000Z</time>
      </trkpt>
      <trkpt lat="45.84077" lon="5.53357">
        <ele>856.78099968</ele>
        <time>2020-05-28T07:42:47.000Z</time>
      </trkpt>
      <trkpt lat="45.84079" lon="5.53354">
        <ele>856.58099968</ele>
        <time>2020-05-28T07:42:49.000Z</time>
      </trkpt>
      <trkpt lat="45.84081" lon="5.53353">
        <ele>856.38099968</ele>
        <time>2020-05-28T07:42:51.000Z</time>
      </trkpt>
      <trkpt lat="45.84084" lon="5.53351">
        <ele>856.18099968</ele>
        <time>2020-05-28T07:42:53.000Z</time>
      </trkpt>
      <trkpt lat="45.84086" lon="5.53349">
        <ele>856</ele>
        <time>2020-05-28T07:42:55.000Z</time>
      </trkpt>
      <trkpt lat="45.84088" lon="5.53348">
        <ele>856</ele>
        <time>2020-05-28T07:42:57.000Z</time>
      </trkpt>
      <trkpt lat="45.84091" lon="5.53347">
        <ele>856</ele>
        <time>2020-05-28T07:42:59.000Z</time>
      </trkpt>
      <trkpt lat="45.84093" lon="5.53345">
        <ele>856</ele>
        <time>2020-05-28T07:43:01.000Z</time>
      </trkpt>
      <trkpt lat="45.84095" lon="5.53343">
        <ele>856</ele>
        <time>2020-05-28T07:43:03.000Z</time>
      </trkpt>
      <trkpt lat="45.84098" lon="5.53342">
        <ele>856</ele>
        <time>2020-05-28T07:43:05.000Z</time>
      </trkpt>
      <trkpt lat="45.841" lon="5.53341">
        <ele>856</ele>
        <time>2020-05-28T07:43:07.000Z</time>
      </trkpt>
      <trkpt lat="45.84103" lon="5.53339">
        <ele>856</ele>
        <time>2020-05-28T07:43:09.000Z</time>
      </trkpt>
      <trkpt lat="45.84106" lon="5.53338">
        <ele>856</ele>
        <time>2020-05-28T07:43:11.000Z</time>
      </trkpt>
      <trkpt lat="45.84108" lon="5.53336">
        <ele>856</ele>
        <time>2020-05-28T07:43:13.000Z</time>
      </trkpt>
      <trkpt lat="45.84111" lon="5.53334">
        <ele>856</ele>
        <time>2020-05-28T07:43:15.000Z</time>
      </trkpt>
      <trkpt lat="45.84113" lon="5.53332">
        <ele>856</ele>
        <time>2020-05-28T07:43:17.000Z</time>
      </trkpt>
      <trkpt lat="45.84115" lon="5.5333">
        <ele>856</ele>
        <time>2020-05-28T07:43:19.000Z</time>
      </trkpt>
      <trkpt lat="45.84117" lon="5.53328">
        <ele>856</ele>
        <time>2020-05-28T07:43:21.000Z</time>
      </trkpt>
      <trkpt lat="45.84119" lon="5.53325">
        <ele>856</ele>
        <time>2020-05-28T07:43:23.000Z</time>
      </trkpt>
      <trkpt lat="45.8412" lon="5.53323">
        <ele>856</ele>
        <time>2020-05-28T07:43:25.000Z</time>
      </trkpt>
      <trkpt lat="45.84122" lon="5.5332">
        <ele>856</ele>
        <time>2020-05-28T07:43:27.000Z</time>
      </trkpt>
      <trkpt lat="45.84124" lon="5.53319">
        <ele>856</ele>
        <time>2020-05-28T07:43:29.000Z</time>
      </trkpt>
      <trkpt lat="45.84126" lon="5.53317">
        <ele>856</ele>
        <time>2020-05-28T07:43:31.000Z</time>
      </trkpt>
      <trkpt lat="45.84128" lon="5.53315">
        <ele>856</ele>
        <time>2020-05-28T07:43:33.000Z</time>
      </trkpt>
      <trkpt lat="45.8413" lon="5.53313">
        <ele>856</ele>
        <time>2020-05-28T07:43:35.000Z</time>
      </trkpt>
      <trkpt lat="45.84132" lon="5.5331">
        <ele>856</ele>
        <time>2020-05-28T07:43:37.000Z</time>
      </trkpt>
      <trkpt lat="45.84135" lon="5.53308">
        <ele>856</ele>
        <time>2020-05-28T07:43:39.000Z</time>
      </trkpt>
      <trkpt lat="45.84137" lon="5.53306">
        <ele>856</ele>
        <time>2020-05-28T07:43:41.000Z</time>
      </trkpt>
      <trkpt lat="45.84138" lon="5.53304">
        <ele>856</ele>
        <time>2020-05-28T07:43:43.000Z</time>
      </trkpt>
      <trkpt lat="45.84141" lon="5.53302">
        <ele>856</ele>
        <time>2020-05-28T07:43:45.000Z</time>
      </trkpt>
      <trkpt lat="45.84143" lon="5.53299">
        <ele>856</ele>
        <time>2020-05-28T07:43:47.000Z</time>
      </trkpt>
      <trkpt lat="45.84145" lon="5.53297">
        <ele>856</ele>
        <time>2020-05-28T07:43:49.000Z</time>
      </trkpt>
      <trkpt lat="45.84147" lon="5.53296">
        <ele>856</ele>
        <time>2020-05-28T07:43:51.000Z</time>
      </trkpt>
      <trkpt lat="45.8415" lon="5.53294">
        <ele>856</ele>
        <time>2020-05-28T07:43:53.000Z</time>
      </trkpt>
      <trkpt lat="45.84152" lon="5.53292">
        <ele>855.98109422701</ele>
        <time>2020-05-28T07:43:55.000Z</time>
      </trkpt>
      <trkpt lat="45.84154" lon="5.53291">
        <ele>855.78208944198</ele>
        <time>2020-05-28T07:43:57.000Z</time>
      </trkpt>
      <trkpt lat="45.84156" lon="5.53288">
        <ele>855.58308465695</ele>
        <time>2020-05-28T07:43:59.000Z</time>
      </trkpt>
      <trkpt lat="45.84158" lon="5.53286">
        <ele>855.38407987192</ele>
        <time>2020-05-28T07:44:01.000Z</time>
      </trkpt>
      <trkpt lat="45.8416" lon="5.53283">
        <ele>855.18507508689</ele>
        <time>2020-05-28T07:44:03.000Z</time>
      </trkpt>
      <trkpt lat="45.84161" lon="5.53281">
        <ele>855</ele>
        <time>2020-05-28T07:44:05.000Z</time>
      </trkpt>
      <trkpt lat="45.84163" lon="5.53279">
        <ele>855</ele>
        <time>2020-05-28T07:44:07.000Z</time>
      </trkpt>
      <trkpt lat="45.84165" lon="5.53278">
        <ele>855</ele>
        <time>2020-05-28T07:44:09.000Z</time>
      </trkpt>
      <trkpt lat="45.84172" lon="5.53269">
        <ele>855.09268738309</ele>
        <time>2020-05-28T07:44:16.000Z</time>
      </trkpt>
      <trkpt lat="45.84174" lon="5.53266">
        <ele>855.29866081021</ele>
        <time>2020-05-28T07:44:18.000Z</time>
      </trkpt>
      <trkpt lat="45.84178" lon="5.53263">
        <ele>855.71060766445</ele>
        <time>2020-05-28T07:44:22.000Z</time>
      </trkpt>
      <trkpt lat="45.84181" lon="5.53262">
        <ele>855.91658109157</ele>
        <time>2020-05-28T07:44:24.000Z</time>
      </trkpt>
      <trkpt lat="45.84184" lon="5.53259">
        <ele>856</ele>
        <time>2020-05-28T07:44:28.000Z</time>
      </trkpt>
      <trkpt lat="45.84186" lon="5.53258">
        <ele>856</ele>
        <time>2020-05-28T07:44:30.000Z</time>
      </trkpt>
      <trkpt lat="45.84189" lon="5.53256">
        <ele>856</ele>
        <time>2020-05-28T07:44:32.000Z</time>
      </trkpt>
      <trkpt lat="45.84191" lon="5.53254">
        <ele>856</ele>
        <time>2020-05-28T07:44:34.000Z</time>
      </trkpt>
      <trkpt lat="45.84193" lon="5.53252">
        <ele>855.88339872456</ele>
        <time>2020-05-28T07:44:36.000Z</time>
      </trkpt>
      <trkpt lat="45.84195" lon="5.5325">
        <ele>855.68577051602</ele>
        <time>2020-05-28T07:44:38.000Z</time>
      </trkpt>
      <trkpt lat="45.84198" lon="5.53249">
        <ele>855.48814230749</ele>
        <time>2020-05-28T07:44:40.000Z</time>
      </trkpt>
      <trkpt lat="45.84201" lon="5.53248">
        <ele>855.29051409895</ele>
        <time>2020-05-28T07:44:42.000Z</time>
      </trkpt>
      <trkpt lat="45.84203" lon="5.53247">
        <ele>855.09288589042</ele>
        <time>2020-05-28T07:44:44.000Z</time>
      </trkpt>
      <trkpt lat="45.84207" lon="5.53246">
        <ele>854.79400064</ele>
        <time>2020-05-28T07:44:47.000Z</time>
      </trkpt>
      <trkpt lat="45.84209" lon="5.53245">
        <ele>854.59400064</ele>
        <time>2020-05-28T07:44:49.000Z</time>
      </trkpt>
      <trkpt lat="45.84211" lon="5.53244">
        <ele>854.39400064</ele>
        <time>2020-05-28T07:44:51.000Z</time>
      </trkpt>
      <trkpt lat="45.84213" lon="5.53243">
        <ele>854.19400064</ele>
        <time>2020-05-28T07:44:53.000Z</time>
      </trkpt>
      <trkpt lat="45.84216" lon="5.53241">
        <ele>853.99399462886</ele>
        <time>2020-05-28T07:44:55.000Z</time>
      </trkpt>
      <trkpt lat="45.84218" lon="5.5324">
        <ele>853.79379423628</ele>
        <time>2020-05-28T07:44:57.000Z</time>
      </trkpt>
      <trkpt lat="45.8422" lon="5.53238">
        <ele>853.59359384369</ele>
        <time>2020-05-28T07:44:59.000Z</time>
      </trkpt>
      <trkpt lat="45.84223" lon="5.53237">
        <ele>853.39339345111</ele>
        <time>2020-05-28T07:45:01.000Z</time>
      </trkpt>
      <trkpt lat="45.84229" lon="5.53234">
        <ele>853</ele>
        <time>2020-05-28T07:45:05.000Z</time>
      </trkpt>
      <trkpt lat="45.84237" lon="5.53227">
        <ele>853</ele>
        <time>2020-05-28T07:45:12.000Z</time>
      </trkpt>
      <trkpt lat="45.8424" lon="5.53223">
        <ele>853</ele>
        <time>2020-05-28T07:45:15.000Z</time>
      </trkpt>
      <trkpt lat="45.84243" lon="5.5322">
        <ele>853</ele>
        <time>2020-05-28T07:45:18.000Z</time>
      </trkpt>
      <trkpt lat="45.84245" lon="5.53218">
        <ele>853</ele>
        <time>2020-05-28T07:45:20.000Z</time>
      </trkpt>
      <trkpt lat="45.84248" lon="5.53216">
        <ele>853</ele>
        <time>2020-05-28T07:45:22.000Z</time>
      </trkpt>
      <trkpt lat="45.8425" lon="5.53213">
        <ele>853</ele>
        <time>2020-05-28T07:45:24.000Z</time>
      </trkpt>
      <trkpt lat="45.84253" lon="5.53211">
        <ele>853</ele>
        <time>2020-05-28T07:45:26.000Z</time>
      </trkpt>
      <trkpt lat="45.84255" lon="5.53209">
        <ele>853</ele>
        <time>2020-05-28T07:45:28.000Z</time>
      </trkpt>
      <trkpt lat="45.84257" lon="5.53208">
        <ele>853</ele>
        <time>2020-05-28T07:45:30.000Z</time>
      </trkpt>
      <trkpt lat="45.84259" lon="5.53206">
        <ele>853</ele>
        <time>2020-05-28T07:45:32.000Z</time>
      </trkpt>
      <trkpt lat="45.84262" lon="5.53204">
        <ele>853</ele>
        <time>2020-05-28T07:45:34.000Z</time>
      </trkpt>
      <trkpt lat="45.84264" lon="5.53203">
        <ele>853</ele>
        <time>2020-05-28T07:45:36.000Z</time>
      </trkpt>
      <trkpt lat="45.84266" lon="5.532">
        <ele>853</ele>
        <time>2020-05-28T07:45:38.000Z</time>
      </trkpt>
      <trkpt lat="45.84268" lon="5.53197">
        <ele>853</ele>
        <time>2020-05-28T07:45:40.000Z</time>
      </trkpt>
      <trkpt lat="45.8427" lon="5.53195">
        <ele>853</ele>
        <time>2020-05-28T07:45:42.000Z</time>
      </trkpt>
      <trkpt lat="45.84272" lon="5.53192">
        <ele>853</ele>
        <time>2020-05-28T07:45:44.000Z</time>
      </trkpt>
      <trkpt lat="45.8428" lon="5.53183">
        <ele>853</ele>
        <time>2020-05-28T07:45:51.000Z</time>
      </trkpt>
      <trkpt lat="45.84281" lon="5.53181">
        <ele>853</ele>
        <time>2020-05-28T07:45:53.000Z</time>
      </trkpt>
      <trkpt lat="45.84284" lon="5.53178">
        <ele>852.98099968</ele>
        <time>2020-05-28T07:45:55.000Z</time>
      </trkpt>
      <trkpt lat="45.84286" lon="5.53176">
        <ele>852.78099968</ele>
        <time>2020-05-28T07:45:57.000Z</time>
      </trkpt>
      <trkpt lat="45.84288" lon="5.53174">
        <ele>852.58099968</ele>
        <time>2020-05-28T07:45:59.000Z</time>
      </trkpt>
      <trkpt lat="45.8429" lon="5.53172">
        <ele>852.38099968</ele>
        <time>2020-05-28T07:46:01.000Z</time>
      </trkpt>
      <trkpt lat="45.84292" lon="5.53169">
        <ele>852.18099968</ele>
        <time>2020-05-28T07:46:03.000Z</time>
      </trkpt>
      <trkpt lat="45.84294" lon="5.53168">
        <ele>852.01900032</ele>
        <time>2020-05-28T07:46:05.000Z</time>
      </trkpt>
      <trkpt lat="45.84295" lon="5.53165">
        <ele>852.21900032</ele>
        <time>2020-05-28T07:46:07.000Z</time>
      </trkpt>
      <trkpt lat="45.84296" lon="5.53163">
        <ele>852.41900032</ele>
        <time>2020-05-28T07:46:09.000Z</time>
      </trkpt>
      <trkpt lat="45.84298" lon="5.5316">
        <ele>852.61900032</ele>
        <time>2020-05-28T07:46:11.000Z</time>
      </trkpt>
      <trkpt lat="45.84301" lon="5.53158">
        <ele>852.81900032</ele>
        <time>2020-05-28T07:46:13.000Z</time>
      </trkpt>
      <trkpt lat="45.84304" lon="5.53155">
        <ele>852.98153517758</ele>
        <time>2020-05-28T07:46:15.000Z</time>
      </trkpt>
      <trkpt lat="45.84307" lon="5.53153">
        <ele>852.78717189924</ele>
        <time>2020-05-28T07:46:17.000Z</time>
      </trkpt>
      <trkpt lat="45.84309" lon="5.53151">
        <ele>852.5928086209</ele>
        <time>2020-05-28T07:46:19.000Z</time>
      </trkpt>
      <trkpt lat="45.84311" lon="5.5315">
        <ele>852.39844534256</ele>
        <time>2020-05-28T07:46:21.000Z</time>
      </trkpt>
      <trkpt lat="45.84313" lon="5.53148">
        <ele>852.20408206422</ele>
        <time>2020-05-28T07:46:23.000Z</time>
      </trkpt>
      <trkpt lat="45.84315" lon="5.53146">
        <ele>852.00971878588</ele>
        <time>2020-05-28T07:46:25.000Z</time>
      </trkpt>
      <trkpt lat="45.84317" lon="5.53143">
        <ele>851.80432590335</ele>
        <time>2020-05-28T07:46:27.000Z</time>
      </trkpt>
      <trkpt lat="45.84319" lon="5.5314">
        <ele>851.59835247623</ele>
        <time>2020-05-28T07:46:29.000Z</time>
      </trkpt>
      <trkpt lat="45.84322" lon="5.53138">
        <ele>851.39237904911</ele>
        <time>2020-05-28T07:46:31.000Z</time>
      </trkpt>
      <trkpt lat="45.84324" lon="5.53136">
        <ele>851.18640562199</ele>
        <time>2020-05-28T07:46:33.000Z</time>
      </trkpt>
      <trkpt lat="45.84326" lon="5.53133">
        <ele>851</ele>
        <time>2020-05-28T07:46:35.000Z</time>
      </trkpt>
      <trkpt lat="45.84329" lon="5.53131">
        <ele>851</ele>
        <time>2020-05-28T07:46:37.000Z</time>
      </trkpt>
      <trkpt lat="45.84331" lon="5.53128">
        <ele>851</ele>
        <time>2020-05-28T07:46:39.000Z</time>
      </trkpt>
      <trkpt lat="45.84333" lon="5.53125">
        <ele>851</ele>
        <time>2020-05-28T07:46:41.000Z</time>
      </trkpt>
      <trkpt lat="45.84336" lon="5.53123">
        <ele>851</ele>
        <time>2020-05-28T07:46:43.000Z</time>
      </trkpt>
      <trkpt lat="45.84338" lon="5.53121">
        <ele>850.98099968</ele>
        <time>2020-05-28T07:46:45.000Z</time>
      </trkpt>
      <trkpt lat="45.84341" lon="5.53119">
        <ele>850.78099968</ele>
        <time>2020-05-28T07:46:47.000Z</time>
      </trkpt>
      <trkpt lat="45.84343" lon="5.53116">
        <ele>850.58099968</ele>
        <time>2020-05-28T07:46:49.000Z</time>
      </trkpt>
      <trkpt lat="45.84346" lon="5.53114">
        <ele>850.38099968</ele>
        <time>2020-05-28T07:46:51.000Z</time>
      </trkpt>
      <trkpt lat="45.84348" lon="5.53112">
        <ele>850.18099968</ele>
        <time>2020-05-28T07:46:53.000Z</time>
      </trkpt>
      <trkpt lat="45.84349" lon="5.5311">
        <ele>850</ele>
        <time>2020-05-28T07:46:55.000Z</time>
      </trkpt>
      <trkpt lat="45.84352" lon="5.53108">
        <ele>850</ele>
        <time>2020-05-28T07:46:57.000Z</time>
      </trkpt>
      <trkpt lat="45.84354" lon="5.53105">
        <ele>850</ele>
        <time>2020-05-28T07:46:59.000Z</time>
      </trkpt>
      <trkpt lat="45.84357" lon="5.53103">
        <ele>850</ele>
        <time>2020-05-28T07:47:01.000Z</time>
      </trkpt>
      <trkpt lat="45.84359" lon="5.53101">
        <ele>850</ele>
        <time>2020-05-28T07:47:03.000Z</time>
      </trkpt>
      <trkpt lat="45.84361" lon="5.53098">
        <ele>850</ele>
        <time>2020-05-28T07:47:05.000Z</time>
      </trkpt>
      <trkpt lat="45.84364" lon="5.53096">
        <ele>850</ele>
        <time>2020-05-28T07:47:07.000Z</time>
      </trkpt>
      <trkpt lat="45.84366" lon="5.53094">
        <ele>850</ele>
        <time>2020-05-28T07:47:09.000Z</time>
      </trkpt>
      <trkpt lat="45.84368" lon="5.53092">
        <ele>850</ele>
        <time>2020-05-28T07:47:11.000Z</time>
      </trkpt>
      <trkpt lat="45.8437" lon="5.5309">
        <ele>850</ele>
        <time>2020-05-28T07:47:13.000Z</time>
      </trkpt>
      <trkpt lat="45.84372" lon="5.53088">
        <ele>850</ele>
        <time>2020-05-28T07:47:15.000Z</time>
      </trkpt>
      <trkpt lat="45.84375" lon="5.53086">
        <ele>850</ele>
        <time>2020-05-28T07:47:17.000Z</time>
      </trkpt>
      <trkpt lat="45.84377" lon="5.53084">
        <ele>850</ele>
        <time>2020-05-28T07:47:19.000Z</time>
      </trkpt>
      <trkpt lat="45.84379" lon="5.53082">
        <ele>850</ele>
        <time>2020-05-28T07:47:21.000Z</time>
      </trkpt>
      <trkpt lat="45.84381" lon="5.5308">
        <ele>850</ele>
        <time>2020-05-28T07:47:23.000Z</time>
      </trkpt>
      <trkpt lat="45.84383" lon="5.53078">
        <ele>850</ele>
        <time>2020-05-28T07:47:25.000Z</time>
      </trkpt>
      <trkpt lat="45.84385" lon="5.53075">
        <ele>849.80598548805</ele>
        <time>2020-05-28T07:47:27.000Z</time>
      </trkpt>
      <trkpt lat="45.84387" lon="5.53073">
        <ele>849.59958707107</ele>
        <time>2020-05-28T07:47:29.000Z</time>
      </trkpt>
      <trkpt lat="45.84389" lon="5.53072">
        <ele>849.3931886541</ele>
        <time>2020-05-28T07:47:31.000Z</time>
      </trkpt>
      <trkpt lat="45.84391" lon="5.5307">
        <ele>849.18679023712</ele>
        <time>2020-05-28T07:47:33.000Z</time>
      </trkpt>
      <trkpt lat="45.84393" lon="5.53068">
        <ele>849</ele>
        <time>2020-05-28T07:47:35.000Z</time>
      </trkpt>
      <trkpt lat="45.84395" lon="5.53066">
        <ele>849</ele>
        <time>2020-05-28T07:47:37.000Z</time>
      </trkpt>
      <trkpt lat="45.84397" lon="5.53064">
        <ele>849</ele>
        <time>2020-05-28T07:47:39.000Z</time>
      </trkpt>
      <trkpt lat="45.844" lon="5.53063">
        <ele>849</ele>
        <time>2020-05-28T07:47:41.000Z</time>
      </trkpt>
      <trkpt lat="45.84402" lon="5.53061">
        <ele>849</ele>
        <time>2020-05-28T07:47:43.000Z</time>
      </trkpt>
      <trkpt lat="45.84404" lon="5.53059">
        <ele>849</ele>
        <time>2020-05-28T07:47:45.000Z</time>
      </trkpt>
      <trkpt lat="45.84406" lon="5.53057">
        <ele>849</ele>
        <time>2020-05-28T07:47:47.000Z</time>
      </trkpt>
      <trkpt lat="45.84409" lon="5.53055">
        <ele>849</ele>
        <time>2020-05-28T07:47:49.000Z</time>
      </trkpt>
      <trkpt lat="45.84411" lon="5.53053">
        <ele>849</ele>
        <time>2020-05-28T07:47:51.000Z</time>
      </trkpt>
      <trkpt lat="45.84413" lon="5.53052">
        <ele>849</ele>
        <time>2020-05-28T07:47:53.000Z</time>
      </trkpt>
      <trkpt lat="45.84415" lon="5.5305">
        <ele>848.98099968</ele>
        <time>2020-05-28T07:47:55.000Z</time>
      </trkpt>
      <trkpt lat="45.84417" lon="5.53048">
        <ele>848.78099968</ele>
        <time>2020-05-28T07:47:57.000Z</time>
      </trkpt>
      <trkpt lat="45.84419" lon="5.53046">
        <ele>848.58099968</ele>
        <time>2020-05-28T07:47:59.000Z</time>
      </trkpt>
      <trkpt lat="45.84422" lon="5.53045">
        <ele>848.38099968</ele>
        <time>2020-05-28T07:48:01.000Z</time>
      </trkpt>
      <trkpt lat="45.84425" lon="5.53043">
        <ele>848.18099968</ele>
        <time>2020-05-28T07:48:03.000Z</time>
      </trkpt>
      <trkpt lat="45.84427" lon="5.53042">
        <ele>848</ele>
        <time>2020-05-28T07:48:05.000Z</time>
      </trkpt>
      <trkpt lat="45.8443" lon="5.5304">
        <ele>848</ele>
        <time>2020-05-28T07:48:07.000Z</time>
      </trkpt>
      <trkpt lat="45.84432" lon="5.53039">
        <ele>848</ele>
        <time>2020-05-28T07:48:09.000Z</time>
      </trkpt>
      <trkpt lat="45.84435" lon="5.53038">
        <ele>848</ele>
        <time>2020-05-28T07:48:11.000Z</time>
      </trkpt>
      <trkpt lat="45.84437" lon="5.53037">
        <ele>848</ele>
        <time>2020-05-28T07:48:13.000Z</time>
      </trkpt>
      <trkpt lat="45.8444" lon="5.53036">
        <ele>848</ele>
        <time>2020-05-28T07:48:15.000Z</time>
      </trkpt>
      <trkpt lat="45.84443" lon="5.53035">
        <ele>848</ele>
        <time>2020-05-28T07:48:17.000Z</time>
      </trkpt>
      <trkpt lat="45.84445" lon="5.53033">
        <ele>848</ele>
        <time>2020-05-28T07:48:19.000Z</time>
      </trkpt>
      <trkpt lat="45.84448" lon="5.53033">
        <ele>848</ele>
        <time>2020-05-28T07:48:21.000Z</time>
      </trkpt>
      <trkpt lat="45.84451" lon="5.53031">
        <ele>848</ele>
        <time>2020-05-28T07:48:23.000Z</time>
      </trkpt>
      <trkpt lat="45.84453" lon="5.5303">
        <ele>848</ele>
        <time>2020-05-28T07:48:25.000Z</time>
      </trkpt>
      <trkpt lat="45.84455" lon="5.53028">
        <ele>848</ele>
        <time>2020-05-28T07:48:27.000Z</time>
      </trkpt>
      <trkpt lat="45.84457" lon="5.53026">
        <ele>848</ele>
        <time>2020-05-28T07:48:29.000Z</time>
      </trkpt>
      <trkpt lat="45.84459" lon="5.53024">
        <ele>848</ele>
        <time>2020-05-28T07:48:31.000Z</time>
      </trkpt>
      <trkpt lat="45.84461" lon="5.53023">
        <ele>848</ele>
        <time>2020-05-28T07:48:33.000Z</time>
      </trkpt>
      <trkpt lat="45.84463" lon="5.53021">
        <ele>847.98099968</ele>
        <time>2020-05-28T07:48:35.000Z</time>
      </trkpt>
      <trkpt lat="45.84465" lon="5.53019">
        <ele>847.78099968</ele>
        <time>2020-05-28T07:48:37.000Z</time>
      </trkpt>
      <trkpt lat="45.84466" lon="5.53017">
        <ele>847.58099968</ele>
        <time>2020-05-28T07:48:39.000Z</time>
      </trkpt>
      <trkpt lat="45.84469" lon="5.53015">
        <ele>847.28099968</ele>
        <time>2020-05-28T07:48:42.000Z</time>
      </trkpt>
      <trkpt lat="45.84471" lon="5.53013">
        <ele>847.08099968</ele>
        <time>2020-05-28T07:48:44.000Z</time>
      </trkpt>
      <trkpt lat="45.84473" lon="5.53011">
        <ele>847</ele>
        <time>2020-05-28T07:48:46.000Z</time>
      </trkpt>
      <trkpt lat="45.84475" lon="5.53009">
        <ele>847</ele>
        <time>2020-05-28T07:48:48.000Z</time>
      </trkpt>
      <trkpt lat="45.84478" lon="5.53008">
        <ele>847</ele>
        <time>2020-05-28T07:48:50.000Z</time>
      </trkpt>
      <trkpt lat="45.8448" lon="5.53006">
        <ele>847</ele>
        <time>2020-05-28T07:48:52.000Z</time>
      </trkpt>
      <trkpt lat="45.84481" lon="5.53004">
        <ele>847</ele>
        <time>2020-05-28T07:48:54.000Z</time>
      </trkpt>
      <trkpt lat="45.84483" lon="5.53002">
        <ele>847.1184081655</ele>
        <time>2020-05-28T07:48:56.000Z</time>
      </trkpt>
      <trkpt lat="45.84485" lon="5.53">
        <ele>847.31741295053</ele>
        <time>2020-05-28T07:48:58.000Z</time>
      </trkpt>
      <trkpt lat="45.84487" lon="5.52998">
        <ele>847.51641773556</ele>
        <time>2020-05-28T07:49:00.000Z</time>
      </trkpt>
      <trkpt lat="45.8449" lon="5.52997">
        <ele>847.71542252059</ele>
        <time>2020-05-28T07:49:02.000Z</time>
      </trkpt>
      <trkpt lat="45.84492" lon="5.52995">
        <ele>847.91442730562</ele>
        <time>2020-05-28T07:49:04.000Z</time>
      </trkpt>
      <trkpt lat="45.84494" lon="5.52992">
        <ele>848</ele>
        <time>2020-05-28T07:49:06.000Z</time>
      </trkpt>
      <trkpt lat="45.84496" lon="5.5299">
        <ele>848</ele>
        <time>2020-05-28T07:49:08.000Z</time>
      </trkpt>
      <trkpt lat="45.84498" lon="5.52988">
        <ele>848</ele>
        <time>2020-05-28T07:49:10.000Z</time>
      </trkpt>
      <trkpt lat="45.845" lon="5.52985">
        <ele>848</ele>
        <time>2020-05-28T07:49:12.000Z</time>
      </trkpt>
      <trkpt lat="45.84502" lon="5.52983">
        <ele>848</ele>
        <time>2020-05-28T07:49:14.000Z</time>
      </trkpt>
      <trkpt lat="45.84504" lon="5.52981">
        <ele>848</ele>
        <time>2020-05-28T07:49:16.000Z</time>
      </trkpt>
      <trkpt lat="45.84506" lon="5.52979">
        <ele>848</ele>
        <time>2020-05-28T07:49:18.000Z</time>
      </trkpt>
      <trkpt lat="45.84508" lon="5.52976">
        <ele>848</ele>
        <time>2020-05-28T07:49:20.000Z</time>
      </trkpt>
      <trkpt lat="45.8451" lon="5.52974">
        <ele>848</ele>
        <time>2020-05-28T07:49:22.000Z</time>
      </trkpt>
      <trkpt lat="45.84511" lon="5.52971">
        <ele>848</ele>
        <time>2020-05-28T07:49:24.000Z</time>
      </trkpt>
      <trkpt lat="45.84513" lon="5.52968">
        <ele>848</ele>
        <time>2020-05-28T07:49:26.000Z</time>
      </trkpt>
      <trkpt lat="45.84515" lon="5.52965">
        <ele>848</ele>
        <time>2020-05-28T07:49:28.000Z</time>
      </trkpt>
      <trkpt lat="45.84516" lon="5.5296">
        <ele>848</ele>
        <time>2020-05-28T07:49:30.000Z</time>
      </trkpt>
      <trkpt lat="45.84517" lon="5.52957">
        <ele>848</ele>
        <time>2020-05-28T07:49:32.000Z</time>
      </trkpt>
      <trkpt lat="45.84519" lon="5.52953">
        <ele>848</ele>
        <time>2020-05-28T07:49:34.000Z</time>
      </trkpt>
      <trkpt lat="45.84521" lon="5.52949">
        <ele>848</ele>
        <time>2020-05-28T07:49:36.000Z</time>
      </trkpt>
      <trkpt lat="45.84522" lon="5.52946">
        <ele>848</ele>
        <time>2020-05-28T07:49:38.000Z</time>
      </trkpt>
      <trkpt lat="45.84523" lon="5.52943">
        <ele>848</ele>
        <time>2020-05-28T07:49:40.000Z</time>
      </trkpt>
      <trkpt lat="45.84524" lon="5.5294">
        <ele>848</ele>
        <time>2020-05-28T07:49:42.000Z</time>
      </trkpt>
      <trkpt lat="45.84526" lon="5.52937">
        <ele>848</ele>
        <time>2020-05-28T07:49:44.000Z</time>
      </trkpt>
      <trkpt lat="45.84527" lon="5.52935">
        <ele>848.1184081655</ele>
        <time>2020-05-28T07:49:46.000Z</time>
      </trkpt>
      <trkpt lat="45.84529" lon="5.52932">
        <ele>848.31741295053</ele>
        <time>2020-05-28T07:49:48.000Z</time>
      </trkpt>
      <trkpt lat="45.8453" lon="5.52929">
        <ele>848.51641773556</ele>
        <time>2020-05-28T07:49:50.000Z</time>
      </trkpt>
      <trkpt lat="45.84531" lon="5.52926">
        <ele>848.71542252059</ele>
        <time>2020-05-28T07:49:52.000Z</time>
      </trkpt>
      <trkpt lat="45.84534" lon="5.52919">
        <ele>849.21507494118</ele>
        <time>2020-05-28T07:49:57.000Z</time>
      </trkpt>
      <trkpt lat="45.84536" lon="5.52917">
        <ele>849.41608016024</ele>
        <time>2020-05-28T07:49:59.000Z</time>
      </trkpt>
      <trkpt lat="45.84538" lon="5.52913">
        <ele>849.71758798883</ele>
        <time>2020-05-28T07:50:02.000Z</time>
      </trkpt>
      <trkpt lat="45.84539" lon="5.5291">
        <ele>849.91859320789</ele>
        <time>2020-05-28T07:50:04.000Z</time>
      </trkpt>
      <trkpt lat="45.8454" lon="5.52907">
        <ele>850</ele>
        <time>2020-05-28T07:50:06.000Z</time>
      </trkpt>
      <trkpt lat="45.84542" lon="5.52904">
        <ele>850</ele>
        <time>2020-05-28T07:50:08.000Z</time>
      </trkpt>
      <trkpt lat="45.84544" lon="5.52902">
        <ele>850</ele>
        <time>2020-05-28T07:50:10.000Z</time>
      </trkpt>
      <trkpt lat="45.84546" lon="5.529">
        <ele>850</ele>
        <time>2020-05-28T07:50:12.000Z</time>
      </trkpt>
      <trkpt lat="45.84547" lon="5.52897">
        <ele>850</ele>
        <time>2020-05-28T07:50:14.000Z</time>
      </trkpt>
      <trkpt lat="45.84549" lon="5.52895">
        <ele>850</ele>
        <time>2020-05-28T07:50:16.000Z</time>
      </trkpt>
      <trkpt lat="45.8455" lon="5.52892">
        <ele>850</ele>
        <time>2020-05-28T07:50:18.000Z</time>
      </trkpt>
      <trkpt lat="45.84552" lon="5.5289">
        <ele>850</ele>
        <time>2020-05-28T07:50:20.000Z</time>
      </trkpt>
      <trkpt lat="45.84553" lon="5.52887">
        <ele>850</ele>
        <time>2020-05-28T07:50:22.000Z</time>
      </trkpt>
      <trkpt lat="45.84554" lon="5.52883">
        <ele>850</ele>
        <time>2020-05-28T07:50:24.000Z</time>
      </trkpt>
      <trkpt lat="45.84555" lon="5.5288">
        <ele>850.10784362937</ele>
        <time>2020-05-28T07:50:26.000Z</time>
      </trkpt>
      <trkpt lat="45.84557" lon="5.52877">
        <ele>850.30392181469</ele>
        <time>2020-05-28T07:50:28.000Z</time>
      </trkpt>
      <trkpt lat="45.84558" lon="5.52875">
        <ele>850.5</ele>
        <time>2020-05-28T07:50:30.000Z</time>
      </trkpt>
      <trkpt lat="45.84559" lon="5.52872">
        <ele>850.79411727797</ele>
        <time>2020-05-28T07:50:33.000Z</time>
      </trkpt>
      <trkpt lat="45.84561" lon="5.5287">
        <ele>850.99019546328</ele>
        <time>2020-05-28T07:50:35.000Z</time>
      </trkpt>
      <trkpt lat="45.84561" lon="5.52867">
        <ele>851.3913481933</ele>
        <time>2020-05-28T07:50:37.000Z</time>
      </trkpt>
      <trkpt lat="45.84562" lon="5.52864">
        <ele>851.80329504754</ele>
        <time>2020-05-28T07:50:39.000Z</time>
      </trkpt>
      <trkpt lat="45.84563" lon="5.5286">
        <ele>852.21524190178</ele>
        <time>2020-05-28T07:50:41.000Z</time>
      </trkpt>
      <trkpt lat="45.84564" lon="5.52858">
        <ele>852.62718875603</ele>
        <time>2020-05-28T07:50:43.000Z</time>
      </trkpt>
      <trkpt lat="45.84566" lon="5.52855">
        <ele>853.01900032</ele>
        <time>2020-05-28T07:50:45.000Z</time>
      </trkpt>
      <trkpt lat="45.84567" lon="5.52853">
        <ele>853.21900032</ele>
        <time>2020-05-28T07:50:47.000Z</time>
      </trkpt>
      <trkpt lat="45.84568" lon="5.5285">
        <ele>853.41900032</ele>
        <time>2020-05-28T07:50:49.000Z</time>
      </trkpt>
      <trkpt lat="45.84569" lon="5.52847">
        <ele>853.61900032</ele>
        <time>2020-05-28T07:50:51.000Z</time>
      </trkpt>
      <trkpt lat="45.8457" lon="5.52845">
        <ele>853.81900032</ele>
        <time>2020-05-28T07:50:53.000Z</time>
      </trkpt>
      <trkpt lat="45.84571" lon="5.52842">
        <ele>854.03800064</ele>
        <time>2020-05-28T07:50:55.000Z</time>
      </trkpt>
      <trkpt lat="45.84571" lon="5.52839">
        <ele>854.43800064</ele>
        <time>2020-05-28T07:50:57.000Z</time>
      </trkpt>
      <trkpt lat="45.84572" lon="5.52836">
        <ele>854.83800064</ele>
        <time>2020-05-28T07:50:59.000Z</time>
      </trkpt>
      <trkpt lat="45.84574" lon="5.52833">
        <ele>855.23800064</ele>
        <time>2020-05-28T07:51:01.000Z</time>
      </trkpt>
      <trkpt lat="45.84575" lon="5.52831">
        <ele>855.63800064</ele>
        <time>2020-05-28T07:51:03.000Z</time>
      </trkpt>
      <trkpt lat="45.84576" lon="5.52828">
        <ele>856</ele>
        <time>2020-05-28T07:51:05.000Z</time>
      </trkpt>
      <trkpt lat="45.84577" lon="5.52825">
        <ele>856</ele>
        <time>2020-05-28T07:51:07.000Z</time>
      </trkpt>
      <trkpt lat="45.84578" lon="5.52822">
        <ele>856</ele>
        <time>2020-05-28T07:51:09.000Z</time>
      </trkpt>
      <trkpt lat="45.84579" lon="5.52819">
        <ele>856</ele>
        <time>2020-05-28T07:51:11.000Z</time>
      </trkpt>
      <trkpt lat="45.8458" lon="5.52816">
        <ele>856</ele>
        <time>2020-05-28T07:51:13.000Z</time>
      </trkpt>
      <trkpt lat="45.84583" lon="5.52813">
        <ele>855.90030574191</ele>
        <time>2020-05-28T07:51:16.000Z</time>
      </trkpt>
      <trkpt lat="45.84585" lon="5.5281">
        <ele>855.69684674361</ele>
        <time>2020-05-28T07:51:18.000Z</time>
      </trkpt>
      <trkpt lat="45.84587" lon="5.52807">
        <ele>855.49338774532</ele>
        <time>2020-05-28T07:51:20.000Z</time>
      </trkpt>
      <trkpt lat="45.84589" lon="5.52803">
        <ele>855.18819924788</ele>
        <time>2020-05-28T07:51:23.000Z</time>
      </trkpt>
      <trkpt lat="45.84591" lon="5.528">
        <ele>855</ele>
        <time>2020-05-28T07:51:25.000Z</time>
      </trkpt>
      <trkpt lat="45.84593" lon="5.52797">
        <ele>855</ele>
        <time>2020-05-28T07:51:27.000Z</time>
      </trkpt>
      <trkpt lat="45.84595" lon="5.52794">
        <ele>855</ele>
        <time>2020-05-28T07:51:29.000Z</time>
      </trkpt>
      <trkpt lat="45.84597" lon="5.52791">
        <ele>855</ele>
        <time>2020-05-28T07:51:31.000Z</time>
      </trkpt>
      <trkpt lat="45.84598" lon="5.52788">
        <ele>855</ele>
        <time>2020-05-28T07:51:33.000Z</time>
      </trkpt>
      <trkpt lat="45.846" lon="5.52786">
        <ele>855</ele>
        <time>2020-05-28T07:51:35.000Z</time>
      </trkpt>
      <trkpt lat="45.84602" lon="5.52784">
        <ele>855</ele>
        <time>2020-05-28T07:51:37.000Z</time>
      </trkpt>
      <trkpt lat="45.84603" lon="5.52782">
        <ele>855</ele>
        <time>2020-05-28T07:51:39.000Z</time>
      </trkpt>
      <trkpt lat="45.84606" lon="5.52781">
        <ele>855</ele>
        <time>2020-05-28T07:51:41.000Z</time>
      </trkpt>
      <trkpt lat="45.84608" lon="5.52778">
        <ele>855</ele>
        <time>2020-05-28T07:51:43.000Z</time>
      </trkpt>
      <trkpt lat="45.84609" lon="5.52776">
        <ele>855.01900032</ele>
        <time>2020-05-28T07:51:45.000Z</time>
      </trkpt>
      <trkpt lat="45.8461" lon="5.52773">
        <ele>855.31900032</ele>
        <time>2020-05-28T07:51:48.000Z</time>
      </trkpt>
      <trkpt lat="45.84611" lon="5.52771">
        <ele>855.51900032</ele>
        <time>2020-05-28T07:51:50.000Z</time>
      </trkpt>
      <trkpt lat="45.84613" lon="5.52768">
        <ele>855.71900032</ele>
        <time>2020-05-28T07:51:52.000Z</time>
      </trkpt>
      <trkpt lat="45.8462" lon="5.52758">
        <ele>856.61900032</ele>
        <time>2020-05-28T07:52:01.000Z</time>
      </trkpt>
      <trkpt lat="45.84622" lon="5.52751">
        <ele>857</ele>
        <time>2020-05-28T07:52:05.000Z</time>
      </trkpt>
      <trkpt lat="45.84626" lon="5.52745">
        <ele>857</ele>
        <time>2020-05-28T07:52:09.000Z</time>
      </trkpt>
      <trkpt lat="45.84628" lon="5.52742">
        <ele>857</ele>
        <time>2020-05-28T07:52:11.000Z</time>
      </trkpt>
      <trkpt lat="45.8463" lon="5.52739">
        <ele>857</ele>
        <time>2020-05-28T07:52:13.000Z</time>
      </trkpt>
      <trkpt lat="45.84632" lon="5.52738">
        <ele>857</ele>
        <time>2020-05-28T07:52:15.000Z</time>
      </trkpt>
      <trkpt lat="45.84634" lon="5.52736">
        <ele>857</ele>
        <time>2020-05-28T07:52:17.000Z</time>
      </trkpt>
      <trkpt lat="45.8464" lon="5.52726">
        <ele>857</ele>
        <time>2020-05-28T07:52:23.000Z</time>
      </trkpt>
      <trkpt lat="45.84646" lon="5.52716">
        <ele>857</ele>
        <time>2020-05-28T07:52:30.000Z</time>
      </trkpt>
      <trkpt lat="45.8465" lon="5.52704">
        <ele>857</ele>
        <time>2020-05-28T07:52:39.000Z</time>
      </trkpt>
      <trkpt lat="45.84657" lon="5.52694">
        <ele>857.11900032</ele>
        <time>2020-05-28T07:52:46.000Z</time>
      </trkpt>
      <trkpt lat="45.84665" lon="5.52683">
        <ele>857.91900032</ele>
        <time>2020-05-28T07:52:54.000Z</time>
      </trkpt>
      <trkpt lat="45.84671" lon="5.52673">
        <ele>858.61900032</ele>
        <time>2020-05-28T07:53:01.000Z</time>
      </trkpt>
      <trkpt lat="45.84676" lon="5.52662">
        <ele>859</ele>
        <time>2020-05-28T07:53:08.000Z</time>
      </trkpt>
      <trkpt lat="45.84678" lon="5.52656">
        <ele>859</ele>
        <time>2020-05-28T07:53:11.000Z</time>
      </trkpt>
      <trkpt lat="45.84679" lon="5.52653">
        <ele>859</ele>
        <time>2020-05-28T07:53:13.000Z</time>
      </trkpt>
      <trkpt lat="45.84681" lon="5.52651">
        <ele>859</ele>
        <time>2020-05-28T07:53:15.000Z</time>
      </trkpt>
      <trkpt lat="45.84683" lon="5.52649">
        <ele>859</ele>
        <time>2020-05-28T07:53:17.000Z</time>
      </trkpt>
      <trkpt lat="45.84685" lon="5.52647">
        <ele>859</ele>
        <time>2020-05-28T07:53:20.000Z</time>
      </trkpt>
      <trkpt lat="45.84686" lon="5.52644">
        <ele>859</ele>
        <time>2020-05-28T07:53:22.000Z</time>
      </trkpt>
      <trkpt lat="45.84687" lon="5.52642">
        <ele>859</ele>
        <time>2020-05-28T07:53:24.000Z</time>
      </trkpt>
      <trkpt lat="45.84694" lon="5.52631">
        <ele>859.88535621712</ele>
        <time>2020-05-28T07:53:34.000Z</time>
      </trkpt>
      <trkpt lat="45.84696" lon="5.52629">
        <ele>860.16347054257</ele>
        <time>2020-05-28T07:53:36.000Z</time>
      </trkpt>
      <trkpt lat="45.84697" lon="5.52627">
        <ele>860.56710310648</ele>
        <time>2020-05-28T07:53:38.000Z</time>
      </trkpt>
      <trkpt lat="45.84698" lon="5.52625">
        <ele>860.9707356704</ele>
        <time>2020-05-28T07:53:40.000Z</time>
      </trkpt>
      <trkpt lat="45.847" lon="5.52618">
        <ele>861.77800079822</ele>
        <time>2020-05-28T07:53:44.000Z</time>
      </trkpt>
      <trkpt lat="45.84701" lon="5.52615">
        <ele>862</ele>
        <time>2020-05-28T07:53:46.000Z</time>
      </trkpt>
      <trkpt lat="45.84702" lon="5.52613">
        <ele>862</ele>
        <time>2020-05-28T07:53:48.000Z</time>
      </trkpt>
      <trkpt lat="45.84703" lon="5.5261">
        <ele>862</ele>
        <time>2020-05-28T07:53:50.000Z</time>
      </trkpt>
      <trkpt lat="45.84706" lon="5.52607">
        <ele>862</ele>
        <time>2020-05-28T07:53:52.000Z</time>
      </trkpt>
      <trkpt lat="45.84707" lon="5.52605">
        <ele>862</ele>
        <time>2020-05-28T07:53:54.000Z</time>
      </trkpt>
      <trkpt lat="45.84709" lon="5.52603">
        <ele>862.09268738309</ele>
        <time>2020-05-28T07:53:56.000Z</time>
      </trkpt>
      <trkpt lat="45.84711" lon="5.526">
        <ele>862.40164752377</ele>
        <time>2020-05-28T07:53:59.000Z</time>
      </trkpt>
      <trkpt lat="45.84712" lon="5.52596">
        <ele>862.71060766445</ele>
        <time>2020-05-28T07:54:02.000Z</time>
      </trkpt>
      <trkpt lat="45.84713" lon="5.52593">
        <ele>862.91658109157</ele>
        <time>2020-05-28T07:54:04.000Z</time>
      </trkpt>
      <trkpt lat="45.84715" lon="5.52588">
        <ele>863.63800064</ele>
        <time>2020-05-28T07:54:08.000Z</time>
      </trkpt>
      <trkpt lat="45.84717" lon="5.52585">
        <ele>864.03800064</ele>
        <time>2020-05-28T07:54:10.000Z</time>
      </trkpt>
      <trkpt lat="45.84718" lon="5.52583">
        <ele>864.43800064</ele>
        <time>2020-05-28T07:54:12.000Z</time>
      </trkpt>
      <trkpt lat="45.84719" lon="5.5258">
        <ele>864.83800064</ele>
        <time>2020-05-28T07:54:14.000Z</time>
      </trkpt>
      <trkpt lat="45.84721" lon="5.52578">
        <ele>865.23017455773</ele>
        <time>2020-05-28T07:54:16.000Z</time>
      </trkpt>
      <trkpt lat="45.84722" lon="5.52575">
        <ele>865.61702151364</ele>
        <time>2020-05-28T07:54:18.000Z</time>
      </trkpt>
      <trkpt lat="45.84722" lon="5.52572">
        <ele>866.00386846956</ele>
        <time>2020-05-28T07:54:20.000Z</time>
      </trkpt>
      <trkpt lat="45.84723" lon="5.52569">
        <ele>866.39071542548</ele>
        <time>2020-05-28T07:54:22.000Z</time>
      </trkpt>
      <trkpt lat="45.84724" lon="5.52566">
        <ele>866.77756238139</ele>
        <time>2020-05-28T07:54:24.000Z</time>
      </trkpt>
      <trkpt lat="45.84725" lon="5.52563">
        <ele>867.08799144546</ele>
        <time>2020-05-28T07:54:26.000Z</time>
      </trkpt>
      <trkpt lat="45.84726" lon="5.52561">
        <ele>867.2950309201</ele>
        <time>2020-05-28T07:54:28.000Z</time>
      </trkpt>
      <trkpt lat="45.84727" lon="5.52558">
        <ele>867.50207039475</ele>
        <time>2020-05-28T07:54:30.000Z</time>
      </trkpt>
      <trkpt lat="45.84728" lon="5.52555">
        <ele>867.70910986939</ele>
        <time>2020-05-28T07:54:32.000Z</time>
      </trkpt>
      <trkpt lat="45.84729" lon="5.52551">
        <ele>868.01900032</ele>
        <time>2020-05-28T07:54:35.000Z</time>
      </trkpt>
      <trkpt lat="45.84732" lon="5.52544">
        <ele>868.51900032</ele>
        <time>2020-05-28T07:54:40.000Z</time>
      </trkpt>
      <trkpt lat="45.84738" lon="5.52534">
        <ele>869</ele>
        <time>2020-05-28T07:54:50.000Z</time>
      </trkpt>
      <trkpt lat="45.84741" lon="5.52521">
        <ele>869.78317769978</ele>
        <time>2020-05-28T07:54:59.000Z</time>
      </trkpt>
      <trkpt lat="45.84738" lon="5.52507">
        <ele>871.05268786422</ele>
        <time>2020-05-28T07:55:06.000Z</time>
      </trkpt>
      <trkpt lat="45.84741" lon="5.52495">
        <ele>872.03800064</ele>
        <time>2020-05-28T07:55:15.000Z</time>
      </trkpt>
      <trkpt lat="45.84741" lon="5.52482">
        <ele>873.83800064</ele>
        <time>2020-05-28T07:55:24.000Z</time>
      </trkpt>
      <trkpt lat="45.84745" lon="5.5247">
        <ele>874.01900032</ele>
        <time>2020-05-28T07:55:35.000Z</time>
      </trkpt>
      <trkpt lat="45.84749" lon="5.52457">
        <ele>874.81900032</ele>
        <time>2020-05-28T07:55:43.000Z</time>
      </trkpt>
      <trkpt lat="45.84755" lon="5.52447">
        <ele>875</ele>
        <time>2020-05-28T07:55:50.000Z</time>
      </trkpt>
      <trkpt lat="45.84762" lon="5.52438">
        <ele>875.43409393351</ele>
        <time>2020-05-28T07:55:57.000Z</time>
      </trkpt>
      <trkpt lat="45.84767" lon="5.5243">
        <ele>876.42517452533</ele>
        <time>2020-05-28T07:56:02.000Z</time>
      </trkpt>
      <trkpt lat="45.84773" lon="5.52419">
        <ele>877</ele>
        <time>2020-05-28T07:56:11.000Z</time>
      </trkpt>
      <trkpt lat="45.8478" lon="5.52408">
        <ele>876.38099968</ele>
        <time>2020-05-28T07:56:21.000Z</time>
      </trkpt>
      <trkpt lat="45.84783" lon="5.52402">
        <ele>876</ele>
        <time>2020-05-28T07:56:32.000Z</time>
      </trkpt>
      <trkpt lat="45.84782" lon="5.52405">
        <ele>876</ele>
        <time>2020-05-28T07:57:04.000Z</time>
      </trkpt>
      <trkpt lat="45.84783" lon="5.52408">
        <ele>876</ele>
        <time>2020-05-28T07:57:12.000Z</time>
      </trkpt>
      <trkpt lat="45.84784" lon="5.52406">
        <ele>876</ele>
        <time>2020-05-28T07:57:24.000Z</time>
      </trkpt>
      <trkpt lat="45.84786" lon="5.52404">
        <ele>876</ele>
        <time>2020-05-28T07:57:31.000Z</time>
      </trkpt>
      <trkpt lat="45.84787" lon="5.52403">
        <ele>875</ele>
        <time>2020-05-28T07:58:26.000Z</time>
      </trkpt>
      <trkpt lat="45.84789" lon="5.52401">
        <ele>877</ele>
        <time>2020-05-28T08:00:21.000Z</time>
      </trkpt>
      <trkpt lat="45.84787" lon="5.52397">
        <ele>877.81089089211</ele>
        <time>2020-05-28T08:01:33.000Z</time>
      </trkpt>
      <trkpt lat="45.84795" lon="5.52389">
        <ele>878</ele>
        <time>2020-05-28T08:01:44.000Z</time>
      </trkpt>
      <trkpt lat="45.84798" lon="5.52387">
        <ele>877.88099968</ele>
        <time>2020-05-28T08:01:46.000Z</time>
      </trkpt>
      <trkpt lat="45.848" lon="5.52385">
        <ele>877.68099968</ele>
        <time>2020-05-28T08:01:48.000Z</time>
      </trkpt>
      <trkpt lat="45.84802" lon="5.52383">
        <ele>877.48099968</ele>
        <time>2020-05-28T08:01:50.000Z</time>
      </trkpt>
      <trkpt lat="45.84805" lon="5.52381">
        <ele>877.28099968</ele>
        <time>2020-05-28T08:01:52.000Z</time>
      </trkpt>
      <trkpt lat="45.84805" lon="5.52378">
        <ele>877.08099968</ele>
        <time>2020-05-28T08:01:54.000Z</time>
      </trkpt>
      <trkpt lat="45.84807" lon="5.52376">
        <ele>877</ele>
        <time>2020-05-28T08:01:56.000Z</time>
      </trkpt>
      <trkpt lat="45.84809" lon="5.52373">
        <ele>877</ele>
        <time>2020-05-28T08:01:58.000Z</time>
      </trkpt>
      <trkpt lat="45.8481" lon="5.52371">
        <ele>877</ele>
        <time>2020-05-28T08:02:00.000Z</time>
      </trkpt>
      <trkpt lat="45.84813" lon="5.52369">
        <ele>877</ele>
        <time>2020-05-28T08:02:02.000Z</time>
      </trkpt>
      <trkpt lat="45.84815" lon="5.52367">
        <ele>877</ele>
        <time>2020-05-28T08:02:04.000Z</time>
      </trkpt>
      <trkpt lat="45.84817" lon="5.52364">
        <ele>877</ele>
        <time>2020-05-28T08:02:07.000Z</time>
      </trkpt>
      <trkpt lat="45.84819" lon="5.52362">
        <ele>877</ele>
        <time>2020-05-28T08:02:09.000Z</time>
      </trkpt>
      <trkpt lat="45.84821" lon="5.52359">
        <ele>877</ele>
        <time>2020-05-28T08:02:11.000Z</time>
      </trkpt>
      <trkpt lat="45.84823" lon="5.52357">
        <ele>877</ele>
        <time>2020-05-28T08:02:13.000Z</time>
      </trkpt>
      <trkpt lat="45.84825" lon="5.52354">
        <ele>877</ele>
        <time>2020-05-28T08:02:15.000Z</time>
      </trkpt>
      <trkpt lat="45.84828" lon="5.52348">
        <ele>877</ele>
        <time>2020-05-28T08:02:20.000Z</time>
      </trkpt>
      <trkpt lat="45.84829" lon="5.52345">
        <ele>877</ele>
        <time>2020-05-28T08:02:22.000Z</time>
      </trkpt>
      <trkpt lat="45.84831" lon="5.52343">
        <ele>877</ele>
        <time>2020-05-28T08:02:24.000Z</time>
      </trkpt>
      <trkpt lat="45.84837" lon="5.52332">
        <ele>877</ele>
        <time>2020-05-28T08:02:33.000Z</time>
      </trkpt>
      <trkpt lat="45.84844" lon="5.52322">
        <ele>877</ele>
        <time>2020-05-28T08:02:42.000Z</time>
      </trkpt>
      <trkpt lat="45.84849" lon="5.52311">
        <ele>877</ele>
        <time>2020-05-28T08:02:49.000Z</time>
      </trkpt>
      <trkpt lat="45.84857" lon="5.52303">
        <ele>876.91021635838</ele>
        <time>2020-05-28T08:02:56.000Z</time>
      </trkpt>
      <trkpt lat="45.84862" lon="5.52299">
        <ele>876.60061873292</ele>
        <time>2020-05-28T08:02:59.000Z</time>
      </trkpt>
      <trkpt lat="45.84866" lon="5.52291">
        <ele>876.01751032839</ele>
        <time>2020-05-28T08:03:05.000Z</time>
      </trkpt>
      <trkpt lat="45.84873" lon="5.52282">
        <ele>876.69844333268</ele>
        <time>2020-05-28T08:03:12.000Z</time>
      </trkpt>
      <trkpt lat="45.84876" lon="5.5228">
        <ele>876.89299561962</ele>
        <time>2020-05-28T08:03:14.000Z</time>
      </trkpt>
      <trkpt lat="45.84877" lon="5.52278">
        <ele>876.99027176309</ele>
        <time>2020-05-28T08:03:15.000Z</time>
      </trkpt>
      <trkpt lat="45.8488" lon="5.52276">
        <ele>877</ele>
        <time>2020-05-28T08:03:17.000Z</time>
      </trkpt>
      <trkpt lat="45.84883" lon="5.52272">
        <ele>877</ele>
        <time>2020-05-28T08:03:20.000Z</time>
      </trkpt>
      <trkpt lat="45.84886" lon="5.52269">
        <ele>877</ele>
        <time>2020-05-28T08:03:22.000Z</time>
      </trkpt>
      <trkpt lat="45.84888" lon="5.52267">
        <ele>877</ele>
        <time>2020-05-28T08:03:24.000Z</time>
      </trkpt>
      <trkpt lat="45.8489" lon="5.52264">
        <ele>877</ele>
        <time>2020-05-28T08:03:26.000Z</time>
      </trkpt>
      <trkpt lat="45.84892" lon="5.52261">
        <ele>877</ele>
        <time>2020-05-28T08:03:28.000Z</time>
      </trkpt>
      <trkpt lat="45.84894" lon="5.5226">
        <ele>877</ele>
        <time>2020-05-28T08:03:30.000Z</time>
      </trkpt>
      <trkpt lat="45.84896" lon="5.52258">
        <ele>877</ele>
        <time>2020-05-28T08:03:32.000Z</time>
      </trkpt>
      <trkpt lat="45.84899" lon="5.52256">
        <ele>877</ele>
        <time>2020-05-28T08:03:34.000Z</time>
      </trkpt>
      <trkpt lat="45.84901" lon="5.52254">
        <ele>877</ele>
        <time>2020-05-28T08:03:36.000Z</time>
      </trkpt>
      <trkpt lat="45.84903" lon="5.52252">
        <ele>877</ele>
        <time>2020-05-28T08:03:38.000Z</time>
      </trkpt>
      <trkpt lat="45.84905" lon="5.52249">
        <ele>877</ele>
        <time>2020-05-28T08:03:40.000Z</time>
      </trkpt>
      <trkpt lat="45.84906" lon="5.52247">
        <ele>877</ele>
        <time>2020-05-28T08:03:42.000Z</time>
      </trkpt>
      <trkpt lat="45.84907" lon="5.52245">
        <ele>877</ele>
        <time>2020-05-28T08:03:44.000Z</time>
      </trkpt>
      <trkpt lat="45.84909" lon="5.52242">
        <ele>877</ele>
        <time>2020-05-28T08:03:46.000Z</time>
      </trkpt>
      <trkpt lat="45.84911" lon="5.52239">
        <ele>877</ele>
        <time>2020-05-28T08:03:48.000Z</time>
      </trkpt>
      <trkpt lat="45.84912" lon="5.52237">
        <ele>877</ele>
        <time>2020-05-28T08:03:50.000Z</time>
      </trkpt>
      <trkpt lat="45.84914" lon="5.52234">
        <ele>877</ele>
        <time>2020-05-28T08:03:52.000Z</time>
      </trkpt>
      <trkpt lat="45.84917" lon="5.52233">
        <ele>877</ele>
        <time>2020-05-28T08:03:54.000Z</time>
      </trkpt>
      <trkpt lat="45.8492" lon="5.52231">
        <ele>877</ele>
        <time>2020-05-28T08:03:56.000Z</time>
      </trkpt>
      <trkpt lat="45.84922" lon="5.5223">
        <ele>877</ele>
        <time>2020-05-28T08:03:57.000Z</time>
      </trkpt>
      <trkpt lat="45.84924" lon="5.52228">
        <ele>877</ele>
        <time>2020-05-28T08:03:59.000Z</time>
      </trkpt>
      <trkpt lat="45.84926" lon="5.52226">
        <ele>877</ele>
        <time>2020-05-28T08:04:01.000Z</time>
      </trkpt>
      <trkpt lat="45.84929" lon="5.52224">
        <ele>877</ele>
        <time>2020-05-28T08:04:03.000Z</time>
      </trkpt>
      <trkpt lat="45.84931" lon="5.52222">
        <ele>877</ele>
        <time>2020-05-28T08:04:05.000Z</time>
      </trkpt>
      <trkpt lat="45.84933" lon="5.5222">
        <ele>877</ele>
        <time>2020-05-28T08:04:07.000Z</time>
      </trkpt>
      <trkpt lat="45.84935" lon="5.52217">
        <ele>877</ele>
        <time>2020-05-28T08:04:09.000Z</time>
      </trkpt>
      <trkpt lat="45.84937" lon="5.52215">
        <ele>877</ele>
        <time>2020-05-28T08:04:11.000Z</time>
      </trkpt>
      <trkpt lat="45.84938" lon="5.52213">
        <ele>877</ele>
        <time>2020-05-28T08:04:13.000Z</time>
      </trkpt>
      <trkpt lat="45.8494" lon="5.52208">
        <ele>877</ele>
        <time>2020-05-28T08:04:16.000Z</time>
      </trkpt>
      <trkpt lat="45.84941" lon="5.52205">
        <ele>877</ele>
        <time>2020-05-28T08:04:18.000Z</time>
      </trkpt>
      <trkpt lat="45.84947" lon="5.52194">
        <ele>877.21016642497</ele>
        <time>2020-05-28T08:04:27.000Z</time>
      </trkpt>
      <trkpt lat="45.84954" lon="5.52184">
        <ele>878.09406946809</ele>
        <time>2020-05-28T08:04:36.000Z</time>
      </trkpt>
      <trkpt lat="45.84961" lon="5.52175">
        <ele>878.91206484282</ele>
        <time>2020-05-28T08:04:44.000Z</time>
      </trkpt>
      <trkpt lat="45.84969" lon="5.52169">
        <ele>880.03316553954</ele>
        <time>2020-05-28T08:04:50.000Z</time>
      </trkpt>
      <trkpt lat="45.84977" lon="5.52161">
        <ele>881</ele>
        <time>2020-05-28T08:04:59.000Z</time>
      </trkpt>
      <trkpt lat="45.84984" lon="5.52153">
        <ele>881.01900032</ele>
        <time>2020-05-28T08:05:05.000Z</time>
      </trkpt>
      <trkpt lat="45.8499" lon="5.52142">
        <ele>882.01898134473</ele>
        <time>2020-05-28T08:05:15.000Z</time>
      </trkpt>
      <trkpt lat="45.84996" lon="5.52131">
        <ele>882.81818239942</ele>
        <time>2020-05-28T08:05:23.000Z</time>
      </trkpt>
      <trkpt lat="45.85001" lon="5.5212">
        <ele>883.71585285237</ele>
        <time>2020-05-28T08:05:32.000Z</time>
      </trkpt>
      <trkpt lat="45.85007" lon="5.52109">
        <ele>885.43574361446</ele>
        <time>2020-05-28T08:05:42.000Z</time>
      </trkpt>
      <trkpt lat="45.85011" lon="5.52096">
        <ele>886</ele>
        <time>2020-05-28T08:05:54.000Z</time>
      </trkpt>
      <trkpt lat="45.85013" lon="5.52083">
        <ele>887.83800064</ele>
        <time>2020-05-28T08:06:04.000Z</time>
      </trkpt>
      <trkpt lat="45.85018" lon="5.52071">
        <ele>888.81900032</ele>
        <time>2020-05-28T08:06:13.000Z</time>
      </trkpt>
      <trkpt lat="45.85023" lon="5.52059">
        <ele>890.58567390844</ele>
        <time>2020-05-28T08:06:23.000Z</time>
      </trkpt>
      <trkpt lat="45.85025" lon="5.52046">
        <ele>892.41882195034</ele>
        <time>2020-05-28T08:06:32.000Z</time>
      </trkpt>
      <trkpt lat="45.85025" lon="5.52033">
        <ele>893.91900032</ele>
        <time>2020-05-28T08:06:44.000Z</time>
      </trkpt>
      <trkpt lat="45.85029" lon="5.52021">
        <ele>895.42815298435</ele>
        <time>2020-05-28T08:06:57.000Z</time>
      </trkpt>
      <trkpt lat="45.85032" lon="5.52011">
        <ele>896.79667650544</ele>
        <time>2020-05-28T08:07:04.000Z</time>
      </trkpt>
      <trkpt lat="45.85033" lon="5.52009">
        <ele>897.19492392119</ele>
        <time>2020-05-28T08:07:06.000Z</time>
      </trkpt>
      <trkpt lat="45.85033" lon="5.52006">
        <ele>897.80406117492</ele>
        <time>2020-05-28T08:07:09.000Z</time>
      </trkpt>
      <trkpt lat="45.85034" lon="5.52003">
        <ele>898.41319842865</ele>
        <time>2020-05-28T08:07:12.000Z</time>
      </trkpt>
      <trkpt lat="45.85033" lon="5.51996">
        <ele>899.62638553922</ele>
        <time>2020-05-28T08:07:18.000Z</time>
      </trkpt>
      <trkpt lat="45.85033" lon="5.51993">
        <ele>900.0292054072</ele>
        <time>2020-05-28T08:07:20.000Z</time>
      </trkpt>
      <trkpt lat="45.85034" lon="5.51978">
        <ele>901.81881919718</ele>
        <time>2020-05-28T08:07:33.000Z</time>
      </trkpt>
      <trkpt lat="45.85033" lon="5.51974">
        <ele>902.23800064</ele>
        <time>2020-05-28T08:07:36.000Z</time>
      </trkpt>
      <trkpt lat="45.85033" lon="5.51971">
        <ele>902.83800064</ele>
        <time>2020-05-28T08:07:39.000Z</time>
      </trkpt>
      <trkpt lat="45.85033" lon="5.51968">
        <ele>903.43800064</ele>
        <time>2020-05-28T08:07:42.000Z</time>
      </trkpt>
      <trkpt lat="45.85033" lon="5.51965">
        <ele>903.83800064</ele>
        <time>2020-05-28T08:07:44.000Z</time>
      </trkpt>
      <trkpt lat="45.85035" lon="5.51963">
        <ele>904.21900032</ele>
        <time>2020-05-28T08:07:47.000Z</time>
      </trkpt>
      <trkpt lat="45.85038" lon="5.51958">
        <ele>904.61900032</ele>
        <time>2020-05-28T08:07:51.000Z</time>
      </trkpt>
      <trkpt lat="45.8504" lon="5.51956">
        <ele>904.81900032</ele>
        <time>2020-05-28T08:07:53.000Z</time>
      </trkpt>
      <trkpt lat="45.85043" lon="5.51954">
        <ele>905.03800064</ele>
        <time>2020-05-28T08:07:55.000Z</time>
      </trkpt>
      <trkpt lat="45.85048" lon="5.51947">
        <ele>906.23800064</ele>
        <time>2020-05-28T08:08:01.000Z</time>
      </trkpt>
      <trkpt lat="45.85049" lon="5.51945">
        <ele>906.63800064</ele>
        <time>2020-05-28T08:08:03.000Z</time>
      </trkpt>
      <trkpt lat="45.8505" lon="5.51942">
        <ele>907.01900032</ele>
        <time>2020-05-28T08:08:05.000Z</time>
      </trkpt>
      <trkpt lat="45.85051" lon="5.5194">
        <ele>907.21900032</ele>
        <time>2020-05-28T08:08:07.000Z</time>
      </trkpt>
      <trkpt lat="45.85054" lon="5.51935">
        <ele>907.71900032</ele>
        <time>2020-05-28T08:08:12.000Z</time>
      </trkpt>
      <trkpt lat="45.85055" lon="5.51932">
        <ele>907.91900032</ele>
        <time>2020-05-28T08:08:14.000Z</time>
      </trkpt>
      <trkpt lat="45.85056" lon="5.5193">
        <ele>908.23800064</ele>
        <time>2020-05-28T08:08:16.000Z</time>
      </trkpt>
      <trkpt lat="45.85057" lon="5.51927">
        <ele>908.83800064</ele>
        <time>2020-05-28T08:08:19.000Z</time>
      </trkpt>
      <trkpt lat="45.85058" lon="5.51923">
        <ele>909.43800064</ele>
        <time>2020-05-28T08:08:22.000Z</time>
      </trkpt>
      <trkpt lat="45.85059" lon="5.5192">
        <ele>909.83800064</ele>
        <time>2020-05-28T08:08:24.000Z</time>
      </trkpt>
      <trkpt lat="45.8506" lon="5.51918">
        <ele>910</ele>
        <time>2020-05-28T08:08:26.000Z</time>
      </trkpt>
      <trkpt lat="45.85062" lon="5.51915">
        <ele>910</ele>
        <time>2020-05-28T08:08:28.000Z</time>
      </trkpt>
      <trkpt lat="45.85063" lon="5.51912">
        <ele>910</ele>
        <time>2020-05-28T08:08:30.000Z</time>
      </trkpt>
      <trkpt lat="45.85064" lon="5.51909">
        <ele>910</ele>
        <time>2020-05-28T08:08:32.000Z</time>
      </trkpt>
      <trkpt lat="45.85065" lon="5.51905">
        <ele>910.03206414882</ele>
        <time>2020-05-28T08:08:35.000Z</time>
      </trkpt>
      <trkpt lat="45.85066" lon="5.51902">
        <ele>910.43286600905</ele>
        <time>2020-05-28T08:08:37.000Z</time>
      </trkpt>
      <trkpt lat="45.85067" lon="5.51899">
        <ele>910.83366786929</ele>
        <time>2020-05-28T08:08:39.000Z</time>
      </trkpt>
      <trkpt lat="45.85067" lon="5.51897">
        <ele>911.23446972952</ele>
        <time>2020-05-28T08:08:41.000Z</time>
      </trkpt>
      <trkpt lat="45.85068" lon="5.51894">
        <ele>911.63527158975</ele>
        <time>2020-05-28T08:08:43.000Z</time>
      </trkpt>
      <trkpt lat="45.8507" lon="5.51891">
        <ele>912.01751032839</ele>
        <time>2020-05-28T08:08:45.000Z</time>
      </trkpt>
      <trkpt lat="45.85071" lon="5.51888">
        <ele>912.21206261533</ele>
        <time>2020-05-28T08:08:47.000Z</time>
      </trkpt>
      <trkpt lat="45.85072" lon="5.51885">
        <ele>912.40661490227</ele>
        <time>2020-05-28T08:08:49.000Z</time>
      </trkpt>
      <trkpt lat="45.85073" lon="5.51882">
        <ele>912.60116718921</ele>
        <time>2020-05-28T08:08:51.000Z</time>
      </trkpt>
      <trkpt lat="45.85074" lon="5.51879">
        <ele>912.79571947615</ele>
        <time>2020-05-28T08:08:53.000Z</time>
      </trkpt>
      <trkpt lat="45.85076" lon="5.51876">
        <ele>912.99027176309</ele>
        <time>2020-05-28T08:08:55.000Z</time>
      </trkpt>
      <trkpt lat="45.85077" lon="5.51873">
        <ele>913</ele>
        <time>2020-05-28T08:08:57.000Z</time>
      </trkpt>
      <trkpt lat="45.85078" lon="5.51871">
        <ele>913</ele>
        <time>2020-05-28T08:08:59.000Z</time>
      </trkpt>
      <trkpt lat="45.8508" lon="5.51869">
        <ele>913</ele>
        <time>2020-05-28T08:09:01.000Z</time>
      </trkpt>
      <trkpt lat="45.85082" lon="5.51867">
        <ele>913</ele>
        <time>2020-05-28T08:09:03.000Z</time>
      </trkpt>
      <trkpt lat="45.85083" lon="5.51864">
        <ele>913</ele>
        <time>2020-05-28T08:09:05.000Z</time>
      </trkpt>
      <trkpt lat="45.85084" lon="5.51862">
        <ele>913</ele>
        <time>2020-05-28T08:09:07.000Z</time>
      </trkpt>
      <trkpt lat="45.85086" lon="5.51859">
        <ele>913</ele>
        <time>2020-05-28T08:09:09.000Z</time>
      </trkpt>
      <trkpt lat="45.85087" lon="5.51856">
        <ele>913</ele>
        <time>2020-05-28T08:09:11.000Z</time>
      </trkpt>
      <trkpt lat="45.85089" lon="5.51853">
        <ele>913</ele>
        <time>2020-05-28T08:09:13.000Z</time>
      </trkpt>
      <trkpt lat="45.8509" lon="5.5185">
        <ele>913.01884952381</ele>
        <time>2020-05-28T08:09:15.000Z</time>
      </trkpt>
      <trkpt lat="45.85092" lon="5.51847">
        <ele>913.21726222222</ele>
        <time>2020-05-28T08:09:17.000Z</time>
      </trkpt>
      <trkpt lat="45.85093" lon="5.51845">
        <ele>913.41567492063</ele>
        <time>2020-05-28T08:09:19.000Z</time>
      </trkpt>
      <trkpt lat="45.85094" lon="5.51842">
        <ele>913.61408761905</ele>
        <time>2020-05-28T08:09:21.000Z</time>
      </trkpt>
      <trkpt lat="45.85095" lon="5.51839">
        <ele>913.81250031746</ele>
        <time>2020-05-28T08:09:23.000Z</time>
      </trkpt>
      <trkpt lat="45.85097" lon="5.51836">
        <ele>914</ele>
        <time>2020-05-28T08:09:25.000Z</time>
      </trkpt>
      <trkpt lat="45.85098" lon="5.51834">
        <ele>914</ele>
        <time>2020-05-28T08:09:27.000Z</time>
      </trkpt>
      <trkpt lat="45.851" lon="5.51831">
        <ele>914</ele>
        <time>2020-05-28T08:09:29.000Z</time>
      </trkpt>
      <trkpt lat="45.85101" lon="5.51828">
        <ele>914</ele>
        <time>2020-05-28T08:09:31.000Z</time>
      </trkpt>
      <trkpt lat="45.85103" lon="5.51825">
        <ele>914</ele>
        <time>2020-05-28T08:09:33.000Z</time>
      </trkpt>
      <trkpt lat="45.85105" lon="5.51822">
        <ele>914</ele>
        <time>2020-05-28T08:09:35.000Z</time>
      </trkpt>
      <trkpt lat="45.85106" lon="5.51819">
        <ele>914</ele>
        <time>2020-05-28T08:09:37.000Z</time>
      </trkpt>
      <trkpt lat="45.85108" lon="5.51816">
        <ele>914</ele>
        <time>2020-05-28T08:09:39.000Z</time>
      </trkpt>
      <trkpt lat="45.85109" lon="5.51814">
        <ele>914</ele>
        <time>2020-05-28T08:09:41.000Z</time>
      </trkpt>
      <trkpt lat="45.85111" lon="5.51811">
        <ele>914</ele>
        <time>2020-05-28T08:09:43.000Z</time>
      </trkpt>
      <trkpt lat="45.85112" lon="5.51809">
        <ele>914.01900032</ele>
        <time>2020-05-28T08:09:45.000Z</time>
      </trkpt>
      <trkpt lat="45.85114" lon="5.51806">
        <ele>914.21900032</ele>
        <time>2020-05-28T08:09:47.000Z</time>
      </trkpt>
      <trkpt lat="45.85116" lon="5.51804">
        <ele>914.41900032</ele>
        <time>2020-05-28T08:09:49.000Z</time>
      </trkpt>
      <trkpt lat="45.85117" lon="5.51801">
        <ele>914.61900032</ele>
        <time>2020-05-28T08:09:51.000Z</time>
      </trkpt>
      <trkpt lat="45.85119" lon="5.51798">
        <ele>914.81900032</ele>
        <time>2020-05-28T08:09:53.000Z</time>
      </trkpt>
      <trkpt lat="45.8512" lon="5.51796">
        <ele>915.01900032</ele>
        <time>2020-05-28T08:09:55.000Z</time>
      </trkpt>
      <trkpt lat="45.85122" lon="5.51793">
        <ele>915.21900032</ele>
        <time>2020-05-28T08:09:57.000Z</time>
      </trkpt>
      <trkpt lat="45.85122" lon="5.5179">
        <ele>915.41900032</ele>
        <time>2020-05-28T08:09:59.000Z</time>
      </trkpt>
      <trkpt lat="45.85123" lon="5.51787">
        <ele>915.61900032</ele>
        <time>2020-05-28T08:10:01.000Z</time>
      </trkpt>
      <trkpt lat="45.85125" lon="5.51784">
        <ele>915.81900032</ele>
        <time>2020-05-28T08:10:03.000Z</time>
      </trkpt>
      <trkpt lat="45.85125" lon="5.51782">
        <ele>916</ele>
        <time>2020-05-28T08:10:05.000Z</time>
      </trkpt>
      <trkpt lat="45.85126" lon="5.51778">
        <ele>916</ele>
        <time>2020-05-28T08:10:09.000Z</time>
      </trkpt>
      <trkpt lat="45.85128" lon="5.51776">
        <ele>916</ele>
        <time>2020-05-28T08:10:12.000Z</time>
      </trkpt>
      <trkpt lat="45.85129" lon="5.51773">
        <ele>916.61900032</ele>
        <time>2020-05-28T08:10:21.000Z</time>
      </trkpt>
      <trkpt lat="45.85129" lon="5.5177">
        <ele>916.81900032</ele>
        <time>2020-05-28T08:10:23.000Z</time>
      </trkpt>
      <trkpt lat="45.8513" lon="5.51768">
        <ele>917.01900032</ele>
        <time>2020-05-28T08:10:25.000Z</time>
      </trkpt>
      <trkpt lat="45.85131" lon="5.51765">
        <ele>917.21900032</ele>
        <time>2020-05-28T08:10:27.000Z</time>
      </trkpt>
      <trkpt lat="45.85132" lon="5.51763">
        <ele>917.41900032</ele>
        <time>2020-05-28T08:10:29.000Z</time>
      </trkpt>
      <trkpt lat="45.85133" lon="5.5176">
        <ele>917.61900032</ele>
        <time>2020-05-28T08:10:31.000Z</time>
      </trkpt>
      <trkpt lat="45.85134" lon="5.51757">
        <ele>917.81900032</ele>
        <time>2020-05-28T08:10:33.000Z</time>
      </trkpt>
      <trkpt lat="45.85134" lon="5.51754">
        <ele>918.01875646791</ele>
        <time>2020-05-28T08:10:35.000Z</time>
      </trkpt>
      <trkpt lat="45.85135" lon="5.51752">
        <ele>918.21618964705</ele>
        <time>2020-05-28T08:10:37.000Z</time>
      </trkpt>
      <trkpt lat="45.85136" lon="5.51749">
        <ele>918.41362282618</ele>
        <time>2020-05-28T08:10:39.000Z</time>
      </trkpt>
      <trkpt lat="45.85137" lon="5.51746">
        <ele>918.61105600532</ele>
        <time>2020-05-28T08:10:41.000Z</time>
      </trkpt>
      <trkpt lat="45.85138" lon="5.51743">
        <ele>918.80848918445</ele>
        <time>2020-05-28T08:10:43.000Z</time>
      </trkpt>
      <trkpt lat="45.85139" lon="5.5174">
        <ele>919</ele>
        <time>2020-05-28T08:10:45.000Z</time>
      </trkpt>
      <trkpt lat="45.8514" lon="5.51737">
        <ele>919</ele>
        <time>2020-05-28T08:10:47.000Z</time>
      </trkpt>
      <trkpt lat="45.85141" lon="5.51734">
        <ele>919</ele>
        <time>2020-05-28T08:10:49.000Z</time>
      </trkpt>
      <trkpt lat="45.85142" lon="5.5173">
        <ele>919</ele>
        <time>2020-05-28T08:10:51.000Z</time>
      </trkpt>
      <trkpt lat="45.85143" lon="5.51727">
        <ele>919</ele>
        <time>2020-05-28T08:10:53.000Z</time>
      </trkpt>
      <trkpt lat="45.85144" lon="5.51725">
        <ele>919</ele>
        <time>2020-05-28T08:10:55.000Z</time>
      </trkpt>
      <trkpt lat="45.85146" lon="5.51721">
        <ele>919</ele>
        <time>2020-05-28T08:10:57.000Z</time>
      </trkpt>
      <trkpt lat="45.85147" lon="5.51719">
        <ele>919</ele>
        <time>2020-05-28T08:10:59.000Z</time>
      </trkpt>
      <trkpt lat="45.85149" lon="5.51715">
        <ele>919</ele>
        <time>2020-05-28T08:11:01.000Z</time>
      </trkpt>
      <trkpt lat="45.8515" lon="5.51712">
        <ele>919</ele>
        <time>2020-05-28T08:11:03.000Z</time>
      </trkpt>
      <trkpt lat="45.8515" lon="5.51708">
        <ele>919.01900032</ele>
        <time>2020-05-28T08:11:05.000Z</time>
      </trkpt>
      <trkpt lat="45.85151" lon="5.51705">
        <ele>919.21900032</ele>
        <time>2020-05-28T08:11:07.000Z</time>
      </trkpt>
      <trkpt lat="45.85153" lon="5.51701">
        <ele>919.41900032</ele>
        <time>2020-05-28T08:11:09.000Z</time>
      </trkpt>
      <trkpt lat="45.85154" lon="5.51698">
        <ele>919.61900032</ele>
        <time>2020-05-28T08:11:11.000Z</time>
      </trkpt>
      <trkpt lat="45.85155" lon="5.51695">
        <ele>919.81900032</ele>
        <time>2020-05-28T08:11:13.000Z</time>
      </trkpt>
      <trkpt lat="45.85156" lon="5.51692">
        <ele>920.01900032</ele>
        <time>2020-05-28T08:11:15.000Z</time>
      </trkpt>
      <trkpt lat="45.85157" lon="5.5169">
        <ele>920.21900032</ele>
        <time>2020-05-28T08:11:17.000Z</time>
      </trkpt>
      <trkpt lat="45.85158" lon="5.51687">
        <ele>920.41900032</ele>
        <time>2020-05-28T08:11:19.000Z</time>
      </trkpt>
      <trkpt lat="45.85159" lon="5.51684">
        <ele>920.61900032</ele>
        <time>2020-05-28T08:11:21.000Z</time>
      </trkpt>
      <trkpt lat="45.8516" lon="5.51681">
        <ele>920.81900032</ele>
        <time>2020-05-28T08:11:23.000Z</time>
      </trkpt>
      <trkpt lat="45.8516" lon="5.51678">
        <ele>921.01900032</ele>
        <time>2020-05-28T08:11:25.000Z</time>
      </trkpt>
      <trkpt lat="45.85161" lon="5.51676">
        <ele>921.21900032</ele>
        <time>2020-05-28T08:11:27.000Z</time>
      </trkpt>
      <trkpt lat="45.85162" lon="5.51673">
        <ele>921.41900032</ele>
        <time>2020-05-28T08:11:29.000Z</time>
      </trkpt>
      <trkpt lat="45.85162" lon="5.5167">
        <ele>921.61900032</ele>
        <time>2020-05-28T08:11:31.000Z</time>
      </trkpt>
      <trkpt lat="45.85162" lon="5.51667">
        <ele>921.81900032</ele>
        <time>2020-05-28T08:11:33.000Z</time>
      </trkpt>
      <trkpt lat="45.85163" lon="5.51664">
        <ele>922.01900032</ele>
        <time>2020-05-28T08:11:35.000Z</time>
      </trkpt>
      <trkpt lat="45.85163" lon="5.5166">
        <ele>922.21900032</ele>
        <time>2020-05-28T08:11:37.000Z</time>
      </trkpt>
      <trkpt lat="45.85164" lon="5.51657">
        <ele>922.41900032</ele>
        <time>2020-05-28T08:11:39.000Z</time>
      </trkpt>
      <trkpt lat="45.85164" lon="5.51654">
        <ele>922.61900032</ele>
        <time>2020-05-28T08:11:41.000Z</time>
      </trkpt>
      <trkpt lat="45.85164" lon="5.51651">
        <ele>922.81900032</ele>
        <time>2020-05-28T08:11:43.000Z</time>
      </trkpt>
      <trkpt lat="45.85165" lon="5.51648">
        <ele>923.01900032</ele>
        <time>2020-05-28T08:11:45.000Z</time>
      </trkpt>
      <trkpt lat="45.85165" lon="5.51645">
        <ele>923.21900032</ele>
        <time>2020-05-28T08:11:47.000Z</time>
      </trkpt>
      <trkpt lat="45.85165" lon="5.51643">
        <ele>923.41900032</ele>
        <time>2020-05-28T08:11:49.000Z</time>
      </trkpt>
      <trkpt lat="45.85166" lon="5.5164">
        <ele>923.61900032</ele>
        <time>2020-05-28T08:11:51.000Z</time>
      </trkpt>
      <trkpt lat="45.85166" lon="5.51636">
        <ele>923.81900032</ele>
        <time>2020-05-28T08:11:53.000Z</time>
      </trkpt>
      <trkpt lat="45.85167" lon="5.51634">
        <ele>924.03800064</ele>
        <time>2020-05-28T08:11:55.000Z</time>
      </trkpt>
      <trkpt lat="45.85167" lon="5.5163">
        <ele>924.43800064</ele>
        <time>2020-05-28T08:11:57.000Z</time>
      </trkpt>
      <trkpt lat="45.85168" lon="5.51627">
        <ele>924.83800064</ele>
        <time>2020-05-28T08:11:59.000Z</time>
      </trkpt>
      <trkpt lat="45.85168" lon="5.51624">
        <ele>925.23800064</ele>
        <time>2020-05-28T08:12:01.000Z</time>
      </trkpt>
      <trkpt lat="45.85169" lon="5.51622">
        <ele>925.63800064</ele>
        <time>2020-05-28T08:12:03.000Z</time>
      </trkpt>
      <trkpt lat="45.8517" lon="5.51619">
        <ele>926.01900032</ele>
        <time>2020-05-28T08:12:05.000Z</time>
      </trkpt>
      <trkpt lat="45.85171" lon="5.51616">
        <ele>926.21900032</ele>
        <time>2020-05-28T08:12:07.000Z</time>
      </trkpt>
      <trkpt lat="45.85173" lon="5.51614">
        <ele>926.41900032</ele>
        <time>2020-05-28T08:12:09.000Z</time>
      </trkpt>
      <trkpt lat="45.85174" lon="5.51611">
        <ele>926.61900032</ele>
        <time>2020-05-28T08:12:11.000Z</time>
      </trkpt>
      <trkpt lat="45.85175" lon="5.51608">
        <ele>926.81900032</ele>
        <time>2020-05-28T08:12:13.000Z</time>
      </trkpt>
      <trkpt lat="45.85176" lon="5.51605">
        <ele>927.01900032</ele>
        <time>2020-05-28T08:12:15.000Z</time>
      </trkpt>
      <trkpt lat="45.85177" lon="5.51602">
        <ele>927.21900032</ele>
        <time>2020-05-28T08:12:17.000Z</time>
      </trkpt>
      <trkpt lat="45.85178" lon="5.51599">
        <ele>927.41900032</ele>
        <time>2020-05-28T08:12:19.000Z</time>
      </trkpt>
      <trkpt lat="45.85179" lon="5.51595">
        <ele>927.61900032</ele>
        <time>2020-05-28T08:12:21.000Z</time>
      </trkpt>
      <trkpt lat="45.8518" lon="5.51593">
        <ele>927.81900032</ele>
        <time>2020-05-28T08:12:23.000Z</time>
      </trkpt>
      <trkpt lat="45.85182" lon="5.51589">
        <ele>928.23658100257</ele>
        <time>2020-05-28T08:12:26.000Z</time>
      </trkpt>
      <trkpt lat="45.85182" lon="5.51586">
        <ele>928.63419506373</ele>
        <time>2020-05-28T08:12:28.000Z</time>
      </trkpt>
      <trkpt lat="45.85184" lon="5.51583">
        <ele>929.03180912489</ele>
        <time>2020-05-28T08:12:30.000Z</time>
      </trkpt>
      <trkpt lat="45.85185" lon="5.5158">
        <ele>929.42942318605</ele>
        <time>2020-05-28T08:12:32.000Z</time>
      </trkpt>
      <trkpt lat="45.85186" lon="5.51577">
        <ele>930</ele>
        <time>2020-05-28T08:12:35.000Z</time>
      </trkpt>
      <trkpt lat="45.85187" lon="5.51574">
        <ele>930</ele>
        <time>2020-05-28T08:12:37.000Z</time>
      </trkpt>
      <trkpt lat="45.85188" lon="5.51571">
        <ele>930</ele>
        <time>2020-05-28T08:12:39.000Z</time>
      </trkpt>
      <trkpt lat="45.85189" lon="5.51569">
        <ele>930</ele>
        <time>2020-05-28T08:12:41.000Z</time>
      </trkpt>
      <trkpt lat="45.8519" lon="5.51566">
        <ele>930</ele>
        <time>2020-05-28T08:12:43.000Z</time>
      </trkpt>
      <trkpt lat="45.85191" lon="5.51562">
        <ele>930</ele>
        <time>2020-05-28T08:12:45.000Z</time>
      </trkpt>
      <trkpt lat="45.85192" lon="5.51559">
        <ele>930.19567409665</ele>
        <time>2020-05-28T08:12:47.000Z</time>
      </trkpt>
      <trkpt lat="45.85193" lon="5.51556">
        <ele>930.40164752377</ele>
        <time>2020-05-28T08:12:49.000Z</time>
      </trkpt>
      <trkpt lat="45.85194" lon="5.51553">
        <ele>930.60762095089</ele>
        <time>2020-05-28T08:12:51.000Z</time>
      </trkpt>
      <trkpt lat="45.85194" lon="5.5155">
        <ele>930.81359437801</ele>
        <time>2020-05-28T08:12:53.000Z</time>
      </trkpt>
      <trkpt lat="45.85194" lon="5.51547">
        <ele>931.11409423153</ele>
        <time>2020-05-28T08:12:56.000Z</time>
      </trkpt>
      <trkpt lat="45.85193" lon="5.51545">
        <ele>931.40172597454</ele>
        <time>2020-05-28T08:12:59.000Z</time>
      </trkpt>
      <trkpt lat="45.85192" lon="5.51542">
        <ele>931.78523496522</ele>
        <time>2020-05-28T08:13:03.000Z</time>
      </trkpt>
      <trkpt lat="45.85191" lon="5.5154">
        <ele>932.15882972918</ele>
        <time>2020-05-28T08:13:06.000Z</time>
      </trkpt>
      <trkpt lat="45.8519" lon="5.51538">
        <ele>932.78578918647</ele>
        <time>2020-05-28T08:13:09.000Z</time>
      </trkpt>
      <trkpt lat="45.85182" lon="5.51527">
        <ele>934.61900032</ele>
        <time>2020-05-28T08:14:11.000Z</time>
      </trkpt>
      <trkpt lat="45.8518" lon="5.51523">
        <ele>935.43625561753</ele>
        <time>2020-05-28T08:14:17.000Z</time>
      </trkpt>
      <trkpt lat="45.85178" lon="5.51521">
        <ele>936.23306836653</ele>
        <time>2020-05-28T08:14:21.000Z</time>
      </trkpt>
      <trkpt lat="45.85178" lon="5.51519">
        <ele>937.0301211245</ele>
        <time>2020-05-28T08:14:25.000Z</time>
      </trkpt>
      <trkpt lat="45.85177" lon="5.51516">
        <ele>937.8333339759</ele>
        <time>2020-05-28T08:14:29.000Z</time>
      </trkpt>
      <trkpt lat="45.85177" lon="5.51513">
        <ele>938.63654682731</ele>
        <time>2020-05-28T08:14:33.000Z</time>
      </trkpt>
      <trkpt lat="45.85176" lon="5.5151">
        <ele>939.11876271855</ele>
        <time>2020-05-28T08:14:36.000Z</time>
      </trkpt>
      <trkpt lat="45.85175" lon="5.51507">
        <ele>939.41816372492</ele>
        <time>2020-05-28T08:14:39.000Z</time>
      </trkpt>
      <trkpt lat="45.85173" lon="5.51504">
        <ele>939.91716540221</ele>
        <time>2020-05-28T08:14:44.000Z</time>
      </trkpt>
      <trkpt lat="45.85173" lon="5.51502">
        <ele>940.23446844695</ele>
        <time>2020-05-28T08:14:46.000Z</time>
      </trkpt>
      <trkpt lat="45.85173" lon="5.51499">
        <ele>940.8356712373</ele>
        <time>2020-05-28T08:14:49.000Z</time>
      </trkpt>
      <trkpt lat="45.85173" lon="5.51496">
        <ele>941.83767588789</ele>
        <time>2020-05-28T08:14:54.000Z</time>
      </trkpt>
      <trkpt lat="45.85171" lon="5.51494">
        <ele>942.42400849534</ele>
        <time>2020-05-28T08:14:57.000Z</time>
      </trkpt>
      <trkpt lat="45.8517" lon="5.51491">
        <ele>943.39206300625</ele>
        <time>2020-05-28T08:15:02.000Z</time>
      </trkpt>
      <trkpt lat="45.85169" lon="5.51489">
        <ele>944.17787096492</ele>
        <time>2020-05-28T08:15:06.000Z</time>
      </trkpt>
      <trkpt lat="45.85168" lon="5.51485">
        <ele>945.00517162187</ele>
        <time>2020-05-28T08:15:10.000Z</time>
      </trkpt>
      <trkpt lat="45.85168" lon="5.51482">
        <ele>945.62564711457</ele>
        <time>2020-05-28T08:15:13.000Z</time>
      </trkpt>
      <trkpt lat="45.85167" lon="5.5148">
        <ele>946.41900032</ele>
        <time>2020-05-28T08:15:19.000Z</time>
      </trkpt>
      <trkpt lat="45.85168" lon="5.51477">
        <ele>947</ele>
        <time>2020-05-28T08:15:31.000Z</time>
      </trkpt>
      <trkpt lat="45.8517" lon="5.51478">
        <ele>947</ele>
        <time>2020-05-28T08:16:57.000Z</time>
      </trkpt>
      <trkpt lat="45.85172" lon="5.51477">
        <ele>947</ele>
        <time>2020-05-28T08:17:00.000Z</time>
      </trkpt>
      <trkpt lat="45.85173" lon="5.51475">
        <ele>947</ele>
        <time>2020-05-28T08:17:02.000Z</time>
      </trkpt>
      <trkpt lat="45.85175" lon="5.51473">
        <ele>947</ele>
        <time>2020-05-28T08:17:04.000Z</time>
      </trkpt>
      <trkpt lat="45.85177" lon="5.51472">
        <ele>946.76199936</ele>
        <time>2020-05-28T08:17:06.000Z</time>
      </trkpt>
      <trkpt lat="45.85179" lon="5.5147">
        <ele>946.36199936</ele>
        <time>2020-05-28T08:17:08.000Z</time>
      </trkpt>
      <trkpt lat="45.8518" lon="5.51467">
        <ele>945.76199936</ele>
        <time>2020-05-28T08:17:11.000Z</time>
      </trkpt>
      <trkpt lat="45.85182" lon="5.51464">
        <ele>945.16199936</ele>
        <time>2020-05-28T08:17:14.000Z</time>
      </trkpt>
      <trkpt lat="45.85184" lon="5.51463">
        <ele>944.68099968</ele>
        <time>2020-05-28T08:17:18.000Z</time>
      </trkpt>
      <trkpt lat="45.85186" lon="5.51463">
        <ele>944.38099968</ele>
        <time>2020-05-28T08:17:21.000Z</time>
      </trkpt>
      <trkpt lat="45.85188" lon="5.51462">
        <ele>944.08099968</ele>
        <time>2020-05-28T08:17:24.000Z</time>
      </trkpt>
      <trkpt lat="45.8519" lon="5.51462">
        <ele>943.76199936</ele>
        <time>2020-05-28T08:17:26.000Z</time>
      </trkpt>
      <trkpt lat="45.85192" lon="5.51461">
        <ele>943.36199936</ele>
        <time>2020-05-28T08:17:28.000Z</time>
      </trkpt>
      <trkpt lat="45.85194" lon="5.51461">
        <ele>942.96199936</ele>
        <time>2020-05-28T08:17:30.000Z</time>
      </trkpt>
      <trkpt lat="45.85196" lon="5.51459">
        <ele>942.36199936</ele>
        <time>2020-05-28T08:17:33.000Z</time>
      </trkpt>
      <trkpt lat="45.85198" lon="5.51458">
        <ele>941.88147378486</ele>
        <time>2020-05-28T08:17:36.000Z</time>
      </trkpt>
      <trkpt lat="45.85199" lon="5.51455">
        <ele>941.58266900398</ele>
        <time>2020-05-28T08:17:39.000Z</time>
      </trkpt>
      <trkpt lat="45.85202" lon="5.51453">
        <ele>941.38346581673</ele>
        <time>2020-05-28T08:17:41.000Z</time>
      </trkpt>
      <trkpt lat="45.85204" lon="5.51452">
        <ele>941.18426262948</ele>
        <time>2020-05-28T08:17:43.000Z</time>
      </trkpt>
      <trkpt lat="45.85206" lon="5.5145">
        <ele>940.98499968</ele>
        <time>2020-05-28T08:17:45.000Z</time>
      </trkpt>
      <trkpt lat="45.85208" lon="5.51448">
        <ele>940.78499968</ele>
        <time>2020-05-28T08:17:47.000Z</time>
      </trkpt>
      <trkpt lat="45.8521" lon="5.51446">
        <ele>940.58499968</ele>
        <time>2020-05-28T08:17:49.000Z</time>
      </trkpt>
      <trkpt lat="45.85212" lon="5.51445">
        <ele>940.48499968</ele>
        <time>2020-05-28T08:17:50.000Z</time>
      </trkpt>
      <trkpt lat="45.85214" lon="5.51443">
        <ele>940.28499968</ele>
        <time>2020-05-28T08:17:52.000Z</time>
      </trkpt>
      <trkpt lat="45.85216" lon="5.5144">
        <ele>940.08499968</ele>
        <time>2020-05-28T08:17:54.000Z</time>
      </trkpt>
      <trkpt lat="45.85217" lon="5.51436">
        <ele>940.11546216867</ele>
        <time>2020-05-28T08:17:56.000Z</time>
      </trkpt>
      <trkpt lat="45.85219" lon="5.51435">
        <ele>940.31626538153</ele>
        <time>2020-05-28T08:17:58.000Z</time>
      </trkpt>
      <trkpt lat="45.85221" lon="5.51433">
        <ele>940.51706859438</ele>
        <time>2020-05-28T08:18:00.000Z</time>
      </trkpt>
      <trkpt lat="45.85224" lon="5.51432">
        <ele>940.81827341365</ele>
        <time>2020-05-28T08:18:03.000Z</time>
      </trkpt>
      <trkpt lat="45.85227" lon="5.51433">
        <ele>941.03800064</ele>
        <time>2020-05-28T08:18:05.000Z</time>
      </trkpt>
      <trkpt lat="45.85228" lon="5.51434">
        <ele>941.43800064</ele>
        <time>2020-05-28T08:18:07.000Z</time>
      </trkpt>
      <trkpt lat="45.85231" lon="5.51434">
        <ele>942.43800064</ele>
        <time>2020-05-28T08:18:12.000Z</time>
      </trkpt>
      <trkpt lat="45.85233" lon="5.51433">
        <ele>942.83800064</ele>
        <time>2020-05-28T08:18:14.000Z</time>
      </trkpt>
      <trkpt lat="45.85235" lon="5.51432">
        <ele>943.11900032</ele>
        <time>2020-05-28T08:18:16.000Z</time>
      </trkpt>
      <trkpt lat="45.85236" lon="5.5143">
        <ele>943.31900032</ele>
        <time>2020-05-28T08:18:18.000Z</time>
      </trkpt>
      <trkpt lat="45.85238" lon="5.51428">
        <ele>943.51900032</ele>
        <time>2020-05-28T08:18:20.000Z</time>
      </trkpt>
      <trkpt lat="45.85239" lon="5.51427">
        <ele>943.71900032</ele>
        <time>2020-05-28T08:18:22.000Z</time>
      </trkpt>
      <trkpt lat="45.85241" lon="5.51425">
        <ele>944.03800064</ele>
        <time>2020-05-28T08:18:25.000Z</time>
      </trkpt>
      <trkpt lat="45.85243" lon="5.51423">
        <ele>944.43800064</ele>
        <time>2020-05-28T08:18:27.000Z</time>
      </trkpt>
      <trkpt lat="45.85244" lon="5.5142">
        <ele>945.03800064</ele>
        <time>2020-05-28T08:18:30.000Z</time>
      </trkpt>
      <trkpt lat="45.85246" lon="5.5142">
        <ele>945.43800064</ele>
        <time>2020-05-28T08:18:32.000Z</time>
      </trkpt>
      <trkpt lat="45.85248" lon="5.51418">
        <ele>946.01900032</ele>
        <time>2020-05-28T08:18:35.000Z</time>
      </trkpt>
      <trkpt lat="45.8525" lon="5.51417">
        <ele>946.31900032</ele>
        <time>2020-05-28T08:18:38.000Z</time>
      </trkpt>
      <trkpt lat="45.85252" lon="5.51415">
        <ele>946.61900032</ele>
        <time>2020-05-28T08:18:41.000Z</time>
      </trkpt>
      <trkpt lat="45.85255" lon="5.51414">
        <ele>946.91900032</ele>
        <time>2020-05-28T08:18:44.000Z</time>
      </trkpt>
      <trkpt lat="45.85257" lon="5.51413">
        <ele>947.43800064</ele>
        <time>2020-05-28T08:18:47.000Z</time>
      </trkpt>
      <trkpt lat="45.85259" lon="5.51411">
        <ele>948.03800064</ele>
        <time>2020-05-28T08:18:50.000Z</time>
      </trkpt>
      <trkpt lat="45.85261" lon="5.5141">
        <ele>948.63800064</ele>
        <time>2020-05-28T08:18:53.000Z</time>
      </trkpt>
      <trkpt lat="45.85263" lon="5.51412">
        <ele>949</ele>
        <time>2020-05-28T08:19:01.000Z</time>
      </trkpt>
      <trkpt lat="45.85265" lon="5.51412">
        <ele>949</ele>
        <time>2020-05-28T08:19:03.000Z</time>
      </trkpt>
      <trkpt lat="45.85267" lon="5.51411">
        <ele>949.09362172839</ele>
        <time>2020-05-28T08:19:06.000Z</time>
      </trkpt>
      <trkpt lat="45.85269" lon="5.51411">
        <ele>949.4022637037</ele>
        <time>2020-05-28T08:19:09.000Z</time>
      </trkpt>
      <trkpt lat="45.85271" lon="5.51411">
        <ele>949.71090567901</ele>
        <time>2020-05-28T08:19:12.000Z</time>
      </trkpt>
      <trkpt lat="45.85274" lon="5.51409">
        <ele>950</ele>
        <time>2020-05-28T08:19:17.000Z</time>
      </trkpt>
      <trkpt lat="45.85276" lon="5.51408">
        <ele>950</ele>
        <time>2020-05-28T08:19:19.000Z</time>
      </trkpt>
      <trkpt lat="45.85278" lon="5.51406">
        <ele>950</ele>
        <time>2020-05-28T08:19:21.000Z</time>
      </trkpt>
      <trkpt lat="45.8528" lon="5.51405">
        <ele>950</ele>
        <time>2020-05-28T08:19:22.000Z</time>
      </trkpt>
      <trkpt lat="45.85283" lon="5.51404">
        <ele>950</ele>
        <time>2020-05-28T08:19:24.000Z</time>
      </trkpt>
      <trkpt lat="45.85285" lon="5.51403">
        <ele>949.90955317073</ele>
        <time>2020-05-28T08:19:26.000Z</time>
      </trkpt>
      <trkpt lat="45.85287" lon="5.51401">
        <ele>949.70630113821</ele>
        <time>2020-05-28T08:19:28.000Z</time>
      </trkpt>
      <trkpt lat="45.8529" lon="5.514">
        <ele>949.40142308943</ele>
        <time>2020-05-28T08:19:31.000Z</time>
      </trkpt>
      <trkpt lat="45.85292" lon="5.51398">
        <ele>949.19817105691</ele>
        <time>2020-05-28T08:19:33.000Z</time>
      </trkpt>
      <trkpt lat="45.85294" lon="5.51397">
        <ele>948.99510315224</ele>
        <time>2020-05-28T08:19:35.000Z</time>
      </trkpt>
      <trkpt lat="45.85296" lon="5.51396">
        <ele>948.79921670495</ele>
        <time>2020-05-28T08:19:37.000Z</time>
      </trkpt>
      <trkpt lat="45.85298" lon="5.51394">
        <ele>948.60333025765</ele>
        <time>2020-05-28T08:19:39.000Z</time>
      </trkpt>
      <trkpt lat="45.853" lon="5.51393">
        <ele>948.40744381036</ele>
        <time>2020-05-28T08:19:41.000Z</time>
      </trkpt>
      <trkpt lat="45.85302" lon="5.51391">
        <ele>948.21155736307</ele>
        <time>2020-05-28T08:19:43.000Z</time>
      </trkpt>
      <trkpt lat="45.85304" lon="5.5139">
        <ele>947.91411048565</ele>
        <time>2020-05-28T08:19:46.000Z</time>
      </trkpt>
      <trkpt lat="45.85307" lon="5.51389">
        <ele>947.60736222013</ele>
        <time>2020-05-28T08:19:49.000Z</time>
      </trkpt>
      <trkpt lat="45.85309" lon="5.51388">
        <ele>947.30061395461</ele>
        <time>2020-05-28T08:19:52.000Z</time>
      </trkpt>
      <trkpt lat="45.85311" lon="5.51386">
        <ele>947.09611511093</ele>
        <time>2020-05-28T08:19:54.000Z</time>
      </trkpt>
      <trkpt lat="45.85313" lon="5.51385">
        <ele>946.89357480299</ele>
        <time>2020-05-28T08:19:56.000Z</time>
      </trkpt>
      <trkpt lat="45.85315" lon="5.51382">
        <ele>946.59236959662</ele>
        <time>2020-05-28T08:19:59.000Z</time>
      </trkpt>
      <trkpt lat="45.85316" lon="5.5138">
        <ele>946.39156612571</ele>
        <time>2020-05-28T08:20:01.000Z</time>
      </trkpt>
      <trkpt lat="45.85318" lon="5.51379">
        <ele>946.09036091934</ele>
        <time>2020-05-28T08:20:04.000Z</time>
      </trkpt>
      <trkpt lat="45.8532" lon="5.51378">
        <ele>946.21190774187</ele>
        <time>2020-05-28T08:20:07.000Z</time>
      </trkpt>
      <trkpt lat="45.85322" lon="5.51376">
        <ele>946.61554030578</ele>
        <time>2020-05-28T08:20:11.000Z</time>
      </trkpt>
      <trkpt lat="45.85325" lon="5.51375">
        <ele>946.91826472871</ele>
        <time>2020-05-28T08:20:14.000Z</time>
      </trkpt>
      <trkpt lat="45.85326" lon="5.51374">
        <ele>947.11900032</ele>
        <time>2020-05-28T08:20:16.000Z</time>
      </trkpt>
      <trkpt lat="45.85329" lon="5.51375">
        <ele>947.31900032</ele>
        <time>2020-05-28T08:20:18.000Z</time>
      </trkpt>
      <trkpt lat="45.85331" lon="5.51375">
        <ele>947.61900032</ele>
        <time>2020-05-28T08:20:21.000Z</time>
      </trkpt>
      <trkpt lat="45.85333" lon="5.51374">
        <ele>947.81900032</ele>
        <time>2020-05-28T08:20:23.000Z</time>
      </trkpt>
      <trkpt lat="45.85335" lon="5.51373">
        <ele>948</ele>
        <time>2020-05-28T08:20:25.000Z</time>
      </trkpt>
      <trkpt lat="45.85338" lon="5.51372">
        <ele>948</ele>
        <time>2020-05-28T08:20:27.000Z</time>
      </trkpt>
      <trkpt lat="45.85341" lon="5.51373">
        <ele>948</ele>
        <time>2020-05-28T08:20:32.000Z</time>
      </trkpt>
      <trkpt lat="45.85343" lon="5.51373">
        <ele>948</ele>
        <time>2020-05-28T08:20:34.000Z</time>
      </trkpt>
      <trkpt lat="45.85346" lon="5.51374">
        <ele>948</ele>
        <time>2020-05-28T08:20:36.000Z</time>
      </trkpt>
      <trkpt lat="45.85348" lon="5.51375">
        <ele>948</ele>
        <time>2020-05-28T08:20:38.000Z</time>
      </trkpt>
      <trkpt lat="45.8535" lon="5.51374">
        <ele>948</ele>
        <time>2020-05-28T08:20:40.000Z</time>
      </trkpt>
      <trkpt lat="45.85352" lon="5.51373">
        <ele>948</ele>
        <time>2020-05-28T08:20:42.000Z</time>
      </trkpt>
      <trkpt lat="45.85355" lon="5.51374">
        <ele>948</ele>
        <time>2020-05-28T08:20:45.000Z</time>
      </trkpt>
      <trkpt lat="45.85357" lon="5.51374">
        <ele>948</ele>
        <time>2020-05-28T08:20:47.000Z</time>
      </trkpt>
      <trkpt lat="45.85359" lon="5.51373">
        <ele>948</ele>
        <time>2020-05-28T08:20:52.000Z</time>
      </trkpt>
      <trkpt lat="45.85361" lon="5.51371">
        <ele>947.98902164374</ele>
        <time>2020-05-28T08:20:55.000Z</time>
      </trkpt>
      <trkpt lat="45.85362" lon="5.5137">
        <ele>947.78942097283</ele>
        <time>2020-05-28T08:20:57.000Z</time>
      </trkpt>
      <trkpt lat="45.85364" lon="5.51368">
        <ele>947.58982030191</ele>
        <time>2020-05-28T08:20:59.000Z</time>
      </trkpt>
      <trkpt lat="45.85365" lon="5.51366">
        <ele>947.390219631</ele>
        <time>2020-05-28T08:21:01.000Z</time>
      </trkpt>
      <trkpt lat="45.85367" lon="5.51364">
        <ele>947.09081862463</ele>
        <time>2020-05-28T08:21:04.000Z</time>
      </trkpt>
      <trkpt lat="45.85369" lon="5.51363">
        <ele>947.22020151609</ele>
        <time>2020-05-28T08:21:06.000Z</time>
      </trkpt>
      <trkpt lat="45.85371" lon="5.51363">
        <ele>947.62424218133</ele>
        <time>2020-05-28T08:21:08.000Z</time>
      </trkpt>
      <trkpt lat="45.85373" lon="5.51362">
        <ele>948.02828284657</ele>
        <time>2020-05-28T08:21:10.000Z</time>
      </trkpt>
      <trkpt lat="45.85375" lon="5.5136">
        <ele>948.4323235118</ele>
        <time>2020-05-28T08:21:12.000Z</time>
      </trkpt>
      <trkpt lat="45.85377" lon="5.51358">
        <ele>948.83636417704</ele>
        <time>2020-05-28T08:21:14.000Z</time>
      </trkpt>
      <trkpt lat="45.85379" lon="5.51356">
        <ele>949</ele>
        <time>2020-05-28T08:21:17.000Z</time>
      </trkpt>
      <trkpt lat="45.85381" lon="5.51354">
        <ele>949</ele>
        <time>2020-05-28T08:21:19.000Z</time>
      </trkpt>
      <trkpt lat="45.85383" lon="5.51352">
        <ele>949</ele>
        <time>2020-05-28T08:21:22.000Z</time>
      </trkpt>
      <trkpt lat="45.85385" lon="5.5135">
        <ele>949</ele>
        <time>2020-05-28T08:21:27.000Z</time>
      </trkpt>
      <trkpt lat="45.85387" lon="5.51349">
        <ele>949</ele>
        <time>2020-05-28T08:21:29.000Z</time>
      </trkpt>
      <trkpt lat="45.85389" lon="5.51348">
        <ele>949</ele>
        <time>2020-05-28T08:21:34.000Z</time>
      </trkpt>
      <trkpt lat="45.85391" lon="5.51346">
        <ele>949.21821878896</ele>
        <time>2020-05-28T08:21:37.000Z</time>
      </trkpt>
      <trkpt lat="45.85394" lon="5.51347">
        <ele>949.51851899307</ele>
        <time>2020-05-28T08:21:40.000Z</time>
      </trkpt>
      <trkpt lat="45.85397" lon="5.51348">
        <ele>949.71871912914</ele>
        <time>2020-05-28T08:21:42.000Z</time>
      </trkpt>
      <trkpt lat="45.854" lon="5.51348">
        <ele>949.91891926521</ele>
        <time>2020-05-28T08:21:44.000Z</time>
      </trkpt>
      <trkpt lat="45.85402" lon="5.51347">
        <ele>950</ele>
        <time>2020-05-28T08:21:46.000Z</time>
      </trkpt>
      <trkpt lat="45.85404" lon="5.51345">
        <ele>950</ele>
        <time>2020-05-28T08:21:48.000Z</time>
      </trkpt>
      <trkpt lat="45.85405" lon="5.51344">
        <ele>950</ele>
        <time>2020-05-28T08:21:50.000Z</time>
      </trkpt>
      <trkpt lat="45.85407" lon="5.51342">
        <ele>950</ele>
        <time>2020-05-28T08:21:52.000Z</time>
      </trkpt>
      <trkpt lat="45.85409" lon="5.5134">
        <ele>950</ele>
        <time>2020-05-28T08:21:54.000Z</time>
      </trkpt>
      <trkpt lat="45.85411" lon="5.51339">
        <ele>950.22914466329</ele>
        <time>2020-05-28T08:21:56.000Z</time>
      </trkpt>
      <trkpt lat="45.85413" lon="5.51339">
        <ele>950.83216032048</ele>
        <time>2020-05-28T08:21:59.000Z</time>
      </trkpt>
      <trkpt lat="45.85415" lon="5.51339">
        <ele>951.2341707586</ele>
        <time>2020-05-28T08:22:01.000Z</time>
      </trkpt>
      <trkpt lat="45.85417" lon="5.51339">
        <ele>951.63618119672</ele>
        <time>2020-05-28T08:22:03.000Z</time>
      </trkpt>
      <trkpt lat="45.85419" lon="5.51338">
        <ele>952.21282810076</ele>
        <time>2020-05-28T08:22:07.000Z</time>
      </trkpt>
      <trkpt lat="45.85421" lon="5.51338">
        <ele>952.4071913791</ele>
        <time>2020-05-28T08:22:09.000Z</time>
      </trkpt>
      <trkpt lat="45.85424" lon="5.51337">
        <ele>952.60155465744</ele>
        <time>2020-05-28T08:22:11.000Z</time>
      </trkpt>
      <trkpt lat="45.85426" lon="5.51336">
        <ele>952.79591793578</ele>
        <time>2020-05-28T08:22:13.000Z</time>
      </trkpt>
      <trkpt lat="45.85428" lon="5.51333">
        <ele>952.99028121412</ele>
        <time>2020-05-28T08:22:15.000Z</time>
      </trkpt>
      <trkpt lat="45.85429" lon="5.51331">
        <ele>953</ele>
        <time>2020-05-28T08:22:17.000Z</time>
      </trkpt>
      <trkpt lat="45.85431" lon="5.51329">
        <ele>953</ele>
        <time>2020-05-28T08:22:19.000Z</time>
      </trkpt>
      <trkpt lat="45.85433" lon="5.51327">
        <ele>953</ele>
        <time>2020-05-28T08:22:21.000Z</time>
      </trkpt>
      <trkpt lat="45.85435" lon="5.51326">
        <ele>953</ele>
        <time>2020-05-28T08:22:23.000Z</time>
      </trkpt>
      <trkpt lat="45.85436" lon="5.51324">
        <ele>953.01846482242</ele>
        <time>2020-05-28T08:22:25.000Z</time>
      </trkpt>
      <trkpt lat="45.85439" lon="5.51323">
        <ele>953.21282810076</ele>
        <time>2020-05-28T08:22:27.000Z</time>
      </trkpt>
      <trkpt lat="45.85441" lon="5.51322">
        <ele>953.4071913791</ele>
        <time>2020-05-28T08:22:29.000Z</time>
      </trkpt>
      <trkpt lat="45.85443" lon="5.51321">
        <ele>953.60155465744</ele>
        <time>2020-05-28T08:22:31.000Z</time>
      </trkpt>
      <trkpt lat="45.85446" lon="5.5132">
        <ele>953.89309957495</ele>
        <time>2020-05-28T08:22:34.000Z</time>
      </trkpt>
      <trkpt lat="45.85447" lon="5.51321">
        <ele>954.09146276423</ele>
        <time>2020-05-28T08:22:36.000Z</time>
      </trkpt>
      <trkpt lat="45.85449" lon="5.51321">
        <ele>954.29471479675</ele>
        <time>2020-05-28T08:22:38.000Z</time>
      </trkpt>
      <trkpt lat="45.85452" lon="5.5132">
        <ele>954.49796682927</ele>
        <time>2020-05-28T08:22:40.000Z</time>
      </trkpt>
      <trkpt lat="45.85454" lon="5.5132">
        <ele>954.80284487805</ele>
        <time>2020-05-28T08:22:43.000Z</time>
      </trkpt>
      <trkpt lat="45.85457" lon="5.5132">
        <ele>955.10631834907</ele>
        <time>2020-05-28T08:22:46.000Z</time>
      </trkpt>
      <trkpt lat="45.85459" lon="5.51318">
        <ele>955.30692021887</ele>
        <time>2020-05-28T08:22:48.000Z</time>
      </trkpt>
      <trkpt lat="45.85461" lon="5.51317">
        <ele>955.50752208867</ele>
        <time>2020-05-28T08:22:50.000Z</time>
      </trkpt>
      <trkpt lat="45.85463" lon="5.51316">
        <ele>955.70812395847</ele>
        <time>2020-05-28T08:22:52.000Z</time>
      </trkpt>
      <trkpt lat="45.85465" lon="5.51314">
        <ele>955.90872582828</ele>
        <time>2020-05-28T08:22:54.000Z</time>
      </trkpt>
      <trkpt lat="45.85467" lon="5.51312">
        <ele>956.21111092436</ele>
        <time>2020-05-28T08:22:57.000Z</time>
      </trkpt>
      <trkpt lat="45.85469" lon="5.51311">
        <ele>956.41313125697</ele>
        <time>2020-05-28T08:22:59.000Z</time>
      </trkpt>
      <trkpt lat="45.85471" lon="5.51309">
        <ele>956.61515158959</ele>
        <time>2020-05-28T08:23:01.000Z</time>
      </trkpt>
      <trkpt lat="45.85473" lon="5.51308">
        <ele>956.81717192221</ele>
        <time>2020-05-28T08:23:03.000Z</time>
      </trkpt>
      <trkpt lat="45.85475" lon="5.51306">
        <ele>957</ele>
        <time>2020-05-28T08:23:06.000Z</time>
      </trkpt>
      <trkpt lat="45.85477" lon="5.51304">
        <ele>957</ele>
        <time>2020-05-28T08:23:09.000Z</time>
      </trkpt>
      <trkpt lat="45.8548" lon="5.51303">
        <ele>957</ele>
        <time>2020-05-28T08:23:17.000Z</time>
      </trkpt>
      <trkpt lat="45.85483" lon="5.51301">
        <ele>957</ele>
        <time>2020-05-28T08:23:19.000Z</time>
      </trkpt>
      <trkpt lat="45.85484" lon="5.513">
        <ele>957</ele>
        <time>2020-05-28T08:23:21.000Z</time>
      </trkpt>
      <trkpt lat="45.85486" lon="5.51299">
        <ele>957</ele>
        <time>2020-05-28T08:23:23.000Z</time>
      </trkpt>
      <trkpt lat="45.85488" lon="5.51297">
        <ele>957.01900032</ele>
        <time>2020-05-28T08:23:25.000Z</time>
      </trkpt>
      <trkpt lat="45.8549" lon="5.51296">
        <ele>957.21900032</ele>
        <time>2020-05-28T08:23:27.000Z</time>
      </trkpt>
      <trkpt lat="45.85492" lon="5.51293">
        <ele>957.41900032</ele>
        <time>2020-05-28T08:23:29.000Z</time>
      </trkpt>
      <trkpt lat="45.85495" lon="5.51291">
        <ele>957.61900032</ele>
        <time>2020-05-28T08:23:31.000Z</time>
      </trkpt>
      <trkpt lat="45.85497" lon="5.51289">
        <ele>957.81900032</ele>
        <time>2020-05-28T08:23:33.000Z</time>
      </trkpt>
      <trkpt lat="45.855" lon="5.51288">
        <ele>958</ele>
        <time>2020-05-28T08:23:35.000Z</time>
      </trkpt>
      <trkpt lat="45.85502" lon="5.51286">
        <ele>958</ele>
        <time>2020-05-28T08:23:37.000Z</time>
      </trkpt>
      <trkpt lat="45.85504" lon="5.51284">
        <ele>958</ele>
        <time>2020-05-28T08:23:39.000Z</time>
      </trkpt>
      <trkpt lat="45.85506" lon="5.51281">
        <ele>958</ele>
        <time>2020-05-28T08:23:41.000Z</time>
      </trkpt>
      <trkpt lat="45.85508" lon="5.5128">
        <ele>958</ele>
        <time>2020-05-28T08:23:43.000Z</time>
      </trkpt>
      <trkpt lat="45.8551" lon="5.51279">
        <ele>958</ele>
        <time>2020-05-28T08:23:45.000Z</time>
      </trkpt>
      <trkpt lat="45.85512" lon="5.51277">
        <ele>958</ele>
        <time>2020-05-28T08:23:47.000Z</time>
      </trkpt>
      <trkpt lat="45.85514" lon="5.51276">
        <ele>958</ele>
        <time>2020-05-28T08:23:50.000Z</time>
      </trkpt>
      <trkpt lat="45.85516" lon="5.51275">
        <ele>958</ele>
        <time>2020-05-28T08:23:52.000Z</time>
      </trkpt>
      <trkpt lat="45.85519" lon="5.51274">
        <ele>958</ele>
        <time>2020-05-28T08:23:54.000Z</time>
      </trkpt>
      <trkpt lat="45.85522" lon="5.51275">
        <ele>958</ele>
        <time>2020-05-28T08:23:57.000Z</time>
      </trkpt>
      <trkpt lat="45.85525" lon="5.51276">
        <ele>958</ele>
        <time>2020-05-28T08:23:59.000Z</time>
      </trkpt>
      <trkpt lat="45.85527" lon="5.51277">
        <ele>958</ele>
        <time>2020-05-28T08:24:01.000Z</time>
      </trkpt>
      <trkpt lat="45.85528" lon="5.51279">
        <ele>958</ele>
        <time>2020-05-28T08:24:07.000Z</time>
      </trkpt>
      <trkpt lat="45.85529" lon="5.51281">
        <ele>958</ele>
        <time>2020-05-28T08:24:16.000Z</time>
      </trkpt>
      <trkpt lat="45.85532" lon="5.51281">
        <ele>958</ele>
        <time>2020-05-28T08:24:18.000Z</time>
      </trkpt>
      <trkpt lat="45.85534" lon="5.51281">
        <ele>958</ele>
        <time>2020-05-28T08:24:20.000Z</time>
      </trkpt>
      <trkpt lat="45.85536" lon="5.51281">
        <ele>958</ele>
        <time>2020-05-28T08:24:22.000Z</time>
      </trkpt>
      <trkpt lat="45.85539" lon="5.51281">
        <ele>958</ele>
        <time>2020-05-28T08:24:24.000Z</time>
      </trkpt>
      <trkpt lat="45.85541" lon="5.5128">
        <ele>958</ele>
        <time>2020-05-28T08:24:26.000Z</time>
      </trkpt>
      <trkpt lat="45.85542" lon="5.51278">
        <ele>958</ele>
        <time>2020-05-28T08:24:28.000Z</time>
      </trkpt>
      <trkpt lat="45.85543" lon="5.51276">
        <ele>958</ele>
        <time>2020-05-28T08:24:30.000Z</time>
      </trkpt>
      <trkpt lat="45.85545" lon="5.51274">
        <ele>958</ele>
        <time>2020-05-28T08:24:33.000Z</time>
      </trkpt>
      <trkpt lat="45.85548" lon="5.51273">
        <ele>958</ele>
        <time>2020-05-28T08:24:35.000Z</time>
      </trkpt>
      <trkpt lat="45.85551" lon="5.51272">
        <ele>958</ele>
        <time>2020-05-28T08:24:37.000Z</time>
      </trkpt>
      <trkpt lat="45.85553" lon="5.51271">
        <ele>958</ele>
        <time>2020-05-28T08:24:39.000Z</time>
      </trkpt>
      <trkpt lat="45.85556" lon="5.5127">
        <ele>958</ele>
        <time>2020-05-28T08:24:41.000Z</time>
      </trkpt>
      <trkpt lat="45.85558" lon="5.51268">
        <ele>958</ele>
        <time>2020-05-28T08:24:43.000Z</time>
      </trkpt>
      <trkpt lat="45.8556" lon="5.51267">
        <ele>957.98099968</ele>
        <time>2020-05-28T08:24:45.000Z</time>
      </trkpt>
      <trkpt lat="45.85562" lon="5.51266">
        <ele>957.78099968</ele>
        <time>2020-05-28T08:24:47.000Z</time>
      </trkpt>
      <trkpt lat="45.85564" lon="5.51264">
        <ele>957.58099968</ele>
        <time>2020-05-28T08:24:49.000Z</time>
      </trkpt>
      <trkpt lat="45.85566" lon="5.51262">
        <ele>957.38099968</ele>
        <time>2020-05-28T08:24:51.000Z</time>
      </trkpt>
      <trkpt lat="45.85568" lon="5.5126">
        <ele>957.08099968</ele>
        <time>2020-05-28T08:24:54.000Z</time>
      </trkpt>
      <trkpt lat="45.8557" lon="5.51259">
        <ele>956.76247456289</ele>
        <time>2020-05-28T08:24:56.000Z</time>
      </trkpt>
      <trkpt lat="45.85573" lon="5.51259">
        <ele>956.36327322106</ele>
        <time>2020-05-28T08:24:58.000Z</time>
      </trkpt>
      <trkpt lat="45.85575" lon="5.51259">
        <ele>955.76447120832</ele>
        <time>2020-05-28T08:25:01.000Z</time>
      </trkpt>
      <trkpt lat="45.85577" lon="5.51259">
        <ele>955.36526986649</ele>
        <time>2020-05-28T08:25:03.000Z</time>
      </trkpt>
      <trkpt lat="45.8558" lon="5.51259">
        <ele>955</ele>
        <time>2020-05-28T08:25:05.000Z</time>
      </trkpt>
      <trkpt lat="45.85583" lon="5.51258">
        <ele>955</ele>
        <time>2020-05-28T08:25:07.000Z</time>
      </trkpt>
      <trkpt lat="45.85585" lon="5.51258">
        <ele>955</ele>
        <time>2020-05-28T08:25:09.000Z</time>
      </trkpt>
      <trkpt lat="45.85587" lon="5.51256">
        <ele>955</ele>
        <time>2020-05-28T08:25:11.000Z</time>
      </trkpt>
      <trkpt lat="45.85589" lon="5.51254">
        <ele>955</ele>
        <time>2020-05-28T08:25:14.000Z</time>
      </trkpt>
      <trkpt lat="45.85591" lon="5.51252">
        <ele>954.77539</ele>
        <time>2020-05-28T08:25:16.000Z</time>
      </trkpt>
      <trkpt lat="45.85592" lon="5.5125">
        <ele>954.384765</ele>
        <time>2020-05-28T08:25:18.000Z</time>
      </trkpt>
      <trkpt lat="45.85595" lon="5.51248">
        <ele>953.99414</ele>
        <time>2020-05-28T08:25:20.000Z</time>
      </trkpt>
      <trkpt lat="45.85597" lon="5.51246">
        <ele>953.603515</ele>
        <time>2020-05-28T08:25:22.000Z</time>
      </trkpt>
      <trkpt lat="45.856" lon="5.51245">
        <ele>953.21289</ele>
        <time>2020-05-28T08:25:24.000Z</time>
      </trkpt>
      <trkpt lat="45.85602" lon="5.51244">
        <ele>953</ele>
        <time>2020-05-28T08:25:26.000Z</time>
      </trkpt>
      <trkpt lat="45.85604" lon="5.51242">
        <ele>953</ele>
        <time>2020-05-28T08:25:28.000Z</time>
      </trkpt>
      <trkpt lat="45.85606" lon="5.51241">
        <ele>953</ele>
        <time>2020-05-28T08:25:30.000Z</time>
      </trkpt>
      <trkpt lat="45.85609" lon="5.5124">
        <ele>953</ele>
        <time>2020-05-28T08:25:34.000Z</time>
      </trkpt>
      <trkpt lat="45.85611" lon="5.51239">
        <ele>953</ele>
        <time>2020-05-28T08:25:36.000Z</time>
      </trkpt>
      <trkpt lat="45.85613" lon="5.51239">
        <ele>953</ele>
        <time>2020-05-28T08:25:38.000Z</time>
      </trkpt>
      <trkpt lat="45.85616" lon="5.51237">
        <ele>953</ele>
        <time>2020-05-28T08:25:40.000Z</time>
      </trkpt>
      <trkpt lat="45.85618" lon="5.51236">
        <ele>953</ele>
        <time>2020-05-28T08:25:42.000Z</time>
      </trkpt>
      <trkpt lat="45.85621" lon="5.51234">
        <ele>953</ele>
        <time>2020-05-28T08:25:44.000Z</time>
      </trkpt>
      <trkpt lat="45.85623" lon="5.51232">
        <ele>952.92058513541</ele>
        <time>2020-05-28T08:25:46.000Z</time>
      </trkpt>
      <trkpt lat="45.85625" lon="5.5123">
        <ele>952.71159864965</ele>
        <time>2020-05-28T08:25:48.000Z</time>
      </trkpt>
      <trkpt lat="45.85626" lon="5.51228">
        <ele>952.50261216388</ele>
        <time>2020-05-28T08:25:50.000Z</time>
      </trkpt>
      <trkpt lat="45.85628" lon="5.51226">
        <ele>952.29362567812</ele>
        <time>2020-05-28T08:25:52.000Z</time>
      </trkpt>
      <trkpt lat="45.8563" lon="5.51224">
        <ele>952.01859129951</ele>
        <time>2020-05-28T08:25:55.000Z</time>
      </trkpt>
      <trkpt lat="45.85632" lon="5.51223">
        <ele>952.21428589321</ele>
        <time>2020-05-28T08:25:57.000Z</time>
      </trkpt>
      <trkpt lat="45.85635" lon="5.51222">
        <ele>952.4099804869</ele>
        <time>2020-05-28T08:25:59.000Z</time>
      </trkpt>
      <trkpt lat="45.85637" lon="5.51221">
        <ele>952.6056750806</ele>
        <time>2020-05-28T08:26:01.000Z</time>
      </trkpt>
      <trkpt lat="45.85639" lon="5.5122">
        <ele>952.80136967429</ele>
        <time>2020-05-28T08:26:03.000Z</time>
      </trkpt>
      <trkpt lat="45.85641" lon="5.51218">
        <ele>953</ele>
        <time>2020-05-28T08:26:06.000Z</time>
      </trkpt>
      <trkpt lat="45.85644" lon="5.51217">
        <ele>953</ele>
        <time>2020-05-28T08:26:09.000Z</time>
      </trkpt>
      <trkpt lat="45.8565" lon="5.51215">
        <ele>952.78691762593</ele>
        <time>2020-05-28T08:26:17.000Z</time>
      </trkpt>
      <trkpt lat="45.85658" lon="5.51211">
        <ele>952.29137795865</ele>
        <time>2020-05-28T08:26:22.000Z</time>
      </trkpt>
      <trkpt lat="45.8566" lon="5.5121">
        <ele>952.19227002519</ele>
        <time>2020-05-28T08:26:23.000Z</time>
      </trkpt>
      <trkpt lat="45.85662" lon="5.51209">
        <ele>951.99392161516</ele>
        <time>2020-05-28T08:26:25.000Z</time>
      </trkpt>
      <trkpt lat="45.85665" lon="5.51208">
        <ele>951.68996995174</ele>
        <time>2020-05-28T08:26:28.000Z</time>
      </trkpt>
      <trkpt lat="45.85668" lon="5.51208">
        <ele>951.48733550946</ele>
        <time>2020-05-28T08:26:30.000Z</time>
      </trkpt>
      <trkpt lat="45.85671" lon="5.51206">
        <ele>951.28470106719</ele>
        <time>2020-05-28T08:26:32.000Z</time>
      </trkpt>
      <trkpt lat="45.85674" lon="5.51205">
        <ele>951.08206662491</ele>
        <time>2020-05-28T08:26:34.000Z</time>
      </trkpt>
      <trkpt lat="45.85676" lon="5.51204">
        <ele>950.88099968</ele>
        <time>2020-05-28T08:26:36.000Z</time>
      </trkpt>
      <trkpt lat="45.85678" lon="5.51202">
        <ele>950.68099968</ele>
        <time>2020-05-28T08:26:38.000Z</time>
      </trkpt>
      <trkpt lat="45.85681" lon="5.512">
        <ele>950.48099968</ele>
        <time>2020-05-28T08:26:40.000Z</time>
      </trkpt>
      <trkpt lat="45.85683" lon="5.51198">
        <ele>950.28099968</ele>
        <time>2020-05-28T08:26:42.000Z</time>
      </trkpt>
      <trkpt lat="45.85685" lon="5.51197">
        <ele>950.08099968</ele>
        <time>2020-05-28T08:26:44.000Z</time>
      </trkpt>
      <trkpt lat="45.85694" lon="5.51192">
        <ele>950</ele>
        <time>2020-05-28T08:26:51.000Z</time>
      </trkpt>
      <trkpt lat="45.85702" lon="5.51186">
        <ele>949.78099968</ele>
        <time>2020-05-28T08:26:57.000Z</time>
      </trkpt>
      <trkpt lat="45.85705" lon="5.51184">
        <ele>949.58099968</ele>
        <time>2020-05-28T08:26:59.000Z</time>
      </trkpt>
      <trkpt lat="45.85707" lon="5.51182">
        <ele>949.38099968</ele>
        <time>2020-05-28T08:27:01.000Z</time>
      </trkpt>
      <trkpt lat="45.85709" lon="5.5118">
        <ele>949.18099968</ele>
        <time>2020-05-28T08:27:03.000Z</time>
      </trkpt>
      <trkpt lat="45.85712" lon="5.51179">
        <ele>949</ele>
        <time>2020-05-28T08:27:05.000Z</time>
      </trkpt>
      <trkpt lat="45.85713" lon="5.51177">
        <ele>949</ele>
        <time>2020-05-28T08:27:07.000Z</time>
      </trkpt>
      <trkpt lat="45.85715" lon="5.51176">
        <ele>949</ele>
        <time>2020-05-28T08:27:09.000Z</time>
      </trkpt>
      <trkpt lat="45.85717" lon="5.51175">
        <ele>949</ele>
        <time>2020-05-28T08:27:11.000Z</time>
      </trkpt>
      <trkpt lat="45.85718" lon="5.51173">
        <ele>949</ele>
        <time>2020-05-28T08:27:13.000Z</time>
      </trkpt>
      <trkpt lat="45.85721" lon="5.51172">
        <ele>948.98409541732</ele>
        <time>2020-05-28T08:27:15.000Z</time>
      </trkpt>
      <trkpt lat="45.85723" lon="5.5117">
        <ele>948.78528813378</ele>
        <time>2020-05-28T08:27:17.000Z</time>
      </trkpt>
      <trkpt lat="45.85725" lon="5.51168">
        <ele>948.58648085025</ele>
        <time>2020-05-28T08:27:19.000Z</time>
      </trkpt>
      <trkpt lat="45.85727" lon="5.51167">
        <ele>948.38767356671</ele>
        <time>2020-05-28T08:27:21.000Z</time>
      </trkpt>
      <trkpt lat="45.85729" lon="5.51165">
        <ele>948.08946264141</ele>
        <time>2020-05-28T08:27:24.000Z</time>
      </trkpt>
      <trkpt lat="45.85731" lon="5.51164">
        <ele>947.88900039911</ele>
        <time>2020-05-28T08:27:26.000Z</time>
      </trkpt>
      <trkpt lat="45.85734" lon="5.51163">
        <ele>947.68718411715</ele>
        <time>2020-05-28T08:27:28.000Z</time>
      </trkpt>
      <trkpt lat="45.85736" lon="5.51163">
        <ele>947.4853678352</ele>
        <time>2020-05-28T08:27:30.000Z</time>
      </trkpt>
      <trkpt lat="45.85739" lon="5.51163">
        <ele>947.18264341226</ele>
        <time>2020-05-28T08:27:33.000Z</time>
      </trkpt>
      <trkpt lat="45.85741" lon="5.51162">
        <ele>946.98099968</ele>
        <time>2020-05-28T08:27:35.000Z</time>
      </trkpt>
      <trkpt lat="45.85743" lon="5.51161">
        <ele>946.48099968</ele>
        <time>2020-05-28T08:27:40.000Z</time>
      </trkpt>
      <trkpt lat="45.85746" lon="5.5116">
        <ele>946.28099968</ele>
        <time>2020-05-28T08:27:42.000Z</time>
      </trkpt>
      <trkpt lat="45.85749" lon="5.51158">
        <ele>946.08099968</ele>
        <time>2020-05-28T08:27:44.000Z</time>
      </trkpt>
      <trkpt lat="45.85751" lon="5.51157">
        <ele>946</ele>
        <time>2020-05-28T08:27:45.000Z</time>
      </trkpt>
      <trkpt lat="45.85753" lon="5.51156">
        <ele>946</ele>
        <time>2020-05-28T08:27:47.000Z</time>
      </trkpt>
      <trkpt lat="45.85755" lon="5.51154">
        <ele>946</ele>
        <time>2020-05-28T08:27:49.000Z</time>
      </trkpt>
      <trkpt lat="45.85758" lon="5.51152">
        <ele>946</ele>
        <time>2020-05-28T08:27:51.000Z</time>
      </trkpt>
      <trkpt lat="45.85761" lon="5.51151">
        <ele>946</ele>
        <time>2020-05-28T08:27:53.000Z</time>
      </trkpt>
      <trkpt lat="45.85763" lon="5.51149">
        <ele>945.96199936</ele>
        <time>2020-05-28T08:27:55.000Z</time>
      </trkpt>
      <trkpt lat="45.85767" lon="5.51149">
        <ele>945.56199936</ele>
        <time>2020-05-28T08:27:57.000Z</time>
      </trkpt>
      <trkpt lat="45.85771" lon="5.51147">
        <ele>944.96199936</ele>
        <time>2020-05-28T08:28:00.000Z</time>
      </trkpt>
      <trkpt lat="45.85773" lon="5.51145">
        <ele>944.56199936</ele>
        <time>2020-05-28T08:28:02.000Z</time>
      </trkpt>
      <trkpt lat="45.85777" lon="5.51142">
        <ele>943.88099968</ele>
        <time>2020-05-28T08:28:06.000Z</time>
      </trkpt>
      <trkpt lat="45.8578" lon="5.51139">
        <ele>943.68099968</ele>
        <time>2020-05-28T08:28:08.000Z</time>
      </trkpt>
      <trkpt lat="45.85784" lon="5.51138">
        <ele>943.28099968</ele>
        <time>2020-05-28T08:28:12.000Z</time>
      </trkpt>
      <trkpt lat="45.85788" lon="5.51136">
        <ele>942.96199936</ele>
        <time>2020-05-28T08:28:15.000Z</time>
      </trkpt>
      <trkpt lat="45.8579" lon="5.51136">
        <ele>942.56199936</ele>
        <time>2020-05-28T08:28:17.000Z</time>
      </trkpt>
      <trkpt lat="45.85794" lon="5.51134">
        <ele>941.76199936</ele>
        <time>2020-05-28T08:28:21.000Z</time>
      </trkpt>
      <trkpt lat="45.85797" lon="5.51134">
        <ele>941.16199936</ele>
        <time>2020-05-28T08:28:24.000Z</time>
      </trkpt>
      <trkpt lat="45.85806" lon="5.51137">
        <ele>940.20253158246</ele>
        <time>2020-05-28T08:28:33.000Z</time>
      </trkpt>
      <trkpt lat="45.85815" lon="5.51136">
        <ele>940</ele>
        <time>2020-05-28T08:28:40.000Z</time>
      </trkpt>
      <trkpt lat="45.85822" lon="5.51129">
        <ele>939.96317767442</ele>
        <time>2020-05-28T08:28:45.000Z</time>
      </trkpt>
      <trkpt lat="45.85823" lon="5.51126">
        <ele>939.57558077519</ele>
        <time>2020-05-28T08:28:47.000Z</time>
      </trkpt>
      <trkpt lat="45.85825" lon="5.51124">
        <ele>939.18798387597</ele>
        <time>2020-05-28T08:28:49.000Z</time>
      </trkpt>
      <trkpt lat="45.85827" lon="5.51123">
        <ele>938.80038697674</ele>
        <time>2020-05-28T08:28:51.000Z</time>
      </trkpt>
      <trkpt lat="45.8583" lon="5.51123">
        <ele>938.41279007752</ele>
        <time>2020-05-28T08:28:53.000Z</time>
      </trkpt>
      <trkpt lat="45.85833" lon="5.51121">
        <ele>937.73037090909</ele>
        <time>2020-05-28T08:28:56.000Z</time>
      </trkpt>
      <trkpt lat="45.85835" lon="5.51119">
        <ele>937.11053619835</ele>
        <time>2020-05-28T08:28:58.000Z</time>
      </trkpt>
      <trkpt lat="45.85836" lon="5.51116">
        <ele>936.18078413223</ele>
        <time>2020-05-28T08:29:01.000Z</time>
      </trkpt>
      <trkpt lat="45.85839" lon="5.51114">
        <ele>935.56094942149</ele>
        <time>2020-05-28T08:29:03.000Z</time>
      </trkpt>
      <trkpt lat="45.8584" lon="5.51112">
        <ele>935.25103206612</ele>
        <time>2020-05-28T08:29:04.000Z</time>
      </trkpt>
      <trkpt lat="45.85841" lon="5.5111">
        <ele>934.98099968</ele>
        <time>2020-05-28T08:29:05.000Z</time>
      </trkpt>
      <trkpt lat="45.85843" lon="5.51107">
        <ele>934.78099968</ele>
        <time>2020-05-28T08:29:07.000Z</time>
      </trkpt>
      <trkpt lat="45.85845" lon="5.51105">
        <ele>934.58099968</ele>
        <time>2020-05-28T08:29:09.000Z</time>
      </trkpt>
      <trkpt lat="45.85847" lon="5.51103">
        <ele>934.38099968</ele>
        <time>2020-05-28T08:29:11.000Z</time>
      </trkpt>
      <trkpt lat="45.85849" lon="5.51102">
        <ele>934.18099968</ele>
        <time>2020-05-28T08:29:13.000Z</time>
      </trkpt>
      <trkpt lat="45.85851" lon="5.511">
        <ele>933.98099968</ele>
        <time>2020-05-28T08:29:15.000Z</time>
      </trkpt>
      <trkpt lat="45.85853" lon="5.51099">
        <ele>933.88099968</ele>
        <time>2020-05-28T08:29:16.000Z</time>
      </trkpt>
      <trkpt lat="45.85855" lon="5.51099">
        <ele>933.78099968</ele>
        <time>2020-05-28T08:29:17.000Z</time>
      </trkpt>
      <trkpt lat="45.85858" lon="5.51099">
        <ele>933.58099968</ele>
        <time>2020-05-28T08:29:19.000Z</time>
      </trkpt>
      <trkpt lat="45.8586" lon="5.51098">
        <ele>933.38099968</ele>
        <time>2020-05-28T08:29:21.000Z</time>
      </trkpt>
      <trkpt lat="45.85863" lon="5.51097">
        <ele>933.18099968</ele>
        <time>2020-05-28T08:29:23.000Z</time>
      </trkpt>
      <trkpt lat="45.85865" lon="5.51096">
        <ele>932.98151719844</ele>
        <time>2020-05-28T08:29:25.000Z</time>
      </trkpt>
      <trkpt lat="45.85872" lon="5.51096">
        <ele>932.3978596109</ele>
        <time>2020-05-28T08:29:31.000Z</time>
      </trkpt>
      <trkpt lat="45.85874" lon="5.51095">
        <ele>932.20330708171</ele>
        <time>2020-05-28T08:29:33.000Z</time>
      </trkpt>
      <trkpt lat="45.85876" lon="5.51096">
        <ele>932.10603081712</ele>
        <time>2020-05-28T08:29:34.000Z</time>
      </trkpt>
      <trkpt lat="45.85878" lon="5.51096">
        <ele>931.90637827161</ele>
        <time>2020-05-28T08:29:36.000Z</time>
      </trkpt>
      <trkpt lat="45.85881" lon="5.51097">
        <ele>931.70061695473</ele>
        <time>2020-05-28T08:29:38.000Z</time>
      </trkpt>
      <trkpt lat="45.85883" lon="5.51097">
        <ele>931.49485563786</ele>
        <time>2020-05-28T08:29:40.000Z</time>
      </trkpt>
      <trkpt lat="45.85885" lon="5.51096">
        <ele>931.28909432099</ele>
        <time>2020-05-28T08:29:42.000Z</time>
      </trkpt>
      <trkpt lat="45.85887" lon="5.51095">
        <ele>931.08333300412</ele>
        <time>2020-05-28T08:29:44.000Z</time>
      </trkpt>
      <trkpt lat="45.85893" lon="5.51092">
        <ele>930.58099968</ele>
        <time>2020-05-28T08:29:49.000Z</time>
      </trkpt>
      <trkpt lat="45.85896" lon="5.51091">
        <ele>930.28099968</ele>
        <time>2020-05-28T08:29:52.000Z</time>
      </trkpt>
      <trkpt lat="45.85898" lon="5.5109">
        <ele>930.08099968</ele>
        <time>2020-05-28T08:29:54.000Z</time>
      </trkpt>
      <trkpt lat="45.859" lon="5.5109">
        <ele>929.76199936</ele>
        <time>2020-05-28T08:29:56.000Z</time>
      </trkpt>
      <trkpt lat="45.85905" lon="5.51088">
        <ele>929.36199936</ele>
        <time>2020-05-28T08:29:58.000Z</time>
      </trkpt>
      <trkpt lat="45.85909" lon="5.51086">
        <ele>928.76199936</ele>
        <time>2020-05-28T08:30:01.000Z</time>
      </trkpt>
      <trkpt lat="45.85912" lon="5.51086">
        <ele>928.36199936</ele>
        <time>2020-05-28T08:30:03.000Z</time>
      </trkpt>
      <trkpt lat="45.85914" lon="5.51085">
        <ele>928</ele>
        <time>2020-05-28T08:30:05.000Z</time>
      </trkpt>
      <trkpt lat="45.85916" lon="5.51083">
        <ele>928</ele>
        <time>2020-05-28T08:30:08.000Z</time>
      </trkpt>
      <trkpt lat="45.85919" lon="5.51084">
        <ele>928</ele>
        <time>2020-05-28T08:30:10.000Z</time>
      </trkpt>
      <trkpt lat="45.85921" lon="5.51083">
        <ele>928</ele>
        <time>2020-05-28T08:30:13.000Z</time>
      </trkpt>
      <trkpt lat="45.85924" lon="5.51082">
        <ele>928</ele>
        <time>2020-05-28T08:30:15.000Z</time>
      </trkpt>
      <trkpt lat="45.85926" lon="5.5108">
        <ele>928</ele>
        <time>2020-05-28T08:30:17.000Z</time>
      </trkpt>
      <trkpt lat="45.85928" lon="5.51078">
        <ele>928</ele>
        <time>2020-05-28T08:30:19.000Z</time>
      </trkpt>
      <trkpt lat="45.85931" lon="5.51078">
        <ele>928</ele>
        <time>2020-05-28T08:30:21.000Z</time>
      </trkpt>
      <trkpt lat="45.85933" lon="5.51079">
        <ele>928</ele>
        <time>2020-05-28T08:30:23.000Z</time>
      </trkpt>
      <trkpt lat="45.85936" lon="5.51078">
        <ele>927.98099968</ele>
        <time>2020-05-28T08:30:25.000Z</time>
      </trkpt>
      <trkpt lat="45.85938" lon="5.51078">
        <ele>927.78099968</ele>
        <time>2020-05-28T08:30:27.000Z</time>
      </trkpt>
      <trkpt lat="45.8594" lon="5.51076">
        <ele>927.48099968</ele>
        <time>2020-05-28T08:30:30.000Z</time>
      </trkpt>
      <trkpt lat="45.85943" lon="5.51075">
        <ele>927.28099968</ele>
        <time>2020-05-28T08:30:32.000Z</time>
      </trkpt>
      <trkpt lat="45.85945" lon="5.51074">
        <ele>927.08099968</ele>
        <time>2020-05-28T08:30:34.000Z</time>
      </trkpt>
      <trkpt lat="45.85948" lon="5.51073">
        <ele>927</ele>
        <time>2020-05-28T08:30:36.000Z</time>
      </trkpt>
      <trkpt lat="45.8595" lon="5.51071">
        <ele>927</ele>
        <time>2020-05-28T08:30:39.000Z</time>
      </trkpt>
      <trkpt lat="45.85952" lon="5.51069">
        <ele>927</ele>
        <time>2020-05-28T08:30:41.000Z</time>
      </trkpt>
      <trkpt lat="45.85954" lon="5.51068">
        <ele>927</ele>
        <time>2020-05-28T08:30:43.000Z</time>
      </trkpt>
      <trkpt lat="45.85956" lon="5.51067">
        <ele>926.98198134711</ele>
        <time>2020-05-28T08:30:45.000Z</time>
      </trkpt>
      <trkpt lat="45.85958" lon="5.51065">
        <ele>926.78178121104</ele>
        <time>2020-05-28T08:30:47.000Z</time>
      </trkpt>
      <trkpt lat="45.8596" lon="5.51064">
        <ele>926.58158107497</ele>
        <time>2020-05-28T08:30:49.000Z</time>
      </trkpt>
      <trkpt lat="45.85962" lon="5.51062">
        <ele>926.3813809389</ele>
        <time>2020-05-28T08:30:51.000Z</time>
      </trkpt>
      <trkpt lat="45.85963" lon="5.5106">
        <ele>926.18118080282</ele>
        <time>2020-05-28T08:30:53.000Z</time>
      </trkpt>
      <trkpt lat="45.85964" lon="5.51057">
        <ele>925.64299904</ele>
        <time>2020-05-28T08:30:56.000Z</time>
      </trkpt>
      <trkpt lat="45.85966" lon="5.51055">
        <ele>925.04299904</ele>
        <time>2020-05-28T08:30:58.000Z</time>
      </trkpt>
      <trkpt lat="45.85968" lon="5.51053">
        <ele>924.44299904</ele>
        <time>2020-05-28T08:31:00.000Z</time>
      </trkpt>
      <trkpt lat="45.85969" lon="5.51051">
        <ele>923.84299904</ele>
        <time>2020-05-28T08:31:02.000Z</time>
      </trkpt>
      <trkpt lat="45.85972" lon="5.51048">
        <ele>923.24299904</ele>
        <time>2020-05-28T08:31:04.000Z</time>
      </trkpt>
      <trkpt lat="45.85974" lon="5.51045">
        <ele>923</ele>
        <time>2020-05-28T08:31:06.000Z</time>
      </trkpt>
      <trkpt lat="45.85976" lon="5.51043">
        <ele>923</ele>
        <time>2020-05-28T08:31:08.000Z</time>
      </trkpt>
      <trkpt lat="45.85978" lon="5.51041">
        <ele>923</ele>
        <time>2020-05-28T08:31:10.000Z</time>
      </trkpt>
      <trkpt lat="45.8598" lon="5.51038">
        <ele>923</ele>
        <time>2020-05-28T08:31:12.000Z</time>
      </trkpt>
      <trkpt lat="45.85982" lon="5.51037">
        <ele>923</ele>
        <time>2020-05-28T08:31:14.000Z</time>
      </trkpt>
      <trkpt lat="45.85984" lon="5.51035">
        <ele>922.88424093385</ele>
        <time>2020-05-28T08:31:16.000Z</time>
      </trkpt>
      <trkpt lat="45.85986" lon="5.51033">
        <ele>922.68968840467</ele>
        <time>2020-05-28T08:31:18.000Z</time>
      </trkpt>
      <trkpt lat="45.85988" lon="5.51031">
        <ele>922.49513587549</ele>
        <time>2020-05-28T08:31:20.000Z</time>
      </trkpt>
      <trkpt lat="45.8599" lon="5.5103">
        <ele>922.20330708171</ele>
        <time>2020-05-28T08:31:23.000Z</time>
      </trkpt>
      <trkpt lat="45.85992" lon="5.51028">
        <ele>922.00875455253</ele>
        <time>2020-05-28T08:31:25.000Z</time>
      </trkpt>
      <trkpt lat="45.85995" lon="5.51027">
        <ele>921.80609123467</ele>
        <time>2020-05-28T08:31:27.000Z</time>
      </trkpt>
      <trkpt lat="45.85997" lon="5.51026">
        <ele>921.60304574729</ele>
        <time>2020-05-28T08:31:29.000Z</time>
      </trkpt>
      <trkpt lat="45.86" lon="5.51025">
        <ele>921.4000002599</ele>
        <time>2020-05-28T08:31:31.000Z</time>
      </trkpt>
      <trkpt lat="45.86002" lon="5.51024">
        <ele>921.09543202882</ele>
        <time>2020-05-28T08:31:34.000Z</time>
      </trkpt>
      <trkpt lat="45.86005" lon="5.51024">
        <ele>920.89678728424</ele>
        <time>2020-05-28T08:31:36.000Z</time>
      </trkpt>
      <trkpt lat="45.86008" lon="5.51025">
        <ele>920.70204513531</ele>
        <time>2020-05-28T08:31:38.000Z</time>
      </trkpt>
      <trkpt lat="45.8601" lon="5.51024">
        <ele>920.50730298638</ele>
        <time>2020-05-28T08:31:40.000Z</time>
      </trkpt>
      <trkpt lat="45.86013" lon="5.51023">
        <ele>920.31256083745</ele>
        <time>2020-05-28T08:31:42.000Z</time>
      </trkpt>
      <trkpt lat="45.86015" lon="5.51023">
        <ele>920.11781868852</ele>
        <time>2020-05-28T08:31:44.000Z</time>
      </trkpt>
      <trkpt lat="45.86018" lon="5.51022">
        <ele>919.917708</ele>
        <time>2020-05-28T08:31:46.000Z</time>
      </trkpt>
      <trkpt lat="45.86024" lon="5.51019">
        <ele>919.39687466667</ele>
        <time>2020-05-28T08:31:51.000Z</time>
      </trkpt>
      <trkpt lat="45.86026" lon="5.51016">
        <ele>919.18854133333</ele>
        <time>2020-05-28T08:31:53.000Z</time>
      </trkpt>
      <trkpt lat="45.86029" lon="5.51013">
        <ele>918.76199936</ele>
        <time>2020-05-28T08:31:56.000Z</time>
      </trkpt>
      <trkpt lat="45.86031" lon="5.51011">
        <ele>918.36199936</ele>
        <time>2020-05-28T08:31:58.000Z</time>
      </trkpt>
      <trkpt lat="45.86033" lon="5.51009">
        <ele>917.96199936</ele>
        <time>2020-05-28T08:32:00.000Z</time>
      </trkpt>
      <trkpt lat="45.86034" lon="5.51007">
        <ele>917.56199936</ele>
        <time>2020-05-28T08:32:02.000Z</time>
      </trkpt>
      <trkpt lat="45.86035" lon="5.51003">
        <ele>917.16199936</ele>
        <time>2020-05-28T08:32:04.000Z</time>
      </trkpt>
      <trkpt lat="45.86035" lon="5.51">
        <ele>916.78099968</ele>
        <time>2020-05-28T08:32:07.000Z</time>
      </trkpt>
      <trkpt lat="45.86037" lon="5.50999">
        <ele>916.38099968</ele>
        <time>2020-05-28T08:32:11.000Z</time>
      </trkpt>
      <trkpt lat="45.86042" lon="5.50998">
        <ele>915.8815918345</ele>
        <time>2020-05-28T08:32:16.000Z</time>
      </trkpt>
      <trkpt lat="45.86044" lon="5.50997">
        <ele>915.68258704947</ele>
        <time>2020-05-28T08:32:18.000Z</time>
      </trkpt>
      <trkpt lat="45.86052" lon="5.50992">
        <ele>914.97219588213</ele>
        <time>2020-05-28T08:32:25.000Z</time>
      </trkpt>
      <trkpt lat="45.86054" lon="5.5099">
        <ele>914.5749760397</ele>
        <time>2020-05-28T08:32:27.000Z</time>
      </trkpt>
      <trkpt lat="45.86056" lon="5.50987">
        <ele>913.78053635483</ele>
        <time>2020-05-28T08:32:31.000Z</time>
      </trkpt>
      <trkpt lat="45.86058" lon="5.50985">
        <ele>913.3833165124</ele>
        <time>2020-05-28T08:32:33.000Z</time>
      </trkpt>
      <trkpt lat="45.8606" lon="5.50983">
        <ele>912.98598534984</ele>
        <time>2020-05-28T08:32:35.000Z</time>
      </trkpt>
      <trkpt lat="45.86062" lon="5.50981">
        <ele>912.58558507769</ele>
        <time>2020-05-28T08:32:37.000Z</time>
      </trkpt>
      <trkpt lat="45.86064" lon="5.5098">
        <ele>912.18518480555</ele>
        <time>2020-05-28T08:32:39.000Z</time>
      </trkpt>
      <trkpt lat="45.86066" lon="5.50978">
        <ele>911.58458439733</ele>
        <time>2020-05-28T08:32:42.000Z</time>
      </trkpt>
      <trkpt lat="45.86068" lon="5.50975">
        <ele>911.18418412519</ele>
        <time>2020-05-28T08:32:44.000Z</time>
      </trkpt>
      <trkpt lat="45.86069" lon="5.50973">
        <ele>910.78159750264</ele>
        <time>2020-05-28T08:32:46.000Z</time>
      </trkpt>
      <trkpt lat="45.86071" lon="5.5097">
        <ele>910.17492389886</ele>
        <time>2020-05-28T08:32:49.000Z</time>
      </trkpt>
      <trkpt lat="45.86072" lon="5.50967">
        <ele>909.77047482968</ele>
        <time>2020-05-28T08:32:51.000Z</time>
      </trkpt>
      <trkpt lat="45.86074" lon="5.50965">
        <ele>909.36602576049</ele>
        <time>2020-05-28T08:32:53.000Z</time>
      </trkpt>
      <trkpt lat="45.86076" lon="5.50963">
        <ele>908.96199936</ele>
        <time>2020-05-28T08:32:55.000Z</time>
      </trkpt>
      <trkpt lat="45.86078" lon="5.50962">
        <ele>908.56199936</ele>
        <time>2020-05-28T08:32:57.000Z</time>
      </trkpt>
      <trkpt lat="45.8608" lon="5.5096">
        <ele>908.16199936</ele>
        <time>2020-05-28T08:32:59.000Z</time>
      </trkpt>
      <trkpt lat="45.86082" lon="5.50957">
        <ele>907.56199936</ele>
        <time>2020-05-28T08:33:02.000Z</time>
      </trkpt>
      <trkpt lat="45.86084" lon="5.50956">
        <ele>907.16199936</ele>
        <time>2020-05-28T08:33:04.000Z</time>
      </trkpt>
      <trkpt lat="45.86086" lon="5.50954">
        <ele>906.76199936</ele>
        <time>2020-05-28T08:33:06.000Z</time>
      </trkpt>
      <trkpt lat="45.86088" lon="5.50953">
        <ele>906.16199936</ele>
        <time>2020-05-28T08:33:09.000Z</time>
      </trkpt>
      <trkpt lat="45.8609" lon="5.5095">
        <ele>905.76199936</ele>
        <time>2020-05-28T08:33:11.000Z</time>
      </trkpt>
      <trkpt lat="45.86092" lon="5.50948">
        <ele>905.36199936</ele>
        <time>2020-05-28T08:33:13.000Z</time>
      </trkpt>
      <trkpt lat="45.86095" lon="5.50946">
        <ele>904.96199936</ele>
        <time>2020-05-28T08:33:15.000Z</time>
      </trkpt>
      <trkpt lat="45.86097" lon="5.50944">
        <ele>904.56199936</ele>
        <time>2020-05-28T08:33:17.000Z</time>
      </trkpt>
      <trkpt lat="45.86098" lon="5.50944">
        <ele>904.16199936</ele>
        <time>2020-05-28T08:33:19.000Z</time>
      </trkpt>
      <trkpt lat="45.861" lon="5.50942">
        <ele>903.56199936</ele>
        <time>2020-05-28T08:33:22.000Z</time>
      </trkpt>
      <trkpt lat="45.86102" lon="5.50941">
        <ele>903.16199936</ele>
        <time>2020-05-28T08:33:24.000Z</time>
      </trkpt>
      <trkpt lat="45.86105" lon="5.5094">
        <ele>902.76388825397</ele>
        <time>2020-05-28T08:33:26.000Z</time>
      </trkpt>
      <trkpt lat="45.86107" lon="5.50938">
        <ele>902.16865015873</ele>
        <time>2020-05-28T08:33:29.000Z</time>
      </trkpt>
      <trkpt lat="45.8611" lon="5.50938">
        <ele>901.77182476191</ele>
        <time>2020-05-28T08:33:31.000Z</time>
      </trkpt>
      <trkpt lat="45.86112" lon="5.50936">
        <ele>901.37499936508</ele>
        <time>2020-05-28T08:33:33.000Z</time>
      </trkpt>
      <trkpt lat="45.86113" lon="5.50934">
        <ele>900.96673290323</ele>
        <time>2020-05-28T08:33:35.000Z</time>
      </trkpt>
      <trkpt lat="45.86115" lon="5.50933">
        <ele>900.36189419355</ele>
        <time>2020-05-28T08:33:37.000Z</time>
      </trkpt>
      <trkpt lat="45.86117" lon="5.5093">
        <ele>899.75705548387</ele>
        <time>2020-05-28T08:33:39.000Z</time>
      </trkpt>
      <trkpt lat="45.86119" lon="5.50928">
        <ele>899.15221677419</ele>
        <time>2020-05-28T08:33:41.000Z</time>
      </trkpt>
      <trkpt lat="45.86121" lon="5.50926">
        <ele>898.54737806452</ele>
        <time>2020-05-28T08:33:43.000Z</time>
      </trkpt>
      <trkpt lat="45.86123" lon="5.50925">
        <ele>897.64299904</ele>
        <time>2020-05-28T08:33:46.000Z</time>
      </trkpt>
      <trkpt lat="45.86124" lon="5.50923">
        <ele>897.04299904</ele>
        <time>2020-05-28T08:33:48.000Z</time>
      </trkpt>
      <trkpt lat="45.86126" lon="5.50921">
        <ele>896.44299904</ele>
        <time>2020-05-28T08:33:50.000Z</time>
      </trkpt>
      <trkpt lat="45.86127" lon="5.50919">
        <ele>895.84299904</ele>
        <time>2020-05-28T08:33:52.000Z</time>
      </trkpt>
      <trkpt lat="45.86129" lon="5.50917">
        <ele>894.96199936</ele>
        <time>2020-05-28T08:33:55.000Z</time>
      </trkpt>
      <trkpt lat="45.86131" lon="5.50915">
        <ele>894.56199936</ele>
        <time>2020-05-28T08:33:57.000Z</time>
      </trkpt>
      <trkpt lat="45.86132" lon="5.50913">
        <ele>894.16199936</ele>
        <time>2020-05-28T08:33:59.000Z</time>
      </trkpt>
      <trkpt lat="45.86135" lon="5.50911">
        <ele>893.76199936</ele>
        <time>2020-05-28T08:34:01.000Z</time>
      </trkpt>
      <trkpt lat="45.86137" lon="5.5091">
        <ele>893.36199936</ele>
        <time>2020-05-28T08:34:03.000Z</time>
      </trkpt>
      <trkpt lat="45.86139" lon="5.50908">
        <ele>892.98099968</ele>
        <time>2020-05-28T08:34:05.000Z</time>
      </trkpt>
      <trkpt lat="45.8614" lon="5.50907">
        <ele>892.78099968</ele>
        <time>2020-05-28T08:34:07.000Z</time>
      </trkpt>
      <trkpt lat="45.86143" lon="5.50905">
        <ele>892.48099968</ele>
        <time>2020-05-28T08:34:10.000Z</time>
      </trkpt>
      <trkpt lat="45.86145" lon="5.50904">
        <ele>892.28099968</ele>
        <time>2020-05-28T08:34:12.000Z</time>
      </trkpt>
      <trkpt lat="45.86147" lon="5.50903">
        <ele>892.08099968</ele>
        <time>2020-05-28T08:34:14.000Z</time>
      </trkpt>
      <trkpt lat="45.86151" lon="5.50901">
        <ele>892</ele>
        <time>2020-05-28T08:34:17.000Z</time>
      </trkpt>
      <trkpt lat="45.86154" lon="5.50899">
        <ele>892</ele>
        <time>2020-05-28T08:34:19.000Z</time>
      </trkpt>
      <trkpt lat="45.86155" lon="5.50896">
        <ele>892</ele>
        <time>2020-05-28T08:34:22.000Z</time>
      </trkpt>
      <trkpt lat="45.86156" lon="5.50893">
        <ele>892</ele>
        <time>2020-05-28T08:34:24.000Z</time>
      </trkpt>
      <trkpt lat="45.86155" lon="5.50889">
        <ele>891.64653392695</ele>
        <time>2020-05-28T08:34:26.000Z</time>
      </trkpt>
      <trkpt lat="45.86155" lon="5.50886">
        <ele>891.05247489744</ele>
        <time>2020-05-28T08:34:28.000Z</time>
      </trkpt>
      <trkpt lat="45.86156" lon="5.50883">
        <ele>890.45841586793</ele>
        <time>2020-05-28T08:34:30.000Z</time>
      </trkpt>
      <trkpt lat="45.86156" lon="5.50881">
        <ele>889.86435683843</ele>
        <time>2020-05-28T08:34:32.000Z</time>
      </trkpt>
      <trkpt lat="45.86157" lon="5.50878">
        <ele>889.27029780892</ele>
        <time>2020-05-28T08:34:34.000Z</time>
      </trkpt>
      <trkpt lat="45.86157" lon="5.50874">
        <ele>888.78200064</ele>
        <time>2020-05-28T08:34:36.000Z</time>
      </trkpt>
      <trkpt lat="45.86158" lon="5.50871">
        <ele>888.38200064</ele>
        <time>2020-05-28T08:34:38.000Z</time>
      </trkpt>
      <trkpt lat="45.86159" lon="5.50869">
        <ele>887.98200064</ele>
        <time>2020-05-28T08:34:40.000Z</time>
      </trkpt>
      <trkpt lat="45.86159" lon="5.50865">
        <ele>887.58200064</ele>
        <time>2020-05-28T08:34:42.000Z</time>
      </trkpt>
      <trkpt lat="45.8616" lon="5.50862">
        <ele>887.18200064</ele>
        <time>2020-05-28T08:34:44.000Z</time>
      </trkpt>
      <trkpt lat="45.86161" lon="5.50859">
        <ele>887</ele>
        <time>2020-05-28T08:34:47.000Z</time>
      </trkpt>
      <trkpt lat="45.86162" lon="5.50856">
        <ele>887</ele>
        <time>2020-05-28T08:34:49.000Z</time>
      </trkpt>
      <trkpt lat="45.86166" lon="5.50844">
        <ele>887</ele>
        <time>2020-05-28T08:34:54.000Z</time>
      </trkpt>
      <trkpt lat="45.86167" lon="5.50841">
        <ele>886.90637827161</ele>
        <time>2020-05-28T08:34:56.000Z</time>
      </trkpt>
      <trkpt lat="45.86167" lon="5.50837">
        <ele>886.70061695473</ele>
        <time>2020-05-28T08:34:58.000Z</time>
      </trkpt>
      <trkpt lat="45.86168" lon="5.50834">
        <ele>886.49485563786</ele>
        <time>2020-05-28T08:35:00.000Z</time>
      </trkpt>
      <trkpt lat="45.86169" lon="5.50831">
        <ele>886.18621366255</ele>
        <time>2020-05-28T08:35:03.000Z</time>
      </trkpt>
      <trkpt lat="45.8617" lon="5.50828">
        <ele>885.98158883721</ele>
        <time>2020-05-28T08:35:05.000Z</time>
      </trkpt>
      <trkpt lat="45.86169" lon="5.50825">
        <ele>885.7877903876</ele>
        <time>2020-05-28T08:35:07.000Z</time>
      </trkpt>
      <trkpt lat="45.86169" lon="5.50822">
        <ele>885.59399193798</ele>
        <time>2020-05-28T08:35:09.000Z</time>
      </trkpt>
      <trkpt lat="45.86169" lon="5.50819">
        <ele>885.40019348837</ele>
        <time>2020-05-28T08:35:11.000Z</time>
      </trkpt>
      <trkpt lat="45.86168" lon="5.50815">
        <ele>885.10949581395</ele>
        <time>2020-05-28T08:35:14.000Z</time>
      </trkpt>
      <trkpt lat="45.86168" lon="5.50813">
        <ele>884.82024727273</ele>
        <time>2020-05-28T08:35:16.000Z</time>
      </trkpt>
      <trkpt lat="45.86169" lon="5.5081">
        <ele>884.20041256198</ele>
        <time>2020-05-28T08:35:19.000Z</time>
      </trkpt>
      <trkpt lat="45.86171" lon="5.50808">
        <ele>883.58057785124</ele>
        <time>2020-05-28T08:35:22.000Z</time>
      </trkpt>
      <trkpt lat="45.86173" lon="5.50807">
        <ele>883.16735471074</ele>
        <time>2020-05-28T08:35:24.000Z</time>
      </trkpt>
      <trkpt lat="45.86175" lon="5.50805">
        <ele>882.65440361027</ele>
        <time>2020-05-28T08:35:26.000Z</time>
      </trkpt>
      <trkpt lat="45.86176" lon="5.50802">
        <ele>882.07357090372</ele>
        <time>2020-05-28T08:35:28.000Z</time>
      </trkpt>
      <trkpt lat="45.86177" lon="5.50799">
        <ele>881.49273819717</ele>
        <time>2020-05-28T08:35:30.000Z</time>
      </trkpt>
      <trkpt lat="45.86179" lon="5.50797">
        <ele>880.91190549062</ele>
        <time>2020-05-28T08:35:32.000Z</time>
      </trkpt>
      <trkpt lat="45.86179" lon="5.50794">
        <ele>880.33107278407</ele>
        <time>2020-05-28T08:35:34.000Z</time>
      </trkpt>
      <trkpt lat="45.8618" lon="5.50791">
        <ele>880</ele>
        <time>2020-05-28T08:35:36.000Z</time>
      </trkpt>
      <trkpt lat="45.86181" lon="5.50789">
        <ele>880</ele>
        <time>2020-05-28T08:35:38.000Z</time>
      </trkpt>
      <trkpt lat="45.86182" lon="5.50787">
        <ele>880</ele>
        <time>2020-05-28T08:35:40.000Z</time>
      </trkpt>
      <trkpt lat="45.86183" lon="5.50784">
        <ele>880</ele>
        <time>2020-05-28T08:35:42.000Z</time>
      </trkpt>
      <trkpt lat="45.86185" lon="5.50782">
        <ele>880</ele>
        <time>2020-05-28T08:35:44.000Z</time>
      </trkpt>
      <trkpt lat="45.86186" lon="5.5078">
        <ele>879.89170008097</ele>
        <time>2020-05-28T08:35:46.000Z</time>
      </trkpt>
      <trkpt lat="45.86188" lon="5.50778">
        <ele>879.68927093117</ele>
        <time>2020-05-28T08:35:48.000Z</time>
      </trkpt>
      <trkpt lat="45.8619" lon="5.50776">
        <ele>879.48684178138</ele>
        <time>2020-05-28T08:35:50.000Z</time>
      </trkpt>
      <trkpt lat="45.86192" lon="5.50774">
        <ele>879.28441263158</ele>
        <time>2020-05-28T08:35:52.000Z</time>
      </trkpt>
      <trkpt lat="45.86192" lon="5.50772">
        <ele>878.96199936</ele>
        <time>2020-05-28T08:35:55.000Z</time>
      </trkpt>
      <trkpt lat="45.86193" lon="5.50769">
        <ele>877.36199936</ele>
        <time>2020-05-28T08:36:03.000Z</time>
      </trkpt>
      <trkpt lat="45.86192" lon="5.50766">
        <ele>877</ele>
        <time>2020-05-28T08:36:06.000Z</time>
      </trkpt>
      <trkpt lat="45.8619" lon="5.50765">
        <ele>877</ele>
        <time>2020-05-28T08:36:30.000Z</time>
      </trkpt>
      <trkpt lat="45.86191" lon="5.50762">
        <ele>876.48151799609</ele>
        <time>2020-05-28T08:36:40.000Z</time>
      </trkpt>
      <trkpt lat="45.86192" lon="5.50759">
        <ele>876.18181760058</ele>
        <time>2020-05-28T08:36:43.000Z</time>
      </trkpt>
      <trkpt lat="45.86192" lon="5.50756">
        <ele>875.78178121104</ele>
        <time>2020-05-28T08:36:47.000Z</time>
      </trkpt>
      <trkpt lat="45.86193" lon="5.50756">
        <ele>874.71047462451</ele>
        <time>2020-05-28T08:37:12.000Z</time>
      </trkpt>
      <trkpt lat="45.86196" lon="5.50755">
        <ele>874.908103083</ele>
        <time>2020-05-28T08:37:14.000Z</time>
      </trkpt>
      <trkpt lat="45.86198" lon="5.50754">
        <ele>875</ele>
        <time>2020-05-28T08:37:16.000Z</time>
      </trkpt>
      <trkpt lat="45.862" lon="5.50753">
        <ele>875</ele>
        <time>2020-05-28T08:37:18.000Z</time>
      </trkpt>
      <trkpt lat="45.86202" lon="5.50751">
        <ele>875</ele>
        <time>2020-05-28T08:37:20.000Z</time>
      </trkpt>
      <trkpt lat="45.86204" lon="5.5075">
        <ele>875</ele>
        <time>2020-05-28T08:37:22.000Z</time>
      </trkpt>
      <trkpt lat="45.86206" lon="5.50751">
        <ele>875</ele>
        <time>2020-05-28T08:37:26.000Z</time>
      </trkpt>
      <trkpt lat="45.86216" lon="5.5075">
        <ele>875</ele>
        <time>2020-05-28T08:37:34.000Z</time>
      </trkpt>
      <trkpt lat="45.86222" lon="5.50754">
        <ele>876.69873629661</ele>
        <time>2020-05-28T08:38:02.000Z</time>
      </trkpt>
      <trkpt lat="45.86231" lon="5.50758">
        <ele>876.08099968</ele>
        <time>2020-05-28T08:38:24.000Z</time>
      </trkpt>
      <trkpt lat="45.8624" lon="5.50756">
        <ele>876</ele>
        <time>2020-05-28T08:38:29.000Z</time>
      </trkpt>
      <trkpt lat="45.8625" lon="5.50759">
        <ele>876</ele>
        <time>2020-05-28T08:38:41.000Z</time>
      </trkpt>
      <trkpt lat="45.8626" lon="5.50755">
        <ele>873.37747574474</ele>
        <time>2020-05-28T08:39:03.000Z</time>
      </trkpt>
      <trkpt lat="45.86266" lon="5.50753">
        <ele>873</ele>
        <time>2020-05-28T08:39:09.000Z</time>
      </trkpt>
      <trkpt lat="45.86268" lon="5.50752">
        <ele>873</ele>
        <time>2020-05-28T08:39:12.000Z</time>
      </trkpt>
      <trkpt lat="45.8627" lon="5.50752">
        <ele>873</ele>
        <time>2020-05-28T08:39:14.000Z</time>
      </trkpt>
      <trkpt lat="45.86274" lon="5.50751">
        <ele>872.88099968</ele>
        <time>2020-05-28T08:39:16.000Z</time>
      </trkpt>
      <trkpt lat="45.86277" lon="5.50751">
        <ele>872.68099968</ele>
        <time>2020-05-28T08:39:18.000Z</time>
      </trkpt>
      <trkpt lat="45.8628" lon="5.5075">
        <ele>872.48099968</ele>
        <time>2020-05-28T08:39:20.000Z</time>
      </trkpt>
      <trkpt lat="45.86283" lon="5.50749">
        <ele>872.18099968</ele>
        <time>2020-05-28T08:39:23.000Z</time>
      </trkpt>
      <trkpt lat="45.86285" lon="5.50749">
        <ele>871.98099968</ele>
        <time>2020-05-28T08:39:25.000Z</time>
      </trkpt>
      <trkpt lat="45.86288" lon="5.50748">
        <ele>871.78099968</ele>
        <time>2020-05-28T08:39:27.000Z</time>
      </trkpt>
      <trkpt lat="45.8629" lon="5.50747">
        <ele>871.58099968</ele>
        <time>2020-05-28T08:39:29.000Z</time>
      </trkpt>
      <trkpt lat="45.86292" lon="5.50746">
        <ele>871.38099968</ele>
        <time>2020-05-28T08:39:31.000Z</time>
      </trkpt>
      <trkpt lat="45.86294" lon="5.50746">
        <ele>871.18099968</ele>
        <time>2020-05-28T08:39:33.000Z</time>
      </trkpt>
      <trkpt lat="45.86297" lon="5.50746">
        <ele>870.98235812157</ele>
        <time>2020-05-28T08:39:35.000Z</time>
      </trkpt>
      <trkpt lat="45.86299" lon="5.50745">
        <ele>870.79665726575</ele>
        <time>2020-05-28T08:39:37.000Z</time>
      </trkpt>
      <trkpt lat="45.86302" lon="5.50743">
        <ele>870.518105982</ele>
        <time>2020-05-28T08:39:40.000Z</time>
      </trkpt>
      <trkpt lat="45.8631" lon="5.50735">
        <ele>869.95449685408</ele>
        <time>2020-05-28T08:39:46.000Z</time>
      </trkpt>
      <trkpt lat="45.86319" lon="5.50726">
        <ele>869.19609953224</ele>
        <time>2020-05-28T08:39:53.000Z</time>
      </trkpt>
      <trkpt lat="45.86324" lon="5.50719">
        <ele>868.68099968</ele>
        <time>2020-05-28T08:39:58.000Z</time>
      </trkpt>
      <trkpt lat="45.86326" lon="5.50718">
        <ele>868.48099968</ele>
        <time>2020-05-28T08:40:00.000Z</time>
      </trkpt>
      <trkpt lat="45.86327" lon="5.50716">
        <ele>868.28099968</ele>
        <time>2020-05-28T08:40:02.000Z</time>
      </trkpt>
      <trkpt lat="45.86329" lon="5.50713">
        <ele>868.08099968</ele>
        <time>2020-05-28T08:40:04.000Z</time>
      </trkpt>
      <trkpt lat="45.86331" lon="5.50711">
        <ele>868</ele>
        <time>2020-05-28T08:40:06.000Z</time>
      </trkpt>
      <trkpt lat="45.86334" lon="5.50709">
        <ele>868</ele>
        <time>2020-05-28T08:40:08.000Z</time>
      </trkpt>
      <trkpt lat="45.86335" lon="5.50708">
        <ele>868</ele>
        <time>2020-05-28T08:40:09.000Z</time>
      </trkpt>
      <trkpt lat="45.86338" lon="5.50707">
        <ele>868</ele>
        <time>2020-05-28T08:40:11.000Z</time>
      </trkpt>
      <trkpt lat="45.8634" lon="5.50705">
        <ele>868</ele>
        <time>2020-05-28T08:40:13.000Z</time>
      </trkpt>
      <trkpt lat="45.86342" lon="5.50703">
        <ele>867.99090940826</ele>
        <time>2020-05-28T08:40:15.000Z</time>
      </trkpt>
      <trkpt lat="45.86343" lon="5.50701">
        <ele>867.78888907564</ele>
        <time>2020-05-28T08:40:17.000Z</time>
      </trkpt>
      <trkpt lat="45.86344" lon="5.50699">
        <ele>867.58686874303</ele>
        <time>2020-05-28T08:40:19.000Z</time>
      </trkpt>
      <trkpt lat="45.86347" lon="5.50696">
        <ele>867.38484841041</ele>
        <time>2020-05-28T08:40:21.000Z</time>
      </trkpt>
      <trkpt lat="45.86349" lon="5.50695">
        <ele>867.2838382441</ele>
        <time>2020-05-28T08:40:22.000Z</time>
      </trkpt>
      <trkpt lat="45.86351" lon="5.50694">
        <ele>867.08181791148</ele>
        <time>2020-05-28T08:40:24.000Z</time>
      </trkpt>
      <trkpt lat="45.86354" lon="5.50691">
        <ele>866.88099968</ele>
        <time>2020-05-28T08:40:26.000Z</time>
      </trkpt>
      <trkpt lat="45.86356" lon="5.5069">
        <ele>866.78099968</ele>
        <time>2020-05-28T08:40:27.000Z</time>
      </trkpt>
      <trkpt lat="45.86358" lon="5.50687">
        <ele>866.58099968</ele>
        <time>2020-05-28T08:40:29.000Z</time>
      </trkpt>
      <trkpt lat="45.86361" lon="5.50685">
        <ele>866.38099968</ele>
        <time>2020-05-28T08:40:31.000Z</time>
      </trkpt>
      <trkpt lat="45.86364" lon="5.50682">
        <ele>866.18099968</ele>
        <time>2020-05-28T08:40:33.000Z</time>
      </trkpt>
      <trkpt lat="45.86365" lon="5.5068">
        <ele>865.96199936</ele>
        <time>2020-05-28T08:40:35.000Z</time>
      </trkpt>
      <trkpt lat="45.86368" lon="5.50677">
        <ele>865.56199936</ele>
        <time>2020-05-28T08:40:37.000Z</time>
      </trkpt>
      <trkpt lat="45.8637" lon="5.50675">
        <ele>865.16199936</ele>
        <time>2020-05-28T08:40:39.000Z</time>
      </trkpt>
      <trkpt lat="45.86372" lon="5.50672">
        <ele>864.76199936</ele>
        <time>2020-05-28T08:40:41.000Z</time>
      </trkpt>
      <trkpt lat="45.86374" lon="5.5067">
        <ele>864.36199936</ele>
        <time>2020-05-28T08:40:43.000Z</time>
      </trkpt>
      <trkpt lat="45.86376" lon="5.50667">
        <ele>863.98099968</ele>
        <time>2020-05-28T08:40:45.000Z</time>
      </trkpt>
      <trkpt lat="45.86378" lon="5.50665">
        <ele>863.78099968</ele>
        <time>2020-05-28T08:40:47.000Z</time>
      </trkpt>
      <trkpt lat="45.8638" lon="5.50663">
        <ele>863.58099968</ele>
        <time>2020-05-28T08:40:49.000Z</time>
      </trkpt>
      <trkpt lat="45.86381" lon="5.5066">
        <ele>863.38099968</ele>
        <time>2020-05-28T08:40:51.000Z</time>
      </trkpt>
      <trkpt lat="45.86383" lon="5.50657">
        <ele>863.18099968</ele>
        <time>2020-05-28T08:40:53.000Z</time>
      </trkpt>
      <trkpt lat="45.86384" lon="5.50655">
        <ele>862.96199936</ele>
        <time>2020-05-28T08:40:55.000Z</time>
      </trkpt>
      <trkpt lat="45.86385" lon="5.50652">
        <ele>862.56199936</ele>
        <time>2020-05-28T08:40:57.000Z</time>
      </trkpt>
      <trkpt lat="45.86386" lon="5.50649">
        <ele>862.16199936</ele>
        <time>2020-05-28T08:40:59.000Z</time>
      </trkpt>
      <trkpt lat="45.86386" lon="5.50646">
        <ele>861.76199936</ele>
        <time>2020-05-28T08:41:01.000Z</time>
      </trkpt>
      <trkpt lat="45.86388" lon="5.50643">
        <ele>861.36199936</ele>
        <time>2020-05-28T08:41:03.000Z</time>
      </trkpt>
      <trkpt lat="45.86388" lon="5.5064">
        <ele>861.16199936</ele>
        <time>2020-05-28T08:41:04.000Z</time>
      </trkpt>
      <trkpt lat="45.86389" lon="5.50637">
        <ele>861</ele>
        <time>2020-05-28T08:41:06.000Z</time>
      </trkpt>
      <trkpt lat="45.8639" lon="5.50634">
        <ele>861</ele>
        <time>2020-05-28T08:41:09.000Z</time>
      </trkpt>
      <trkpt lat="45.86392" lon="5.50632">
        <ele>860</ele>
        <time>2020-05-28T08:41:50.000Z</time>
      </trkpt>
      <trkpt lat="45.86393" lon="5.50631">
        <ele>860</ele>
        <time>2020-05-28T08:41:53.000Z</time>
      </trkpt>
      <trkpt lat="45.86395" lon="5.50629">
        <ele>859.89441620935</ele>
        <time>2020-05-28T08:41:56.000Z</time>
      </trkpt>
      <trkpt lat="45.86396" lon="5.50626">
        <ele>859.58984758249</ele>
        <time>2020-05-28T08:41:59.000Z</time>
      </trkpt>
      <trkpt lat="45.86398" lon="5.50623">
        <ele>859.28527895562</ele>
        <time>2020-05-28T08:42:02.000Z</time>
      </trkpt>
      <trkpt lat="45.86399" lon="5.50621">
        <ele>859</ele>
        <time>2020-05-28T08:42:05.000Z</time>
      </trkpt>
      <trkpt lat="45.86401" lon="5.50619">
        <ele>859</ele>
        <time>2020-05-28T08:42:08.000Z</time>
      </trkpt>
      <trkpt lat="45.86403" lon="5.50618">
        <ele>858.7643559513</ele>
        <time>2020-05-28T08:42:26.000Z</time>
      </trkpt>
      <trkpt lat="45.86405" lon="5.50617">
        <ele>858.17029692179</ele>
        <time>2020-05-28T08:42:29.000Z</time>
      </trkpt>
      <trkpt lat="45.86408" lon="5.50616">
        <ele>857.57623789229</ele>
        <time>2020-05-28T08:42:32.000Z</time>
      </trkpt>
      <trkpt lat="45.8641" lon="5.50615">
        <ele>857.18019853928</ele>
        <time>2020-05-28T08:42:34.000Z</time>
      </trkpt>
      <trkpt lat="45.86412" lon="5.50615">
        <ele>856.89121781475</ele>
        <time>2020-05-28T08:42:36.000Z</time>
      </trkpt>
      <trkpt lat="45.86414" lon="5.50614">
        <ele>856.59181642591</ele>
        <time>2020-05-28T08:42:39.000Z</time>
      </trkpt>
      <trkpt lat="45.86416" lon="5.50613">
        <ele>856.39221550002</ele>
        <time>2020-05-28T08:42:41.000Z</time>
      </trkpt>
      <trkpt lat="45.86418" lon="5.50613">
        <ele>856.09281411118</ele>
        <time>2020-05-28T08:42:44.000Z</time>
      </trkpt>
      <trkpt lat="45.8642" lon="5.50613">
        <ele>855.37145651822</ele>
        <time>2020-05-28T08:42:47.000Z</time>
      </trkpt>
      <trkpt lat="45.86423" lon="5.50612">
        <ele>854.76416906883</ele>
        <time>2020-05-28T08:42:49.000Z</time>
      </trkpt>
      <trkpt lat="45.86425" lon="5.50612">
        <ele>853.54959417004</ele>
        <time>2020-05-28T08:42:53.000Z</time>
      </trkpt>
      <trkpt lat="45.86428" lon="5.50611">
        <ele>852.64299904</ele>
        <time>2020-05-28T08:42:56.000Z</time>
      </trkpt>
      <trkpt lat="45.8643" lon="5.50611">
        <ele>851.74299904</ele>
        <time>2020-05-28T08:42:59.000Z</time>
      </trkpt>
      <trkpt lat="45.86432" lon="5.5061">
        <ele>851.14299904</ele>
        <time>2020-05-28T08:43:01.000Z</time>
      </trkpt>
      <trkpt lat="45.86434" lon="5.50608">
        <ele>850.54299904</ele>
        <time>2020-05-28T08:43:03.000Z</time>
      </trkpt>
      <trkpt lat="45.86435" lon="5.50606">
        <ele>849.98120641544</ele>
        <time>2020-05-28T08:43:05.000Z</time>
      </trkpt>
      <trkpt lat="45.86437" lon="5.50605">
        <ele>849.68447060432</ele>
        <time>2020-05-28T08:43:08.000Z</time>
      </trkpt>
      <trkpt lat="45.86439" lon="5.50603">
        <ele>849.3877347932</ele>
        <time>2020-05-28T08:43:11.000Z</time>
      </trkpt>
      <trkpt lat="45.86441" lon="5.50601">
        <ele>849.09099898208</ele>
        <time>2020-05-28T08:43:14.000Z</time>
      </trkpt>
      <trkpt lat="45.86443" lon="5.506">
        <ele>848.67239625396</ele>
        <time>2020-05-28T08:43:16.000Z</time>
      </trkpt>
      <trkpt lat="45.86445" lon="5.50599">
        <ele>848.06572265018</ele>
        <time>2020-05-28T08:43:18.000Z</time>
      </trkpt>
      <trkpt lat="45.86447" lon="5.50597">
        <ele>847.45904904641</ele>
        <time>2020-05-28T08:43:20.000Z</time>
      </trkpt>
      <trkpt lat="45.86449" lon="5.50596">
        <ele>846.85237544263</ele>
        <time>2020-05-28T08:43:22.000Z</time>
      </trkpt>
      <trkpt lat="45.86451" lon="5.50595">
        <ele>846.24570183885</ele>
        <time>2020-05-28T08:43:24.000Z</time>
      </trkpt>
      <trkpt lat="45.86453" lon="5.50594">
        <ele>845.64299904</ele>
        <time>2020-05-28T08:43:26.000Z</time>
      </trkpt>
      <trkpt lat="45.86455" lon="5.50593">
        <ele>844.74299904</ele>
        <time>2020-05-28T08:43:29.000Z</time>
      </trkpt>
      <trkpt lat="45.86458" lon="5.50591">
        <ele>843.84299904</ele>
        <time>2020-05-28T08:43:32.000Z</time>
      </trkpt>
      <trkpt lat="45.86459" lon="5.5059">
        <ele>843.24299904</ele>
        <time>2020-05-28T08:43:34.000Z</time>
      </trkpt>
      <trkpt lat="45.86461" lon="5.50589">
        <ele>842.76199936</ele>
        <time>2020-05-28T08:43:36.000Z</time>
      </trkpt>
      <trkpt lat="45.86463" lon="5.50587">
        <ele>842.36199936</ele>
        <time>2020-05-28T08:43:38.000Z</time>
      </trkpt>
      <trkpt lat="45.86465" lon="5.50586">
        <ele>841.96199936</ele>
        <time>2020-05-28T08:43:40.000Z</time>
      </trkpt>
      <trkpt lat="45.86466" lon="5.50585">
        <ele>841.36199936</ele>
        <time>2020-05-28T08:43:43.000Z</time>
      </trkpt>
      <trkpt lat="45.86468" lon="5.50583">
        <ele>840.96199936</ele>
        <time>2020-05-28T08:43:45.000Z</time>
      </trkpt>
      <trkpt lat="45.86469" lon="5.5058">
        <ele>840.36199936</ele>
        <time>2020-05-28T08:43:48.000Z</time>
      </trkpt>
      <trkpt lat="45.86471" lon="5.50578">
        <ele>839.96199936</ele>
        <time>2020-05-28T08:43:50.000Z</time>
      </trkpt>
      <trkpt lat="45.86473" lon="5.50577">
        <ele>839.36199936</ele>
        <time>2020-05-28T08:43:53.000Z</time>
      </trkpt>
      <trkpt lat="45.86475" lon="5.50576">
        <ele>838.94299904</ele>
        <time>2020-05-28T08:43:55.000Z</time>
      </trkpt>
      <trkpt lat="45.86477" lon="5.50575">
        <ele>838.34299904</ele>
        <time>2020-05-28T08:43:57.000Z</time>
      </trkpt>
      <trkpt lat="45.86478" lon="5.50574">
        <ele>837.14299904</ele>
        <time>2020-05-28T08:44:01.000Z</time>
      </trkpt>
      <trkpt lat="45.8648" lon="5.50572">
        <ele>836.24299904</ele>
        <time>2020-05-28T08:44:04.000Z</time>
      </trkpt>
      <trkpt lat="45.86482" lon="5.50572">
        <ele>835.88099968</ele>
        <time>2020-05-28T08:44:06.000Z</time>
      </trkpt>
      <trkpt lat="45.86484" lon="5.5057">
        <ele>835.68099968</ele>
        <time>2020-05-28T08:44:08.000Z</time>
      </trkpt>
      <trkpt lat="45.86485" lon="5.50569">
        <ele>835.48099968</ele>
        <time>2020-05-28T08:44:10.000Z</time>
      </trkpt>
      <trkpt lat="45.86487" lon="5.50567">
        <ele>835.08099968</ele>
        <time>2020-05-28T08:44:14.000Z</time>
      </trkpt>
      <trkpt lat="45.86489" lon="5.50567">
        <ele>834.36027190332</ele>
        <time>2020-05-28T08:44:17.000Z</time>
      </trkpt>
      <trkpt lat="45.86492" lon="5.50567">
        <ele>833.19182046603</ele>
        <time>2020-05-28T08:44:21.000Z</time>
      </trkpt>
      <trkpt lat="45.86494" lon="5.50565">
        <ele>832.60759474739</ele>
        <time>2020-05-28T08:44:23.000Z</time>
      </trkpt>
      <trkpt lat="45.86496" lon="5.50563">
        <ele>832.02336902875</ele>
        <time>2020-05-28T08:44:25.000Z</time>
      </trkpt>
      <trkpt lat="45.86499" lon="5.50562">
        <ele>831.6053441662</ele>
        <time>2020-05-28T08:44:27.000Z</time>
      </trkpt>
      <trkpt lat="45.865" lon="5.5056">
        <ele>830.98869442588</ele>
        <time>2020-05-28T08:44:30.000Z</time>
      </trkpt>
      <trkpt lat="45.86502" lon="5.50558">
        <ele>830.37204468557</ele>
        <time>2020-05-28T08:44:33.000Z</time>
      </trkpt>
      <trkpt lat="45.86504" lon="5.50557">
        <ele>829.88099968</ele>
        <time>2020-05-28T08:44:36.000Z</time>
      </trkpt>
      <trkpt lat="45.86507" lon="5.50557">
        <ele>829.58099968</ele>
        <time>2020-05-28T08:44:39.000Z</time>
      </trkpt>
      <trkpt lat="45.86509" lon="5.50557">
        <ele>829.38099968</ele>
        <time>2020-05-28T08:44:41.000Z</time>
      </trkpt>
      <trkpt lat="45.8651" lon="5.50557">
        <ele>829.18099968</ele>
        <time>2020-05-28T08:44:43.000Z</time>
      </trkpt>
      <trkpt lat="45.86513" lon="5.50556">
        <ele>828.36199936</ele>
        <time>2020-05-28T08:44:48.000Z</time>
      </trkpt>
      <trkpt lat="45.86516" lon="5.50558">
        <ele>827.76199936</ele>
        <time>2020-05-28T08:44:51.000Z</time>
      </trkpt>
      <trkpt lat="45.86518" lon="5.50558">
        <ele>827.36199936</ele>
        <time>2020-05-28T08:44:53.000Z</time>
      </trkpt>
      <trkpt lat="45.86521" lon="5.50558">
        <ele>826.9265688343</ele>
        <time>2020-05-28T08:44:55.000Z</time>
      </trkpt>
      <trkpt lat="45.86523" lon="5.50558">
        <ele>826.15362221337</ele>
        <time>2020-05-28T08:44:57.000Z</time>
      </trkpt>
      <trkpt lat="45.86525" lon="5.50558">
        <ele>825.38067559245</ele>
        <time>2020-05-28T08:44:59.000Z</time>
      </trkpt>
      <trkpt lat="45.86528" lon="5.50557">
        <ele>824.60772897152</ele>
        <time>2020-05-28T08:45:01.000Z</time>
      </trkpt>
      <trkpt lat="45.8653" lon="5.50557">
        <ele>823.8347823506</ele>
        <time>2020-05-28T08:45:03.000Z</time>
      </trkpt>
      <trkpt lat="45.86532" lon="5.50556">
        <ele>823</ele>
        <time>2020-05-28T08:45:06.000Z</time>
      </trkpt>
      <trkpt lat="45.86534" lon="5.50556">
        <ele>823</ele>
        <time>2020-05-28T08:45:08.000Z</time>
      </trkpt>
      <trkpt lat="45.86536" lon="5.50555">
        <ele>823</ele>
        <time>2020-05-28T08:45:10.000Z</time>
      </trkpt>
      <trkpt lat="45.86537" lon="5.50553">
        <ele>823</ele>
        <time>2020-05-28T08:45:13.000Z</time>
      </trkpt>
      <trkpt lat="45.86539" lon="5.50552">
        <ele>822.98099968</ele>
        <time>2020-05-28T08:45:15.000Z</time>
      </trkpt>
      <trkpt lat="45.8654" lon="5.5055">
        <ele>822.78099968</ele>
        <time>2020-05-28T08:45:17.000Z</time>
      </trkpt>
      <trkpt lat="45.86542" lon="5.50548">
        <ele>822.48099968</ele>
        <time>2020-05-28T08:45:20.000Z</time>
      </trkpt>
      <trkpt lat="45.86543" lon="5.50545">
        <ele>822.18099968</ele>
        <time>2020-05-28T08:45:23.000Z</time>
      </trkpt>
      <trkpt lat="45.86542" lon="5.50542">
        <ele>821.98151719844</ele>
        <time>2020-05-28T08:45:25.000Z</time>
      </trkpt>
      <trkpt lat="45.8654" lon="5.50541">
        <ele>821.68968840467</ele>
        <time>2020-05-28T08:45:28.000Z</time>
      </trkpt>
      <trkpt lat="45.86538" lon="5.50541">
        <ele>821.3978596109</ele>
        <time>2020-05-28T08:45:31.000Z</time>
      </trkpt>
      <trkpt lat="45.86535" lon="5.50541">
        <ele>821.10603081712</ele>
        <time>2020-05-28T08:45:34.000Z</time>
      </trkpt>
      <trkpt lat="45.86533" lon="5.50541">
        <ele>821.09276284372</ele>
        <time>2020-05-28T08:45:36.000Z</time>
      </trkpt>
      <trkpt lat="45.86531" lon="5.50541">
        <ele>821.29663650859</ele>
        <time>2020-05-28T08:45:38.000Z</time>
      </trkpt>
      <trkpt lat="45.86529" lon="5.5054">
        <ele>821.50051017346</ele>
        <time>2020-05-28T08:45:40.000Z</time>
      </trkpt>
      <trkpt lat="45.86526" lon="5.5054">
        <ele>821.70438383833</ele>
        <time>2020-05-28T08:45:42.000Z</time>
      </trkpt>
      <trkpt lat="45.86524" lon="5.5054">
        <ele>821.9082575032</ele>
        <time>2020-05-28T08:45:44.000Z</time>
      </trkpt>
      <trkpt lat="45.86522" lon="5.50539">
        <ele>822</ele>
        <time>2020-05-28T08:45:46.000Z</time>
      </trkpt>
      <trkpt lat="45.86519" lon="5.50541">
        <ele>822</ele>
        <time>2020-05-28T08:45:48.000Z</time>
      </trkpt>
      <trkpt lat="45.86517" lon="5.50542">
        <ele>822</ele>
        <time>2020-05-28T08:45:50.000Z</time>
      </trkpt>
      <trkpt lat="45.86515" lon="5.50542">
        <ele>822</ele>
        <time>2020-05-28T08:45:52.000Z</time>
      </trkpt>
      <trkpt lat="45.86506" lon="5.5054">
        <ele>821.48099968</ele>
        <time>2020-05-28T08:47:00.000Z</time>
      </trkpt>
      <trkpt lat="45.86503" lon="5.50544">
        <ele>821.18099968</ele>
        <time>2020-05-28T08:47:03.000Z</time>
      </trkpt>
      <trkpt lat="45.86501" lon="5.50545">
        <ele>821</ele>
        <time>2020-05-28T08:47:05.000Z</time>
      </trkpt>
      <trkpt lat="45.86498" lon="5.50546">
        <ele>821</ele>
        <time>2020-05-28T08:47:08.000Z</time>
      </trkpt>
      <trkpt lat="45.86496" lon="5.50546">
        <ele>821</ele>
        <time>2020-05-28T08:47:10.000Z</time>
      </trkpt>
      <trkpt lat="45.86494" lon="5.50545">
        <ele>821</ele>
        <time>2020-05-28T08:47:12.000Z</time>
      </trkpt>
      <trkpt lat="45.86484" lon="5.50541">
        <ele>820.28099968</ele>
        <time>2020-05-28T08:47:22.000Z</time>
      </trkpt>
      <trkpt lat="45.86474" lon="5.50542">
        <ele>819.40019348837</ele>
        <time>2020-05-28T08:47:31.000Z</time>
      </trkpt>
      <trkpt lat="45.86464" lon="5.50545">
        <ele>818.08367735537</ele>
        <time>2020-05-28T08:47:44.000Z</time>
      </trkpt>
      <trkpt lat="45.86454" lon="5.50547">
        <ele>815.96215075697</ele>
        <time>2020-05-28T08:47:55.000Z</time>
      </trkpt>
      <trkpt lat="45.86444" lon="5.5055">
        <ele>814</ele>
        <time>2020-05-28T08:48:05.000Z</time>
      </trkpt>
      <trkpt lat="45.86435" lon="5.50555">
        <ele>814</ele>
        <time>2020-05-28T08:48:14.000Z</time>
      </trkpt>
      <trkpt lat="45.86426" lon="5.50555">
        <ele>814</ele>
        <time>2020-05-28T08:48:27.000Z</time>
      </trkpt>
      <trkpt lat="45.86416" lon="5.50557">
        <ele>814</ele>
        <time>2020-05-28T08:48:34.000Z</time>
      </trkpt>
      <trkpt lat="45.86407" lon="5.50559">
        <ele>813.38523741484</ele>
        <time>2020-05-28T08:48:41.000Z</time>
      </trkpt>
      <trkpt lat="45.86396" lon="5.50559">
        <ele>810.54299904</ele>
        <time>2020-05-28T08:48:53.000Z</time>
      </trkpt>
      <trkpt lat="45.86386" lon="5.50557">
        <ele>809.19151081555</ele>
        <time>2020-05-28T08:49:03.000Z</time>
      </trkpt>
      <trkpt lat="45.86377" lon="5.50552">
        <ele>808.28470106719</ele>
        <time>2020-05-28T08:49:12.000Z</time>
      </trkpt>
      <trkpt lat="45.86368" lon="5.50548">
        <ele>807.48613862264</ele>
        <time>2020-05-28T08:49:20.000Z</time>
      </trkpt>
      <trkpt lat="45.86361" lon="5.50556">
        <ele>806.98099968</ele>
        <time>2020-05-28T08:49:35.000Z</time>
      </trkpt>
      <trkpt lat="45.86354" lon="5.50546">
        <ele>806</ele>
        <time>2020-05-28T08:50:07.000Z</time>
      </trkpt>
      <trkpt lat="45.86346" lon="5.50541">
        <ele>806</ele>
        <time>2020-05-28T08:50:18.000Z</time>
      </trkpt>
      <trkpt lat="45.86336" lon="5.50535">
        <ele>805.98198134711</ele>
        <time>2020-05-28T08:50:25.000Z</time>
      </trkpt>
      <trkpt lat="45.86327" lon="5.50534">
        <ele>805</ele>
        <time>2020-05-28T08:50:35.000Z</time>
      </trkpt>
      <trkpt lat="45.86319" lon="5.50539">
        <ele>805</ele>
        <time>2020-05-28T08:50:41.000Z</time>
      </trkpt>
      <trkpt lat="45.86309" lon="5.50535">
        <ele>805.50514436214</ele>
        <time>2020-05-28T08:50:50.000Z</time>
      </trkpt>
      <trkpt lat="45.863" lon="5.50536">
        <ele>806.51900032</ele>
        <time>2020-05-28T08:51:00.000Z</time>
      </trkpt>
      <trkpt lat="45.86292" lon="5.50541">
        <ele>808.43800064</ele>
        <time>2020-05-28T08:51:12.000Z</time>
      </trkpt>
      <trkpt lat="45.86283" lon="5.50546">
        <ele>809</ele>
        <time>2020-05-28T08:51:21.000Z</time>
      </trkpt>
      <trkpt lat="45.86274" lon="5.50546">
        <ele>809</ele>
        <time>2020-05-28T08:51:30.000Z</time>
      </trkpt>
      <trkpt lat="45.86265" lon="5.50552">
        <ele>809.83800064</ele>
        <time>2020-05-28T08:51:39.000Z</time>
      </trkpt>
      <trkpt lat="45.86256" lon="5.50547">
        <ele>811.31900032</ele>
        <time>2020-05-28T08:51:48.000Z</time>
      </trkpt>
      <trkpt lat="45.86247" lon="5.50545">
        <ele>809.85729724793</ele>
        <time>2020-05-28T08:52:26.000Z</time>
      </trkpt>
      <trkpt lat="45.86244" lon="5.50542">
        <ele>808.23567506532</ele>
        <time>2020-05-28T08:52:31.000Z</time>
      </trkpt>
      <trkpt lat="45.86242" lon="5.50539">
        <ele>807.26270175575</ele>
        <time>2020-05-28T08:52:34.000Z</time>
      </trkpt>
      <trkpt lat="45.8624" lon="5.50537">
        <ele>806.56590606649</ele>
        <time>2020-05-28T08:52:37.000Z</time>
      </trkpt>
      <trkpt lat="45.86241" lon="5.50534">
        <ele>805.77304159304</ele>
        <time>2020-05-28T08:52:41.000Z</time>
      </trkpt>
      <trkpt lat="45.8624" lon="5.50531">
        <ele>805.37660935631</ele>
        <time>2020-05-28T08:52:43.000Z</time>
      </trkpt>
      <trkpt lat="45.8624" lon="5.50528">
        <ele>803.74873646862</ele>
        <time>2020-05-28T08:52:48.000Z</time>
      </trkpt>
      <trkpt lat="45.8624" lon="5.50525">
        <ele>802.9414713408</ele>
        <time>2020-05-28T08:52:50.000Z</time>
      </trkpt>
      <trkpt lat="45.86239" lon="5.50522">
        <ele>802.13420621297</ele>
        <time>2020-05-28T08:52:52.000Z</time>
      </trkpt>
      <trkpt lat="45.86239" lon="5.5052">
        <ele>801.32694108514</ele>
        <time>2020-05-28T08:52:54.000Z</time>
      </trkpt>
      <trkpt lat="45.86239" lon="5.50517">
        <ele>800.52399872</ele>
        <time>2020-05-28T08:52:56.000Z</time>
      </trkpt>
      <trkpt lat="45.8624" lon="5.50514">
        <ele>799.72399872</ele>
        <time>2020-05-28T08:52:58.000Z</time>
      </trkpt>
      <trkpt lat="45.86243" lon="5.50501">
        <ele>797</ele>
        <time>2020-05-28T08:53:08.000Z</time>
      </trkpt>
      <trkpt lat="45.86247" lon="5.50489">
        <ele>796.98099968</ele>
        <time>2020-05-28T08:53:15.000Z</time>
      </trkpt>
      <trkpt lat="45.8624" lon="5.5048">
        <ele>796</ele>
        <time>2020-05-28T08:53:42.000Z</time>
      </trkpt>
      <trkpt lat="45.86231" lon="5.50486">
        <ele>796</ele>
        <time>2020-05-28T08:53:55.000Z</time>
      </trkpt>
      <trkpt lat="45.86229" lon="5.50486">
        <ele>795.81354133333</ele>
        <time>2020-05-28T08:53:57.000Z</time>
      </trkpt>
      <trkpt lat="45.86226" lon="5.50487">
        <ele>795.605208</ele>
        <time>2020-05-28T08:53:59.000Z</time>
      </trkpt>
      <trkpt lat="45.86224" lon="5.50487">
        <ele>795.39687466667</ele>
        <time>2020-05-28T08:54:01.000Z</time>
      </trkpt>
      <trkpt lat="45.86222" lon="5.50488">
        <ele>795.08437466667</ele>
        <time>2020-05-28T08:54:04.000Z</time>
      </trkpt>
      <trkpt lat="45.8622" lon="5.5049">
        <ele>795</ele>
        <time>2020-05-28T08:54:07.000Z</time>
      </trkpt>
      <trkpt lat="45.86219" lon="5.50491">
        <ele>795</ele>
        <time>2020-05-28T08:54:09.000Z</time>
      </trkpt>
      <trkpt lat="45.86217" lon="5.50492">
        <ele>795</ele>
        <time>2020-05-28T08:54:11.000Z</time>
      </trkpt>
      <trkpt lat="45.86215" lon="5.50493">
        <ele>795</ele>
        <time>2020-05-28T08:54:14.000Z</time>
      </trkpt>
      <trkpt lat="45.86213" lon="5.50494">
        <ele>794.88252694252</ele>
        <time>2020-05-28T08:54:16.000Z</time>
      </trkpt>
      <trkpt lat="45.8621" lon="5.50495">
        <ele>794.68509376339</ele>
        <time>2020-05-28T08:54:18.000Z</time>
      </trkpt>
      <trkpt lat="45.86201" lon="5.50497">
        <ele>793.99393391108</ele>
        <time>2020-05-28T08:54:25.000Z</time>
      </trkpt>
      <trkpt lat="45.86196" lon="5.50485">
        <ele>793.08392350541</ele>
        <time>2020-05-28T08:54:34.000Z</time>
      </trkpt>
      <trkpt lat="45.86196" lon="5.50471">
        <ele>791.16232411211</ele>
        <time>2020-05-28T08:54:44.000Z</time>
      </trkpt>
      <trkpt lat="45.86205" lon="5.50465">
        <ele>790.38161786425</ele>
        <time>2020-05-28T08:54:51.000Z</time>
      </trkpt>
      <trkpt lat="45.86213" lon="5.50459">
        <ele>789.681681143</ele>
        <time>2020-05-28T08:54:58.000Z</time>
      </trkpt>
      <trkpt lat="45.86222" lon="5.50455">
        <ele>788.96199936</ele>
        <time>2020-05-28T08:55:05.000Z</time>
      </trkpt>
      <trkpt lat="45.86232" lon="5.5045">
        <ele>787.16199936</ele>
        <time>2020-05-28T08:55:14.000Z</time>
      </trkpt>
      <trkpt lat="45.86239" lon="5.5044">
        <ele>787</ele>
        <time>2020-05-28T08:55:22.000Z</time>
      </trkpt>
      <trkpt lat="45.86246" lon="5.5043">
        <ele>786.38971366498</ele>
        <time>2020-05-28T08:55:31.000Z</time>
      </trkpt>
      <trkpt lat="45.86252" lon="5.50419">
        <ele>786</ele>
        <time>2020-05-28T08:55:40.000Z</time>
      </trkpt>
      <trkpt lat="45.8626" lon="5.50412">
        <ele>785.88480120342</ele>
        <time>2020-05-28T08:55:46.000Z</time>
      </trkpt>
      <trkpt lat="45.86266" lon="5.50401">
        <ele>784.91106451754</ele>
        <time>2020-05-28T08:55:56.000Z</time>
      </trkpt>
      <trkpt lat="45.86271" lon="5.5039">
        <ele>784.0837638606</ele>
        <time>2020-05-28T08:56:04.000Z</time>
      </trkpt>
      <trkpt lat="45.86281" lon="5.50389">
        <ele>783.38099968</ele>
        <time>2020-05-28T08:56:11.000Z</time>
      </trkpt>
      <trkpt lat="45.8629" lon="5.50393">
        <ele>782.48099968</ele>
        <time>2020-05-28T08:56:20.000Z</time>
      </trkpt>
      <trkpt lat="45.86299" lon="5.50395">
        <ele>780.36199936</ele>
        <time>2020-05-28T08:56:33.000Z</time>
      </trkpt>
      <trkpt lat="45.86308" lon="5.50389">
        <ele>779.34561657371</ele>
        <time>2020-05-28T08:56:37.000Z</time>
      </trkpt>
      <trkpt lat="45.86315" lon="5.50382">
        <ele>773.32529991968</ele>
        <time>2020-05-28T08:56:54.000Z</time>
      </trkpt>
      <trkpt lat="45.86324" lon="5.50376">
        <ele>771.48540762646</ele>
        <time>2020-05-28T08:57:00.000Z</time>
      </trkpt>
      <trkpt lat="45.86332" lon="5.50369">
        <ele>769.5977362963</ele>
        <time>2020-05-28T08:57:09.000Z</time>
      </trkpt>
      <trkpt lat="45.8634" lon="5.50364">
        <ele>767.74299904</ele>
        <time>2020-05-28T08:57:19.000Z</time>
      </trkpt>
      <trkpt lat="45.86349" lon="5.50361">
        <ele>764.96199936</ele>
        <time>2020-05-28T08:57:30.000Z</time>
      </trkpt>
      <trkpt lat="45.86358" lon="5.50361">
        <ele>762.14299904</ele>
        <time>2020-05-28T08:57:41.000Z</time>
      </trkpt>
      <trkpt lat="45.86365" lon="5.50369">
        <ele>758.24299904</ele>
        <time>2020-05-28T08:57:54.000Z</time>
      </trkpt>
      <trkpt lat="45.86373" lon="5.50376">
        <ele>754.84309556485</ele>
        <time>2020-05-28T08:58:06.000Z</time>
      </trkpt>
      <trkpt lat="45.86382" lon="5.50378">
        <ele>753.58786543933</ele>
        <time>2020-05-28T08:58:12.000Z</time>
      </trkpt>
      <trkpt lat="45.86392" lon="5.50379">
        <ele>751.36199936</ele>
        <time>2020-05-28T08:58:23.000Z</time>
      </trkpt>
      <trkpt lat="45.86401" lon="5.5038">
        <ele>749.16199936</ele>
        <time>2020-05-28T08:58:34.000Z</time>
      </trkpt>
      <trkpt lat="45.8641" lon="5.50379">
        <ele>747.16501881423</ele>
        <time>2020-05-28T08:58:41.000Z</time>
      </trkpt>
      <trkpt lat="45.86419" lon="5.50372">
        <ele>745.37145651822</ele>
        <time>2020-05-28T08:58:47.000Z</time>
      </trkpt>
      <trkpt lat="45.86428" lon="5.50363">
        <ele>744.46052534413</ele>
        <time>2020-05-28T08:58:50.000Z</time>
      </trkpt>
      <trkpt lat="45.86436" lon="5.50357">
        <ele>742.36199936</ele>
        <time>2020-05-28T08:58:58.000Z</time>
      </trkpt>
      <trkpt lat="45.86445" lon="5.50352">
        <ele>739.96716452888</ele>
        <time>2020-05-28T08:59:10.000Z</time>
      </trkpt>
      <trkpt lat="45.86453" lon="5.50346">
        <ele>738.88668048457</ele>
        <time>2020-05-28T08:59:16.000Z</time>
      </trkpt>
      <trkpt lat="45.86461" lon="5.5034">
        <ele>738.09145135043</ele>
        <time>2020-05-28T08:59:24.000Z</time>
      </trkpt>
      <trkpt lat="45.8647" lon="5.50332">
        <ele>735.85237544263</ele>
        <time>2020-05-28T08:59:32.000Z</time>
      </trkpt>
      <trkpt lat="45.86478" lon="5.50325">
        <ele>733.96199936</ele>
        <time>2020-05-28T08:59:40.000Z</time>
      </trkpt>
      <trkpt lat="45.86485" lon="5.50315">
        <ele>733</ele>
        <time>2020-05-28T08:59:51.000Z</time>
      </trkpt>
      <trkpt lat="45.86494" lon="5.50311">
        <ele>731.35461092242</ele>
        <time>2020-05-28T08:59:59.000Z</time>
      </trkpt>
      <trkpt lat="45.86502" lon="5.50304">
        <ele>729</ele>
        <time>2020-05-28T09:00:08.000Z</time>
      </trkpt>
      <trkpt lat="45.86509" lon="5.50301">
        <ele>729</ele>
        <time>2020-05-28T09:00:12.000Z</time>
      </trkpt>
      <trkpt lat="45.86512" lon="5.503">
        <ele>729</ele>
        <time>2020-05-28T09:00:15.000Z</time>
      </trkpt>
      <trkpt lat="45.86522" lon="5.50294">
        <ele>728.08333300412</ele>
        <time>2020-05-28T09:00:24.000Z</time>
      </trkpt>
      <trkpt lat="45.86527" lon="5.50291">
        <ele>727.56199936</ele>
        <time>2020-05-28T09:00:27.000Z</time>
      </trkpt>
      <trkpt lat="45.86529" lon="5.5029">
        <ele>727.16199936</ele>
        <time>2020-05-28T09:00:29.000Z</time>
      </trkpt>
      <trkpt lat="45.86532" lon="5.50288">
        <ele>726.76199936</ele>
        <time>2020-05-28T09:00:31.000Z</time>
      </trkpt>
      <trkpt lat="45.86534" lon="5.50287">
        <ele>726.36199936</ele>
        <time>2020-05-28T09:00:33.000Z</time>
      </trkpt>
      <trkpt lat="45.86535" lon="5.50284">
        <ele>725.56199936</ele>
        <time>2020-05-28T09:00:37.000Z</time>
      </trkpt>
      <trkpt lat="45.86539" lon="5.50283">
        <ele>724.96199936</ele>
        <time>2020-05-28T09:00:40.000Z</time>
      </trkpt>
      <trkpt lat="45.86542" lon="5.50282">
        <ele>724.36199936</ele>
        <time>2020-05-28T09:00:43.000Z</time>
      </trkpt>
      <trkpt lat="45.86544" lon="5.50282">
        <ele>723.96230095238</ele>
        <time>2020-05-28T09:00:45.000Z</time>
      </trkpt>
      <trkpt lat="45.86546" lon="5.50283">
        <ele>723.56547555556</ele>
        <time>2020-05-28T09:00:47.000Z</time>
      </trkpt>
      <trkpt lat="45.86548" lon="5.50281">
        <ele>722.97023746032</ele>
        <time>2020-05-28T09:00:50.000Z</time>
      </trkpt>
      <trkpt lat="45.86551" lon="5.50281">
        <ele>722.57341206349</ele>
        <time>2020-05-28T09:00:52.000Z</time>
      </trkpt>
      <trkpt lat="45.86553" lon="5.50279">
        <ele>722.17658666667</ele>
        <time>2020-05-28T09:00:54.000Z</time>
      </trkpt>
      <trkpt lat="45.86555" lon="5.50278">
        <ele>721.77620903226</ele>
        <time>2020-05-28T09:00:56.000Z</time>
      </trkpt>
      <trkpt lat="45.86557" lon="5.50278">
        <ele>721.37298322581</ele>
        <time>2020-05-28T09:00:58.000Z</time>
      </trkpt>
      <trkpt lat="45.8656" lon="5.50275">
        <ele>720.36491870968</ele>
        <time>2020-05-28T09:01:03.000Z</time>
      </trkpt>
      <trkpt lat="45.86563" lon="5.50273">
        <ele>719.88217797565</ele>
        <time>2020-05-28T09:01:06.000Z</time>
      </trkpt>
      <trkpt lat="45.86565" lon="5.5027">
        <ele>719.5851484609</ele>
        <time>2020-05-28T09:01:09.000Z</time>
      </trkpt>
      <trkpt lat="45.86567" lon="5.50269">
        <ele>719.38712878439</ele>
        <time>2020-05-28T09:01:11.000Z</time>
      </trkpt>
      <trkpt lat="45.86568" lon="5.50267">
        <ele>719.09009926964</ele>
        <time>2020-05-28T09:01:14.000Z</time>
      </trkpt>
      <trkpt lat="45.86569" lon="5.50264">
        <ele>718.38408699982</ele>
        <time>2020-05-28T09:01:17.000Z</time>
      </trkpt>
      <trkpt lat="45.86569" lon="5.50261">
        <ele>717.79469566661</ele>
        <time>2020-05-28T09:01:19.000Z</time>
      </trkpt>
      <trkpt lat="45.86569" lon="5.50258">
        <ele>717.20530433339</ele>
        <time>2020-05-28T09:01:21.000Z</time>
      </trkpt>
      <trkpt lat="45.86572" lon="5.50255">
        <ele>716.32121733357</ele>
        <time>2020-05-28T09:01:24.000Z</time>
      </trkpt>
      <trkpt lat="45.86573" lon="5.50251">
        <ele>715.90637827161</ele>
        <time>2020-05-28T09:01:26.000Z</time>
      </trkpt>
      <trkpt lat="45.86574" lon="5.50249">
        <ele>715.70061695473</ele>
        <time>2020-05-28T09:01:28.000Z</time>
      </trkpt>
      <trkpt lat="45.86576" lon="5.50246">
        <ele>715.49485563786</ele>
        <time>2020-05-28T09:01:30.000Z</time>
      </trkpt>
      <trkpt lat="45.86578" lon="5.50243">
        <ele>715.18621366255</ele>
        <time>2020-05-28T09:01:33.000Z</time>
      </trkpt>
      <trkpt lat="45.86579" lon="5.5024">
        <ele>714.98099968</ele>
        <time>2020-05-28T09:01:35.000Z</time>
      </trkpt>
      <trkpt lat="45.86586" lon="5.5023">
        <ele>714.08099968</ele>
        <time>2020-05-28T09:01:44.000Z</time>
      </trkpt>
      <trkpt lat="45.86589" lon="5.50229">
        <ele>713.8822944784</ele>
        <time>2020-05-28T09:01:46.000Z</time>
      </trkpt>
      <trkpt lat="45.86591" lon="5.50227">
        <ele>713.68447060432</ele>
        <time>2020-05-28T09:01:48.000Z</time>
      </trkpt>
      <trkpt lat="45.86599" lon="5.5022">
        <ele>711.97269936427</ele>
        <time>2020-05-28T09:02:00.000Z</time>
      </trkpt>
      <trkpt lat="45.86607" lon="5.50213">
        <ele>711</ele>
        <time>2020-05-28T09:02:08.000Z</time>
      </trkpt>
      <trkpt lat="45.86615" lon="5.50206">
        <ele>710.98101865527</ele>
        <time>2020-05-28T09:02:15.000Z</time>
      </trkpt>
      <trkpt lat="45.86618" lon="5.50204">
        <ele>710.68131825976</ele>
        <time>2020-05-28T09:02:18.000Z</time>
      </trkpt>
      <trkpt lat="45.86628" lon="5.50198">
        <ele>707.84384261258</ele>
        <time>2020-05-28T09:02:32.000Z</time>
      </trkpt>
      <trkpt lat="45.86637" lon="5.50192">
        <ele>706.58183627508</ele>
        <time>2020-05-28T09:02:39.000Z</time>
      </trkpt>
      <trkpt lat="45.86646" lon="5.50186">
        <ele>706</ele>
        <time>2020-05-28T09:02:46.000Z</time>
      </trkpt>
      <trkpt lat="45.86648" lon="5.50184">
        <ele>706</ele>
        <time>2020-05-28T09:02:49.000Z</time>
      </trkpt>
      <trkpt lat="45.86649" lon="5.50182">
        <ele>706</ele>
        <time>2020-05-28T09:02:52.000Z</time>
      </trkpt>
      <trkpt lat="45.86651" lon="5.5018">
        <ele>705.94373059627</ele>
        <time>2020-05-28T09:02:55.000Z</time>
      </trkpt>
      <trkpt lat="45.86653" lon="5.50177">
        <ele>705.35143105886</ele>
        <time>2020-05-28T09:02:57.000Z</time>
      </trkpt>
      <trkpt lat="45.86661" lon="5.5017">
        <ele>703</ele>
        <time>2020-05-28T09:03:09.000Z</time>
      </trkpt>
      <trkpt lat="45.8667" lon="5.50166">
        <ele>702.9940892949</ele>
        <time>2020-05-28T09:03:15.000Z</time>
      </trkpt>
      <trkpt lat="45.86679" lon="5.5016">
        <ele>702.00886668819</ele>
        <time>2020-05-28T09:03:25.000Z</time>
      </trkpt>
      <trkpt lat="45.86688" lon="5.50155">
        <ele>700.56199936</ele>
        <time>2020-05-28T09:03:37.000Z</time>
      </trkpt>
      <trkpt lat="45.86693" lon="5.50152">
        <ele>699.56199936</ele>
        <time>2020-05-28T09:03:42.000Z</time>
      </trkpt>
      <trkpt lat="45.86703" lon="5.50148">
        <ele>698.09279422598</ele>
        <time>2020-05-28T09:03:54.000Z</time>
      </trkpt>
      <trkpt lat="45.86708" lon="5.50144">
        <ele>697.70406233133</ele>
        <time>2020-05-28T09:03:58.000Z</time>
      </trkpt>
      <trkpt lat="45.8671" lon="5.50144">
        <ele>697.51063861394</ele>
        <time>2020-05-28T09:04:00.000Z</time>
      </trkpt>
      <trkpt lat="45.86712" lon="5.50143">
        <ele>697.22050303784</ele>
        <time>2020-05-28T09:04:03.000Z</time>
      </trkpt>
      <trkpt lat="45.86715" lon="5.50142">
        <ele>697</ele>
        <time>2020-05-28T09:04:06.000Z</time>
      </trkpt>
      <trkpt lat="45.86723" lon="5.50134">
        <ele>697</ele>
        <time>2020-05-28T09:04:13.000Z</time>
      </trkpt>
      <trkpt lat="45.86725" lon="5.50131">
        <ele>696.88634165842</ele>
        <time>2020-05-28T09:04:16.000Z</time>
      </trkpt>
      <trkpt lat="45.86726" lon="5.50129">
        <ele>696.69531974928</ele>
        <time>2020-05-28T09:04:18.000Z</time>
      </trkpt>
      <trkpt lat="45.86728" lon="5.50127">
        <ele>696.40878688557</ele>
        <time>2020-05-28T09:04:21.000Z</time>
      </trkpt>
      <trkpt lat="45.86729" lon="5.50125">
        <ele>696.21776497642</ele>
        <time>2020-05-28T09:04:23.000Z</time>
      </trkpt>
      <trkpt lat="45.86732" lon="5.50123">
        <ele>695.92444908271</ele>
        <time>2020-05-28T09:04:26.000Z</time>
      </trkpt>
      <trkpt lat="45.86735" lon="5.50121">
        <ele>695.71458542358</ele>
        <time>2020-05-28T09:04:28.000Z</time>
      </trkpt>
      <trkpt lat="45.86737" lon="5.50118">
        <ele>695.50472176444</ele>
        <time>2020-05-28T09:04:30.000Z</time>
      </trkpt>
      <trkpt lat="45.86739" lon="5.50117">
        <ele>695.2948581053</ele>
        <time>2020-05-28T09:04:32.000Z</time>
      </trkpt>
      <trkpt lat="45.86742" lon="5.50115">
        <ele>695.08499444617</ele>
        <time>2020-05-28T09:04:34.000Z</time>
      </trkpt>
      <trkpt lat="45.86744" lon="5.50113">
        <ele>694.76412218485</ele>
        <time>2020-05-28T09:04:36.000Z</time>
      </trkpt>
      <trkpt lat="45.86746" lon="5.50112">
        <ele>694.36768994813</ele>
        <time>2020-05-28T09:04:38.000Z</time>
      </trkpt>
      <trkpt lat="45.86752" lon="5.50106">
        <ele>693.57482547467</ele>
        <time>2020-05-28T09:04:42.000Z</time>
      </trkpt>
      <trkpt lat="45.86755" lon="5.50103">
        <ele>693.17839323794</ele>
        <time>2020-05-28T09:04:44.000Z</time>
      </trkpt>
      <trkpt lat="45.86757" lon="5.50102">
        <ele>692.89021899227</ele>
        <time>2020-05-28T09:04:46.000Z</time>
      </trkpt>
      <trkpt lat="45.86759" lon="5.50102">
        <ele>692.69061832136</ele>
        <time>2020-05-28T09:04:48.000Z</time>
      </trkpt>
      <trkpt lat="45.86761" lon="5.50101">
        <ele>692.49101765045</ele>
        <time>2020-05-28T09:04:50.000Z</time>
      </trkpt>
      <trkpt lat="45.86763" lon="5.501">
        <ele>692.29141697953</ele>
        <time>2020-05-28T09:04:52.000Z</time>
      </trkpt>
      <trkpt lat="45.86765" lon="5.50098">
        <ele>691.98382203723</ele>
        <time>2020-05-28T09:04:55.000Z</time>
      </trkpt>
      <trkpt lat="45.86768" lon="5.50097">
        <ele>691.57937296805</ele>
        <time>2020-05-28T09:04:57.000Z</time>
      </trkpt>
      <trkpt lat="45.8677" lon="5.50096">
        <ele>691.17492389886</ele>
        <time>2020-05-28T09:04:59.000Z</time>
      </trkpt>
      <trkpt lat="45.86773" lon="5.50095">
        <ele>690.77047482968</ele>
        <time>2020-05-28T09:05:01.000Z</time>
      </trkpt>
      <trkpt lat="45.86775" lon="5.50094">
        <ele>690.36602576049</ele>
        <time>2020-05-28T09:05:03.000Z</time>
      </trkpt>
      <trkpt lat="45.86778" lon="5.50093">
        <ele>689.98099968</ele>
        <time>2020-05-28T09:05:05.000Z</time>
      </trkpt>
      <trkpt lat="45.8678" lon="5.50092">
        <ele>689.78099968</ele>
        <time>2020-05-28T09:05:07.000Z</time>
      </trkpt>
      <trkpt lat="45.86783" lon="5.50091">
        <ele>689.58099968</ele>
        <time>2020-05-28T09:05:09.000Z</time>
      </trkpt>
      <trkpt lat="45.86785" lon="5.5009">
        <ele>689.38099968</ele>
        <time>2020-05-28T09:05:11.000Z</time>
      </trkpt>
      <trkpt lat="45.86787" lon="5.50089">
        <ele>689.18099968</ele>
        <time>2020-05-28T09:05:13.000Z</time>
      </trkpt>
      <trkpt lat="45.8679" lon="5.50087">
        <ele>688.98120641544</ele>
        <time>2020-05-28T09:05:15.000Z</time>
      </trkpt>
      <trkpt lat="45.86793" lon="5.50086">
        <ele>688.78338254136</ele>
        <time>2020-05-28T09:05:17.000Z</time>
      </trkpt>
      <trkpt lat="45.86796" lon="5.50084">
        <ele>688.58555866728</ele>
        <time>2020-05-28T09:05:19.000Z</time>
      </trkpt>
      <trkpt lat="45.86798" lon="5.50083">
        <ele>688.3877347932</ele>
        <time>2020-05-28T09:05:21.000Z</time>
      </trkpt>
      <trkpt lat="45.86801" lon="5.50082">
        <ele>688.18991091912</ele>
        <time>2020-05-28T09:05:23.000Z</time>
      </trkpt>
      <trkpt lat="45.86803" lon="5.50081">
        <ele>687.98382203723</ele>
        <time>2020-05-28T09:05:25.000Z</time>
      </trkpt>
      <trkpt lat="45.86806" lon="5.50079">
        <ele>687.57937296805</ele>
        <time>2020-05-28T09:05:27.000Z</time>
      </trkpt>
      <trkpt lat="45.86808" lon="5.50078">
        <ele>687.17492389886</ele>
        <time>2020-05-28T09:05:29.000Z</time>
      </trkpt>
      <trkpt lat="45.8681" lon="5.50076">
        <ele>686.77047482968</ele>
        <time>2020-05-28T09:05:31.000Z</time>
      </trkpt>
      <trkpt lat="45.86812" lon="5.50075">
        <ele>686.36602576049</ele>
        <time>2020-05-28T09:05:33.000Z</time>
      </trkpt>
      <trkpt lat="45.86815" lon="5.50074">
        <ele>685.9811878139</ele>
        <time>2020-05-28T09:05:35.000Z</time>
      </trkpt>
      <trkpt lat="45.86818" lon="5.50074">
        <ele>685.7831681374</ele>
        <time>2020-05-28T09:05:37.000Z</time>
      </trkpt>
      <trkpt lat="45.8682" lon="5.50072">
        <ele>685.5851484609</ele>
        <time>2020-05-28T09:05:39.000Z</time>
      </trkpt>
      <trkpt lat="45.86823" lon="5.50072">
        <ele>685.38712878439</ele>
        <time>2020-05-28T09:05:41.000Z</time>
      </trkpt>
      <trkpt lat="45.86825" lon="5.50072">
        <ele>685.18910910789</ele>
        <time>2020-05-28T09:05:43.000Z</time>
      </trkpt>
      <trkpt lat="45.86827" lon="5.50071">
        <ele>684.97305483309</ele>
        <time>2020-05-28T09:05:45.000Z</time>
      </trkpt>
      <trkpt lat="45.8683" lon="5.5007">
        <ele>684.37425205541</ele>
        <time>2020-05-28T09:05:47.000Z</time>
      </trkpt>
      <trkpt lat="45.86832" lon="5.50068">
        <ele>683.77544927773</ele>
        <time>2020-05-28T09:05:49.000Z</time>
      </trkpt>
      <trkpt lat="45.86834" lon="5.50066">
        <ele>683.17664650005</ele>
        <time>2020-05-28T09:05:51.000Z</time>
      </trkpt>
      <trkpt lat="45.86836" lon="5.50064">
        <ele>682.57784372237</ele>
        <time>2020-05-28T09:05:53.000Z</time>
      </trkpt>
      <trkpt lat="45.86838" lon="5.50062">
        <ele>681.98582931174</ele>
        <time>2020-05-28T09:05:55.000Z</time>
      </trkpt>
      <trkpt lat="45.86841" lon="5.50061">
        <ele>681.58097101215</ele>
        <time>2020-05-28T09:05:57.000Z</time>
      </trkpt>
      <trkpt lat="45.86843" lon="5.50059">
        <ele>681.17611271255</ele>
        <time>2020-05-28T09:05:59.000Z</time>
      </trkpt>
      <trkpt lat="45.86845" lon="5.50057">
        <ele>680.77125441296</ele>
        <time>2020-05-28T09:06:01.000Z</time>
      </trkpt>
      <trkpt lat="45.86847" lon="5.50056">
        <ele>680.36639611336</ele>
        <time>2020-05-28T09:06:03.000Z</time>
      </trkpt>
      <trkpt lat="45.86849" lon="5.50054">
        <ele>680</ele>
        <time>2020-05-28T09:06:05.000Z</time>
      </trkpt>
      <trkpt lat="45.86851" lon="5.50052">
        <ele>680</ele>
        <time>2020-05-28T09:06:07.000Z</time>
      </trkpt>
      <trkpt lat="45.86853" lon="5.50051">
        <ele>680</ele>
        <time>2020-05-28T09:06:09.000Z</time>
      </trkpt>
      <trkpt lat="45.86856" lon="5.50049">
        <ele>680</ele>
        <time>2020-05-28T09:06:11.000Z</time>
      </trkpt>
      <trkpt lat="45.86858" lon="5.50048">
        <ele>680</ele>
        <time>2020-05-28T09:06:13.000Z</time>
      </trkpt>
      <trkpt lat="45.8686" lon="5.50046">
        <ele>679.99191101862</ele>
        <time>2020-05-28T09:06:15.000Z</time>
      </trkpt>
      <trkpt lat="45.86862" lon="5.50045">
        <ele>679.78968648402</ele>
        <time>2020-05-28T09:06:17.000Z</time>
      </trkpt>
      <trkpt lat="45.86864" lon="5.50044">
        <ele>679.58746194943</ele>
        <time>2020-05-28T09:06:19.000Z</time>
      </trkpt>
      <trkpt lat="45.86866" lon="5.50042">
        <ele>679.38523741484</ele>
        <time>2020-05-28T09:06:21.000Z</time>
      </trkpt>
      <trkpt lat="45.86868" lon="5.50039">
        <ele>678.8815918345</ele>
        <time>2020-05-28T09:06:26.000Z</time>
      </trkpt>
      <trkpt lat="45.86869" lon="5.50037">
        <ele>678.68258704947</ele>
        <time>2020-05-28T09:06:28.000Z</time>
      </trkpt>
      <trkpt lat="45.86871" lon="5.50035">
        <ele>678.48358226444</ele>
        <time>2020-05-28T09:06:30.000Z</time>
      </trkpt>
      <trkpt lat="45.86873" lon="5.50033">
        <ele>678.28457747941</ele>
        <time>2020-05-28T09:06:32.000Z</time>
      </trkpt>
      <trkpt lat="45.86876" lon="5.50032">
        <ele>677.97186055577</ele>
        <time>2020-05-28T09:06:35.000Z</time>
      </trkpt>
      <trkpt lat="45.86878" lon="5.50029">
        <ele>677.56985011764</ele>
        <time>2020-05-28T09:06:37.000Z</time>
      </trkpt>
      <trkpt lat="45.8688" lon="5.50028">
        <ele>677.16783967952</ele>
        <time>2020-05-28T09:06:39.000Z</time>
      </trkpt>
      <trkpt lat="45.86884" lon="5.50027">
        <ele>676.7658292414</ele>
        <time>2020-05-28T09:06:41.000Z</time>
      </trkpt>
      <trkpt lat="45.86887" lon="5.50026">
        <ele>676.36381880328</ele>
        <time>2020-05-28T09:06:43.000Z</time>
      </trkpt>
      <trkpt lat="45.86889" lon="5.50027">
        <ele>676.16281358422</ele>
        <time>2020-05-28T09:06:44.000Z</time>
      </trkpt>
      <trkpt lat="45.86891" lon="5.50028">
        <ele>675.88099968</ele>
        <time>2020-05-28T09:06:46.000Z</time>
      </trkpt>
      <trkpt lat="45.86892" lon="5.50031">
        <ele>675.68099968</ele>
        <time>2020-05-28T09:06:48.000Z</time>
      </trkpt>
      <trkpt lat="45.86893" lon="5.50034">
        <ele>675.48099968</ele>
        <time>2020-05-28T09:06:50.000Z</time>
      </trkpt>
      <trkpt lat="45.86894" lon="5.50036">
        <ele>675</ele>
        <time>2020-05-28T09:07:04.000Z</time>
      </trkpt>
      <trkpt lat="45.86895" lon="5.50039">
        <ele>675</ele>
        <time>2020-05-28T09:07:06.000Z</time>
      </trkpt>
      <trkpt lat="45.86896" lon="5.50042">
        <ele>675</ele>
        <time>2020-05-28T09:07:08.000Z</time>
      </trkpt>
      <trkpt lat="45.86897" lon="5.50046">
        <ele>675</ele>
        <time>2020-05-28T09:07:10.000Z</time>
      </trkpt>
      <trkpt lat="45.86898" lon="5.50049">
        <ele>675</ele>
        <time>2020-05-28T09:07:12.000Z</time>
      </trkpt>
      <trkpt lat="45.86898" lon="5.50052">
        <ele>675</ele>
        <time>2020-05-28T09:07:14.000Z</time>
      </trkpt>
      <trkpt lat="45.86898" lon="5.50055">
        <ele>674.76199936</ele>
        <time>2020-05-28T09:07:16.000Z</time>
      </trkpt>
      <trkpt lat="45.86899" lon="5.50058">
        <ele>674.36199936</ele>
        <time>2020-05-28T09:07:18.000Z</time>
      </trkpt>
      <trkpt lat="45.86901" lon="5.50061">
        <ele>673.96199936</ele>
        <time>2020-05-28T09:07:20.000Z</time>
      </trkpt>
      <trkpt lat="45.86907" lon="5.50067">
        <ele>672.48099968</ele>
        <time>2020-05-28T09:07:30.000Z</time>
      </trkpt>
      <trkpt lat="45.86909" lon="5.50066">
        <ele>672.28099968</ele>
        <time>2020-05-28T09:07:32.000Z</time>
      </trkpt>
      <trkpt lat="45.86911" lon="5.50065">
        <ele>672.08099968</ele>
        <time>2020-05-28T09:07:34.000Z</time>
      </trkpt>
      <trkpt lat="45.86913" lon="5.50063">
        <ele>671.88099968</ele>
        <time>2020-05-28T09:07:36.000Z</time>
      </trkpt>
      <trkpt lat="45.86915" lon="5.50061">
        <ele>671.68099968</ele>
        <time>2020-05-28T09:07:38.000Z</time>
      </trkpt>
      <trkpt lat="45.86916" lon="5.50058">
        <ele>671.48099968</ele>
        <time>2020-05-28T09:07:40.000Z</time>
      </trkpt>
      <trkpt lat="45.86916" lon="5.50054">
        <ele>671.28099968</ele>
        <time>2020-05-28T09:07:42.000Z</time>
      </trkpt>
      <trkpt lat="45.86917" lon="5.5005">
        <ele>671.08099968</ele>
        <time>2020-05-28T09:07:44.000Z</time>
      </trkpt>
      <trkpt lat="45.86918" lon="5.50046">
        <ele>670.8822944784</ele>
        <time>2020-05-28T09:07:46.000Z</time>
      </trkpt>
      <trkpt lat="45.86919" lon="5.50043">
        <ele>670.68447060432</ele>
        <time>2020-05-28T09:07:48.000Z</time>
      </trkpt>
      <trkpt lat="45.8692" lon="5.50041">
        <ele>670.48664673024</ele>
        <time>2020-05-28T09:07:50.000Z</time>
      </trkpt>
      <trkpt lat="45.86921" lon="5.50038">
        <ele>670.28882285616</ele>
        <time>2020-05-28T09:07:52.000Z</time>
      </trkpt>
      <trkpt lat="45.86922" lon="5.50035">
        <ele>670.09099898208</ele>
        <time>2020-05-28T09:07:54.000Z</time>
      </trkpt>
      <trkpt lat="45.86923" lon="5.50033">
        <ele>669.89079875132</ele>
        <time>2020-05-28T09:07:56.000Z</time>
      </trkpt>
      <trkpt lat="45.86925" lon="5.5003">
        <ele>669.58746194943</ele>
        <time>2020-05-28T09:07:59.000Z</time>
      </trkpt>
      <trkpt lat="45.86934" lon="5.50027">
        <ele>669</ele>
        <time>2020-05-28T09:08:09.000Z</time>
      </trkpt>
      <trkpt lat="45.86943" lon="5.50022">
        <ele>669</ele>
        <time>2020-05-28T09:08:14.000Z</time>
      </trkpt>
      <trkpt lat="45.86951" lon="5.50015">
        <ele>667.7658292414</ele>
        <time>2020-05-28T09:08:21.000Z</time>
      </trkpt>
      <trkpt lat="45.86953" lon="5.50012">
        <ele>667.36381880328</ele>
        <time>2020-05-28T09:08:23.000Z</time>
      </trkpt>
      <trkpt lat="45.86954" lon="5.5001">
        <ele>666.98116915161</ele>
        <time>2020-05-28T09:08:25.000Z</time>
      </trkpt>
      <trkpt lat="45.86956" lon="5.50008">
        <ele>666.78295303325</ele>
        <time>2020-05-28T09:08:27.000Z</time>
      </trkpt>
      <trkpt lat="45.86959" lon="5.50005">
        <ele>666.58473691488</ele>
        <time>2020-05-28T09:08:29.000Z</time>
      </trkpt>
      <trkpt lat="45.86961" lon="5.50002">
        <ele>666.38652079652</ele>
        <time>2020-05-28T09:08:31.000Z</time>
      </trkpt>
      <trkpt lat="45.86962" lon="5.49999">
        <ele>666.18830467815</ele>
        <time>2020-05-28T09:08:33.000Z</time>
      </trkpt>
      <trkpt lat="45.86964" lon="5.49995">
        <ele>665.77800079822</ele>
        <time>2020-05-28T09:08:36.000Z</time>
      </trkpt>
      <trkpt lat="45.86966" lon="5.49992">
        <ele>665.17255195235</ele>
        <time>2020-05-28T09:08:39.000Z</time>
      </trkpt>
      <trkpt lat="45.86966" lon="5.49988">
        <ele>664.56710310648</ele>
        <time>2020-05-28T09:08:42.000Z</time>
      </trkpt>
      <trkpt lat="45.86967" lon="5.49986">
        <ele>664.16347054257</ele>
        <time>2020-05-28T09:08:44.000Z</time>
      </trkpt>
      <trkpt lat="45.86968" lon="5.4998">
        <ele>663.69905630189</ele>
        <time>2020-05-28T09:08:48.000Z</time>
      </trkpt>
      <trkpt lat="45.86969" lon="5.49977">
        <ele>663.5103770566</ele>
        <time>2020-05-28T09:08:50.000Z</time>
      </trkpt>
      <trkpt lat="45.8697" lon="5.49975">
        <ele>663.22735818868</ele>
        <time>2020-05-28T09:08:53.000Z</time>
      </trkpt>
      <trkpt lat="45.86973" lon="5.49971">
        <ele>663.0386789434</ele>
        <time>2020-05-28T09:08:55.000Z</time>
      </trkpt>
      <trkpt lat="45.86975" lon="5.4997">
        <ele>662.66170144681</ele>
        <time>2020-05-28T09:08:57.000Z</time>
      </trkpt>
      <trkpt lat="45.86977" lon="5.49968">
        <ele>662.23616953192</ele>
        <time>2020-05-28T09:08:59.000Z</time>
      </trkpt>
      <trkpt lat="45.86981" lon="5.49966">
        <ele>661.81063761702</ele>
        <time>2020-05-28T09:09:01.000Z</time>
      </trkpt>
      <trkpt lat="45.86982" lon="5.49965">
        <ele>661.59787165957</ele>
        <time>2020-05-28T09:09:02.000Z</time>
      </trkpt>
      <trkpt lat="45.86985" lon="5.49962">
        <ele>661.17233974468</ele>
        <time>2020-05-28T09:09:04.000Z</time>
      </trkpt>
      <trkpt lat="45.86987" lon="5.49961">
        <ele>661</ele>
        <time>2020-05-28T09:09:05.000Z</time>
      </trkpt>
      <trkpt lat="45.86989" lon="5.49959">
        <ele>661</ele>
        <time>2020-05-28T09:09:07.000Z</time>
      </trkpt>
      <trkpt lat="45.86992" lon="5.49957">
        <ele>661</ele>
        <time>2020-05-28T09:09:09.000Z</time>
      </trkpt>
      <trkpt lat="45.86994" lon="5.49955">
        <ele>661</ele>
        <time>2020-05-28T09:09:11.000Z</time>
      </trkpt>
      <trkpt lat="45.86997" lon="5.49954">
        <ele>661</ele>
        <time>2020-05-28T09:09:13.000Z</time>
      </trkpt>
      <trkpt lat="45.86999" lon="5.49952">
        <ele>660.96203731054</ele>
        <time>2020-05-28T09:09:15.000Z</time>
      </trkpt>
      <trkpt lat="45.87001" lon="5.4995">
        <ele>660.5624367832</ele>
        <time>2020-05-28T09:09:17.000Z</time>
      </trkpt>
      <trkpt lat="45.87003" lon="5.49948">
        <ele>660.16283625585</ele>
        <time>2020-05-28T09:09:19.000Z</time>
      </trkpt>
      <trkpt lat="45.87005" lon="5.49946">
        <ele>659.76323572851</ele>
        <time>2020-05-28T09:09:21.000Z</time>
      </trkpt>
      <trkpt lat="45.87008" lon="5.49945">
        <ele>659.36363520116</ele>
        <time>2020-05-28T09:09:23.000Z</time>
      </trkpt>
      <trkpt lat="45.87011" lon="5.49944">
        <ele>658.98198134711</ele>
        <time>2020-05-28T09:09:25.000Z</time>
      </trkpt>
      <trkpt lat="45.87013" lon="5.49943">
        <ele>658.78178121104</ele>
        <time>2020-05-28T09:09:27.000Z</time>
      </trkpt>
      <trkpt lat="45.87016" lon="5.49942">
        <ele>658.58158107497</ele>
        <time>2020-05-28T09:09:29.000Z</time>
      </trkpt>
      <trkpt lat="45.87017" lon="5.49941">
        <ele>658.3813809389</ele>
        <time>2020-05-28T09:09:31.000Z</time>
      </trkpt>
      <trkpt lat="45.8702" lon="5.4994">
        <ele>658.08108073479</ele>
        <time>2020-05-28T09:09:34.000Z</time>
      </trkpt>
      <trkpt lat="45.87029" lon="5.49935">
        <ele>656.61464378288</ele>
        <time>2020-05-28T09:09:42.000Z</time>
      </trkpt>
      <trkpt lat="45.87037" lon="5.49928">
        <ele>655.60395017311</ele>
        <time>2020-05-28T09:09:49.000Z</time>
      </trkpt>
      <trkpt lat="45.87039" lon="5.49927">
        <ele>655.39604982689</ele>
        <time>2020-05-28T09:09:51.000Z</time>
      </trkpt>
      <trkpt lat="45.87042" lon="5.49926">
        <ele>655.18814948068</ele>
        <time>2020-05-28T09:09:53.000Z</time>
      </trkpt>
      <trkpt lat="45.87045" lon="5.49925">
        <ele>654.96199936</ele>
        <time>2020-05-28T09:09:55.000Z</time>
      </trkpt>
      <trkpt lat="45.87047" lon="5.49923">
        <ele>654.56199936</ele>
        <time>2020-05-28T09:09:57.000Z</time>
      </trkpt>
      <trkpt lat="45.87049" lon="5.49921">
        <ele>654.16199936</ele>
        <time>2020-05-28T09:09:59.000Z</time>
      </trkpt>
      <trkpt lat="45.87052" lon="5.49919">
        <ele>653.76199936</ele>
        <time>2020-05-28T09:10:01.000Z</time>
      </trkpt>
      <trkpt lat="45.87054" lon="5.49918">
        <ele>653.36199936</ele>
        <time>2020-05-28T09:10:03.000Z</time>
      </trkpt>
      <trkpt lat="45.87057" lon="5.49916">
        <ele>653</ele>
        <time>2020-05-28T09:10:05.000Z</time>
      </trkpt>
      <trkpt lat="45.8706" lon="5.49914">
        <ele>653</ele>
        <time>2020-05-28T09:10:07.000Z</time>
      </trkpt>
      <trkpt lat="45.87062" lon="5.49912">
        <ele>653</ele>
        <time>2020-05-28T09:10:09.000Z</time>
      </trkpt>
      <trkpt lat="45.87064" lon="5.4991">
        <ele>653</ele>
        <time>2020-05-28T09:10:11.000Z</time>
      </trkpt>
      <trkpt lat="45.87066" lon="5.49909">
        <ele>653</ele>
        <time>2020-05-28T09:10:13.000Z</time>
      </trkpt>
      <trkpt lat="45.87069" lon="5.49909">
        <ele>652.99392161516</ele>
        <time>2020-05-28T09:10:15.000Z</time>
      </trkpt>
      <trkpt lat="45.87072" lon="5.49908">
        <ele>652.79128717288</ele>
        <time>2020-05-28T09:10:17.000Z</time>
      </trkpt>
      <trkpt lat="45.87074" lon="5.49907">
        <ele>652.5886527306</ele>
        <time>2020-05-28T09:10:19.000Z</time>
      </trkpt>
      <trkpt lat="45.87077" lon="5.49906">
        <ele>652.38601828833</ele>
        <time>2020-05-28T09:10:21.000Z</time>
      </trkpt>
      <trkpt lat="45.87079" lon="5.49904">
        <ele>652.18338384605</ele>
        <time>2020-05-28T09:10:23.000Z</time>
      </trkpt>
      <trkpt lat="45.87081" lon="5.49903">
        <ele>652</ele>
        <time>2020-05-28T09:10:25.000Z</time>
      </trkpt>
      <trkpt lat="45.87084" lon="5.49902">
        <ele>652</ele>
        <time>2020-05-28T09:10:27.000Z</time>
      </trkpt>
      <trkpt lat="45.87086" lon="5.49901">
        <ele>652</ele>
        <time>2020-05-28T09:10:29.000Z</time>
      </trkpt>
      <trkpt lat="45.87088" lon="5.499">
        <ele>652</ele>
        <time>2020-05-28T09:10:31.000Z</time>
      </trkpt>
      <trkpt lat="45.8709" lon="5.49899">
        <ele>652</ele>
        <time>2020-05-28T09:10:33.000Z</time>
      </trkpt>
      <trkpt lat="45.87092" lon="5.49898">
        <ele>652</ele>
        <time>2020-05-28T09:10:35.000Z</time>
      </trkpt>
      <trkpt lat="45.87094" lon="5.49898">
        <ele>652</ele>
        <time>2020-05-28T09:10:37.000Z</time>
      </trkpt>
      <trkpt lat="45.87096" lon="5.49897">
        <ele>652</ele>
        <time>2020-05-28T09:10:39.000Z</time>
      </trkpt>
      <trkpt lat="45.87098" lon="5.49896">
        <ele>652</ele>
        <time>2020-05-28T09:10:41.000Z</time>
      </trkpt>
      <trkpt lat="45.871" lon="5.49895">
        <ele>652</ele>
        <time>2020-05-28T09:10:43.000Z</time>
      </trkpt>
      <trkpt lat="45.87101" lon="5.49894">
        <ele>651.98099968</ele>
        <time>2020-05-28T09:10:45.000Z</time>
      </trkpt>
      <trkpt lat="45.87103" lon="5.49893">
        <ele>651.78099968</ele>
        <time>2020-05-28T09:10:47.000Z</time>
      </trkpt>
      <trkpt lat="45.87105" lon="5.49892">
        <ele>651.58099968</ele>
        <time>2020-05-28T09:10:49.000Z</time>
      </trkpt>
      <trkpt lat="45.87108" lon="5.49891">
        <ele>651.38099968</ele>
        <time>2020-05-28T09:10:51.000Z</time>
      </trkpt>
      <trkpt lat="45.8711" lon="5.4989">
        <ele>651.18099968</ele>
        <time>2020-05-28T09:10:53.000Z</time>
      </trkpt>
      <trkpt lat="45.87112" lon="5.49889">
        <ele>650.98099968</ele>
        <time>2020-05-28T09:10:55.000Z</time>
      </trkpt>
      <trkpt lat="45.87114" lon="5.49888">
        <ele>650.78099968</ele>
        <time>2020-05-28T09:10:57.000Z</time>
      </trkpt>
      <trkpt lat="45.87116" lon="5.49887">
        <ele>650.58099968</ele>
        <time>2020-05-28T09:10:59.000Z</time>
      </trkpt>
      <trkpt lat="45.87118" lon="5.49886">
        <ele>650.38099968</ele>
        <time>2020-05-28T09:11:01.000Z</time>
      </trkpt>
      <trkpt lat="45.87121" lon="5.49884">
        <ele>650.18099968</ele>
        <time>2020-05-28T09:11:03.000Z</time>
      </trkpt>
      <trkpt lat="45.87123" lon="5.49883">
        <ele>650</ele>
        <time>2020-05-28T09:11:05.000Z</time>
      </trkpt>
      <trkpt lat="45.87125" lon="5.49882">
        <ele>650</ele>
        <time>2020-05-28T09:11:07.000Z</time>
      </trkpt>
      <trkpt lat="45.87128" lon="5.49881">
        <ele>650</ele>
        <time>2020-05-28T09:11:09.000Z</time>
      </trkpt>
      <trkpt lat="45.8713" lon="5.4988">
        <ele>650</ele>
        <time>2020-05-28T09:11:11.000Z</time>
      </trkpt>
      <trkpt lat="45.87132" lon="5.49879">
        <ele>650</ele>
        <time>2020-05-28T09:11:13.000Z</time>
      </trkpt>
      <trkpt lat="45.87134" lon="5.49877">
        <ele>649.98099968</ele>
        <time>2020-05-28T09:11:15.000Z</time>
      </trkpt>
      <trkpt lat="45.87137" lon="5.49875">
        <ele>649.78099968</ele>
        <time>2020-05-28T09:11:17.000Z</time>
      </trkpt>
      <trkpt lat="45.87139" lon="5.49873">
        <ele>649.58099968</ele>
        <time>2020-05-28T09:11:19.000Z</time>
      </trkpt>
      <trkpt lat="45.87142" lon="5.49872">
        <ele>649.38099968</ele>
        <time>2020-05-28T09:11:21.000Z</time>
      </trkpt>
      <trkpt lat="45.87144" lon="5.4987">
        <ele>649.18099968</ele>
        <time>2020-05-28T09:11:23.000Z</time>
      </trkpt>
      <trkpt lat="45.87147" lon="5.49868">
        <ele>649.01900032</ele>
        <time>2020-05-28T09:11:25.000Z</time>
      </trkpt>
      <trkpt lat="45.87149" lon="5.49867">
        <ele>649.21900032</ele>
        <time>2020-05-28T09:11:27.000Z</time>
      </trkpt>
      <trkpt lat="45.87151" lon="5.49866">
        <ele>649.41900032</ele>
        <time>2020-05-28T09:11:29.000Z</time>
      </trkpt>
      <trkpt lat="45.87153" lon="5.49865">
        <ele>649.61900032</ele>
        <time>2020-05-28T09:11:31.000Z</time>
      </trkpt>
      <trkpt lat="45.87156" lon="5.49864">
        <ele>649.81900032</ele>
        <time>2020-05-28T09:11:33.000Z</time>
      </trkpt>
      <trkpt lat="45.87159" lon="5.49863">
        <ele>650</ele>
        <time>2020-05-28T09:11:35.000Z</time>
      </trkpt>
      <trkpt lat="45.87161" lon="5.49862">
        <ele>650</ele>
        <time>2020-05-28T09:11:37.000Z</time>
      </trkpt>
      <trkpt lat="45.87164" lon="5.49861">
        <ele>650</ele>
        <time>2020-05-28T09:11:39.000Z</time>
      </trkpt>
      <trkpt lat="45.87166" lon="5.4986">
        <ele>650</ele>
        <time>2020-05-28T09:11:41.000Z</time>
      </trkpt>
      <trkpt lat="45.87168" lon="5.49858">
        <ele>650</ele>
        <time>2020-05-28T09:11:43.000Z</time>
      </trkpt>
      <trkpt lat="45.8717" lon="5.49857">
        <ele>649.9810376169</ele>
        <time>2020-05-28T09:11:45.000Z</time>
      </trkpt>
      <trkpt lat="45.87173" lon="5.49856">
        <ele>649.78143694599</ele>
        <time>2020-05-28T09:11:47.000Z</time>
      </trkpt>
      <trkpt lat="45.87175" lon="5.49855">
        <ele>649.58183627508</ele>
        <time>2020-05-28T09:11:49.000Z</time>
      </trkpt>
      <trkpt lat="45.87178" lon="5.49854">
        <ele>649.38223560416</ele>
        <time>2020-05-28T09:11:51.000Z</time>
      </trkpt>
      <trkpt lat="45.8718" lon="5.49852">
        <ele>649.18263493325</ele>
        <time>2020-05-28T09:11:53.000Z</time>
      </trkpt>
      <trkpt lat="45.87182" lon="5.49851">
        <ele>649</ele>
        <time>2020-05-28T09:11:55.000Z</time>
      </trkpt>
      <trkpt lat="45.87184" lon="5.49851">
        <ele>649</ele>
        <time>2020-05-28T09:11:57.000Z</time>
      </trkpt>
      <trkpt lat="45.87187" lon="5.4985">
        <ele>649</ele>
        <time>2020-05-28T09:11:59.000Z</time>
      </trkpt>
      <trkpt lat="45.8719" lon="5.49849">
        <ele>649</ele>
        <time>2020-05-28T09:12:01.000Z</time>
      </trkpt>
      <trkpt lat="45.87192" lon="5.49847">
        <ele>649</ele>
        <time>2020-05-28T09:12:03.000Z</time>
      </trkpt>
      <trkpt lat="45.87195" lon="5.49846">
        <ele>649</ele>
        <time>2020-05-28T09:12:05.000Z</time>
      </trkpt>
      <trkpt lat="45.87197" lon="5.49844">
        <ele>649</ele>
        <time>2020-05-28T09:12:07.000Z</time>
      </trkpt>
      <trkpt lat="45.87199" lon="5.49843">
        <ele>649</ele>
        <time>2020-05-28T09:12:09.000Z</time>
      </trkpt>
      <trkpt lat="45.87201" lon="5.49841">
        <ele>649</ele>
        <time>2020-05-28T09:12:11.000Z</time>
      </trkpt>
      <trkpt lat="45.87204" lon="5.4984">
        <ele>649</ele>
        <time>2020-05-28T09:12:13.000Z</time>
      </trkpt>
      <trkpt lat="45.87206" lon="5.49839">
        <ele>648.96199936</ele>
        <time>2020-05-28T09:12:15.000Z</time>
      </trkpt>
      <trkpt lat="45.87208" lon="5.49838">
        <ele>648.56199936</ele>
        <time>2020-05-28T09:12:17.000Z</time>
      </trkpt>
      <trkpt lat="45.87211" lon="5.49837">
        <ele>648.16199936</ele>
        <time>2020-05-28T09:12:19.000Z</time>
      </trkpt>
      <trkpt lat="45.87213" lon="5.49835">
        <ele>647.76199936</ele>
        <time>2020-05-28T09:12:21.000Z</time>
      </trkpt>
      <trkpt lat="45.87215" lon="5.49833">
        <ele>647.36199936</ele>
        <time>2020-05-28T09:12:23.000Z</time>
      </trkpt>
      <trkpt lat="45.87217" lon="5.49831">
        <ele>646.98101865527</ele>
        <time>2020-05-28T09:12:25.000Z</time>
      </trkpt>
      <trkpt lat="45.87219" lon="5.49829">
        <ele>646.7812183916</ele>
        <time>2020-05-28T09:12:27.000Z</time>
      </trkpt>
      <trkpt lat="45.87222" lon="5.49827">
        <ele>646.58141812793</ele>
        <time>2020-05-28T09:12:29.000Z</time>
      </trkpt>
      <trkpt lat="45.87224" lon="5.49825">
        <ele>646.38161786425</ele>
        <time>2020-05-28T09:12:31.000Z</time>
      </trkpt>
      <trkpt lat="45.87226" lon="5.49823">
        <ele>646.18181760058</ele>
        <time>2020-05-28T09:12:33.000Z</time>
      </trkpt>
      <trkpt lat="45.87228" lon="5.49821">
        <ele>645.98198134711</ele>
        <time>2020-05-28T09:12:35.000Z</time>
      </trkpt>
      <trkpt lat="45.8723" lon="5.4982">
        <ele>645.78178121104</ele>
        <time>2020-05-28T09:12:37.000Z</time>
      </trkpt>
      <trkpt lat="45.87232" lon="5.49818">
        <ele>645.58158107497</ele>
        <time>2020-05-28T09:12:39.000Z</time>
      </trkpt>
      <trkpt lat="45.87234" lon="5.49816">
        <ele>645.3813809389</ele>
        <time>2020-05-28T09:12:41.000Z</time>
      </trkpt>
      <trkpt lat="45.87237" lon="5.49814">
        <ele>645.18118080282</ele>
        <time>2020-05-28T09:12:43.000Z</time>
      </trkpt>
      <trkpt lat="45.87239" lon="5.49813">
        <ele>644.9816952714</ele>
        <time>2020-05-28T09:12:45.000Z</time>
      </trkpt>
      <trkpt lat="45.87241" lon="5.49812">
        <ele>644.78901716284</ele>
        <time>2020-05-28T09:12:47.000Z</time>
      </trkpt>
      <trkpt lat="45.87243" lon="5.4981">
        <ele>644.59633905428</ele>
        <time>2020-05-28T09:12:49.000Z</time>
      </trkpt>
      <trkpt lat="45.87245" lon="5.49808">
        <ele>644.40366094572</ele>
        <time>2020-05-28T09:12:51.000Z</time>
      </trkpt>
      <trkpt lat="45.87248" lon="5.49807">
        <ele>644.21098283716</ele>
        <time>2020-05-28T09:12:53.000Z</time>
      </trkpt>
      <trkpt lat="45.8725" lon="5.49806">
        <ele>644.0183047286</ele>
        <time>2020-05-28T09:12:55.000Z</time>
      </trkpt>
      <trkpt lat="45.87253" lon="5.49804">
        <ele>643.81185051932</ele>
        <time>2020-05-28T09:12:57.000Z</time>
      </trkpt>
      <trkpt lat="45.87255" lon="5.49803">
        <ele>643.60395017311</ele>
        <time>2020-05-28T09:12:59.000Z</time>
      </trkpt>
      <trkpt lat="45.87258" lon="5.49802">
        <ele>643.39604982689</ele>
        <time>2020-05-28T09:13:01.000Z</time>
      </trkpt>
      <trkpt lat="45.8726" lon="5.49801">
        <ele>643.18814948068</ele>
        <time>2020-05-28T09:13:03.000Z</time>
      </trkpt>
      <trkpt lat="45.87263" lon="5.498">
        <ele>643</ele>
        <time>2020-05-28T09:13:05.000Z</time>
      </trkpt>
      <trkpt lat="45.87265" lon="5.498">
        <ele>643</ele>
        <time>2020-05-28T09:13:07.000Z</time>
      </trkpt>
      <trkpt lat="45.87268" lon="5.49799">
        <ele>643</ele>
        <time>2020-05-28T09:13:09.000Z</time>
      </trkpt>
      <trkpt lat="45.8727" lon="5.49798">
        <ele>643</ele>
        <time>2020-05-28T09:13:11.000Z</time>
      </trkpt>
      <trkpt lat="45.87273" lon="5.49797">
        <ele>643</ele>
        <time>2020-05-28T09:13:13.000Z</time>
      </trkpt>
      <trkpt lat="45.87275" lon="5.49797">
        <ele>642.98099968</ele>
        <time>2020-05-28T09:13:15.000Z</time>
      </trkpt>
      <trkpt lat="45.87277" lon="5.49796">
        <ele>642.78099968</ele>
        <time>2020-05-28T09:13:17.000Z</time>
      </trkpt>
      <trkpt lat="45.8728" lon="5.49796">
        <ele>642.58099968</ele>
        <time>2020-05-28T09:13:19.000Z</time>
      </trkpt>
      <trkpt lat="45.87282" lon="5.49795">
        <ele>642.38099968</ele>
        <time>2020-05-28T09:13:21.000Z</time>
      </trkpt>
      <trkpt lat="45.87285" lon="5.49794">
        <ele>642.18099968</ele>
        <time>2020-05-28T09:13:23.000Z</time>
      </trkpt>
      <trkpt lat="45.87287" lon="5.49794">
        <ele>641.98099968</ele>
        <time>2020-05-28T09:13:25.000Z</time>
      </trkpt>
      <trkpt lat="45.87289" lon="5.49793">
        <ele>641.78099968</ele>
        <time>2020-05-28T09:13:27.000Z</time>
      </trkpt>
      <trkpt lat="45.87291" lon="5.49792">
        <ele>641.58099968</ele>
        <time>2020-05-28T09:13:29.000Z</time>
      </trkpt>
      <trkpt lat="45.87294" lon="5.49791">
        <ele>641.38099968</ele>
        <time>2020-05-28T09:13:31.000Z</time>
      </trkpt>
      <trkpt lat="45.87296" lon="5.4979">
        <ele>641.18099968</ele>
        <time>2020-05-28T09:13:33.000Z</time>
      </trkpt>
      <trkpt lat="45.87299" lon="5.49789">
        <ele>640.96248706418</ele>
        <time>2020-05-28T09:13:35.000Z</time>
      </trkpt>
      <trkpt lat="45.87301" lon="5.49789">
        <ele>640.56762070591</ele>
        <time>2020-05-28T09:13:37.000Z</time>
      </trkpt>
      <trkpt lat="45.87303" lon="5.49788">
        <ele>640.17275434764</ele>
        <time>2020-05-28T09:13:39.000Z</time>
      </trkpt>
      <trkpt lat="45.87306" lon="5.49787">
        <ele>639.77788798937</ele>
        <time>2020-05-28T09:13:41.000Z</time>
      </trkpt>
      <trkpt lat="45.87308" lon="5.49786">
        <ele>639.38302163109</ele>
        <time>2020-05-28T09:13:43.000Z</time>
      </trkpt>
      <trkpt lat="45.87311" lon="5.49785">
        <ele>638.99392161516</ele>
        <time>2020-05-28T09:13:45.000Z</time>
      </trkpt>
      <trkpt lat="45.87313" lon="5.49784">
        <ele>638.79128717288</ele>
        <time>2020-05-28T09:13:47.000Z</time>
      </trkpt>
      <trkpt lat="45.87316" lon="5.49783">
        <ele>638.5886527306</ele>
        <time>2020-05-28T09:13:49.000Z</time>
      </trkpt>
      <trkpt lat="45.87318" lon="5.49782">
        <ele>638.38601828833</ele>
        <time>2020-05-28T09:13:51.000Z</time>
      </trkpt>
      <trkpt lat="45.8732" lon="5.49781">
        <ele>638.18338384605</ele>
        <time>2020-05-28T09:13:53.000Z</time>
      </trkpt>
      <trkpt lat="45.87322" lon="5.49781">
        <ele>637.96199936</ele>
        <time>2020-05-28T09:13:55.000Z</time>
      </trkpt>
      <trkpt lat="45.87325" lon="5.4978">
        <ele>637.36199936</ele>
        <time>2020-05-28T09:13:58.000Z</time>
      </trkpt>
      <trkpt lat="45.8733" lon="5.49779">
        <ele>636.56199936</ele>
        <time>2020-05-28T09:14:02.000Z</time>
      </trkpt>
      <trkpt lat="45.87333" lon="5.49778">
        <ele>636.16199936</ele>
        <time>2020-05-28T09:14:04.000Z</time>
      </trkpt>
      <trkpt lat="45.87335" lon="5.49777">
        <ele>636</ele>
        <time>2020-05-28T09:14:06.000Z</time>
      </trkpt>
      <trkpt lat="45.87337" lon="5.49777">
        <ele>636</ele>
        <time>2020-05-28T09:14:08.000Z</time>
      </trkpt>
      <trkpt lat="45.8734" lon="5.49776">
        <ele>636</ele>
        <time>2020-05-28T09:14:10.000Z</time>
      </trkpt>
      <trkpt lat="45.87344" lon="5.49774">
        <ele>636</ele>
        <time>2020-05-28T09:14:13.000Z</time>
      </trkpt>
      <trkpt lat="45.87347" lon="5.49773">
        <ele>636</ele>
        <time>2020-05-28T09:14:15.000Z</time>
      </trkpt>
      <trkpt lat="45.87349" lon="5.49772">
        <ele>635.8026720831</ele>
        <time>2020-05-28T09:14:17.000Z</time>
      </trkpt>
      <trkpt lat="45.87352" lon="5.49771">
        <ele>635.59712216966</ele>
        <time>2020-05-28T09:14:19.000Z</time>
      </trkpt>
      <trkpt lat="45.87355" lon="5.49771">
        <ele>635.39157225622</ele>
        <time>2020-05-28T09:14:21.000Z</time>
      </trkpt>
      <trkpt lat="45.87357" lon="5.4977">
        <ele>635.18602234278</ele>
        <time>2020-05-28T09:14:23.000Z</time>
      </trkpt>
      <trkpt lat="45.87359" lon="5.49769">
        <ele>634.98109422701</ele>
        <time>2020-05-28T09:14:25.000Z</time>
      </trkpt>
      <trkpt lat="45.87362" lon="5.49768">
        <ele>634.78208944198</ele>
        <time>2020-05-28T09:14:27.000Z</time>
      </trkpt>
      <trkpt lat="45.87364" lon="5.49767">
        <ele>634.58308465695</ele>
        <time>2020-05-28T09:14:29.000Z</time>
      </trkpt>
      <trkpt lat="45.87367" lon="5.49766">
        <ele>634.38407987192</ele>
        <time>2020-05-28T09:14:31.000Z</time>
      </trkpt>
      <trkpt lat="45.87369" lon="5.49765">
        <ele>634.18507508689</ele>
        <time>2020-05-28T09:14:33.000Z</time>
      </trkpt>
      <trkpt lat="45.87372" lon="5.49764">
        <ele>634</ele>
        <time>2020-05-28T09:14:35.000Z</time>
      </trkpt>
      <trkpt lat="45.87374" lon="5.49762">
        <ele>634</ele>
        <time>2020-05-28T09:14:37.000Z</time>
      </trkpt>
      <trkpt lat="45.87377" lon="5.49762">
        <ele>634</ele>
        <time>2020-05-28T09:14:39.000Z</time>
      </trkpt>
      <trkpt lat="45.87379" lon="5.49761">
        <ele>634</ele>
        <time>2020-05-28T09:14:41.000Z</time>
      </trkpt>
      <trkpt lat="45.87382" lon="5.4976">
        <ele>634</ele>
        <time>2020-05-28T09:14:43.000Z</time>
      </trkpt>
      <trkpt lat="45.87384" lon="5.49759">
        <ele>633.98099968</ele>
        <time>2020-05-28T09:14:45.000Z</time>
      </trkpt>
      <trkpt lat="45.87387" lon="5.49758">
        <ele>633.78099968</ele>
        <time>2020-05-28T09:14:47.000Z</time>
      </trkpt>
      <trkpt lat="45.87389" lon="5.49757">
        <ele>633.58099968</ele>
        <time>2020-05-28T09:14:49.000Z</time>
      </trkpt>
      <trkpt lat="45.87392" lon="5.49756">
        <ele>633.38099968</ele>
        <time>2020-05-28T09:14:51.000Z</time>
      </trkpt>
      <trkpt lat="45.87394" lon="5.49755">
        <ele>633.18099968</ele>
        <time>2020-05-28T09:14:53.000Z</time>
      </trkpt>
      <trkpt lat="45.87396" lon="5.49754">
        <ele>632.96199936</ele>
        <time>2020-05-28T09:14:55.000Z</time>
      </trkpt>
      <trkpt lat="45.87398" lon="5.49754">
        <ele>632.56199936</ele>
        <time>2020-05-28T09:14:57.000Z</time>
      </trkpt>
      <trkpt lat="45.87401" lon="5.49752">
        <ele>632.16199936</ele>
        <time>2020-05-28T09:14:59.000Z</time>
      </trkpt>
      <trkpt lat="45.87403" lon="5.4975">
        <ele>631.76199936</ele>
        <time>2020-05-28T09:15:01.000Z</time>
      </trkpt>
      <trkpt lat="45.87405" lon="5.49748">
        <ele>631.36199936</ele>
        <time>2020-05-28T09:15:03.000Z</time>
      </trkpt>
      <trkpt lat="45.87407" lon="5.49747">
        <ele>631</ele>
        <time>2020-05-28T09:15:05.000Z</time>
      </trkpt>
      <trkpt lat="45.87409" lon="5.49745">
        <ele>631</ele>
        <time>2020-05-28T09:15:07.000Z</time>
      </trkpt>
      <trkpt lat="45.87411" lon="5.49743">
        <ele>631</ele>
        <time>2020-05-28T09:15:09.000Z</time>
      </trkpt>
      <trkpt lat="45.87413" lon="5.49741">
        <ele>631</ele>
        <time>2020-05-28T09:15:11.000Z</time>
      </trkpt>
      <trkpt lat="45.87415" lon="5.49738">
        <ele>631</ele>
        <time>2020-05-28T09:15:13.000Z</time>
      </trkpt>
      <trkpt lat="45.87417" lon="5.49735">
        <ele>630.99090940826</ele>
        <time>2020-05-28T09:15:15.000Z</time>
      </trkpt>
      <trkpt lat="45.87419" lon="5.49733">
        <ele>630.78888907564</ele>
        <time>2020-05-28T09:15:17.000Z</time>
      </trkpt>
      <trkpt lat="45.8742" lon="5.49731">
        <ele>630.58686874303</ele>
        <time>2020-05-28T09:15:19.000Z</time>
      </trkpt>
      <trkpt lat="45.87422" lon="5.49729">
        <ele>630.38484841041</ele>
        <time>2020-05-28T09:15:21.000Z</time>
      </trkpt>
      <trkpt lat="45.87424" lon="5.49727">
        <ele>630.18282807779</ele>
        <time>2020-05-28T09:15:23.000Z</time>
      </trkpt>
      <trkpt lat="45.87426" lon="5.49726">
        <ele>629.94299904</ele>
        <time>2020-05-28T09:15:25.000Z</time>
      </trkpt>
      <trkpt lat="45.87428" lon="5.49725">
        <ele>629.34299904</ele>
        <time>2020-05-28T09:15:27.000Z</time>
      </trkpt>
      <trkpt lat="45.8743" lon="5.49724">
        <ele>628.74299904</ele>
        <time>2020-05-28T09:15:29.000Z</time>
      </trkpt>
      <trkpt lat="45.87431" lon="5.49722">
        <ele>628.14299904</ele>
        <time>2020-05-28T09:15:31.000Z</time>
      </trkpt>
      <trkpt lat="45.87433" lon="5.49721">
        <ele>627.54299904</ele>
        <time>2020-05-28T09:15:33.000Z</time>
      </trkpt>
      <trkpt lat="45.87435" lon="5.4972">
        <ele>626.96199936</ele>
        <time>2020-05-28T09:15:35.000Z</time>
      </trkpt>
      <trkpt lat="45.87437" lon="5.49718">
        <ele>626.56199936</ele>
        <time>2020-05-28T09:15:37.000Z</time>
      </trkpt>
      <trkpt lat="45.87438" lon="5.49717">
        <ele>626.16199936</ele>
        <time>2020-05-28T09:15:39.000Z</time>
      </trkpt>
      <trkpt lat="45.8744" lon="5.49716">
        <ele>625.76199936</ele>
        <time>2020-05-28T09:15:41.000Z</time>
      </trkpt>
      <trkpt lat="45.87443" lon="5.49715">
        <ele>625.16199936</ele>
        <time>2020-05-28T09:15:44.000Z</time>
      </trkpt>
      <trkpt lat="45.87444" lon="5.49714">
        <ele>624.76412218485</ele>
        <time>2020-05-28T09:15:46.000Z</time>
      </trkpt>
      <trkpt lat="45.87446" lon="5.49713">
        <ele>624.36768994813</ele>
        <time>2020-05-28T09:15:48.000Z</time>
      </trkpt>
      <trkpt lat="45.87448" lon="5.49712">
        <ele>623.9712577114</ele>
        <time>2020-05-28T09:15:50.000Z</time>
      </trkpt>
      <trkpt lat="45.8745" lon="5.49711">
        <ele>623.57482547467</ele>
        <time>2020-05-28T09:15:52.000Z</time>
      </trkpt>
      <trkpt lat="45.87452" lon="5.49709">
        <ele>623.17839323794</ele>
        <time>2020-05-28T09:15:54.000Z</time>
      </trkpt>
      <trkpt lat="45.87454" lon="5.49708">
        <ele>622.67615130877</ele>
        <time>2020-05-28T09:15:56.000Z</time>
      </trkpt>
      <trkpt lat="45.87456" lon="5.49706">
        <ele>622.08733893234</ele>
        <time>2020-05-28T09:15:58.000Z</time>
      </trkpt>
      <trkpt lat="45.87458" lon="5.49705">
        <ele>621.49852655591</ele>
        <time>2020-05-28T09:16:00.000Z</time>
      </trkpt>
      <trkpt lat="45.87461" lon="5.49704">
        <ele>620.61530799127</ele>
        <time>2020-05-28T09:16:03.000Z</time>
      </trkpt>
      <trkpt lat="45.87463" lon="5.49703">
        <ele>619.90637827161</ele>
        <time>2020-05-28T09:16:06.000Z</time>
      </trkpt>
      <trkpt lat="45.87465" lon="5.49701">
        <ele>619.5977362963</ele>
        <time>2020-05-28T09:16:09.000Z</time>
      </trkpt>
      <trkpt lat="45.87467" lon="5.497">
        <ele>619.39197497942</ele>
        <time>2020-05-28T09:16:11.000Z</time>
      </trkpt>
      <trkpt lat="45.87469" lon="5.49699">
        <ele>619.18621366255</ele>
        <time>2020-05-28T09:16:13.000Z</time>
      </trkpt>
      <trkpt lat="45.87471" lon="5.49698">
        <ele>618.94780131868</ele>
        <time>2020-05-28T09:16:15.000Z</time>
      </trkpt>
      <trkpt lat="45.87473" lon="5.49697">
        <ele>618.39835076923</ele>
        <time>2020-05-28T09:16:17.000Z</time>
      </trkpt>
      <trkpt lat="45.87475" lon="5.49695">
        <ele>617.57417494506</ele>
        <time>2020-05-28T09:16:20.000Z</time>
      </trkpt>
      <trkpt lat="45.87478" lon="5.49692">
        <ele>617.0247243956</ele>
        <time>2020-05-28T09:16:22.000Z</time>
      </trkpt>
      <trkpt lat="45.8748" lon="5.4969">
        <ele>616.47527384615</ele>
        <time>2020-05-28T09:16:24.000Z</time>
      </trkpt>
      <trkpt lat="45.87482" lon="5.49688">
        <ele>615.97055580216</ele>
        <time>2020-05-28T09:16:26.000Z</time>
      </trkpt>
      <trkpt lat="45.87484" lon="5.49686">
        <ele>615.75245321787</ele>
        <time>2020-05-28T09:16:28.000Z</time>
      </trkpt>
      <trkpt lat="45.87486" lon="5.49683">
        <ele>615.53435063358</ele>
        <time>2020-05-28T09:16:30.000Z</time>
      </trkpt>
      <trkpt lat="45.87487" lon="5.4968">
        <ele>615.31624804929</ele>
        <time>2020-05-28T09:16:32.000Z</time>
      </trkpt>
      <trkpt lat="45.87488" lon="5.49676">
        <ele>614.98990854009</ele>
        <time>2020-05-28T09:16:35.000Z</time>
      </trkpt>
      <trkpt lat="45.87488" lon="5.49674">
        <ele>614.78809225813</ele>
        <time>2020-05-28T09:16:37.000Z</time>
      </trkpt>
      <trkpt lat="45.87489" lon="5.49671">
        <ele>614.58627597618</ele>
        <time>2020-05-28T09:16:39.000Z</time>
      </trkpt>
      <trkpt lat="45.87491" lon="5.49668">
        <ele>614.38445969422</ele>
        <time>2020-05-28T09:16:41.000Z</time>
      </trkpt>
      <trkpt lat="45.87493" lon="5.49665">
        <ele>614.18264341226</ele>
        <time>2020-05-28T09:16:43.000Z</time>
      </trkpt>
      <trkpt lat="45.87495" lon="5.49662">
        <ele>613.98101865527</ele>
        <time>2020-05-28T09:16:45.000Z</time>
      </trkpt>
      <trkpt lat="45.87496" lon="5.49659">
        <ele>613.7812183916</ele>
        <time>2020-05-28T09:16:47.000Z</time>
      </trkpt>
      <trkpt lat="45.87497" lon="5.49655">
        <ele>613.58141812793</ele>
        <time>2020-05-28T09:16:49.000Z</time>
      </trkpt>
      <trkpt lat="45.87496" lon="5.49651">
        <ele>613.38161786425</ele>
        <time>2020-05-28T09:16:51.000Z</time>
      </trkpt>
      <trkpt lat="45.87498" lon="5.49646">
        <ele>613.18181760058</ele>
        <time>2020-05-28T09:16:53.000Z</time>
      </trkpt>
      <trkpt lat="45.87499" lon="5.49642">
        <ele>612.98198134711</ele>
        <time>2020-05-28T09:16:55.000Z</time>
      </trkpt>
      <trkpt lat="45.875" lon="5.49638">
        <ele>612.78178121104</ele>
        <time>2020-05-28T09:16:57.000Z</time>
      </trkpt>
      <trkpt lat="45.875" lon="5.49635">
        <ele>612.58158107497</ele>
        <time>2020-05-28T09:16:59.000Z</time>
      </trkpt>
      <trkpt lat="45.87501" lon="5.49631">
        <ele>612.3813809389</ele>
        <time>2020-05-28T09:17:01.000Z</time>
      </trkpt>
      <trkpt lat="45.87502" lon="5.49627">
        <ele>612.18118080282</ele>
        <time>2020-05-28T09:17:03.000Z</time>
      </trkpt>
      <trkpt lat="45.87503" lon="5.49624">
        <ele>612</ele>
        <time>2020-05-28T09:17:05.000Z</time>
      </trkpt>
      <trkpt lat="45.87504" lon="5.49621">
        <ele>612</ele>
        <time>2020-05-28T09:17:07.000Z</time>
      </trkpt>
      <trkpt lat="45.87505" lon="5.49618">
        <ele>612</ele>
        <time>2020-05-28T09:17:09.000Z</time>
      </trkpt>
      <trkpt lat="45.87506" lon="5.49615">
        <ele>612</ele>
        <time>2020-05-28T09:17:11.000Z</time>
      </trkpt>
      <trkpt lat="45.87507" lon="5.49612">
        <ele>612</ele>
        <time>2020-05-28T09:17:13.000Z</time>
      </trkpt>
      <trkpt lat="45.87508" lon="5.4961">
        <ele>611.98099968</ele>
        <time>2020-05-28T09:17:15.000Z</time>
      </trkpt>
      <trkpt lat="45.8751" lon="5.49607">
        <ele>611.78099968</ele>
        <time>2020-05-28T09:17:17.000Z</time>
      </trkpt>
      <trkpt lat="45.87511" lon="5.49604">
        <ele>611.58099968</ele>
        <time>2020-05-28T09:17:19.000Z</time>
      </trkpt>
      <trkpt lat="45.87512" lon="5.49601">
        <ele>611.38099968</ele>
        <time>2020-05-28T09:17:21.000Z</time>
      </trkpt>
      <trkpt lat="45.87514" lon="5.49598">
        <ele>611.18099968</ele>
        <time>2020-05-28T09:17:23.000Z</time>
      </trkpt>
      <trkpt lat="45.87515" lon="5.49596">
        <ele>610.98099968</ele>
        <time>2020-05-28T09:17:25.000Z</time>
      </trkpt>
      <trkpt lat="45.87517" lon="5.49594">
        <ele>610.78099968</ele>
        <time>2020-05-28T09:17:27.000Z</time>
      </trkpt>
      <trkpt lat="45.87518" lon="5.49591">
        <ele>610.58099968</ele>
        <time>2020-05-28T09:17:29.000Z</time>
      </trkpt>
      <trkpt lat="45.8752" lon="5.49589">
        <ele>610.38099968</ele>
        <time>2020-05-28T09:17:31.000Z</time>
      </trkpt>
      <trkpt lat="45.87521" lon="5.49586">
        <ele>610.18099968</ele>
        <time>2020-05-28T09:17:33.000Z</time>
      </trkpt>
      <trkpt lat="45.87522" lon="5.49583">
        <ele>610</ele>
        <time>2020-05-28T09:17:35.000Z</time>
      </trkpt>
      <trkpt lat="45.87523" lon="5.49579">
        <ele>610</ele>
        <time>2020-05-28T09:17:37.000Z</time>
      </trkpt>
      <trkpt lat="45.87524" lon="5.49577">
        <ele>610</ele>
        <time>2020-05-28T09:17:39.000Z</time>
      </trkpt>
      <trkpt lat="45.87525" lon="5.49574">
        <ele>610</ele>
        <time>2020-05-28T09:17:41.000Z</time>
      </trkpt>
      <trkpt lat="45.87526" lon="5.49571">
        <ele>610</ele>
        <time>2020-05-28T09:17:43.000Z</time>
      </trkpt>
      <trkpt lat="45.87527" lon="5.49568">
        <ele>609.98124353209</ele>
        <time>2020-05-28T09:17:45.000Z</time>
      </trkpt>
      <trkpt lat="45.87528" lon="5.49566">
        <ele>609.78381035295</ele>
        <time>2020-05-28T09:17:47.000Z</time>
      </trkpt>
      <trkpt lat="45.87529" lon="5.49563">
        <ele>609.58637717382</ele>
        <time>2020-05-28T09:17:49.000Z</time>
      </trkpt>
      <trkpt lat="45.8753" lon="5.49561">
        <ele>609.38894399468</ele>
        <time>2020-05-28T09:17:51.000Z</time>
      </trkpt>
      <trkpt lat="45.87532" lon="5.49559">
        <ele>609.09279422598</ele>
        <time>2020-05-28T09:17:54.000Z</time>
      </trkpt>
      <trkpt lat="45.87534" lon="5.49558">
        <ele>609.10739560598</ele>
        <time>2020-05-28T09:17:56.000Z</time>
      </trkpt>
      <trkpt lat="45.87536" lon="5.49557">
        <ele>609.31003004826</ele>
        <time>2020-05-28T09:17:58.000Z</time>
      </trkpt>
      <trkpt lat="45.87538" lon="5.49555">
        <ele>609.51266449054</ele>
        <time>2020-05-28T09:18:00.000Z</time>
      </trkpt>
      <trkpt lat="45.8754" lon="5.49554">
        <ele>609.71529893281</ele>
        <time>2020-05-28T09:18:02.000Z</time>
      </trkpt>
      <trkpt lat="45.87541" lon="5.49553">
        <ele>610</ele>
        <time>2020-05-28T09:18:05.000Z</time>
      </trkpt>
      <trkpt lat="45.87541" lon="5.49556">
        <ele>610</ele>
        <time>2020-05-28T09:18:09.000Z</time>
      </trkpt>
      <trkpt lat="45.87539" lon="5.49554">
        <ele>609.51900032</ele>
        <time>2020-05-28T09:18:30.000Z</time>
      </trkpt>
      <trkpt lat="45.87541" lon="5.49556">
        <ele>610</ele>
        <time>2020-05-28T09:18:47.000Z</time>
      </trkpt>
      <trkpt lat="45.87544" lon="5.49554">
        <ele>610</ele>
        <time>2020-05-28T09:18:56.000Z</time>
      </trkpt>
      <trkpt lat="45.87546" lon="5.49554">
        <ele>610</ele>
        <time>2020-05-28T09:19:02.000Z</time>
      </trkpt>
      <trkpt lat="45.87549" lon="5.49553">
        <ele>610.01848280156</ele>
        <time>2020-05-28T09:19:05.000Z</time>
      </trkpt>
      <trkpt lat="45.87551" lon="5.49553">
        <ele>610.31031159533</ele>
        <time>2020-05-28T09:19:08.000Z</time>
      </trkpt>
      <trkpt lat="45.87555" lon="5.49549">
        <ele>611.11900032</ele>
        <time>2020-05-28T09:19:46.000Z</time>
      </trkpt>
      <trkpt lat="45.87557" lon="5.49549">
        <ele>611.51900032</ele>
        <time>2020-05-28T09:19:50.000Z</time>
      </trkpt>
      <trkpt lat="45.8756" lon="5.49549">
        <ele>611.81900032</ele>
        <time>2020-05-28T09:19:53.000Z</time>
      </trkpt>
      <trkpt lat="45.87562" lon="5.49549">
        <ele>612.11900032</ele>
        <time>2020-05-28T09:19:56.000Z</time>
      </trkpt>
      <trkpt lat="45.87563" lon="5.49548">
        <ele>612.31900032</ele>
        <time>2020-05-28T09:19:58.000Z</time>
      </trkpt>
      <trkpt lat="45.87566" lon="5.49546">
        <ele>612.61900032</ele>
        <time>2020-05-28T09:20:01.000Z</time>
      </trkpt>
      <trkpt lat="45.87567" lon="5.49544">
        <ele>612.81900032</ele>
        <time>2020-05-28T09:20:03.000Z</time>
      </trkpt>
      <trkpt lat="45.87569" lon="5.49542">
        <ele>613.01877501976</ele>
        <time>2020-05-28T09:20:05.000Z</time>
      </trkpt>
      <trkpt lat="45.87571" lon="5.4954">
        <ele>613.31521770751</ele>
        <time>2020-05-28T09:20:08.000Z</time>
      </trkpt>
      <trkpt lat="45.87572" lon="5.49539">
        <ele>613.51284616601</ele>
        <time>2020-05-28T09:20:10.000Z</time>
      </trkpt>
      <trkpt lat="45.87574" lon="5.49537">
        <ele>613.71047462451</ele>
        <time>2020-05-28T09:20:12.000Z</time>
      </trkpt>
      <trkpt lat="45.87576" lon="5.49535">
        <ele>613.908103083</ele>
        <time>2020-05-28T09:20:14.000Z</time>
      </trkpt>
      <trkpt lat="45.87577" lon="5.49532">
        <ele>614</ele>
        <time>2020-05-28T09:20:16.000Z</time>
      </trkpt>
      <trkpt lat="45.87579" lon="5.49529">
        <ele>614</ele>
        <time>2020-05-28T09:20:18.000Z</time>
      </trkpt>
      <trkpt lat="45.8758" lon="5.49526">
        <ele>614</ele>
        <time>2020-05-28T09:20:20.000Z</time>
      </trkpt>
      <trkpt lat="45.87582" lon="5.49523">
        <ele>614</ele>
        <time>2020-05-28T09:20:22.000Z</time>
      </trkpt>
      <trkpt lat="45.87584" lon="5.49521">
        <ele>614</ele>
        <time>2020-05-28T09:20:24.000Z</time>
      </trkpt>
      <trkpt lat="45.87585" lon="5.49519">
        <ele>613.88099968</ele>
        <time>2020-05-28T09:20:26.000Z</time>
      </trkpt>
      <trkpt lat="45.87587" lon="5.49516">
        <ele>613.68099968</ele>
        <time>2020-05-28T09:20:28.000Z</time>
      </trkpt>
      <trkpt lat="45.87587" lon="5.49514">
        <ele>613.48099968</ele>
        <time>2020-05-28T09:20:30.000Z</time>
      </trkpt>
      <trkpt lat="45.87589" lon="5.49511">
        <ele>612</ele>
        <time>2020-05-28T09:20:48.000Z</time>
      </trkpt>
      <trkpt lat="45.87591" lon="5.4951">
        <ele>612</ele>
        <time>2020-05-28T09:20:52.000Z</time>
      </trkpt>
      <trkpt lat="45.87593" lon="5.49508">
        <ele>612</ele>
        <time>2020-05-28T09:20:54.000Z</time>
      </trkpt>
      <trkpt lat="45.87595" lon="5.49506">
        <ele>612</ele>
        <time>2020-05-28T09:20:56.000Z</time>
      </trkpt>
      <trkpt lat="45.87596" lon="5.49504">
        <ele>612</ele>
        <time>2020-05-28T09:20:58.000Z</time>
      </trkpt>
      <trkpt lat="45.87598" lon="5.49502">
        <ele>612</ele>
        <time>2020-05-28T09:21:00.000Z</time>
      </trkpt>
      <trkpt lat="45.87602" lon="5.49499">
        <ele>612</ele>
        <time>2020-05-28T09:21:03.000Z</time>
      </trkpt>
      <trkpt lat="45.87606" lon="5.49493">
        <ele>612</ele>
        <time>2020-05-28T09:21:07.000Z</time>
      </trkpt>
      <trkpt lat="45.87608" lon="5.49493">
        <ele>612</ele>
        <time>2020-05-28T09:21:09.000Z</time>
      </trkpt>
      <trkpt lat="45.8761" lon="5.49491">
        <ele>612</ele>
        <time>2020-05-28T09:21:12.000Z</time>
      </trkpt>
      <trkpt lat="45.87612" lon="5.49492">
        <ele>612</ele>
        <time>2020-05-28T09:21:15.000Z</time>
      </trkpt>
      <trkpt lat="45.87614" lon="5.49491">
        <ele>612</ele>
        <time>2020-05-28T09:21:32.000Z</time>
      </trkpt>
      <trkpt lat="45.87617" lon="5.49492">
        <ele>612</ele>
        <time>2020-05-28T09:21:41.000Z</time>
      </trkpt>
      <trkpt lat="45.87619" lon="5.49493">
        <ele>612</ele>
        <time>2020-05-28T09:21:47.000Z</time>
      </trkpt>
      <trkpt lat="45.87621" lon="5.49493">
        <ele>612</ele>
        <time>2020-05-28T09:22:05.000Z</time>
      </trkpt>
      <trkpt lat="45.87624" lon="5.49493">
        <ele>612</ele>
        <time>2020-05-28T09:22:08.000Z</time>
      </trkpt>
      <trkpt lat="45.87626" lon="5.49493">
        <ele>612</ele>
        <time>2020-05-28T09:22:10.000Z</time>
      </trkpt>
      <trkpt lat="45.8763" lon="5.49493">
        <ele>612</ele>
        <time>2020-05-28T09:22:13.000Z</time>
      </trkpt>
      <trkpt lat="45.87632" lon="5.49494">
        <ele>611.99311670266</ele>
        <time>2020-05-28T09:22:15.000Z</time>
      </trkpt>
      <trkpt lat="45.87634" lon="5.49494">
        <ele>611.79646005447</ele>
        <time>2020-05-28T09:22:17.000Z</time>
      </trkpt>
      <trkpt lat="45.87636" lon="5.49494">
        <ele>611.59980340628</ele>
        <time>2020-05-28T09:22:19.000Z</time>
      </trkpt>
      <trkpt lat="45.87638" lon="5.49493">
        <ele>611.40314675809</ele>
        <time>2020-05-28T09:22:21.000Z</time>
      </trkpt>
      <trkpt lat="45.8764" lon="5.49493">
        <ele>611.10816178581</ele>
        <time>2020-05-28T09:22:24.000Z</time>
      </trkpt>
      <trkpt lat="45.8765" lon="5.4949">
        <ele>610.28939233555</ele>
        <time>2020-05-28T09:22:32.000Z</time>
      </trkpt>
      <trkpt lat="45.87656" lon="5.49488">
        <ele>609.78099968</ele>
        <time>2020-05-28T09:22:37.000Z</time>
      </trkpt>
      <trkpt lat="45.87658" lon="5.49487">
        <ele>609.58099968</ele>
        <time>2020-05-28T09:22:39.000Z</time>
      </trkpt>
      <trkpt lat="45.87659" lon="5.49486">
        <ele>609.38099968</ele>
        <time>2020-05-28T09:22:41.000Z</time>
      </trkpt>
      <trkpt lat="45.87661" lon="5.49484">
        <ele>609.18099968</ele>
        <time>2020-05-28T09:22:43.000Z</time>
      </trkpt>
      <trkpt lat="45.87663" lon="5.49483">
        <ele>608.98099968</ele>
        <time>2020-05-28T09:22:45.000Z</time>
      </trkpt>
      <trkpt lat="45.87665" lon="5.49481">
        <ele>608.78099968</ele>
        <time>2020-05-28T09:22:47.000Z</time>
      </trkpt>
      <trkpt lat="45.87667" lon="5.4948">
        <ele>608.58099968</ele>
        <time>2020-05-28T09:22:49.000Z</time>
      </trkpt>
      <trkpt lat="45.8767" lon="5.49479">
        <ele>608.38099968</ele>
        <time>2020-05-28T09:22:51.000Z</time>
      </trkpt>
      <trkpt lat="45.87672" lon="5.49478">
        <ele>608.18099968</ele>
        <time>2020-05-28T09:22:53.000Z</time>
      </trkpt>
      <trkpt lat="45.87674" lon="5.49477">
        <ele>607.98099968</ele>
        <time>2020-05-28T09:22:55.000Z</time>
      </trkpt>
      <trkpt lat="45.87677" lon="5.49476">
        <ele>607.78099968</ele>
        <time>2020-05-28T09:22:57.000Z</time>
      </trkpt>
      <trkpt lat="45.87679" lon="5.49474">
        <ele>607.58099968</ele>
        <time>2020-05-28T09:22:59.000Z</time>
      </trkpt>
      <trkpt lat="45.8768" lon="5.49472">
        <ele>607.38099968</ele>
        <time>2020-05-28T09:23:01.000Z</time>
      </trkpt>
      <trkpt lat="45.87682" lon="5.4947">
        <ele>607.18099968</ele>
        <time>2020-05-28T09:23:03.000Z</time>
      </trkpt>
      <trkpt lat="45.87684" lon="5.49469">
        <ele>607</ele>
        <time>2020-05-28T09:23:05.000Z</time>
      </trkpt>
      <trkpt lat="45.87686" lon="5.49467">
        <ele>607</ele>
        <time>2020-05-28T09:23:07.000Z</time>
      </trkpt>
      <trkpt lat="45.87688" lon="5.49465">
        <ele>607</ele>
        <time>2020-05-28T09:23:09.000Z</time>
      </trkpt>
      <trkpt lat="45.8769" lon="5.49463">
        <ele>607</ele>
        <time>2020-05-28T09:23:11.000Z</time>
      </trkpt>
      <trkpt lat="45.87691" lon="5.49461">
        <ele>607</ele>
        <time>2020-05-28T09:23:13.000Z</time>
      </trkpt>
      <trkpt lat="45.87693" lon="5.49459">
        <ele>606.99090940826</ele>
        <time>2020-05-28T09:23:15.000Z</time>
      </trkpt>
      <trkpt lat="45.87695" lon="5.49457">
        <ele>606.78888907564</ele>
        <time>2020-05-28T09:23:17.000Z</time>
      </trkpt>
      <trkpt lat="45.87697" lon="5.49455">
        <ele>606.58686874303</ele>
        <time>2020-05-28T09:23:19.000Z</time>
      </trkpt>
      <trkpt lat="45.87699" lon="5.49453">
        <ele>606.38484841041</ele>
        <time>2020-05-28T09:23:21.000Z</time>
      </trkpt>
      <trkpt lat="45.87701" lon="5.49451">
        <ele>606.18282807779</ele>
        <time>2020-05-28T09:23:23.000Z</time>
      </trkpt>
      <trkpt lat="45.87703" lon="5.49449">
        <ele>606</ele>
        <time>2020-05-28T09:23:25.000Z</time>
      </trkpt>
      <trkpt lat="45.87704" lon="5.49447">
        <ele>606</ele>
        <time>2020-05-28T09:23:28.000Z</time>
      </trkpt>
      <trkpt lat="45.87706" lon="5.49445">
        <ele>606</ele>
        <time>2020-05-28T09:23:32.000Z</time>
      </trkpt>
      <trkpt lat="45.87705" lon="5.49442">
        <ele>605.59462104734</ele>
        <time>2020-05-28T09:23:51.000Z</time>
      </trkpt>
      <trkpt lat="45.87703" lon="5.4944">
        <ele>605.97886708284</ele>
        <time>2020-05-28T09:23:55.000Z</time>
      </trkpt>
      <trkpt lat="45.87701" lon="5.49438">
        <ele>606.18388495868</ele>
        <time>2020-05-28T09:23:57.000Z</time>
      </trkpt>
      <trkpt lat="45.87699" lon="5.49437">
        <ele>606.39049652893</ele>
        <time>2020-05-28T09:23:59.000Z</time>
      </trkpt>
      <trkpt lat="45.87697" lon="5.49436">
        <ele>606.59710809917</ele>
        <time>2020-05-28T09:24:01.000Z</time>
      </trkpt>
      <trkpt lat="45.87695" lon="5.49435">
        <ele>606.80371966942</ele>
        <time>2020-05-28T09:24:03.000Z</time>
      </trkpt>
      <trkpt lat="45.87693" lon="5.49435">
        <ele>607</ele>
        <time>2020-05-28T09:24:05.000Z</time>
      </trkpt>
      <trkpt lat="45.87691" lon="5.49434">
        <ele>607</ele>
        <time>2020-05-28T09:24:07.000Z</time>
      </trkpt>
      <trkpt lat="45.8769" lon="5.49433">
        <ele>607</ele>
        <time>2020-05-28T09:24:09.000Z</time>
      </trkpt>
      <trkpt lat="45.87688" lon="5.49433">
        <ele>607</ele>
        <time>2020-05-28T09:24:11.000Z</time>
      </trkpt>
      <trkpt lat="45.87686" lon="5.49434">
        <ele>607</ele>
        <time>2020-05-28T09:24:13.000Z</time>
      </trkpt>
      <trkpt lat="45.87684" lon="5.49434">
        <ele>607.11900032</ele>
        <time>2020-05-28T09:24:16.000Z</time>
      </trkpt>
      <trkpt lat="45.87682" lon="5.49436">
        <ele>607.61900032</ele>
        <time>2020-05-28T09:24:21.000Z</time>
      </trkpt>
      <trkpt lat="45.8768" lon="5.49436">
        <ele>608</ele>
        <time>2020-05-28T09:24:27.000Z</time>
      </trkpt>
      <trkpt lat="45.87676" lon="5.49434">
        <ele>609</ele>
        <time>2020-05-28T09:24:54.000Z</time>
      </trkpt>
      <trkpt lat="45.87676" lon="5.4943">
        <ele>608.88099968</ele>
        <time>2020-05-28T09:24:56.000Z</time>
      </trkpt>
      <trkpt lat="45.87678" lon="5.49427">
        <ele>608.68099968</ele>
        <time>2020-05-28T09:24:58.000Z</time>
      </trkpt>
      <trkpt lat="45.87679" lon="5.49424">
        <ele>608.48099968</ele>
        <time>2020-05-28T09:25:00.000Z</time>
      </trkpt>
      <trkpt lat="45.8768" lon="5.49421">
        <ele>608.28099968</ele>
        <time>2020-05-28T09:25:02.000Z</time>
      </trkpt>
      <trkpt lat="45.8768" lon="5.49418">
        <ele>608.08099968</ele>
        <time>2020-05-28T09:25:04.000Z</time>
      </trkpt>
      <trkpt lat="45.87681" lon="5.49415">
        <ele>608.11900032</ele>
        <time>2020-05-28T09:25:06.000Z</time>
      </trkpt>
      <trkpt lat="45.87682" lon="5.49413">
        <ele>608.31900032</ele>
        <time>2020-05-28T09:25:08.000Z</time>
      </trkpt>
      <trkpt lat="45.87683" lon="5.4941">
        <ele>608.51900032</ele>
        <time>2020-05-28T09:25:10.000Z</time>
      </trkpt>
      <trkpt lat="45.87684" lon="5.49407">
        <ele>608.71900032</ele>
        <time>2020-05-28T09:25:12.000Z</time>
      </trkpt>
      <trkpt lat="45.87685" lon="5.49404">
        <ele>609.01900032</ele>
        <time>2020-05-28T09:25:15.000Z</time>
      </trkpt>
      <trkpt lat="45.87685" lon="5.49401">
        <ele>609.21900032</ele>
        <time>2020-05-28T09:25:17.000Z</time>
      </trkpt>
      <trkpt lat="45.87686" lon="5.49399">
        <ele>609.41900032</ele>
        <time>2020-05-28T09:25:19.000Z</time>
      </trkpt>
      <trkpt lat="45.87687" lon="5.49396">
        <ele>609.61900032</ele>
        <time>2020-05-28T09:25:21.000Z</time>
      </trkpt>
      <trkpt lat="45.87688" lon="5.49393">
        <ele>609.81900032</ele>
        <time>2020-05-28T09:25:23.000Z</time>
      </trkpt>
      <trkpt lat="45.87689" lon="5.4939">
        <ele>610</ele>
        <time>2020-05-28T09:25:25.000Z</time>
      </trkpt>
      <trkpt lat="45.8769" lon="5.49388">
        <ele>610</ele>
        <time>2020-05-28T09:25:27.000Z</time>
      </trkpt>
      <trkpt lat="45.87692" lon="5.49384">
        <ele>610</ele>
        <time>2020-05-28T09:25:30.000Z</time>
      </trkpt>
      <trkpt lat="45.87693" lon="5.49382">
        <ele>610</ele>
        <time>2020-05-28T09:25:32.000Z</time>
      </trkpt>
      <trkpt lat="45.87694" lon="5.4938">
        <ele>610</ele>
        <time>2020-05-28T09:25:34.000Z</time>
      </trkpt>
      <trkpt lat="45.87695" lon="5.49377">
        <ele>610.09268738309</ele>
        <time>2020-05-28T09:25:36.000Z</time>
      </trkpt>
      <trkpt lat="45.87696" lon="5.49374">
        <ele>610.29866081021</ele>
        <time>2020-05-28T09:25:38.000Z</time>
      </trkpt>
      <trkpt lat="45.87696" lon="5.49372">
        <ele>610.50463423733</ele>
        <time>2020-05-28T09:25:40.000Z</time>
      </trkpt>
      <trkpt lat="45.87697" lon="5.49369">
        <ele>610.81359437801</ele>
        <time>2020-05-28T09:25:43.000Z</time>
      </trkpt>
      <trkpt lat="45.87698" lon="5.49366">
        <ele>611.23800064</ele>
        <time>2020-05-28T09:25:46.000Z</time>
      </trkpt>
      <trkpt lat="45.87699" lon="5.49363">
        <ele>611.83800064</ele>
        <time>2020-05-28T09:25:49.000Z</time>
      </trkpt>
      <trkpt lat="45.87701" lon="5.4936">
        <ele>612.43800064</ele>
        <time>2020-05-28T09:25:52.000Z</time>
      </trkpt>
      <trkpt lat="45.87702" lon="5.49358">
        <ele>613.71047462451</ele>
        <time>2020-05-28T09:26:02.000Z</time>
      </trkpt>
      <trkpt lat="45.87702" lon="5.49355">
        <ele>614</ele>
        <time>2020-05-28T09:26:06.000Z</time>
      </trkpt>
      <trkpt lat="45.87703" lon="5.49353">
        <ele>614</ele>
        <time>2020-05-28T09:26:08.000Z</time>
      </trkpt>
      <trkpt lat="45.87703" lon="5.49349">
        <ele>614</ele>
        <time>2020-05-28T09:26:11.000Z</time>
      </trkpt>
      <trkpt lat="45.87704" lon="5.49346">
        <ele>614</ele>
        <time>2020-05-28T09:26:13.000Z</time>
      </trkpt>
      <trkpt lat="45.87704" lon="5.49343">
        <ele>614.0189623831</ele>
        <time>2020-05-28T09:26:15.000Z</time>
      </trkpt>
      <trkpt lat="45.87705" lon="5.4934">
        <ele>614.21856305401</ele>
        <time>2020-05-28T09:26:17.000Z</time>
      </trkpt>
      <trkpt lat="45.87705" lon="5.49336">
        <ele>614.41816372492</ele>
        <time>2020-05-28T09:26:19.000Z</time>
      </trkpt>
      <trkpt lat="45.87706" lon="5.49332">
        <ele>614.61776439584</ele>
        <time>2020-05-28T09:26:21.000Z</time>
      </trkpt>
      <trkpt lat="45.87706" lon="5.49328">
        <ele>614.81736506675</ele>
        <time>2020-05-28T09:26:23.000Z</time>
      </trkpt>
      <trkpt lat="45.87706" lon="5.49325">
        <ele>615.01698270273</ele>
        <time>2020-05-28T09:26:25.000Z</time>
      </trkpt>
      <trkpt lat="45.87707" lon="5.49322">
        <ele>615.2167829664</ele>
        <time>2020-05-28T09:26:27.000Z</time>
      </trkpt>
      <trkpt lat="45.87706" lon="5.49318">
        <ele>615.41658323008</ele>
        <time>2020-05-28T09:26:29.000Z</time>
      </trkpt>
      <trkpt lat="45.87706" lon="5.49314">
        <ele>615.61638349375</ele>
        <time>2020-05-28T09:26:31.000Z</time>
      </trkpt>
      <trkpt lat="45.87707" lon="5.49311">
        <ele>615.81618375742</ele>
        <time>2020-05-28T09:26:33.000Z</time>
      </trkpt>
      <trkpt lat="45.87708" lon="5.49308">
        <ele>616</ele>
        <time>2020-05-28T09:26:35.000Z</time>
      </trkpt>
      <trkpt lat="45.87708" lon="5.49305">
        <ele>616</ele>
        <time>2020-05-28T09:26:37.000Z</time>
      </trkpt>
      <trkpt lat="45.87709" lon="5.49302">
        <ele>616</ele>
        <time>2020-05-28T09:26:39.000Z</time>
      </trkpt>
      <trkpt lat="45.87709" lon="5.49298">
        <ele>616</ele>
        <time>2020-05-28T09:26:42.000Z</time>
      </trkpt>
      <trkpt lat="45.8771" lon="5.49295">
        <ele>616</ele>
        <time>2020-05-28T09:26:44.000Z</time>
      </trkpt>
      <trkpt lat="45.87711" lon="5.49291">
        <ele>615.88188127908</ele>
        <time>2020-05-28T09:26:46.000Z</time>
      </trkpt>
      <trkpt lat="45.87711" lon="5.49288">
        <ele>615.681681143</ele>
        <time>2020-05-28T09:26:48.000Z</time>
      </trkpt>
      <trkpt lat="45.87712" lon="5.49285">
        <ele>615.48148100693</ele>
        <time>2020-05-28T09:26:50.000Z</time>
      </trkpt>
      <trkpt lat="45.87712" lon="5.49282">
        <ele>615.28128087086</ele>
        <time>2020-05-28T09:26:52.000Z</time>
      </trkpt>
      <trkpt lat="45.87712" lon="5.49278">
        <ele>615.08108073479</ele>
        <time>2020-05-28T09:26:54.000Z</time>
      </trkpt>
      <trkpt lat="45.87712" lon="5.49275">
        <ele>614.76199936</ele>
        <time>2020-05-28T09:26:56.000Z</time>
      </trkpt>
      <trkpt lat="45.87713" lon="5.49271">
        <ele>614.36199936</ele>
        <time>2020-05-28T09:26:58.000Z</time>
      </trkpt>
      <trkpt lat="45.87713" lon="5.49268">
        <ele>613.96199936</ele>
        <time>2020-05-28T09:27:00.000Z</time>
      </trkpt>
      <trkpt lat="45.87713" lon="5.49265">
        <ele>613.56199936</ele>
        <time>2020-05-28T09:27:02.000Z</time>
      </trkpt>
      <trkpt lat="45.87713" lon="5.49262">
        <ele>613.16199936</ele>
        <time>2020-05-28T09:27:04.000Z</time>
      </trkpt>
      <trkpt lat="45.87713" lon="5.49258">
        <ele>612.88252694252</ele>
        <time>2020-05-28T09:27:06.000Z</time>
      </trkpt>
      <trkpt lat="45.87713" lon="5.49255">
        <ele>612.68509376339</ele>
        <time>2020-05-28T09:27:08.000Z</time>
      </trkpt>
      <trkpt lat="45.87713" lon="5.49252">
        <ele>612.48766058425</ele>
        <time>2020-05-28T09:27:10.000Z</time>
      </trkpt>
      <trkpt lat="45.87714" lon="5.49248">
        <ele>612.29022740512</ele>
        <time>2020-05-28T09:27:12.000Z</time>
      </trkpt>
      <trkpt lat="45.87715" lon="5.49245">
        <ele>612.09279422598</ele>
        <time>2020-05-28T09:27:14.000Z</time>
      </trkpt>
      <trkpt lat="45.87715" lon="5.49241">
        <ele>611.89260439402</ele>
        <time>2020-05-28T09:27:16.000Z</time>
      </trkpt>
      <trkpt lat="45.87716" lon="5.49238">
        <ele>611.68996995174</ele>
        <time>2020-05-28T09:27:18.000Z</time>
      </trkpt>
      <trkpt lat="45.87716" lon="5.49234">
        <ele>611.48733550946</ele>
        <time>2020-05-28T09:27:20.000Z</time>
      </trkpt>
      <trkpt lat="45.87716" lon="5.49231">
        <ele>611.28470106719</ele>
        <time>2020-05-28T09:27:22.000Z</time>
      </trkpt>
      <trkpt lat="45.87717" lon="5.49227">
        <ele>611.08206662491</ele>
        <time>2020-05-28T09:27:24.000Z</time>
      </trkpt>
      <trkpt lat="45.87717" lon="5.49223">
        <ele>610.88099968</ele>
        <time>2020-05-28T09:27:26.000Z</time>
      </trkpt>
      <trkpt lat="45.87717" lon="5.49219">
        <ele>610.68099968</ele>
        <time>2020-05-28T09:27:28.000Z</time>
      </trkpt>
      <trkpt lat="45.87718" lon="5.49216">
        <ele>610.48099968</ele>
        <time>2020-05-28T09:27:30.000Z</time>
      </trkpt>
      <trkpt lat="45.87718" lon="5.49212">
        <ele>610.28099968</ele>
        <time>2020-05-28T09:27:32.000Z</time>
      </trkpt>
      <trkpt lat="45.87719" lon="5.4921">
        <ele>610.08099968</ele>
        <time>2020-05-28T09:27:34.000Z</time>
      </trkpt>
      <trkpt lat="45.8772" lon="5.49206">
        <ele>610</ele>
        <time>2020-05-28T09:27:36.000Z</time>
      </trkpt>
      <trkpt lat="45.87721" lon="5.49203">
        <ele>610</ele>
        <time>2020-05-28T09:27:38.000Z</time>
      </trkpt>
      <trkpt lat="45.87721" lon="5.49201">
        <ele>610</ele>
        <time>2020-05-28T09:27:40.000Z</time>
      </trkpt>
      <trkpt lat="45.87722" lon="5.49197">
        <ele>610</ele>
        <time>2020-05-28T09:27:43.000Z</time>
      </trkpt>
      <trkpt lat="45.87723" lon="5.49194">
        <ele>609.88217797565</ele>
        <time>2020-05-28T09:27:46.000Z</time>
      </trkpt>
      <trkpt lat="45.87724" lon="5.4919">
        <ele>609.5851484609</ele>
        <time>2020-05-28T09:27:49.000Z</time>
      </trkpt>
      <trkpt lat="45.87724" lon="5.49187">
        <ele>609.38712878439</ele>
        <time>2020-05-28T09:27:51.000Z</time>
      </trkpt>
      <trkpt lat="45.87725" lon="5.49184">
        <ele>609.18910910789</ele>
        <time>2020-05-28T09:27:53.000Z</time>
      </trkpt>
      <trkpt lat="45.87726" lon="5.49182">
        <ele>609.11010075804</ele>
        <time>2020-05-28T09:27:56.000Z</time>
      </trkpt>
      <trkpt lat="45.87726" lon="5.49178">
        <ele>610</ele>
        <time>2020-05-28T09:28:05.000Z</time>
      </trkpt>
      <trkpt lat="45.87726" lon="5.49174">
        <ele>610</ele>
        <time>2020-05-28T09:28:08.000Z</time>
      </trkpt>
      <trkpt lat="45.87726" lon="5.49169">
        <ele>610</ele>
        <time>2020-05-28T09:28:10.000Z</time>
      </trkpt>
      <trkpt lat="45.87726" lon="5.49165">
        <ele>610</ele>
        <time>2020-05-28T09:28:12.000Z</time>
      </trkpt>
      <trkpt lat="45.87725" lon="5.49161">
        <ele>610</ele>
        <time>2020-05-28T09:28:14.000Z</time>
      </trkpt>
      <trkpt lat="45.87724" lon="5.49151">
        <ele>612.09211810591</ele>
        <time>2020-05-28T09:28:26.000Z</time>
      </trkpt>
      <trkpt lat="45.87726" lon="5.49142">
        <ele>612.80859735799</ele>
        <time>2020-05-28T09:28:33.000Z</time>
      </trkpt>
      <trkpt lat="45.87728" lon="5.49136">
        <ele>613.41642153152</ele>
        <time>2020-05-28T09:28:37.000Z</time>
      </trkpt>
      <trkpt lat="45.87729" lon="5.49132">
        <ele>614.00293161199</ele>
        <time>2020-05-28T09:28:40.000Z</time>
      </trkpt>
      <trkpt lat="45.87728" lon="5.49128">
        <ele>614.78494505261</ele>
        <time>2020-05-28T09:28:44.000Z</time>
      </trkpt>
      <trkpt lat="45.87728" lon="5.49125">
        <ele>615.19567409665</ele>
        <time>2020-05-28T09:28:47.000Z</time>
      </trkpt>
      <trkpt lat="45.87726" lon="5.49123">
        <ele>615.40164752377</ele>
        <time>2020-05-28T09:28:49.000Z</time>
      </trkpt>
      <trkpt lat="45.87726" lon="5.49119">
        <ele>616.01900032</ele>
        <time>2020-05-28T09:28:55.000Z</time>
      </trkpt>
      <trkpt lat="45.87726" lon="5.49105">
        <ele>617</ele>
        <time>2020-05-28T09:29:05.000Z</time>
      </trkpt>
      <trkpt lat="45.87724" lon="5.4909">
        <ele>617</ele>
        <time>2020-05-28T09:29:15.000Z</time>
      </trkpt>
      <trkpt lat="45.87717" lon="5.49082">
        <ele>617</ele>
        <time>2020-05-28T09:29:22.000Z</time>
      </trkpt>
      <trkpt lat="45.87719" lon="5.49068">
        <ele>617.83383068609</ele>
        <time>2020-05-28T09:29:29.000Z</time>
      </trkpt>
      <trkpt lat="45.87724" lon="5.49057">
        <ele>619</ele>
        <time>2020-05-28T09:29:37.000Z</time>
      </trkpt>
      <trkpt lat="45.87725" lon="5.4905">
        <ele>619</ele>
        <time>2020-05-28T09:29:44.000Z</time>
      </trkpt>
      <trkpt lat="45.87726" lon="5.49047">
        <ele>619.21840249736</ele>
        <time>2020-05-28T09:29:46.000Z</time>
      </trkpt>
      <trkpt lat="45.87726" lon="5.49044">
        <ele>619.62285156654</ele>
        <time>2020-05-28T09:29:48.000Z</time>
      </trkpt>
      <trkpt lat="45.87727" lon="5.49042">
        <ele>620.02730063573</ele>
        <time>2020-05-28T09:29:50.000Z</time>
      </trkpt>
      <trkpt lat="45.87728" lon="5.49039">
        <ele>620.43174970491</ele>
        <time>2020-05-28T09:29:52.000Z</time>
      </trkpt>
      <trkpt lat="45.87729" lon="5.49036">
        <ele>620.8361987741</ele>
        <time>2020-05-28T09:29:54.000Z</time>
      </trkpt>
      <trkpt lat="45.87733" lon="5.49023">
        <ele>621.91900032</ele>
        <time>2020-05-28T09:30:04.000Z</time>
      </trkpt>
      <trkpt lat="45.87734" lon="5.4902">
        <ele>622.23800064</ele>
        <time>2020-05-28T09:30:06.000Z</time>
      </trkpt>
      <trkpt lat="45.87737" lon="5.49008">
        <ele>624.11900032</ele>
        <time>2020-05-28T09:30:16.000Z</time>
      </trkpt>
      <trkpt lat="45.87739" lon="5.49001">
        <ele>624.91900032</ele>
        <time>2020-05-28T09:30:24.000Z</time>
      </trkpt>
      <trkpt lat="45.8774" lon="5.48998">
        <ele>625.41650104716</ele>
        <time>2020-05-28T09:30:29.000Z</time>
      </trkpt>
      <trkpt lat="45.87741" lon="5.48995">
        <ele>625.71471159303</ele>
        <time>2020-05-28T09:30:32.000Z</time>
      </trkpt>
      <trkpt lat="45.87743" lon="5.48993">
        <ele>625.91351862361</ele>
        <time>2020-05-28T09:30:34.000Z</time>
      </trkpt>
      <trkpt lat="45.87744" lon="5.4899">
        <ele>626.42814047338</ele>
        <time>2020-05-28T09:30:37.000Z</time>
      </trkpt>
      <trkpt lat="45.87745" lon="5.48977">
        <ele>631.11900032</ele>
        <time>2020-05-28T09:30:56.000Z</time>
      </trkpt>
      <trkpt lat="45.87752" lon="5.48965">
        <ele>631.91900032</ele>
        <time>2020-05-28T09:31:04.000Z</time>
      </trkpt>
      <trkpt lat="45.87753" lon="5.48962">
        <ele>632.43582111603</ele>
        <time>2020-05-28T09:31:07.000Z</time>
      </trkpt>
      <trkpt lat="45.87756" lon="5.48956">
        <ele>633.62984982621</ele>
        <time>2020-05-28T09:31:13.000Z</time>
      </trkpt>
      <trkpt lat="45.8776" lon="5.48945">
        <ele>636.02016</ele>
        <time>2020-05-28T09:31:30.000Z</time>
      </trkpt>
      <trkpt lat="45.87759" lon="5.48932">
        <ele>638.62475025932</ele>
        <time>2020-05-28T09:31:43.000Z</time>
      </trkpt>
      <trkpt lat="45.87759" lon="5.48918">
        <ele>643.31910016</ele>
        <time>2020-05-28T09:32:08.000Z</time>
      </trkpt>
      <trkpt lat="45.87765" lon="5.48908">
        <ele>644.83820032</ele>
        <time>2020-05-28T09:32:19.000Z</time>
      </trkpt>
      <trkpt lat="45.87766" lon="5.48895">
        <ele>647.23820032</ele>
        <time>2020-05-28T09:32:31.000Z</time>
      </trkpt>
      <trkpt lat="45.87768" lon="5.48889">
        <ele>648.31910016</ele>
        <time>2020-05-28T09:32:38.000Z</time>
      </trkpt>
      <trkpt lat="45.8777" lon="5.48886">
        <ele>648.61910016</ele>
        <time>2020-05-28T09:32:41.000Z</time>
      </trkpt>
      <trkpt lat="45.87773" lon="5.48884">
        <ele>649.63820032</ele>
        <time>2020-05-28T09:32:48.000Z</time>
      </trkpt>
      <trkpt lat="45.87775" lon="5.48878">
        <ele>650.63820032</ele>
        <time>2020-05-28T09:32:53.000Z</time>
      </trkpt>
      <trkpt lat="45.87776" lon="5.48875">
        <ele>651.11910016</ele>
        <time>2020-05-28T09:32:56.000Z</time>
      </trkpt>
      <trkpt lat="45.87777" lon="5.48872">
        <ele>651.71910016</ele>
        <time>2020-05-28T09:33:02.000Z</time>
      </trkpt>
      <trkpt lat="45.87779" lon="5.48869">
        <ele>652.63820032</ele>
        <time>2020-05-28T09:33:08.000Z</time>
      </trkpt>
      <trkpt lat="45.87778" lon="5.48865">
        <ele>654.43820032</ele>
        <time>2020-05-28T09:33:17.000Z</time>
      </trkpt>
      <trkpt lat="45.8778" lon="5.4886">
        <ele>655.83820032</ele>
        <time>2020-05-28T09:33:24.000Z</time>
      </trkpt>
      <trkpt lat="45.8778" lon="5.48858">
        <ele>656.11756002956</ele>
        <time>2020-05-28T09:33:26.000Z</time>
      </trkpt>
      <trkpt lat="45.8778" lon="5.48855">
        <ele>656.31497375187</ele>
        <time>2020-05-28T09:33:28.000Z</time>
      </trkpt>
      <trkpt lat="45.87786" lon="5.48847">
        <ele>658.02543270883</ele>
        <time>2020-05-28T09:33:40.000Z</time>
      </trkpt>
      <trkpt lat="45.87792" lon="5.48837">
        <ele>663.63820032</ele>
        <time>2020-05-28T09:34:13.000Z</time>
      </trkpt>
      <trkpt lat="45.87797" lon="5.48826">
        <ele>665.03820032</ele>
        <time>2020-05-28T09:34:25.000Z</time>
      </trkpt>
      <trkpt lat="45.87806" lon="5.48821">
        <ele>667.80850805764</ele>
        <time>2020-05-28T09:34:43.000Z</time>
      </trkpt>
      <trkpt lat="45.87814" lon="5.48813">
        <ele>672.00926847466</ele>
        <time>2020-05-28T09:35:10.000Z</time>
      </trkpt>
      <trkpt lat="45.87823" lon="5.48806">
        <ele>677.03800064</ele>
        <time>2020-05-28T09:35:35.000Z</time>
      </trkpt>
      <trkpt lat="45.87829" lon="5.48796">
        <ele>679.31900032</ele>
        <time>2020-05-28T09:35:48.000Z</time>
      </trkpt>
      <trkpt lat="45.87838" lon="5.48792">
        <ele>682.23800064</ele>
        <time>2020-05-28T09:36:06.000Z</time>
      </trkpt>
      <trkpt lat="45.87848" lon="5.48788">
        <ele>684.21900032</ele>
        <time>2020-05-28T09:36:17.000Z</time>
      </trkpt>
      <trkpt lat="45.87857" lon="5.48788">
        <ele>685.51284616601</ele>
        <time>2020-05-28T09:36:30.000Z</time>
      </trkpt>
      <trkpt lat="45.87863" lon="5.48798">
        <ele>687</ele>
        <time>2020-05-28T09:36:49.000Z</time>
      </trkpt>
      <trkpt lat="45.87872" lon="5.4879">
        <ele>688.21900032</ele>
        <time>2020-05-28T09:37:27.000Z</time>
      </trkpt>
      <trkpt lat="45.87879" lon="5.48781">
        <ele>690.23800064</ele>
        <time>2020-05-28T09:37:41.000Z</time>
      </trkpt>
      <trkpt lat="45.87887" lon="5.48776">
        <ele>691</ele>
        <time>2020-05-28T09:37:52.000Z</time>
      </trkpt>
      <trkpt lat="45.87895" lon="5.48784">
        <ele>692</ele>
        <time>2020-05-28T09:38:06.000Z</time>
      </trkpt>
      <trkpt lat="45.87903" lon="5.48776">
        <ele>693</ele>
        <time>2020-05-28T09:38:27.000Z</time>
      </trkpt>
      <trkpt lat="45.87912" lon="5.48772">
        <ele>693.83800064</ele>
        <time>2020-05-28T09:38:39.000Z</time>
      </trkpt>
      <trkpt lat="45.87921" lon="5.48769">
        <ele>695</ele>
        <time>2020-05-28T09:38:49.000Z</time>
      </trkpt>
      <trkpt lat="45.87928" lon="5.48762">
        <ele>696.23800064</ele>
        <time>2020-05-28T09:39:01.000Z</time>
      </trkpt>
      <trkpt lat="45.87936" lon="5.48754">
        <ele>697</ele>
        <time>2020-05-28T09:39:12.000Z</time>
      </trkpt>
      <trkpt lat="45.87945" lon="5.48748">
        <ele>697.61900032</ele>
        <time>2020-05-28T09:39:21.000Z</time>
      </trkpt>
      <trkpt lat="45.87951" lon="5.48738">
        <ele>699.03800064</ele>
        <time>2020-05-28T09:39:30.000Z</time>
      </trkpt>
      <trkpt lat="45.87955" lon="5.48726">
        <ele>700.51900032</ele>
        <time>2020-05-28T09:39:40.000Z</time>
      </trkpt>
      <trkpt lat="45.87955" lon="5.48712">
        <ele>701.61900032</ele>
        <time>2020-05-28T09:39:51.000Z</time>
      </trkpt>
      <trkpt lat="45.87953" lon="5.48699">
        <ele>702</ele>
        <time>2020-05-28T09:39:59.000Z</time>
      </trkpt>
      <trkpt lat="45.87955" lon="5.48686">
        <ele>702.63800064</ele>
        <time>2020-05-28T09:40:08.000Z</time>
      </trkpt>
      <trkpt lat="45.87959" lon="5.48674">
        <ele>704.31900032</ele>
        <time>2020-05-28T09:40:18.000Z</time>
      </trkpt>
      <trkpt lat="45.87962" lon="5.48661">
        <ele>705</ele>
        <time>2020-05-28T09:40:33.000Z</time>
      </trkpt>
      <trkpt lat="45.87968" lon="5.48651">
        <ele>705.61900032</ele>
        <time>2020-05-28T09:40:41.000Z</time>
      </trkpt>
      <trkpt lat="45.87968" lon="5.48648">
        <ele>706</ele>
        <time>2020-05-28T09:41:03.000Z</time>
      </trkpt>
      <trkpt lat="45.87968" lon="5.48646">
        <ele>706.11900032</ele>
        <time>2020-05-28T09:41:06.000Z</time>
      </trkpt>
      <trkpt lat="45.87968" lon="5.48643">
        <ele>706.41900032</ele>
        <time>2020-05-28T09:41:09.000Z</time>
      </trkpt>
      <trkpt lat="45.87968" lon="5.4864">
        <ele>706.71900032</ele>
        <time>2020-05-28T09:41:12.000Z</time>
      </trkpt>
      <trkpt lat="45.87968" lon="5.48637">
        <ele>706.91900032</ele>
        <time>2020-05-28T09:41:14.000Z</time>
      </trkpt>
      <trkpt lat="45.87968" lon="5.4863">
        <ele>706.59672743893</ele>
        <time>2020-05-28T09:41:19.000Z</time>
      </trkpt>
      <trkpt lat="45.87966" lon="5.48623">
        <ele>706.21174199446</ele>
        <time>2020-05-28T09:41:23.000Z</time>
      </trkpt>
      <trkpt lat="45.87962" lon="5.4861">
        <ele>706</ele>
        <time>2020-05-28T09:41:31.000Z</time>
      </trkpt>
      <trkpt lat="45.87959" lon="5.48596">
        <ele>706</ele>
        <time>2020-05-28T09:41:38.000Z</time>
      </trkpt>
      <trkpt lat="45.87957" lon="5.48593">
        <ele>706</ele>
        <time>2020-05-28T09:41:40.000Z</time>
      </trkpt>
      <trkpt lat="45.87957" lon="5.48589">
        <ele>706</ele>
        <time>2020-05-28T09:41:42.000Z</time>
      </trkpt>
      <trkpt lat="45.87958" lon="5.48586">
        <ele>706</ele>
        <time>2020-05-28T09:41:44.000Z</time>
      </trkpt>
      <trkpt lat="45.87958" lon="5.48582">
        <ele>705.91106451754</ele>
        <time>2020-05-28T09:41:46.000Z</time>
      </trkpt>
      <trkpt lat="45.87959" lon="5.4858">
        <ele>705.7042393533</ele>
        <time>2020-05-28T09:41:48.000Z</time>
      </trkpt>
      <trkpt lat="45.87958" lon="5.48576">
        <ele>705.29058902483</ele>
        <time>2020-05-28T09:41:52.000Z</time>
      </trkpt>
      <trkpt lat="45.87958" lon="5.48573">
        <ele>704.78099968</ele>
        <time>2020-05-28T09:41:57.000Z</time>
      </trkpt>
      <trkpt lat="45.87958" lon="5.4857">
        <ele>704.18099968</ele>
        <time>2020-05-28T09:42:03.000Z</time>
      </trkpt>
      <trkpt lat="45.87956" lon="5.48567">
        <ele>704.21900032</ele>
        <time>2020-05-28T09:42:07.000Z</time>
      </trkpt>
      <trkpt lat="45.87956" lon="5.48564">
        <ele>704.51900032</ele>
        <time>2020-05-28T09:42:10.000Z</time>
      </trkpt>
      <trkpt lat="45.87954" lon="5.48561">
        <ele>704.81900032</ele>
        <time>2020-05-28T09:42:13.000Z</time>
      </trkpt>
      <trkpt lat="45.87953" lon="5.48558">
        <ele>705</ele>
        <time>2020-05-28T09:42:16.000Z</time>
      </trkpt>
      <trkpt lat="45.87951" lon="5.48556">
        <ele>705</ele>
        <time>2020-05-28T09:42:18.000Z</time>
      </trkpt>
      <trkpt lat="45.8795" lon="5.48552">
        <ele>705</ele>
        <time>2020-05-28T09:42:20.000Z</time>
      </trkpt>
      <trkpt lat="45.8795" lon="5.48549">
        <ele>705</ele>
        <time>2020-05-28T09:42:22.000Z</time>
      </trkpt>
      <trkpt lat="45.87946" lon="5.48541">
        <ele>705</ele>
        <time>2020-05-28T09:42:28.000Z</time>
      </trkpt>
      <trkpt lat="45.87945" lon="5.48538">
        <ele>705</ele>
        <time>2020-05-28T09:42:31.000Z</time>
      </trkpt>
      <trkpt lat="45.87944" lon="5.48535">
        <ele>705</ele>
        <time>2020-05-28T09:42:34.000Z</time>
      </trkpt>
      <trkpt lat="45.87942" lon="5.48532">
        <ele>705.09268738309</ele>
        <time>2020-05-28T09:42:36.000Z</time>
      </trkpt>
      <trkpt lat="45.87941" lon="5.4853">
        <ele>705.29866081021</ele>
        <time>2020-05-28T09:42:38.000Z</time>
      </trkpt>
      <trkpt lat="45.8794" lon="5.48528">
        <ele>705.71060766445</ele>
        <time>2020-05-28T09:42:42.000Z</time>
      </trkpt>
      <trkpt lat="45.87941" lon="5.48525">
        <ele>706</ele>
        <time>2020-05-28T09:42:45.000Z</time>
      </trkpt>
      <trkpt lat="45.87943" lon="5.48524">
        <ele>706</ele>
        <time>2020-05-28T09:42:54.000Z</time>
      </trkpt>
      <trkpt lat="45.87944" lon="5.48522">
        <ele>706</ele>
        <time>2020-05-28T09:42:59.000Z</time>
      </trkpt>
      <trkpt lat="45.87943" lon="5.48523">
        <ele>706</ele>
        <time>2020-05-28T09:43:25.000Z</time>
      </trkpt>
      <trkpt lat="45.87943" lon="5.4852">
        <ele>706</ele>
        <time>2020-05-28T09:43:58.000Z</time>
      </trkpt>
      <trkpt lat="45.87942" lon="5.48517">
        <ele>706</ele>
        <time>2020-05-28T09:44:03.000Z</time>
      </trkpt>
      <trkpt lat="45.87942" lon="5.48514">
        <ele>706.51900032</ele>
        <time>2020-05-28T09:44:10.000Z</time>
      </trkpt>
      <trkpt lat="45.87941" lon="5.48509">
        <ele>706.91900032</ele>
        <time>2020-05-28T09:44:14.000Z</time>
      </trkpt>
      <trkpt lat="45.8794" lon="5.48507">
        <ele>707</ele>
        <time>2020-05-28T09:44:17.000Z</time>
      </trkpt>
      <trkpt lat="45.87938" lon="5.48505">
        <ele>707</ele>
        <time>2020-05-28T09:44:20.000Z</time>
      </trkpt>
      <trkpt lat="45.87936" lon="5.48503">
        <ele>707</ele>
        <time>2020-05-28T09:44:22.000Z</time>
      </trkpt>
      <trkpt lat="45.87929" lon="5.48495">
        <ele>708.39747259322</ele>
        <time>2020-05-28T09:44:32.000Z</time>
      </trkpt>
      <trkpt lat="45.8792" lon="5.48492">
        <ele>709.40164752377</ele>
        <time>2020-05-28T09:44:39.000Z</time>
      </trkpt>
      <trkpt lat="45.8791" lon="5.48489">
        <ele>710.23705243028</ele>
        <time>2020-05-28T09:44:46.000Z</time>
      </trkpt>
      <trkpt lat="45.87904" lon="5.48479">
        <ele>712.6174702008</ele>
        <time>2020-05-28T09:45:01.000Z</time>
      </trkpt>
      <trkpt lat="45.87895" lon="5.48477">
        <ele>713.91442730562</ele>
        <time>2020-05-28T09:45:14.000Z</time>
      </trkpt>
      <trkpt lat="45.87886" lon="5.48476">
        <ele>715.03800064</ele>
        <time>2020-05-28T09:45:25.000Z</time>
      </trkpt>
      <trkpt lat="45.87876" lon="5.48475">
        <ele>717.41900032</ele>
        <time>2020-05-28T09:45:39.000Z</time>
      </trkpt>
      <trkpt lat="45.87867" lon="5.4847">
        <ele>719.83800064</ele>
        <time>2020-05-28T09:45:54.000Z</time>
      </trkpt>
      <trkpt lat="45.87858" lon="5.48466">
        <ele>721.02780411787</ele>
        <time>2020-05-28T09:46:05.000Z</time>
      </trkpt>
      <trkpt lat="45.87849" lon="5.48464">
        <ele>724.98033307658</ele>
        <time>2020-05-28T09:46:25.000Z</time>
      </trkpt>
      <trkpt lat="45.8784" lon="5.48465">
        <ele>728.83800064</ele>
        <time>2020-05-28T09:46:49.000Z</time>
      </trkpt>
      <trkpt lat="45.87832" lon="5.4846">
        <ele>730.71900032</ele>
        <time>2020-05-28T09:47:02.000Z</time>
      </trkpt>
      <trkpt lat="45.87823" lon="5.48459">
        <ele>731.83800064</ele>
        <time>2020-05-28T09:47:09.000Z</time>
      </trkpt>
      <trkpt lat="45.87814" lon="5.48452">
        <ele>733.21270193548</ele>
        <time>2020-05-28T09:47:27.000Z</time>
      </trkpt>
      <trkpt lat="45.87806" lon="5.48446">
        <ele>735.39747259322</ele>
        <time>2020-05-28T09:47:42.000Z</time>
      </trkpt>
      <trkpt lat="45.87797" lon="5.48446">
        <ele>737.82286285268</ele>
        <time>2020-05-28T09:47:51.000Z</time>
      </trkpt>
      <trkpt lat="45.87789" lon="5.48438">
        <ele>742.01883084839</ele>
        <time>2020-05-28T09:48:25.000Z</time>
      </trkpt>
      <trkpt lat="45.8778" lon="5.48434">
        <ele>744.83098602432</ele>
        <time>2020-05-28T09:48:44.000Z</time>
      </trkpt>
      <trkpt lat="45.87773" lon="5.48424">
        <ele>749.03800064</ele>
        <time>2020-05-28T09:49:10.000Z</time>
      </trkpt>
      <trkpt lat="45.87763" lon="5.48424">
        <ele>750.61900032</ele>
        <time>2020-05-28T09:49:21.000Z</time>
      </trkpt>
      <trkpt lat="45.87753" lon="5.48422">
        <ele>751.23752543711</ele>
        <time>2020-05-28T09:49:26.000Z</time>
      </trkpt>
      <trkpt lat="45.87743" lon="5.48423">
        <ele>753.8356712373</ele>
        <time>2020-05-28T09:49:39.000Z</time>
      </trkpt>
      <trkpt lat="45.87739" lon="5.48409">
        <ele>756.63800064</ele>
        <time>2020-05-28T09:49:58.000Z</time>
      </trkpt>
      <trkpt lat="45.87745" lon="5.48399">
        <ele>758.41900032</ele>
        <time>2020-05-28T09:50:09.000Z</time>
      </trkpt>
      <trkpt lat="45.87748" lon="5.48386">
        <ele>759.61287121561</ele>
        <time>2020-05-28T09:50:21.000Z</time>
      </trkpt>
      <trkpt lat="45.87744" lon="5.48375">
        <ele>761.63168340171</ele>
        <time>2020-05-28T09:50:38.000Z</time>
      </trkpt>
      <trkpt lat="45.87752" lon="5.48367">
        <ele>765.80329504754</ele>
        <time>2020-05-28T09:50:59.000Z</time>
      </trkpt>
      <trkpt lat="45.87753" lon="5.48353">
        <ele>768.21900032</ele>
        <time>2020-05-28T09:51:17.000Z</time>
      </trkpt>
      <trkpt lat="45.87761" lon="5.48348">
        <ele>768.81900032</ele>
        <time>2020-05-28T09:51:23.000Z</time>
      </trkpt>
      <trkpt lat="45.87764" lon="5.48335">
        <ele>771.81900032</ele>
        <time>2020-05-28T09:51:43.000Z</time>
      </trkpt>
      <trkpt lat="45.87772" lon="5.48328">
        <ele>772</ele>
        <time>2020-05-28T09:51:52.000Z</time>
      </trkpt>
      <trkpt lat="45.87776" lon="5.48316">
        <ele>774.75700096</ele>
        <time>2020-05-28T09:52:04.000Z</time>
      </trkpt>
      <trkpt lat="45.87772" lon="5.48305">
        <ele>776.43800064</ele>
        <time>2020-05-28T09:52:17.000Z</time>
      </trkpt>
      <trkpt lat="45.87767" lon="5.48303">
        <ele>777.43800064</ele>
        <time>2020-05-28T09:52:22.000Z</time>
      </trkpt>
      <trkpt lat="45.87765" lon="5.48302">
        <ele>777.83800064</ele>
        <time>2020-05-28T09:52:24.000Z</time>
      </trkpt>
      <trkpt lat="45.87763" lon="5.48302">
        <ele>778.41900032</ele>
        <time>2020-05-28T09:52:29.000Z</time>
      </trkpt>
      <trkpt lat="45.87765" lon="5.48301">
        <ele>779</ele>
        <time>2020-05-28T09:52:48.000Z</time>
      </trkpt>
      <trkpt lat="45.87766" lon="5.48298">
        <ele>779</ele>
        <time>2020-05-28T09:52:51.000Z</time>
      </trkpt>
      <trkpt lat="45.87766" lon="5.48295">
        <ele>779.03769904762</ele>
        <time>2020-05-28T09:52:55.000Z</time>
      </trkpt>
      <trkpt lat="45.87764" lon="5.48291">
        <ele>779.83134984127</ele>
        <time>2020-05-28T09:52:59.000Z</time>
      </trkpt>
      <trkpt lat="45.87762" lon="5.48289">
        <ele>780.42658793651</ele>
        <time>2020-05-28T09:53:02.000Z</time>
      </trkpt>
      <trkpt lat="45.87761" lon="5.48287">
        <ele>781.01098933418</ele>
        <time>2020-05-28T09:53:05.000Z</time>
      </trkpt>
      <trkpt lat="45.8776" lon="5.48283">
        <ele>781.41058986153</ele>
        <time>2020-05-28T09:53:09.000Z</time>
      </trkpt>
      <trkpt lat="45.87759" lon="5.4828">
        <ele>781.91009052071</ele>
        <time>2020-05-28T09:53:14.000Z</time>
      </trkpt>
      <trkpt lat="45.87758" lon="5.48276">
        <ele>782.62563176569</ele>
        <time>2020-05-28T09:53:18.000Z</time>
      </trkpt>
      <trkpt lat="45.87756" lon="5.48274">
        <ele>783.23108061156</ele>
        <time>2020-05-28T09:53:21.000Z</time>
      </trkpt>
      <trkpt lat="45.87755" lon="5.48271">
        <ele>783.83652945743</ele>
        <time>2020-05-28T09:53:24.000Z</time>
      </trkpt>
      <trkpt lat="45.87753" lon="5.48267">
        <ele>784</ele>
        <time>2020-05-28T09:53:29.000Z</time>
      </trkpt>
      <trkpt lat="45.87748" lon="5.48262">
        <ele>784.83800064</ele>
        <time>2020-05-28T09:53:39.000Z</time>
      </trkpt>
      <trkpt lat="45.87746" lon="5.48261">
        <ele>785.63800064</ele>
        <time>2020-05-28T09:53:43.000Z</time>
      </trkpt>
      <trkpt lat="45.87744" lon="5.4826">
        <ele>786.01785744361</ele>
        <time>2020-05-28T09:53:45.000Z</time>
      </trkpt>
      <trkpt lat="45.87741" lon="5.48259">
        <ele>786.29981233083</ele>
        <time>2020-05-28T09:53:48.000Z</time>
      </trkpt>
      <trkpt lat="45.87739" lon="5.48258">
        <ele>786.48778225564</ele>
        <time>2020-05-28T09:53:50.000Z</time>
      </trkpt>
      <trkpt lat="45.87737" lon="5.48259">
        <ele>786.67575218045</ele>
        <time>2020-05-28T09:53:52.000Z</time>
      </trkpt>
      <trkpt lat="45.87735" lon="5.48259">
        <ele>786.95770706767</ele>
        <time>2020-05-28T09:53:55.000Z</time>
      </trkpt>
      <trkpt lat="45.87731" lon="5.4826">
        <ele>787</ele>
        <time>2020-05-28T09:54:01.000Z</time>
      </trkpt>
      <trkpt lat="45.87722" lon="5.48257">
        <ele>788</ele>
        <time>2020-05-28T09:54:30.000Z</time>
      </trkpt>
      <trkpt lat="45.87716" lon="5.48248">
        <ele>788</ele>
        <time>2020-05-28T09:55:02.000Z</time>
      </trkpt>
      <trkpt lat="45.87716" lon="5.48245">
        <ele>788</ele>
        <time>2020-05-28T09:55:05.000Z</time>
      </trkpt>
      <trkpt lat="45.87715" lon="5.48243">
        <ele>788</ele>
        <time>2020-05-28T09:55:08.000Z</time>
      </trkpt>
      <trkpt lat="45.87714" lon="5.4824">
        <ele>788</ele>
        <time>2020-05-28T09:55:11.000Z</time>
      </trkpt>
      <trkpt lat="45.87713" lon="5.48238">
        <ele>788</ele>
        <time>2020-05-28T09:55:13.000Z</time>
      </trkpt>
      <trkpt lat="45.87714" lon="5.48234">
        <ele>787.88099968</ele>
        <time>2020-05-28T09:55:16.000Z</time>
      </trkpt>
      <trkpt lat="45.87715" lon="5.48232">
        <ele>787.08099968</ele>
        <time>2020-05-28T09:55:24.000Z</time>
      </trkpt>
      <trkpt lat="45.87717" lon="5.48231">
        <ele>787</ele>
        <time>2020-05-28T09:55:29.000Z</time>
      </trkpt>
      <trkpt lat="45.87715" lon="5.48239">
        <ele>789</ele>
        <time>2020-05-28T10:01:18.000Z</time>
      </trkpt>
      <trkpt lat="45.87714" lon="5.4824">
        <ele>791</ele>
        <time>2020-05-28T10:15:30.000Z</time>
      </trkpt>
      <trkpt lat="45.87712" lon="5.48241">
        <ele>791</ele>
        <time>2020-05-28T10:15:45.000Z</time>
      </trkpt>
      <trkpt lat="45.87711" lon="5.48244">
        <ele>791</ele>
        <time>2020-05-28T10:15:52.000Z</time>
      </trkpt>
      <trkpt lat="45.8771" lon="5.48246">
        <ele>791</ele>
        <time>2020-05-28T10:16:16.000Z</time>
      </trkpt>
      <trkpt lat="45.87712" lon="5.48245">
        <ele>791</ele>
        <time>2020-05-28T10:18:05.000Z</time>
      </trkpt>
      <trkpt lat="45.87713" lon="5.48242">
        <ele>791</ele>
        <time>2020-05-28T10:18:12.000Z</time>
      </trkpt>
      <trkpt lat="45.87713" lon="5.48245">
        <ele>791</ele>
        <time>2020-05-28T10:18:40.000Z</time>
      </trkpt>
      <trkpt lat="45.87714" lon="5.48243">
        <ele>791</ele>
        <time>2020-05-28T10:19:01.000Z</time>
      </trkpt>
      <trkpt lat="45.87714" lon="5.48241">
        <ele>791</ele>
        <time>2020-05-28T10:19:59.000Z</time>
      </trkpt>
      <trkpt lat="45.87712" lon="5.48241">
        <ele>791</ele>
        <time>2020-05-28T10:20:28.000Z</time>
      </trkpt>
      <trkpt lat="45.87714" lon="5.4824">
        <ele>791</ele>
        <time>2020-05-28T10:20:52.000Z</time>
      </trkpt>
      <trkpt lat="45.87713" lon="5.48243">
        <ele>791</ele>
        <time>2020-05-28T10:21:03.000Z</time>
      </trkpt>
      <trkpt lat="45.87714" lon="5.4824">
        <ele>791</ele>
        <time>2020-05-28T10:22:44.000Z</time>
      </trkpt>
      <trkpt lat="45.87715" lon="5.48242">
        <ele>791</ele>
        <time>2020-05-28T10:23:00.000Z</time>
      </trkpt>
      <trkpt lat="45.87714" lon="5.48245">
        <ele>791</ele>
        <time>2020-05-28T10:23:33.000Z</time>
      </trkpt>
      <trkpt lat="45.87712" lon="5.48245">
        <ele>791</ele>
        <time>2020-05-28T10:25:17.000Z</time>
      </trkpt>
      <trkpt lat="45.87711" lon="5.48247">
        <ele>791</ele>
        <time>2020-05-28T10:25:21.000Z</time>
      </trkpt>
      <trkpt lat="45.87709" lon="5.48249">
        <ele>791</ele>
        <time>2020-05-28T10:26:29.000Z</time>
      </trkpt>
      <trkpt lat="45.8771" lon="5.48247">
        <ele>791</ele>
        <time>2020-05-28T10:28:25.000Z</time>
      </trkpt>
      <trkpt lat="45.87711" lon="5.48245">
        <ele>791</ele>
        <time>2020-05-28T10:30:12.000Z</time>
      </trkpt>
      <trkpt lat="45.8771" lon="5.48243">
        <ele>791</ele>
        <time>2020-05-28T10:31:13.000Z</time>
      </trkpt>
      <trkpt lat="45.8771" lon="5.4824">
        <ele>791</ele>
        <time>2020-05-28T10:31:27.000Z</time>
      </trkpt>
      <trkpt lat="45.87708" lon="5.48238">
        <ele>791</ele>
        <time>2020-05-28T10:31:30.000Z</time>
      </trkpt>
      <trkpt lat="45.87707" lon="5.48236">
        <ele>791</ele>
        <time>2020-05-28T10:31:32.000Z</time>
      </trkpt>
      <trkpt lat="45.87706" lon="5.48233">
        <ele>791</ele>
        <time>2020-05-28T10:31:35.000Z</time>
      </trkpt>
      <trkpt lat="45.87704" lon="5.48231">
        <ele>791</ele>
        <time>2020-05-28T10:31:38.000Z</time>
      </trkpt>
      <trkpt lat="45.87703" lon="5.4823">
        <ele>791</ele>
        <time>2020-05-28T10:31:40.000Z</time>
      </trkpt>
      <trkpt lat="45.87701" lon="5.48229">
        <ele>791</ele>
        <time>2020-05-28T10:31:42.000Z</time>
      </trkpt>
      <trkpt lat="45.87699" lon="5.48228">
        <ele>791</ele>
        <time>2020-05-28T10:31:44.000Z</time>
      </trkpt>
      <trkpt lat="45.87696" lon="5.48227">
        <ele>791</ele>
        <time>2020-05-28T10:31:46.000Z</time>
      </trkpt>
      <trkpt lat="45.87694" lon="5.48225">
        <ele>791</ele>
        <time>2020-05-28T10:31:48.000Z</time>
      </trkpt>
      <trkpt lat="45.87692" lon="5.48224">
        <ele>791</ele>
        <time>2020-05-28T10:31:50.000Z</time>
      </trkpt>
      <trkpt lat="45.87691" lon="5.48223">
        <ele>791</ele>
        <time>2020-05-28T10:31:52.000Z</time>
      </trkpt>
      <trkpt lat="45.87688" lon="5.48221">
        <ele>791</ele>
        <time>2020-05-28T10:31:55.000Z</time>
      </trkpt>
      <trkpt lat="45.87687" lon="5.48219">
        <ele>791</ele>
        <time>2020-05-28T10:31:57.000Z</time>
      </trkpt>
      <trkpt lat="45.87684" lon="5.48218">
        <ele>791</ele>
        <time>2020-05-28T10:32:00.000Z</time>
      </trkpt>
      <trkpt lat="45.87682" lon="5.48216">
        <ele>791</ele>
        <time>2020-05-28T10:32:02.000Z</time>
      </trkpt>
      <trkpt lat="45.87681" lon="5.48216">
        <ele>791</ele>
        <time>2020-05-28T10:32:04.000Z</time>
      </trkpt>
      <trkpt lat="45.87678" lon="5.48215">
        <ele>791</ele>
        <time>2020-05-28T10:32:06.000Z</time>
      </trkpt>
      <trkpt lat="45.87676" lon="5.48214">
        <ele>791</ele>
        <time>2020-05-28T10:32:09.000Z</time>
      </trkpt>
      <trkpt lat="45.87674" lon="5.48213">
        <ele>791</ele>
        <time>2020-05-28T10:32:11.000Z</time>
      </trkpt>
      <trkpt lat="45.87672" lon="5.48212">
        <ele>791</ele>
        <time>2020-05-28T10:32:13.000Z</time>
      </trkpt>
      <trkpt lat="45.8767" lon="5.48211">
        <ele>791</ele>
        <time>2020-05-28T10:32:15.000Z</time>
      </trkpt>
      <trkpt lat="45.87668" lon="5.4821">
        <ele>791</ele>
        <time>2020-05-28T10:32:18.000Z</time>
      </trkpt>
      <trkpt lat="45.87666" lon="5.48209">
        <ele>791</ele>
        <time>2020-05-28T10:32:20.000Z</time>
      </trkpt>
      <trkpt lat="45.87664" lon="5.48208">
        <ele>791</ele>
        <time>2020-05-28T10:32:22.000Z</time>
      </trkpt>
      <trkpt lat="45.87663" lon="5.48207">
        <ele>791</ele>
        <time>2020-05-28T10:32:24.000Z</time>
      </trkpt>
      <trkpt lat="45.87661" lon="5.48205">
        <ele>790.4049984</ele>
        <time>2020-05-28T10:32:26.000Z</time>
      </trkpt>
      <trkpt lat="45.87659" lon="5.48205">
        <ele>789.4049984</ele>
        <time>2020-05-28T10:32:28.000Z</time>
      </trkpt>
      <trkpt lat="45.87657" lon="5.48203">
        <ele>787.9049984</ele>
        <time>2020-05-28T10:32:31.000Z</time>
      </trkpt>
      <trkpt lat="45.87655" lon="5.48201">
        <ele>786.9049984</ele>
        <time>2020-05-28T10:32:33.000Z</time>
      </trkpt>
      <trkpt lat="45.87654" lon="5.48198">
        <ele>785.88099968</ele>
        <time>2020-05-28T10:32:36.000Z</time>
      </trkpt>
      <trkpt lat="45.87654" lon="5.48196">
        <ele>785.58099968</ele>
        <time>2020-05-28T10:32:39.000Z</time>
      </trkpt>
      <trkpt lat="45.87655" lon="5.48193">
        <ele>785.18099968</ele>
        <time>2020-05-28T10:32:43.000Z</time>
      </trkpt>
      <trkpt lat="45.87659" lon="5.48186">
        <ele>785</ele>
        <time>2020-05-28T10:32:51.000Z</time>
      </trkpt>
      <trkpt lat="45.87661" lon="5.48184">
        <ele>785</ele>
        <time>2020-05-28T10:32:53.000Z</time>
      </trkpt>
      <trkpt lat="45.87663" lon="5.48184">
        <ele>784.96199936</ele>
        <time>2020-05-28T10:32:55.000Z</time>
      </trkpt>
      <trkpt lat="45.87666" lon="5.48184">
        <ele>784.56199936</ele>
        <time>2020-05-28T10:32:57.000Z</time>
      </trkpt>
      <trkpt lat="45.87668" lon="5.48184">
        <ele>784.16199936</ele>
        <time>2020-05-28T10:32:59.000Z</time>
      </trkpt>
      <trkpt lat="45.8767" lon="5.48184">
        <ele>783.76199936</ele>
        <time>2020-05-28T10:33:01.000Z</time>
      </trkpt>
      <trkpt lat="45.87673" lon="5.48185">
        <ele>783.56199936</ele>
        <time>2020-05-28T10:33:02.000Z</time>
      </trkpt>
      <trkpt lat="45.87675" lon="5.48184">
        <ele>783.36199936</ele>
        <time>2020-05-28T10:33:03.000Z</time>
      </trkpt>
      <trkpt lat="45.87677" lon="5.48184">
        <ele>783</ele>
        <time>2020-05-28T10:33:05.000Z</time>
      </trkpt>
      <trkpt lat="45.8768" lon="5.48183">
        <ele>783</ele>
        <time>2020-05-28T10:33:07.000Z</time>
      </trkpt>
      <trkpt lat="45.87682" lon="5.48183">
        <ele>783</ele>
        <time>2020-05-28T10:33:09.000Z</time>
      </trkpt>
      <trkpt lat="45.87684" lon="5.48183">
        <ele>783</ele>
        <time>2020-05-28T10:33:12.000Z</time>
      </trkpt>
      <trkpt lat="45.87686" lon="5.48183">
        <ele>783</ele>
        <time>2020-05-28T10:33:14.000Z</time>
      </trkpt>
      <trkpt lat="45.87689" lon="5.48183">
        <ele>782.78717189924</ele>
        <time>2020-05-28T10:33:17.000Z</time>
      </trkpt>
      <trkpt lat="45.87692" lon="5.48182">
        <ele>782.49562698173</ele>
        <time>2020-05-28T10:33:20.000Z</time>
      </trkpt>
      <trkpt lat="45.87694" lon="5.48181">
        <ele>782.30126370339</ele>
        <time>2020-05-28T10:33:22.000Z</time>
      </trkpt>
      <trkpt lat="45.87696" lon="5.4818">
        <ele>782.10690042505</ele>
        <time>2020-05-28T10:33:24.000Z</time>
      </trkpt>
      <trkpt lat="45.87699" lon="5.4818">
        <ele>781.90731261691</ele>
        <time>2020-05-28T10:33:26.000Z</time>
      </trkpt>
      <trkpt lat="45.87701" lon="5.48179">
        <ele>781.70133918979</ele>
        <time>2020-05-28T10:33:28.000Z</time>
      </trkpt>
      <trkpt lat="45.87703" lon="5.48179">
        <ele>781.49536576267</ele>
        <time>2020-05-28T10:33:30.000Z</time>
      </trkpt>
      <trkpt lat="45.87705" lon="5.48178">
        <ele>781.28939233555</ele>
        <time>2020-05-28T10:33:32.000Z</time>
      </trkpt>
      <trkpt lat="45.87707" lon="5.48178">
        <ele>781.08341890843</ele>
        <time>2020-05-28T10:33:34.000Z</time>
      </trkpt>
      <trkpt lat="45.87709" lon="5.48178">
        <ele>780.88099968</ele>
        <time>2020-05-28T10:33:36.000Z</time>
      </trkpt>
      <trkpt lat="45.87712" lon="5.48177">
        <ele>780.58099968</ele>
        <time>2020-05-28T10:33:39.000Z</time>
      </trkpt>
      <trkpt lat="45.87714" lon="5.48177">
        <ele>780.28099968</ele>
        <time>2020-05-28T10:33:42.000Z</time>
      </trkpt>
      <trkpt lat="45.87717" lon="5.48177">
        <ele>780.08099968</ele>
        <time>2020-05-28T10:33:44.000Z</time>
      </trkpt>
      <trkpt lat="45.87719" lon="5.48178">
        <ele>779.88099968</ele>
        <time>2020-05-28T10:33:46.000Z</time>
      </trkpt>
      <trkpt lat="45.87721" lon="5.48177">
        <ele>779.68099968</ele>
        <time>2020-05-28T10:33:48.000Z</time>
      </trkpt>
      <trkpt lat="45.87724" lon="5.48177">
        <ele>779.38099968</ele>
        <time>2020-05-28T10:33:51.000Z</time>
      </trkpt>
      <trkpt lat="45.87726" lon="5.48176">
        <ele>779.18099968</ele>
        <time>2020-05-28T10:33:53.000Z</time>
      </trkpt>
      <trkpt lat="45.87727" lon="5.48175">
        <ele>778.98099968</ele>
        <time>2020-05-28T10:33:55.000Z</time>
      </trkpt>
      <trkpt lat="45.87729" lon="5.48174">
        <ele>778.78099968</ele>
        <time>2020-05-28T10:33:57.000Z</time>
      </trkpt>
      <trkpt lat="45.87731" lon="5.48172">
        <ele>778.58099968</ele>
        <time>2020-05-28T10:33:59.000Z</time>
      </trkpt>
      <trkpt lat="45.87733" lon="5.4817">
        <ele>778.38099968</ele>
        <time>2020-05-28T10:34:01.000Z</time>
      </trkpt>
      <trkpt lat="45.87735" lon="5.48169">
        <ele>778.18099968</ele>
        <time>2020-05-28T10:34:03.000Z</time>
      </trkpt>
      <trkpt lat="45.87739" lon="5.48166">
        <ele>778</ele>
        <time>2020-05-28T10:34:06.000Z</time>
      </trkpt>
      <trkpt lat="45.87742" lon="5.48164">
        <ele>778</ele>
        <time>2020-05-28T10:34:09.000Z</time>
      </trkpt>
      <trkpt lat="45.87744" lon="5.48163">
        <ele>778</ele>
        <time>2020-05-28T10:34:11.000Z</time>
      </trkpt>
      <trkpt lat="45.87746" lon="5.48162">
        <ele>778</ele>
        <time>2020-05-28T10:34:13.000Z</time>
      </trkpt>
      <trkpt lat="45.87748" lon="5.48161">
        <ele>778</ele>
        <time>2020-05-28T10:34:15.000Z</time>
      </trkpt>
      <trkpt lat="45.8775" lon="5.4816">
        <ele>778</ele>
        <time>2020-05-28T10:34:18.000Z</time>
      </trkpt>
      <trkpt lat="45.87752" lon="5.48159">
        <ele>778</ele>
        <time>2020-05-28T10:34:20.000Z</time>
      </trkpt>
      <trkpt lat="45.87754" lon="5.48159">
        <ele>778</ele>
        <time>2020-05-28T10:34:22.000Z</time>
      </trkpt>
      <trkpt lat="45.87757" lon="5.48159">
        <ele>778</ele>
        <time>2020-05-28T10:34:24.000Z</time>
      </trkpt>
      <trkpt lat="45.87758" lon="5.48159">
        <ele>778</ele>
        <time>2020-05-28T10:34:26.000Z</time>
      </trkpt>
      <trkpt lat="45.8776" lon="5.48158">
        <ele>778</ele>
        <time>2020-05-28T10:34:29.000Z</time>
      </trkpt>
      <trkpt lat="45.87762" lon="5.48156">
        <ele>778</ele>
        <time>2020-05-28T10:34:31.000Z</time>
      </trkpt>
      <trkpt lat="45.87764" lon="5.48154">
        <ele>778</ele>
        <time>2020-05-28T10:34:33.000Z</time>
      </trkpt>
      <trkpt lat="45.87765" lon="5.48152">
        <ele>778</ele>
        <time>2020-05-28T10:34:35.000Z</time>
      </trkpt>
      <trkpt lat="45.87766" lon="5.48149">
        <ele>778</ele>
        <time>2020-05-28T10:34:38.000Z</time>
      </trkpt>
      <trkpt lat="45.87766" lon="5.48143">
        <ele>778</ele>
        <time>2020-05-28T10:34:45.000Z</time>
      </trkpt>
      <trkpt lat="45.8777" lon="5.48137">
        <ele>778</ele>
        <time>2020-05-28T10:35:01.000Z</time>
      </trkpt>
      <trkpt lat="45.87769" lon="5.48134">
        <ele>778</ele>
        <time>2020-05-28T10:35:12.000Z</time>
      </trkpt>
      <trkpt lat="45.87769" lon="5.48131">
        <ele>778</ele>
        <time>2020-05-28T10:35:14.000Z</time>
      </trkpt>
      <trkpt lat="45.87764" lon="5.48119">
        <ele>778.11900032</ele>
        <time>2020-05-28T10:35:26.000Z</time>
      </trkpt>
      <trkpt lat="45.87761" lon="5.48105">
        <ele>779.03755003953</ele>
        <time>2020-05-28T10:35:35.000Z</time>
      </trkpt>
      <trkpt lat="45.87758" lon="5.48092">
        <ele>780.61857770751</ele>
        <time>2020-05-28T10:35:43.000Z</time>
      </trkpt>
      <trkpt lat="45.87758" lon="5.48083">
        <ele>781</ele>
        <time>2020-05-28T10:35:50.000Z</time>
      </trkpt>
      <trkpt lat="45.87758" lon="5.48078">
        <ele>781</ele>
        <time>2020-05-28T10:35:53.000Z</time>
      </trkpt>
      <trkpt lat="45.87757" lon="5.48075">
        <ele>781.11900032</ele>
        <time>2020-05-28T10:35:56.000Z</time>
      </trkpt>
      <trkpt lat="45.87755" lon="5.48072">
        <ele>781.41900032</ele>
        <time>2020-05-28T10:35:59.000Z</time>
      </trkpt>
      <trkpt lat="45.87754" lon="5.48069">
        <ele>781.61900032</ele>
        <time>2020-05-28T10:36:01.000Z</time>
      </trkpt>
      <trkpt lat="45.87753" lon="5.48067">
        <ele>781.81900032</ele>
        <time>2020-05-28T10:36:03.000Z</time>
      </trkpt>
      <trkpt lat="45.87752" lon="5.48064">
        <ele>782.11888147657</ele>
        <time>2020-05-28T10:36:06.000Z</time>
      </trkpt>
      <trkpt lat="45.87751" lon="5.48062">
        <ele>782.31868174024</ele>
        <time>2020-05-28T10:36:08.000Z</time>
      </trkpt>
      <trkpt lat="45.8775" lon="5.48059">
        <ele>782.51848200391</ele>
        <time>2020-05-28T10:36:10.000Z</time>
      </trkpt>
      <trkpt lat="45.8775" lon="5.48056">
        <ele>782.81818239942</ele>
        <time>2020-05-28T10:36:13.000Z</time>
      </trkpt>
      <trkpt lat="45.8775" lon="5.48049">
        <ele>783.318318857</ele>
        <time>2020-05-28T10:36:18.000Z</time>
      </trkpt>
      <trkpt lat="45.8775" lon="5.48045">
        <ele>783.51851899307</ele>
        <time>2020-05-28T10:36:20.000Z</time>
      </trkpt>
      <trkpt lat="45.87751" lon="5.48041">
        <ele>783.71871912914</ele>
        <time>2020-05-28T10:36:22.000Z</time>
      </trkpt>
      <trkpt lat="45.87752" lon="5.48038">
        <ele>783.91891926521</ele>
        <time>2020-05-28T10:36:24.000Z</time>
      </trkpt>
      <trkpt lat="45.87755" lon="5.48025">
        <ele>784</ele>
        <time>2020-05-28T10:36:33.000Z</time>
      </trkpt>
      <trkpt lat="45.87755" lon="5.4802">
        <ele>784.0301211245</ele>
        <time>2020-05-28T10:36:35.000Z</time>
      </trkpt>
      <trkpt lat="45.87756" lon="5.48016">
        <ele>784.4317275502</ele>
        <time>2020-05-28T10:36:37.000Z</time>
      </trkpt>
      <trkpt lat="45.87757" lon="5.48014">
        <ele>784.8333339759</ele>
        <time>2020-05-28T10:36:39.000Z</time>
      </trkpt>
      <trkpt lat="45.87758" lon="5.48012">
        <ele>785.43574361446</ele>
        <time>2020-05-28T10:36:42.000Z</time>
      </trkpt>
      <trkpt lat="45.87759" lon="5.4801">
        <ele>785.83735004016</ele>
        <time>2020-05-28T10:36:44.000Z</time>
      </trkpt>
      <trkpt lat="45.8776" lon="5.48007">
        <ele>786.11852621514</ele>
        <time>2020-05-28T10:36:46.000Z</time>
      </trkpt>
      <trkpt lat="45.8776" lon="5.48004">
        <ele>786.41733099602</ele>
        <time>2020-05-28T10:36:49.000Z</time>
      </trkpt>
      <trkpt lat="45.87761" lon="5.48002">
        <ele>786.61653418327</ele>
        <time>2020-05-28T10:36:51.000Z</time>
      </trkpt>
      <trkpt lat="45.87763" lon="5.48">
        <ele>786.91533896414</ele>
        <time>2020-05-28T10:36:54.000Z</time>
      </trkpt>
      <trkpt lat="45.87764" lon="5.47998">
        <ele>787</ele>
        <time>2020-05-28T10:36:56.000Z</time>
      </trkpt>
      <trkpt lat="45.87766" lon="5.47997">
        <ele>787</ele>
        <time>2020-05-28T10:36:58.000Z</time>
      </trkpt>
      <trkpt lat="45.87768" lon="5.47995">
        <ele>787</ele>
        <time>2020-05-28T10:37:00.000Z</time>
      </trkpt>
      <trkpt lat="45.87768" lon="5.47992">
        <ele>787</ele>
        <time>2020-05-28T10:37:02.000Z</time>
      </trkpt>
      <trkpt lat="45.87769" lon="5.4799">
        <ele>787</ele>
        <time>2020-05-28T10:37:04.000Z</time>
      </trkpt>
      <trkpt lat="45.87771" lon="5.47987">
        <ele>787.21900032</ele>
        <time>2020-05-28T10:37:07.000Z</time>
      </trkpt>
      <trkpt lat="45.87772" lon="5.47984">
        <ele>787.41900032</ele>
        <time>2020-05-28T10:37:09.000Z</time>
      </trkpt>
      <trkpt lat="45.87772" lon="5.47981">
        <ele>787.61900032</ele>
        <time>2020-05-28T10:37:11.000Z</time>
      </trkpt>
      <trkpt lat="45.87772" lon="5.47979">
        <ele>787.81900032</ele>
        <time>2020-05-28T10:37:13.000Z</time>
      </trkpt>
      <trkpt lat="45.87772" lon="5.47975">
        <ele>788.11782202435</ele>
        <time>2020-05-28T10:37:16.000Z</time>
      </trkpt>
      <trkpt lat="45.87774" lon="5.47973">
        <ele>788.31584170085</ele>
        <time>2020-05-28T10:37:18.000Z</time>
      </trkpt>
      <trkpt lat="45.87774" lon="5.47969">
        <ele>788.61287121561</ele>
        <time>2020-05-28T10:37:21.000Z</time>
      </trkpt>
      <trkpt lat="45.87775" lon="5.47966">
        <ele>788.81089089211</ele>
        <time>2020-05-28T10:37:23.000Z</time>
      </trkpt>
      <trkpt lat="45.87777" lon="5.47964">
        <ele>789.01818118347</ele>
        <time>2020-05-28T10:37:25.000Z</time>
      </trkpt>
      <trkpt lat="45.87778" lon="5.47961">
        <ele>789.42222184871</ele>
        <time>2020-05-28T10:37:27.000Z</time>
      </trkpt>
      <trkpt lat="45.8778" lon="5.47959">
        <ele>789.82626251395</ele>
        <time>2020-05-28T10:37:29.000Z</time>
      </trkpt>
      <trkpt lat="45.87782" lon="5.47956">
        <ele>790.4323235118</ele>
        <time>2020-05-28T10:37:32.000Z</time>
      </trkpt>
      <trkpt lat="45.87783" lon="5.47954">
        <ele>790.83636417704</ele>
        <time>2020-05-28T10:37:34.000Z</time>
      </trkpt>
      <trkpt lat="45.87784" lon="5.47951">
        <ele>791</ele>
        <time>2020-05-28T10:37:37.000Z</time>
      </trkpt>
      <trkpt lat="45.87785" lon="5.47948">
        <ele>791</ele>
        <time>2020-05-28T10:37:40.000Z</time>
      </trkpt>
      <trkpt lat="45.87786" lon="5.47946">
        <ele>791</ele>
        <time>2020-05-28T10:37:42.000Z</time>
      </trkpt>
      <trkpt lat="45.87787" lon="5.47943">
        <ele>791.02813944423</ele>
        <time>2020-05-28T10:37:45.000Z</time>
      </trkpt>
      <trkpt lat="45.87788" lon="5.4794">
        <ele>791.43014988236</ele>
        <time>2020-05-28T10:37:47.000Z</time>
      </trkpt>
      <trkpt lat="45.87789" lon="5.47937">
        <ele>792.03316553954</ele>
        <time>2020-05-28T10:37:50.000Z</time>
      </trkpt>
      <trkpt lat="45.8779" lon="5.47935">
        <ele>792.43517597766</ele>
        <time>2020-05-28T10:37:52.000Z</time>
      </trkpt>
      <trkpt lat="45.87791" lon="5.47933">
        <ele>792.83718641578</ele>
        <time>2020-05-28T10:37:54.000Z</time>
      </trkpt>
      <trkpt lat="45.87792" lon="5.47929">
        <ele>793.21812780876</ele>
        <time>2020-05-28T10:37:57.000Z</time>
      </trkpt>
      <trkpt lat="45.87793" lon="5.47927">
        <ele>793.51693258964</ele>
        <time>2020-05-28T10:38:00.000Z</time>
      </trkpt>
      <trkpt lat="45.87795" lon="5.47924">
        <ele>793.81573737052</ele>
        <time>2020-05-28T10:38:03.000Z</time>
      </trkpt>
      <trkpt lat="45.87796" lon="5.47921">
        <ele>794.22908430279</ele>
        <time>2020-05-28T10:38:06.000Z</time>
      </trkpt>
      <trkpt lat="45.87796" lon="5.47918">
        <ele>794.62749067729</ele>
        <time>2020-05-28T10:38:08.000Z</time>
      </trkpt>
      <trkpt lat="45.87797" lon="5.47915">
        <ele>795.02589705179</ele>
        <time>2020-05-28T10:38:10.000Z</time>
      </trkpt>
      <trkpt lat="45.87798" lon="5.47912">
        <ele>795.62350661355</ele>
        <time>2020-05-28T10:38:13.000Z</time>
      </trkpt>
      <trkpt lat="45.87803" lon="5.479">
        <ele>796.59732162042</ele>
        <time>2020-05-28T10:38:28.000Z</time>
      </trkpt>
      <trkpt lat="45.87808" lon="5.47888">
        <ele>798.41900032</ele>
        <time>2020-05-28T10:38:39.000Z</time>
      </trkpt>
      <trkpt lat="45.87811" lon="5.47876">
        <ele>800.59183587156</ele>
        <time>2020-05-28T10:38:53.000Z</time>
      </trkpt>
      <trkpt lat="45.87815" lon="5.47864">
        <ele>802.62718875603</ele>
        <time>2020-05-28T10:39:03.000Z</time>
      </trkpt>
      <trkpt lat="45.87817" lon="5.47854">
        <ele>804.23800064</ele>
        <time>2020-05-28T10:39:11.000Z</time>
      </trkpt>
      <trkpt lat="45.87817" lon="5.47851">
        <ele>805</ele>
        <time>2020-05-28T10:39:15.000Z</time>
      </trkpt>
      <trkpt lat="45.87818" lon="5.47847">
        <ele>805</ele>
        <time>2020-05-28T10:39:19.000Z</time>
      </trkpt>
      <trkpt lat="45.87818" lon="5.47844">
        <ele>805</ele>
        <time>2020-05-28T10:39:22.000Z</time>
      </trkpt>
      <trkpt lat="45.87821" lon="5.47832">
        <ele>807.75675779563</ele>
        <time>2020-05-28T10:39:34.000Z</time>
      </trkpt>
      <trkpt lat="45.87825" lon="5.47819">
        <ele>809.31900032</ele>
        <time>2020-05-28T10:39:48.000Z</time>
      </trkpt>
      <trkpt lat="45.87831" lon="5.4781">
        <ele>810.65700096</ele>
        <time>2020-05-28T10:39:57.000Z</time>
      </trkpt>
      <trkpt lat="45.87837" lon="5.478">
        <ele>813.31900032</ele>
        <time>2020-05-28T10:40:08.000Z</time>
      </trkpt>
      <trkpt lat="45.87841" lon="5.47787">
        <ele>814.51284616601</ele>
        <time>2020-05-28T10:40:20.000Z</time>
      </trkpt>
      <trkpt lat="45.87847" lon="5.47776">
        <ele>815</ele>
        <time>2020-05-28T10:40:32.000Z</time>
      </trkpt>
      <trkpt lat="45.87851" lon="5.47773">
        <ele>815</ele>
        <time>2020-05-28T10:40:37.000Z</time>
      </trkpt>
      <trkpt lat="45.8786" lon="5.47767">
        <ele>815</ele>
        <time>2020-05-28T10:40:46.000Z</time>
      </trkpt>
      <trkpt lat="45.87868" lon="5.47761">
        <ele>815</ele>
        <time>2020-05-28T10:40:53.000Z</time>
      </trkpt>
      <trkpt lat="45.87877" lon="5.47755">
        <ele>815.7175647313</ele>
        <time>2020-05-28T10:41:02.000Z</time>
      </trkpt>
      <trkpt lat="45.87881" lon="5.47746">
        <ele>816.61823654877</ele>
        <time>2020-05-28T10:41:11.000Z</time>
      </trkpt>
      <trkpt lat="45.87882" lon="5.47741">
        <ele>817</ele>
        <time>2020-05-28T10:41:15.000Z</time>
      </trkpt>
      <trkpt lat="45.87884" lon="5.47739">
        <ele>817</ele>
        <time>2020-05-28T10:41:18.000Z</time>
      </trkpt>
      <trkpt lat="45.87888" lon="5.47733">
        <ele>817.01844690116</ele>
        <time>2020-05-28T10:41:25.000Z</time>
      </trkpt>
      <trkpt lat="45.87889" lon="5.47731">
        <ele>817.3097088561</ele>
        <time>2020-05-28T10:41:28.000Z</time>
      </trkpt>
      <trkpt lat="45.87891" lon="5.47729">
        <ele>817.60097081105</ele>
        <time>2020-05-28T10:41:31.000Z</time>
      </trkpt>
      <trkpt lat="45.87892" lon="5.47727">
        <ele>817.79514544768</ele>
        <time>2020-05-28T10:41:33.000Z</time>
      </trkpt>
      <trkpt lat="45.87894" lon="5.47725">
        <ele>817.98932008431</ele>
        <time>2020-05-28T10:41:35.000Z</time>
      </trkpt>
      <trkpt lat="45.87896" lon="5.47724">
        <ele>818.59587602202</ele>
        <time>2020-05-28T10:41:38.000Z</time>
      </trkpt>
      <trkpt lat="45.87897" lon="5.47722">
        <ele>819.42061883422</ele>
        <time>2020-05-28T10:41:42.000Z</time>
      </trkpt>
      <trkpt lat="45.87899" lon="5.4772">
        <ele>820.01900032</ele>
        <time>2020-05-28T10:41:45.000Z</time>
      </trkpt>
      <trkpt lat="45.879" lon="5.47717">
        <ele>820.31900032</ele>
        <time>2020-05-28T10:41:48.000Z</time>
      </trkpt>
      <trkpt lat="45.87901" lon="5.47715">
        <ele>820.71900032</ele>
        <time>2020-05-28T10:41:52.000Z</time>
      </trkpt>
      <trkpt lat="45.87902" lon="5.47713">
        <ele>821.03788696697</ele>
        <time>2020-05-28T10:41:55.000Z</time>
      </trkpt>
      <trkpt lat="45.87903" lon="5.4771">
        <ele>821.63609215997</ele>
        <time>2020-05-28T10:41:58.000Z</time>
      </trkpt>
      <trkpt lat="45.87904" lon="5.47708">
        <ele>822.03489562197</ele>
        <time>2020-05-28T10:42:00.000Z</time>
      </trkpt>
      <trkpt lat="45.87905" lon="5.47705">
        <ele>822.63310081496</ele>
        <time>2020-05-28T10:42:03.000Z</time>
      </trkpt>
      <trkpt lat="45.87906" lon="5.47703">
        <ele>823</ele>
        <time>2020-05-28T10:42:05.000Z</time>
      </trkpt>
      <trkpt lat="45.8791" lon="5.47696">
        <ele>823</ele>
        <time>2020-05-28T10:42:11.000Z</time>
      </trkpt>
      <trkpt lat="45.87915" lon="5.47685">
        <ele>823.61900032</ele>
        <time>2020-05-28T10:42:21.000Z</time>
      </trkpt>
      <trkpt lat="45.87915" lon="5.47677">
        <ele>824.43323491727</ele>
        <time>2020-05-28T10:42:27.000Z</time>
      </trkpt>
      <trkpt lat="45.87915" lon="5.47673">
        <ele>825.42235428768</ele>
        <time>2020-05-28T10:42:32.000Z</time>
      </trkpt>
      <trkpt lat="45.87915" lon="5.4767">
        <ele>826.01617796277</ele>
        <time>2020-05-28T10:42:35.000Z</time>
      </trkpt>
      <trkpt lat="45.87916" lon="5.47666">
        <ele>826.82507610114</ele>
        <time>2020-05-28T10:42:39.000Z</time>
      </trkpt>
      <trkpt lat="45.87916" lon="5.47663">
        <ele>828.11900032</ele>
        <time>2020-05-28T10:42:46.000Z</time>
      </trkpt>
      <trkpt lat="45.87915" lon="5.47661">
        <ele>828.31900032</ele>
        <time>2020-05-28T10:42:48.000Z</time>
      </trkpt>
      <trkpt lat="45.87914" lon="5.47657">
        <ele>828.71900032</ele>
        <time>2020-05-28T10:42:52.000Z</time>
      </trkpt>
      <trkpt lat="45.87914" lon="5.47655">
        <ele>829.3566444297</ele>
        <time>2020-05-28T10:42:56.000Z</time>
      </trkpt>
      <trkpt lat="45.87912" lon="5.47656">
        <ele>830.85514640724</ele>
        <time>2020-05-28T10:43:01.000Z</time>
      </trkpt>
      <trkpt lat="45.8791" lon="5.47657">
        <ele>832</ele>
        <time>2020-05-28T10:43:06.000Z</time>
      </trkpt>
      <trkpt lat="45.87909" lon="5.47658">
        <ele>832</ele>
        <time>2020-05-28T10:43:09.000Z</time>
      </trkpt>
      <trkpt lat="45.87906" lon="5.47659">
        <ele>832</ele>
        <time>2020-05-28T10:43:12.000Z</time>
      </trkpt>
      <trkpt lat="45.87905" lon="5.47659">
        <ele>832.00607838484</ele>
        <time>2020-05-28T10:43:15.000Z</time>
      </trkpt>
      <trkpt lat="45.87903" lon="5.47661">
        <ele>832.4113472694</ele>
        <time>2020-05-28T10:43:19.000Z</time>
      </trkpt>
      <trkpt lat="45.87901" lon="5.47662">
        <ele>832.71529893281</ele>
        <time>2020-05-28T10:43:22.000Z</time>
      </trkpt>
      <trkpt lat="45.87899" lon="5.47663">
        <ele>833.23776295313</ele>
        <time>2020-05-28T10:43:26.000Z</time>
      </trkpt>
      <trkpt lat="45.87897" lon="5.47666">
        <ele>833.83716374415</ele>
        <time>2020-05-28T10:43:29.000Z</time>
      </trkpt>
      <trkpt lat="45.87895" lon="5.47666">
        <ele>834.43656453517</ele>
        <time>2020-05-28T10:43:32.000Z</time>
      </trkpt>
      <trkpt lat="45.87892" lon="5.47666">
        <ele>835.03603730577</ele>
        <time>2020-05-28T10:43:35.000Z</time>
      </trkpt>
      <trkpt lat="45.8789" lon="5.47668">
        <ele>835.63663771399</ele>
        <time>2020-05-28T10:43:38.000Z</time>
      </trkpt>
      <trkpt lat="45.87888" lon="5.47668">
        <ele>836.23723812221</ele>
        <time>2020-05-28T10:43:41.000Z</time>
      </trkpt>
      <trkpt lat="45.87886" lon="5.47669">
        <ele>836.83783853042</ele>
        <time>2020-05-28T10:43:44.000Z</time>
      </trkpt>
      <trkpt lat="45.87884" lon="5.47669">
        <ele>837.43800064</ele>
        <time>2020-05-28T10:43:47.000Z</time>
      </trkpt>
      <trkpt lat="45.87882" lon="5.47671">
        <ele>837.83800064</ele>
        <time>2020-05-28T10:43:49.000Z</time>
      </trkpt>
      <trkpt lat="45.87881" lon="5.47672">
        <ele>838.23800064</ele>
        <time>2020-05-28T10:43:51.000Z</time>
      </trkpt>
      <trkpt lat="45.87879" lon="5.47673">
        <ele>838.83800064</ele>
        <time>2020-05-28T10:43:54.000Z</time>
      </trkpt>
      <trkpt lat="45.87876" lon="5.47673">
        <ele>839.31868174024</ele>
        <time>2020-05-28T10:43:58.000Z</time>
      </trkpt>
      <trkpt lat="45.87875" lon="5.47672">
        <ele>839.61838213575</ele>
        <time>2020-05-28T10:44:01.000Z</time>
      </trkpt>
      <trkpt lat="45.87873" lon="5.47672">
        <ele>839.91808253125</ele>
        <time>2020-05-28T10:44:04.000Z</time>
      </trkpt>
      <trkpt lat="45.8787" lon="5.47671">
        <ele>840.21821878896</ele>
        <time>2020-05-28T10:44:07.000Z</time>
      </trkpt>
      <trkpt lat="45.87868" lon="5.47673">
        <ele>840.41841892503</ele>
        <time>2020-05-28T10:44:09.000Z</time>
      </trkpt>
      <trkpt lat="45.87866" lon="5.47673">
        <ele>840.71871912914</ele>
        <time>2020-05-28T10:44:12.000Z</time>
      </trkpt>
      <trkpt lat="45.87864" lon="5.47674">
        <ele>840.91891926521</ele>
        <time>2020-05-28T10:44:14.000Z</time>
      </trkpt>
      <trkpt lat="45.87861" lon="5.47675">
        <ele>841.21900032</ele>
        <time>2020-05-28T10:44:17.000Z</time>
      </trkpt>
      <trkpt lat="45.87859" lon="5.47674">
        <ele>841.51900032</ele>
        <time>2020-05-28T10:44:20.000Z</time>
      </trkpt>
      <trkpt lat="45.87857" lon="5.47674">
        <ele>841.81900032</ele>
        <time>2020-05-28T10:44:23.000Z</time>
      </trkpt>
      <trkpt lat="45.87855" lon="5.47675">
        <ele>842</ele>
        <time>2020-05-28T10:44:26.000Z</time>
      </trkpt>
      <trkpt lat="45.87853" lon="5.47675">
        <ele>842</ele>
        <time>2020-05-28T10:44:29.000Z</time>
      </trkpt>
      <trkpt lat="45.87851" lon="5.47676">
        <ele>842</ele>
        <time>2020-05-28T10:44:33.000Z</time>
      </trkpt>
      <trkpt lat="45.87848" lon="5.47678">
        <ele>842.23129292319</ele>
        <time>2020-05-28T10:44:36.000Z</time>
      </trkpt>
      <trkpt lat="45.87846" lon="5.47679">
        <ele>842.81438275821</ele>
        <time>2020-05-28T10:44:39.000Z</time>
      </trkpt>
      <trkpt lat="45.87844" lon="5.4768">
        <ele>843.20310931488</ele>
        <time>2020-05-28T10:44:41.000Z</time>
      </trkpt>
      <trkpt lat="45.87842" lon="5.47682">
        <ele>843.59183587156</ele>
        <time>2020-05-28T10:44:43.000Z</time>
      </trkpt>
      <trkpt lat="45.87841" lon="5.47684">
        <ele>843.98056242824</ele>
        <time>2020-05-28T10:44:45.000Z</time>
      </trkpt>
      <trkpt lat="45.8784" lon="5.47686">
        <ele>844.29866081021</ele>
        <time>2020-05-28T10:44:48.000Z</time>
      </trkpt>
      <trkpt lat="45.87838" lon="5.47687">
        <ele>844.50463423733</ele>
        <time>2020-05-28T10:44:50.000Z</time>
      </trkpt>
      <trkpt lat="45.87836" lon="5.47688">
        <ele>844.81359437801</ele>
        <time>2020-05-28T10:44:53.000Z</time>
      </trkpt>
      <trkpt lat="45.87834" lon="5.47689">
        <ele>845.03800064</ele>
        <time>2020-05-28T10:44:55.000Z</time>
      </trkpt>
      <trkpt lat="45.87832" lon="5.47688">
        <ele>845.43800064</ele>
        <time>2020-05-28T10:44:57.000Z</time>
      </trkpt>
      <trkpt lat="45.8783" lon="5.47689">
        <ele>846.03800064</ele>
        <time>2020-05-28T10:45:00.000Z</time>
      </trkpt>
      <trkpt lat="45.87827" lon="5.4769">
        <ele>846.63800064</ele>
        <time>2020-05-28T10:45:03.000Z</time>
      </trkpt>
      <trkpt lat="45.87825" lon="5.47692">
        <ele>847.11900032</ele>
        <time>2020-05-28T10:45:06.000Z</time>
      </trkpt>
      <trkpt lat="45.87822" lon="5.47693">
        <ele>847.41900032</ele>
        <time>2020-05-28T10:45:09.000Z</time>
      </trkpt>
      <trkpt lat="45.8782" lon="5.47693">
        <ele>847.81900032</ele>
        <time>2020-05-28T10:45:13.000Z</time>
      </trkpt>
      <trkpt lat="45.87818" lon="5.47692">
        <ele>848.43195302125</ele>
        <time>2020-05-28T10:45:17.000Z</time>
      </trkpt>
      <trkpt lat="45.87816" lon="5.47692">
        <ele>849.02366862411</ele>
        <time>2020-05-28T10:45:20.000Z</time>
      </trkpt>
      <trkpt lat="45.87814" lon="5.47692">
        <ele>849.61538422698</ele>
        <time>2020-05-28T10:45:23.000Z</time>
      </trkpt>
      <trkpt lat="45.87812" lon="5.47692">
        <ele>850.10510475112</ele>
        <time>2020-05-28T10:45:26.000Z</time>
      </trkpt>
      <trkpt lat="45.8781" lon="5.47692">
        <ele>850.30530488719</ele>
        <time>2020-05-28T10:45:28.000Z</time>
      </trkpt>
      <trkpt lat="45.87808" lon="5.47692">
        <ele>850.50550502326</ele>
        <time>2020-05-28T10:45:30.000Z</time>
      </trkpt>
      <trkpt lat="45.87806" lon="5.47692">
        <ele>850.80580522737</ele>
        <time>2020-05-28T10:45:33.000Z</time>
      </trkpt>
      <trkpt lat="45.87804" lon="5.47693">
        <ele>851.41700329328</ele>
        <time>2020-05-28T10:45:37.000Z</time>
      </trkpt>
      <trkpt lat="45.87802" lon="5.47693">
        <ele>852.2267209415</ele>
        <time>2020-05-28T10:45:41.000Z</time>
      </trkpt>
      <trkpt lat="45.878" lon="5.47692">
        <ele>853.03603730577</ele>
        <time>2020-05-28T10:45:45.000Z</time>
      </trkpt>
      <trkpt lat="45.87797" lon="5.47693">
        <ele>853.83683785006</ele>
        <time>2020-05-28T10:45:49.000Z</time>
      </trkpt>
      <trkpt lat="45.87795" lon="5.47692">
        <ele>854.43743825828</ele>
        <time>2020-05-28T10:45:52.000Z</time>
      </trkpt>
      <trkpt lat="45.87793" lon="5.47692">
        <ele>855</ele>
        <time>2020-05-28T10:45:55.000Z</time>
      </trkpt>
      <trkpt lat="45.87791" lon="5.47692">
        <ele>855</ele>
        <time>2020-05-28T10:45:58.000Z</time>
      </trkpt>
      <trkpt lat="45.87788" lon="5.47693">
        <ele>855</ele>
        <time>2020-05-28T10:46:01.000Z</time>
      </trkpt>
      <trkpt lat="45.87786" lon="5.47694">
        <ele>855</ele>
        <time>2020-05-28T10:46:04.000Z</time>
      </trkpt>
      <trkpt lat="45.87784" lon="5.47694">
        <ele>855.21900032</ele>
        <time>2020-05-28T10:46:07.000Z</time>
      </trkpt>
      <trkpt lat="45.87782" lon="5.47694">
        <ele>855.91900032</ele>
        <time>2020-05-28T10:46:14.000Z</time>
      </trkpt>
      <trkpt lat="45.8778" lon="5.47694">
        <ele>856.11564646159</ele>
        <time>2020-05-28T10:46:16.000Z</time>
      </trkpt>
      <trkpt lat="45.87778" lon="5.47695">
        <ele>856.31000973993</ele>
        <time>2020-05-28T10:46:18.000Z</time>
      </trkpt>
      <trkpt lat="45.87775" lon="5.47697">
        <ele>856.79591793578</ele>
        <time>2020-05-28T10:46:23.000Z</time>
      </trkpt>
      <trkpt lat="45.87773" lon="5.47698">
        <ele>857.19567409665</ele>
        <time>2020-05-28T10:46:27.000Z</time>
      </trkpt>
      <trkpt lat="45.87771" lon="5.47697">
        <ele>857.60762095089</ele>
        <time>2020-05-28T10:46:31.000Z</time>
      </trkpt>
      <trkpt lat="45.8777" lon="5.47694">
        <ele>858.11900032</ele>
        <time>2020-05-28T10:46:36.000Z</time>
      </trkpt>
      <trkpt lat="45.87769" lon="5.47692">
        <ele>858.41900032</ele>
        <time>2020-05-28T10:46:39.000Z</time>
      </trkpt>
      <trkpt lat="45.87768" lon="5.4769">
        <ele>858.61900032</ele>
        <time>2020-05-28T10:46:41.000Z</time>
      </trkpt>
      <trkpt lat="45.87766" lon="5.47688">
        <ele>858.81900032</ele>
        <time>2020-05-28T10:46:43.000Z</time>
      </trkpt>
      <trkpt lat="45.87764" lon="5.47686">
        <ele>859</ele>
        <time>2020-05-28T10:46:45.000Z</time>
      </trkpt>
      <trkpt lat="45.87763" lon="5.47684">
        <ele>859</ele>
        <time>2020-05-28T10:46:47.000Z</time>
      </trkpt>
      <trkpt lat="45.87761" lon="5.47682">
        <ele>859</ele>
        <time>2020-05-28T10:46:50.000Z</time>
      </trkpt>
      <trkpt lat="45.87759" lon="5.4768">
        <ele>859</ele>
        <time>2020-05-28T10:46:53.000Z</time>
      </trkpt>
      <trkpt lat="45.87757" lon="5.47679">
        <ele>859</ele>
        <time>2020-05-28T10:46:58.000Z</time>
      </trkpt>
      <trkpt lat="45.87755" lon="5.4768">
        <ele>859</ele>
        <time>2020-05-28T10:47:00.000Z</time>
      </trkpt>
      <trkpt lat="45.87753" lon="5.4768">
        <ele>859</ele>
        <time>2020-05-28T10:47:03.000Z</time>
      </trkpt>
      <trkpt lat="45.87751" lon="5.47679">
        <ele>859.03209629917</ele>
        <time>2020-05-28T10:47:05.000Z</time>
      </trkpt>
      <trkpt lat="45.87745" lon="5.4768">
        <ele>860.43630938778</ele>
        <time>2020-05-28T10:47:12.000Z</time>
      </trkpt>
      <trkpt lat="45.87743" lon="5.4768">
        <ele>860.83751312739</ele>
        <time>2020-05-28T10:47:14.000Z</time>
      </trkpt>
      <trkpt lat="45.87741" lon="5.4768">
        <ele>861.43800064</ele>
        <time>2020-05-28T10:47:17.000Z</time>
      </trkpt>
      <trkpt lat="45.87739" lon="5.47682">
        <ele>862.23800064</ele>
        <time>2020-05-28T10:47:21.000Z</time>
      </trkpt>
      <trkpt lat="45.87737" lon="5.47683">
        <ele>863</ele>
        <time>2020-05-28T10:47:25.000Z</time>
      </trkpt>
      <trkpt lat="45.87735" lon="5.47685">
        <ele>863</ele>
        <time>2020-05-28T10:47:29.000Z</time>
      </trkpt>
      <trkpt lat="45.87733" lon="5.47685">
        <ele>863</ele>
        <time>2020-05-28T10:47:33.000Z</time>
      </trkpt>
      <trkpt lat="45.87731" lon="5.47687">
        <ele>863.23389599154</ele>
        <time>2020-05-28T10:47:36.000Z</time>
      </trkpt>
      <trkpt lat="45.8773" lon="5.47688">
        <ele>863.82854359227</ele>
        <time>2020-05-28T10:47:39.000Z</time>
      </trkpt>
      <trkpt lat="45.87728" lon="5.4769">
        <ele>864.423191193</ele>
        <time>2020-05-28T10:47:42.000Z</time>
      </trkpt>
      <trkpt lat="45.87725" lon="5.47691">
        <ele>865.10696726768</ele>
        <time>2020-05-28T10:47:46.000Z</time>
      </trkpt>
      <trkpt lat="45.87724" lon="5.47691">
        <ele>865.49950885197</ele>
        <time>2020-05-28T10:47:50.000Z</time>
      </trkpt>
      <trkpt lat="45.87721" lon="5.47692">
        <ele>865.79391504018</ele>
        <time>2020-05-28T10:47:53.000Z</time>
      </trkpt>
      <trkpt lat="45.8772" lon="5.47688">
        <ele>866.39094570001</ele>
        <time>2020-05-28T10:47:57.000Z</time>
      </trkpt>
      <trkpt lat="45.87719" lon="5.47684">
        <ele>866.80246887568</ele>
        <time>2020-05-28T10:47:59.000Z</time>
      </trkpt>
      <trkpt lat="45.87719" lon="5.47681">
        <ele>867.41975363918</ele>
        <time>2020-05-28T10:48:02.000Z</time>
      </trkpt>
      <trkpt lat="45.87724" lon="5.4767">
        <ele>868.83800064</ele>
        <time>2020-05-28T10:48:19.000Z</time>
      </trkpt>
      <trkpt lat="45.87727" lon="5.47658">
        <ele>871.03800064</ele>
        <time>2020-05-28T10:48:30.000Z</time>
      </trkpt>
      <trkpt lat="45.8773" lon="5.47644">
        <ele>872</ele>
        <time>2020-05-28T10:48:43.000Z</time>
      </trkpt>
      <trkpt lat="45.87735" lon="5.47632">
        <ele>875.22796342335</ele>
        <time>2020-05-28T10:49:01.000Z</time>
      </trkpt>
      <trkpt lat="45.87741" lon="5.47621">
        <ele>877.83800064</ele>
        <time>2020-05-28T10:49:19.000Z</time>
      </trkpt>
      <trkpt lat="45.87749" lon="5.47612">
        <ele>880.63800064</ele>
        <time>2020-05-28T10:49:33.000Z</time>
      </trkpt>
      <trkpt lat="45.87755" lon="5.47602">
        <ele>883.41725188919</ele>
        <time>2020-05-28T10:49:49.000Z</time>
      </trkpt>
      <trkpt lat="45.87755" lon="5.47589">
        <ele>886</ele>
        <time>2020-05-28T10:50:11.000Z</time>
      </trkpt>
      <trkpt lat="45.87745" lon="5.4759">
        <ele>888.03800064</ele>
        <time>2020-05-28T10:50:25.000Z</time>
      </trkpt>
      <trkpt lat="45.87739" lon="5.4759">
        <ele>890</ele>
        <time>2020-05-28T10:50:35.000Z</time>
      </trkpt>
      <trkpt lat="45.87735" lon="5.47589">
        <ele>890</ele>
        <time>2020-05-28T10:50:39.000Z</time>
      </trkpt>
      <trkpt lat="45.87732" lon="5.47587">
        <ele>890</ele>
        <time>2020-05-28T10:50:42.000Z</time>
      </trkpt>
      <trkpt lat="45.8773" lon="5.47586">
        <ele>890</ele>
        <time>2020-05-28T10:50:44.000Z</time>
      </trkpt>
      <trkpt lat="45.87728" lon="5.47586">
        <ele>890</ele>
        <time>2020-05-28T10:50:46.000Z</time>
      </trkpt>
      <trkpt lat="45.87726" lon="5.47585">
        <ele>890</ele>
        <time>2020-05-28T10:50:48.000Z</time>
      </trkpt>
      <trkpt lat="45.87724" lon="5.47584">
        <ele>890</ele>
        <time>2020-05-28T10:50:51.000Z</time>
      </trkpt>
      <trkpt lat="45.87721" lon="5.47584">
        <ele>890</ele>
        <time>2020-05-28T10:50:54.000Z</time>
      </trkpt>
      <trkpt lat="45.87719" lon="5.47582">
        <ele>890.11431350296</ele>
        <time>2020-05-28T10:50:56.000Z</time>
      </trkpt>
      <trkpt lat="45.87716" lon="5.47581">
        <ele>890.30643652071</ele>
        <time>2020-05-28T10:50:58.000Z</time>
      </trkpt>
      <trkpt lat="45.87715" lon="5.4758">
        <ele>890.49855953846</ele>
        <time>2020-05-28T10:51:00.000Z</time>
      </trkpt>
      <trkpt lat="45.87712" lon="5.47579">
        <ele>890.78674406509</ele>
        <time>2020-05-28T10:51:03.000Z</time>
      </trkpt>
      <trkpt lat="45.8771" lon="5.47578">
        <ele>891.08133536389</ele>
        <time>2020-05-28T10:51:06.000Z</time>
      </trkpt>
      <trkpt lat="45.87709" lon="5.47576">
        <ele>891.28988586782</ele>
        <time>2020-05-28T10:51:08.000Z</time>
      </trkpt>
      <trkpt lat="45.87707" lon="5.47574">
        <ele>891.6027116237</ele>
        <time>2020-05-28T10:51:11.000Z</time>
      </trkpt>
      <trkpt lat="45.87705" lon="5.47572">
        <ele>891.91553737959</ele>
        <time>2020-05-28T10:51:14.000Z</time>
      </trkpt>
      <trkpt lat="45.87703" lon="5.4757">
        <ele>892.43800064</ele>
        <time>2020-05-28T10:51:17.000Z</time>
      </trkpt>
      <trkpt lat="45.87701" lon="5.47569">
        <ele>893.23800064</ele>
        <time>2020-05-28T10:51:21.000Z</time>
      </trkpt>
      <trkpt lat="45.877" lon="5.47566">
        <ele>893.83800064</ele>
        <time>2020-05-28T10:51:24.000Z</time>
      </trkpt>
      <trkpt lat="45.87696" lon="5.47564">
        <ele>894.31900032</ele>
        <time>2020-05-28T10:51:28.000Z</time>
      </trkpt>
      <trkpt lat="45.87693" lon="5.47564">
        <ele>894.61900032</ele>
        <time>2020-05-28T10:51:31.000Z</time>
      </trkpt>
      <trkpt lat="45.87691" lon="5.47564">
        <ele>895.01898134473</ele>
        <time>2020-05-28T10:51:35.000Z</time>
      </trkpt>
      <trkpt lat="45.87689" lon="5.47564">
        <ele>895.31868174024</ele>
        <time>2020-05-28T10:51:38.000Z</time>
      </trkpt>
      <trkpt lat="45.87687" lon="5.47564">
        <ele>895.71828226758</ele>
        <time>2020-05-28T10:51:42.000Z</time>
      </trkpt>
      <trkpt lat="45.87687" lon="5.47567">
        <ele>896.43643757792</ele>
        <time>2020-05-28T10:51:47.000Z</time>
      </trkpt>
      <trkpt lat="45.87687" lon="5.4757">
        <ele>896.83683785006</ele>
        <time>2020-05-28T10:51:49.000Z</time>
      </trkpt>
      <trkpt lat="45.87687" lon="5.47573">
        <ele>897.43743825828</ele>
        <time>2020-05-28T10:51:52.000Z</time>
      </trkpt>
      <trkpt lat="45.87686" lon="5.47576">
        <ele>898.01900032</ele>
        <time>2020-05-28T10:51:55.000Z</time>
      </trkpt>
      <trkpt lat="45.87687" lon="5.47579">
        <ele>898.31900032</ele>
        <time>2020-05-28T10:51:58.000Z</time>
      </trkpt>
      <trkpt lat="45.87688" lon="5.47582">
        <ele>900.03800064</ele>
        <time>2020-05-28T10:52:10.000Z</time>
      </trkpt>
      <trkpt lat="45.87689" lon="5.47585">
        <ele>900.63800064</ele>
        <time>2020-05-28T10:52:13.000Z</time>
      </trkpt>
      <trkpt lat="45.87688" lon="5.47588">
        <ele>901.03800064</ele>
        <time>2020-05-28T10:52:15.000Z</time>
      </trkpt>
      <trkpt lat="45.87687" lon="5.4759">
        <ele>901.63800064</ele>
        <time>2020-05-28T10:52:18.000Z</time>
      </trkpt>
      <trkpt lat="45.87686" lon="5.47594">
        <ele>902.43800064</ele>
        <time>2020-05-28T10:52:22.000Z</time>
      </trkpt>
      <trkpt lat="45.87685" lon="5.47599">
        <ele>903.21900032</ele>
        <time>2020-05-28T10:52:27.000Z</time>
      </trkpt>
      <trkpt lat="45.87681" lon="5.47604">
        <ele>903.61900032</ele>
        <time>2020-05-28T10:52:31.000Z</time>
      </trkpt>
      <trkpt lat="45.8768" lon="5.47607">
        <ele>903.81900032</ele>
        <time>2020-05-28T10:52:33.000Z</time>
      </trkpt>
      <trkpt lat="45.87679" lon="5.4761">
        <ele>904</ele>
        <time>2020-05-28T10:52:35.000Z</time>
      </trkpt>
      <trkpt lat="45.87678" lon="5.47612">
        <ele>904</ele>
        <time>2020-05-28T10:52:37.000Z</time>
      </trkpt>
      <trkpt lat="45.87677" lon="5.47615">
        <ele>904</ele>
        <time>2020-05-28T10:52:39.000Z</time>
      </trkpt>
      <trkpt lat="45.87676" lon="5.47617">
        <ele>904</ele>
        <time>2020-05-28T10:52:41.000Z</time>
      </trkpt>
      <trkpt lat="45.87675" lon="5.47619">
        <ele>904</ele>
        <time>2020-05-28T10:52:43.000Z</time>
      </trkpt>
      <trkpt lat="45.87673" lon="5.47622">
        <ele>904.03800064</ele>
        <time>2020-05-28T10:52:45.000Z</time>
      </trkpt>
      <trkpt lat="45.87671" lon="5.47623">
        <ele>904.83800064</ele>
        <time>2020-05-28T10:52:49.000Z</time>
      </trkpt>
      <trkpt lat="45.87669" lon="5.47625">
        <ele>905.23800064</ele>
        <time>2020-05-28T10:52:51.000Z</time>
      </trkpt>
      <trkpt lat="45.87666" lon="5.47627">
        <ele>905.83800064</ele>
        <time>2020-05-28T10:52:54.000Z</time>
      </trkpt>
      <trkpt lat="45.87664" lon="5.47627">
        <ele>906.21618964705</ele>
        <time>2020-05-28T10:52:57.000Z</time>
      </trkpt>
      <trkpt lat="45.87656" lon="5.47636">
        <ele>907.4109310587</ele>
        <time>2020-05-28T10:53:09.000Z</time>
      </trkpt>
      <trkpt lat="45.87654" lon="5.47638">
        <ele>907.61336047075</ele>
        <time>2020-05-28T10:53:11.000Z</time>
      </trkpt>
      <trkpt lat="45.87652" lon="5.47639">
        <ele>907.81578988281</ele>
        <time>2020-05-28T10:53:13.000Z</time>
      </trkpt>
      <trkpt lat="45.8765" lon="5.47641">
        <ele>908.11811872092</ele>
        <time>2020-05-28T10:53:16.000Z</time>
      </trkpt>
      <trkpt lat="45.87648" lon="5.47641">
        <ele>908.41841892503</ele>
        <time>2020-05-28T10:53:19.000Z</time>
      </trkpt>
      <trkpt lat="45.87645" lon="5.47641">
        <ele>908.71871912914</ele>
        <time>2020-05-28T10:53:22.000Z</time>
      </trkpt>
      <trkpt lat="45.87643" lon="5.47641">
        <ele>908.91891926521</ele>
        <time>2020-05-28T10:53:24.000Z</time>
      </trkpt>
      <trkpt lat="45.87641" lon="5.47641">
        <ele>909.43800064</ele>
        <time>2020-05-28T10:53:27.000Z</time>
      </trkpt>
      <trkpt lat="45.87638" lon="5.47642">
        <ele>910.03800064</ele>
        <time>2020-05-28T10:53:30.000Z</time>
      </trkpt>
      <trkpt lat="45.87636" lon="5.47642">
        <ele>910.43800064</ele>
        <time>2020-05-28T10:53:32.000Z</time>
      </trkpt>
      <trkpt lat="45.87634" lon="5.47642">
        <ele>910.83800064</ele>
        <time>2020-05-28T10:53:34.000Z</time>
      </trkpt>
      <trkpt lat="45.87632" lon="5.47644">
        <ele>911</ele>
        <time>2020-05-28T10:53:36.000Z</time>
      </trkpt>
      <trkpt lat="45.8763" lon="5.47645">
        <ele>911</ele>
        <time>2020-05-28T10:53:38.000Z</time>
      </trkpt>
      <trkpt lat="45.87628" lon="5.47646">
        <ele>911</ele>
        <time>2020-05-28T10:53:41.000Z</time>
      </trkpt>
      <trkpt lat="45.87625" lon="5.47649">
        <ele>911</ele>
        <time>2020-05-28T10:53:44.000Z</time>
      </trkpt>
      <trkpt lat="45.87624" lon="5.47651">
        <ele>910.88693964167</ele>
        <time>2020-05-28T10:53:46.000Z</time>
      </trkpt>
      <trkpt lat="45.87622" lon="5.47654">
        <ele>910.59454216325</ele>
        <time>2020-05-28T10:53:49.000Z</time>
      </trkpt>
      <trkpt lat="45.87616" lon="5.47658">
        <ele>910.0097472064</ele>
        <time>2020-05-28T10:53:55.000Z</time>
      </trkpt>
      <trkpt lat="45.87615" lon="5.4766">
        <ele>910.59732162042</ele>
        <time>2020-05-28T10:53:58.000Z</time>
      </trkpt>
      <trkpt lat="45.87613" lon="5.47662">
        <ele>911.21524190178</ele>
        <time>2020-05-28T10:54:01.000Z</time>
      </trkpt>
      <trkpt lat="45.8761" lon="5.47662">
        <ele>911.83316218315</ele>
        <time>2020-05-28T10:54:04.000Z</time>
      </trkpt>
      <trkpt lat="45.87606" lon="5.47665">
        <ele>912.50290728682</ele>
        <time>2020-05-28T10:54:10.000Z</time>
      </trkpt>
      <trkpt lat="45.87604" lon="5.47667">
        <ele>912.79360496124</ele>
        <time>2020-05-28T10:54:13.000Z</time>
      </trkpt>
      <trkpt lat="45.87602" lon="5.47669">
        <ele>912.98740341085</ele>
        <time>2020-05-28T10:54:15.000Z</time>
      </trkpt>
      <trkpt lat="45.87599" lon="5.47671">
        <ele>913.38636429752</ele>
        <time>2020-05-28T10:54:17.000Z</time>
      </trkpt>
      <trkpt lat="45.87597" lon="5.47671">
        <ele>913.79958743802</ele>
        <time>2020-05-28T10:54:19.000Z</time>
      </trkpt>
      <trkpt lat="45.87595" lon="5.47672">
        <ele>914.21281057851</ele>
        <time>2020-05-28T10:54:21.000Z</time>
      </trkpt>
      <trkpt lat="45.87594" lon="5.47673">
        <ele>914.62603371901</ele>
        <time>2020-05-28T10:54:23.000Z</time>
      </trkpt>
      <trkpt lat="45.87592" lon="5.47675">
        <ele>915.01900032</ele>
        <time>2020-05-28T10:54:25.000Z</time>
      </trkpt>
      <trkpt lat="45.8759" lon="5.47676">
        <ele>915.31900032</ele>
        <time>2020-05-28T10:54:28.000Z</time>
      </trkpt>
      <trkpt lat="45.87588" lon="5.47677">
        <ele>915.51900032</ele>
        <time>2020-05-28T10:54:30.000Z</time>
      </trkpt>
      <trkpt lat="45.87586" lon="5.47679">
        <ele>915.71900032</ele>
        <time>2020-05-28T10:54:32.000Z</time>
      </trkpt>
      <trkpt lat="45.87583" lon="5.4768">
        <ele>916.03800064</ele>
        <time>2020-05-28T10:54:35.000Z</time>
      </trkpt>
      <trkpt lat="45.87581" lon="5.47682">
        <ele>916.83800064</ele>
        <time>2020-05-28T10:54:39.000Z</time>
      </trkpt>
      <trkpt lat="45.8758" lon="5.47684">
        <ele>917.63800064</ele>
        <time>2020-05-28T10:54:43.000Z</time>
      </trkpt>
      <trkpt lat="45.87578" lon="5.47684">
        <ele>918</ele>
        <time>2020-05-28T10:55:01.000Z</time>
      </trkpt>
      <trkpt lat="45.87569" lon="5.47686">
        <ele>917.58099968</ele>
        <time>2020-05-28T10:55:19.000Z</time>
      </trkpt>
      <trkpt lat="45.87576" lon="5.4769">
        <ele>917</ele>
        <time>2020-05-28T10:55:37.000Z</time>
      </trkpt>
      <trkpt lat="45.87579" lon="5.47691">
        <ele>917</ele>
        <time>2020-05-28T10:55:39.000Z</time>
      </trkpt>
      <trkpt lat="45.8758" lon="5.47694">
        <ele>917</ele>
        <time>2020-05-28T10:55:47.000Z</time>
      </trkpt>
      <trkpt lat="45.87581" lon="5.47696">
        <ele>917</ele>
        <time>2020-05-28T10:55:49.000Z</time>
      </trkpt>
      <trkpt lat="45.87582" lon="5.47699">
        <ele>917</ele>
        <time>2020-05-28T10:55:51.000Z</time>
      </trkpt>
      <trkpt lat="45.87583" lon="5.47702">
        <ele>917</ele>
        <time>2020-05-28T10:56:00.000Z</time>
      </trkpt>
      <trkpt lat="45.87583" lon="5.47705">
        <ele>917</ele>
        <time>2020-05-28T10:56:03.000Z</time>
      </trkpt>
      <trkpt lat="45.87582" lon="5.47708">
        <ele>917</ele>
        <time>2020-05-28T10:56:05.000Z</time>
      </trkpt>
      <trkpt lat="45.87582" lon="5.47711">
        <ele>917</ele>
        <time>2020-05-28T10:56:07.000Z</time>
      </trkpt>
      <trkpt lat="45.87581" lon="5.47714">
        <ele>917</ele>
        <time>2020-05-28T10:56:09.000Z</time>
      </trkpt>
      <trkpt lat="45.87581" lon="5.47717">
        <ele>917</ele>
        <time>2020-05-28T10:56:11.000Z</time>
      </trkpt>
      <trkpt lat="45.8758" lon="5.4772">
        <ele>917</ele>
        <time>2020-05-28T10:56:13.000Z</time>
      </trkpt>
      <trkpt lat="45.87579" lon="5.47723">
        <ele>916.98101865527</ele>
        <time>2020-05-28T10:56:15.000Z</time>
      </trkpt>
      <trkpt lat="45.87578" lon="5.47725">
        <ele>916.7812183916</ele>
        <time>2020-05-28T10:56:17.000Z</time>
      </trkpt>
      <trkpt lat="45.87577" lon="5.47727">
        <ele>916.58141812793</ele>
        <time>2020-05-28T10:56:19.000Z</time>
      </trkpt>
      <trkpt lat="45.87575" lon="5.47729">
        <ele>916.28171773242</ele>
        <time>2020-05-28T10:56:22.000Z</time>
      </trkpt>
      <trkpt lat="45.87574" lon="5.47732">
        <ele>916.08191746875</ele>
        <time>2020-05-28T10:56:24.000Z</time>
      </trkpt>
      <trkpt lat="45.87572" lon="5.47734">
        <ele>915.88339872456</ele>
        <time>2020-05-28T10:56:26.000Z</time>
      </trkpt>
      <trkpt lat="45.87571" lon="5.47737">
        <ele>915.68577051602</ele>
        <time>2020-05-28T10:56:28.000Z</time>
      </trkpt>
      <trkpt lat="45.87569" lon="5.4774">
        <ele>915.48814230749</ele>
        <time>2020-05-28T10:56:30.000Z</time>
      </trkpt>
      <trkpt lat="45.87568" lon="5.47742">
        <ele>915.29051409895</ele>
        <time>2020-05-28T10:56:32.000Z</time>
      </trkpt>
      <trkpt lat="45.87567" lon="5.47746">
        <ele>915.09288589042</ele>
        <time>2020-05-28T10:56:34.000Z</time>
      </trkpt>
      <trkpt lat="45.87565" lon="5.47748">
        <ele>915</ele>
        <time>2020-05-28T10:56:36.000Z</time>
      </trkpt>
      <trkpt lat="45.87563" lon="5.47751">
        <ele>915</ele>
        <time>2020-05-28T10:56:38.000Z</time>
      </trkpt>
      <trkpt lat="45.87562" lon="5.47753">
        <ele>915</ele>
        <time>2020-05-28T10:56:40.000Z</time>
      </trkpt>
      <trkpt lat="45.8756" lon="5.47756">
        <ele>915</ele>
        <time>2020-05-28T10:56:42.000Z</time>
      </trkpt>
      <trkpt lat="45.87559" lon="5.47758">
        <ele>915</ele>
        <time>2020-05-28T10:56:44.000Z</time>
      </trkpt>
      <trkpt lat="45.87558" lon="5.47761">
        <ele>914.88099968</ele>
        <time>2020-05-28T10:56:46.000Z</time>
      </trkpt>
      <trkpt lat="45.87556" lon="5.47764">
        <ele>914.68099968</ele>
        <time>2020-05-28T10:56:48.000Z</time>
      </trkpt>
      <trkpt lat="45.87555" lon="5.47767">
        <ele>914.48099968</ele>
        <time>2020-05-28T10:56:50.000Z</time>
      </trkpt>
      <trkpt lat="45.87554" lon="5.4777">
        <ele>914.28099968</ele>
        <time>2020-05-28T10:56:52.000Z</time>
      </trkpt>
      <trkpt lat="45.87553" lon="5.47772">
        <ele>914.08099968</ele>
        <time>2020-05-28T10:56:54.000Z</time>
      </trkpt>
      <trkpt lat="45.8755" lon="5.47774">
        <ele>913.88111852343</ele>
        <time>2020-05-28T10:56:56.000Z</time>
      </trkpt>
      <trkpt lat="45.87549" lon="5.47777">
        <ele>913.68131825976</ele>
        <time>2020-05-28T10:56:58.000Z</time>
      </trkpt>
      <trkpt lat="45.87548" lon="5.47779">
        <ele>913.48151799609</ele>
        <time>2020-05-28T10:57:00.000Z</time>
      </trkpt>
      <trkpt lat="45.87546" lon="5.47782">
        <ele>913.28171773242</ele>
        <time>2020-05-28T10:57:02.000Z</time>
      </trkpt>
      <trkpt lat="45.87545" lon="5.47785">
        <ele>913.08191746875</ele>
        <time>2020-05-28T10:57:04.000Z</time>
      </trkpt>
      <trkpt lat="45.87543" lon="5.47788">
        <ele>913</ele>
        <time>2020-05-28T10:57:06.000Z</time>
      </trkpt>
      <trkpt lat="45.87541" lon="5.4779">
        <ele>913</ele>
        <time>2020-05-28T10:57:08.000Z</time>
      </trkpt>
      <trkpt lat="45.8754" lon="5.47792">
        <ele>913</ele>
        <time>2020-05-28T10:57:10.000Z</time>
      </trkpt>
      <trkpt lat="45.87538" lon="5.47796">
        <ele>913</ele>
        <time>2020-05-28T10:57:12.000Z</time>
      </trkpt>
      <trkpt lat="45.87535" lon="5.47798">
        <ele>913</ele>
        <time>2020-05-28T10:57:14.000Z</time>
      </trkpt>
      <trkpt lat="45.87533" lon="5.478">
        <ele>913</ele>
        <time>2020-05-28T10:57:16.000Z</time>
      </trkpt>
      <trkpt lat="45.87532" lon="5.47804">
        <ele>913</ele>
        <time>2020-05-28T10:57:18.000Z</time>
      </trkpt>
      <trkpt lat="45.8753" lon="5.47806">
        <ele>913</ele>
        <time>2020-05-28T10:57:20.000Z</time>
      </trkpt>
      <trkpt lat="45.87528" lon="5.47808">
        <ele>913</ele>
        <time>2020-05-28T10:57:22.000Z</time>
      </trkpt>
      <trkpt lat="45.87525" lon="5.47809">
        <ele>913</ele>
        <time>2020-05-28T10:57:24.000Z</time>
      </trkpt>
      <trkpt lat="45.87523" lon="5.47811">
        <ele>913</ele>
        <time>2020-05-28T10:57:26.000Z</time>
      </trkpt>
      <trkpt lat="45.87522" lon="5.47814">
        <ele>913</ele>
        <time>2020-05-28T10:57:28.000Z</time>
      </trkpt>
      <trkpt lat="45.8752" lon="5.47816">
        <ele>913</ele>
        <time>2020-05-28T10:57:30.000Z</time>
      </trkpt>
      <trkpt lat="45.87518" lon="5.47817">
        <ele>913</ele>
        <time>2020-05-28T10:57:32.000Z</time>
      </trkpt>
      <trkpt lat="45.87516" lon="5.47819">
        <ele>913</ele>
        <time>2020-05-28T10:57:34.000Z</time>
      </trkpt>
      <trkpt lat="45.87514" lon="5.47821">
        <ele>913</ele>
        <time>2020-05-28T10:57:36.000Z</time>
      </trkpt>
      <trkpt lat="45.87511" lon="5.47823">
        <ele>913</ele>
        <time>2020-05-28T10:57:38.000Z</time>
      </trkpt>
      <trkpt lat="45.87508" lon="5.47825">
        <ele>913</ele>
        <time>2020-05-28T10:57:40.000Z</time>
      </trkpt>
      <trkpt lat="45.87506" lon="5.47827">
        <ele>913</ele>
        <time>2020-05-28T10:57:42.000Z</time>
      </trkpt>
      <trkpt lat="45.87505" lon="5.47831">
        <ele>913</ele>
        <time>2020-05-28T10:57:44.000Z</time>
      </trkpt>
      <trkpt lat="45.87504" lon="5.47834">
        <ele>912.88099968</ele>
        <time>2020-05-28T10:57:46.000Z</time>
      </trkpt>
      <trkpt lat="45.87502" lon="5.47837">
        <ele>912.68099968</ele>
        <time>2020-05-28T10:57:48.000Z</time>
      </trkpt>
      <trkpt lat="45.875" lon="5.47841">
        <ele>912.48099968</ele>
        <time>2020-05-28T10:57:50.000Z</time>
      </trkpt>
      <trkpt lat="45.87499" lon="5.47844">
        <ele>912.28099968</ele>
        <time>2020-05-28T10:57:52.000Z</time>
      </trkpt>
      <trkpt lat="45.87498" lon="5.47847">
        <ele>912.08099968</ele>
        <time>2020-05-28T10:57:54.000Z</time>
      </trkpt>
      <trkpt lat="45.87496" lon="5.4785">
        <ele>911.8815918345</ele>
        <time>2020-05-28T10:57:56.000Z</time>
      </trkpt>
      <trkpt lat="45.87494" lon="5.47853">
        <ele>911.68258704947</ele>
        <time>2020-05-28T10:57:58.000Z</time>
      </trkpt>
      <trkpt lat="45.87493" lon="5.47855">
        <ele>911.48358226444</ele>
        <time>2020-05-28T10:58:00.000Z</time>
      </trkpt>
      <trkpt lat="45.87491" lon="5.47857">
        <ele>911.28457747941</ele>
        <time>2020-05-28T10:58:02.000Z</time>
      </trkpt>
      <trkpt lat="45.87489" lon="5.47859">
        <ele>911.08557269438</ele>
        <time>2020-05-28T10:58:04.000Z</time>
      </trkpt>
      <trkpt lat="45.87488" lon="5.47861">
        <ele>911</ele>
        <time>2020-05-28T10:58:06.000Z</time>
      </trkpt>
      <trkpt lat="45.87486" lon="5.47862">
        <ele>911</ele>
        <time>2020-05-28T10:58:08.000Z</time>
      </trkpt>
      <trkpt lat="45.87484" lon="5.47865">
        <ele>911</ele>
        <time>2020-05-28T10:58:10.000Z</time>
      </trkpt>
      <trkpt lat="45.87482" lon="5.47868">
        <ele>911</ele>
        <time>2020-05-28T10:58:12.000Z</time>
      </trkpt>
      <trkpt lat="45.8748" lon="5.47871">
        <ele>911</ele>
        <time>2020-05-28T10:58:14.000Z</time>
      </trkpt>
      <trkpt lat="45.87478" lon="5.47873">
        <ele>910.88099968</ele>
        <time>2020-05-28T10:58:16.000Z</time>
      </trkpt>
      <trkpt lat="45.87477" lon="5.47875">
        <ele>910.68099968</ele>
        <time>2020-05-28T10:58:18.000Z</time>
      </trkpt>
      <trkpt lat="45.87476" lon="5.47878">
        <ele>910.48099968</ele>
        <time>2020-05-28T10:58:20.000Z</time>
      </trkpt>
      <trkpt lat="45.87474" lon="5.47879">
        <ele>910.28099968</ele>
        <time>2020-05-28T10:58:22.000Z</time>
      </trkpt>
      <trkpt lat="45.87473" lon="5.47881">
        <ele>910.08099968</ele>
        <time>2020-05-28T10:58:24.000Z</time>
      </trkpt>
      <trkpt lat="45.87471" lon="5.47883">
        <ele>909.88099968</ele>
        <time>2020-05-28T10:58:26.000Z</time>
      </trkpt>
      <trkpt lat="45.87469" lon="5.47886">
        <ele>909.68099968</ele>
        <time>2020-05-28T10:58:28.000Z</time>
      </trkpt>
      <trkpt lat="45.87467" lon="5.47888">
        <ele>909.48099968</ele>
        <time>2020-05-28T10:58:30.000Z</time>
      </trkpt>
      <trkpt lat="45.87466" lon="5.47891">
        <ele>909.28099968</ele>
        <time>2020-05-28T10:58:32.000Z</time>
      </trkpt>
      <trkpt lat="45.87465" lon="5.47893">
        <ele>909.08099968</ele>
        <time>2020-05-28T10:58:34.000Z</time>
      </trkpt>
      <trkpt lat="45.87463" lon="5.47895">
        <ele>909</ele>
        <time>2020-05-28T10:58:36.000Z</time>
      </trkpt>
      <trkpt lat="45.87462" lon="5.47898">
        <ele>909</ele>
        <time>2020-05-28T10:58:38.000Z</time>
      </trkpt>
      <trkpt lat="45.87461" lon="5.47901">
        <ele>909</ele>
        <time>2020-05-28T10:58:40.000Z</time>
      </trkpt>
      <trkpt lat="45.8746" lon="5.47904">
        <ele>909</ele>
        <time>2020-05-28T10:58:42.000Z</time>
      </trkpt>
      <trkpt lat="45.87452" lon="5.47909">
        <ele>908.38099968</ele>
        <time>2020-05-28T10:58:51.000Z</time>
      </trkpt>
      <trkpt lat="45.87446" lon="5.4792">
        <ele>907.68099968</ele>
        <time>2020-05-28T10:58:58.000Z</time>
      </trkpt>
      <trkpt lat="45.87443" lon="5.47933">
        <ele>907.08099968</ele>
        <time>2020-05-28T10:59:04.000Z</time>
      </trkpt>
      <trkpt lat="45.87441" lon="5.47935">
        <ele>907</ele>
        <time>2020-05-28T10:59:06.000Z</time>
      </trkpt>
      <trkpt lat="45.8744" lon="5.47937">
        <ele>907</ele>
        <time>2020-05-28T10:59:08.000Z</time>
      </trkpt>
      <trkpt lat="45.87439" lon="5.4794">
        <ele>907</ele>
        <time>2020-05-28T10:59:10.000Z</time>
      </trkpt>
      <trkpt lat="45.87437" lon="5.47942">
        <ele>907</ele>
        <time>2020-05-28T10:59:12.000Z</time>
      </trkpt>
      <trkpt lat="45.87436" lon="5.47945">
        <ele>907</ele>
        <time>2020-05-28T10:59:14.000Z</time>
      </trkpt>
      <trkpt lat="45.87434" lon="5.47948">
        <ele>907</ele>
        <time>2020-05-28T10:59:16.000Z</time>
      </trkpt>
      <trkpt lat="45.87434" lon="5.47951">
        <ele>907</ele>
        <time>2020-05-28T10:59:18.000Z</time>
      </trkpt>
      <trkpt lat="45.87433" lon="5.47954">
        <ele>907</ele>
        <time>2020-05-28T10:59:20.000Z</time>
      </trkpt>
      <trkpt lat="45.87432" lon="5.47957">
        <ele>907</ele>
        <time>2020-05-28T10:59:22.000Z</time>
      </trkpt>
      <trkpt lat="45.8743" lon="5.4796">
        <ele>907</ele>
        <time>2020-05-28T10:59:24.000Z</time>
      </trkpt>
      <trkpt lat="45.87428" lon="5.47963">
        <ele>906.88989924196</ele>
        <time>2020-05-28T10:59:26.000Z</time>
      </trkpt>
      <trkpt lat="45.87426" lon="5.47966">
        <ele>906.68787890934</ele>
        <time>2020-05-28T10:59:28.000Z</time>
      </trkpt>
      <trkpt lat="45.87424" lon="5.47969">
        <ele>906.48585857672</ele>
        <time>2020-05-28T10:59:30.000Z</time>
      </trkpt>
      <trkpt lat="45.87422" lon="5.47971">
        <ele>906.2838382441</ele>
        <time>2020-05-28T10:59:32.000Z</time>
      </trkpt>
      <trkpt lat="45.87421" lon="5.47974">
        <ele>906.08181791148</ele>
        <time>2020-05-28T10:59:34.000Z</time>
      </trkpt>
      <trkpt lat="45.87419" lon="5.47976">
        <ele>905.88099968</ele>
        <time>2020-05-28T10:59:36.000Z</time>
      </trkpt>
      <trkpt lat="45.87417" lon="5.47978">
        <ele>905.68099968</ele>
        <time>2020-05-28T10:59:38.000Z</time>
      </trkpt>
      <trkpt lat="45.87416" lon="5.47981">
        <ele>905.48099968</ele>
        <time>2020-05-28T10:59:40.000Z</time>
      </trkpt>
      <trkpt lat="45.87414" lon="5.47983">
        <ele>905.28099968</ele>
        <time>2020-05-28T10:59:42.000Z</time>
      </trkpt>
      <trkpt lat="45.87412" lon="5.47985">
        <ele>905.08099968</ele>
        <time>2020-05-28T10:59:44.000Z</time>
      </trkpt>
      <trkpt lat="45.8741" lon="5.47988">
        <ele>905</ele>
        <time>2020-05-28T10:59:46.000Z</time>
      </trkpt>
      <trkpt lat="45.87408" lon="5.4799">
        <ele>905</ele>
        <time>2020-05-28T10:59:48.000Z</time>
      </trkpt>
      <trkpt lat="45.87406" lon="5.47992">
        <ele>905</ele>
        <time>2020-05-28T10:59:50.000Z</time>
      </trkpt>
      <trkpt lat="45.87405" lon="5.47995">
        <ele>905</ele>
        <time>2020-05-28T10:59:53.000Z</time>
      </trkpt>
      <trkpt lat="45.87403" lon="5.47999">
        <ele>904.89260439402</ele>
        <time>2020-05-28T10:59:56.000Z</time>
      </trkpt>
      <trkpt lat="45.87401" lon="5.48">
        <ele>904.68996995174</ele>
        <time>2020-05-28T10:59:58.000Z</time>
      </trkpt>
      <trkpt lat="45.87399" lon="5.48002">
        <ele>904.48733550946</ele>
        <time>2020-05-28T11:00:00.000Z</time>
      </trkpt>
      <trkpt lat="45.87398" lon="5.48005">
        <ele>904.28470106719</ele>
        <time>2020-05-28T11:00:02.000Z</time>
      </trkpt>
      <trkpt lat="45.87395" lon="5.48006">
        <ele>904.08206662491</ele>
        <time>2020-05-28T11:00:04.000Z</time>
      </trkpt>
      <trkpt lat="45.87394" lon="5.48009">
        <ele>904</ele>
        <time>2020-05-28T11:00:06.000Z</time>
      </trkpt>
      <trkpt lat="45.87392" lon="5.48012">
        <ele>904</ele>
        <time>2020-05-28T11:00:08.000Z</time>
      </trkpt>
      <trkpt lat="45.8739" lon="5.48014">
        <ele>904</ele>
        <time>2020-05-28T11:00:09.000Z</time>
      </trkpt>
      <trkpt lat="45.87388" lon="5.48017">
        <ele>904</ele>
        <time>2020-05-28T11:00:11.000Z</time>
      </trkpt>
      <trkpt lat="45.87385" lon="5.4802">
        <ele>904</ele>
        <time>2020-05-28T11:00:13.000Z</time>
      </trkpt>
      <trkpt lat="45.87383" lon="5.48024">
        <ele>904</ele>
        <time>2020-05-28T11:00:15.000Z</time>
      </trkpt>
      <trkpt lat="45.87381" lon="5.48027">
        <ele>904</ele>
        <time>2020-05-28T11:00:17.000Z</time>
      </trkpt>
      <trkpt lat="45.87379" lon="5.48029">
        <ele>904</ele>
        <time>2020-05-28T11:00:19.000Z</time>
      </trkpt>
      <trkpt lat="45.87377" lon="5.48031">
        <ele>904</ele>
        <time>2020-05-28T11:00:21.000Z</time>
      </trkpt>
      <trkpt lat="45.87376" lon="5.48034">
        <ele>904</ele>
        <time>2020-05-28T11:00:24.000Z</time>
      </trkpt>
      <trkpt lat="45.87374" lon="5.48035">
        <ele>903.88579630815</ele>
        <time>2020-05-28T11:00:26.000Z</time>
      </trkpt>
      <trkpt lat="45.87372" lon="5.48038">
        <ele>903.69385784638</ele>
        <time>2020-05-28T11:00:28.000Z</time>
      </trkpt>
      <trkpt lat="45.8737" lon="5.48041">
        <ele>903.50191938462</ele>
        <time>2020-05-28T11:00:30.000Z</time>
      </trkpt>
      <trkpt lat="45.87369" lon="5.48044">
        <ele>903.30998092285</ele>
        <time>2020-05-28T11:00:32.000Z</time>
      </trkpt>
      <trkpt lat="45.87365" lon="5.48048">
        <ele>903.02207323021</ele>
        <time>2020-05-28T11:00:35.000Z</time>
      </trkpt>
      <trkpt lat="45.87363" lon="5.48051">
        <ele>902.81524029411</ele>
        <time>2020-05-28T11:00:37.000Z</time>
      </trkpt>
      <trkpt lat="45.87361" lon="5.48054">
        <ele>902.60647188741</ele>
        <time>2020-05-28T11:00:39.000Z</time>
      </trkpt>
      <trkpt lat="45.87359" lon="5.48056">
        <ele>902.39770348072</ele>
        <time>2020-05-28T11:00:41.000Z</time>
      </trkpt>
      <trkpt lat="45.87357" lon="5.48058">
        <ele>902.18893507403</ele>
        <time>2020-05-28T11:00:43.000Z</time>
      </trkpt>
      <trkpt lat="45.87356" lon="5.48062">
        <ele>902</ele>
        <time>2020-05-28T11:00:45.000Z</time>
      </trkpt>
      <trkpt lat="45.87354" lon="5.48064">
        <ele>902</ele>
        <time>2020-05-28T11:00:47.000Z</time>
      </trkpt>
      <trkpt lat="45.87352" lon="5.48067">
        <ele>902</ele>
        <time>2020-05-28T11:00:49.000Z</time>
      </trkpt>
      <trkpt lat="45.87351" lon="5.48069">
        <ele>902</ele>
        <time>2020-05-28T11:00:51.000Z</time>
      </trkpt>
      <trkpt lat="45.87349" lon="5.48071">
        <ele>902</ele>
        <time>2020-05-28T11:00:53.000Z</time>
      </trkpt>
      <trkpt lat="45.87348" lon="5.48074">
        <ele>901.98099968</ele>
        <time>2020-05-28T11:00:55.000Z</time>
      </trkpt>
      <trkpt lat="45.87346" lon="5.48076">
        <ele>901.78099968</ele>
        <time>2020-05-28T11:00:57.000Z</time>
      </trkpt>
      <trkpt lat="45.87344" lon="5.48078">
        <ele>901.58099968</ele>
        <time>2020-05-28T11:00:59.000Z</time>
      </trkpt>
      <trkpt lat="45.87342" lon="5.4808">
        <ele>901.38099968</ele>
        <time>2020-05-28T11:01:01.000Z</time>
      </trkpt>
      <trkpt lat="45.8734" lon="5.48083">
        <ele>901.18099968</ele>
        <time>2020-05-28T11:01:03.000Z</time>
      </trkpt>
      <trkpt lat="45.87339" lon="5.48085">
        <ele>901</ele>
        <time>2020-05-28T11:01:05.000Z</time>
      </trkpt>
      <trkpt lat="45.87337" lon="5.48088">
        <ele>901</ele>
        <time>2020-05-28T11:01:07.000Z</time>
      </trkpt>
      <trkpt lat="45.87336" lon="5.48092">
        <ele>901</ele>
        <time>2020-05-28T11:01:09.000Z</time>
      </trkpt>
      <trkpt lat="45.87335" lon="5.48095">
        <ele>901</ele>
        <time>2020-05-28T11:01:11.000Z</time>
      </trkpt>
      <trkpt lat="45.87333" lon="5.48097">
        <ele>901</ele>
        <time>2020-05-28T11:01:13.000Z</time>
      </trkpt>
      <trkpt lat="45.87331" lon="5.48099">
        <ele>900.98153517758</ele>
        <time>2020-05-28T11:01:15.000Z</time>
      </trkpt>
      <trkpt lat="45.87329" lon="5.48101">
        <ele>900.78717189924</ele>
        <time>2020-05-28T11:01:17.000Z</time>
      </trkpt>
      <trkpt lat="45.87327" lon="5.48104">
        <ele>900.5928086209</ele>
        <time>2020-05-28T11:01:19.000Z</time>
      </trkpt>
      <trkpt lat="45.87325" lon="5.48107">
        <ele>900.39844534256</ele>
        <time>2020-05-28T11:01:21.000Z</time>
      </trkpt>
      <trkpt lat="45.87324" lon="5.4811">
        <ele>900.20408206422</ele>
        <time>2020-05-28T11:01:23.000Z</time>
      </trkpt>
      <trkpt lat="45.87323" lon="5.48113">
        <ele>900.00971878588</ele>
        <time>2020-05-28T11:01:25.000Z</time>
      </trkpt>
      <trkpt lat="45.87321" lon="5.48116">
        <ele>899.80432590335</ele>
        <time>2020-05-28T11:01:27.000Z</time>
      </trkpt>
      <trkpt lat="45.8732" lon="5.48119">
        <ele>899.49536576267</ele>
        <time>2020-05-28T11:01:30.000Z</time>
      </trkpt>
      <trkpt lat="45.87318" lon="5.48121">
        <ele>899.28939233555</ele>
        <time>2020-05-28T11:01:32.000Z</time>
      </trkpt>
      <trkpt lat="45.87316" lon="5.48124">
        <ele>899.08341890843</ele>
        <time>2020-05-28T11:01:34.000Z</time>
      </trkpt>
      <trkpt lat="45.87315" lon="5.48126">
        <ele>899</ele>
        <time>2020-05-28T11:01:36.000Z</time>
      </trkpt>
      <trkpt lat="45.87313" lon="5.48128">
        <ele>899</ele>
        <time>2020-05-28T11:01:38.000Z</time>
      </trkpt>
      <trkpt lat="45.87312" lon="5.48131">
        <ele>899</ele>
        <time>2020-05-28T11:01:40.000Z</time>
      </trkpt>
      <trkpt lat="45.8731" lon="5.48134">
        <ele>899</ele>
        <time>2020-05-28T11:01:42.000Z</time>
      </trkpt>
      <trkpt lat="45.87308" lon="5.48137">
        <ele>899</ele>
        <time>2020-05-28T11:01:44.000Z</time>
      </trkpt>
      <trkpt lat="45.87307" lon="5.48139">
        <ele>898.88099968</ele>
        <time>2020-05-28T11:01:46.000Z</time>
      </trkpt>
      <trkpt lat="45.87305" lon="5.48141">
        <ele>898.68099968</ele>
        <time>2020-05-28T11:01:48.000Z</time>
      </trkpt>
      <trkpt lat="45.87304" lon="5.48144">
        <ele>898.48099968</ele>
        <time>2020-05-28T11:01:50.000Z</time>
      </trkpt>
      <trkpt lat="45.87302" lon="5.48146">
        <ele>898.28099968</ele>
        <time>2020-05-28T11:01:52.000Z</time>
      </trkpt>
      <trkpt lat="45.87301" lon="5.48149">
        <ele>898.08099968</ele>
        <time>2020-05-28T11:01:54.000Z</time>
      </trkpt>
      <trkpt lat="45.87299" lon="5.48152">
        <ele>897.78099968</ele>
        <time>2020-05-28T11:01:57.000Z</time>
      </trkpt>
      <trkpt lat="45.87298" lon="5.48158">
        <ele>897.38099968</ele>
        <time>2020-05-28T11:02:01.000Z</time>
      </trkpt>
      <trkpt lat="45.87298" lon="5.48162">
        <ele>897.18099968</ele>
        <time>2020-05-28T11:02:03.000Z</time>
      </trkpt>
      <trkpt lat="45.87298" lon="5.48164">
        <ele>897</ele>
        <time>2020-05-28T11:02:05.000Z</time>
      </trkpt>
      <trkpt lat="45.87296" lon="5.48167">
        <ele>897</ele>
        <time>2020-05-28T11:02:07.000Z</time>
      </trkpt>
      <trkpt lat="45.87295" lon="5.4817">
        <ele>897</ele>
        <time>2020-05-28T11:02:09.000Z</time>
      </trkpt>
      <trkpt lat="45.87293" lon="5.48173">
        <ele>897</ele>
        <time>2020-05-28T11:02:11.000Z</time>
      </trkpt>
      <trkpt lat="45.87293" lon="5.48176">
        <ele>897</ele>
        <time>2020-05-28T11:02:13.000Z</time>
      </trkpt>
      <trkpt lat="45.87291" lon="5.48179">
        <ele>896.98593027788</ele>
        <time>2020-05-28T11:02:15.000Z</time>
      </trkpt>
      <trkpt lat="45.87289" lon="5.48182">
        <ele>896.78492505882</ele>
        <time>2020-05-28T11:02:17.000Z</time>
      </trkpt>
      <trkpt lat="45.87288" lon="5.48185">
        <ele>896.58391983976</ele>
        <time>2020-05-28T11:02:19.000Z</time>
      </trkpt>
      <trkpt lat="45.87286" lon="5.48188">
        <ele>896.3829146207</ele>
        <time>2020-05-28T11:02:21.000Z</time>
      </trkpt>
      <trkpt lat="45.87284" lon="5.48191">
        <ele>896.18190940164</ele>
        <time>2020-05-28T11:02:23.000Z</time>
      </trkpt>
      <trkpt lat="45.87282" lon="5.48194">
        <ele>896</ele>
        <time>2020-05-28T11:02:25.000Z</time>
      </trkpt>
      <trkpt lat="45.87281" lon="5.48198">
        <ele>896</ele>
        <time>2020-05-28T11:02:27.000Z</time>
      </trkpt>
      <trkpt lat="45.8728" lon="5.48201">
        <ele>896</ele>
        <time>2020-05-28T11:02:29.000Z</time>
      </trkpt>
      <trkpt lat="45.87279" lon="5.48204">
        <ele>896</ele>
        <time>2020-05-28T11:02:31.000Z</time>
      </trkpt>
      <trkpt lat="45.87278" lon="5.48208">
        <ele>896</ele>
        <time>2020-05-28T11:02:33.000Z</time>
      </trkpt>
      <trkpt lat="45.87276" lon="5.48211">
        <ele>896</ele>
        <time>2020-05-28T11:02:35.000Z</time>
      </trkpt>
      <trkpt lat="45.87274" lon="5.48214">
        <ele>896</ele>
        <time>2020-05-28T11:02:37.000Z</time>
      </trkpt>
      <trkpt lat="45.87272" lon="5.48218">
        <ele>896</ele>
        <time>2020-05-28T11:02:39.000Z</time>
      </trkpt>
      <trkpt lat="45.8727" lon="5.48221">
        <ele>896</ele>
        <time>2020-05-28T11:02:41.000Z</time>
      </trkpt>
      <trkpt lat="45.87268" lon="5.48224">
        <ele>896</ele>
        <time>2020-05-28T11:02:43.000Z</time>
      </trkpt>
      <trkpt lat="45.87267" lon="5.48227">
        <ele>895.98099968</ele>
        <time>2020-05-28T11:02:45.000Z</time>
      </trkpt>
      <trkpt lat="45.87265" lon="5.4823">
        <ele>895.78099968</ele>
        <time>2020-05-28T11:02:47.000Z</time>
      </trkpt>
      <trkpt lat="45.87264" lon="5.48232">
        <ele>895.58099968</ele>
        <time>2020-05-28T11:02:49.000Z</time>
      </trkpt>
      <trkpt lat="45.87262" lon="5.48235">
        <ele>895.38099968</ele>
        <time>2020-05-28T11:02:51.000Z</time>
      </trkpt>
      <trkpt lat="45.87261" lon="5.48238">
        <ele>895.18099968</ele>
        <time>2020-05-28T11:02:53.000Z</time>
      </trkpt>
      <trkpt lat="45.87259" lon="5.48241">
        <ele>895</ele>
        <time>2020-05-28T11:02:55.000Z</time>
      </trkpt>
      <trkpt lat="45.87258" lon="5.48243">
        <ele>895</ele>
        <time>2020-05-28T11:02:57.000Z</time>
      </trkpt>
      <trkpt lat="45.87257" lon="5.48246">
        <ele>895</ele>
        <time>2020-05-28T11:02:59.000Z</time>
      </trkpt>
      <trkpt lat="45.87256" lon="5.48248">
        <ele>895</ele>
        <time>2020-05-28T11:03:01.000Z</time>
      </trkpt>
      <trkpt lat="45.87255" lon="5.48251">
        <ele>895</ele>
        <time>2020-05-28T11:03:03.000Z</time>
      </trkpt>
      <trkpt lat="45.87253" lon="5.48254">
        <ele>895</ele>
        <time>2020-05-28T11:03:05.000Z</time>
      </trkpt>
      <trkpt lat="45.87251" lon="5.48257">
        <ele>895</ele>
        <time>2020-05-28T11:03:07.000Z</time>
      </trkpt>
      <trkpt lat="45.87249" lon="5.4826">
        <ele>895</ele>
        <time>2020-05-28T11:03:09.000Z</time>
      </trkpt>
      <trkpt lat="45.87248" lon="5.48262">
        <ele>895</ele>
        <time>2020-05-28T11:03:11.000Z</time>
      </trkpt>
      <trkpt lat="45.87246" lon="5.48265">
        <ele>895</ele>
        <time>2020-05-28T11:03:13.000Z</time>
      </trkpt>
      <trkpt lat="45.87245" lon="5.48267">
        <ele>895</ele>
        <time>2020-05-28T11:03:15.000Z</time>
      </trkpt>
      <trkpt lat="45.87243" lon="5.4827">
        <ele>895</ele>
        <time>2020-05-28T11:03:17.000Z</time>
      </trkpt>
      <trkpt lat="45.8724" lon="5.48273">
        <ele>895</ele>
        <time>2020-05-28T11:03:19.000Z</time>
      </trkpt>
      <trkpt lat="45.87239" lon="5.48276">
        <ele>895</ele>
        <time>2020-05-28T11:03:21.000Z</time>
      </trkpt>
      <trkpt lat="45.87237" lon="5.48278">
        <ele>895</ele>
        <time>2020-05-28T11:03:23.000Z</time>
      </trkpt>
      <trkpt lat="45.87236" lon="5.48281">
        <ele>895</ele>
        <time>2020-05-28T11:03:25.000Z</time>
      </trkpt>
      <trkpt lat="45.87235" lon="5.48283">
        <ele>895</ele>
        <time>2020-05-28T11:03:27.000Z</time>
      </trkpt>
      <trkpt lat="45.87233" lon="5.48285">
        <ele>895</ele>
        <time>2020-05-28T11:03:29.000Z</time>
      </trkpt>
      <trkpt lat="45.87231" lon="5.48289">
        <ele>895</ele>
        <time>2020-05-28T11:03:31.000Z</time>
      </trkpt>
      <trkpt lat="45.8723" lon="5.48291">
        <ele>895</ele>
        <time>2020-05-28T11:03:33.000Z</time>
      </trkpt>
      <trkpt lat="45.87228" lon="5.48294">
        <ele>894.98825832438</ele>
        <time>2020-05-28T11:03:35.000Z</time>
      </trkpt>
      <trkpt lat="45.87226" lon="5.48296">
        <ele>894.79256373068</ele>
        <time>2020-05-28T11:03:37.000Z</time>
      </trkpt>
      <trkpt lat="45.87224" lon="5.48299">
        <ele>894.59686913699</ele>
        <time>2020-05-28T11:03:39.000Z</time>
      </trkpt>
      <trkpt lat="45.87221" lon="5.48303">
        <ele>894.30332724645</ele>
        <time>2020-05-28T11:03:42.000Z</time>
      </trkpt>
      <trkpt lat="45.87219" lon="5.48304">
        <ele>894.2054799496</ele>
        <time>2020-05-28T11:03:43.000Z</time>
      </trkpt>
      <trkpt lat="45.87218" lon="5.48306">
        <ele>894.10763265276</ele>
        <time>2020-05-28T11:03:44.000Z</time>
      </trkpt>
      <trkpt lat="45.87216" lon="5.48308">
        <ele>894.00978535591</ele>
        <time>2020-05-28T11:03:45.000Z</time>
      </trkpt>
      <trkpt lat="45.87213" lon="5.48311">
        <ele>893.80432590335</ele>
        <time>2020-05-28T11:03:47.000Z</time>
      </trkpt>
      <trkpt lat="45.87211" lon="5.48314">
        <ele>893.59835247623</ele>
        <time>2020-05-28T11:03:49.000Z</time>
      </trkpt>
      <trkpt lat="45.87209" lon="5.48317">
        <ele>893.39237904911</ele>
        <time>2020-05-28T11:03:51.000Z</time>
      </trkpt>
      <trkpt lat="45.87207" lon="5.48319">
        <ele>893.08341890843</ele>
        <time>2020-05-28T11:03:54.000Z</time>
      </trkpt>
      <trkpt lat="45.87205" lon="5.48321">
        <ele>892.76199936</ele>
        <time>2020-05-28T11:03:56.000Z</time>
      </trkpt>
      <trkpt lat="45.87203" lon="5.48323">
        <ele>892.36199936</ele>
        <time>2020-05-28T11:03:58.000Z</time>
      </trkpt>
      <trkpt lat="45.87201" lon="5.48325">
        <ele>891.96199936</ele>
        <time>2020-05-28T11:04:00.000Z</time>
      </trkpt>
      <trkpt lat="45.87198" lon="5.48328">
        <ele>891.36199936</ele>
        <time>2020-05-28T11:04:03.000Z</time>
      </trkpt>
      <trkpt lat="45.87195" lon="5.48329">
        <ele>891</ele>
        <time>2020-05-28T11:04:06.000Z</time>
      </trkpt>
      <trkpt lat="45.87193" lon="5.4833">
        <ele>891</ele>
        <time>2020-05-28T11:04:08.000Z</time>
      </trkpt>
      <trkpt lat="45.8719" lon="5.48331">
        <ele>891</ele>
        <time>2020-05-28T11:04:10.000Z</time>
      </trkpt>
      <trkpt lat="45.87187" lon="5.48333">
        <ele>891</ele>
        <time>2020-05-28T11:04:12.000Z</time>
      </trkpt>
      <trkpt lat="45.87185" lon="5.48335">
        <ele>891</ele>
        <time>2020-05-28T11:04:14.000Z</time>
      </trkpt>
      <trkpt lat="45.87183" lon="5.48338">
        <ele>890.88435353841</ele>
        <time>2020-05-28T11:04:16.000Z</time>
      </trkpt>
      <trkpt lat="45.87182" lon="5.4834">
        <ele>890.68999026007</ele>
        <time>2020-05-28T11:04:18.000Z</time>
      </trkpt>
      <trkpt lat="45.8718" lon="5.48343">
        <ele>890.49562698173</ele>
        <time>2020-05-28T11:04:20.000Z</time>
      </trkpt>
      <trkpt lat="45.87179" lon="5.48345">
        <ele>890.20408206422</ele>
        <time>2020-05-28T11:04:23.000Z</time>
      </trkpt>
      <trkpt lat="45.87177" lon="5.48347">
        <ele>890.00971878588</ele>
        <time>2020-05-28T11:04:25.000Z</time>
      </trkpt>
      <trkpt lat="45.87176" lon="5.48351">
        <ele>890</ele>
        <time>2020-05-28T11:04:28.000Z</time>
      </trkpt>
      <trkpt lat="45.87175" lon="5.48354">
        <ele>890</ele>
        <time>2020-05-28T11:04:30.000Z</time>
      </trkpt>
      <trkpt lat="45.87174" lon="5.48356">
        <ele>890</ele>
        <time>2020-05-28T11:04:32.000Z</time>
      </trkpt>
      <trkpt lat="45.87172" lon="5.48357">
        <ele>890</ele>
        <time>2020-05-28T11:04:34.000Z</time>
      </trkpt>
      <trkpt lat="45.8717" lon="5.4836">
        <ele>889.78099968</ele>
        <time>2020-05-28T11:04:37.000Z</time>
      </trkpt>
      <trkpt lat="45.87163" lon="5.48368">
        <ele>889.08099968</ele>
        <time>2020-05-28T11:04:44.000Z</time>
      </trkpt>
      <trkpt lat="45.87162" lon="5.48371">
        <ele>888.88252694252</ele>
        <time>2020-05-28T11:04:46.000Z</time>
      </trkpt>
      <trkpt lat="45.87158" lon="5.48376">
        <ele>888.58637717382</ele>
        <time>2020-05-28T11:04:49.000Z</time>
      </trkpt>
      <trkpt lat="45.87155" lon="5.48381">
        <ele>888.29022740512</ele>
        <time>2020-05-28T11:04:52.000Z</time>
      </trkpt>
      <trkpt lat="45.87153" lon="5.48383">
        <ele>888.09279422598</ele>
        <time>2020-05-28T11:04:54.000Z</time>
      </trkpt>
      <trkpt lat="45.87152" lon="5.48385">
        <ele>887.89292987018</ele>
        <time>2020-05-28T11:04:56.000Z</time>
      </trkpt>
      <trkpt lat="45.87149" lon="5.48389">
        <ele>887.69090953756</ele>
        <time>2020-05-28T11:04:58.000Z</time>
      </trkpt>
      <trkpt lat="45.87148" lon="5.4839">
        <ele>887.58989937125</ele>
        <time>2020-05-28T11:04:59.000Z</time>
      </trkpt>
      <trkpt lat="45.87145" lon="5.48391">
        <ele>887.38787903863</ele>
        <time>2020-05-28T11:05:01.000Z</time>
      </trkpt>
      <trkpt lat="45.87143" lon="5.48392">
        <ele>887.18585870601</ele>
        <time>2020-05-28T11:05:03.000Z</time>
      </trkpt>
      <trkpt lat="45.87141" lon="5.48394">
        <ele>887</ele>
        <time>2020-05-28T11:05:06.000Z</time>
      </trkpt>
      <trkpt lat="45.87139" lon="5.48398">
        <ele>887</ele>
        <time>2020-05-28T11:05:09.000Z</time>
      </trkpt>
      <trkpt lat="45.87138" lon="5.48401">
        <ele>887</ele>
        <time>2020-05-28T11:05:11.000Z</time>
      </trkpt>
      <trkpt lat="45.87133" lon="5.48404">
        <ele>887</ele>
        <time>2020-05-28T11:05:20.000Z</time>
      </trkpt>
      <trkpt lat="45.87134" lon="5.48409">
        <ele>886.68099968</ele>
        <time>2020-05-28T11:05:28.000Z</time>
      </trkpt>
      <trkpt lat="45.87136" lon="5.48411">
        <ele>886.48099968</ele>
        <time>2020-05-28T11:05:30.000Z</time>
      </trkpt>
      <trkpt lat="45.87136" lon="5.48414">
        <ele>886.18099968</ele>
        <time>2020-05-28T11:05:33.000Z</time>
      </trkpt>
      <trkpt lat="45.87135" lon="5.48416">
        <ele>886</ele>
        <time>2020-05-28T11:05:35.000Z</time>
      </trkpt>
      <trkpt lat="45.87133" lon="5.48418">
        <ele>886</ele>
        <time>2020-05-28T11:05:37.000Z</time>
      </trkpt>
      <trkpt lat="45.87132" lon="5.48421">
        <ele>886</ele>
        <time>2020-05-28T11:05:39.000Z</time>
      </trkpt>
      <trkpt lat="45.8713" lon="5.48424">
        <ele>886</ele>
        <time>2020-05-28T11:05:42.000Z</time>
      </trkpt>
      <trkpt lat="45.87129" lon="5.48427">
        <ele>886</ele>
        <time>2020-05-28T11:05:44.000Z</time>
      </trkpt>
      <trkpt lat="45.87128" lon="5.4843">
        <ele>886</ele>
        <time>2020-05-28T11:05:46.000Z</time>
      </trkpt>
      <trkpt lat="45.87127" lon="5.48433">
        <ele>886</ele>
        <time>2020-05-28T11:05:49.000Z</time>
      </trkpt>
      <trkpt lat="45.87125" lon="5.48435">
        <ele>886</ele>
        <time>2020-05-28T11:05:52.000Z</time>
      </trkpt>
      <trkpt lat="45.87124" lon="5.48437">
        <ele>886</ele>
        <time>2020-05-28T11:05:54.000Z</time>
      </trkpt>
      <trkpt lat="45.87122" lon="5.4844">
        <ele>886</ele>
        <time>2020-05-28T11:05:57.000Z</time>
      </trkpt>
      <trkpt lat="45.8712" lon="5.48443">
        <ele>886</ele>
        <time>2020-05-28T11:05:59.000Z</time>
      </trkpt>
      <trkpt lat="45.87117" lon="5.48444">
        <ele>886</ele>
        <time>2020-05-28T11:06:01.000Z</time>
      </trkpt>
      <trkpt lat="45.87115" lon="5.48447">
        <ele>886</ele>
        <time>2020-05-28T11:06:03.000Z</time>
      </trkpt>
      <trkpt lat="45.87113" lon="5.48448">
        <ele>886</ele>
        <time>2020-05-28T11:06:05.000Z</time>
      </trkpt>
      <trkpt lat="45.87111" lon="5.4845">
        <ele>886</ele>
        <time>2020-05-28T11:06:07.000Z</time>
      </trkpt>
      <trkpt lat="45.87109" lon="5.48452">
        <ele>886</ele>
        <time>2020-05-28T11:06:09.000Z</time>
      </trkpt>
      <trkpt lat="45.87107" lon="5.48454">
        <ele>886</ele>
        <time>2020-05-28T11:06:11.000Z</time>
      </trkpt>
      <trkpt lat="45.87105" lon="5.48458">
        <ele>886</ele>
        <time>2020-05-28T11:06:13.000Z</time>
      </trkpt>
      <trkpt lat="45.87101" lon="5.48467">
        <ele>885.88427335018</ele>
        <time>2020-05-28T11:06:16.000Z</time>
      </trkpt>
      <trkpt lat="45.871" lon="5.48469">
        <ele>885.78536141314</ele>
        <time>2020-05-28T11:06:17.000Z</time>
      </trkpt>
      <trkpt lat="45.87098" lon="5.48472">
        <ele>885.58753753906</ele>
        <time>2020-05-28T11:06:19.000Z</time>
      </trkpt>
      <trkpt lat="45.87097" lon="5.48475">
        <ele>885.38971366498</ele>
        <time>2020-05-28T11:06:21.000Z</time>
      </trkpt>
      <trkpt lat="45.87095" lon="5.48479">
        <ele>885.19188979089</ele>
        <time>2020-05-28T11:06:23.000Z</time>
      </trkpt>
      <trkpt lat="45.87094" lon="5.48482">
        <ele>885</ele>
        <time>2020-05-28T11:06:25.000Z</time>
      </trkpt>
      <trkpt lat="45.87092" lon="5.48484">
        <ele>885</ele>
        <time>2020-05-28T11:06:27.000Z</time>
      </trkpt>
      <trkpt lat="45.8709" lon="5.48486">
        <ele>885</ele>
        <time>2020-05-28T11:06:29.000Z</time>
      </trkpt>
      <trkpt lat="45.87088" lon="5.48488">
        <ele>885</ele>
        <time>2020-05-28T11:06:31.000Z</time>
      </trkpt>
      <trkpt lat="45.87086" lon="5.4849">
        <ele>885</ele>
        <time>2020-05-28T11:06:33.000Z</time>
      </trkpt>
      <trkpt lat="45.87084" lon="5.48492">
        <ele>884.98124353209</ele>
        <time>2020-05-28T11:06:35.000Z</time>
      </trkpt>
      <trkpt lat="45.87082" lon="5.48495">
        <ele>884.78381035295</ele>
        <time>2020-05-28T11:06:37.000Z</time>
      </trkpt>
      <trkpt lat="45.87081" lon="5.48496">
        <ele>884.58637717382</ele>
        <time>2020-05-28T11:06:39.000Z</time>
      </trkpt>
      <trkpt lat="45.87079" lon="5.48497">
        <ele>884.38894399468</ele>
        <time>2020-05-28T11:06:41.000Z</time>
      </trkpt>
      <trkpt lat="45.87076" lon="5.48498">
        <ele>884.19151081555</ele>
        <time>2020-05-28T11:06:43.000Z</time>
      </trkpt>
      <trkpt lat="45.87074" lon="5.485">
        <ele>883.89566992126</ele>
        <time>2020-05-28T11:06:46.000Z</time>
      </trkpt>
      <trkpt lat="45.87071" lon="5.48504">
        <ele>883.40354393701</ele>
        <time>2020-05-28T11:06:51.000Z</time>
      </trkpt>
      <trkpt lat="45.87068" lon="5.48517">
        <ele>883</ele>
        <time>2020-05-28T11:06:59.000Z</time>
      </trkpt>
      <trkpt lat="45.87066" lon="5.4852">
        <ele>883</ele>
        <time>2020-05-28T11:07:03.000Z</time>
      </trkpt>
      <trkpt lat="45.87064" lon="5.48523">
        <ele>883</ele>
        <time>2020-05-28T11:07:08.000Z</time>
      </trkpt>
      <trkpt lat="45.87063" lon="5.48524">
        <ele>883</ele>
        <time>2020-05-28T11:07:10.000Z</time>
      </trkpt>
      <trkpt lat="45.87061" lon="5.48526">
        <ele>883</ele>
        <time>2020-05-28T11:07:14.000Z</time>
      </trkpt>
      <trkpt lat="45.87059" lon="5.48527">
        <ele>883</ele>
        <time>2020-05-28T11:07:20.000Z</time>
      </trkpt>
      <trkpt lat="45.87058" lon="5.48529">
        <ele>883</ele>
        <time>2020-05-28T11:07:23.000Z</time>
      </trkpt>
      <trkpt lat="45.87055" lon="5.4853">
        <ele>883.23800064</ele>
        <time>2020-05-28T11:07:26.000Z</time>
      </trkpt>
      <trkpt lat="45.87054" lon="5.48532">
        <ele>883.83800064</ele>
        <time>2020-05-28T11:07:29.000Z</time>
      </trkpt>
      <trkpt lat="45.87052" lon="5.48534">
        <ele>884.43800064</ele>
        <time>2020-05-28T11:07:32.000Z</time>
      </trkpt>
      <trkpt lat="45.8705" lon="5.48535">
        <ele>885.01900032</ele>
        <time>2020-05-28T11:07:35.000Z</time>
      </trkpt>
      <trkpt lat="45.87048" lon="5.48536">
        <ele>885.21900032</ele>
        <time>2020-05-28T11:07:37.000Z</time>
      </trkpt>
      <trkpt lat="45.87047" lon="5.48538">
        <ele>885.41900032</ele>
        <time>2020-05-28T11:07:39.000Z</time>
      </trkpt>
      <trkpt lat="45.87045" lon="5.48539">
        <ele>885.61900032</ele>
        <time>2020-05-28T11:07:41.000Z</time>
      </trkpt>
      <trkpt lat="45.87043" lon="5.4854">
        <ele>885.81900032</ele>
        <time>2020-05-28T11:07:43.000Z</time>
      </trkpt>
      <trkpt lat="45.87042" lon="5.48542">
        <ele>886</ele>
        <time>2020-05-28T11:07:45.000Z</time>
      </trkpt>
      <trkpt lat="45.87041" lon="5.48544">
        <ele>886</ele>
        <time>2020-05-28T11:07:47.000Z</time>
      </trkpt>
      <trkpt lat="45.87039" lon="5.48546">
        <ele>886</ele>
        <time>2020-05-28T11:07:50.000Z</time>
      </trkpt>
      <trkpt lat="45.87037" lon="5.48548">
        <ele>886</ele>
        <time>2020-05-28T11:07:54.000Z</time>
      </trkpt>
      <trkpt lat="45.87036" lon="5.4855">
        <ele>886.11747305748</ele>
        <time>2020-05-28T11:07:56.000Z</time>
      </trkpt>
      <trkpt lat="45.87033" lon="5.48551">
        <ele>886.31490623661</ele>
        <time>2020-05-28T11:07:58.000Z</time>
      </trkpt>
      <trkpt lat="45.87032" lon="5.48553">
        <ele>886.51233941575</ele>
        <time>2020-05-28T11:08:00.000Z</time>
      </trkpt>
      <trkpt lat="45.8703" lon="5.48554">
        <ele>886.70977259488</ele>
        <time>2020-05-28T11:08:02.000Z</time>
      </trkpt>
      <trkpt lat="45.8703" lon="5.48558">
        <ele>886.80848918445</ele>
        <time>2020-05-28T11:08:03.000Z</time>
      </trkpt>
      <trkpt lat="45.87028" lon="5.48559">
        <ele>887.00606608892</ele>
        <time>2020-05-28T11:08:05.000Z</time>
      </trkpt>
      <trkpt lat="45.87025" lon="5.4856">
        <ele>887.30940289081</ele>
        <time>2020-05-28T11:08:08.000Z</time>
      </trkpt>
      <trkpt lat="45.87023" lon="5.48562">
        <ele>887.5116274254</ele>
        <time>2020-05-28T11:08:10.000Z</time>
      </trkpt>
      <trkpt lat="45.87021" lon="5.48563">
        <ele>887.71385195999</ele>
        <time>2020-05-28T11:08:12.000Z</time>
      </trkpt>
      <trkpt lat="45.87019" lon="5.48564">
        <ele>887.91607649459</ele>
        <time>2020-05-28T11:08:14.000Z</time>
      </trkpt>
      <trkpt lat="45.87018" lon="5.48565">
        <ele>888.11723422348</ele>
        <time>2020-05-28T11:08:16.000Z</time>
      </trkpt>
      <trkpt lat="45.87016" lon="5.48566">
        <ele>888.31763515359</ele>
        <time>2020-05-28T11:08:18.000Z</time>
      </trkpt>
      <trkpt lat="45.87014" lon="5.48568">
        <ele>888.51803608371</ele>
        <time>2020-05-28T11:08:20.000Z</time>
      </trkpt>
      <trkpt lat="45.87012" lon="5.48569">
        <ele>888.81863747889</ele>
        <time>2020-05-28T11:08:23.000Z</time>
      </trkpt>
      <trkpt lat="45.8701" lon="5.48571">
        <ele>889.01900032</ele>
        <time>2020-05-28T11:08:25.000Z</time>
      </trkpt>
      <trkpt lat="45.87008" lon="5.48572">
        <ele>889.21900032</ele>
        <time>2020-05-28T11:08:27.000Z</time>
      </trkpt>
      <trkpt lat="45.87006" lon="5.48573">
        <ele>889.41900032</ele>
        <time>2020-05-28T11:08:29.000Z</time>
      </trkpt>
      <trkpt lat="45.87004" lon="5.48575">
        <ele>889.61900032</ele>
        <time>2020-05-28T11:08:31.000Z</time>
      </trkpt>
      <trkpt lat="45.87002" lon="5.48576">
        <ele>889.81900032</ele>
        <time>2020-05-28T11:08:33.000Z</time>
      </trkpt>
      <trkpt lat="45.87" lon="5.48577">
        <ele>890.01900032</ele>
        <time>2020-05-28T11:08:35.000Z</time>
      </trkpt>
      <trkpt lat="45.86998" lon="5.48579">
        <ele>890.31900032</ele>
        <time>2020-05-28T11:08:38.000Z</time>
      </trkpt>
      <trkpt lat="45.86996" lon="5.4858">
        <ele>890.51900032</ele>
        <time>2020-05-28T11:08:40.000Z</time>
      </trkpt>
      <trkpt lat="45.86994" lon="5.48581">
        <ele>890.71900032</ele>
        <time>2020-05-28T11:08:42.000Z</time>
      </trkpt>
      <trkpt lat="45.86992" lon="5.48582">
        <ele>890.91900032</ele>
        <time>2020-05-28T11:08:44.000Z</time>
      </trkpt>
      <trkpt lat="45.86989" lon="5.48584">
        <ele>891.21262153779</ele>
        <time>2020-05-28T11:08:47.000Z</time>
      </trkpt>
      <trkpt lat="45.86988" lon="5.48585">
        <ele>891.40679617442</ele>
        <time>2020-05-28T11:08:49.000Z</time>
      </trkpt>
      <trkpt lat="45.86986" lon="5.48587">
        <ele>891.60097081105</ele>
        <time>2020-05-28T11:08:51.000Z</time>
      </trkpt>
      <trkpt lat="45.86984" lon="5.48588">
        <ele>891.79514544768</ele>
        <time>2020-05-28T11:08:53.000Z</time>
      </trkpt>
      <trkpt lat="45.86982" lon="5.48589">
        <ele>891.98932008431</ele>
        <time>2020-05-28T11:08:55.000Z</time>
      </trkpt>
      <trkpt lat="45.8698" lon="5.48591">
        <ele>892.19484515948</ele>
        <time>2020-05-28T11:08:57.000Z</time>
      </trkpt>
      <trkpt lat="45.86978" lon="5.48592">
        <ele>892.40103086254</ele>
        <time>2020-05-28T11:08:59.000Z</time>
      </trkpt>
      <trkpt lat="45.86976" lon="5.48594">
        <ele>892.60721656559</ele>
        <time>2020-05-28T11:09:01.000Z</time>
      </trkpt>
      <trkpt lat="45.86974" lon="5.48595">
        <ele>892.81340226864</ele>
        <time>2020-05-28T11:09:03.000Z</time>
      </trkpt>
      <trkpt lat="45.86972" lon="5.48597">
        <ele>893.11900032</ele>
        <time>2020-05-28T11:09:06.000Z</time>
      </trkpt>
      <trkpt lat="45.86969" lon="5.48599">
        <ele>893.41900032</ele>
        <time>2020-05-28T11:09:09.000Z</time>
      </trkpt>
      <trkpt lat="45.86967" lon="5.486">
        <ele>893.61900032</ele>
        <time>2020-05-28T11:09:11.000Z</time>
      </trkpt>
      <trkpt lat="45.86966" lon="5.48602">
        <ele>893.81900032</ele>
        <time>2020-05-28T11:09:13.000Z</time>
      </trkpt>
      <trkpt lat="45.86964" lon="5.48604">
        <ele>894.01900032</ele>
        <time>2020-05-28T11:09:15.000Z</time>
      </trkpt>
      <trkpt lat="45.86955" lon="5.4861">
        <ele>894.81900032</ele>
        <time>2020-05-28T11:09:23.000Z</time>
      </trkpt>
      <trkpt lat="45.86952" lon="5.48612">
        <ele>895</ele>
        <time>2020-05-28T11:09:26.000Z</time>
      </trkpt>
      <trkpt lat="45.86951" lon="5.48613">
        <ele>895</ele>
        <time>2020-05-28T11:09:28.000Z</time>
      </trkpt>
      <trkpt lat="45.86948" lon="5.48615">
        <ele>895</ele>
        <time>2020-05-28T11:09:31.000Z</time>
      </trkpt>
      <trkpt lat="45.86946" lon="5.48616">
        <ele>895</ele>
        <time>2020-05-28T11:09:33.000Z</time>
      </trkpt>
      <trkpt lat="45.86944" lon="5.48618">
        <ele>895.0189623831</ele>
        <time>2020-05-28T11:09:35.000Z</time>
      </trkpt>
      <trkpt lat="45.86942" lon="5.48619">
        <ele>895.21856305401</ele>
        <time>2020-05-28T11:09:37.000Z</time>
      </trkpt>
      <trkpt lat="45.8694" lon="5.4862">
        <ele>895.51796406038</ele>
        <time>2020-05-28T11:09:40.000Z</time>
      </trkpt>
      <trkpt lat="45.86937" lon="5.48622">
        <ele>895.81736506675</ele>
        <time>2020-05-28T11:09:43.000Z</time>
      </trkpt>
      <trkpt lat="45.86935" lon="5.48623">
        <ele>896</ele>
        <time>2020-05-28T11:09:45.000Z</time>
      </trkpt>
      <trkpt lat="45.86932" lon="5.48624">
        <ele>896</ele>
        <time>2020-05-28T11:09:48.000Z</time>
      </trkpt>
      <trkpt lat="45.86923" lon="5.48628">
        <ele>896</ele>
        <time>2020-05-28T11:09:54.000Z</time>
      </trkpt>
      <trkpt lat="45.86915" lon="5.48631">
        <ele>896.69738127724</ele>
        <time>2020-05-28T11:10:02.000Z</time>
      </trkpt>
      <trkpt lat="45.86913" lon="5.48632">
        <ele>896.89136763799</ele>
        <time>2020-05-28T11:10:04.000Z</time>
      </trkpt>
      <trkpt lat="45.86911" lon="5.48632">
        <ele>897.09053497942</ele>
        <time>2020-05-28T11:10:06.000Z</time>
      </trkpt>
      <trkpt lat="45.86908" lon="5.48633">
        <ele>897.2962962963</ele>
        <time>2020-05-28T11:10:08.000Z</time>
      </trkpt>
      <trkpt lat="45.86907" lon="5.48633">
        <ele>897.50205761317</ele>
        <time>2020-05-28T11:10:10.000Z</time>
      </trkpt>
      <trkpt lat="45.86905" lon="5.48633">
        <ele>897.70781893004</ele>
        <time>2020-05-28T11:10:12.000Z</time>
      </trkpt>
      <trkpt lat="45.86903" lon="5.48634">
        <ele>897.91358024691</ele>
        <time>2020-05-28T11:10:14.000Z</time>
      </trkpt>
      <trkpt lat="45.869" lon="5.48636">
        <ele>898.43330003877</ele>
        <time>2020-05-28T11:10:17.000Z</time>
      </trkpt>
      <trkpt lat="45.86898" lon="5.48636">
        <ele>898.83450377838</ele>
        <time>2020-05-28T11:10:19.000Z</time>
      </trkpt>
      <trkpt lat="45.86897" lon="5.48636">
        <ele>899.23570751798</ele>
        <time>2020-05-28T11:10:21.000Z</time>
      </trkpt>
      <trkpt lat="45.86895" lon="5.48638">
        <ele>899.63691125758</ele>
        <time>2020-05-28T11:10:23.000Z</time>
      </trkpt>
      <trkpt lat="45.86893" lon="5.48639">
        <ele>900.11900032</ele>
        <time>2020-05-28T11:10:26.000Z</time>
      </trkpt>
      <trkpt lat="45.8689" lon="5.4864">
        <ele>900.41900032</ele>
        <time>2020-05-28T11:10:29.000Z</time>
      </trkpt>
      <trkpt lat="45.86888" lon="5.48641">
        <ele>900.61900032</ele>
        <time>2020-05-28T11:10:31.000Z</time>
      </trkpt>
      <trkpt lat="45.86886" lon="5.48642">
        <ele>900.81900032</ele>
        <time>2020-05-28T11:10:33.000Z</time>
      </trkpt>
      <trkpt lat="45.86884" lon="5.48644">
        <ele>901.01900032</ele>
        <time>2020-05-28T11:10:35.000Z</time>
      </trkpt>
      <trkpt lat="45.86882" lon="5.48645">
        <ele>901.21900032</ele>
        <time>2020-05-28T11:10:37.000Z</time>
      </trkpt>
      <trkpt lat="45.8688" lon="5.48647">
        <ele>901.51900032</ele>
        <time>2020-05-28T11:10:40.000Z</time>
      </trkpt>
      <trkpt lat="45.86878" lon="5.48649">
        <ele>901.71900032</ele>
        <time>2020-05-28T11:10:42.000Z</time>
      </trkpt>
      <trkpt lat="45.86876" lon="5.48649">
        <ele>901.91900032</ele>
        <time>2020-05-28T11:10:44.000Z</time>
      </trkpt>
      <trkpt lat="45.86873" lon="5.4865">
        <ele>902</ele>
        <time>2020-05-28T11:10:47.000Z</time>
      </trkpt>
      <trkpt lat="45.86871" lon="5.48652">
        <ele>902</ele>
        <time>2020-05-28T11:10:49.000Z</time>
      </trkpt>
      <trkpt lat="45.86868" lon="5.48654">
        <ele>902</ele>
        <time>2020-05-28T11:10:52.000Z</time>
      </trkpt>
      <trkpt lat="45.86866" lon="5.48655">
        <ele>902</ele>
        <time>2020-05-28T11:10:55.000Z</time>
      </trkpt>
      <trkpt lat="45.86864" lon="5.48656">
        <ele>902.38469612916</ele>
        <time>2020-05-28T11:10:57.000Z</time>
      </trkpt>
      <trkpt lat="45.86862" lon="5.48657">
        <ele>902.79834645763</ele>
        <time>2020-05-28T11:10:59.000Z</time>
      </trkpt>
      <trkpt lat="45.8686" lon="5.48659">
        <ele>903.41882195034</ele>
        <time>2020-05-28T11:11:02.000Z</time>
      </trkpt>
      <trkpt lat="45.86859" lon="5.4866">
        <ele>903.83247227881</ele>
        <time>2020-05-28T11:11:04.000Z</time>
      </trkpt>
      <trkpt lat="45.86857" lon="5.4866">
        <ele>904</ele>
        <time>2020-05-28T11:11:06.000Z</time>
      </trkpt>
      <trkpt lat="45.86854" lon="5.48662">
        <ele>904</ele>
        <time>2020-05-28T11:11:09.000Z</time>
      </trkpt>
      <trkpt lat="45.86851" lon="5.48663">
        <ele>904</ele>
        <time>2020-05-28T11:11:13.000Z</time>
      </trkpt>
      <trkpt lat="45.86849" lon="5.48664">
        <ele>904.11546216867</ele>
        <time>2020-05-28T11:11:16.000Z</time>
      </trkpt>
      <trkpt lat="45.86847" lon="5.48665">
        <ele>904.31626538153</ele>
        <time>2020-05-28T11:11:18.000Z</time>
      </trkpt>
      <trkpt lat="45.86845" lon="5.48665">
        <ele>904.51706859438</ele>
        <time>2020-05-28T11:11:20.000Z</time>
      </trkpt>
      <trkpt lat="45.86843" lon="5.48667">
        <ele>904.81827341365</ele>
        <time>2020-05-28T11:11:23.000Z</time>
      </trkpt>
      <trkpt lat="45.86841" lon="5.48667">
        <ele>905.01900032</ele>
        <time>2020-05-28T11:11:25.000Z</time>
      </trkpt>
      <trkpt lat="45.86839" lon="5.48668">
        <ele>905.21900032</ele>
        <time>2020-05-28T11:11:27.000Z</time>
      </trkpt>
      <trkpt lat="45.86831" lon="5.48674">
        <ele>906.41900032</ele>
        <time>2020-05-28T11:11:39.000Z</time>
      </trkpt>
      <trkpt lat="45.86822" lon="5.48681">
        <ele>907.11900032</ele>
        <time>2020-05-28T11:11:46.000Z</time>
      </trkpt>
      <trkpt lat="45.86813" lon="5.48684">
        <ele>908.11900032</ele>
        <time>2020-05-28T11:11:56.000Z</time>
      </trkpt>
      <trkpt lat="45.86811" lon="5.48685">
        <ele>908.31900032</ele>
        <time>2020-05-28T11:11:58.000Z</time>
      </trkpt>
      <trkpt lat="45.86808" lon="5.48687">
        <ele>908.61900032</ele>
        <time>2020-05-28T11:12:01.000Z</time>
      </trkpt>
      <trkpt lat="45.86806" lon="5.48688">
        <ele>908.91900032</ele>
        <time>2020-05-28T11:12:04.000Z</time>
      </trkpt>
      <trkpt lat="45.86801" lon="5.48691">
        <ele>909</ele>
        <time>2020-05-28T11:12:09.000Z</time>
      </trkpt>
      <trkpt lat="45.868" lon="5.48693">
        <ele>909</ele>
        <time>2020-05-28T11:12:11.000Z</time>
      </trkpt>
      <trkpt lat="45.86798" lon="5.48697">
        <ele>909</ele>
        <time>2020-05-28T11:12:14.000Z</time>
      </trkpt>
      <trkpt lat="45.86798" lon="5.487">
        <ele>909.21479121196</ele>
        <time>2020-05-28T11:12:16.000Z</time>
      </trkpt>
      <trkpt lat="45.86798" lon="5.48702">
        <ele>909.62006009651</ele>
        <time>2020-05-28T11:12:18.000Z</time>
      </trkpt>
      <trkpt lat="45.868" lon="5.48706">
        <ele>910.22796342335</ele>
        <time>2020-05-28T11:12:21.000Z</time>
      </trkpt>
      <trkpt lat="45.86801" lon="5.48708">
        <ele>910.63323230791</ele>
        <time>2020-05-28T11:12:23.000Z</time>
      </trkpt>
      <trkpt lat="45.86802" lon="5.4871">
        <ele>911</ele>
        <time>2020-05-28T11:12:26.000Z</time>
      </trkpt>
      <trkpt lat="45.86804" lon="5.48709">
        <ele>911</ele>
        <time>2020-05-28T11:12:29.000Z</time>
      </trkpt>
      <trkpt lat="45.86806" lon="5.48709">
        <ele>911</ele>
        <time>2020-05-28T11:12:31.000Z</time>
      </trkpt>
      <trkpt lat="45.86808" lon="5.48711">
        <ele>913</ele>
        <time>2020-05-28T11:15:06.000Z</time>
      </trkpt>
      <trkpt lat="45.86807" lon="5.48713">
        <ele>913</ele>
        <time>2020-05-28T11:15:17.000Z</time>
      </trkpt>
      <trkpt lat="45.86805" lon="5.48716">
        <ele>913</ele>
        <time>2020-05-28T11:15:23.000Z</time>
      </trkpt>
      <trkpt lat="45.86804" lon="5.48713">
        <ele>913</ele>
        <time>2020-05-28T11:15:58.000Z</time>
      </trkpt>
      <trkpt lat="45.86806" lon="5.48714">
        <ele>913</ele>
        <time>2020-05-28T11:16:05.000Z</time>
      </trkpt>
      <trkpt lat="45.86808" lon="5.48715">
        <ele>913</ele>
        <time>2020-05-28T11:16:10.000Z</time>
      </trkpt>
      <trkpt lat="45.86806" lon="5.48714">
        <ele>913</ele>
        <time>2020-05-28T11:16:27.000Z</time>
      </trkpt>
      <trkpt lat="45.86808" lon="5.48714">
        <ele>913</ele>
        <time>2020-05-28T11:17:02.000Z</time>
      </trkpt>
      <trkpt lat="45.86802" lon="5.48705">
        <ele>913</ele>
        <time>2020-05-28T11:17:26.000Z</time>
      </trkpt>
      <trkpt lat="45.86808" lon="5.48695">
        <ele>912.18991091912</ele>
        <time>2020-05-28T11:17:53.000Z</time>
      </trkpt>
      <trkpt lat="45.86817" lon="5.48693">
        <ele>912.71587485246</ele>
        <time>2020-05-28T11:18:02.000Z</time>
      </trkpt>
      <trkpt lat="45.86826" lon="5.48687">
        <ele>913</ele>
        <time>2020-05-28T11:18:11.000Z</time>
      </trkpt>
      <trkpt lat="45.86835" lon="5.48692">
        <ele>913</ele>
        <time>2020-05-28T11:18:18.000Z</time>
      </trkpt>
      <trkpt lat="45.86844" lon="5.48696">
        <ele>913</ele>
        <time>2020-05-28T11:18:25.000Z</time>
      </trkpt>
      <trkpt lat="45.86854" lon="5.48696">
        <ele>913</ele>
        <time>2020-05-28T11:18:34.000Z</time>
      </trkpt>
      <trkpt lat="45.86863" lon="5.48696">
        <ele>913</ele>
        <time>2020-05-28T11:18:43.000Z</time>
      </trkpt>
      <trkpt lat="45.86873" lon="5.48698">
        <ele>914.43574361446</ele>
        <time>2020-05-28T11:18:52.000Z</time>
      </trkpt>
      <trkpt lat="45.86882" lon="5.48699">
        <ele>914.58099968</ele>
        <time>2020-05-28T11:18:59.000Z</time>
      </trkpt>
      <trkpt lat="45.86891" lon="5.48698">
        <ele>914.21900032</ele>
        <time>2020-05-28T11:19:07.000Z</time>
      </trkpt>
      <trkpt lat="45.86895" lon="5.487">
        <ele>914.51900032</ele>
        <time>2020-05-28T11:19:10.000Z</time>
      </trkpt>
      <trkpt lat="45.86897" lon="5.48701">
        <ele>914.71900032</ele>
        <time>2020-05-28T11:19:12.000Z</time>
      </trkpt>
      <trkpt lat="45.86899" lon="5.487">
        <ele>915.01900032</ele>
        <time>2020-05-28T11:19:15.000Z</time>
      </trkpt>
      <trkpt lat="45.86901" lon="5.48699">
        <ele>915.31900032</ele>
        <time>2020-05-28T11:19:18.000Z</time>
      </trkpt>
      <trkpt lat="45.86904" lon="5.48699">
        <ele>915.51900032</ele>
        <time>2020-05-28T11:19:20.000Z</time>
      </trkpt>
      <trkpt lat="45.86906" lon="5.48699">
        <ele>915.71900032</ele>
        <time>2020-05-28T11:19:22.000Z</time>
      </trkpt>
      <trkpt lat="45.86909" lon="5.48699">
        <ele>915.91900032</ele>
        <time>2020-05-28T11:19:24.000Z</time>
      </trkpt>
      <trkpt lat="45.86911" lon="5.48698">
        <ele>916.11564646159</ele>
        <time>2020-05-28T11:19:26.000Z</time>
      </trkpt>
      <trkpt lat="45.86914" lon="5.48699">
        <ele>916.31000973993</ele>
        <time>2020-05-28T11:19:28.000Z</time>
      </trkpt>
      <trkpt lat="45.86917" lon="5.487">
        <ele>916.50437301827</ele>
        <time>2020-05-28T11:19:30.000Z</time>
      </trkpt>
      <trkpt lat="45.86926" lon="5.487">
        <ele>917.50463423733</ele>
        <time>2020-05-28T11:19:40.000Z</time>
      </trkpt>
      <trkpt lat="45.86928" lon="5.48699">
        <ele>917.71060766445</ele>
        <time>2020-05-28T11:19:42.000Z</time>
      </trkpt>
      <trkpt lat="45.8693" lon="5.48699">
        <ele>917.91658109157</ele>
        <time>2020-05-28T11:19:44.000Z</time>
      </trkpt>
      <trkpt lat="45.86933" lon="5.48699">
        <ele>918.11900032</ele>
        <time>2020-05-28T11:19:46.000Z</time>
      </trkpt>
      <trkpt lat="45.86935" lon="5.487">
        <ele>918.31900032</ele>
        <time>2020-05-28T11:19:48.000Z</time>
      </trkpt>
      <trkpt lat="45.86938" lon="5.487">
        <ele>918.51900032</ele>
        <time>2020-05-28T11:19:50.000Z</time>
      </trkpt>
      <trkpt lat="45.8694" lon="5.487">
        <ele>918.71900032</ele>
        <time>2020-05-28T11:19:52.000Z</time>
      </trkpt>
      <trkpt lat="45.86942" lon="5.48699">
        <ele>918.91900032</ele>
        <time>2020-05-28T11:19:54.000Z</time>
      </trkpt>
      <trkpt lat="45.86944" lon="5.48699">
        <ele>919</ele>
        <time>2020-05-28T11:19:56.000Z</time>
      </trkpt>
      <trkpt lat="45.86946" lon="5.48699">
        <ele>919</ele>
        <time>2020-05-28T11:19:58.000Z</time>
      </trkpt>
      <trkpt lat="45.86949" lon="5.487">
        <ele>919</ele>
        <time>2020-05-28T11:20:01.000Z</time>
      </trkpt>
      <trkpt lat="45.86951" lon="5.48701">
        <ele>919</ele>
        <time>2020-05-28T11:20:03.000Z</time>
      </trkpt>
      <trkpt lat="45.86953" lon="5.48701">
        <ele>919.01894348349</ele>
        <time>2020-05-28T11:20:05.000Z</time>
      </trkpt>
      <trkpt lat="45.86955" lon="5.48701">
        <ele>919.21834521449</ele>
        <time>2020-05-28T11:20:07.000Z</time>
      </trkpt>
      <trkpt lat="45.86958" lon="5.48701">
        <ele>919.41774694548</ele>
        <time>2020-05-28T11:20:09.000Z</time>
      </trkpt>
      <trkpt lat="45.8696" lon="5.48702">
        <ele>919.61714867648</ele>
        <time>2020-05-28T11:20:11.000Z</time>
      </trkpt>
      <trkpt lat="45.86962" lon="5.48704">
        <ele>919.81655040748</ele>
        <time>2020-05-28T11:20:13.000Z</time>
      </trkpt>
      <trkpt lat="45.86964" lon="5.48704">
        <ele>920.01604814958</ele>
        <time>2020-05-28T11:20:15.000Z</time>
      </trkpt>
      <trkpt lat="45.86967" lon="5.48705">
        <ele>920.21665001939</ele>
        <time>2020-05-28T11:20:17.000Z</time>
      </trkpt>
      <trkpt lat="45.86969" lon="5.48706">
        <ele>920.41725188919</ele>
        <time>2020-05-28T11:20:19.000Z</time>
      </trkpt>
      <trkpt lat="45.86972" lon="5.48706">
        <ele>920.71815469389</ele>
        <time>2020-05-28T11:20:22.000Z</time>
      </trkpt>
      <trkpt lat="45.86975" lon="5.48705">
        <ele>921</ele>
        <time>2020-05-28T11:20:25.000Z</time>
      </trkpt>
      <trkpt lat="45.86977" lon="5.48704">
        <ele>921</ele>
        <time>2020-05-28T11:20:27.000Z</time>
      </trkpt>
      <trkpt lat="45.86979" lon="5.48705">
        <ele>921</ele>
        <time>2020-05-28T11:20:29.000Z</time>
      </trkpt>
      <trkpt lat="45.86981" lon="5.48705">
        <ele>921</ele>
        <time>2020-05-28T11:20:31.000Z</time>
      </trkpt>
      <trkpt lat="45.86983" lon="5.48706">
        <ele>921</ele>
        <time>2020-05-28T11:20:33.000Z</time>
      </trkpt>
      <trkpt lat="45.86986" lon="5.48707">
        <ele>921</ele>
        <time>2020-05-28T11:20:35.000Z</time>
      </trkpt>
      <trkpt lat="45.86988" lon="5.48707">
        <ele>921</ele>
        <time>2020-05-28T11:20:37.000Z</time>
      </trkpt>
      <trkpt lat="45.86991" lon="5.48706">
        <ele>921</ele>
        <time>2020-05-28T11:20:39.000Z</time>
      </trkpt>
      <trkpt lat="45.86993" lon="5.48707">
        <ele>921</ele>
        <time>2020-05-28T11:20:41.000Z</time>
      </trkpt>
      <trkpt lat="45.86995" lon="5.48707">
        <ele>921</ele>
        <time>2020-05-28T11:20:43.000Z</time>
      </trkpt>
      <trkpt lat="45.86998" lon="5.48707">
        <ele>921.01900032</ele>
        <time>2020-05-28T11:20:45.000Z</time>
      </trkpt>
      <trkpt lat="45.87001" lon="5.48708">
        <ele>921.21900032</ele>
        <time>2020-05-28T11:20:47.000Z</time>
      </trkpt>
      <trkpt lat="45.87003" lon="5.48708">
        <ele>921.41900032</ele>
        <time>2020-05-28T11:20:49.000Z</time>
      </trkpt>
      <trkpt lat="45.87005" lon="5.4871">
        <ele>921.61900032</ele>
        <time>2020-05-28T11:20:51.000Z</time>
      </trkpt>
      <trkpt lat="45.87009" lon="5.48711">
        <ele>921.91900032</ele>
        <time>2020-05-28T11:20:54.000Z</time>
      </trkpt>
      <trkpt lat="45.87012" lon="5.48712">
        <ele>922.21900032</ele>
        <time>2020-05-28T11:20:57.000Z</time>
      </trkpt>
      <trkpt lat="45.87014" lon="5.48713">
        <ele>922.41900032</ele>
        <time>2020-05-28T11:20:59.000Z</time>
      </trkpt>
      <trkpt lat="45.87016" lon="5.48715">
        <ele>922.61900032</ele>
        <time>2020-05-28T11:21:01.000Z</time>
      </trkpt>
      <trkpt lat="45.87018" lon="5.48715">
        <ele>922.81900032</ele>
        <time>2020-05-28T11:21:03.000Z</time>
      </trkpt>
      <trkpt lat="45.8702" lon="5.48717">
        <ele>923</ele>
        <time>2020-05-28T11:21:05.000Z</time>
      </trkpt>
      <trkpt lat="45.87022" lon="5.48718">
        <ele>923</ele>
        <time>2020-05-28T11:21:07.000Z</time>
      </trkpt>
      <trkpt lat="45.87024" lon="5.48719">
        <ele>923</ele>
        <time>2020-05-28T11:21:09.000Z</time>
      </trkpt>
      <trkpt lat="45.87026" lon="5.4872">
        <ele>923</ele>
        <time>2020-05-28T11:21:11.000Z</time>
      </trkpt>
      <trkpt lat="45.87028" lon="5.48721">
        <ele>923</ele>
        <time>2020-05-28T11:21:13.000Z</time>
      </trkpt>
      <trkpt lat="45.87031" lon="5.48721">
        <ele>923</ele>
        <time>2020-05-28T11:21:15.000Z</time>
      </trkpt>
      <trkpt lat="45.87033" lon="5.4872">
        <ele>923</ele>
        <time>2020-05-28T11:21:17.000Z</time>
      </trkpt>
      <trkpt lat="45.87035" lon="5.4872">
        <ele>923</ele>
        <time>2020-05-28T11:21:19.000Z</time>
      </trkpt>
      <trkpt lat="45.87037" lon="5.48722">
        <ele>923</ele>
        <time>2020-05-28T11:21:21.000Z</time>
      </trkpt>
      <trkpt lat="45.87039" lon="5.48723">
        <ele>923</ele>
        <time>2020-05-28T11:21:23.000Z</time>
      </trkpt>
      <trkpt lat="45.87042" lon="5.48723">
        <ele>923</ele>
        <time>2020-05-28T11:21:25.000Z</time>
      </trkpt>
      <trkpt lat="45.87044" lon="5.48725">
        <ele>923</ele>
        <time>2020-05-28T11:21:27.000Z</time>
      </trkpt>
      <trkpt lat="45.87046" lon="5.48726">
        <ele>923</ele>
        <time>2020-05-28T11:21:29.000Z</time>
      </trkpt>
      <trkpt lat="45.87049" lon="5.48729">
        <ele>923</ele>
        <time>2020-05-28T11:21:31.000Z</time>
      </trkpt>
      <trkpt lat="45.87052" lon="5.48731">
        <ele>923</ele>
        <time>2020-05-28T11:21:33.000Z</time>
      </trkpt>
      <trkpt lat="45.87054" lon="5.48732">
        <ele>923.03800064</ele>
        <time>2020-05-28T11:21:35.000Z</time>
      </trkpt>
      <trkpt lat="45.87057" lon="5.48735">
        <ele>923.43800064</ele>
        <time>2020-05-28T11:21:37.000Z</time>
      </trkpt>
      <trkpt lat="45.87059" lon="5.48738">
        <ele>923.83800064</ele>
        <time>2020-05-28T11:21:39.000Z</time>
      </trkpt>
      <trkpt lat="45.8706" lon="5.48741">
        <ele>924.23800064</ele>
        <time>2020-05-28T11:21:41.000Z</time>
      </trkpt>
      <trkpt lat="45.87063" lon="5.48744">
        <ele>924.63800064</ele>
        <time>2020-05-28T11:21:43.000Z</time>
      </trkpt>
      <trkpt lat="45.87065" lon="5.48745">
        <ele>925</ele>
        <time>2020-05-28T11:21:45.000Z</time>
      </trkpt>
      <trkpt lat="45.87067" lon="5.48747">
        <ele>925</ele>
        <time>2020-05-28T11:21:47.000Z</time>
      </trkpt>
      <trkpt lat="45.87068" lon="5.48749">
        <ele>925</ele>
        <time>2020-05-28T11:21:49.000Z</time>
      </trkpt>
      <trkpt lat="45.8707" lon="5.48752">
        <ele>925</ele>
        <time>2020-05-28T11:21:52.000Z</time>
      </trkpt>
      <trkpt lat="45.87071" lon="5.48754">
        <ele>925</ele>
        <time>2020-05-28T11:21:54.000Z</time>
      </trkpt>
      <trkpt lat="45.87072" lon="5.48757">
        <ele>925.21900032</ele>
        <time>2020-05-28T11:21:57.000Z</time>
      </trkpt>
      <trkpt lat="45.87074" lon="5.48759">
        <ele>925.51900032</ele>
        <time>2020-05-28T11:22:00.000Z</time>
      </trkpt>
      <trkpt lat="45.87075" lon="5.48761">
        <ele>925.71900032</ele>
        <time>2020-05-28T11:22:02.000Z</time>
      </trkpt>
      <trkpt lat="45.87076" lon="5.48764">
        <ele>925.91900032</ele>
        <time>2020-05-28T11:22:04.000Z</time>
      </trkpt>
      <trkpt lat="45.87077" lon="5.48769">
        <ele>926</ele>
        <time>2020-05-28T11:22:07.000Z</time>
      </trkpt>
      <trkpt lat="45.87077" lon="5.48772">
        <ele>926</ele>
        <time>2020-05-28T11:22:09.000Z</time>
      </trkpt>
      <trkpt lat="45.87078" lon="5.48776">
        <ele>926</ele>
        <time>2020-05-28T11:22:11.000Z</time>
      </trkpt>
      <trkpt lat="45.87079" lon="5.48779">
        <ele>926</ele>
        <time>2020-05-28T11:22:13.000Z</time>
      </trkpt>
      <trkpt lat="45.87078" lon="5.48783">
        <ele>926.01900032</ele>
        <time>2020-05-28T11:22:15.000Z</time>
      </trkpt>
      <trkpt lat="45.87078" lon="5.48786">
        <ele>926.21900032</ele>
        <time>2020-05-28T11:22:17.000Z</time>
      </trkpt>
      <trkpt lat="45.87077" lon="5.4879">
        <ele>926.41900032</ele>
        <time>2020-05-28T11:22:19.000Z</time>
      </trkpt>
      <trkpt lat="45.87076" lon="5.48793">
        <ele>926.61900032</ele>
        <time>2020-05-28T11:22:21.000Z</time>
      </trkpt>
      <trkpt lat="45.87075" lon="5.48795">
        <ele>926.81900032</ele>
        <time>2020-05-28T11:22:23.000Z</time>
      </trkpt>
      <trkpt lat="45.87073" lon="5.48798">
        <ele>927</ele>
        <time>2020-05-28T11:22:25.000Z</time>
      </trkpt>
      <trkpt lat="45.87072" lon="5.48799">
        <ele>927</ele>
        <time>2020-05-28T11:22:27.000Z</time>
      </trkpt>
      <trkpt lat="45.8707" lon="5.48802">
        <ele>927</ele>
        <time>2020-05-28T11:22:30.000Z</time>
      </trkpt>
      <trkpt lat="45.87068" lon="5.48805">
        <ele>927</ele>
        <time>2020-05-28T11:22:32.000Z</time>
      </trkpt>
      <trkpt lat="45.87067" lon="5.48808">
        <ele>927</ele>
        <time>2020-05-28T11:22:34.000Z</time>
      </trkpt>
      <trkpt lat="45.87065" lon="5.4881">
        <ele>927.11564646159</ele>
        <time>2020-05-28T11:22:36.000Z</time>
      </trkpt>
      <trkpt lat="45.87064" lon="5.48812">
        <ele>927.31000973993</ele>
        <time>2020-05-28T11:22:38.000Z</time>
      </trkpt>
      <trkpt lat="45.87062" lon="5.48815">
        <ele>927.50437301827</ele>
        <time>2020-05-28T11:22:40.000Z</time>
      </trkpt>
      <trkpt lat="45.87061" lon="5.48817">
        <ele>927.69873629661</ele>
        <time>2020-05-28T11:22:42.000Z</time>
      </trkpt>
      <trkpt lat="45.87059" lon="5.4882">
        <ele>927.89309957495</ele>
        <time>2020-05-28T11:22:44.000Z</time>
      </trkpt>
      <trkpt lat="45.87058" lon="5.48823">
        <ele>928</ele>
        <time>2020-05-28T11:22:46.000Z</time>
      </trkpt>
      <trkpt lat="45.87056" lon="5.48826">
        <ele>928</ele>
        <time>2020-05-28T11:22:48.000Z</time>
      </trkpt>
      <trkpt lat="45.87055" lon="5.48829">
        <ele>928</ele>
        <time>2020-05-28T11:22:50.000Z</time>
      </trkpt>
      <trkpt lat="45.87053" lon="5.48831">
        <ele>928</ele>
        <time>2020-05-28T11:22:52.000Z</time>
      </trkpt>
      <trkpt lat="45.87052" lon="5.48834">
        <ele>928</ele>
        <time>2020-05-28T11:22:54.000Z</time>
      </trkpt>
      <trkpt lat="45.87051" lon="5.48837">
        <ele>928.11900032</ele>
        <time>2020-05-28T11:22:56.000Z</time>
      </trkpt>
      <trkpt lat="45.87051" lon="5.4884">
        <ele>928.31900032</ele>
        <time>2020-05-28T11:22:58.000Z</time>
      </trkpt>
      <trkpt lat="45.8705" lon="5.48844">
        <ele>928.51900032</ele>
        <time>2020-05-28T11:23:00.000Z</time>
      </trkpt>
      <trkpt lat="45.87049" lon="5.48847">
        <ele>928.71900032</ele>
        <time>2020-05-28T11:23:02.000Z</time>
      </trkpt>
      <trkpt lat="45.87048" lon="5.48851">
        <ele>928.91900032</ele>
        <time>2020-05-28T11:23:04.000Z</time>
      </trkpt>
      <trkpt lat="45.87047" lon="5.48854">
        <ele>929</ele>
        <time>2020-05-28T11:23:06.000Z</time>
      </trkpt>
      <trkpt lat="45.87047" lon="5.48858">
        <ele>929</ele>
        <time>2020-05-28T11:23:08.000Z</time>
      </trkpt>
      <trkpt lat="45.87046" lon="5.48861">
        <ele>929</ele>
        <time>2020-05-28T11:23:10.000Z</time>
      </trkpt>
      <trkpt lat="45.87045" lon="5.48864">
        <ele>929</ele>
        <time>2020-05-28T11:23:12.000Z</time>
      </trkpt>
      <trkpt lat="45.87044" lon="5.48867">
        <ele>929</ele>
        <time>2020-05-28T11:23:14.000Z</time>
      </trkpt>
      <trkpt lat="45.87043" lon="5.4887">
        <ele>929.11793890757</ele>
        <time>2020-05-28T11:23:16.000Z</time>
      </trkpt>
      <trkpt lat="45.87041" lon="5.48873">
        <ele>929.31615502594</ele>
        <time>2020-05-28T11:23:18.000Z</time>
      </trkpt>
      <trkpt lat="45.8704" lon="5.48876">
        <ele>929.5143711443</ele>
        <time>2020-05-28T11:23:20.000Z</time>
      </trkpt>
      <trkpt lat="45.87039" lon="5.48878">
        <ele>929.71258726266</ele>
        <time>2020-05-28T11:23:22.000Z</time>
      </trkpt>
      <trkpt lat="45.87037" lon="5.48881">
        <ele>929.91080338103</ele>
        <time>2020-05-28T11:23:24.000Z</time>
      </trkpt>
      <trkpt lat="45.87036" lon="5.48884">
        <ele>930.11077596541</ele>
        <time>2020-05-28T11:23:26.000Z</time>
      </trkpt>
      <trkpt lat="45.87035" lon="5.48886">
        <ele>930.31218563978</ele>
        <time>2020-05-28T11:23:28.000Z</time>
      </trkpt>
      <trkpt lat="45.87033" lon="5.48889">
        <ele>930.51359531415</ele>
        <time>2020-05-28T11:23:30.000Z</time>
      </trkpt>
      <trkpt lat="45.87032" lon="5.48891">
        <ele>930.71500498852</ele>
        <time>2020-05-28T11:23:32.000Z</time>
      </trkpt>
      <trkpt lat="45.87031" lon="5.48893">
        <ele>930.91641466288</ele>
        <time>2020-05-28T11:23:34.000Z</time>
      </trkpt>
      <trkpt lat="45.87029" lon="5.48895">
        <ele>931</ele>
        <time>2020-05-28T11:23:36.000Z</time>
      </trkpt>
      <trkpt lat="45.87027" lon="5.48897">
        <ele>931</ele>
        <time>2020-05-28T11:23:38.000Z</time>
      </trkpt>
      <trkpt lat="45.87025" lon="5.48899">
        <ele>931</ele>
        <time>2020-05-28T11:23:40.000Z</time>
      </trkpt>
      <trkpt lat="45.87023" lon="5.48901">
        <ele>931</ele>
        <time>2020-05-28T11:23:42.000Z</time>
      </trkpt>
      <trkpt lat="45.87021" lon="5.48902">
        <ele>931</ele>
        <time>2020-05-28T11:23:44.000Z</time>
      </trkpt>
      <trkpt lat="45.87019" lon="5.48904">
        <ele>931</ele>
        <time>2020-05-28T11:23:46.000Z</time>
      </trkpt>
      <trkpt lat="45.87017" lon="5.48905">
        <ele>931</ele>
        <time>2020-05-28T11:23:48.000Z</time>
      </trkpt>
      <trkpt lat="45.87015" lon="5.48907">
        <ele>931</ele>
        <time>2020-05-28T11:23:50.000Z</time>
      </trkpt>
      <trkpt lat="45.87012" lon="5.48908">
        <ele>931</ele>
        <time>2020-05-28T11:23:52.000Z</time>
      </trkpt>
      <trkpt lat="45.8701" lon="5.48909">
        <ele>931</ele>
        <time>2020-05-28T11:23:54.000Z</time>
      </trkpt>
      <trkpt lat="45.87008" lon="5.4891">
        <ele>931.09268738309</ele>
        <time>2020-05-28T11:23:56.000Z</time>
      </trkpt>
      <trkpt lat="45.87006" lon="5.48911">
        <ele>931.29866081021</ele>
        <time>2020-05-28T11:23:58.000Z</time>
      </trkpt>
      <trkpt lat="45.87004" lon="5.48912">
        <ele>931.50463423733</ele>
        <time>2020-05-28T11:24:00.000Z</time>
      </trkpt>
      <trkpt lat="45.87002" lon="5.48914">
        <ele>931.71060766445</ele>
        <time>2020-05-28T11:24:02.000Z</time>
      </trkpt>
      <trkpt lat="45.87" lon="5.48914">
        <ele>931.91658109157</ele>
        <time>2020-05-28T11:24:04.000Z</time>
      </trkpt>
      <trkpt lat="45.86998" lon="5.48915">
        <ele>932</ele>
        <time>2020-05-28T11:24:06.000Z</time>
      </trkpt>
      <trkpt lat="45.86996" lon="5.48915">
        <ele>932</ele>
        <time>2020-05-28T11:24:08.000Z</time>
      </trkpt>
      <trkpt lat="45.86993" lon="5.48916">
        <ele>932</ele>
        <time>2020-05-28T11:24:10.000Z</time>
      </trkpt>
      <trkpt lat="45.86991" lon="5.48917">
        <ele>932</ele>
        <time>2020-05-28T11:24:12.000Z</time>
      </trkpt>
      <trkpt lat="45.86989" lon="5.48918">
        <ele>932</ele>
        <time>2020-05-28T11:24:14.000Z</time>
      </trkpt>
      <trkpt lat="45.86987" lon="5.48919">
        <ele>932</ele>
        <time>2020-05-28T11:24:16.000Z</time>
      </trkpt>
      <trkpt lat="45.86984" lon="5.4892">
        <ele>932</ele>
        <time>2020-05-28T11:24:18.000Z</time>
      </trkpt>
      <trkpt lat="45.86982" lon="5.48922">
        <ele>932</ele>
        <time>2020-05-28T11:24:20.000Z</time>
      </trkpt>
      <trkpt lat="45.8698" lon="5.48923">
        <ele>932</ele>
        <time>2020-05-28T11:24:22.000Z</time>
      </trkpt>
      <trkpt lat="45.86978" lon="5.48924">
        <ele>932</ele>
        <time>2020-05-28T11:24:24.000Z</time>
      </trkpt>
      <trkpt lat="45.86976" lon="5.48926">
        <ele>932</ele>
        <time>2020-05-28T11:24:26.000Z</time>
      </trkpt>
      <trkpt lat="45.86973" lon="5.48928">
        <ele>932</ele>
        <time>2020-05-28T11:24:28.000Z</time>
      </trkpt>
      <trkpt lat="45.86971" lon="5.48929">
        <ele>932</ele>
        <time>2020-05-28T11:24:30.000Z</time>
      </trkpt>
      <trkpt lat="45.86969" lon="5.4893">
        <ele>932</ele>
        <time>2020-05-28T11:24:32.000Z</time>
      </trkpt>
      <trkpt lat="45.86967" lon="5.48932">
        <ele>932</ele>
        <time>2020-05-28T11:24:34.000Z</time>
      </trkpt>
      <trkpt lat="45.86964" lon="5.48933">
        <ele>932</ele>
        <time>2020-05-28T11:24:36.000Z</time>
      </trkpt>
      <trkpt lat="45.86962" lon="5.48935">
        <ele>932</ele>
        <time>2020-05-28T11:24:38.000Z</time>
      </trkpt>
      <trkpt lat="45.86961" lon="5.48937">
        <ele>932</ele>
        <time>2020-05-28T11:24:40.000Z</time>
      </trkpt>
      <trkpt lat="45.86958" lon="5.48939">
        <ele>932</ele>
        <time>2020-05-28T11:24:42.000Z</time>
      </trkpt>
      <trkpt lat="45.86956" lon="5.48942">
        <ele>932</ele>
        <time>2020-05-28T11:24:44.000Z</time>
      </trkpt>
      <trkpt lat="45.86954" lon="5.48945">
        <ele>932</ele>
        <time>2020-05-28T11:24:46.000Z</time>
      </trkpt>
      <trkpt lat="45.86952" lon="5.48949">
        <ele>932</ele>
        <time>2020-05-28T11:24:48.000Z</time>
      </trkpt>
      <trkpt lat="45.86951" lon="5.48952">
        <ele>932</ele>
        <time>2020-05-28T11:24:50.000Z</time>
      </trkpt>
      <trkpt lat="45.8695" lon="5.48955">
        <ele>932</ele>
        <time>2020-05-28T11:24:52.000Z</time>
      </trkpt>
      <trkpt lat="45.86949" lon="5.48958">
        <ele>932</ele>
        <time>2020-05-28T11:24:54.000Z</time>
      </trkpt>
      <trkpt lat="45.86948" lon="5.48961">
        <ele>932.23446844695</ele>
        <time>2020-05-28T11:24:56.000Z</time>
      </trkpt>
      <trkpt lat="45.86949" lon="5.48965">
        <ele>932.63527030719</ele>
        <time>2020-05-28T11:24:58.000Z</time>
      </trkpt>
      <trkpt lat="45.8695" lon="5.48968">
        <ele>933.03607216742</ele>
        <time>2020-05-28T11:25:00.000Z</time>
      </trkpt>
      <trkpt lat="45.86952" lon="5.4897">
        <ele>933.43687402765</ele>
        <time>2020-05-28T11:25:02.000Z</time>
      </trkpt>
      <trkpt lat="45.86954" lon="5.48973">
        <ele>934</ele>
        <time>2020-05-28T11:25:05.000Z</time>
      </trkpt>
      <trkpt lat="45.86956" lon="5.48974">
        <ele>934</ele>
        <time>2020-05-28T11:25:07.000Z</time>
      </trkpt>
      <trkpt lat="45.86958" lon="5.48977">
        <ele>934</ele>
        <time>2020-05-28T11:25:09.000Z</time>
      </trkpt>
      <trkpt lat="45.8696" lon="5.48979">
        <ele>934</ele>
        <time>2020-05-28T11:25:11.000Z</time>
      </trkpt>
      <trkpt lat="45.86962" lon="5.48981">
        <ele>934</ele>
        <time>2020-05-28T11:25:13.000Z</time>
      </trkpt>
      <trkpt lat="45.86964" lon="5.48982">
        <ele>934</ele>
        <time>2020-05-28T11:25:15.000Z</time>
      </trkpt>
      <trkpt lat="45.86966" lon="5.48984">
        <ele>934</ele>
        <time>2020-05-28T11:25:17.000Z</time>
      </trkpt>
      <trkpt lat="45.86969" lon="5.48986">
        <ele>934</ele>
        <time>2020-05-28T11:25:20.000Z</time>
      </trkpt>
      <trkpt lat="45.86971" lon="5.48987">
        <ele>934</ele>
        <time>2020-05-28T11:25:22.000Z</time>
      </trkpt>
      <trkpt lat="45.86973" lon="5.48989">
        <ele>934</ele>
        <time>2020-05-28T11:25:24.000Z</time>
      </trkpt>
      <trkpt lat="45.86974" lon="5.48991">
        <ele>934</ele>
        <time>2020-05-28T11:25:26.000Z</time>
      </trkpt>
      <trkpt lat="45.86977" lon="5.48993">
        <ele>934</ele>
        <time>2020-05-28T11:25:28.000Z</time>
      </trkpt>
      <trkpt lat="45.86979" lon="5.48996">
        <ele>934</ele>
        <time>2020-05-28T11:25:30.000Z</time>
      </trkpt>
      <trkpt lat="45.86981" lon="5.48998">
        <ele>934</ele>
        <time>2020-05-28T11:25:32.000Z</time>
      </trkpt>
      <trkpt lat="45.86983" lon="5.49001">
        <ele>934</ele>
        <time>2020-05-28T11:25:34.000Z</time>
      </trkpt>
      <trkpt lat="45.86985" lon="5.49002">
        <ele>934.21190774187</ele>
        <time>2020-05-28T11:25:37.000Z</time>
      </trkpt>
      <trkpt lat="45.86987" lon="5.49004">
        <ele>934.41372402382</ele>
        <time>2020-05-28T11:25:39.000Z</time>
      </trkpt>
      <trkpt lat="45.86989" lon="5.49005">
        <ele>934.71644844676</ele>
        <time>2020-05-28T11:25:42.000Z</time>
      </trkpt>
      <trkpt lat="45.86991" lon="5.49007">
        <ele>935</ele>
        <time>2020-05-28T11:25:47.000Z</time>
      </trkpt>
      <trkpt lat="45.86992" lon="5.49008">
        <ele>935</ele>
        <time>2020-05-28T11:25:58.000Z</time>
      </trkpt>
      <trkpt lat="45.86994" lon="5.49009">
        <ele>935</ele>
        <time>2020-05-28T11:26:18.000Z</time>
      </trkpt>
      <trkpt lat="45.86993" lon="5.49012">
        <ele>935</ele>
        <time>2020-05-28T11:26:32.000Z</time>
      </trkpt>
      <trkpt lat="45.86992" lon="5.49015">
        <ele>935</ele>
        <time>2020-05-28T11:26:38.000Z</time>
      </trkpt>
      <trkpt lat="45.86987" lon="5.49027">
        <ele>935.10567521295</ele>
        <time>2020-05-28T11:26:46.000Z</time>
      </trkpt>
      <trkpt lat="45.86984" lon="5.49033">
        <ele>935.39921747113</ele>
        <time>2020-05-28T11:26:49.000Z</time>
      </trkpt>
      <trkpt lat="45.86982" lon="5.49037">
        <ele>935.59491230993</ele>
        <time>2020-05-28T11:26:51.000Z</time>
      </trkpt>
      <trkpt lat="45.86981" lon="5.4904">
        <ele>935.79060714872</ele>
        <time>2020-05-28T11:26:53.000Z</time>
      </trkpt>
      <trkpt lat="45.8698" lon="5.49042">
        <ele>935.98630198751</ele>
        <time>2020-05-28T11:26:55.000Z</time>
      </trkpt>
      <trkpt lat="45.86978" lon="5.49045">
        <ele>936.19234806458</ele>
        <time>2020-05-28T11:26:57.000Z</time>
      </trkpt>
      <trkpt lat="45.86976" lon="5.49047">
        <ele>936.39917322882</ele>
        <time>2020-05-28T11:26:59.000Z</time>
      </trkpt>
      <trkpt lat="45.86974" lon="5.49048">
        <ele>936.60599839305</ele>
        <time>2020-05-28T11:27:01.000Z</time>
      </trkpt>
      <trkpt lat="45.86972" lon="5.49051">
        <ele>936.9162361394</ele>
        <time>2020-05-28T11:27:04.000Z</time>
      </trkpt>
      <trkpt lat="45.86971" lon="5.49053">
        <ele>937</ele>
        <time>2020-05-28T11:27:06.000Z</time>
      </trkpt>
      <trkpt lat="45.8697" lon="5.49056">
        <ele>937</ele>
        <time>2020-05-28T11:27:08.000Z</time>
      </trkpt>
      <trkpt lat="45.86965" lon="5.49059">
        <ele>937</ele>
        <time>2020-05-28T11:27:13.000Z</time>
      </trkpt>
      <trkpt lat="45.86962" lon="5.49061">
        <ele>937</ele>
        <time>2020-05-28T11:27:16.000Z</time>
      </trkpt>
      <trkpt lat="45.8696" lon="5.49063">
        <ele>937</ele>
        <time>2020-05-28T11:27:17.000Z</time>
      </trkpt>
      <trkpt lat="45.86958" lon="5.49065">
        <ele>937</ele>
        <time>2020-05-28T11:27:19.000Z</time>
      </trkpt>
      <trkpt lat="45.86956" lon="5.49065">
        <ele>937</ele>
        <time>2020-05-28T11:27:21.000Z</time>
      </trkpt>
      <trkpt lat="45.86953" lon="5.49066">
        <ele>937</ele>
        <time>2020-05-28T11:27:23.000Z</time>
      </trkpt>
      <trkpt lat="45.86951" lon="5.49067">
        <ele>937.03800064</ele>
        <time>2020-05-28T11:27:25.000Z</time>
      </trkpt>
      <trkpt lat="45.86948" lon="5.49069">
        <ele>937.63800064</ele>
        <time>2020-05-28T11:27:28.000Z</time>
      </trkpt>
      <trkpt lat="45.86946" lon="5.49071">
        <ele>938.03800064</ele>
        <time>2020-05-28T11:27:30.000Z</time>
      </trkpt>
      <trkpt lat="45.86944" lon="5.49074">
        <ele>938.43800064</ele>
        <time>2020-05-28T11:27:32.000Z</time>
      </trkpt>
      <trkpt lat="45.86942" lon="5.49075">
        <ele>938.83800064</ele>
        <time>2020-05-28T11:27:34.000Z</time>
      </trkpt>
      <trkpt lat="45.86939" lon="5.49076">
        <ele>939</ele>
        <time>2020-05-28T11:27:36.000Z</time>
      </trkpt>
      <trkpt lat="45.86936" lon="5.49077">
        <ele>939</ele>
        <time>2020-05-28T11:27:38.000Z</time>
      </trkpt>
      <trkpt lat="45.86934" lon="5.49078">
        <ele>939</ele>
        <time>2020-05-28T11:27:40.000Z</time>
      </trkpt>
      <trkpt lat="45.86932" lon="5.4908">
        <ele>939</ele>
        <time>2020-05-28T11:27:42.000Z</time>
      </trkpt>
      <trkpt lat="45.8693" lon="5.49082">
        <ele>939</ele>
        <time>2020-05-28T11:27:44.000Z</time>
      </trkpt>
      <trkpt lat="45.86929" lon="5.49083">
        <ele>939</ele>
        <time>2020-05-28T11:27:46.000Z</time>
      </trkpt>
      <trkpt lat="45.86926" lon="5.49084">
        <ele>939</ele>
        <time>2020-05-28T11:27:48.000Z</time>
      </trkpt>
      <trkpt lat="45.86923" lon="5.49086">
        <ele>939</ele>
        <time>2020-05-28T11:27:50.000Z</time>
      </trkpt>
      <trkpt lat="45.86921" lon="5.49087">
        <ele>939</ele>
        <time>2020-05-28T11:27:52.000Z</time>
      </trkpt>
      <trkpt lat="45.86918" lon="5.49089">
        <ele>939</ele>
        <time>2020-05-28T11:27:54.000Z</time>
      </trkpt>
      <trkpt lat="45.86916" lon="5.4909">
        <ele>939.11723422348</ele>
        <time>2020-05-28T11:27:56.000Z</time>
      </trkpt>
      <trkpt lat="45.86914" lon="5.49092">
        <ele>939.31763515359</ele>
        <time>2020-05-28T11:27:58.000Z</time>
      </trkpt>
      <trkpt lat="45.86911" lon="5.49093">
        <ele>939.51803608371</ele>
        <time>2020-05-28T11:28:00.000Z</time>
      </trkpt>
      <trkpt lat="45.86909" lon="5.49094">
        <ele>939.71843701383</ele>
        <time>2020-05-28T11:28:02.000Z</time>
      </trkpt>
      <trkpt lat="45.86907" lon="5.49095">
        <ele>939.91883794394</ele>
        <time>2020-05-28T11:28:04.000Z</time>
      </trkpt>
      <trkpt lat="45.86905" lon="5.49097">
        <ele>940</ele>
        <time>2020-05-28T11:28:06.000Z</time>
      </trkpt>
      <trkpt lat="45.86902" lon="5.49097">
        <ele>940</ele>
        <time>2020-05-28T11:28:08.000Z</time>
      </trkpt>
      <trkpt lat="45.86899" lon="5.49098">
        <ele>940</ele>
        <time>2020-05-28T11:28:10.000Z</time>
      </trkpt>
      <trkpt lat="45.86898" lon="5.49098">
        <ele>940</ele>
        <time>2020-05-28T11:28:12.000Z</time>
      </trkpt>
      <trkpt lat="45.86895" lon="5.491">
        <ele>940</ele>
        <time>2020-05-28T11:28:16.000Z</time>
      </trkpt>
      <trkpt lat="45.86891" lon="5.49101">
        <ele>940</ele>
        <time>2020-05-28T11:28:18.000Z</time>
      </trkpt>
      <trkpt lat="45.86889" lon="5.49102">
        <ele>940</ele>
        <time>2020-05-28T11:28:20.000Z</time>
      </trkpt>
      <trkpt lat="45.86886" lon="5.49103">
        <ele>940</ele>
        <time>2020-05-28T11:28:22.000Z</time>
      </trkpt>
      <trkpt lat="45.86883" lon="5.49105">
        <ele>940</ele>
        <time>2020-05-28T11:28:24.000Z</time>
      </trkpt>
      <trkpt lat="45.86881" lon="5.49107">
        <ele>940</ele>
        <time>2020-05-28T11:28:26.000Z</time>
      </trkpt>
      <trkpt lat="45.86878" lon="5.49108">
        <ele>940</ele>
        <time>2020-05-28T11:28:28.000Z</time>
      </trkpt>
      <trkpt lat="45.86875" lon="5.49109">
        <ele>940</ele>
        <time>2020-05-28T11:28:30.000Z</time>
      </trkpt>
      <trkpt lat="45.86873" lon="5.49111">
        <ele>940</ele>
        <time>2020-05-28T11:28:32.000Z</time>
      </trkpt>
      <trkpt lat="45.8687" lon="5.49113">
        <ele>940</ele>
        <time>2020-05-28T11:28:34.000Z</time>
      </trkpt>
      <trkpt lat="45.86867" lon="5.49114">
        <ele>940</ele>
        <time>2020-05-28T11:28:36.000Z</time>
      </trkpt>
      <trkpt lat="45.86864" lon="5.49115">
        <ele>940</ele>
        <time>2020-05-28T11:28:38.000Z</time>
      </trkpt>
      <trkpt lat="45.86862" lon="5.49115">
        <ele>940</ele>
        <time>2020-05-28T11:28:40.000Z</time>
      </trkpt>
      <trkpt lat="45.86859" lon="5.49116">
        <ele>940</ele>
        <time>2020-05-28T11:28:42.000Z</time>
      </trkpt>
      <trkpt lat="45.86857" lon="5.49117">
        <ele>940</ele>
        <time>2020-05-28T11:28:44.000Z</time>
      </trkpt>
      <trkpt lat="45.86855" lon="5.49118">
        <ele>940</ele>
        <time>2020-05-28T11:28:46.000Z</time>
      </trkpt>
      <trkpt lat="45.86852" lon="5.49118">
        <ele>940</ele>
        <time>2020-05-28T11:28:49.000Z</time>
      </trkpt>
      <trkpt lat="45.8685" lon="5.49118">
        <ele>940</ele>
        <time>2020-05-28T11:28:51.000Z</time>
      </trkpt>
      <trkpt lat="45.86847" lon="5.49118">
        <ele>940</ele>
        <time>2020-05-28T11:28:53.000Z</time>
      </trkpt>
      <trkpt lat="45.86845" lon="5.49119">
        <ele>940.01655275044</ele>
        <time>2020-05-28T11:28:55.000Z</time>
      </trkpt>
      <trkpt lat="45.86842" lon="5.4912">
        <ele>940.21129465666</ele>
        <time>2020-05-28T11:28:57.000Z</time>
      </trkpt>
      <trkpt lat="45.8684" lon="5.4912">
        <ele>940.40603656287</ele>
        <time>2020-05-28T11:28:59.000Z</time>
      </trkpt>
      <trkpt lat="45.86837" lon="5.4912">
        <ele>940.60077846909</ele>
        <time>2020-05-28T11:29:01.000Z</time>
      </trkpt>
      <trkpt lat="45.86834" lon="5.49119">
        <ele>940.7955203753</ele>
        <time>2020-05-28T11:29:03.000Z</time>
      </trkpt>
      <trkpt lat="45.86832" lon="5.49119">
        <ele>940.99026228152</ele>
        <time>2020-05-28T11:29:05.000Z</time>
      </trkpt>
      <trkpt lat="45.86829" lon="5.49118">
        <ele>941</ele>
        <time>2020-05-28T11:29:07.000Z</time>
      </trkpt>
      <trkpt lat="45.86826" lon="5.49118">
        <ele>941</ele>
        <time>2020-05-28T11:29:10.000Z</time>
      </trkpt>
      <trkpt lat="45.86823" lon="5.49117">
        <ele>941</ele>
        <time>2020-05-28T11:29:12.000Z</time>
      </trkpt>
      <trkpt lat="45.86813" lon="5.49118">
        <ele>941.31900032</ele>
        <time>2020-05-28T11:29:18.000Z</time>
      </trkpt>
      <trkpt lat="45.86803" lon="5.49118">
        <ele>942</ele>
        <time>2020-05-28T11:29:26.000Z</time>
      </trkpt>
      <trkpt lat="45.86793" lon="5.49117">
        <ele>942</ele>
        <time>2020-05-28T11:29:33.000Z</time>
      </trkpt>
      <trkpt lat="45.86784" lon="5.49119">
        <ele>942</ele>
        <time>2020-05-28T11:29:43.000Z</time>
      </trkpt>
      <trkpt lat="45.86775" lon="5.49125">
        <ele>942.61212096137</ele>
        <time>2020-05-28T11:29:51.000Z</time>
      </trkpt>
      <trkpt lat="45.86766" lon="5.4913">
        <ele>943</ele>
        <time>2020-05-28T11:29:58.000Z</time>
      </trkpt>
      <trkpt lat="45.86758" lon="5.49139">
        <ele>943</ele>
        <time>2020-05-28T11:30:07.000Z</time>
      </trkpt>
      <trkpt lat="45.86756" lon="5.49141">
        <ele>943</ele>
        <time>2020-05-28T11:30:09.000Z</time>
      </trkpt>
      <trkpt lat="45.86755" lon="5.49144">
        <ele>943</ele>
        <time>2020-05-28T11:30:12.000Z</time>
      </trkpt>
      <trkpt lat="45.86754" lon="5.49146">
        <ele>943</ele>
        <time>2020-05-28T11:30:14.000Z</time>
      </trkpt>
      <trkpt lat="45.86752" lon="5.49148">
        <ele>943.11900032</ele>
        <time>2020-05-28T11:30:16.000Z</time>
      </trkpt>
      <trkpt lat="45.8675" lon="5.49151">
        <ele>943.41900032</ele>
        <time>2020-05-28T11:30:19.000Z</time>
      </trkpt>
      <trkpt lat="45.86748" lon="5.49154">
        <ele>943.61900032</ele>
        <time>2020-05-28T11:30:21.000Z</time>
      </trkpt>
      <trkpt lat="45.86747" lon="5.49158">
        <ele>943.81900032</ele>
        <time>2020-05-28T11:30:23.000Z</time>
      </trkpt>
      <trkpt lat="45.86744" lon="5.49162">
        <ele>944</ele>
        <time>2020-05-28T11:30:27.000Z</time>
      </trkpt>
      <trkpt lat="45.86741" lon="5.49166">
        <ele>944</ele>
        <time>2020-05-28T11:30:30.000Z</time>
      </trkpt>
      <trkpt lat="45.8674" lon="5.49169">
        <ele>944</ele>
        <time>2020-05-28T11:30:32.000Z</time>
      </trkpt>
      <trkpt lat="45.86738" lon="5.49172">
        <ele>944</ele>
        <time>2020-05-28T11:30:34.000Z</time>
      </trkpt>
      <trkpt lat="45.86736" lon="5.49176">
        <ele>944</ele>
        <time>2020-05-28T11:30:36.000Z</time>
      </trkpt>
      <trkpt lat="45.86735" lon="5.49179">
        <ele>944</ele>
        <time>2020-05-28T11:30:38.000Z</time>
      </trkpt>
      <trkpt lat="45.86733" lon="5.49181">
        <ele>944</ele>
        <time>2020-05-28T11:30:40.000Z</time>
      </trkpt>
      <trkpt lat="45.86731" lon="5.49183">
        <ele>944</ele>
        <time>2020-05-28T11:30:42.000Z</time>
      </trkpt>
      <trkpt lat="45.8673" lon="5.49185">
        <ele>944</ele>
        <time>2020-05-28T11:30:44.000Z</time>
      </trkpt>
      <trkpt lat="45.86728" lon="5.49187">
        <ele>944</ele>
        <time>2020-05-28T11:30:46.000Z</time>
      </trkpt>
      <trkpt lat="45.86726" lon="5.49189">
        <ele>944</ele>
        <time>2020-05-28T11:30:48.000Z</time>
      </trkpt>
      <trkpt lat="45.86724" lon="5.49191">
        <ele>944</ele>
        <time>2020-05-28T11:30:50.000Z</time>
      </trkpt>
      <trkpt lat="45.86722" lon="5.49193">
        <ele>944</ele>
        <time>2020-05-28T11:30:51.000Z</time>
      </trkpt>
      <trkpt lat="45.8672" lon="5.49195">
        <ele>944</ele>
        <time>2020-05-28T11:30:53.000Z</time>
      </trkpt>
      <trkpt lat="45.86717" lon="5.49196">
        <ele>944.01900032</ele>
        <time>2020-05-28T11:30:55.000Z</time>
      </trkpt>
      <trkpt lat="45.86715" lon="5.49198">
        <ele>944.21900032</ele>
        <time>2020-05-28T11:30:57.000Z</time>
      </trkpt>
      <trkpt lat="45.86712" lon="5.49199">
        <ele>944.41900032</ele>
        <time>2020-05-28T11:30:59.000Z</time>
      </trkpt>
      <trkpt lat="45.86711" lon="5.49201">
        <ele>944.61900032</ele>
        <time>2020-05-28T11:31:01.000Z</time>
      </trkpt>
      <trkpt lat="45.86708" lon="5.49202">
        <ele>944.81900032</ele>
        <time>2020-05-28T11:31:03.000Z</time>
      </trkpt>
      <trkpt lat="45.86706" lon="5.49203">
        <ele>945.01900032</ele>
        <time>2020-05-28T11:31:05.000Z</time>
      </trkpt>
      <trkpt lat="45.86704" lon="5.49205">
        <ele>945.21900032</ele>
        <time>2020-05-28T11:31:07.000Z</time>
      </trkpt>
      <trkpt lat="45.86702" lon="5.49206">
        <ele>945.41900032</ele>
        <time>2020-05-28T11:31:09.000Z</time>
      </trkpt>
      <trkpt lat="45.867" lon="5.49207">
        <ele>945.61900032</ele>
        <time>2020-05-28T11:31:11.000Z</time>
      </trkpt>
      <trkpt lat="45.86698" lon="5.49208">
        <ele>945.81900032</ele>
        <time>2020-05-28T11:31:13.000Z</time>
      </trkpt>
      <trkpt lat="45.86695" lon="5.49208">
        <ele>946</ele>
        <time>2020-05-28T11:31:15.000Z</time>
      </trkpt>
      <trkpt lat="45.86693" lon="5.49209">
        <ele>946</ele>
        <time>2020-05-28T11:31:17.000Z</time>
      </trkpt>
      <trkpt lat="45.8669" lon="5.4921">
        <ele>946</ele>
        <time>2020-05-28T11:31:19.000Z</time>
      </trkpt>
      <trkpt lat="45.86688" lon="5.4921">
        <ele>946</ele>
        <time>2020-05-28T11:31:21.000Z</time>
      </trkpt>
      <trkpt lat="45.86686" lon="5.49211">
        <ele>946</ele>
        <time>2020-05-28T11:31:23.000Z</time>
      </trkpt>
      <trkpt lat="45.86683" lon="5.49211">
        <ele>946</ele>
        <time>2020-05-28T11:31:25.000Z</time>
      </trkpt>
      <trkpt lat="45.8668" lon="5.49209">
        <ele>946</ele>
        <time>2020-05-28T11:31:27.000Z</time>
      </trkpt>
      <trkpt lat="45.86678" lon="5.49209">
        <ele>946</ele>
        <time>2020-05-28T11:31:29.000Z</time>
      </trkpt>
      <trkpt lat="45.86672" lon="5.49209">
        <ele>946</ele>
        <time>2020-05-28T11:31:33.000Z</time>
      </trkpt>
      <trkpt lat="45.8667" lon="5.49211">
        <ele>946</ele>
        <time>2020-05-28T11:31:35.000Z</time>
      </trkpt>
      <trkpt lat="45.86659" lon="5.49213">
        <ele>946</ele>
        <time>2020-05-28T11:31:42.000Z</time>
      </trkpt>
      <trkpt lat="45.86649" lon="5.49215">
        <ele>946</ele>
        <time>2020-05-28T11:31:49.000Z</time>
      </trkpt>
      <trkpt lat="45.86639" lon="5.49217">
        <ele>946.21900032</ele>
        <time>2020-05-28T11:31:57.000Z</time>
      </trkpt>
      <trkpt lat="45.86629" lon="5.49218">
        <ele>946.91900032</ele>
        <time>2020-05-28T11:32:04.000Z</time>
      </trkpt>
      <trkpt lat="45.86621" lon="5.49209">
        <ele>947</ele>
        <time>2020-05-28T11:32:13.000Z</time>
      </trkpt>
      <trkpt lat="45.86612" lon="5.49204">
        <ele>947.71030941711</ele>
        <time>2020-05-28T11:32:22.000Z</time>
      </trkpt>
      <trkpt lat="45.86603" lon="5.49198">
        <ele>948</ele>
        <time>2020-05-28T11:32:28.000Z</time>
      </trkpt>
      <trkpt lat="45.86594" lon="5.49191">
        <ele>948</ele>
        <time>2020-05-28T11:32:37.000Z</time>
      </trkpt>
      <trkpt lat="45.86586" lon="5.49182">
        <ele>948.01900032</ele>
        <time>2020-05-28T11:32:45.000Z</time>
      </trkpt>
      <trkpt lat="45.86578" lon="5.49176">
        <ele>948.71900032</ele>
        <time>2020-05-28T11:32:52.000Z</time>
      </trkpt>
      <trkpt lat="45.86573" lon="5.49165">
        <ele>949</ele>
        <time>2020-05-28T11:33:00.000Z</time>
      </trkpt>
      <trkpt lat="45.86568" lon="5.49158">
        <ele>949</ele>
        <time>2020-05-28T11:33:05.000Z</time>
      </trkpt>
      <trkpt lat="45.86566" lon="5.49157">
        <ele>949</ele>
        <time>2020-05-28T11:33:07.000Z</time>
      </trkpt>
      <trkpt lat="45.86564" lon="5.49155">
        <ele>949</ele>
        <time>2020-05-28T11:33:09.000Z</time>
      </trkpt>
      <trkpt lat="45.86561" lon="5.49154">
        <ele>949</ele>
        <time>2020-05-28T11:33:11.000Z</time>
      </trkpt>
      <trkpt lat="45.86558" lon="5.49153">
        <ele>949</ele>
        <time>2020-05-28T11:33:13.000Z</time>
      </trkpt>
      <trkpt lat="45.86548" lon="5.4915">
        <ele>949</ele>
        <time>2020-05-28T11:33:20.000Z</time>
      </trkpt>
      <trkpt lat="45.86539" lon="5.49149">
        <ele>949</ele>
        <time>2020-05-28T11:33:28.000Z</time>
      </trkpt>
      <trkpt lat="45.8653" lon="5.49146">
        <ele>949</ele>
        <time>2020-05-28T11:33:37.000Z</time>
      </trkpt>
      <trkpt lat="45.86521" lon="5.4914">
        <ele>949</ele>
        <time>2020-05-28T11:33:45.000Z</time>
      </trkpt>
      <trkpt lat="45.86512" lon="5.49132">
        <ele>949</ele>
        <time>2020-05-28T11:33:53.000Z</time>
      </trkpt>
      <trkpt lat="45.86504" lon="5.49125">
        <ele>949.61287121561</ele>
        <time>2020-05-28T11:34:01.000Z</time>
      </trkpt>
      <trkpt lat="45.86496" lon="5.49117">
        <ele>950</ele>
        <time>2020-05-28T11:34:08.000Z</time>
      </trkpt>
      <trkpt lat="45.86487" lon="5.4911">
        <ele>950</ele>
        <time>2020-05-28T11:34:15.000Z</time>
      </trkpt>
      <trkpt lat="45.86481" lon="5.49099">
        <ele>951.41882195034</ele>
        <time>2020-05-28T11:34:22.000Z</time>
      </trkpt>
      <trkpt lat="45.8648" lon="5.49093">
        <ele>952</ele>
        <time>2020-05-28T11:34:28.000Z</time>
      </trkpt>
      <trkpt lat="45.86475" lon="5.49105">
        <ele>952</ele>
        <time>2020-05-28T11:34:45.000Z</time>
      </trkpt>
      <trkpt lat="45.86474" lon="5.4909">
        <ele>951.48684178138</ele>
        <time>2020-05-28T11:35:00.000Z</time>
      </trkpt>
      <trkpt lat="45.86466" lon="5.49086">
        <ele>952.43656453517</ele>
        <time>2020-05-28T11:35:12.000Z</time>
      </trkpt>
      <trkpt lat="45.86458" lon="5.49077">
        <ele>953</ele>
        <time>2020-05-28T11:35:22.000Z</time>
      </trkpt>
      <trkpt lat="45.86454" lon="5.49068">
        <ele>953</ele>
        <time>2020-05-28T11:35:28.000Z</time>
      </trkpt>
      <trkpt lat="45.86451" lon="5.49055">
        <ele>953</ele>
        <time>2020-05-28T11:35:38.000Z</time>
      </trkpt>
      <trkpt lat="45.86449" lon="5.49053">
        <ele>953</ele>
        <time>2020-05-28T11:35:41.000Z</time>
      </trkpt>
      <trkpt lat="45.86447" lon="5.49051">
        <ele>953</ele>
        <time>2020-05-28T11:35:43.000Z</time>
      </trkpt>
      <trkpt lat="45.86446" lon="5.49048">
        <ele>953.11900032</ele>
        <time>2020-05-28T11:35:46.000Z</time>
      </trkpt>
      <trkpt lat="45.86446" lon="5.49045">
        <ele>953.41900032</ele>
        <time>2020-05-28T11:35:49.000Z</time>
      </trkpt>
      <trkpt lat="45.86444" lon="5.49043">
        <ele>953.61900032</ele>
        <time>2020-05-28T11:35:51.000Z</time>
      </trkpt>
      <trkpt lat="45.86443" lon="5.49041">
        <ele>953.71900032</ele>
        <time>2020-05-28T11:35:52.000Z</time>
      </trkpt>
      <trkpt lat="45.86441" lon="5.49039">
        <ele>953.81900032</ele>
        <time>2020-05-28T11:35:53.000Z</time>
      </trkpt>
      <trkpt lat="45.86439" lon="5.49034">
        <ele>954.11829050129</ele>
        <time>2020-05-28T11:35:56.000Z</time>
      </trkpt>
      <trkpt lat="45.86437" lon="5.4903">
        <ele>954.31709753187</ele>
        <time>2020-05-28T11:35:58.000Z</time>
      </trkpt>
      <trkpt lat="45.86436" lon="5.49027">
        <ele>954.51590456245</ele>
        <time>2020-05-28T11:36:00.000Z</time>
      </trkpt>
      <trkpt lat="45.86435" lon="5.49024">
        <ele>954.81411510832</ele>
        <time>2020-05-28T11:36:03.000Z</time>
      </trkpt>
      <trkpt lat="45.86435" lon="5.4902">
        <ele>955</ele>
        <time>2020-05-28T11:36:05.000Z</time>
      </trkpt>
      <trkpt lat="45.86435" lon="5.49018">
        <ele>955</ele>
        <time>2020-05-28T11:36:07.000Z</time>
      </trkpt>
      <trkpt lat="45.86434" lon="5.49014">
        <ele>955</ele>
        <time>2020-05-28T11:36:09.000Z</time>
      </trkpt>
      <trkpt lat="45.86435" lon="5.49">
        <ele>955.21704696675</ele>
        <time>2020-05-28T11:36:17.000Z</time>
      </trkpt>
      <trkpt lat="45.86433" lon="5.48987">
        <ele>956.01009145991</ele>
        <time>2020-05-28T11:36:25.000Z</time>
      </trkpt>
      <trkpt lat="45.86433" lon="5.48975">
        <ele>956.5146321648</ele>
        <time>2020-05-28T11:36:30.000Z</time>
      </trkpt>
      <trkpt lat="45.86433" lon="5.48972">
        <ele>956.71644844676</ele>
        <time>2020-05-28T11:36:32.000Z</time>
      </trkpt>
      <trkpt lat="45.86434" lon="5.48966">
        <ele>957</ele>
        <time>2020-05-28T11:36:37.000Z</time>
      </trkpt>
      <trkpt lat="45.86434" lon="5.48962">
        <ele>957</ele>
        <time>2020-05-28T11:36:39.000Z</time>
      </trkpt>
      <trkpt lat="45.86434" lon="5.48958">
        <ele>957</ele>
        <time>2020-05-28T11:36:41.000Z</time>
      </trkpt>
      <trkpt lat="45.86433" lon="5.48956">
        <ele>957</ele>
        <time>2020-05-28T11:36:43.000Z</time>
      </trkpt>
      <trkpt lat="45.86433" lon="5.48952">
        <ele>957.11900032</ele>
        <time>2020-05-28T11:36:46.000Z</time>
      </trkpt>
      <trkpt lat="45.86433" lon="5.48949">
        <ele>957.31900032</ele>
        <time>2020-05-28T11:36:48.000Z</time>
      </trkpt>
      <trkpt lat="45.86433" lon="5.48945">
        <ele>957.51900032</ele>
        <time>2020-05-28T11:36:50.000Z</time>
      </trkpt>
      <trkpt lat="45.86432" lon="5.48941">
        <ele>957.71900032</ele>
        <time>2020-05-28T11:36:52.000Z</time>
      </trkpt>
      <trkpt lat="45.86426" lon="5.4893">
        <ele>957.58432507937</ele>
        <time>2020-05-28T11:36:59.000Z</time>
      </trkpt>
      <trkpt lat="45.86421" lon="5.4892">
        <ele>957.21270193548</ele>
        <time>2020-05-28T11:37:07.000Z</time>
      </trkpt>
      <trkpt lat="45.86414" lon="5.48909">
        <ele>958</ele>
        <time>2020-05-28T11:37:16.000Z</time>
      </trkpt>
      <trkpt lat="45.86406" lon="5.48902">
        <ele>958</ele>
        <time>2020-05-28T11:37:24.000Z</time>
      </trkpt>
      <trkpt lat="45.86397" lon="5.48906">
        <ele>958.51900032</ele>
        <time>2020-05-28T11:37:30.000Z</time>
      </trkpt>
      <trkpt lat="45.86387" lon="5.48908">
        <ele>959</ele>
        <time>2020-05-28T11:37:40.000Z</time>
      </trkpt>
      <trkpt lat="45.86378" lon="5.48914">
        <ele>959</ele>
        <time>2020-05-28T11:37:48.000Z</time>
      </trkpt>
      <trkpt lat="45.86375" lon="5.48908">
        <ele>959</ele>
        <time>2020-05-28T11:37:57.000Z</time>
      </trkpt>
      <trkpt lat="45.86368" lon="5.48915">
        <ele>959.21900032</ele>
        <time>2020-05-28T11:38:17.000Z</time>
      </trkpt>
      <trkpt lat="45.86366" lon="5.48913">
        <ele>959.51900032</ele>
        <time>2020-05-28T11:38:20.000Z</time>
      </trkpt>
      <trkpt lat="45.86367" lon="5.4891">
        <ele>959.91900032</ele>
        <time>2020-05-28T11:38:24.000Z</time>
      </trkpt>
      <trkpt lat="45.86364" lon="5.48915">
        <ele>959.70133918979</ele>
        <time>2020-05-28T11:38:38.000Z</time>
      </trkpt>
      <trkpt lat="45.86362" lon="5.48914">
        <ele>959</ele>
        <time>2020-05-28T11:38:50.000Z</time>
      </trkpt>
      <trkpt lat="45.8636" lon="5.48913">
        <ele>959</ele>
        <time>2020-05-28T11:39:09.000Z</time>
      </trkpt>
      <trkpt lat="45.86363" lon="5.4891">
        <ele>959</ele>
        <time>2020-05-28T11:39:17.000Z</time>
      </trkpt>
      <trkpt lat="45.86358" lon="5.48923">
        <ele>959</ele>
        <time>2020-05-28T11:39:49.000Z</time>
      </trkpt>
      <trkpt lat="45.86352" lon="5.48934">
        <ele>958.38099968</ele>
        <time>2020-05-28T11:40:01.000Z</time>
      </trkpt>
      <trkpt lat="45.86344" lon="5.48941">
        <ele>958.51848200391</ele>
        <time>2020-05-28T11:40:10.000Z</time>
      </trkpt>
      <trkpt lat="45.86342" lon="5.48941">
        <ele>958.71828226758</ele>
        <time>2020-05-28T11:40:12.000Z</time>
      </trkpt>
      <trkpt lat="45.86333" lon="5.48945">
        <ele>959.71871912914</ele>
        <time>2020-05-28T11:40:22.000Z</time>
      </trkpt>
      <trkpt lat="45.86331" lon="5.48947">
        <ele>959.91891926521</ele>
        <time>2020-05-28T11:40:24.000Z</time>
      </trkpt>
      <trkpt lat="45.86328" lon="5.48948">
        <ele>960.11900032</ele>
        <time>2020-05-28T11:40:26.000Z</time>
      </trkpt>
      <trkpt lat="45.86326" lon="5.4895">
        <ele>960.31900032</ele>
        <time>2020-05-28T11:40:28.000Z</time>
      </trkpt>
      <trkpt lat="45.86324" lon="5.48952">
        <ele>960.51900032</ele>
        <time>2020-05-28T11:40:30.000Z</time>
      </trkpt>
      <trkpt lat="45.86322" lon="5.48954">
        <ele>960.71900032</ele>
        <time>2020-05-28T11:40:32.000Z</time>
      </trkpt>
      <trkpt lat="45.86319" lon="5.48957">
        <ele>960.91900032</ele>
        <time>2020-05-28T11:40:34.000Z</time>
      </trkpt>
      <trkpt lat="45.86318" lon="5.4896">
        <ele>961</ele>
        <time>2020-05-28T11:40:36.000Z</time>
      </trkpt>
      <trkpt lat="45.86316" lon="5.48962">
        <ele>961</ele>
        <time>2020-05-28T11:40:38.000Z</time>
      </trkpt>
      <trkpt lat="45.86314" lon="5.48964">
        <ele>961</ele>
        <time>2020-05-28T11:40:40.000Z</time>
      </trkpt>
      <trkpt lat="45.8631" lon="5.4897">
        <ele>961.01900032</ele>
        <time>2020-05-28T11:40:45.000Z</time>
      </trkpt>
      <trkpt lat="45.86308" lon="5.48972">
        <ele>961.21900032</ele>
        <time>2020-05-28T11:40:47.000Z</time>
      </trkpt>
      <trkpt lat="45.86306" lon="5.48975">
        <ele>961.41900032</ele>
        <time>2020-05-28T11:40:49.000Z</time>
      </trkpt>
      <trkpt lat="45.86303" lon="5.48977">
        <ele>961.61900032</ele>
        <time>2020-05-28T11:40:51.000Z</time>
      </trkpt>
      <trkpt lat="45.863" lon="5.48979">
        <ele>962</ele>
        <time>2020-05-28T11:40:55.000Z</time>
      </trkpt>
      <trkpt lat="45.86297" lon="5.4898">
        <ele>962</ele>
        <time>2020-05-28T11:40:58.000Z</time>
      </trkpt>
      <trkpt lat="45.86296" lon="5.48981">
        <ele>962</ele>
        <time>2020-05-28T11:41:00.000Z</time>
      </trkpt>
      <trkpt lat="45.86294" lon="5.48982">
        <ele>962</ele>
        <time>2020-05-28T11:41:02.000Z</time>
      </trkpt>
      <trkpt lat="45.86292" lon="5.48983">
        <ele>962</ele>
        <time>2020-05-28T11:41:04.000Z</time>
      </trkpt>
      <trkpt lat="45.86289" lon="5.48984">
        <ele>962.23092433735</ele>
        <time>2020-05-28T11:41:06.000Z</time>
      </trkpt>
      <trkpt lat="45.86287" lon="5.48985">
        <ele>962.63253076305</ele>
        <time>2020-05-28T11:41:08.000Z</time>
      </trkpt>
      <trkpt lat="45.86285" lon="5.48986">
        <ele>963.03413718876</ele>
        <time>2020-05-28T11:41:10.000Z</time>
      </trkpt>
      <trkpt lat="45.86283" lon="5.48987">
        <ele>963.43574361446</ele>
        <time>2020-05-28T11:41:12.000Z</time>
      </trkpt>
      <trkpt lat="45.86281" lon="5.48988">
        <ele>963.83735004016</ele>
        <time>2020-05-28T11:41:14.000Z</time>
      </trkpt>
      <trkpt lat="45.86279" lon="5.48989">
        <ele>964.11900032</ele>
        <time>2020-05-28T11:41:16.000Z</time>
      </trkpt>
      <trkpt lat="45.86276" lon="5.48991">
        <ele>964.31900032</ele>
        <time>2020-05-28T11:41:18.000Z</time>
      </trkpt>
      <trkpt lat="45.86274" lon="5.48992">
        <ele>964.51900032</ele>
        <time>2020-05-28T11:41:20.000Z</time>
      </trkpt>
      <trkpt lat="45.86272" lon="5.48993">
        <ele>964.71900032</ele>
        <time>2020-05-28T11:41:22.000Z</time>
      </trkpt>
      <trkpt lat="45.8627" lon="5.48994">
        <ele>964.91900032</ele>
        <time>2020-05-28T11:41:24.000Z</time>
      </trkpt>
      <trkpt lat="45.86268" lon="5.48996">
        <ele>965.11900032</ele>
        <time>2020-05-28T11:41:26.000Z</time>
      </trkpt>
      <trkpt lat="45.86266" lon="5.48997">
        <ele>965.31900032</ele>
        <time>2020-05-28T11:41:28.000Z</time>
      </trkpt>
      <trkpt lat="45.86263" lon="5.48999">
        <ele>965.61900032</ele>
        <time>2020-05-28T11:41:31.000Z</time>
      </trkpt>
      <trkpt lat="45.86262" lon="5.49">
        <ele>965.81900032</ele>
        <time>2020-05-28T11:41:33.000Z</time>
      </trkpt>
      <trkpt lat="45.8626" lon="5.49002">
        <ele>966.01846482242</ele>
        <time>2020-05-28T11:41:35.000Z</time>
      </trkpt>
      <trkpt lat="45.86258" lon="5.49003">
        <ele>966.21282810076</ele>
        <time>2020-05-28T11:41:37.000Z</time>
      </trkpt>
      <trkpt lat="45.86255" lon="5.49004">
        <ele>966.50437301827</ele>
        <time>2020-05-28T11:41:40.000Z</time>
      </trkpt>
      <trkpt lat="45.86254" lon="5.49005">
        <ele>966.69873629661</ele>
        <time>2020-05-28T11:41:42.000Z</time>
      </trkpt>
      <trkpt lat="45.86251" lon="5.49006">
        <ele>966.89309957495</ele>
        <time>2020-05-28T11:41:44.000Z</time>
      </trkpt>
      <trkpt lat="45.86249" lon="5.49007">
        <ele>967</ele>
        <time>2020-05-28T11:41:46.000Z</time>
      </trkpt>
      <trkpt lat="45.86247" lon="5.49009">
        <ele>967</ele>
        <time>2020-05-28T11:41:48.000Z</time>
      </trkpt>
      <trkpt lat="45.86245" lon="5.4901">
        <ele>967</ele>
        <time>2020-05-28T11:41:50.000Z</time>
      </trkpt>
      <trkpt lat="45.86244" lon="5.49012">
        <ele>967</ele>
        <time>2020-05-28T11:41:52.000Z</time>
      </trkpt>
      <trkpt lat="45.86242" lon="5.49013">
        <ele>967</ele>
        <time>2020-05-28T11:41:54.000Z</time>
      </trkpt>
      <trkpt lat="45.8624" lon="5.49015">
        <ele>967.11900032</ele>
        <time>2020-05-28T11:41:56.000Z</time>
      </trkpt>
      <trkpt lat="45.86238" lon="5.49017">
        <ele>967.41900032</ele>
        <time>2020-05-28T11:41:59.000Z</time>
      </trkpt>
      <trkpt lat="45.86236" lon="5.49019">
        <ele>967.71900032</ele>
        <time>2020-05-28T11:42:02.000Z</time>
      </trkpt>
      <trkpt lat="45.86234" lon="5.49021">
        <ele>967.91900032</ele>
        <time>2020-05-28T11:42:04.000Z</time>
      </trkpt>
      <trkpt lat="45.86233" lon="5.49023">
        <ele>968.11900032</ele>
        <time>2020-05-28T11:42:06.000Z</time>
      </trkpt>
      <trkpt lat="45.8623" lon="5.49025">
        <ele>968.41900032</ele>
        <time>2020-05-28T11:42:09.000Z</time>
      </trkpt>
      <trkpt lat="45.86229" lon="5.49027">
        <ele>968.61900032</ele>
        <time>2020-05-28T11:42:11.000Z</time>
      </trkpt>
      <trkpt lat="45.86227" lon="5.49029">
        <ele>968.81900032</ele>
        <time>2020-05-28T11:42:13.000Z</time>
      </trkpt>
      <trkpt lat="45.86226" lon="5.4903">
        <ele>969.03800064</ele>
        <time>2020-05-28T11:42:15.000Z</time>
      </trkpt>
      <trkpt lat="45.86224" lon="5.49032">
        <ele>969.43800064</ele>
        <time>2020-05-28T11:42:17.000Z</time>
      </trkpt>
      <trkpt lat="45.86222" lon="5.49034">
        <ele>970.03800064</ele>
        <time>2020-05-28T11:42:20.000Z</time>
      </trkpt>
      <trkpt lat="45.8622" lon="5.49036">
        <ele>970.43800064</ele>
        <time>2020-05-28T11:42:22.000Z</time>
      </trkpt>
      <trkpt lat="45.86218" lon="5.49037">
        <ele>970.83800064</ele>
        <time>2020-05-28T11:42:24.000Z</time>
      </trkpt>
      <trkpt lat="45.86216" lon="5.49039">
        <ele>971.21791055802</ele>
        <time>2020-05-28T11:42:27.000Z</time>
      </trkpt>
      <trkpt lat="45.86215" lon="5.49041">
        <ele>971.41691534305</ele>
        <time>2020-05-28T11:42:29.000Z</time>
      </trkpt>
      <trkpt lat="45.86213" lon="5.49042">
        <ele>971.61592012808</ele>
        <time>2020-05-28T11:42:31.000Z</time>
      </trkpt>
      <trkpt lat="45.86211" lon="5.49044">
        <ele>971.81492491311</ele>
        <time>2020-05-28T11:42:33.000Z</time>
      </trkpt>
      <trkpt lat="45.8621" lon="5.49046">
        <ele>972</ele>
        <time>2020-05-28T11:42:35.000Z</time>
      </trkpt>
      <trkpt lat="45.86208" lon="5.49047">
        <ele>972</ele>
        <time>2020-05-28T11:42:37.000Z</time>
      </trkpt>
      <trkpt lat="45.86206" lon="5.4905">
        <ele>972</ele>
        <time>2020-05-28T11:42:40.000Z</time>
      </trkpt>
      <trkpt lat="45.86204" lon="5.49052">
        <ele>972</ele>
        <time>2020-05-28T11:42:42.000Z</time>
      </trkpt>
      <trkpt lat="45.86202" lon="5.49054">
        <ele>972</ele>
        <time>2020-05-28T11:42:44.000Z</time>
      </trkpt>
      <trkpt lat="45.86201" lon="5.49056">
        <ele>972.23800064</ele>
        <time>2020-05-28T11:42:46.000Z</time>
      </trkpt>
      <trkpt lat="45.86199" lon="5.49058">
        <ele>972.63800064</ele>
        <time>2020-05-28T11:42:48.000Z</time>
      </trkpt>
      <trkpt lat="45.86197" lon="5.4906">
        <ele>973.03800064</ele>
        <time>2020-05-28T11:42:50.000Z</time>
      </trkpt>
      <trkpt lat="45.86195" lon="5.49063">
        <ele>973.63800064</ele>
        <time>2020-05-28T11:42:53.000Z</time>
      </trkpt>
      <trkpt lat="45.86193" lon="5.49065">
        <ele>974</ele>
        <time>2020-05-28T11:42:55.000Z</time>
      </trkpt>
      <trkpt lat="45.86191" lon="5.49067">
        <ele>974</ele>
        <time>2020-05-28T11:42:57.000Z</time>
      </trkpt>
      <trkpt lat="45.86189" lon="5.49068">
        <ele>974</ele>
        <time>2020-05-28T11:42:59.000Z</time>
      </trkpt>
      <trkpt lat="45.86188" lon="5.4907">
        <ele>974</ele>
        <time>2020-05-28T11:43:01.000Z</time>
      </trkpt>
      <trkpt lat="45.86186" lon="5.49072">
        <ele>974</ele>
        <time>2020-05-28T11:43:03.000Z</time>
      </trkpt>
      <trkpt lat="45.86185" lon="5.49074">
        <ele>974.01898134473</ele>
        <time>2020-05-28T11:43:05.000Z</time>
      </trkpt>
      <trkpt lat="45.86183" lon="5.49075">
        <ele>974.2187816084</ele>
        <time>2020-05-28T11:43:07.000Z</time>
      </trkpt>
      <trkpt lat="45.86182" lon="5.49077">
        <ele>974.41858187207</ele>
        <time>2020-05-28T11:43:09.000Z</time>
      </trkpt>
      <trkpt lat="45.8618" lon="5.49079">
        <ele>974.71828226758</ele>
        <time>2020-05-28T11:43:12.000Z</time>
      </trkpt>
      <trkpt lat="45.86178" lon="5.49082">
        <ele>975.01801865289</ele>
        <time>2020-05-28T11:43:15.000Z</time>
      </trkpt>
      <trkpt lat="45.86176" lon="5.49084">
        <ele>975.21821878896</ele>
        <time>2020-05-28T11:43:17.000Z</time>
      </trkpt>
      <trkpt lat="45.86174" lon="5.49086">
        <ele>975.41841892503</ele>
        <time>2020-05-28T11:43:19.000Z</time>
      </trkpt>
      <trkpt lat="45.86173" lon="5.49088">
        <ele>975.6186190611</ele>
        <time>2020-05-28T11:43:21.000Z</time>
      </trkpt>
      <trkpt lat="45.86171" lon="5.4909">
        <ele>975.81881919718</ele>
        <time>2020-05-28T11:43:23.000Z</time>
      </trkpt>
      <trkpt lat="45.86169" lon="5.49091">
        <ele>976</ele>
        <time>2020-05-28T11:43:25.000Z</time>
      </trkpt>
      <trkpt lat="45.86168" lon="5.49093">
        <ele>976</ele>
        <time>2020-05-28T11:43:27.000Z</time>
      </trkpt>
      <trkpt lat="45.86166" lon="5.49095">
        <ele>976</ele>
        <time>2020-05-28T11:43:29.000Z</time>
      </trkpt>
      <trkpt lat="45.86165" lon="5.49097">
        <ele>976</ele>
        <time>2020-05-28T11:43:31.000Z</time>
      </trkpt>
      <trkpt lat="45.86163" lon="5.49098">
        <ele>976</ele>
        <time>2020-05-28T11:43:33.000Z</time>
      </trkpt>
      <trkpt lat="45.86161" lon="5.491">
        <ele>976.01900032</ele>
        <time>2020-05-28T11:43:35.000Z</time>
      </trkpt>
      <trkpt lat="45.86159" lon="5.49102">
        <ele>976.21900032</ele>
        <time>2020-05-28T11:43:37.000Z</time>
      </trkpt>
      <trkpt lat="45.86157" lon="5.49104">
        <ele>976.41900032</ele>
        <time>2020-05-28T11:43:39.000Z</time>
      </trkpt>
      <trkpt lat="45.86155" lon="5.49106">
        <ele>976.61900032</ele>
        <time>2020-05-28T11:43:41.000Z</time>
      </trkpt>
      <trkpt lat="45.86153" lon="5.49107">
        <ele>976.81900032</ele>
        <time>2020-05-28T11:43:43.000Z</time>
      </trkpt>
      <trkpt lat="45.86151" lon="5.49108">
        <ele>977.01900032</ele>
        <time>2020-05-28T11:43:45.000Z</time>
      </trkpt>
      <trkpt lat="45.86149" lon="5.4911">
        <ele>977.21900032</ele>
        <time>2020-05-28T11:43:47.000Z</time>
      </trkpt>
      <trkpt lat="45.86147" lon="5.49111">
        <ele>977.41900032</ele>
        <time>2020-05-28T11:43:49.000Z</time>
      </trkpt>
      <trkpt lat="45.86145" lon="5.49112">
        <ele>977.71900032</ele>
        <time>2020-05-28T11:43:52.000Z</time>
      </trkpt>
      <trkpt lat="45.86143" lon="5.49114">
        <ele>977.91900032</ele>
        <time>2020-05-28T11:43:54.000Z</time>
      </trkpt>
      <trkpt lat="45.86141" lon="5.49116">
        <ele>978</ele>
        <time>2020-05-28T11:43:56.000Z</time>
      </trkpt>
      <trkpt lat="45.86139" lon="5.49117">
        <ele>978</ele>
        <time>2020-05-28T11:43:58.000Z</time>
      </trkpt>
      <trkpt lat="45.86137" lon="5.49119">
        <ele>978</ele>
        <time>2020-05-28T11:44:01.000Z</time>
      </trkpt>
      <trkpt lat="45.86135" lon="5.4912">
        <ele>978</ele>
        <time>2020-05-28T11:44:03.000Z</time>
      </trkpt>
      <trkpt lat="45.86133" lon="5.49121">
        <ele>978.23800064</ele>
        <time>2020-05-28T11:44:06.000Z</time>
      </trkpt>
      <trkpt lat="45.86131" lon="5.49123">
        <ele>978.63800064</ele>
        <time>2020-05-28T11:44:08.000Z</time>
      </trkpt>
      <trkpt lat="45.86129" lon="5.49124">
        <ele>979.03800064</ele>
        <time>2020-05-28T11:44:10.000Z</time>
      </trkpt>
      <trkpt lat="45.86121" lon="5.49132">
        <ele>980</ele>
        <time>2020-05-28T11:44:20.000Z</time>
      </trkpt>
      <trkpt lat="45.86119" lon="5.49133">
        <ele>980</ele>
        <time>2020-05-28T11:44:22.000Z</time>
      </trkpt>
      <trkpt lat="45.86117" lon="5.49134">
        <ele>980</ele>
        <time>2020-05-28T11:44:24.000Z</time>
      </trkpt>
      <trkpt lat="45.86115" lon="5.49135">
        <ele>980.11634908449</ele>
        <time>2020-05-28T11:44:26.000Z</time>
      </trkpt>
      <trkpt lat="45.86113" lon="5.49137">
        <ele>980.31695095429</ele>
        <time>2020-05-28T11:44:28.000Z</time>
      </trkpt>
      <trkpt lat="45.86112" lon="5.49138">
        <ele>980.51755282409</ele>
        <time>2020-05-28T11:44:30.000Z</time>
      </trkpt>
      <trkpt lat="45.86109" lon="5.49139">
        <ele>980.71815469389</ele>
        <time>2020-05-28T11:44:32.000Z</time>
      </trkpt>
      <trkpt lat="45.86107" lon="5.49141">
        <ele>981</ele>
        <time>2020-05-28T11:44:35.000Z</time>
      </trkpt>
      <trkpt lat="45.86106" lon="5.49141">
        <ele>981</ele>
        <time>2020-05-28T11:44:37.000Z</time>
      </trkpt>
      <trkpt lat="45.86097" lon="5.49149">
        <ele>981.42565620153</ele>
        <time>2020-05-28T11:44:47.000Z</time>
      </trkpt>
      <trkpt lat="45.86089" lon="5.49157">
        <ele>982.98056242824</ele>
        <time>2020-05-28T11:44:55.000Z</time>
      </trkpt>
      <trkpt lat="45.86081" lon="5.49164">
        <ele>983.60762095089</ele>
        <time>2020-05-28T11:45:01.000Z</time>
      </trkpt>
      <trkpt lat="45.86073" lon="5.4917">
        <ele>984.71900032</ele>
        <time>2020-05-28T11:45:12.000Z</time>
      </trkpt>
      <trkpt lat="45.86064" lon="5.49173">
        <ele>985</ele>
        <time>2020-05-28T11:45:22.000Z</time>
      </trkpt>
      <trkpt lat="45.86066" lon="5.49186">
        <ele>985.81900032</ele>
        <time>2020-05-28T11:45:33.000Z</time>
      </trkpt>
      <trkpt lat="45.86058" lon="5.49195">
        <ele>986.91900032</ele>
        <time>2020-05-28T11:45:44.000Z</time>
      </trkpt>
      <trkpt lat="45.86048" lon="5.49195">
        <ele>987.91900032</ele>
        <time>2020-05-28T11:45:54.000Z</time>
      </trkpt>
      <trkpt lat="45.86039" lon="5.49196">
        <ele>988.61900032</ele>
        <time>2020-05-28T11:46:11.000Z</time>
      </trkpt>
      <trkpt lat="45.86035" lon="5.49208">
        <ele>992.83264528926</ele>
        <time>2020-05-28T11:46:34.000Z</time>
      </trkpt>
      <trkpt lat="45.86029" lon="5.49218">
        <ele>996.01801865289</ele>
        <time>2020-05-28T11:46:55.000Z</time>
      </trkpt>
      <trkpt lat="45.86022" lon="5.49227">
        <ele>996.91891926521</ele>
        <time>2020-05-28T11:47:04.000Z</time>
      </trkpt>
      <trkpt lat="45.86018" lon="5.49238">
        <ele>1001.23800064</ele>
        <time>2020-05-28T11:47:26.000Z</time>
      </trkpt>
      <trkpt lat="45.8601" lon="5.49247">
        <ele>1004.23800064</ele>
        <time>2020-05-28T11:47:41.000Z</time>
      </trkpt>
      <trkpt lat="45.86004" lon="5.49256">
        <ele>1005</ele>
        <time>2020-05-28T11:47:54.000Z</time>
      </trkpt>
      <trkpt lat="45.85998" lon="5.49266">
        <ele>1008</ele>
        <time>2020-05-28T11:48:09.000Z</time>
      </trkpt>
      <trkpt lat="45.85993" lon="5.49272">
        <ele>1008.03800064</ele>
        <time>2020-05-28T11:48:15.000Z</time>
      </trkpt>
      <trkpt lat="45.85987" lon="5.49282">
        <ele>1010.23800064</ele>
        <time>2020-05-28T11:48:26.000Z</time>
      </trkpt>
      <trkpt lat="45.8598" lon="5.49291">
        <ele>1012</ele>
        <time>2020-05-28T11:48:38.000Z</time>
      </trkpt>
      <trkpt lat="45.85973" lon="5.49301">
        <ele>1012</ele>
        <time>2020-05-28T11:48:49.000Z</time>
      </trkpt>
      <trkpt lat="45.85971" lon="5.49303">
        <ele>1012</ele>
        <time>2020-05-28T11:48:52.000Z</time>
      </trkpt>
      <trkpt lat="45.85967" lon="5.49303">
        <ele>1012.71900032</ele>
        <time>2020-05-28T11:49:02.000Z</time>
      </trkpt>
      <trkpt lat="45.85964" lon="5.49301">
        <ele>1013</ele>
        <time>2020-05-28T11:49:05.000Z</time>
      </trkpt>
      <trkpt lat="45.85964" lon="5.49298">
        <ele>1013</ele>
        <time>2020-05-28T11:49:08.000Z</time>
      </trkpt>
      <trkpt lat="45.85958" lon="5.49288">
        <ele>1013.61900032</ele>
        <time>2020-05-28T11:49:21.000Z</time>
      </trkpt>
      <trkpt lat="45.85954" lon="5.49289">
        <ele>1014.11900032</ele>
        <time>2020-05-28T11:49:26.000Z</time>
      </trkpt>
      <trkpt lat="45.85952" lon="5.49295">
        <ele>1015</ele>
        <time>2020-05-28T11:49:35.000Z</time>
      </trkpt>
      <trkpt lat="45.8595" lon="5.49296">
        <ele>1015</ele>
        <time>2020-05-28T11:49:38.000Z</time>
      </trkpt>
      <trkpt lat="45.85948" lon="5.49295">
        <ele>1015</ele>
        <time>2020-05-28T11:49:43.000Z</time>
      </trkpt>
      <trkpt lat="45.85947" lon="5.49292">
        <ele>1015</ele>
        <time>2020-05-28T11:49:47.000Z</time>
      </trkpt>
      <trkpt lat="45.85946" lon="5.49289">
        <ele>1015</ele>
        <time>2020-05-28T11:49:50.000Z</time>
      </trkpt>
      <trkpt lat="45.85944" lon="5.49288">
        <ele>1015.11900032</ele>
        <time>2020-05-28T11:49:56.000Z</time>
      </trkpt>
      <trkpt lat="45.85943" lon="5.49286">
        <ele>1015.78099968</ele>
        <time>2020-05-28T11:50:07.000Z</time>
      </trkpt>
      <trkpt lat="45.85942" lon="5.49284">
        <ele>1015</ele>
        <time>2020-05-28T11:50:28.000Z</time>
      </trkpt>
      <trkpt lat="45.8594" lon="5.4928">
        <ele>1015</ele>
        <time>2020-05-28T11:50:30.000Z</time>
      </trkpt>
      <trkpt lat="45.85941" lon="5.49277">
        <ele>1015.43800064</ele>
        <time>2020-05-28T11:50:37.000Z</time>
      </trkpt>
      <trkpt lat="45.85941" lon="5.49275">
        <ele>1016.63800064</ele>
        <time>2020-05-28T11:50:43.000Z</time>
      </trkpt>
      <trkpt lat="45.85942" lon="5.49272">
        <ele>1018.0328354711</ele>
        <time>2020-05-28T11:50:50.000Z</time>
      </trkpt>
      <trkpt lat="45.85942" lon="5.49265">
        <ele>1019.3155775507</ele>
        <time>2020-05-28T11:50:58.000Z</time>
      </trkpt>
      <trkpt lat="45.8594" lon="5.49261">
        <ele>1019.7175879888</ele>
        <time>2020-05-28T11:51:02.000Z</time>
      </trkpt>
      <trkpt lat="45.85936" lon="5.49257">
        <ele>1020.8112302997</ele>
        <time>2020-05-28T11:51:09.000Z</time>
      </trkpt>
      <trkpt lat="45.85934" lon="5.49255">
        <ele>1021.7792848106</ele>
        <time>2020-05-28T11:51:14.000Z</time>
      </trkpt>
      <trkpt lat="45.85931" lon="5.49254">
        <ele>1022.2957606467</ele>
        <time>2020-05-28T11:51:18.000Z</time>
      </trkpt>
      <trkpt lat="45.85923" lon="5.49248">
        <ele>1024.63800064</ele>
        <time>2020-05-28T11:51:33.000Z</time>
      </trkpt>
      <trkpt lat="45.85914" lon="5.49249">
        <ele>1027</ele>
        <time>2020-05-28T11:51:46.000Z</time>
      </trkpt>
      <trkpt lat="45.85906" lon="5.49242">
        <ele>1028.85700096</ele>
        <time>2020-05-28T11:52:01.000Z</time>
      </trkpt>
      <trkpt lat="45.85897" lon="5.49237">
        <ele>1032.43800064</ele>
        <time>2020-05-28T11:52:22.000Z</time>
      </trkpt>
      <trkpt lat="45.85888" lon="5.49238">
        <ele>1035.03800064</ele>
        <time>2020-05-28T11:52:35.000Z</time>
      </trkpt>
      <trkpt lat="45.85878" lon="5.49237">
        <ele>1037.63800064</ele>
        <time>2020-05-28T11:52:48.000Z</time>
      </trkpt>
      <trkpt lat="45.85869" lon="5.49235">
        <ele>1040.03800064</ele>
        <time>2020-05-28T11:53:05.000Z</time>
      </trkpt>
      <trkpt lat="45.85867" lon="5.49234">
        <ele>1041.03800064</ele>
        <time>2020-05-28T11:53:10.000Z</time>
      </trkpt>
      <trkpt lat="45.8587" lon="5.49228">
        <ele>1042.51900032</ele>
        <time>2020-05-28T11:53:20.000Z</time>
      </trkpt>
      <trkpt lat="45.85876" lon="5.49219">
        <ele>1043</ele>
        <time>2020-05-28T11:53:34.000Z</time>
      </trkpt>
      <trkpt lat="45.85877" lon="5.49216">
        <ele>1043</ele>
        <time>2020-05-28T11:53:37.000Z</time>
      </trkpt>
      <trkpt lat="45.85878" lon="5.49213">
        <ele>1043</ele>
        <time>2020-05-28T11:53:40.000Z</time>
      </trkpt>
      <trkpt lat="45.85879" lon="5.49211">
        <ele>1043</ele>
        <time>2020-05-28T11:53:43.000Z</time>
      </trkpt>
      <trkpt lat="45.85881" lon="5.49207">
        <ele>1043.1156578273</ele>
        <time>2020-05-28T11:53:46.000Z</time>
      </trkpt>
      <trkpt lat="45.85884" lon="5.49201">
        <ele>1043.5044225879</ele>
        <time>2020-05-28T11:53:50.000Z</time>
      </trkpt>
      <trkpt lat="45.85885" lon="5.49198">
        <ele>1043.6988049682</ele>
        <time>2020-05-28T11:53:52.000Z</time>
      </trkpt>
      <trkpt lat="45.85885" lon="5.49194">
        <ele>1043.9903785387</ele>
        <time>2020-05-28T11:53:55.000Z</time>
      </trkpt>
      <trkpt lat="45.85886" lon="5.49192">
        <ele>1044</ele>
        <time>2020-05-28T11:53:57.000Z</time>
      </trkpt>
      <trkpt lat="45.85888" lon="5.49189">
        <ele>1044</ele>
        <time>2020-05-28T11:53:59.000Z</time>
      </trkpt>
      <trkpt lat="45.85889" lon="5.49186">
        <ele>1044</ele>
        <time>2020-05-28T11:54:01.000Z</time>
      </trkpt>
      <trkpt lat="45.85889" lon="5.49183">
        <ele>1044</ele>
        <time>2020-05-28T11:54:04.000Z</time>
      </trkpt>
      <trkpt lat="45.85891" lon="5.49179">
        <ele>1044</ele>
        <time>2020-05-28T11:54:06.000Z</time>
      </trkpt>
      <trkpt lat="45.85893" lon="5.49176">
        <ele>1044</ele>
        <time>2020-05-28T11:54:08.000Z</time>
      </trkpt>
      <trkpt lat="45.85894" lon="5.49173">
        <ele>1044</ele>
        <time>2020-05-28T11:54:10.000Z</time>
      </trkpt>
      <trkpt lat="45.85896" lon="5.49169">
        <ele>1044</ele>
        <time>2020-05-28T11:54:12.000Z</time>
      </trkpt>
      <trkpt lat="45.85896" lon="5.49165">
        <ele>1044</ele>
        <time>2020-05-28T11:54:14.000Z</time>
      </trkpt>
      <trkpt lat="45.85897" lon="5.49162">
        <ele>1044.2313156546</ele>
        <time>2020-05-28T11:54:16.000Z</time>
      </trkpt>
      <trkpt lat="45.85897" lon="5.49158">
        <ele>1044.6200804152</ele>
        <time>2020-05-28T11:54:18.000Z</time>
      </trkpt>
      <trkpt lat="45.85897" lon="5.49155">
        <ele>1045.0088451758</ele>
        <time>2020-05-28T11:54:20.000Z</time>
      </trkpt>
      <trkpt lat="45.85898" lon="5.49152">
        <ele>1045.3976099364</ele>
        <time>2020-05-28T11:54:22.000Z</time>
      </trkpt>
      <trkpt lat="45.85898" lon="5.4915">
        <ele>1045.7863746971</ele>
        <time>2020-05-28T11:54:24.000Z</time>
      </trkpt>
      <trkpt lat="45.85898" lon="5.49147">
        <ele>1046</ele>
        <time>2020-05-28T11:54:26.000Z</time>
      </trkpt>
      <trkpt lat="45.85898" lon="5.49144">
        <ele>1046</ele>
        <time>2020-05-28T11:54:28.000Z</time>
      </trkpt>
      <trkpt lat="45.85898" lon="5.4914">
        <ele>1046</ele>
        <time>2020-05-28T11:54:30.000Z</time>
      </trkpt>
      <trkpt lat="45.85898" lon="5.49137">
        <ele>1046</ele>
        <time>2020-05-28T11:54:32.000Z</time>
      </trkpt>
      <trkpt lat="45.85898" lon="5.49134">
        <ele>1046</ele>
        <time>2020-05-28T11:54:34.000Z</time>
      </trkpt>
      <trkpt lat="45.85899" lon="5.49131">
        <ele>1046.21900032</ele>
        <time>2020-05-28T11:54:37.000Z</time>
      </trkpt>
      <trkpt lat="45.859" lon="5.49128">
        <ele>1046.41900032</ele>
        <time>2020-05-28T11:54:39.000Z</time>
      </trkpt>
      <trkpt lat="45.85901" lon="5.49125">
        <ele>1046.71900032</ele>
        <time>2020-05-28T11:54:42.000Z</time>
      </trkpt>
      <trkpt lat="45.85901" lon="5.49122">
        <ele>1046.91900032</ele>
        <time>2020-05-28T11:54:44.000Z</time>
      </trkpt>
      <trkpt lat="45.85901" lon="5.49119">
        <ele>1047.11900032</ele>
        <time>2020-05-28T11:54:46.000Z</time>
      </trkpt>
      <trkpt lat="45.859" lon="5.49116">
        <ele>1047.31900032</ele>
        <time>2020-05-28T11:54:48.000Z</time>
      </trkpt>
      <trkpt lat="45.85901" lon="5.49113">
        <ele>1047.51900032</ele>
        <time>2020-05-28T11:54:50.000Z</time>
      </trkpt>
      <trkpt lat="45.85901" lon="5.49109">
        <ele>1047.81900032</ele>
        <time>2020-05-28T11:54:53.000Z</time>
      </trkpt>
      <trkpt lat="45.859" lon="5.49106">
        <ele>1048.0189813447</ele>
        <time>2020-05-28T11:54:55.000Z</time>
      </trkpt>
      <trkpt lat="45.859" lon="5.49103">
        <ele>1048.3186817402</ele>
        <time>2020-05-28T11:54:58.000Z</time>
      </trkpt>
      <trkpt lat="45.85901" lon="5.491">
        <ele>1048.5184820039</ele>
        <time>2020-05-28T11:55:00.000Z</time>
      </trkpt>
      <trkpt lat="45.85902" lon="5.49098">
        <ele>1048.7182822676</ele>
        <time>2020-05-28T11:55:02.000Z</time>
      </trkpt>
      <trkpt lat="45.85902" lon="5.49095">
        <ele>1049.0180186529</ele>
        <time>2020-05-28T11:55:05.000Z</time>
      </trkpt>
      <trkpt lat="45.85901" lon="5.49091">
        <ele>1049.218218789</ele>
        <time>2020-05-28T11:55:07.000Z</time>
      </trkpt>
      <trkpt lat="45.859" lon="5.49087">
        <ele>1049.418418925</ele>
        <time>2020-05-28T11:55:09.000Z</time>
      </trkpt>
      <trkpt lat="45.859" lon="5.49083">
        <ele>1049.7187191291</ele>
        <time>2020-05-28T11:55:12.000Z</time>
      </trkpt>
      <trkpt lat="45.859" lon="5.4908">
        <ele>1049.9189192652</ele>
        <time>2020-05-28T11:55:14.000Z</time>
      </trkpt>
      <trkpt lat="45.859" lon="5.49076">
        <ele>1050.43800064</ele>
        <time>2020-05-28T11:55:17.000Z</time>
      </trkpt>
      <trkpt lat="45.85901" lon="5.49073">
        <ele>1051.03800064</ele>
        <time>2020-05-28T11:55:20.000Z</time>
      </trkpt>
      <trkpt lat="45.85901" lon="5.4907">
        <ele>1051.63800064</ele>
        <time>2020-05-28T11:55:23.000Z</time>
      </trkpt>
      <trkpt lat="45.859" lon="5.49066">
        <ele>1052.01900032</ele>
        <time>2020-05-28T11:55:25.000Z</time>
      </trkpt>
      <trkpt lat="45.85899" lon="5.49062">
        <ele>1052.21900032</ele>
        <time>2020-05-28T11:55:27.000Z</time>
      </trkpt>
      <trkpt lat="45.85898" lon="5.4906">
        <ele>1052.51900032</ele>
        <time>2020-05-28T11:55:30.000Z</time>
      </trkpt>
      <trkpt lat="45.85895" lon="5.49059">
        <ele>1052.81900032</ele>
        <time>2020-05-28T11:55:33.000Z</time>
      </trkpt>
      <trkpt lat="45.85893" lon="5.49058">
        <ele>1053.01900032</ele>
        <time>2020-05-28T11:55:35.000Z</time>
      </trkpt>
      <trkpt lat="45.85892" lon="5.49057">
        <ele>1053.21900032</ele>
        <time>2020-05-28T11:55:37.000Z</time>
      </trkpt>
      <trkpt lat="45.85891" lon="5.49055">
        <ele>1053.41900032</ele>
        <time>2020-05-28T11:55:39.000Z</time>
      </trkpt>
      <trkpt lat="45.8589" lon="5.49053">
        <ele>1053.61900032</ele>
        <time>2020-05-28T11:55:41.000Z</time>
      </trkpt>
      <trkpt lat="45.85889" lon="5.4905">
        <ele>1053.81900032</ele>
        <time>2020-05-28T11:55:43.000Z</time>
      </trkpt>
      <trkpt lat="45.85888" lon="5.49047">
        <ele>1054.0189813447</ele>
        <time>2020-05-28T11:55:45.000Z</time>
      </trkpt>
      <trkpt lat="45.85888" lon="5.49043">
        <ele>1054.3186817402</ele>
        <time>2020-05-28T11:55:48.000Z</time>
      </trkpt>
      <trkpt lat="45.85888" lon="5.49041">
        <ele>1054.5184820039</ele>
        <time>2020-05-28T11:55:50.000Z</time>
      </trkpt>
      <trkpt lat="45.85887" lon="5.49038">
        <ele>1054.7182822676</ele>
        <time>2020-05-28T11:55:52.000Z</time>
      </trkpt>
      <trkpt lat="45.85886" lon="5.49034">
        <ele>1054.9180825313</ele>
        <time>2020-05-28T11:55:54.000Z</time>
      </trkpt>
      <trkpt lat="45.85885" lon="5.4903">
        <ele>1055</ele>
        <time>2020-05-28T11:55:56.000Z</time>
      </trkpt>
      <trkpt lat="45.85884" lon="5.49027">
        <ele>1055</ele>
        <time>2020-05-28T11:55:58.000Z</time>
      </trkpt>
      <trkpt lat="45.85883" lon="5.49024">
        <ele>1055</ele>
        <time>2020-05-28T11:56:00.000Z</time>
      </trkpt>
      <trkpt lat="45.85883" lon="5.49021">
        <ele>1055</ele>
        <time>2020-05-28T11:56:02.000Z</time>
      </trkpt>
      <trkpt lat="45.85884" lon="5.49018">
        <ele>1055</ele>
        <time>2020-05-28T11:56:04.000Z</time>
      </trkpt>
      <trkpt lat="45.85884" lon="5.49015">
        <ele>1055</ele>
        <time>2020-05-28T11:56:08.000Z</time>
      </trkpt>
      <trkpt lat="45.85883" lon="5.49011">
        <ele>1055</ele>
        <time>2020-05-28T11:56:11.000Z</time>
      </trkpt>
      <trkpt lat="45.85882" lon="5.49008">
        <ele>1055</ele>
        <time>2020-05-28T11:56:13.000Z</time>
      </trkpt>
      <trkpt lat="45.85881" lon="5.49005">
        <ele>1054.94299904</ele>
        <time>2020-05-28T11:56:15.000Z</time>
      </trkpt>
      <trkpt lat="45.85879" lon="5.49002">
        <ele>1054.34299904</ele>
        <time>2020-05-28T11:56:17.000Z</time>
      </trkpt>
      <trkpt lat="45.85878" lon="5.49">
        <ele>1053.74299904</ele>
        <time>2020-05-28T11:56:19.000Z</time>
      </trkpt>
      <trkpt lat="45.85877" lon="5.48996">
        <ele>1052.84299904</ele>
        <time>2020-05-28T11:56:22.000Z</time>
      </trkpt>
      <trkpt lat="45.85875" lon="5.48993">
        <ele>1052.24299904</ele>
        <time>2020-05-28T11:56:24.000Z</time>
      </trkpt>
      <trkpt lat="45.85874" lon="5.48991">
        <ele>1051.76199936</ele>
        <time>2020-05-28T11:56:26.000Z</time>
      </trkpt>
      <trkpt lat="45.85872" lon="5.48988">
        <ele>1051.36199936</ele>
        <time>2020-05-28T11:56:28.000Z</time>
      </trkpt>
      <trkpt lat="45.85871" lon="5.48985">
        <ele>1050.96199936</ele>
        <time>2020-05-28T11:56:30.000Z</time>
      </trkpt>
      <trkpt lat="45.8587" lon="5.48982">
        <ele>1050.56199936</ele>
        <time>2020-05-28T11:56:32.000Z</time>
      </trkpt>
      <trkpt lat="45.85868" lon="5.48979">
        <ele>1049.9815351776</ele>
        <time>2020-05-28T11:56:35.000Z</time>
      </trkpt>
      <trkpt lat="45.85867" lon="5.48976">
        <ele>1049.7871718992</ele>
        <time>2020-05-28T11:56:37.000Z</time>
      </trkpt>
      <trkpt lat="45.85866" lon="5.48974">
        <ele>1049.5928086209</ele>
        <time>2020-05-28T11:56:39.000Z</time>
      </trkpt>
      <trkpt lat="45.85865" lon="5.48972">
        <ele>1049.3984453426</ele>
        <time>2020-05-28T11:56:41.000Z</time>
      </trkpt>
      <trkpt lat="45.85864" lon="5.48969">
        <ele>1049.2040820642</ele>
        <time>2020-05-28T11:56:43.000Z</time>
      </trkpt>
      <trkpt lat="45.85862" lon="5.48965">
        <ele>1049.0097187859</ele>
        <time>2020-05-28T11:56:45.000Z</time>
      </trkpt>
      <trkpt lat="45.85863" lon="5.4896">
        <ele>1048.41297771</ele>
        <time>2020-05-28T11:56:47.000Z</time>
      </trkpt>
      <trkpt lat="45.85863" lon="5.48957">
        <ele>1047.7950574287</ele>
        <time>2020-05-28T11:56:49.000Z</time>
      </trkpt>
      <trkpt lat="45.85864" lon="5.48953">
        <ele>1047.1771371473</ele>
        <time>2020-05-28T11:56:51.000Z</time>
      </trkpt>
      <trkpt lat="45.85865" lon="5.4895">
        <ele>1046.559216866</ele>
        <time>2020-05-28T11:56:53.000Z</time>
      </trkpt>
      <trkpt lat="45.85866" lon="5.48947">
        <ele>1045.9430559658</ele>
        <time>2020-05-28T11:56:55.000Z</time>
      </trkpt>
      <trkpt lat="45.85866" lon="5.48943">
        <ele>1045.3436551748</ele>
        <time>2020-05-28T11:56:57.000Z</time>
      </trkpt>
      <trkpt lat="45.85867" lon="5.4894">
        <ele>1044.7442543838</ele>
        <time>2020-05-28T11:56:59.000Z</time>
      </trkpt>
      <trkpt lat="45.85868" lon="5.48937">
        <ele>1044.1448535928</ele>
        <time>2020-05-28T11:57:01.000Z</time>
      </trkpt>
      <trkpt lat="45.85869" lon="5.48935">
        <ele>1043.8451531973</ele>
        <time>2020-05-28T11:57:02.000Z</time>
      </trkpt>
      <trkpt lat="45.85871" lon="5.48931">
        <ele>1043.2457524062</ele>
        <time>2020-05-28T11:57:04.000Z</time>
      </trkpt>
      <trkpt lat="45.85872" lon="5.48928">
        <ele>1043</ele>
        <time>2020-05-28T11:57:06.000Z</time>
      </trkpt>
      <trkpt lat="45.85874" lon="5.48925">
        <ele>1043</ele>
        <time>2020-05-28T11:57:08.000Z</time>
      </trkpt>
      <trkpt lat="45.85875" lon="5.48923">
        <ele>1043</ele>
        <time>2020-05-28T11:57:10.000Z</time>
      </trkpt>
      <trkpt lat="45.85876" lon="5.4892">
        <ele>1043</ele>
        <time>2020-05-28T11:57:12.000Z</time>
      </trkpt>
      <trkpt lat="45.85877" lon="5.48918">
        <ele>1043</ele>
        <time>2020-05-28T11:57:14.000Z</time>
      </trkpt>
      <trkpt lat="45.85878" lon="5.48915">
        <ele>1042.64299904</ele>
        <time>2020-05-28T11:57:16.000Z</time>
      </trkpt>
      <trkpt lat="45.85879" lon="5.48913">
        <ele>1042.04299904</ele>
        <time>2020-05-28T11:57:18.000Z</time>
      </trkpt>
      <trkpt lat="45.8588" lon="5.4891">
        <ele>1041.44299904</ele>
        <time>2020-05-28T11:57:20.000Z</time>
      </trkpt>
      <trkpt lat="45.85881" lon="5.48906">
        <ele>1040.84299904</ele>
        <time>2020-05-28T11:57:22.000Z</time>
      </trkpt>
      <trkpt lat="45.85882" lon="5.48903">
        <ele>1040.24299904</ele>
        <time>2020-05-28T11:57:24.000Z</time>
      </trkpt>
      <trkpt lat="45.85883" lon="5.489">
        <ele>1039.7693792248</ele>
        <time>2020-05-28T11:57:26.000Z</time>
      </trkpt>
      <trkpt lat="45.85884" lon="5.48897">
        <ele>1039.3817823256</ele>
        <time>2020-05-28T11:57:28.000Z</time>
      </trkpt>
      <trkpt lat="45.85885" lon="5.48893">
        <ele>1038.9941854264</ele>
        <time>2020-05-28T11:57:30.000Z</time>
      </trkpt>
      <trkpt lat="45.85886" lon="5.4889">
        <ele>1038.6065885271</ele>
        <time>2020-05-28T11:57:32.000Z</time>
      </trkpt>
      <trkpt lat="45.85886" lon="5.48886">
        <ele>1038.2189916279</ele>
        <time>2020-05-28T11:57:34.000Z</time>
      </trkpt>
      <trkpt lat="45.85887" lon="5.48883">
        <ele>1037.8202472727</ele>
        <time>2020-05-28T11:57:36.000Z</time>
      </trkpt>
      <trkpt lat="45.85888" lon="5.48879">
        <ele>1037.4070241322</ele>
        <time>2020-05-28T11:57:38.000Z</time>
      </trkpt>
      <trkpt lat="45.85888" lon="5.48876">
        <ele>1036.9938009917</ele>
        <time>2020-05-28T11:57:40.000Z</time>
      </trkpt>
      <trkpt lat="45.85888" lon="5.48874">
        <ele>1036.5805778512</ele>
        <time>2020-05-28T11:57:42.000Z</time>
      </trkpt>
      <trkpt lat="45.85889" lon="5.4887">
        <ele>1036.1673547107</ele>
        <time>2020-05-28T11:57:44.000Z</time>
      </trkpt>
      <trkpt lat="45.8589" lon="5.48867">
        <ele>1035.76199936</ele>
        <time>2020-05-28T11:57:46.000Z</time>
      </trkpt>
      <trkpt lat="45.85891" lon="5.48864">
        <ele>1035.36199936</ele>
        <time>2020-05-28T11:57:48.000Z</time>
      </trkpt>
      <trkpt lat="45.85891" lon="5.48861">
        <ele>1034.96199936</ele>
        <time>2020-05-28T11:57:50.000Z</time>
      </trkpt>
      <trkpt lat="45.85892" lon="5.48856">
        <ele>1034.56199936</ele>
        <time>2020-05-28T11:57:52.000Z</time>
      </trkpt>
      <trkpt lat="45.85893" lon="5.48853">
        <ele>1034.16199936</ele>
        <time>2020-05-28T11:57:54.000Z</time>
      </trkpt>
      <trkpt lat="45.85893" lon="5.48848">
        <ele>1033.64299904</ele>
        <time>2020-05-28T11:57:56.000Z</time>
      </trkpt>
      <trkpt lat="45.85894" lon="5.48844">
        <ele>1033.04299904</ele>
        <time>2020-05-28T11:57:58.000Z</time>
      </trkpt>
      <trkpt lat="45.85895" lon="5.4884">
        <ele>1032.44299904</ele>
        <time>2020-05-28T11:58:00.000Z</time>
      </trkpt>
      <trkpt lat="45.85896" lon="5.48836">
        <ele>1031.84299904</ele>
        <time>2020-05-28T11:58:02.000Z</time>
      </trkpt>
      <trkpt lat="45.85897" lon="5.48833">
        <ele>1031.24299904</ele>
        <time>2020-05-28T11:58:04.000Z</time>
      </trkpt>
      <trkpt lat="45.85898" lon="5.4883">
        <ele>1030.8817094987</ele>
        <time>2020-05-28T11:58:06.000Z</time>
      </trkpt>
      <trkpt lat="45.85899" lon="5.48828">
        <ele>1030.6829024681</ele>
        <time>2020-05-28T11:58:08.000Z</time>
      </trkpt>
      <trkpt lat="45.85901" lon="5.48825">
        <ele>1030.4840954375</ele>
        <time>2020-05-28T11:58:10.000Z</time>
      </trkpt>
      <trkpt lat="45.85902" lon="5.48822">
        <ele>1030.285288407</ele>
        <time>2020-05-28T11:58:12.000Z</time>
      </trkpt>
      <trkpt lat="45.85904" lon="5.4882">
        <ele>1030.0864813764</ele>
        <time>2020-05-28T11:58:14.000Z</time>
      </trkpt>
      <trkpt lat="45.85905" lon="5.48817">
        <ele>1030</ele>
        <time>2020-05-28T11:58:16.000Z</time>
      </trkpt>
      <trkpt lat="45.85907" lon="5.48814">
        <ele>1030</ele>
        <time>2020-05-28T11:58:18.000Z</time>
      </trkpt>
      <trkpt lat="45.85908" lon="5.48811">
        <ele>1030</ele>
        <time>2020-05-28T11:58:20.000Z</time>
      </trkpt>
      <trkpt lat="45.85909" lon="5.48808">
        <ele>1030</ele>
        <time>2020-05-28T11:58:22.000Z</time>
      </trkpt>
      <trkpt lat="45.85911" lon="5.48806">
        <ele>1030</ele>
        <time>2020-05-28T11:58:24.000Z</time>
      </trkpt>
      <trkpt lat="45.85912" lon="5.48803">
        <ele>1029.88099968</ele>
        <time>2020-05-28T11:58:26.000Z</time>
      </trkpt>
      <trkpt lat="45.85913" lon="5.488">
        <ele>1029.68099968</ele>
        <time>2020-05-28T11:58:28.000Z</time>
      </trkpt>
      <trkpt lat="45.85915" lon="5.48797">
        <ele>1029.48099968</ele>
        <time>2020-05-28T11:58:30.000Z</time>
      </trkpt>
      <trkpt lat="45.85916" lon="5.48793">
        <ele>1029.28099968</ele>
        <time>2020-05-28T11:58:32.000Z</time>
      </trkpt>
      <trkpt lat="45.85918" lon="5.48789">
        <ele>1029.08099968</ele>
        <time>2020-05-28T11:58:34.000Z</time>
      </trkpt>
      <trkpt lat="45.85919" lon="5.48786">
        <ele>1028.88099968</ele>
        <time>2020-05-28T11:58:36.000Z</time>
      </trkpt>
      <trkpt lat="45.85921" lon="5.48783">
        <ele>1028.68099968</ele>
        <time>2020-05-28T11:58:38.000Z</time>
      </trkpt>
      <trkpt lat="45.85923" lon="5.4878">
        <ele>1028.48099968</ele>
        <time>2020-05-28T11:58:40.000Z</time>
      </trkpt>
      <trkpt lat="45.85924" lon="5.48777">
        <ele>1028.28099968</ele>
        <time>2020-05-28T11:58:42.000Z</time>
      </trkpt>
      <trkpt lat="45.85925" lon="5.48774">
        <ele>1028.08099968</ele>
        <time>2020-05-28T11:58:44.000Z</time>
      </trkpt>
      <trkpt lat="45.85927" lon="5.48771">
        <ele>1027.88099968</ele>
        <time>2020-05-28T11:58:46.000Z</time>
      </trkpt>
      <trkpt lat="45.85928" lon="5.48768">
        <ele>1027.68099968</ele>
        <time>2020-05-28T11:58:48.000Z</time>
      </trkpt>
      <trkpt lat="45.85929" lon="5.48765">
        <ele>1027.48099968</ele>
        <time>2020-05-28T11:58:50.000Z</time>
      </trkpt>
      <trkpt lat="45.8593" lon="5.48762">
        <ele>1027.28099968</ele>
        <time>2020-05-28T11:58:52.000Z</time>
      </trkpt>
      <trkpt lat="45.85932" lon="5.48759">
        <ele>1027.08099968</ele>
        <time>2020-05-28T11:58:54.000Z</time>
      </trkpt>
      <trkpt lat="45.85933" lon="5.48756">
        <ele>1027</ele>
        <time>2020-05-28T11:58:56.000Z</time>
      </trkpt>
      <trkpt lat="45.85934" lon="5.48753">
        <ele>1027</ele>
        <time>2020-05-28T11:58:58.000Z</time>
      </trkpt>
      <trkpt lat="45.85936" lon="5.4875">
        <ele>1027</ele>
        <time>2020-05-28T11:59:00.000Z</time>
      </trkpt>
      <trkpt lat="45.85937" lon="5.48746">
        <ele>1027</ele>
        <time>2020-05-28T11:59:02.000Z</time>
      </trkpt>
      <trkpt lat="45.85938" lon="5.48743">
        <ele>1027</ele>
        <time>2020-05-28T11:59:04.000Z</time>
      </trkpt>
      <trkpt lat="45.85939" lon="5.4874">
        <ele>1027</ele>
        <time>2020-05-28T11:59:06.000Z</time>
      </trkpt>
      <trkpt lat="45.85939" lon="5.48736">
        <ele>1027</ele>
        <time>2020-05-28T11:59:08.000Z</time>
      </trkpt>
      <trkpt lat="45.85939" lon="5.48733">
        <ele>1027</ele>
        <time>2020-05-28T11:59:10.000Z</time>
      </trkpt>
      <trkpt lat="45.85939" lon="5.4873">
        <ele>1027</ele>
        <time>2020-05-28T11:59:12.000Z</time>
      </trkpt>
      <trkpt lat="45.85939" lon="5.48727">
        <ele>1027</ele>
        <time>2020-05-28T11:59:14.000Z</time>
      </trkpt>
      <trkpt lat="45.85938" lon="5.48724">
        <ele>1027</ele>
        <time>2020-05-28T11:59:17.000Z</time>
      </trkpt>
      <trkpt lat="45.85936" lon="5.48721">
        <ele>1027</ele>
        <time>2020-05-28T11:59:20.000Z</time>
      </trkpt>
      <trkpt lat="45.85935" lon="5.48719">
        <ele>1027</ele>
        <time>2020-05-28T11:59:22.000Z</time>
      </trkpt>
      <trkpt lat="45.85933" lon="5.48716">
        <ele>1027</ele>
        <time>2020-05-28T11:59:25.000Z</time>
      </trkpt>
      <trkpt lat="45.85931" lon="5.48715">
        <ele>1027</ele>
        <time>2020-05-28T11:59:27.000Z</time>
      </trkpt>
      <trkpt lat="45.85929" lon="5.48714">
        <ele>1027</ele>
        <time>2020-05-28T11:59:29.000Z</time>
      </trkpt>
      <trkpt lat="45.85927" lon="5.48714">
        <ele>1027</ele>
        <time>2020-05-28T11:59:31.000Z</time>
      </trkpt>
      <trkpt lat="45.85924" lon="5.48714">
        <ele>1027</ele>
        <time>2020-05-28T11:59:33.000Z</time>
      </trkpt>
      <trkpt lat="45.85922" lon="5.48714">
        <ele>1027</ele>
        <time>2020-05-28T11:59:35.000Z</time>
      </trkpt>
      <trkpt lat="45.8592" lon="5.48714">
        <ele>1027</ele>
        <time>2020-05-28T11:59:37.000Z</time>
      </trkpt>
      <trkpt lat="45.85917" lon="5.48715">
        <ele>1027</ele>
        <time>2020-05-28T11:59:39.000Z</time>
      </trkpt>
      <trkpt lat="45.85914" lon="5.48715">
        <ele>1027</ele>
        <time>2020-05-28T11:59:41.000Z</time>
      </trkpt>
      <trkpt lat="45.85911" lon="5.48716">
        <ele>1027</ele>
        <time>2020-05-28T11:59:43.000Z</time>
      </trkpt>
      <trkpt lat="45.85909" lon="5.48717">
        <ele>1027</ele>
        <time>2020-05-28T11:59:45.000Z</time>
      </trkpt>
      <trkpt lat="45.85907" lon="5.48718">
        <ele>1027</ele>
        <time>2020-05-28T11:59:47.000Z</time>
      </trkpt>
      <trkpt lat="45.85905" lon="5.48719">
        <ele>1027</ele>
        <time>2020-05-28T11:59:49.000Z</time>
      </trkpt>
      <trkpt lat="45.85902" lon="5.4872">
        <ele>1027</ele>
        <time>2020-05-28T11:59:51.000Z</time>
      </trkpt>
      <trkpt lat="45.859" lon="5.48719">
        <ele>1027</ele>
        <time>2020-05-28T11:59:53.000Z</time>
      </trkpt>
      <trkpt lat="45.85898" lon="5.48716">
        <ele>1027.01900032</ele>
        <time>2020-05-28T11:59:55.000Z</time>
      </trkpt>
      <trkpt lat="45.85897" lon="5.48713">
        <ele>1027.21900032</ele>
        <time>2020-05-28T11:59:57.000Z</time>
      </trkpt>
      <trkpt lat="45.85896" lon="5.4871">
        <ele>1027.41900032</ele>
        <time>2020-05-28T11:59:59.000Z</time>
      </trkpt>
      <trkpt lat="45.85895" lon="5.48707">
        <ele>1027.61900032</ele>
        <time>2020-05-28T12:00:01.000Z</time>
      </trkpt>
      <trkpt lat="45.85895" lon="5.48704">
        <ele>1027.81900032</ele>
        <time>2020-05-28T12:00:03.000Z</time>
      </trkpt>
      <trkpt lat="45.85893" lon="5.48702">
        <ele>1028.01900032</ele>
        <time>2020-05-28T12:00:05.000Z</time>
      </trkpt>
      <trkpt lat="45.85891" lon="5.487">
        <ele>1028.21900032</ele>
        <time>2020-05-28T12:00:07.000Z</time>
      </trkpt>
      <trkpt lat="45.85889" lon="5.48697">
        <ele>1028.51900032</ele>
        <time>2020-05-28T12:00:10.000Z</time>
      </trkpt>
      <trkpt lat="45.85888" lon="5.48695">
        <ele>1028.71900032</ele>
        <time>2020-05-28T12:00:12.000Z</time>
      </trkpt>
      <trkpt lat="45.85887" lon="5.48692">
        <ele>1028.91900032</ele>
        <time>2020-05-28T12:00:14.000Z</time>
      </trkpt>
      <trkpt lat="45.85886" lon="5.48689">
        <ele>1029.11900032</ele>
        <time>2020-05-28T12:00:16.000Z</time>
      </trkpt>
      <trkpt lat="45.85884" lon="5.48686">
        <ele>1029.41900032</ele>
        <time>2020-05-28T12:00:19.000Z</time>
      </trkpt>
      <trkpt lat="45.85883" lon="5.48683">
        <ele>1029.61900032</ele>
        <time>2020-05-28T12:00:21.000Z</time>
      </trkpt>
      <trkpt lat="45.85879" lon="5.48671">
        <ele>1030.51900032</ele>
        <time>2020-05-28T12:00:30.000Z</time>
      </trkpt>
      <trkpt lat="45.85875" lon="5.48658">
        <ele>1032.0087460365</ele>
        <time>2020-05-28T12:00:40.000Z</time>
      </trkpt>
      <trkpt lat="45.85865" lon="5.48657">
        <ele>1033</ele>
        <time>2020-05-28T12:00:50.000Z</time>
      </trkpt>
      <trkpt lat="45.85864" lon="5.48659">
        <ele>1033</ele>
        <time>2020-05-28T12:00:52.000Z</time>
      </trkpt>
    </trkseg>
  </trk>
</gpx>